<?xml version='1.0' encoding='UTF-8'?><gpx version="1.1" creator="JPX - https://github.com/jenetics/jpx" xmlns="http://www.topografix.com/GPX/1/1"><trk><trkseg><trkpt lat="40.15827382251585" lon="9.192408381205555"><ele>783.0</ele><time>2026-04-29T07:51:52Z</time></trkpt><trkpt lat="40.158337785796775" lon="9.192466296151565"><ele>783.0</ele><time>2026-04-29T07:51:55Z</time></trkpt><trkpt lat="40.15840349942032" lon="9.192516525905324"><ele>783.0</ele><time>2026-04-29T07:51:58Z</time></trkpt><trkpt lat="40.158492050798465" lon="9.19254047074228"><ele>783.0</ele><time>2026-04-29T07:52:01Z</time></trkpt><trkpt lat="40.15856363499804" lon="9.19256139267918"><ele>783.0</ele><time>2026-04-29T07:52:05Z</time></trkpt><trkpt lat="40.15863688679629" lon="9.192607925489092"><ele>783.0</ele><time>2026-04-29T07:52:07Z</time></trkpt><trkpt lat="40.15871679080201" lon="9.19272078259705"><ele>783.0</ele><time>2026-04-29T07:52:09Z</time></trkpt><trkpt lat="40.158755011678196" lon="9.192789883364926"><ele>783.0</ele><time>2026-04-29T07:52:10Z</time></trkpt><trkpt lat="40.158805167377" lon="9.192843873399545"><ele>783.0</ele><time>2026-04-29T07:52:11Z</time></trkpt><trkpt lat="40.15887421497118" lon="9.192955428095267"><ele>783.0</ele><time>2026-04-29T07:52:13Z</time></trkpt><trkpt lat="40.158921596555615" lon="9.193014485466058"><ele>783.0</ele><time>2026-04-29T07:52:15Z</time></trkpt><trkpt lat="40.1589790979241" lon="9.19309052316866"><ele>783.0</ele><time>2026-04-29T07:52:18Z</time></trkpt><trkpt lat="40.15899320748517" lon="9.193203807541103"><ele>783.1666666666666</ele><time>2026-04-29T07:52:21Z</time></trkpt><trkpt lat="40.159005549010494" lon="9.19329906269502"><ele>783.3333333333333</ele><time>2026-04-29T07:52:23Z</time></trkpt><trkpt lat="40.159026470661445" lon="9.193406655168264"><ele>783.5</ele><time>2026-04-29T07:52:25Z</time></trkpt><trkpt lat="40.1590684508139" lon="9.19350431550888"><ele>783.6666666666666</ele><time>2026-04-29T07:52:27Z</time></trkpt><trkpt lat="40.159067186853086" lon="9.19358784886853"><ele>783.8333333333333</ele><time>2026-04-29T07:52:30Z</time></trkpt><trkpt lat="40.1590069437718" lon="9.193615746574375"><ele>784.0</ele><time>2026-04-29T07:52:36Z</time></trkpt><trkpt lat="40.158938653974296" lon="9.193556156335777"><ele>780.6</ele><time>2026-04-29T07:52:38Z</time></trkpt><trkpt lat="40.158876628284915" lon="9.19353536898053"><ele>777.2</ele><time>2026-04-29T07:52:39Z</time></trkpt><trkpt lat="40.15881231425237" lon="9.19345184454939"><ele>773.8000000000001</ele><time>2026-04-29T07:52:39.999Z</time></trkpt><trkpt lat="40.158730235374" lon="9.193368543388848"><ele>770.4000000000001</ele><time>2026-04-29T07:52:41.999Z</time></trkpt><trkpt lat="40.15866430464482" lon="9.193268325274264"><ele>767.0</ele><time>2026-04-29T07:52:43.999Z</time></trkpt><trkpt lat="40.158577010273476" lon="9.19322104889019"><ele>767.0</ele><time>2026-04-29T07:52:45.999Z</time></trkpt><trkpt lat="40.15853639357853" lon="9.193146335288967"><ele>767.0</ele><time>2026-04-29T07:52:48.999Z</time></trkpt><trkpt lat="40.15849047284996" lon="9.19323166043737"><ele>767.0</ele><time>2026-04-29T07:52:51.999Z</time></trkpt><trkpt lat="40.15845781198701" lon="9.193318499069642"><ele>767.0</ele><time>2026-04-29T07:52:55.999Z</time></trkpt><trkpt lat="40.15843010913849" lon="9.193394108684522"><ele>767.0</ele><time>2026-04-29T07:52:58.999Z</time></trkpt><trkpt lat="40.15844859049383" lon="9.193495700014058"><ele>767.0</ele><time>2026-04-29T07:53:01.999Z</time></trkpt><trkpt lat="40.15852307500006" lon="9.19354629118772"><ele>767.0</ele><time>2026-04-29T07:55:02.999Z</time></trkpt><trkpt lat="40.15856642627283" lon="9.193666435408"><ele>767.0</ele><time>2026-04-29T07:55:15.999Z</time></trkpt><trkpt lat="40.15862586804741" lon="9.193743031236107"><ele>767.0</ele><time>2026-04-29T07:55:17.999Z</time></trkpt><trkpt lat="40.15863814966957" lon="9.193836466737544"><ele>767.0</ele><time>2026-04-29T07:55:18.999Z</time></trkpt><trkpt lat="40.158667841471356" lon="9.193930290830064"><ele>767.0</ele><time>2026-04-29T07:55:20.999Z</time></trkpt><trkpt lat="40.15863823651313" lon="9.193809038940056"><ele>767.0</ele><time>2026-04-29T07:55:29.999Z</time></trkpt><trkpt lat="40.15859334771091" lon="9.193729744984608"><ele>767.0</ele><time>2026-04-29T07:55:30.999Z</time></trkpt><trkpt lat="40.15852609252997" lon="9.19360076821594"><ele>767.0</ele><time>2026-04-29T07:55:32.999Z</time></trkpt><trkpt lat="40.15846560540449" lon="9.19347966251853"><ele>767.0</ele><time>2026-04-29T07:55:34.999Z</time></trkpt><trkpt lat="40.15840009351482" lon="9.193394657565626"><ele>767.0</ele><time>2026-04-29T07:55:36.999Z</time></trkpt><trkpt lat="40.158316767935" lon="9.19332684864327"><ele>767.0</ele><time>2026-04-29T07:55:38.999Z</time></trkpt><trkpt lat="40.158208035784234" lon="9.193296499478018"><ele>766.4000000000001</ele><time>2026-04-29T07:55:40.999Z</time></trkpt><trkpt lat="40.158105664641745" lon="9.1933302316195"><ele>765.8000000000001</ele><time>2026-04-29T07:55:42.999Z</time></trkpt><trkpt lat="40.15801077256884" lon="9.193362800393148"><ele>765.2</ele><time>2026-04-29T07:55:44.999Z</time></trkpt><trkpt lat="40.15790447531671" lon="9.193441678769096"><ele>764.6</ele><time>2026-04-29T07:55:46.999Z</time></trkpt><trkpt lat="40.15780544744867" lon="9.193511002964586"><ele>764.0</ele><time>2026-04-29T07:55:48.999Z</time></trkpt><trkpt lat="40.15770487893424" lon="9.193563585690683"><ele>764.0</ele><time>2026-04-29T07:55:50.999Z</time></trkpt><trkpt lat="40.1575993523625" lon="9.193609239354021"><ele>764.0</ele><time>2026-04-29T07:55:52.999Z</time></trkpt><trkpt lat="40.15747715422174" lon="9.19363351280405"><ele>764.0</ele><time>2026-04-29T07:55:54.999Z</time></trkpt><trkpt lat="40.15736609212841" lon="9.193624609434384"><ele>764.0</ele><time>2026-04-29T07:55:56.999Z</time></trkpt><trkpt lat="40.15726547556334" lon="9.193633092943694"><ele>764.0</ele><time>2026-04-29T07:55:58.999Z</time></trkpt><trkpt lat="40.15716911100002" lon="9.193661362581189"><ele>766.0</ele><time>2026-04-29T07:56:00.999Z</time></trkpt><trkpt lat="40.15706166160576" lon="9.193661808333976"><ele>768.0</ele><time>2026-04-29T07:56:02.999Z</time></trkpt><trkpt lat="40.15695902002256" lon="9.193712818090784"><ele>770.0</ele><time>2026-04-29T07:56:04.999Z</time></trkpt><trkpt lat="40.156799723966465" lon="9.193795263021116"><ele>772.0</ele><time>2026-04-29T07:56:07.999Z</time></trkpt><trkpt lat="40.15669241990957" lon="9.19387324430973"><ele>772.0000000000001</ele><time>2026-04-29T07:56:09.999Z</time></trkpt><trkpt lat="40.156629073163195" lon="9.193907390073253"><ele>772.0</ele><time>2026-04-29T07:56:10.999Z</time></trkpt><trkpt lat="40.15657880683588" lon="9.193961005647"><ele>772.0</ele><time>2026-04-29T07:56:11.999Z</time></trkpt><trkpt lat="40.156518407362675" lon="9.194004315904346"><ele>772.0</ele><time>2026-04-29T07:56:12.999Z</time></trkpt><trkpt lat="40.15645676375506" lon="9.194047441748909"><ele>772.0</ele><time>2026-04-29T07:56:13.999Z</time></trkpt><trkpt lat="40.15639693341612" lon="9.194089466201746"><ele>772.0000000000001</ele><time>2026-04-29T07:56:14.999Z</time></trkpt><trkpt lat="40.15634781712159" lon="9.194142088480962"><ele>772.0</ele><time>2026-04-29T07:56:15.999Z</time></trkpt><trkpt lat="40.15628662839847" lon="9.19419266807555"><ele>767.9999999999999</ele><time>2026-04-29T07:56:16.999Z</time></trkpt><trkpt lat="40.156222660736745" lon="9.194237110596655"><ele>764.0</ele><time>2026-04-29T07:56:17.999Z</time></trkpt><trkpt lat="40.15615298479809" lon="9.194267899304442"><ele>760.0</ele><time>2026-04-29T07:56:18.999Z</time></trkpt><trkpt lat="40.15607760436652" lon="9.194286801303347"><ele>756.0</ele><time>2026-04-29T07:56:19.999Z</time></trkpt><trkpt lat="40.156002458232834" lon="9.194297666110396"><ele>752.0</ele><time>2026-04-29T07:56:20.999Z</time></trkpt><trkpt lat="40.15592379412201" lon="9.194304575580427"><ele>748.0</ele><time>2026-04-29T07:56:21.999Z</time></trkpt><trkpt lat="40.1558491802787" lon="9.194310671197256"><ele>748.0</ele><time>2026-04-29T07:56:22.999Z</time></trkpt><trkpt lat="40.155772197213324" lon="9.194320503593076"><ele>748.0</ele><time>2026-04-29T07:56:23.999Z</time></trkpt><trkpt lat="40.155696911137035" lon="9.194326276728136"><ele>748.0</ele><time>2026-04-29T07:56:24.999Z</time></trkpt><trkpt lat="40.155623334839134" lon="9.19433736714696"><ele>748.0</ele><time>2026-04-29T07:56:25.999Z</time></trkpt><trkpt lat="40.155552005216904" lon="9.194351370448109"><ele>748.0</ele><time>2026-04-29T07:56:26.999Z</time></trkpt><trkpt lat="40.155476635574935" lon="9.194366566074043"><ele>748.0</ele><time>2026-04-29T07:56:27.999Z</time></trkpt><trkpt lat="40.155400497998" lon="9.19438983318846"><ele>748.3333333333334</ele><time>2026-04-29T07:56:28.999Z</time></trkpt><trkpt lat="40.15532941378084" lon="9.194400004675849"><ele>748.6666666666667</ele><time>2026-04-29T07:56:29.999Z</time></trkpt><trkpt lat="40.155255776706156" lon="9.194398393062487"><ele>749.0</ele><time>2026-04-29T07:56:30.999Z</time></trkpt><trkpt lat="40.15518099585625" lon="9.194412999110261"><ele>749.3333333333334</ele><time>2026-04-29T07:56:31.999Z</time></trkpt><trkpt lat="40.15510735838019" lon="9.194428331230807"><ele>749.6666666666666</ele><time>2026-04-29T07:56:32.999Z</time></trkpt><trkpt lat="40.15503047446353" lon="9.19444793523516"><ele>750.0</ele><time>2026-04-29T07:56:33.999Z</time></trkpt><trkpt lat="40.154952838784844" lon="9.194446129952611"><ele>750.0</ele><time>2026-04-29T07:56:34.999Z</time></trkpt><trkpt lat="40.15487346018637" lon="9.194482657448175"><ele>750.0</ele><time>2026-04-29T07:56:35.999Z</time></trkpt><trkpt lat="40.1547997060065" lon="9.194515468429266"><ele>750.0</ele><time>2026-04-29T07:56:36.999Z</time></trkpt><trkpt lat="40.15472588318319" lon="9.194552153888829"><ele>750.0</ele><time>2026-04-29T07:56:37.999Z</time></trkpt><trkpt lat="40.15465975395054" lon="9.194609122036065"><ele>750.0</ele><time>2026-04-29T07:56:38.999Z</time></trkpt><trkpt lat="40.15460035640743" lon="9.194690546434567"><ele>750.0</ele><time>2026-04-29T07:56:39.999Z</time></trkpt><trkpt lat="40.15453893126666" lon="9.194792577282934"><ele>748.5</ele><time>2026-04-29T07:56:40.999Z</time></trkpt><trkpt lat="40.15449137364793" lon="9.194884656522541"><ele>747.0</ele><time>2026-04-29T07:56:41.999Z</time></trkpt><trkpt lat="40.15445522957703" lon="9.194986900223709"><ele>745.5</ele><time>2026-04-29T07:56:42.999Z</time></trkpt><trkpt lat="40.15441163442997" lon="9.195083425275664"><ele>744.0</ele><time>2026-04-29T07:56:43.999Z</time></trkpt><trkpt lat="40.154387387967056" lon="9.195177477555431"><ele>742.5</ele><time>2026-04-29T07:56:44.999Z</time></trkpt><trkpt lat="40.15437439490126" lon="9.19526034243673"><ele>741.0</ele><time>2026-04-29T07:56:45.999Z</time></trkpt><trkpt lat="40.15435097230936" lon="9.195365881696924"><ele>741.0</ele><time>2026-04-29T07:56:47.999Z</time></trkpt><trkpt lat="40.1544800733133" lon="9.19545121181159"><ele>741.0</ele><time>2026-04-29T07:56:50.999Z</time></trkpt><trkpt lat="40.15455889628336" lon="9.195479782650395"><ele>741.0</ele><time>2026-04-29T07:56:53.999Z</time></trkpt><trkpt lat="40.15462096244043" lon="9.19545554191824"><ele>741.0</ele><time>2026-04-29T07:56:57.999Z</time></trkpt><trkpt lat="40.154701542466114" lon="9.195399234144393"><ele>741.0</ele><time>2026-04-29T07:57:04.999Z</time></trkpt><trkpt lat="40.15472623654041" lon="9.195321007966413"><ele>741.0</ele><time>2026-04-29T07:57:05.999Z</time></trkpt><trkpt lat="40.154773365271446" lon="9.195263616431214"><ele>741.0</ele><time>2026-04-29T07:57:06.999Z</time></trkpt><trkpt lat="40.15480903122587" lon="9.195187509153945"><ele>741.0</ele><time>2026-04-29T07:57:07.999Z</time></trkpt><trkpt lat="40.15484666681392" lon="9.195105474428837"><ele>741.0</ele><time>2026-04-29T07:57:08.999Z</time></trkpt><trkpt lat="40.154887837584845" lon="9.195020452096596"><ele>741.0</ele><time>2026-04-29T07:57:09.999Z</time></trkpt><trkpt lat="40.15493514313435" lon="9.194932339705746"><ele>741.0</ele><time>2026-04-29T07:57:10.999Z</time></trkpt><trkpt lat="40.155014577059966" lon="9.19488712998858"><ele>741.0</ele><time>2026-04-29T07:57:11.999Z</time></trkpt><trkpt lat="40.15510745701936" lon="9.194890823742405"><ele>738.5999999999999</ele><time>2026-04-29T07:57:12.999Z</time></trkpt><trkpt lat="40.15520514143379" lon="9.194890058727067"><ele>736.2</ele><time>2026-04-29T07:57:13.999Z</time></trkpt><trkpt lat="40.15530016260613" lon="9.194883839530386"><ele>733.8</ele><time>2026-04-29T07:57:14.999Z</time></trkpt><trkpt lat="40.15539715760718" lon="9.194902405928172"><ele>731.4000000000001</ele><time>2026-04-29T07:57:15.999Z</time></trkpt><trkpt lat="40.15549205322929" lon="9.194904598601621"><ele>729.0</ele><time>2026-04-29T07:57:16.999Z</time></trkpt><trkpt lat="40.1555914228235" lon="9.194898463152791"><ele>729.0</ele><time>2026-04-29T07:57:17.999Z</time></trkpt><trkpt lat="40.15569526692881" lon="9.194895708835215"><ele>729.0</ele><time>2026-04-29T07:57:18.999Z</time></trkpt><trkpt lat="40.15579902017919" lon="9.194910471471928"><ele>729.0</ele><time>2026-04-29T07:57:19.999Z</time></trkpt><trkpt lat="40.15590090168969" lon="9.194913617120285"><ele>729.0</ele><time>2026-04-29T07:57:20.999Z</time></trkpt><trkpt lat="40.15600097187643" lon="9.19491767656497"><ele>729.0</ele><time>2026-04-29T07:57:21.999Z</time></trkpt><trkpt lat="40.15609407810337" lon="9.194921842223973"><ele>728.4000000000001</ele><time>2026-04-29T07:57:22.999Z</time></trkpt><trkpt lat="40.15618187428037" lon="9.194916256814471"><ele>727.8</ele><time>2026-04-29T07:57:23.999Z</time></trkpt><trkpt lat="40.15627627450734" lon="9.194887309867939"><ele>727.2</ele><time>2026-04-29T07:57:24.999Z</time></trkpt><trkpt lat="40.15636202191142" lon="9.194849733643752"><ele>726.5999999999999</ele><time>2026-04-29T07:57:25.999Z</time></trkpt><trkpt lat="40.15644590532557" lon="9.194793118032772"><ele>726.0</ele><time>2026-04-29T07:57:26.999Z</time></trkpt><trkpt lat="40.15653445666676" lon="9.194728114896057"><ele>730.0</ele><time>2026-04-29T07:57:27.999Z</time></trkpt><trkpt lat="40.15663745745761" lon="9.19468438765791"><ele>734.0</ele><time>2026-04-29T07:57:28.999Z</time></trkpt><trkpt lat="40.156731563651114" lon="9.194621876041307"><ele>738.0</ele><time>2026-04-29T07:57:29.999Z</time></trkpt><trkpt lat="40.15682967179149" lon="9.194555494207581"><ele>742.0</ele><time>2026-04-29T07:57:30.999Z</time></trkpt><trkpt lat="40.15692964412991" lon="9.194487851024702"><ele>746.0</ele><time>2026-04-29T07:57:31.999Z</time></trkpt><trkpt lat="40.157029143052355" lon="9.194425528965901"><ele>746.0</ele><time>2026-04-29T07:57:32.999Z</time></trkpt><trkpt lat="40.157120851222935" lon="9.194361570319009"><ele>746.0</ele><time>2026-04-29T07:57:33.999Z</time></trkpt><trkpt lat="40.15722027755729" lon="9.19435779087022"><ele>746.0</ele><time>2026-04-29T07:57:34.999Z</time></trkpt><trkpt lat="40.157309703938346" lon="9.194390617170141"><ele>746.0</ele><time>2026-04-29T07:57:35.999Z</time></trkpt><trkpt lat="40.157387298186364" lon="9.194454768835147"><ele>746.0</ele><time>2026-04-29T07:57:36.999Z</time></trkpt><trkpt lat="40.15745396841282" lon="9.194534020751984"><ele>746.0</ele><time>2026-04-29T07:57:37.999Z</time></trkpt><trkpt lat="40.157504269684345" lon="9.194633397714659"><ele>746.0</ele><time>2026-04-29T07:57:38.999Z</time></trkpt><trkpt lat="40.15753426180324" lon="9.194757019229534"><ele>746.0</ele><time>2026-04-29T07:57:39.999Z</time></trkpt><trkpt lat="40.15755488855079" lon="9.194886106349335"><ele>746.0</ele><time>2026-04-29T07:57:40.999Z</time></trkpt><trkpt lat="40.157562893671226" lon="9.195020905315168"><ele>746.0</ele><time>2026-04-29T07:57:41.999Z</time></trkpt><trkpt lat="40.15756837653687" lon="9.195148462294915"><ele>744.4</ele><time>2026-04-29T07:57:42.999Z</time></trkpt><trkpt lat="40.157584338134576" lon="9.195270545242547"><ele>742.8</ele><time>2026-04-29T07:57:43.999Z</time></trkpt><trkpt lat="40.157613841139316" lon="9.195393060915404"><ele>741.1999999999999</ele><time>2026-04-29T07:57:44.999Z</time></trkpt><trkpt lat="40.15764863591258" lon="9.195515152409639"><ele>739.5999999999999</ele><time>2026-04-29T07:57:45.999Z</time></trkpt><trkpt lat="40.15768174131396" lon="9.195642784769536"><ele>738.0</ele><time>2026-04-29T07:57:46.999Z</time></trkpt><trkpt lat="40.15772416053546" lon="9.195768181859243"><ele>736.2</ele><time>2026-04-29T07:57:47.999Z</time></trkpt><trkpt lat="40.157770445841" lon="9.19588964785407"><ele>734.4</ele><time>2026-04-29T07:57:48.999Z</time></trkpt><trkpt lat="40.157819043969724" lon="9.196012099118837"><ele>732.6</ele><time>2026-04-29T07:57:49.999Z</time></trkpt><trkpt lat="40.157867326862245" lon="9.196127971812043"><ele>730.8000000000001</ele><time>2026-04-29T07:57:50.999Z</time></trkpt><trkpt lat="40.157924879261145" lon="9.196235399672059"><ele>729.0</ele><time>2026-04-29T07:57:51.999Z</time></trkpt><trkpt lat="40.15799200797621" lon="9.196334790831294"><ele>729.0</ele><time>2026-04-29T07:57:52.999Z</time></trkpt><trkpt lat="40.158068284671984" lon="9.196412291361659"><ele>729.0</ele><time>2026-04-29T07:57:53.999Z</time></trkpt><trkpt lat="40.158155168941896" lon="9.196476497950174"><ele>729.0</ele><time>2026-04-29T07:57:54.999Z</time></trkpt><trkpt lat="40.158239716307" lon="9.196489785614496"><ele>729.0</ele><time>2026-04-29T07:57:55.999Z</time></trkpt><trkpt lat="40.15832192545172" lon="9.196476977150994"><ele>729.0</ele><time>2026-04-29T07:57:56.999Z</time></trkpt><trkpt lat="40.158418278463394" lon="9.196455501436814"><ele>733.6</ele><time>2026-04-29T07:57:57.999Z</time></trkpt><trkpt lat="40.1585141642906" lon="9.196432456264365"><ele>738.2</ele><time>2026-04-29T07:57:58.999Z</time></trkpt><trkpt lat="40.15861047211953" lon="9.196402221815287"><ele>742.8000000000001</ele><time>2026-04-29T07:57:59.999Z</time></trkpt><trkpt lat="40.15871452448768" lon="9.196398986173607"><ele>747.4000000000001</ele><time>2026-04-29T07:58:00.999Z</time></trkpt><trkpt lat="40.1588196260329" lon="9.196378599316223"><ele>752.0</ele><time>2026-04-29T07:58:01.999Z</time></trkpt><trkpt lat="40.15893351262626" lon="9.196361786093538"><ele>752.75</ele><time>2026-04-29T07:58:02.999Z</time></trkpt><trkpt lat="40.15904839918577" lon="9.196339754592355"><ele>753.5</ele><time>2026-04-29T07:58:03.999Z</time></trkpt><trkpt lat="40.15916118440869" lon="9.196314311265423"><ele>754.25</ele><time>2026-04-29T07:58:04.999Z</time></trkpt><trkpt lat="40.15927677978024" lon="9.196287775002506"><ele>755.0</ele><time>2026-04-29T07:58:05.999Z</time></trkpt><trkpt lat="40.159393992924954" lon="9.196266317693805"><ele>755.0</ele><time>2026-04-29T07:58:06.999Z</time></trkpt><trkpt lat="40.159508751600434" lon="9.19623745738202"><ele>755.0</ele><time>2026-04-29T07:58:07.999Z</time></trkpt><trkpt lat="40.159629548253655" lon="9.196207492153981"><ele>755.0</ele><time>2026-04-29T07:58:08.999Z</time></trkpt><trkpt lat="40.15975644163176" lon="9.196188468056366"><ele>755.0</ele><time>2026-04-29T07:58:09.999Z</time></trkpt><trkpt lat="40.15987547270437" lon="9.196152929663894"><ele>754.5</ele><time>2026-04-29T07:58:10.999Z</time></trkpt><trkpt lat="40.15998573631971" lon="9.196117332671909"><ele>754.0</ele><time>2026-04-29T07:58:11.999Z</time></trkpt><trkpt lat="40.16009926595473" lon="9.19608394761387"><ele>753.5</ele><time>2026-04-29T07:58:12.999Z</time></trkpt><trkpt lat="40.16021788759817" lon="9.19605893363654"><ele>753.0</ele><time>2026-04-29T07:58:13.999Z</time></trkpt><trkpt lat="40.16033765222408" lon="9.196043653459185"><ele>753.0</ele><time>2026-04-29T07:58:14.999Z</time></trkpt><trkpt lat="40.16044513031302" lon="9.196049018840418"><ele>753.0</ele><time>2026-04-29T07:58:15.999Z</time></trkpt><trkpt lat="40.16053719049019" lon="9.196055119667918"><ele>753.0</ele><time>2026-04-29T07:58:16.999Z</time></trkpt><trkpt lat="40.16063079055812" lon="9.196073348031172"><ele>753.0</ele><time>2026-04-29T07:58:17.999Z</time></trkpt><trkpt lat="40.16071839760189" lon="9.196114845899944"><ele>753.0</ele><time>2026-04-29T07:58:18.999Z</time></trkpt><trkpt lat="40.160805708757024" lon="9.196171055015482"><ele>753.2</ele><time>2026-04-29T07:58:19.999Z</time></trkpt><trkpt lat="40.16088694956777" lon="9.196258512767024"><ele>753.4</ele><time>2026-04-29T07:58:20.999Z</time></trkpt><trkpt lat="40.16095701724203" lon="9.196338982754371"><ele>753.6</ele><time>2026-04-29T07:58:21.999Z</time></trkpt><trkpt lat="40.16100665175146" lon="9.196429686095922"><ele>753.8000000000001</ele><time>2026-04-29T07:58:22.999Z</time></trkpt><trkpt lat="40.161030867574425" lon="9.196530651256513"><ele>754.0</ele><time>2026-04-29T07:58:23.999Z</time></trkpt><trkpt lat="40.16102424269493" lon="9.19665978282222"><ele>753.0</ele><time>2026-04-29T07:58:24.999Z</time></trkpt><trkpt lat="40.16099047932054" lon="9.196785691455249"><ele>752.0</ele><time>2026-04-29T07:58:25.999Z</time></trkpt><trkpt lat="40.16095631550302" lon="9.196914827644367"><ele>751.0</ele><time>2026-04-29T07:58:26.999Z</time></trkpt><trkpt lat="40.16092941432398" lon="9.197051250889114"><ele>750.0</ele><time>2026-04-29T07:58:27.999Z</time></trkpt><trkpt lat="40.160893534889" lon="9.197179128789614"><ele>749.0</ele><time>2026-04-29T07:58:28.999Z</time></trkpt><trkpt lat="40.160853238156605" lon="9.197296638744714"><ele>749.1666666666666</ele><time>2026-04-29T07:58:29.999Z</time></trkpt><trkpt lat="40.16082127702057" lon="9.197409302131136"><ele>749.3333333333333</ele><time>2026-04-29T07:58:30.999Z</time></trkpt><trkpt lat="40.16079149656371" lon="9.197514545123171"><ele>749.5</ele><time>2026-04-29T07:58:31.999Z</time></trkpt><trkpt lat="40.16078874105194" lon="9.197604452908118"><ele>749.6666666666666</ele><time>2026-04-29T07:58:32.999Z</time></trkpt><trkpt lat="40.16080662095047" lon="9.197685440179063"><ele>749.8333333333334</ele><time>2026-04-29T07:58:33.999Z</time></trkpt><trkpt lat="40.16085529785957" lon="9.197747992553776"><ele>750.0</ele><time>2026-04-29T07:58:34.999Z</time></trkpt><trkpt lat="40.160915499292216" lon="9.197818614323566"><ele>750.0</ele><time>2026-04-29T07:58:35.999Z</time></trkpt><trkpt lat="40.16099966959454" lon="9.197851930233538"><ele>750.0</ele><time>2026-04-29T07:58:36.999Z</time></trkpt><trkpt lat="40.16108902480878" lon="9.197821905587794"><ele>750.0</ele><time>2026-04-29T07:58:37.999Z</time></trkpt><trkpt lat="40.161197055321395" lon="9.197816923998385"><ele>750.0</ele><time>2026-04-29T07:58:38.999Z</time></trkpt><trkpt lat="40.16130519114835" lon="9.197811937549389"><ele>750.0</ele><time>2026-04-29T07:58:39.999Z</time></trkpt><trkpt lat="40.16141635232809" lon="9.19780124836384"><ele>750.0</ele><time>2026-04-29T07:58:40.999Z</time></trkpt><trkpt lat="40.16152019071834" lon="9.197773825019253"><ele>750.0</ele><time>2026-04-29T07:58:41.999Z</time></trkpt><trkpt lat="40.16164550751592" lon="9.19772415465108"><ele>750.0</ele><time>2026-04-29T07:58:42.999Z</time></trkpt><trkpt lat="40.16176018621906" lon="9.197679725036549"><ele>750.0</ele><time>2026-04-29T07:58:43.999Z</time></trkpt><trkpt lat="40.16187779754279" lon="9.197649675025929"><ele>752.75</ele><time>2026-04-29T07:58:44.999Z</time></trkpt><trkpt lat="40.16200402316722" lon="9.197638836884787"><ele>755.5</ele><time>2026-04-29T07:58:45.999Z</time></trkpt><trkpt lat="40.16212998857751" lon="9.197634316469628"><ele>758.25</ele><time>2026-04-29T07:58:46.999Z</time></trkpt><trkpt lat="40.162250386985214" lon="9.197628450382233"><ele>761.0</ele><time>2026-04-29T07:58:47.999Z</time></trkpt><trkpt lat="40.162372904565615" lon="9.197622301748291"><ele>761.0</ele><time>2026-04-29T07:58:48.998Z</time></trkpt><trkpt lat="40.16247475032961" lon="9.19760556368208"><ele>761.0</ele><time>2026-04-29T07:58:49.998Z</time></trkpt><trkpt lat="40.16256380594268" lon="9.197556142386313"><ele>761.0</ele><time>2026-04-29T07:58:50.998Z</time></trkpt><trkpt lat="40.16263711144615" lon="9.197497018093086"><ele>761.0</ele><time>2026-04-29T07:58:51.998Z</time></trkpt><trkpt lat="40.16268106947344" lon="9.197372010027529"><ele>761.0</ele><time>2026-04-29T07:58:52.998Z</time></trkpt><trkpt lat="40.16271588948429" lon="9.19724721642332"><ele>762.8</ele><time>2026-04-29T07:58:53.998Z</time></trkpt><trkpt lat="40.16275890674791" lon="9.197126557353565"><ele>764.5999999999999</ele><time>2026-04-29T07:58:54.998Z</time></trkpt><trkpt lat="40.16280059131363" lon="9.196996589924703"><ele>766.4</ele><time>2026-04-29T07:58:55.998Z</time></trkpt><trkpt lat="40.162859573142384" lon="9.196876148241273"><ele>768.2</ele><time>2026-04-29T07:58:56.998Z</time></trkpt><trkpt lat="40.16291069460673" lon="9.196751912055765"><ele>770.0</ele><time>2026-04-29T07:58:57.998Z</time></trkpt><trkpt lat="40.162952997959366" lon="9.19663909401014"><ele>770.0000000000001</ele><time>2026-04-29T07:58:58.998Z</time></trkpt><trkpt lat="40.16298081736227" lon="9.19652095561563"><ele>770.0</ele><time>2026-04-29T07:58:59.998Z</time></trkpt><trkpt lat="40.1630206431317" lon="9.196415166341916"><ele>770.0</ele><time>2026-04-29T07:59:00.998Z</time></trkpt><trkpt lat="40.163045268546874" lon="9.19631352254163"><ele>770.0</ele><time>2026-04-29T07:59:01.998Z</time></trkpt><trkpt lat="40.163049763579934" lon="9.196216799837153"><ele>770.0000000000001</ele><time>2026-04-29T07:59:02.998Z</time></trkpt><trkpt lat="40.16302004835334" lon="9.196125260775537"><ele>770.0</ele><time>2026-04-29T07:59:03.998Z</time></trkpt><trkpt lat="40.16297084916958" lon="9.196046267397984"><ele>768.8</ele><time>2026-04-29T07:59:04.998Z</time></trkpt><trkpt lat="40.162896546941674" lon="9.195982826725457"><ele>767.6</ele><time>2026-04-29T07:59:05.998Z</time></trkpt><trkpt lat="40.16280899418884" lon="9.195941271919535"><ele>766.4000000000001</ele><time>2026-04-29T07:59:06.998Z</time></trkpt><trkpt lat="40.16271584414793" lon="9.195908955509841"><ele>765.2</ele><time>2026-04-29T07:59:07.998Z</time></trkpt><trkpt lat="40.16260947722928" lon="9.195865884514548"><ele>764.0</ele><time>2026-04-29T07:59:08.998Z</time></trkpt><trkpt lat="40.16250444979546" lon="9.195827595845023"><ele>764.0</ele><time>2026-04-29T07:59:09.998Z</time></trkpt><trkpt lat="40.162400196314096" lon="9.195778601607605"><ele>764.0</ele><time>2026-04-29T07:59:10.998Z</time></trkpt><trkpt lat="40.162304329855004" lon="9.195727961897058"><ele>764.0</ele><time>2026-04-29T07:59:11.998Z</time></trkpt><trkpt lat="40.162218488943864" lon="9.19568359313399"><ele>764.0</ele><time>2026-04-29T07:59:12.998Z</time></trkpt><trkpt lat="40.1621456739663" lon="9.195655859676465"><ele>764.0</ele><time>2026-04-29T07:59:13.998Z</time></trkpt><trkpt lat="40.16207097312793" lon="9.19563355237779"><ele>765.5</ele><time>2026-04-29T07:59:15.998Z</time></trkpt><trkpt lat="40.16202538851935" lon="9.195507528873502"><ele>767.0</ele><time>2026-04-29T07:59:20.998Z</time></trkpt><trkpt lat="40.162172129513664" lon="9.195491156104223"><ele>768.5</ele><time>2026-04-29T07:59:21.998Z</time></trkpt><trkpt lat="40.162275302023886" lon="9.1954128226415"><ele>770.0</ele><time>2026-04-29T07:59:23.998Z</time></trkpt><trkpt lat="40.16234459360261" lon="9.195368139763108"><ele>769.2</ele><time>2026-04-29T07:59:24.998Z</time></trkpt><trkpt lat="40.16243425091934" lon="9.195340509137438"><ele>768.4</ele><time>2026-04-29T07:59:25.998Z</time></trkpt><trkpt lat="40.1625084759746" lon="9.195271874120367"><ele>767.5999999999999</ele><time>2026-04-29T07:59:26.998Z</time></trkpt><trkpt lat="40.16258100517738" lon="9.19518301676559"><ele>766.8</ele><time>2026-04-29T07:59:27.998Z</time></trkpt><trkpt lat="40.16264375678283" lon="9.195098551879664"><ele>766.0</ele><time>2026-04-29T07:59:28.998Z</time></trkpt><trkpt lat="40.16270891555126" lon="9.194999064903275"><ele>766.0</ele><time>2026-04-29T07:59:29.998Z</time></trkpt><trkpt lat="40.16277615865149" lon="9.19488835978576"><ele>766.0</ele><time>2026-04-29T07:59:30.998Z</time></trkpt><trkpt lat="40.16284378618223" lon="9.194778533183335"><ele>766.0</ele><time>2026-04-29T07:59:31.998Z</time></trkpt><trkpt lat="40.16291451962835" lon="9.19466723658322"><ele>766.0</ele><time>2026-04-29T07:59:32.998Z</time></trkpt><trkpt lat="40.1629764820396" lon="9.194544087617462"><ele>766.0</ele><time>2026-04-29T07:59:33.998Z</time></trkpt><trkpt lat="40.16302477926974" lon="9.19440197556651"><ele>767.0</ele><time>2026-04-29T07:59:34.998Z</time></trkpt><trkpt lat="40.16304169799629" lon="9.194254958202503"><ele>768.0</ele><time>2026-04-29T07:59:35.998Z</time></trkpt><trkpt lat="40.16306848793464" lon="9.194121670276356"><ele>769.0</ele><time>2026-04-29T07:59:36.998Z</time></trkpt><trkpt lat="40.16309408606705" lon="9.193993160174188"><ele>770.0</ele><time>2026-04-29T07:59:37.998Z</time></trkpt><trkpt lat="40.16311354399952" lon="9.193862305129114"><ele>771.0</ele><time>2026-04-29T07:59:38.998Z</time></trkpt><trkpt lat="40.16313053865146" lon="9.193729120560985"><ele>771.5</ele><time>2026-04-29T07:59:39.998Z</time></trkpt><trkpt lat="40.16313570293046" lon="9.193600259182016"><ele>772.0</ele><time>2026-04-29T07:59:40.998Z</time></trkpt><trkpt lat="40.1631193964587" lon="9.193468270176202"><ele>772.5</ele><time>2026-04-29T07:59:41.998Z</time></trkpt><trkpt lat="40.16305665297298" lon="9.193185172852045"><ele>773.0</ele><time>2026-04-29T07:59:43.998Z</time></trkpt><trkpt lat="40.16301168125715" lon="9.193062235421387"><ele>773.0</ele><time>2026-04-29T07:59:44.998Z</time></trkpt><trkpt lat="40.162954723226164" lon="9.192941491420964"><ele>773.0</ele><time>2026-04-29T07:59:45.998Z</time></trkpt><trkpt lat="40.16289337329695" lon="9.192836690602457"><ele>773.0</ele><time>2026-04-29T07:59:46.998Z</time></trkpt><trkpt lat="40.16283445103974" lon="9.192739428760678"><ele>773.0</ele><time>2026-04-29T07:59:47.998Z</time></trkpt><trkpt lat="40.1627894055849" lon="9.192644455764736"><ele>773.0</ele><time>2026-04-29T07:59:48.998Z</time></trkpt><trkpt lat="40.16275675657711" lon="9.192555418351654"><ele>773.0000000000001</ele><time>2026-04-29T07:59:49.998Z</time></trkpt><trkpt lat="40.16274782636328" lon="9.192457717408358"><ele>773.0</ele><time>2026-04-29T07:59:50.998Z</time></trkpt><trkpt lat="40.162774421458934" lon="9.192371010056048"><ele>773.0</ele><time>2026-04-29T07:59:51.998Z</time></trkpt><trkpt lat="40.1628372315224" lon="9.192296645145202"><ele>773.0</ele><time>2026-04-29T07:59:52.998Z</time></trkpt><trkpt lat="40.16290982162388" lon="9.192244870090788"><ele>773.0000000000001</ele><time>2026-04-29T07:59:53.998Z</time></trkpt><trkpt lat="40.1629985043008" lon="9.192207111322427"><ele>773.0</ele><time>2026-04-29T07:59:54.998Z</time></trkpt><trkpt lat="40.1630875426062" lon="9.19217114235992"><ele>773.0</ele><time>2026-04-29T07:59:55.998Z</time></trkpt><trkpt lat="40.163193088152006" lon="9.19215157827001"><ele>773.0</ele><time>2026-04-29T07:59:56.998Z</time></trkpt><trkpt lat="40.163300893458135" lon="9.192154440717704"><ele>773.0</ele><time>2026-04-29T07:59:57.998Z</time></trkpt><trkpt lat="40.16340854874587" lon="9.192181819319085"><ele>773.0</ele><time>2026-04-29T07:59:58.998Z</time></trkpt><trkpt lat="40.16351765185989" lon="9.192236032725571"><ele>773.0</ele><time>2026-04-29T07:59:59.998Z</time></trkpt><trkpt lat="40.163621279108156" lon="9.192312428461245"><ele>769.25</ele><time>2026-04-29T08:00:00.998Z</time></trkpt><trkpt lat="40.16371774770647" lon="9.19239852100723"><ele>765.5</ele><time>2026-04-29T08:00:01.998Z</time></trkpt><trkpt lat="40.163807715682665" lon="9.19249748987975"><ele>761.75</ele><time>2026-04-29T08:00:02.998Z</time></trkpt><trkpt lat="40.16389612236924" lon="9.192594549138017"><ele>758.0</ele><time>2026-04-29T08:00:03.998Z</time></trkpt><trkpt lat="40.163992196223916" lon="9.192673408337901"><ele>759.75</ele><time>2026-04-29T08:00:04.998Z</time></trkpt><trkpt lat="40.1640961909766" lon="9.192723299442827"><ele>761.5</ele><time>2026-04-29T08:00:05.998Z</time></trkpt><trkpt lat="40.16421109663109" lon="9.192740812838988"><ele>763.25</ele><time>2026-04-29T08:00:06.998Z</time></trkpt><trkpt lat="40.16432839416675" lon="9.192727566653499"><ele>765.0</ele><time>2026-04-29T08:00:07.998Z</time></trkpt><trkpt lat="40.16443910403739" lon="9.192700414823296"><ele>765.0</ele><time>2026-04-29T08:00:08.998Z</time></trkpt><trkpt lat="40.16455452086684" lon="9.19267500611942"><ele>765.0</ele><time>2026-04-29T08:00:09.998Z</time></trkpt><trkpt lat="40.164671456397784" lon="9.192652785347363"><ele>765.0</ele><time>2026-04-29T08:00:10.998Z</time></trkpt><trkpt lat="40.164779752072846" lon="9.19266608994219"><ele>765.0</ele><time>2026-04-29T08:00:11.998Z</time></trkpt><trkpt lat="40.164874653268996" lon="9.192706904496479"><ele>765.0</ele><time>2026-04-29T08:00:12.998Z</time></trkpt><trkpt lat="40.16495367527643" lon="9.192797668130757"><ele>763.8</ele><time>2026-04-29T08:00:13.998Z</time></trkpt><trkpt lat="40.165010918964065" lon="9.192905936052687"><ele>762.6</ele><time>2026-04-29T08:00:14.998Z</time></trkpt><trkpt lat="40.16504276066567" lon="9.193044857362768"><ele>761.4000000000001</ele><time>2026-04-29T08:00:15.998Z</time></trkpt><trkpt lat="40.16506204632301" lon="9.193188039393586"><ele>760.2</ele><time>2026-04-29T08:00:16.998Z</time></trkpt><trkpt lat="40.16507105104581" lon="9.193331353751347"><ele>759.0</ele><time>2026-04-29T08:00:17.998Z</time></trkpt><trkpt lat="40.16509916172276" lon="9.193453288665117"><ele>759.0</ele><time>2026-04-29T08:00:18.998Z</time></trkpt><trkpt lat="40.165142126938456" lon="9.19355873443246"><ele>759.0</ele><time>2026-04-29T08:00:19.998Z</time></trkpt><trkpt lat="40.16524257549219" lon="9.193605002793573"><ele>759.0</ele><time>2026-04-29T08:00:20.998Z</time></trkpt><trkpt lat="40.165352895772" lon="9.193617804661223"><ele>759.0</ele><time>2026-04-29T08:00:21.998Z</time></trkpt><trkpt lat="40.165484168409066" lon="9.193654372265549"><ele>759.0</ele><time>2026-04-29T08:00:22.998Z</time></trkpt><trkpt lat="40.16560604140291" lon="9.193660314306976"><ele>761.25</ele><time>2026-04-29T08:00:23.998Z</time></trkpt><trkpt lat="40.165723964559334" lon="9.193609991444127"><ele>763.5</ele><time>2026-04-29T08:00:24.998Z</time></trkpt><trkpt lat="40.16583350915111" lon="9.193545522605417"><ele>765.75</ele><time>2026-04-29T08:00:25.998Z</time></trkpt><trkpt lat="40.16592841160006" lon="9.193451934817135"><ele>768.0</ele><time>2026-04-29T08:00:26.998Z</time></trkpt><trkpt lat="40.16601580874986" lon="9.19332837577768"><ele>768.0</ele><time>2026-04-29T08:00:27.998Z</time></trkpt><trkpt lat="40.16610398653784" lon="9.193204153804032"><ele>768.0</ele><time>2026-04-29T08:00:28.998Z</time></trkpt><trkpt lat="40.166198862278826" lon="9.19308441758226"><ele>768.0</ele><time>2026-04-29T08:00:29.998Z</time></trkpt><trkpt lat="40.166312037255054" lon="9.192983048342901"><ele>768.0</ele><time>2026-04-29T08:00:30.998Z</time></trkpt><trkpt lat="40.16644307407697" lon="9.192900925252426"><ele>770.75</ele><time>2026-04-29T08:00:31.998Z</time></trkpt><trkpt lat="40.16657715553048" lon="9.192865095411799"><ele>773.5</ele><time>2026-04-29T08:00:32.998Z</time></trkpt><trkpt lat="40.166702827784725" lon="9.192822102740667"><ele>776.25</ele><time>2026-04-29T08:00:33.998Z</time></trkpt><trkpt lat="40.16681742067413" lon="9.192740384994075"><ele>779.0</ele><time>2026-04-29T08:00:34.998Z</time></trkpt><trkpt lat="40.16692288471919" lon="9.192637821013221"><ele>779.0</ele><time>2026-04-29T08:00:35.998Z</time></trkpt><trkpt lat="40.167020658857126" lon="9.192528421178904"><ele>779.0</ele><time>2026-04-29T08:00:36.998Z</time></trkpt><trkpt lat="40.16711005904264" lon="9.19240015923293"><ele>779.0</ele><time>2026-04-29T08:00:37.998Z</time></trkpt><trkpt lat="40.16719757141277" lon="9.192300622951217"><ele>779.0</ele><time>2026-04-29T08:00:38.998Z</time></trkpt><trkpt lat="40.16728726609866" lon="9.192217217151258"><ele>782.75</ele><time>2026-04-29T08:00:39.998Z</time></trkpt><trkpt lat="40.16738369494777" lon="9.192146161198336"><ele>786.5</ele><time>2026-04-29T08:00:40.998Z</time></trkpt><trkpt lat="40.16749448998555" lon="9.192132386438447"><ele>790.25</ele><time>2026-04-29T08:00:41.998Z</time></trkpt><trkpt lat="40.1676192281056" lon="9.192180557895188"><ele>794.0</ele><time>2026-04-29T08:00:42.998Z</time></trkpt><trkpt lat="40.16774127344993" lon="9.192245250548096"><ele>794.0</ele><time>2026-04-29T08:00:43.998Z</time></trkpt><trkpt lat="40.16786782665984" lon="9.192303169086328"><ele>794.0</ele><time>2026-04-29T08:00:44.998Z</time></trkpt><trkpt lat="40.168001714062335" lon="9.192359156708358"><ele>794.0</ele><time>2026-04-29T08:00:45.998Z</time></trkpt><trkpt lat="40.168153724205084" lon="9.192382619235003"><ele>794.0</ele><time>2026-04-29T08:00:46.998Z</time></trkpt><trkpt lat="40.16830204155089" lon="9.192377630658811"><ele>794.3333333333334</ele><time>2026-04-29T08:00:47.998Z</time></trkpt><trkpt lat="40.16845300742369" lon="9.192331934339984"><ele>794.6666666666667</ele><time>2026-04-29T08:00:48.998Z</time></trkpt><trkpt lat="40.1686021082762" lon="9.192271062558355"><ele>795.0</ele><time>2026-04-29T08:00:49.998Z</time></trkpt><trkpt lat="40.16874898342558" lon="9.192206080000929"><ele>795.0</ele><time>2026-04-29T08:00:50.998Z</time></trkpt><trkpt lat="40.1688939925864" lon="9.19214049983085"><ele>795.0</ele><time>2026-04-29T08:00:51.998Z</time></trkpt><trkpt lat="40.16904727418494" lon="9.192090672057617"><ele>795.0</ele><time>2026-04-29T08:00:52.998Z</time></trkpt><trkpt lat="40.16919993083639" lon="9.192056218387899"><ele>793.6666666666667</ele><time>2026-04-29T08:00:53.998Z</time></trkpt><trkpt lat="40.169351152894606" lon="9.19205036926964"><ele>792.3333333333334</ele><time>2026-04-29T08:00:54.998Z</time></trkpt><trkpt lat="40.16950809298552" lon="9.192083854781718"><ele>791.0</ele><time>2026-04-29T08:00:55.998Z</time></trkpt><trkpt lat="40.169657673888544" lon="9.192127818198747"><ele>791.0</ele><time>2026-04-29T08:00:56.998Z</time></trkpt><trkpt lat="40.16979556030098" lon="9.19216613064024"><ele>791.0</ele><time>2026-04-29T08:00:57.998Z</time></trkpt><trkpt lat="40.169944207281425" lon="9.192176116148593"><ele>791.0</ele><time>2026-04-29T08:00:58.998Z</time></trkpt><trkpt lat="40.17008596014889" lon="9.192154970266134"><ele>791.0</ele><time>2026-04-29T08:00:59.998Z</time></trkpt><trkpt lat="40.17023385281697" lon="9.19209273309617"><ele>790.6666666666667</ele><time>2026-04-29T08:01:00.998Z</time></trkpt><trkpt lat="40.170381419628896" lon="9.192036082813239"><ele>790.3333333333333</ele><time>2026-04-29T08:01:01.998Z</time></trkpt><trkpt lat="40.17053593327325" lon="9.19199073811013"><ele>790.0</ele><time>2026-04-29T08:01:02.998Z</time></trkpt><trkpt lat="40.17069018473086" lon="9.191960068925912"><ele>788.6666666666666</ele><time>2026-04-29T08:01:03.998Z</time></trkpt><trkpt lat="40.17084904658702" lon="9.191940379438385"><ele>787.3333333333333</ele><time>2026-04-29T08:01:04.998Z</time></trkpt><trkpt lat="40.17101121177682" lon="9.191933331106478"><ele>786.0</ele><time>2026-04-29T08:01:05.998Z</time></trkpt><trkpt lat="40.17116144371389" lon="9.191924640634209"><ele>786.0</ele><time>2026-04-29T08:01:06.998Z</time></trkpt><trkpt lat="40.17129336781355" lon="9.191913524864548"><ele>786.0</ele><time>2026-04-29T08:01:07.998Z</time></trkpt><trkpt lat="40.171418520375674" lon="9.191899810172348"><ele>786.0</ele><time>2026-04-29T08:01:08.998Z</time></trkpt><trkpt lat="40.17155316956676" lon="9.191886875484842"><ele>786.0</ele><time>2026-04-29T08:01:09.998Z</time></trkpt><trkpt lat="40.171693790433594" lon="9.191856824331577"><ele>786.0</ele><time>2026-04-29T08:01:10.998Z</time></trkpt><trkpt lat="40.171829960537906" lon="9.191788080478444"><ele>786.0</ele><time>2026-04-29T08:01:11.998Z</time></trkpt><trkpt lat="40.17194907436333" lon="9.191691224471933"><ele>786.0</ele><time>2026-04-29T08:01:12.998Z</time></trkpt><trkpt lat="40.17206080193848" lon="9.191563246175576"><ele>786.0</ele><time>2026-04-29T08:01:13.998Z</time></trkpt><trkpt lat="40.172183245403005" lon="9.19143823057793"><ele>789.3333333333333</ele><time>2026-04-29T08:01:14.998Z</time></trkpt><trkpt lat="40.17230131610242" lon="9.191302562374796"><ele>792.6666666666666</ele><time>2026-04-29T08:01:15.998Z</time></trkpt><trkpt lat="40.172431643666464" lon="9.19117952778916"><ele>796.0</ele><time>2026-04-29T08:01:16.998Z</time></trkpt><trkpt lat="40.17257350929526" lon="9.19108035101133"><ele>796.0</ele><time>2026-04-29T08:01:17.998Z</time></trkpt><trkpt lat="40.17273076841173" lon="9.191008911373734"><ele>796.0</ele><time>2026-04-29T08:01:18.998Z</time></trkpt><trkpt lat="40.17289726111268" lon="9.19094852205621"><ele>796.0</ele><time>2026-04-29T08:01:19.998Z</time></trkpt><trkpt lat="40.17307112595568" lon="9.190911063324394"><ele>795.0</ele><time>2026-04-29T08:01:20.998Z</time></trkpt><trkpt lat="40.17324537617403" lon="9.190874908493123"><ele>794.0</ele><time>2026-04-29T08:01:21.998Z</time></trkpt><trkpt lat="40.173415881541864" lon="9.190822515256896"><ele>793.0</ele><time>2026-04-29T08:01:22.998Z</time></trkpt><trkpt lat="40.17358996820937" lon="9.190802752017813"><ele>793.0</ele><time>2026-04-29T08:01:23.998Z</time></trkpt><trkpt lat="40.17375721617448" lon="9.19076443112975"><ele>793.0</ele><time>2026-04-29T08:01:24.998Z</time></trkpt><trkpt lat="40.17393069347629" lon="9.190699150091646"><ele>793.0</ele><time>2026-04-29T08:01:25.998Z</time></trkpt><trkpt lat="40.174104654219924" lon="9.19066399454456"><ele>796.0</ele><time>2026-04-29T08:01:26.998Z</time></trkpt><trkpt lat="40.17427291999414" lon="9.1906305861487"><ele>799.0</ele><time>2026-04-29T08:01:27.998Z</time></trkpt><trkpt lat="40.17443861229829" lon="9.19059924145429"><ele>802.0</ele><time>2026-04-29T08:01:28.998Z</time></trkpt><trkpt lat="40.17459768459644" lon="9.190563645360095"><ele>802.0</ele><time>2026-04-29T08:01:29.998Z</time></trkpt><trkpt lat="40.17475097318556" lon="9.190531665518915"><ele>802.0</ele><time>2026-04-29T08:01:30.998Z</time></trkpt><trkpt lat="40.17491071070654" lon="9.19047751064074"><ele>802.0</ele><time>2026-04-29T08:01:31.998Z</time></trkpt><trkpt lat="40.17507665522514" lon="9.19040361091969"><ele>801.6666666666666</ele><time>2026-04-29T08:01:32.998Z</time></trkpt><trkpt lat="40.17523718315258" lon="9.190312578408497"><ele>801.3333333333333</ele><time>2026-04-29T08:01:33.998Z</time></trkpt><trkpt lat="40.17539079523122" lon="9.190219762124375"><ele>801.0</ele><time>2026-04-29T08:01:34.998Z</time></trkpt><trkpt lat="40.175530499555414" lon="9.190126754903662"><ele>801.0</ele><time>2026-04-29T08:01:35.998Z</time></trkpt><trkpt lat="40.17565213312333" lon="9.19006224661883"><ele>801.0</ele><time>2026-04-29T08:01:36.998Z</time></trkpt><trkpt lat="40.175738778833626" lon="9.189992131710097"><ele>801.0</ele><time>2026-04-29T08:01:37.998Z</time></trkpt><trkpt lat="40.175809589285535" lon="9.18993715008456"><ele>801.0</ele><time>2026-04-29T08:01:38.998Z</time></trkpt><trkpt lat="40.175909117337476" lon="9.189894136410956"><ele>801.0</ele><time>2026-04-29T08:01:40.998Z</time></trkpt><trkpt lat="40.175906867130834" lon="9.18966700698521"><ele>802.4</ele><time>2026-04-29T08:01:42.998Z</time></trkpt><trkpt lat="40.1758890775698" lon="9.189553541782882"><ele>803.8</ele><time>2026-04-29T08:01:43.998Z</time></trkpt><trkpt lat="40.175870617296084" lon="9.189422299679395"><ele>805.1999999999999</ele><time>2026-04-29T08:01:44.998Z</time></trkpt><trkpt lat="40.175853634385525" lon="9.189275793365413"><ele>806.5999999999999</ele><time>2026-04-29T08:01:45.998Z</time></trkpt><trkpt lat="40.175823775489576" lon="9.189151431098974"><ele>808.0</ele><time>2026-04-29T08:01:46.998Z</time></trkpt><trkpt lat="40.175797325341684" lon="9.189024313498471"><ele>809.5</ele><time>2026-04-29T08:01:47.998Z</time></trkpt><trkpt lat="40.17571923321592" lon="9.1889017633022"><ele>811.0</ele><time>2026-04-29T08:01:48.998Z</time></trkpt><trkpt lat="40.17561742873374" lon="9.188801792057365"><ele>812.5</ele><time>2026-04-29T08:01:49.998Z</time></trkpt><trkpt lat="40.17552352956584" lon="9.188708331442403"><ele>814.0</ele><time>2026-04-29T08:01:50.998Z</time></trkpt><trkpt lat="40.17543640774452" lon="9.188621616515283"><ele>814.5</ele><time>2026-04-29T08:01:51.998Z</time></trkpt><trkpt lat="40.17533615872865" lon="9.188548661050781"><ele>815.0</ele><time>2026-04-29T08:01:52.998Z</time></trkpt><trkpt lat="40.175254220657834" lon="9.188444414146701"><ele>815.5</ele><time>2026-04-29T08:01:53.998Z</time></trkpt><trkpt lat="40.17517086057219" lon="9.18834821060547"><ele>816.0</ele><time>2026-04-29T08:01:54.998Z</time></trkpt><trkpt lat="40.17510316696392" lon="9.18823569367927"><ele>817.0</ele><time>2026-04-29T08:01:55.998Z</time></trkpt><trkpt lat="40.17506534607674" lon="9.188104798830935"><ele>818.0</ele><time>2026-04-29T08:01:56.998Z</time></trkpt><trkpt lat="40.175058675365726" lon="9.187958972079539"><ele>819.0</ele><time>2026-04-29T08:01:57.998Z</time></trkpt><trkpt lat="40.1750774781157" lon="9.187803563019393"><ele>820.0</ele><time>2026-04-29T08:01:58.998Z</time></trkpt><trkpt lat="40.17511611916305" lon="9.187651717631587"><ele>820.0</ele><time>2026-04-29T08:01:59.998Z</time></trkpt><trkpt lat="40.17515515168206" lon="9.187493222325921"><ele>820.0</ele><time>2026-04-29T08:02:00.998Z</time></trkpt><trkpt lat="40.175188389151394" lon="9.187333814363317"><ele>820.0</ele><time>2026-04-29T08:02:01.998Z</time></trkpt><trkpt lat="40.17521860352316" lon="9.187178713150985"><ele>820.0</ele><time>2026-04-29T08:02:02.998Z</time></trkpt><trkpt lat="40.175233964150095" lon="9.187042892818495"><ele>821.4999999999999</ele><time>2026-04-29T08:02:03.998Z</time></trkpt><trkpt lat="40.175224730553836" lon="9.186930507182483"><ele>823.0</ele><time>2026-04-29T08:02:04.998Z</time></trkpt><trkpt lat="40.17519355835317" lon="9.186834990576223"><ele>824.5</ele><time>2026-04-29T08:02:05.998Z</time></trkpt><trkpt lat="40.175147835695995" lon="9.186756728014167"><ele>826.0</ele><time>2026-04-29T08:02:06.998Z</time></trkpt><trkpt lat="40.17504981590687" lon="9.186724400828092"><ele>827.4999999999999</ele><time>2026-04-29T08:02:07.998Z</time></trkpt><trkpt lat="40.174957983485605" lon="9.186738057301298"><ele>829.0</ele><time>2026-04-29T08:02:08.998Z</time></trkpt><trkpt lat="40.17485315360267" lon="9.186788330296029"><ele>832.5</ele><time>2026-04-29T08:02:09.998Z</time></trkpt><trkpt lat="40.17474413498862" lon="9.186857287404038"><ele>836.0</ele><time>2026-04-29T08:02:10.998Z</time></trkpt><trkpt lat="40.17464206595101" lon="9.186951003860313"><ele>839.5</ele><time>2026-04-29T08:02:11.998Z</time></trkpt><trkpt lat="40.174544465823324" lon="9.187063049928183"><ele>843.0</ele><time>2026-04-29T08:02:12.998Z</time></trkpt><trkpt lat="40.17444592062763" lon="9.187187878772392"><ele>843.0</ele><time>2026-04-29T08:02:13.998Z</time></trkpt><trkpt lat="40.17434041154236" lon="9.187314703202462"><ele>843.0</ele><time>2026-04-29T08:02:14.998Z</time></trkpt><trkpt lat="40.17422598575358" lon="9.187436169846332"><ele>843.0</ele><time>2026-04-29T08:02:15.998Z</time></trkpt><trkpt lat="40.17409409905448" lon="9.187527040084705"><ele>843.0</ele><time>2026-04-29T08:02:16.998Z</time></trkpt><trkpt lat="40.17396398067808" lon="9.187610712883114"><ele>844.25</ele><time>2026-04-29T08:02:17.998Z</time></trkpt><trkpt lat="40.173834637955295" lon="9.187675996875534"><ele>845.5</ele><time>2026-04-29T08:02:18.998Z</time></trkpt><trkpt lat="40.173705737651794" lon="9.187720521277683"><ele>846.75</ele><time>2026-04-29T08:02:19.998Z</time></trkpt><trkpt lat="40.17356051055265" lon="9.187760305214594"><ele>848.0</ele><time>2026-04-29T08:02:20.998Z</time></trkpt><trkpt lat="40.173399835908796" lon="9.187802717281881"><ele>848.0</ele><time>2026-04-29T08:02:21.998Z</time></trkpt><trkpt lat="40.173245673836156" lon="9.18784244403917"><ele>848.0</ele><time>2026-04-29T08:02:22.998Z</time></trkpt><trkpt lat="40.17309479821653" lon="9.18789956378365"><ele>848.0</ele><time>2026-04-29T08:02:23.998Z</time></trkpt><trkpt lat="40.17294083215846" lon="9.187950536417402"><ele>846.6666666666667</ele><time>2026-04-29T08:02:24.998Z</time></trkpt><trkpt lat="40.17278862414936" lon="9.188009117183375"><ele>845.3333333333333</ele><time>2026-04-29T08:02:25.998Z</time></trkpt><trkpt lat="40.172646697689814" lon="9.188099745754087"><ele>844.0</ele><time>2026-04-29T08:02:26.998Z</time></trkpt><trkpt lat="40.172509656824545" lon="9.188184725034588"><ele>844.0</ele><time>2026-04-29T08:02:27.998Z</time></trkpt><trkpt lat="40.1723565410281" lon="9.188273598862208"><ele>844.0</ele><time>2026-04-29T08:02:28.998Z</time></trkpt><trkpt lat="40.17221567751615" lon="9.188335201666419"><ele>844.0</ele><time>2026-04-29T08:02:29.998Z</time></trkpt><trkpt lat="40.172067797444136" lon="9.188341495619749"><ele>846.6</ele><time>2026-04-29T08:02:30.998Z</time></trkpt><trkpt lat="40.171916427512016" lon="9.188347377815811"><ele>849.2</ele><time>2026-04-29T08:02:31.998Z</time></trkpt><trkpt lat="40.171791107210154" lon="9.188346151951048"><ele>851.8000000000001</ele><time>2026-04-29T08:02:32.998Z</time></trkpt><trkpt lat="40.171708986009655" lon="9.188328222213498"><ele>854.4000000000001</ele><time>2026-04-29T08:02:33.998Z</time></trkpt><trkpt lat="40.17167294818282" lon="9.188226997808643"><ele>857.0</ele><time>2026-04-29T08:02:35.998Z</time></trkpt><trkpt lat="40.17174498164971" lon="9.1881162040437"><ele>864.0</ele><time>2026-04-29T08:02:37.998Z</time></trkpt><trkpt lat="40.17184250334553" lon="9.188136061496612"><ele>871.0</ele><time>2026-04-29T08:02:38.998Z</time></trkpt><trkpt lat="40.17195251496346" lon="9.188142789983441"><ele>878.0</ele><time>2026-04-29T08:02:39.998Z</time></trkpt><trkpt lat="40.17208310250076" lon="9.188127094296837"><ele>885.0</ele><time>2026-04-29T08:02:40.998Z</time></trkpt><trkpt lat="40.17220471563015" lon="9.188115000042822"><ele>885.0</ele><time>2026-04-29T08:02:41.998Z</time></trkpt><trkpt lat="40.172307358798804" lon="9.188047480522297"><ele>885.0</ele><time>2026-04-29T08:02:42.998Z</time></trkpt><trkpt lat="40.17241742548697" lon="9.187942538833932"><ele>885.0</ele><time>2026-04-29T08:02:43.998Z</time></trkpt><trkpt lat="40.172507965456965" lon="9.18781072576265"><ele>885.0</ele><time>2026-04-29T08:02:44.998Z</time></trkpt><trkpt lat="40.172599306856085" lon="9.187669719293524"><ele>886.0</ele><time>2026-04-29T08:02:45.998Z</time></trkpt><trkpt lat="40.1727566278831" lon="9.187471931290826"><ele>887.0</ele><time>2026-04-29T08:02:46.998Z</time></trkpt><trkpt lat="40.17287744199798" lon="9.187349430835143"><ele>888.0</ele><time>2026-04-29T08:02:47.998Z</time></trkpt><trkpt lat="40.172962278369546" lon="9.187233568093646"><ele>888.0</ele><time>2026-04-29T08:02:48.998Z</time></trkpt><trkpt lat="40.17307016408977" lon="9.18712285231694"><ele>888.0</ele><time>2026-04-29T08:02:49.998Z</time></trkpt><trkpt lat="40.17318114429594" lon="9.187002784129659"><ele>888.0</ele><time>2026-04-29T08:02:50.998Z</time></trkpt><trkpt lat="40.173288369057474" lon="9.186857783352945"><ele>888.0</ele><time>2026-04-29T08:02:51.998Z</time></trkpt><trkpt lat="40.17338852158296" lon="9.186692360383377"><ele>883.0</ele><time>2026-04-29T08:02:52.998Z</time></trkpt><trkpt lat="40.17346218058019" lon="9.186497560658065"><ele>878.0</ele><time>2026-04-29T08:02:53.998Z</time></trkpt><trkpt lat="40.17352995576635" lon="9.186282045967754"><ele>873.0</ele><time>2026-04-29T08:02:54.998Z</time></trkpt><trkpt lat="40.17357655499689" lon="9.186056767876602"><ele>873.0</ele><time>2026-04-29T08:02:55.998Z</time></trkpt><trkpt lat="40.17359855318932" lon="9.185855392071398"><ele>873.0</ele><time>2026-04-29T08:02:56.998Z</time></trkpt><trkpt lat="40.17358904364967" lon="9.185701037726389"><ele>873.0</ele><time>2026-04-29T08:02:57.998Z</time></trkpt><trkpt lat="40.17355396558012" lon="9.185550727183376"><ele>873.0</ele><time>2026-04-29T08:02:58.998Z</time></trkpt><trkpt lat="40.17347486840088" lon="9.18539961570779"><ele>871.0</ele><time>2026-04-29T08:02:59.998Z</time></trkpt><trkpt lat="40.173382316429134" lon="9.185249270475744"><ele>869.0</ele><time>2026-04-29T08:03:00.998Z</time></trkpt><trkpt lat="40.17327134414285" lon="9.18509964317308"><ele>867.0</ele><time>2026-04-29T08:03:01.998Z</time></trkpt><trkpt lat="40.17314226772553" lon="9.184960522055825"><ele>870.6666666666667</ele><time>2026-04-29T08:03:02.998Z</time></trkpt><trkpt lat="40.17299145809078" lon="9.184824193575194"><ele>874.3333333333334</ele><time>2026-04-29T08:03:03.998Z</time></trkpt><trkpt lat="40.172847308509525" lon="9.184687896610276"><ele>878.0</ele><time>2026-04-29T08:03:04.998Z</time></trkpt><trkpt lat="40.17269229626987" lon="9.1845498887223"><ele>878.0</ele><time>2026-04-29T08:03:05.998Z</time></trkpt><trkpt lat="40.17255306632061" lon="9.184420010159583"><ele>878.0</ele><time>2026-04-29T08:03:06.998Z</time></trkpt><trkpt lat="40.172405465886776" lon="9.184285129622081"><ele>878.0</ele><time>2026-04-29T08:03:07.998Z</time></trkpt><trkpt lat="40.1722672116953" lon="9.184153849474274"><ele>882.3333333333334</ele><time>2026-04-29T08:03:08.998Z</time></trkpt><trkpt lat="40.17212979008664" lon="9.184009931829493"><ele>886.6666666666667</ele><time>2026-04-29T08:03:09.998Z</time></trkpt><trkpt lat="40.172005087303944" lon="9.18386338744388"><ele>891.0</ele><time>2026-04-29T08:03:10.998Z</time></trkpt><trkpt lat="40.171885999322996" lon="9.183690034047302"><ele>891.0</ele><time>2026-04-29T08:03:11.998Z</time></trkpt><trkpt lat="40.171775140157706" lon="9.183517572004058"><ele>891.0</ele><time>2026-04-29T08:03:12.998Z</time></trkpt><trkpt lat="40.171676743092576" lon="9.183341764986801"><ele>891.0</ele><time>2026-04-29T08:03:13.998Z</time></trkpt><trkpt lat="40.17157049853218" lon="9.183181896279061"><ele>892.75</ele><time>2026-04-29T08:03:14.998Z</time></trkpt><trkpt lat="40.17147716474783" lon="9.183032077576383"><ele>894.5</ele><time>2026-04-29T08:03:15.998Z</time></trkpt><trkpt lat="40.17138960999317" lon="9.182898615307973"><ele>896.25</ele><time>2026-04-29T08:03:16.998Z</time></trkpt><trkpt lat="40.171304232098976" lon="9.182788051537935"><ele>898.0</ele><time>2026-04-29T08:03:17.998Z</time></trkpt><trkpt lat="40.1712095717829" lon="9.182709648643085"><ele>898.0</ele><time>2026-04-29T08:03:18.998Z</time></trkpt><trkpt lat="40.17110595908662" lon="9.182651219815233"><ele>898.0</ele><time>2026-04-29T08:03:19.998Z</time></trkpt><trkpt lat="40.17098731883028" lon="9.182614655517433"><ele>898.0</ele><time>2026-04-29T08:03:20.998Z</time></trkpt><trkpt lat="40.17086637060386" lon="9.182574360662578"><ele>898.0</ele><time>2026-04-29T08:03:21.998Z</time></trkpt><trkpt lat="40.17074829909427" lon="9.18253190078005"><ele>900.0</ele><time>2026-04-29T08:03:22.998Z</time></trkpt><trkpt lat="40.170631940261714" lon="9.182463763493509"><ele>902.0</ele><time>2026-04-29T08:03:23.998Z</time></trkpt><trkpt lat="40.17050768920883" lon="9.182417286709828"><ele>904.0</ele><time>2026-04-29T08:03:24.998Z</time></trkpt><trkpt lat="40.170388744267854" lon="9.182368845288607"><ele>906.0</ele><time>2026-04-29T08:03:25.998Z</time></trkpt><trkpt lat="40.170256828701476" lon="9.182326916987577"><ele>906.0</ele><time>2026-04-29T08:03:26.998Z</time></trkpt><trkpt lat="40.17012791678028" lon="9.182279096737169"><ele>906.0</ele><time>2026-04-29T08:03:27.998Z</time></trkpt><trkpt lat="40.1700006873114" lon="9.182215199509017"><ele>906.0</ele><time>2026-04-29T08:03:28.998Z</time></trkpt><trkpt lat="40.169877741498986" lon="9.182134394769635"><ele>906.0</ele><time>2026-04-29T08:03:29.998Z</time></trkpt><trkpt lat="40.16975703049452" lon="9.182047711727327"><ele>909.25</ele><time>2026-04-29T08:03:30.998Z</time></trkpt><trkpt lat="40.16964520188185" lon="9.181941239152613"><ele>912.5</ele><time>2026-04-29T08:03:31.998Z</time></trkpt><trkpt lat="40.1695406117032" lon="9.181823928860334"><ele>915.75</ele><time>2026-04-29T08:03:32.998Z</time></trkpt><trkpt lat="40.16943884221472" lon="9.181701655585027"><ele>919.0</ele><time>2026-04-29T08:03:33.998Z</time></trkpt><trkpt lat="40.16935227459307" lon="9.181551540232377"><ele>918.25</ele><time>2026-04-29T08:03:34.998Z</time></trkpt><trkpt lat="40.16926637978561" lon="9.181414325485578"><ele>917.5</ele><time>2026-04-29T08:03:35.998Z</time></trkpt><trkpt lat="40.16919456776036" lon="9.181279459189298"><ele>916.75</ele><time>2026-04-29T08:03:36.998Z</time></trkpt><trkpt lat="40.16912960122044" lon="9.181125177460293"><ele>916.0</ele><time>2026-04-29T08:03:37.998Z</time></trkpt><trkpt lat="40.16905565536299" lon="9.180982288183879"><ele>918.8</ele><time>2026-04-29T08:03:38.998Z</time></trkpt><trkpt lat="40.1690041286288" lon="9.180835191328207"><ele>921.5999999999999</ele><time>2026-04-29T08:03:39.998Z</time></trkpt><trkpt lat="40.168968928142725" lon="9.180689088726796"><ele>924.4</ele><time>2026-04-29T08:03:40.998Z</time></trkpt><trkpt lat="40.1689329181627" lon="9.180567252677385"><ele>927.2</ele><time>2026-04-29T08:03:41.998Z</time></trkpt><trkpt lat="40.16893371227779" lon="9.18044540380318"><ele>930.0</ele><time>2026-04-29T08:03:42.998Z</time></trkpt><trkpt lat="40.16892597514563" lon="9.18036170016993"><ele>930.0</ele><time>2026-04-29T08:03:43.998Z</time></trkpt><trkpt lat="40.168932843445745" lon="9.180265229322535"><ele>930.0</ele><time>2026-04-29T08:03:45.998Z</time></trkpt><trkpt lat="40.16897294772979" lon="9.180095870442235"><ele>930.0</ele><time>2026-04-29T08:03:47.998Z</time></trkpt><trkpt lat="40.16899214201278" lon="9.179987845606394"><ele>930.0</ele><time>2026-04-29T08:03:48.998Z</time></trkpt><trkpt lat="40.16900826916739" lon="9.179881481635356"><ele>930.0</ele><time>2026-04-29T08:03:49.998Z</time></trkpt><trkpt lat="40.16901537940269" lon="9.179776632143689"><ele>929.3333333333334</ele><time>2026-04-29T08:03:50.998Z</time></trkpt><trkpt lat="40.16901700057682" lon="9.179678075186667"><ele>928.6666666666667</ele><time>2026-04-29T08:03:51.998Z</time></trkpt><trkpt lat="40.168987115929916" lon="9.179600823207853"><ele>928.0</ele><time>2026-04-29T08:03:52.998Z</time></trkpt><trkpt lat="40.16896329639596" lon="9.179479883195087"><ele>927.3333333333334</ele><time>2026-04-29T08:03:54.998Z</time></trkpt><trkpt lat="40.16897067148498" lon="9.179339373829114"><ele>926.6666666666667</ele><time>2026-04-29T08:03:56.998Z</time></trkpt><trkpt lat="40.168941733944095" lon="9.179217247396728"><ele>926.0</ele><time>2026-04-29T08:03:58.998Z</time></trkpt><trkpt lat="40.16891119268313" lon="9.17913152781444"><ele>926.0</ele><time>2026-04-29T08:04:01.998Z</time></trkpt><trkpt lat="40.168780634482154" lon="9.179166493688232"><ele>925.9999999999999</ele><time>2026-04-29T08:04:02.998Z</time></trkpt><trkpt lat="40.168683753770445" lon="9.179196023518749"><ele>925.9999999999999</ele><time>2026-04-29T08:04:04.998Z</time></trkpt><trkpt lat="40.16859810110695" lon="9.179234125935476"><ele>926.0</ele><time>2026-04-29T08:04:06.998Z</time></trkpt><trkpt lat="40.168508204374106" lon="9.179215219429517"><ele>926.0</ele><time>2026-04-29T08:04:08.998Z</time></trkpt><trkpt lat="40.16842448967564" lon="9.179157022410427"><ele>926.0</ele><time>2026-04-29T08:04:10.998Z</time></trkpt><trkpt lat="40.1683531034034" lon="9.179084719549238"><ele>925.9999999999999</ele><time>2026-04-29T08:04:12.998Z</time></trkpt><trkpt lat="40.16827204102822" lon="9.179001253093993"><ele>925.9999999999999</ele><time>2026-04-29T08:04:14.998Z</time></trkpt><trkpt lat="40.16819297657345" lon="9.178918162632012"><ele>926.0</ele><time>2026-04-29T08:04:16.998Z</time></trkpt><trkpt lat="40.16810214275975" lon="9.178854902317573"><ele>926.0</ele><time>2026-04-29T08:04:18.998Z</time></trkpt><trkpt lat="40.16802130474632" lon="9.178799173063533"><ele>927.4</ele><time>2026-04-29T08:04:20.998Z</time></trkpt><trkpt lat="40.16790385355652" lon="9.178737743689089"><ele>928.8</ele><time>2026-04-29T08:04:22.998Z</time></trkpt><trkpt lat="40.167826383636" lon="9.178721626353033"><ele>930.1999999999999</ele><time>2026-04-29T08:04:23.998Z</time></trkpt><trkpt lat="40.16772009997253" lon="9.178707010571229"><ele>931.5999999999999</ele><time>2026-04-29T08:04:24.998Z</time></trkpt><trkpt lat="40.167617969742786" lon="9.178673790527528"><ele>933.0</ele><time>2026-04-29T08:04:25.998Z</time></trkpt><trkpt lat="40.16749829655728" lon="9.178676304709366"><ele>933.0</ele><time>2026-04-29T08:04:26.998Z</time></trkpt><trkpt lat="40.16739099805053" lon="9.178637261288447"><ele>933.0</ele><time>2026-04-29T08:04:27.998Z</time></trkpt><trkpt lat="40.167272146188715" lon="9.17861818414999"><ele>933.0</ele><time>2026-04-29T08:04:28.998Z</time></trkpt><trkpt lat="40.1671447531181" lon="9.178597736041361"><ele>933.0</ele><time>2026-04-29T08:04:29.998Z</time></trkpt><trkpt lat="40.16701985606421" lon="9.178576431440291"><ele>934.2</ele><time>2026-04-29T08:04:30.998Z</time></trkpt><trkpt lat="40.166903898555" lon="9.178553000174487"><ele>935.4</ele><time>2026-04-29T08:04:31.998Z</time></trkpt><trkpt lat="40.166801693373614" lon="9.178504472835998"><ele>936.6000000000001</ele><time>2026-04-29T08:04:32.998Z</time></trkpt><trkpt lat="40.16671668577964" lon="9.17844657347264"><ele>937.8000000000001</ele><time>2026-04-29T08:04:33.998Z</time></trkpt><trkpt lat="40.16664256241883" lon="9.1784130841043"><ele>939.0</ele><time>2026-04-29T08:04:34.998Z</time></trkpt><trkpt lat="40.16666473561392" lon="9.178122945195613"><ele>940.75</ele><time>2026-04-29T08:04:35.998Z</time></trkpt><trkpt lat="40.16661582919399" lon="9.177977153119114"><ele>942.5</ele><time>2026-04-29T08:04:36.998Z</time></trkpt><trkpt lat="40.1665826601811" lon="9.177816161534862"><ele>944.25</ele><time>2026-04-29T08:04:37.998Z</time></trkpt><trkpt lat="40.16654544742468" lon="9.177648354864175"><ele>946.0</ele><time>2026-04-29T08:04:38.998Z</time></trkpt><trkpt lat="40.16650845115454" lon="9.177482767473952"><ele>948.25</ele><time>2026-04-29T08:04:39.998Z</time></trkpt><trkpt lat="40.1664673033891" lon="9.177322752180077"><ele>950.5</ele><time>2026-04-29T08:04:40.998Z</time></trkpt><trkpt lat="40.16643075432477" lon="9.177164694426658"><ele>952.75</ele><time>2026-04-29T08:04:41.998Z</time></trkpt><trkpt lat="40.1663949039492" lon="9.177015073766782"><ele>955.0</ele><time>2026-04-29T08:04:42.998Z</time></trkpt><trkpt lat="40.166353445112044" lon="9.176858983378006"><ele>955.0</ele><time>2026-04-29T08:04:43.998Z</time></trkpt><trkpt lat="40.16632610422358" lon="9.176721072539285"><ele>955.0</ele><time>2026-04-29T08:04:44.998Z</time></trkpt><trkpt lat="40.16629635783591" lon="9.176602775666229"><ele>955.0</ele><time>2026-04-29T08:04:45.998Z</time></trkpt><trkpt lat="40.166275536106184" lon="9.176507992403172"><ele>955.0</ele><time>2026-04-29T08:04:46.998Z</time></trkpt><trkpt lat="40.166263234127605" lon="9.176395649449358"><ele>955.0</ele><time>2026-04-29T08:04:48.998Z</time></trkpt><trkpt lat="40.16612125556914" lon="9.176304107330417"><ele>957.4999999999999</ele><time>2026-04-29T08:04:54.998Z</time></trkpt><trkpt lat="40.16605173905302" lon="9.176307728405003"><ele>960.0</ele><time>2026-04-29T08:04:55.998Z</time></trkpt><trkpt lat="40.16595111448319" lon="9.176312969881419"><ele>962.5</ele><time>2026-04-29T08:04:57.997Z</time></trkpt><trkpt lat="40.165886197546875" lon="9.176316351367422"><ele>965.0</ele><time>2026-04-29T08:04:59.997Z</time></trkpt><trkpt lat="40.165806646935465" lon="9.176320495112321"><ele>967.4999999999999</ele><time>2026-04-29T08:05:01.997Z</time></trkpt><trkpt lat="40.16569396758106" lon="9.176326364516521"><ele>970.0</ele><time>2026-04-29T08:05:03.997Z</time></trkpt><trkpt lat="40.16561785997094" lon="9.176330328916915"><ele>970.0</ele><time>2026-04-29T08:05:04.997Z</time></trkpt><trkpt lat="40.16552894002471" lon="9.176329289789981"><ele>970.0</ele><time>2026-04-29T08:05:05.997Z</time></trkpt><trkpt lat="40.16542480727452" lon="9.176328552067377"><ele>970.0</ele><time>2026-04-29T08:05:06.997Z</time></trkpt><trkpt lat="40.16531430695868" lon="9.176324385585344"><ele>970.0</ele><time>2026-04-29T08:05:07.997Z</time></trkpt><trkpt lat="40.165204524904524" lon="9.17632124958319"><ele>970.0</ele><time>2026-04-29T08:05:08.997Z</time></trkpt><trkpt lat="40.16510877614632" lon="9.176285306993977"><ele>970.0</ele><time>2026-04-29T08:05:09.997Z</time></trkpt><trkpt lat="40.165009872408035" lon="9.176230780872924"><ele>970.0</ele><time>2026-04-29T08:05:10.997Z</time></trkpt><trkpt lat="40.164903150430675" lon="9.17618977463006"><ele>970.0</ele><time>2026-04-29T08:05:11.997Z</time></trkpt><trkpt lat="40.164801672056484" lon="9.176108884724702"><ele>970.0</ele><time>2026-04-29T08:05:12.997Z</time></trkpt><trkpt lat="40.16469327131616" lon="9.176069002407935"><ele>969.8</ele><time>2026-04-29T08:05:13.997Z</time></trkpt><trkpt lat="40.16458727872556" lon="9.17600195881256"><ele>969.6</ele><time>2026-04-29T08:05:14.997Z</time></trkpt><trkpt lat="40.16448768583983" lon="9.17593634339118"><ele>969.4000000000001</ele><time>2026-04-29T08:05:15.997Z</time></trkpt><trkpt lat="40.164386653440616" lon="9.175880851155078"><ele>969.2</ele><time>2026-04-29T08:05:16.997Z</time></trkpt><trkpt lat="40.16428415620238" lon="9.175834691506319"><ele>969.0</ele><time>2026-04-29T08:05:17.997Z</time></trkpt><trkpt lat="40.164199907594025" lon="9.17578925267846"><ele>969.0</ele><time>2026-04-29T08:05:18.997Z</time></trkpt><trkpt lat="40.16411068133144" lon="9.175771573330799"><ele>969.0</ele><time>2026-04-29T08:05:19.997Z</time></trkpt><trkpt lat="40.16402709717174" lon="9.175775262132035"><ele>969.0</ele><time>2026-04-29T08:05:20.997Z</time></trkpt><trkpt lat="40.163952098707554" lon="9.175804439990172"><ele>969.0</ele><time>2026-04-29T08:05:21.997Z</time></trkpt><trkpt lat="40.1638706443188" lon="9.175854586807631"><ele>969.0</ele><time>2026-04-29T08:05:22.997Z</time></trkpt><trkpt lat="40.16379263319834" lon="9.175934079171043"><ele>969.0</ele><time>2026-04-29T08:05:23.997Z</time></trkpt><trkpt lat="40.16373329134473" lon="9.176042699942672"><ele>969.6</ele><time>2026-04-29T08:05:24.997Z</time></trkpt><trkpt lat="40.16368213707775" lon="9.17615928512933"><ele>970.2</ele><time>2026-04-29T08:05:25.997Z</time></trkpt><trkpt lat="40.16364293967951" lon="9.176291436733553"><ele>970.8000000000001</ele><time>2026-04-29T08:05:26.997Z</time></trkpt><trkpt lat="40.16360045733657" lon="9.17642960014315"><ele>971.4000000000001</ele><time>2026-04-29T08:05:27.997Z</time></trkpt><trkpt lat="40.163557178813704" lon="9.176566496870386"><ele>972.0</ele><time>2026-04-29T08:05:28.997Z</time></trkpt><trkpt lat="40.16351682308367" lon="9.176692546989896"><ele>972.0</ele><time>2026-04-29T08:05:29.997Z</time></trkpt><trkpt lat="40.16346817411518" lon="9.176791458696389"><ele>972.0</ele><time>2026-04-29T08:05:30.997Z</time></trkpt><trkpt lat="40.16340440197233" lon="9.176857003991605"><ele>972.0</ele><time>2026-04-29T08:05:31.997Z</time></trkpt><trkpt lat="40.163330037332045" lon="9.176897407511396"><ele>972.0</ele><time>2026-04-29T08:05:32.997Z</time></trkpt><trkpt lat="40.16324331041195" lon="9.176918307003364"><ele>972.0</ele><time>2026-04-29T08:05:33.997Z</time></trkpt><trkpt lat="40.163158215525954" lon="9.176907018993967"><ele>972.0</ele><time>2026-04-29T08:05:34.997Z</time></trkpt><trkpt lat="40.163079058774166" lon="9.17688958394899"><ele>972.4000000000001</ele><time>2026-04-29T08:05:35.997Z</time></trkpt><trkpt lat="40.16299555176156" lon="9.176861668758715"><ele>972.8000000000001</ele><time>2026-04-29T08:05:36.997Z</time></trkpt><trkpt lat="40.16290559376302" lon="9.176836229746923"><ele>973.2</ele><time>2026-04-29T08:05:37.997Z</time></trkpt><trkpt lat="40.162814618100136" lon="9.176813213450394"><ele>973.6</ele><time>2026-04-29T08:05:38.997Z</time></trkpt><trkpt lat="40.162717936353815" lon="9.176791779977401"><ele>974.0</ele><time>2026-04-29T08:05:39.997Z</time></trkpt><trkpt lat="40.16262196134169" lon="9.176782220285848"><ele>974.0</ele><time>2026-04-29T08:05:40.997Z</time></trkpt><trkpt lat="40.16252113834056" lon="9.176798361858305"><ele>974.0000000000001</ele><time>2026-04-29T08:05:41.997Z</time></trkpt><trkpt lat="40.162426990216495" lon="9.176849198845638"><ele>974.0000000000001</ele><time>2026-04-29T08:05:42.997Z</time></trkpt><trkpt lat="40.162336188715415" lon="9.176920780430692"><ele>974.0</ele><time>2026-04-29T08:05:43.997Z</time></trkpt><trkpt lat="40.16226106563182" lon="9.17700668393799"><ele>974.0</ele><time>2026-04-29T08:05:44.997Z</time></trkpt><trkpt lat="40.16220964631594" lon="9.177091391732759"><ele>974.0</ele><time>2026-04-29T08:05:45.997Z</time></trkpt><trkpt lat="40.16215647231512" lon="9.177161659151302"><ele>974.0000000000001</ele><time>2026-04-29T08:05:47.997Z</time></trkpt><trkpt lat="40.16205880732899" lon="9.177112979630998"><ele>974.0000000000001</ele><time>2026-04-29T08:05:49.997Z</time></trkpt><trkpt lat="40.1619710649272" lon="9.177055918381493"><ele>974.0</ele><time>2026-04-29T08:05:50.997Z</time></trkpt><trkpt lat="40.16188549204793" lon="9.17696886828016"><ele>974.0</ele><time>2026-04-29T08:05:51.997Z</time></trkpt><trkpt lat="40.16178968482907" lon="9.176883046182255"><ele>974.0</ele><time>2026-04-29T08:05:52.997Z</time></trkpt><trkpt lat="40.16170248439667" lon="9.176813060310703"><ele>974.0000000000001</ele><time>2026-04-29T08:05:53.997Z</time></trkpt><trkpt lat="40.161621382773724" lon="9.176727646886768"><ele>974.0000000000001</ele><time>2026-04-29T08:05:54.997Z</time></trkpt><trkpt lat="40.161531423993885" lon="9.176650114800184"><ele>974.0</ele><time>2026-04-29T08:05:55.997Z</time></trkpt><trkpt lat="40.16144821724931" lon="9.176569056472806"><ele>974.0</ele><time>2026-04-29T08:05:56.997Z</time></trkpt><trkpt lat="40.161359479579666" lon="9.1764954145485"><ele>973.0</ele><time>2026-04-29T08:05:57.997Z</time></trkpt><trkpt lat="40.16126929028398" lon="9.176410620946168"><ele>972.0</ele><time>2026-04-29T08:05:58.997Z</time></trkpt><trkpt lat="40.16117232582971" lon="9.176317427558295"><ele>971.0</ele><time>2026-04-29T08:05:59.997Z</time></trkpt><trkpt lat="40.161069921533674" lon="9.176215685277377"><ele>970.0</ele><time>2026-04-29T08:06:00.997Z</time></trkpt><trkpt lat="40.160962043955095" lon="9.176115917972961"><ele>970.0</ele><time>2026-04-29T08:06:01.997Z</time></trkpt><trkpt lat="40.16085117200429" lon="9.176004291783123"><ele>970.0</ele><time>2026-04-29T08:06:02.997Z</time></trkpt><trkpt lat="40.16073564966747" lon="9.175893394425948"><ele>970.0</ele><time>2026-04-29T08:06:03.997Z</time></trkpt><trkpt lat="40.160625659561205" lon="9.175784866400926"><ele>970.0</ele><time>2026-04-29T08:06:04.997Z</time></trkpt><trkpt lat="40.16051187287944" lon="9.175676217468277"><ele>968.25</ele><time>2026-04-29T08:06:05.997Z</time></trkpt><trkpt lat="40.16040015500108" lon="9.175556407742974"><ele>966.5</ele><time>2026-04-29T08:06:06.997Z</time></trkpt><trkpt lat="40.16028506919531" lon="9.175430942172795"><ele>964.75</ele><time>2026-04-29T08:06:07.997Z</time></trkpt><trkpt lat="40.160172023074935" lon="9.175297327274267"><ele>963.0</ele><time>2026-04-29T08:06:08.997Z</time></trkpt><trkpt lat="40.160060769821094" lon="9.175161036318842"><ele>963.0</ele><time>2026-04-29T08:06:09.997Z</time></trkpt><trkpt lat="40.15995061218251" lon="9.175033691031405"><ele>963.0</ele><time>2026-04-29T08:06:10.997Z</time></trkpt><trkpt lat="40.15983862640476" lon="9.17490248089239"><ele>963.0</ele><time>2026-04-29T08:06:11.997Z</time></trkpt><trkpt lat="40.159728983750135" lon="9.174769529459452"><ele>963.0</ele><time>2026-04-29T08:06:12.997Z</time></trkpt><trkpt lat="40.15962969815762" lon="9.174646471740125"><ele>960.5</ele><time>2026-04-29T08:06:13.997Z</time></trkpt><trkpt lat="40.159529767030236" lon="9.174528440682687"><ele>958.0</ele><time>2026-04-29T08:06:14.997Z</time></trkpt><trkpt lat="40.15942467681633" lon="9.17441821368769"><ele>955.5</ele><time>2026-04-29T08:06:15.997Z</time></trkpt><trkpt lat="40.15931648635654" lon="9.174300726840249"><ele>953.0</ele><time>2026-04-29T08:06:16.997Z</time></trkpt><trkpt lat="40.15918789155563" lon="9.174218959276958"><ele>953.0</ele><time>2026-04-29T08:06:17.997Z</time></trkpt><trkpt lat="40.1590504224379" lon="9.174150400382654"><ele>953.0</ele><time>2026-04-29T08:06:18.997Z</time></trkpt><trkpt lat="40.15890487898744" lon="9.174085733303787"><ele>953.0</ele><time>2026-04-29T08:06:19.997Z</time></trkpt><trkpt lat="40.15875060035093" lon="9.174020190591449"><ele>949.0</ele><time>2026-04-29T08:06:20.997Z</time></trkpt><trkpt lat="40.15859547222475" lon="9.173952780718125"><ele>945.0</ele><time>2026-04-29T08:06:21.997Z</time></trkpt><trkpt lat="40.15843872638825" lon="9.173885423129233"><ele>941.0</ele><time>2026-04-29T08:06:22.997Z</time></trkpt><trkpt lat="40.15827966323401" lon="9.173818303093213"><ele>940.0</ele><time>2026-04-29T08:06:23.997Z</time></trkpt><trkpt lat="40.15813226207079" lon="9.173756104088284"><ele>939.0</ele><time>2026-04-29T08:06:24.997Z</time></trkpt><trkpt lat="40.15798409583267" lon="9.173689949500861"><ele>938.0</ele><time>2026-04-29T08:06:25.997Z</time></trkpt><trkpt lat="40.15784704443389" lon="9.17363175460255"><ele>938.0</ele><time>2026-04-29T08:06:26.997Z</time></trkpt><trkpt lat="40.15771586188535" lon="9.173573481490811"><ele>938.0</ele><time>2026-04-29T08:06:27.997Z</time></trkpt><trkpt lat="40.157590589490304" lon="9.173514806465995"><ele>938.0</ele><time>2026-04-29T08:06:28.997Z</time></trkpt><trkpt lat="40.15747153378677" lon="9.173458957027718"><ele>938.0</ele><time>2026-04-29T08:06:29.997Z</time></trkpt><trkpt lat="40.15734891185012" lon="9.173424162097216"><ele>938.0</ele><time>2026-04-29T08:06:30.997Z</time></trkpt><trkpt lat="40.157232775348874" lon="9.173347585130246"><ele>938.0</ele><time>2026-04-29T08:06:31.997Z</time></trkpt><trkpt lat="40.15712106807073" lon="9.173274820362613"><ele>938.0</ele><time>2026-04-29T08:06:32.997Z</time></trkpt><trkpt lat="40.15701340176098" lon="9.173191357793558"><ele>938.0</ele><time>2026-04-29T08:06:33.997Z</time></trkpt><trkpt lat="40.156910978782115" lon="9.173088129089827"><ele>936.75</ele><time>2026-04-29T08:06:34.997Z</time></trkpt><trkpt lat="40.156820118139265" lon="9.172959952656118"><ele>935.5</ele><time>2026-04-29T08:06:35.997Z</time></trkpt><trkpt lat="40.15674469534358" lon="9.172818627643522"><ele>934.25</ele><time>2026-04-29T08:06:36.997Z</time></trkpt><trkpt lat="40.15668125053728" lon="9.17266614226091"><ele>933.0</ele><time>2026-04-29T08:06:37.997Z</time></trkpt><trkpt lat="40.156617893844" lon="9.17251018927577"><ele>931.75</ele><time>2026-04-29T08:06:38.997Z</time></trkpt><trkpt lat="40.1565541174107" lon="9.172354260120198"><ele>930.5</ele><time>2026-04-29T08:06:39.997Z</time></trkpt><trkpt lat="40.15646909742482" lon="9.172212391579329"><ele>929.25</ele><time>2026-04-29T08:06:40.997Z</time></trkpt><trkpt lat="40.156368623943955" lon="9.172088417146126"><ele>928.0</ele><time>2026-04-29T08:06:41.997Z</time></trkpt><trkpt lat="40.15626484783811" lon="9.17198014074439"><ele>927.75</ele><time>2026-04-29T08:06:42.997Z</time></trkpt><trkpt lat="40.15616527166451" lon="9.171862169576352"><ele>927.5</ele><time>2026-04-29T08:06:43.997Z</time></trkpt><trkpt lat="40.15607797810854" lon="9.171737881535929"><ele>927.25</ele><time>2026-04-29T08:06:44.997Z</time></trkpt><trkpt lat="40.156002701815055" lon="9.171599897533127"><ele>927.0</ele><time>2026-04-29T08:06:45.997Z</time></trkpt><trkpt lat="40.15594813546713" lon="9.171448123249762"><ele>925.0</ele><time>2026-04-29T08:06:46.997Z</time></trkpt><trkpt lat="40.15592270295528" lon="9.171278594460796"><ele>923.0</ele><time>2026-04-29T08:06:47.997Z</time></trkpt><trkpt lat="40.15588833101361" lon="9.171109102408929"><ele>921.0</ele><time>2026-04-29T08:06:48.997Z</time></trkpt><trkpt lat="40.1558603396453" lon="9.17093831041451"><ele>919.0</ele><time>2026-04-29T08:06:49.997Z</time></trkpt><trkpt lat="40.15582561901054" lon="9.17075997383724"><ele>920.25</ele><time>2026-04-29T08:06:50.997Z</time></trkpt><trkpt lat="40.15577077069137" lon="9.170592264153282"><ele>921.5</ele><time>2026-04-29T08:06:51.997Z</time></trkpt><trkpt lat="40.15568405971727" lon="9.170448068557105"><ele>922.75</ele><time>2026-04-29T08:06:52.997Z</time></trkpt><trkpt lat="40.15559380893066" lon="9.17031633905327"><ele>924.0</ele><time>2026-04-29T08:06:53.997Z</time></trkpt><trkpt lat="40.155496387615536" lon="9.170178838045652"><ele>922.0</ele><time>2026-04-29T08:06:54.997Z</time></trkpt><trkpt lat="40.15540321939809" lon="9.170048589522223"><ele>920.0</ele><time>2026-04-29T08:06:55.997Z</time></trkpt><trkpt lat="40.1553036229612" lon="9.169909354353466"><ele>918.0</ele><time>2026-04-29T08:06:56.997Z</time></trkpt><trkpt lat="40.15520078280099" lon="9.16976558451944"><ele>916.0</ele><time>2026-04-29T08:06:57.997Z</time></trkpt><trkpt lat="40.15509505617569" lon="9.169619756524963"><ele>916.0</ele><time>2026-04-29T08:06:58.997Z</time></trkpt><trkpt lat="40.1549869131127" lon="9.16947067589266"><ele>916.0</ele><time>2026-04-29T08:06:59.997Z</time></trkpt><trkpt lat="40.1548788865034" lon="9.169323366522429"><ele>916.0</ele><time>2026-04-29T08:07:00.997Z</time></trkpt><trkpt lat="40.15476728147061" lon="9.169179275788187"><ele>914.75</ele><time>2026-04-29T08:07:01.997Z</time></trkpt><trkpt lat="40.15466516010372" lon="9.169046841218504"><ele>913.5</ele><time>2026-04-29T08:07:02.997Z</time></trkpt><trkpt lat="40.1545661618383" lon="9.168915270426501"><ele>912.25</ele><time>2026-04-29T08:07:03.997Z</time></trkpt><trkpt lat="40.154479176992616" lon="9.168791428305424"><ele>911.0</ele><time>2026-04-29T08:07:04.997Z</time></trkpt><trkpt lat="40.1544019694892" lon="9.168652594255"><ele>910.5</ele><time>2026-04-29T08:07:05.997Z</time></trkpt><trkpt lat="40.154333023099085" lon="9.168503621049197"><ele>910.0</ele><time>2026-04-29T08:07:06.997Z</time></trkpt><trkpt lat="40.1542762545748" lon="9.168345987411797"><ele>909.5</ele><time>2026-04-29T08:07:07.997Z</time></trkpt><trkpt lat="40.15421801348895" lon="9.168183783960082"><ele>909.0</ele><time>2026-04-29T08:07:08.997Z</time></trkpt><trkpt lat="40.154159628240016" lon="9.168021179121363"><ele>908.0</ele><time>2026-04-29T08:07:09.997Z</time></trkpt><trkpt lat="40.15409849786561" lon="9.167855344440705"><ele>907.0</ele><time>2026-04-29T08:07:10.997Z</time></trkpt><trkpt lat="40.15403460466503" lon="9.167694509866969"><ele>906.0</ele><time>2026-04-29T08:07:11.997Z</time></trkpt><trkpt lat="40.153970595450566" lon="9.16754040232028"><ele>905.0</ele><time>2026-04-29T08:07:12.997Z</time></trkpt><trkpt lat="40.153906526455216" lon="9.167388084726694"><ele>907.0</ele><time>2026-04-29T08:07:13.997Z</time></trkpt><trkpt lat="40.15384024881066" lon="9.167235471165203"><ele>909.0</ele><time>2026-04-29T08:07:14.997Z</time></trkpt><trkpt lat="40.15376818627809" lon="9.167087389240619"><ele>911.0</ele><time>2026-04-29T08:07:15.997Z</time></trkpt><trkpt lat="40.1536982768009" lon="9.166939537807195"><ele>913.0</ele><time>2026-04-29T08:07:16.997Z</time></trkpt><trkpt lat="40.153630170197324" lon="9.16678802939029"><ele>912.9999999999999</ele><time>2026-04-29T08:07:17.997Z</time></trkpt><trkpt lat="40.15357255516969" lon="9.16664845879872"><ele>913.0</ele><time>2026-04-29T08:07:18.997Z</time></trkpt><trkpt lat="40.153523999083866" lon="9.166529664235783"><ele>913.0</ele><time>2026-04-29T08:07:19.997Z</time></trkpt><trkpt lat="40.15347803918527" lon="9.166449323672817"><ele>913.0</ele><time>2026-04-29T08:07:20.997Z</time></trkpt><trkpt lat="40.153420334668645" lon="9.166408093297349"><ele>912.9999999999999</ele><time>2026-04-29T08:07:21.997Z</time></trkpt><trkpt lat="40.153349770395536" lon="9.166391086898027"><ele>913.0</ele><time>2026-04-29T08:07:22.997Z</time></trkpt><trkpt lat="40.15326981855055" lon="9.166399308731362"><ele>911.4999999999999</ele><time>2026-04-29T08:07:23.997Z</time></trkpt><trkpt lat="40.15319268182696" lon="9.166418457568149"><ele>910.0</ele><time>2026-04-29T08:07:24.997Z</time></trkpt><trkpt lat="40.15311523645333" lon="9.166436405848671"><ele>908.5</ele><time>2026-04-29T08:07:25.997Z</time></trkpt><trkpt lat="40.15303480607452" lon="9.166444035617216"><ele>907.0</ele><time>2026-04-29T08:07:26.997Z</time></trkpt><trkpt lat="40.1529522666962" lon="9.166423086189305"><ele>905.4999999999999</ele><time>2026-04-29T08:07:27.997Z</time></trkpt><trkpt lat="40.15287380191417" lon="9.166376740729088"><ele>904.0</ele><time>2026-04-29T08:07:28.997Z</time></trkpt><trkpt lat="40.15280526105593" lon="9.166296787293772"><ele>904.0</ele><time>2026-04-29T08:07:29.997Z</time></trkpt><trkpt lat="40.15274086406033" lon="9.166198534921596"><ele>904.0000000000001</ele><time>2026-04-29T08:07:30.997Z</time></trkpt><trkpt lat="40.15267935072074" lon="9.166086109060078"><ele>904.0000000000001</ele><time>2026-04-29T08:07:31.997Z</time></trkpt><trkpt lat="40.15261887791887" lon="9.165959383082143"><ele>904.0</ele><time>2026-04-29T08:07:32.997Z</time></trkpt><trkpt lat="40.152557052647005" lon="9.165828374428322"><ele>904.0</ele><time>2026-04-29T08:07:33.997Z</time></trkpt><trkpt lat="40.15252440536332" lon="9.165678844702063"><ele>905.5</ele><time>2026-04-29T08:07:34.997Z</time></trkpt><trkpt lat="40.15247640089169" lon="9.165544702006986"><ele>907.0</ele><time>2026-04-29T08:07:35.997Z</time></trkpt><trkpt lat="40.15242614245745" lon="9.165412277040131"><ele>908.5</ele><time>2026-04-29T08:07:36.997Z</time></trkpt><trkpt lat="40.15235214984955" lon="9.165294482444024"><ele>910.0</ele><time>2026-04-29T08:07:37.997Z</time></trkpt><trkpt lat="40.15228095370642" lon="9.165176213468762"><ele>905.0</ele><time>2026-04-29T08:07:38.997Z</time></trkpt><trkpt lat="40.15221626044953" lon="9.16503950109688"><ele>900.0</ele><time>2026-04-29T08:07:39.997Z</time></trkpt><trkpt lat="40.152156286315744" lon="9.164907578493246"><ele>895.0</ele><time>2026-04-29T08:07:40.997Z</time></trkpt><trkpt lat="40.152091744035204" lon="9.164783285653908"><ele>890.0</ele><time>2026-04-29T08:07:41.997Z</time></trkpt><trkpt lat="40.152017208107964" lon="9.164670885016227"><ele>890.0</ele><time>2026-04-29T08:07:42.997Z</time></trkpt><trkpt lat="40.15191415767504" lon="9.164595678465906"><ele>890.0</ele><time>2026-04-29T08:07:43.997Z</time></trkpt><trkpt lat="40.151817765248595" lon="9.164529101953358"><ele>890.0</ele><time>2026-04-29T08:07:44.997Z</time></trkpt><trkpt lat="40.151711953525755" lon="9.16447739466352"><ele>890.0</ele><time>2026-04-29T08:07:45.997Z</time></trkpt><trkpt lat="40.15160331417755" lon="9.164441634488048"><ele>887.2</ele><time>2026-04-29T08:07:46.997Z</time></trkpt><trkpt lat="40.151500053805236" lon="9.164407140348985"><ele>884.4</ele><time>2026-04-29T08:07:47.997Z</time></trkpt><trkpt lat="40.15140128772206" lon="9.164358274492535"><ele>881.5999999999999</ele><time>2026-04-29T08:07:48.997Z</time></trkpt><trkpt lat="40.15131286415481" lon="9.164289205760472"><ele>878.8</ele><time>2026-04-29T08:07:49.997Z</time></trkpt><trkpt lat="40.15122717414964" lon="9.164208642631444"><ele>876.0</ele><time>2026-04-29T08:07:50.997Z</time></trkpt><trkpt lat="40.15114855636669" lon="9.164099285290465"><ele>877.0</ele><time>2026-04-29T08:07:51.997Z</time></trkpt><trkpt lat="40.15106414632016" lon="9.163991543513298"><ele>878.0</ele><time>2026-04-29T08:07:52.997Z</time></trkpt><trkpt lat="40.15097778944661" lon="9.163891378501182"><ele>879.0</ele><time>2026-04-29T08:07:53.997Z</time></trkpt><trkpt lat="40.15090607478151" lon="9.163772970691223"><ele>880.0</ele><time>2026-04-29T08:07:54.997Z</time></trkpt><trkpt lat="40.15082459888769" lon="9.163667949076395"><ele>880.0</ele><time>2026-04-29T08:07:55.997Z</time></trkpt><trkpt lat="40.15073926882945" lon="9.163567124890944"><ele>880.0</ele><time>2026-04-29T08:07:56.997Z</time></trkpt><trkpt lat="40.150659015023926" lon="9.163464727066133"><ele>880.0</ele><time>2026-04-29T08:07:57.997Z</time></trkpt><trkpt lat="40.15058182656881" lon="9.163364513845435"><ele>880.0</ele><time>2026-04-29T08:07:58.997Z</time></trkpt><trkpt lat="40.15049919477341" lon="9.163279464144692"><ele>880.0</ele><time>2026-04-29T08:07:59.997Z</time></trkpt><trkpt lat="40.15040624840393" lon="9.163212495484013"><ele>878.0</ele><time>2026-04-29T08:08:00.997Z</time></trkpt><trkpt lat="40.15030422571193" lon="9.163174473823824"><ele>876.0</ele><time>2026-04-29T08:08:01.997Z</time></trkpt><trkpt lat="40.15019701650217" lon="9.163157882551285"><ele>874.0</ele><time>2026-04-29T08:08:02.997Z</time></trkpt><trkpt lat="40.15009430621977" lon="9.16314628212912"><ele>872.0</ele><time>2026-04-29T08:08:03.997Z</time></trkpt><trkpt lat="40.15000104399803" lon="9.163135314832234"><ele>870.0</ele><time>2026-04-29T08:08:04.997Z</time></trkpt><trkpt lat="40.14991022251905" lon="9.163100262035748"><ele>870.6666666666666</ele><time>2026-04-29T08:08:05.997Z</time></trkpt><trkpt lat="40.149825255687105" lon="9.163096350678448"><ele>871.3333333333333</ele><time>2026-04-29T08:08:06.997Z</time></trkpt><trkpt lat="40.1497483046161" lon="9.163101998668868"><ele>872.0</ele><time>2026-04-29T08:08:07.997Z</time></trkpt><trkpt lat="40.14968004315427" lon="9.163127937059656"><ele>872.6666666666666</ele><time>2026-04-29T08:08:08.997Z</time></trkpt><trkpt lat="40.149614936479296" lon="9.163182306749816"><ele>873.3333333333333</ele><time>2026-04-29T08:08:09.997Z</time></trkpt><trkpt lat="40.14954868907549" lon="9.163258301918178"><ele>874.0</ele><time>2026-04-29T08:08:10.997Z</time></trkpt><trkpt lat="40.14948447333432" lon="9.163339009700056"><ele>873.9999999999999</ele><time>2026-04-29T08:08:11.997Z</time></trkpt><trkpt lat="40.14942869002963" lon="9.163432913162872"><ele>874.0</ele><time>2026-04-29T08:08:12.997Z</time></trkpt><trkpt lat="40.149371500041184" lon="9.163515647063715"><ele>874.0</ele><time>2026-04-29T08:08:13.997Z</time></trkpt><trkpt lat="40.14930289991029" lon="9.163572472860183"><ele>874.0</ele><time>2026-04-29T08:08:14.997Z</time></trkpt><trkpt lat="40.14923128816922" lon="9.163609386676114"><ele>873.9999999999999</ele><time>2026-04-29T08:08:15.997Z</time></trkpt><trkpt lat="40.14914757326423" lon="9.163620694807031"><ele>874.0</ele><time>2026-04-29T08:08:16.997Z</time></trkpt><trkpt lat="40.14906062441448" lon="9.163608644314042"><ele>872.2</ele><time>2026-04-29T08:08:17.997Z</time></trkpt><trkpt lat="40.148972548665824" lon="9.163601880553086"><ele>870.4000000000001</ele><time>2026-04-29T08:08:18.997Z</time></trkpt><trkpt lat="40.14888371441803" lon="9.163590298204552"><ele>868.6</ele><time>2026-04-29T08:08:19.997Z</time></trkpt><trkpt lat="40.148792783463" lon="9.163583717068155"><ele>866.8</ele><time>2026-04-29T08:08:20.997Z</time></trkpt><trkpt lat="40.14869895682989" lon="9.163567702708574"><ele>865.0</ele><time>2026-04-29T08:08:21.997Z</time></trkpt><trkpt lat="40.148609206993584" lon="9.163520458070286"><ele>865.0</ele><time>2026-04-29T08:08:22.997Z</time></trkpt><trkpt lat="40.14851775949097" lon="9.163466979654805"><ele>865.0</ele><time>2026-04-29T08:08:23.997Z</time></trkpt><trkpt lat="40.148431667827346" lon="9.163397277715852"><ele>865.0</ele><time>2026-04-29T08:08:24.997Z</time></trkpt><trkpt lat="40.148342609504034" lon="9.163327830176499"><ele>865.0</ele><time>2026-04-29T08:08:25.997Z</time></trkpt><trkpt lat="40.14825349819333" lon="9.163260642270602"><ele>865.0</ele><time>2026-04-29T08:08:26.997Z</time></trkpt><trkpt lat="40.148174180023226" lon="9.16318114765522"><ele>858.2</ele><time>2026-04-29T08:08:27.997Z</time></trkpt><trkpt lat="40.14812081281834" lon="9.163096609186477"><ele>851.4</ele><time>2026-04-29T08:08:28.997Z</time></trkpt><trkpt lat="40.148070273397956" lon="9.162994336761361"><ele>844.5999999999999</ele><time>2026-04-29T08:08:29.997Z</time></trkpt><trkpt lat="40.14802108058102" lon="9.162887875647623"><ele>837.8</ele><time>2026-04-29T08:08:30.997Z</time></trkpt><trkpt lat="40.14799154033859" lon="9.16276673397455"><ele>831.0</ele><time>2026-04-29T08:08:31.997Z</time></trkpt><trkpt lat="40.14799599159079" lon="9.16264945638146"><ele>831.0</ele><time>2026-04-29T08:08:32.997Z</time></trkpt><trkpt lat="40.14801783843531" lon="9.162539494566486"><ele>831.0</ele><time>2026-04-29T08:08:33.997Z</time></trkpt><trkpt lat="40.14806700927831" lon="9.16243808559067"><ele>831.0</ele><time>2026-04-29T08:08:34.997Z</time></trkpt><trkpt lat="40.14812881700367" lon="9.162333473255757"><ele>831.0</ele><time>2026-04-29T08:08:35.997Z</time></trkpt><trkpt lat="40.14819665568439" lon="9.162221623316688"><ele>831.0</ele><time>2026-04-29T08:08:36.997Z</time></trkpt><trkpt lat="40.148259873941896" lon="9.162117308712102"><ele>834.25</ele><time>2026-04-29T08:08:37.997Z</time></trkpt><trkpt lat="40.14833386551125" lon="9.161994256524283"><ele>837.5</ele><time>2026-04-29T08:08:38.997Z</time></trkpt><trkpt lat="40.14840508991439" lon="9.161873765355546"><ele>840.75</ele><time>2026-04-29T08:08:39.997Z</time></trkpt><trkpt lat="40.14847821303883" lon="9.161749957433168"><ele>844.0</ele><time>2026-04-29T08:08:40.997Z</time></trkpt><trkpt lat="40.14855180431192" lon="9.161625356770854"><ele>837.25</ele><time>2026-04-29T08:08:41.997Z</time></trkpt><trkpt lat="40.148623351165206" lon="9.161504217698136"><ele>830.5</ele><time>2026-04-29T08:08:42.997Z</time></trkpt><trkpt lat="40.14869407387871" lon="9.161381541698042"><ele>823.75</ele><time>2026-04-29T08:08:43.997Z</time></trkpt><trkpt lat="40.14875823410281" lon="9.161253367138396"><ele>817.0</ele><time>2026-04-29T08:08:44.997Z</time></trkpt><trkpt lat="40.14881728783576" lon="9.161125755551222"><ele>817.0</ele><time>2026-04-29T08:08:45.997Z</time></trkpt><trkpt lat="40.14887117750361" lon="9.161003283984032"><ele>817.0</ele><time>2026-04-29T08:08:46.997Z</time></trkpt><trkpt lat="40.14890853581728" lon="9.160877133765245"><ele>817.0</ele><time>2026-04-29T08:08:47.997Z</time></trkpt><trkpt lat="40.14895433745392" lon="9.160766666668021"><ele>817.0</ele><time>2026-04-29T08:08:48.997Z</time></trkpt><trkpt lat="40.149007370110944" lon="9.160675040617239"><ele>817.0</ele><time>2026-04-29T08:08:49.997Z</time></trkpt><trkpt lat="40.149079192051616" lon="9.160610834007345"><ele>816.8</ele><time>2026-04-29T08:08:50.997Z</time></trkpt><trkpt lat="40.149164500523526" lon="9.16057438286259"><ele>816.6</ele><time>2026-04-29T08:08:51.997Z</time></trkpt><trkpt lat="40.14926073520799" lon="9.160565096536747"><ele>816.4</ele><time>2026-04-29T08:08:52.997Z</time></trkpt><trkpt lat="40.14936582940363" lon="9.160589629372279"><ele>816.1999999999999</ele><time>2026-04-29T08:08:53.997Z</time></trkpt><trkpt lat="40.149472441454684" lon="9.160627404906627"><ele>816.0</ele><time>2026-04-29T08:08:54.997Z</time></trkpt><trkpt lat="40.149583547239395" lon="9.160658874286646"><ele>816.0</ele><time>2026-04-29T08:08:55.997Z</time></trkpt><trkpt lat="40.14969990570651" lon="9.160673184186678"><ele>816.0</ele><time>2026-04-29T08:08:56.997Z</time></trkpt><trkpt lat="40.149807683250174" lon="9.160668479443231"><ele>816.0</ele><time>2026-04-29T08:08:57.997Z</time></trkpt><trkpt lat="40.14990668291993" lon="9.160651924005888"><ele>816.0</ele><time>2026-04-29T08:08:58.997Z</time></trkpt><trkpt lat="40.150001902340335" lon="9.160651338136164"><ele>816.0</ele><time>2026-04-29T08:08:59.997Z</time></trkpt><trkpt lat="40.15009324001002" lon="9.16068465002397"><ele>820.4</ele><time>2026-04-29T08:09:00.997Z</time></trkpt><trkpt lat="40.15017875672541" lon="9.160745755480072"><ele>824.8</ele><time>2026-04-29T08:09:01.997Z</time></trkpt><trkpt lat="40.15026348544212" lon="9.160824372555581"><ele>829.1999999999999</ele><time>2026-04-29T08:09:02.997Z</time></trkpt><trkpt lat="40.15033658719457" lon="9.160936270725465"><ele>833.5999999999999</ele><time>2026-04-29T08:09:03.997Z</time></trkpt><trkpt lat="40.15040598920444" lon="9.161042324594144"><ele>838.0</ele><time>2026-04-29T08:09:04.997Z</time></trkpt><trkpt lat="40.15047437415286" lon="9.161122042320281"><ele>838.0</ele><time>2026-04-29T08:09:05.997Z</time></trkpt><trkpt lat="40.150553200810634" lon="9.161185235973933"><ele>838.0</ele><time>2026-04-29T08:09:06.997Z</time></trkpt><trkpt lat="40.150636897772074" lon="9.1612567949049"><ele>838.0</ele><time>2026-04-29T08:09:07.997Z</time></trkpt><trkpt lat="40.15074741424011" lon="9.161282738199098"><ele>838.0</ele><time>2026-04-29T08:09:08.997Z</time></trkpt><trkpt lat="40.15085550302827" lon="9.161340808579748"><ele>838.0</ele><time>2026-04-29T08:09:09.997Z</time></trkpt><trkpt lat="40.15095523452008" lon="9.161400308871071"><ele>838.5</ele><time>2026-04-29T08:09:10.997Z</time></trkpt><trkpt lat="40.151058235174474" lon="9.16146075829981"><ele>839.0</ele><time>2026-04-29T08:09:11.997Z</time></trkpt><trkpt lat="40.15116111027211" lon="9.161521037595232"><ele>839.5</ele><time>2026-04-29T08:09:12.997Z</time></trkpt><trkpt lat="40.15127163926325" lon="9.161576108732534"><ele>840.0</ele><time>2026-04-29T08:09:13.997Z</time></trkpt><trkpt lat="40.15138305213949" lon="9.161619641523973"><ele>840.0</ele><time>2026-04-29T08:09:14.997Z</time></trkpt><trkpt lat="40.15149192128264" lon="9.161665645993557"><ele>840.0</ele><time>2026-04-29T08:09:15.997Z</time></trkpt><trkpt lat="40.15159548350125" lon="9.16171397498181"><ele>840.0</ele><time>2026-04-29T08:09:16.997Z</time></trkpt><trkpt lat="40.15169031501616" lon="9.161759976105959"><ele>840.0</ele><time>2026-04-29T08:09:17.997Z</time></trkpt><trkpt lat="40.151785537401075" lon="9.16178558846269"><ele>840.0</ele><time>2026-04-29T08:09:18.997Z</time></trkpt><trkpt lat="40.15188426820089" lon="9.161808080061387"><ele>837.8</ele><time>2026-04-29T08:09:19.997Z</time></trkpt><trkpt lat="40.1519843081655" lon="9.161786521438312"><ele>835.6</ele><time>2026-04-29T08:09:20.997Z</time></trkpt><trkpt lat="40.15207681058635" lon="9.1617293733032"><ele>833.4000000000001</ele><time>2026-04-29T08:09:21.997Z</time></trkpt><trkpt lat="40.15216536806443" lon="9.161638371567198"><ele>831.2</ele><time>2026-04-29T08:09:22.997Z</time></trkpt><trkpt lat="40.15224531428863" lon="9.161529410116186"><ele>829.0</ele><time>2026-04-29T08:09:23.997Z</time></trkpt><trkpt lat="40.15231261344616" lon="9.161399864297765"><ele>826.25</ele><time>2026-04-29T08:09:24.997Z</time></trkpt><trkpt lat="40.1523647714675" lon="9.161267737439376"><ele>823.5</ele><time>2026-04-29T08:09:25.997Z</time></trkpt><trkpt lat="40.15241665891226" lon="9.161136607064975"><ele>820.75</ele><time>2026-04-29T08:09:26.997Z</time></trkpt><trkpt lat="40.15246973410047" lon="9.16100527442092"><ele>818.0</ele><time>2026-04-29T08:09:27.997Z</time></trkpt><trkpt lat="40.15252133487119" lon="9.160859933872166"><ele>818.0</ele><time>2026-04-29T08:09:28.997Z</time></trkpt><trkpt lat="40.1525681274628" lon="9.16070654764033"><ele>818.0</ele><time>2026-04-29T08:09:29.997Z</time></trkpt><trkpt lat="40.1526067155062" lon="9.160545715762877"><ele>818.0</ele><time>2026-04-29T08:09:30.997Z</time></trkpt><trkpt lat="40.15264203140795" lon="9.160381611855103"><ele>818.0</ele><time>2026-04-29T08:09:31.997Z</time></trkpt><trkpt lat="40.15267504666845" lon="9.160216876942133"><ele>814.75</ele><time>2026-04-29T08:09:32.997Z</time></trkpt><trkpt lat="40.15270516227458" lon="9.160051150749595"><ele>811.5</ele><time>2026-04-29T08:09:33.997Z</time></trkpt><trkpt lat="40.152734873584215" lon="9.159886074157376"><ele>808.25</ele><time>2026-04-29T08:09:34.997Z</time></trkpt><trkpt lat="40.152782443557825" lon="9.159733806632396"><ele>805.0</ele><time>2026-04-29T08:09:35.997Z</time></trkpt><trkpt lat="40.1528141245146" lon="9.159586509974705"><ele>803.0</ele><time>2026-04-29T08:09:36.997Z</time></trkpt><trkpt lat="40.152839451977606" lon="9.159451753900262"><ele>801.0</ele><time>2026-04-29T08:09:37.997Z</time></trkpt><trkpt lat="40.15285159100493" lon="9.159321927429536"><ele>799.0</ele><time>2026-04-29T08:09:38.997Z</time></trkpt><trkpt lat="40.152850481954765" lon="9.15918646866109"><ele>797.0</ele><time>2026-04-29T08:09:39.997Z</time></trkpt><trkpt lat="40.15283273199648" lon="9.159050878739146"><ele>795.0</ele><time>2026-04-29T08:09:40.997Z</time></trkpt><trkpt lat="40.15280290733101" lon="9.158918665795275"><ele>794.75</ele><time>2026-04-29T08:09:41.997Z</time></trkpt><trkpt lat="40.15275412234544" lon="9.158790548980347"><ele>794.5</ele><time>2026-04-29T08:09:42.997Z</time></trkpt><trkpt lat="40.15268857668" lon="9.158667441509735"><ele>794.25</ele><time>2026-04-29T08:09:43.997Z</time></trkpt><trkpt lat="40.1526288097262" lon="9.158528015337065"><ele>794.0</ele><time>2026-04-29T08:09:44.997Z</time></trkpt><trkpt lat="40.15254217644374" lon="9.158420843065386"><ele>794.0</ele><time>2026-04-29T08:09:45.997Z</time></trkpt><trkpt lat="40.152475465113234" lon="9.158298791428777"><ele>794.0</ele><time>2026-04-29T08:09:46.997Z</time></trkpt><trkpt lat="40.152407733925926" lon="9.158185612575995"><ele>794.0</ele><time>2026-04-29T08:09:47.997Z</time></trkpt><trkpt lat="40.15235406304795" lon="9.158074743678664"><ele>794.0</ele><time>2026-04-29T08:09:48.997Z</time></trkpt><trkpt lat="40.15231820453837" lon="9.157949363294458"><ele>794.0</ele><time>2026-04-29T08:09:49.997Z</time></trkpt><trkpt lat="40.15229621886882" lon="9.15781563139651"><ele>789.2</ele><time>2026-04-29T08:09:50.997Z</time></trkpt><trkpt lat="40.15228776451148" lon="9.15767849170137"><ele>784.4000000000001</ele><time>2026-04-29T08:09:51.997Z</time></trkpt><trkpt lat="40.1522972455793" lon="9.157546369737888"><ele>779.6</ele><time>2026-04-29T08:09:52.997Z</time></trkpt><trkpt lat="40.15233519443519" lon="9.15742168215352"><ele>774.8</ele><time>2026-04-29T08:09:53.997Z</time></trkpt><trkpt lat="40.15239192884933" lon="9.157305741711244"><ele>770.0</ele><time>2026-04-29T08:09:54.997Z</time></trkpt><trkpt lat="40.152463923422594" lon="9.157194773914021"><ele>770.0</ele><time>2026-04-29T08:09:55.997Z</time></trkpt><trkpt lat="40.15254000065899" lon="9.15708065685804"><ele>770.0</ele><time>2026-04-29T08:09:56.997Z</time></trkpt><trkpt lat="40.152613677742366" lon="9.15695892549569"><ele>770.0</ele><time>2026-04-29T08:09:57.997Z</time></trkpt><trkpt lat="40.15270166605298" lon="9.156842184699842"><ele>770.0</ele><time>2026-04-29T08:09:58.997Z</time></trkpt><trkpt lat="40.15278142837254" lon="9.156708405674383"><ele>770.0</ele><time>2026-04-29T08:09:59.997Z</time></trkpt><trkpt lat="40.15285148487693" lon="9.156575545973572"><ele>770.0</ele><time>2026-04-29T08:10:00.997Z</time></trkpt><trkpt lat="40.15292061174206" lon="9.15644042308337"><ele>770.0</ele><time>2026-04-29T08:10:01.997Z</time></trkpt><trkpt lat="40.15300529654735" lon="9.156307858684379"><ele>770.0</ele><time>2026-04-29T08:10:02.997Z</time></trkpt><trkpt lat="40.153098950257025" lon="9.15617651499143"><ele>769.25</ele><time>2026-04-29T08:10:03.997Z</time></trkpt><trkpt lat="40.153196395055744" lon="9.156056004558193"><ele>768.5</ele><time>2026-04-29T08:10:04.997Z</time></trkpt><trkpt lat="40.15330454808683" lon="9.155942009273002"><ele>767.75</ele><time>2026-04-29T08:10:05.997Z</time></trkpt><trkpt lat="40.15342464457616" lon="9.155853195085346"><ele>767.0</ele><time>2026-04-29T08:10:06.997Z</time></trkpt><trkpt lat="40.15354937393534" lon="9.155778602201538"><ele>767.0</ele><time>2026-04-29T08:10:07.997Z</time></trkpt><trkpt lat="40.15368703258215" lon="9.155734896662615"><ele>767.0</ele><time>2026-04-29T08:10:08.997Z</time></trkpt><trkpt lat="40.153813485251725" lon="9.155658415086007"><ele>767.0</ele><time>2026-04-29T08:10:09.997Z</time></trkpt><trkpt lat="40.15394034895072" lon="9.155573724728903"><ele>767.0</ele><time>2026-04-29T08:10:10.997Z</time></trkpt><trkpt lat="40.15406989361122" lon="9.155483364027459"><ele>763.25</ele><time>2026-04-29T08:10:11.997Z</time></trkpt><trkpt lat="40.15419977786954" lon="9.155396944291384"><ele>759.5</ele><time>2026-04-29T08:10:12.997Z</time></trkpt><trkpt lat="40.154332280372344" lon="9.155309975382297"><ele>755.75</ele><time>2026-04-29T08:10:13.997Z</time></trkpt><trkpt lat="40.1544679476605" lon="9.155220399133054"><ele>752.0</ele><time>2026-04-29T08:10:14.997Z</time></trkpt><trkpt lat="40.154597075201345" lon="9.15513514086519"><ele>752.0</ele><time>2026-04-29T08:10:15.997Z</time></trkpt><trkpt lat="40.15472346438938" lon="9.155063164142218"><ele>752.0</ele><time>2026-04-29T08:10:16.997Z</time></trkpt><trkpt lat="40.15484924907468" lon="9.155002655927925"><ele>752.0</ele><time>2026-04-29T08:10:17.997Z</time></trkpt><trkpt lat="40.154973934683426" lon="9.154937309872718"><ele>752.0</ele><time>2026-04-29T08:10:18.997Z</time></trkpt><trkpt lat="40.15509381931442" lon="9.154865514028918"><ele>748.0</ele><time>2026-04-29T08:10:19.997Z</time></trkpt><trkpt lat="40.15520886729319" lon="9.154796124011243"><ele>744.0</ele><time>2026-04-29T08:10:20.997Z</time></trkpt><trkpt lat="40.15532294614144" lon="9.154702885832076"><ele>740.0</ele><time>2026-04-29T08:10:21.997Z</time></trkpt><trkpt lat="40.1554456595292" lon="9.154639631057696"><ele>736.0</ele><time>2026-04-29T08:10:22.997Z</time></trkpt><trkpt lat="40.155562848999196" lon="9.154558292083523"><ele>736.0</ele><time>2026-04-29T08:10:23.997Z</time></trkpt><trkpt lat="40.155676633353735" lon="9.154473664802795"><ele>736.0</ele><time>2026-04-29T08:10:24.997Z</time></trkpt><trkpt lat="40.15577734706718" lon="9.154382848573288"><ele>736.0</ele><time>2026-04-29T08:10:25.997Z</time></trkpt><trkpt lat="40.15586955976104" lon="9.154277443735046"><ele>736.0</ele><time>2026-04-29T08:10:26.997Z</time></trkpt><trkpt lat="40.155955210818156" lon="9.1541610857138"><ele>735.5999999999999</ele><time>2026-04-29T08:10:27.997Z</time></trkpt><trkpt lat="40.156033390370816" lon="9.154042504839751"><ele>735.2</ele><time>2026-04-29T08:10:28.997Z</time></trkpt><trkpt lat="40.1561014596533" lon="9.153921351141728"><ele>734.8</ele><time>2026-04-29T08:10:29.997Z</time></trkpt><trkpt lat="40.15615508289072" lon="9.153798623767964"><ele>734.4000000000001</ele><time>2026-04-29T08:10:30.997Z</time></trkpt><trkpt lat="40.15619128055459" lon="9.153677709882627"><ele>734.0</ele><time>2026-04-29T08:10:31.997Z</time></trkpt><trkpt lat="40.15621220358688" lon="9.153547384291427"><ele>734.0</ele><time>2026-04-29T08:10:32.997Z</time></trkpt><trkpt lat="40.15621282746482" lon="9.153414228785994"><ele>734.0</ele><time>2026-04-29T08:10:33.997Z</time></trkpt><trkpt lat="40.15619858139526" lon="9.15327806583798"><ele>734.0</ele><time>2026-04-29T08:10:34.997Z</time></trkpt><trkpt lat="40.15617128858291" lon="9.153149787124924"><ele>734.0</ele><time>2026-04-29T08:10:35.997Z</time></trkpt><trkpt lat="40.15614326727911" lon="9.153026436808085"><ele>734.0</ele><time>2026-04-29T08:10:36.997Z</time></trkpt><trkpt lat="40.156105565992554" lon="9.152927744997767"><ele>734.4000000000001</ele><time>2026-04-29T08:10:37.997Z</time></trkpt><trkpt lat="40.15607309127009" lon="9.152842734927864"><ele>734.8</ele><time>2026-04-29T08:10:38.997Z</time></trkpt><trkpt lat="40.156034605040304" lon="9.152776798176912"><ele>735.2</ele><time>2026-04-29T08:10:39.997Z</time></trkpt><trkpt lat="40.155866566017785" lon="9.152817540651274"><ele>735.5999999999999</ele><time>2026-04-29T08:10:40.997Z</time></trkpt><trkpt lat="40.155785676201255" lon="9.152800728893423"><ele>736.0</ele><time>2026-04-29T08:10:41.997Z</time></trkpt><trkpt lat="40.155686474769624" lon="9.152780193998488"><ele>736.0</ele><time>2026-04-29T08:10:42.997Z</time></trkpt><trkpt lat="40.15557239734078" lon="9.15275823832556"><ele>736.0</ele><time>2026-04-29T08:10:43.997Z</time></trkpt><trkpt lat="40.155463063540154" lon="9.152749956473755"><ele>736.0</ele><time>2026-04-29T08:10:44.997Z</time></trkpt><trkpt lat="40.15535102989992" lon="9.152746912303254"><ele>736.0</ele><time>2026-04-29T08:10:45.997Z</time></trkpt><trkpt lat="40.15523626420674" lon="9.152746707395599"><ele>736.0</ele><time>2026-04-29T08:10:46.997Z</time></trkpt><trkpt lat="40.15511644523953" lon="9.152744650911492"><ele>736.0</ele><time>2026-04-29T08:10:47.997Z</time></trkpt><trkpt lat="40.154993093087754" lon="9.152746919750896"><ele>736.0</ele><time>2026-04-29T08:10:48.997Z</time></trkpt><trkpt lat="40.15487005366788" lon="9.152753623019727"><ele>736.0</ele><time>2026-04-29T08:10:49.997Z</time></trkpt><trkpt lat="40.154742002625014" lon="9.152757892918364"><ele>735.75</ele><time>2026-04-29T08:10:50.997Z</time></trkpt><trkpt lat="40.15461178829473" lon="9.152757014636103"><ele>735.5</ele><time>2026-04-29T08:10:51.997Z</time></trkpt><trkpt lat="40.154489033995695" lon="9.152755369597044"><ele>735.25</ele><time>2026-04-29T08:10:52.997Z</time></trkpt><trkpt lat="40.15436091683977" lon="9.152753087198668"><ele>735.0</ele><time>2026-04-29T08:10:53.997Z</time></trkpt><trkpt lat="40.154228044820115" lon="9.152749822103402"><ele>735.0</ele><time>2026-04-29T08:10:55.013Z</time></trkpt><trkpt lat="40.15409971684852" lon="9.152759568444697"><ele>735.0</ele><time>2026-04-29T08:10:56.013Z</time></trkpt><trkpt lat="40.15396856740356" lon="9.152779633981002"><ele>735.0</ele><time>2026-04-29T08:10:57.013Z</time></trkpt><trkpt lat="40.15383777944496" lon="9.152813114355112"><ele>735.0</ele><time>2026-04-29T08:10:58.013Z</time></trkpt><trkpt lat="40.153703899521744" lon="9.152843119325247"><ele>735.5</ele><time>2026-04-29T08:10:59.013Z</time></trkpt><trkpt lat="40.1535687851093" lon="9.15286250530831"><ele>736.0</ele><time>2026-04-29T08:11:00.013Z</time></trkpt><trkpt lat="40.15342843156973" lon="9.152869361493549"><ele>736.5</ele><time>2026-04-29T08:11:01.013Z</time></trkpt><trkpt lat="40.15329089277575" lon="9.152874194310444"><ele>737.0</ele><time>2026-04-29T08:11:02.013Z</time></trkpt><trkpt lat="40.153147839315125" lon="9.152872517837148"><ele>734.0</ele><time>2026-04-29T08:11:03.013Z</time></trkpt><trkpt lat="40.15300472067226" lon="9.15286696347868"><ele>731.0</ele><time>2026-04-29T08:11:04.013Z</time></trkpt><trkpt lat="40.152860756535844" lon="9.1528556973655"><ele>728.0</ele><time>2026-04-29T08:11:05.013Z</time></trkpt><trkpt lat="40.15271976338509" lon="9.152831174082278"><ele>725.0</ele><time>2026-04-29T08:11:06.013Z</time></trkpt><trkpt lat="40.15257995586856" lon="9.15280809269653"><ele>725.0</ele><time>2026-04-29T08:11:07.013Z</time></trkpt><trkpt lat="40.152440460434" lon="9.152770623242814"><ele>725.0</ele><time>2026-04-29T08:11:08.013Z</time></trkpt><trkpt lat="40.15229592837032" lon="9.152722551850491"><ele>725.0</ele><time>2026-04-29T08:11:09.013Z</time></trkpt><trkpt lat="40.15215730009291" lon="9.15265610725736"><ele>725.0</ele><time>2026-04-29T08:11:10.013Z</time></trkpt><trkpt lat="40.152016751881554" lon="9.152581935554903"><ele>720.0</ele><time>2026-04-29T08:11:11.013Z</time></trkpt><trkpt lat="40.15186877913778" lon="9.15251679615063"><ele>715.0</ele><time>2026-04-29T08:11:12.013Z</time></trkpt><trkpt lat="40.15171983017554" lon="9.152469631305935"><ele>710.0</ele><time>2026-04-29T08:11:13.013Z</time></trkpt><trkpt lat="40.151580216575475" lon="9.152418102794604"><ele>708.0</ele><time>2026-04-29T08:11:14.013Z</time></trkpt><trkpt lat="40.15145511986957" lon="9.152376359904833"><ele>706.0</ele><time>2026-04-29T08:11:15.013Z</time></trkpt><trkpt lat="40.15133388225228" lon="9.15234777725055"><ele>704.0</ele><time>2026-04-29T08:11:16.013Z</time></trkpt><trkpt lat="40.15122429140487" lon="9.15232755100787"><ele>702.0</ele><time>2026-04-29T08:11:17.013Z</time></trkpt><trkpt lat="40.15111512162002" lon="9.152320159310417"><ele>702.0</ele><time>2026-04-29T08:11:18.013Z</time></trkpt><trkpt lat="40.15101097678557" lon="9.152334340579419"><ele>702.0</ele><time>2026-04-29T08:11:19.013Z</time></trkpt><trkpt lat="40.150901056504544" lon="9.152390918709818"><ele>702.0</ele><time>2026-04-29T08:11:20.013Z</time></trkpt><trkpt lat="40.150791137918695" lon="9.152458425062134"><ele>702.0</ele><time>2026-04-29T08:11:21.013Z</time></trkpt><trkpt lat="40.15068151997446" lon="9.152524712515108"><ele>702.4000000000001</ele><time>2026-04-29T08:11:22.013Z</time></trkpt><trkpt lat="40.15058193814678" lon="9.15259746212074"><ele>702.8000000000001</ele><time>2026-04-29T08:11:23.013Z</time></trkpt><trkpt lat="40.15048930472173" lon="9.152659558948088"><ele>703.2</ele><time>2026-04-29T08:11:24.013Z</time></trkpt><trkpt lat="40.15038813928313" lon="9.152718107276648"><ele>703.6</ele><time>2026-04-29T08:11:25.013Z</time></trkpt><trkpt lat="40.15027645192764" lon="9.152760514709279"><ele>704.0</ele><time>2026-04-29T08:11:26.013Z</time></trkpt><trkpt lat="40.1501549670633" lon="9.15278962853882"><ele>704.0</ele><time>2026-04-29T08:11:27.013Z</time></trkpt><trkpt lat="40.15002680310701" lon="9.152811602617849"><ele>704.0</ele><time>2026-04-29T08:11:28.013Z</time></trkpt><trkpt lat="40.14989956053925" lon="9.152833442280558"><ele>704.0</ele><time>2026-04-29T08:11:29.013Z</time></trkpt><trkpt lat="40.14976615246221" lon="9.152856676044792"><ele>704.0</ele><time>2026-04-29T08:11:30.013Z</time></trkpt><trkpt lat="40.149624996699664" lon="9.152880140936794"><ele>704.6666666666666</ele><time>2026-04-29T08:11:31.013Z</time></trkpt><trkpt lat="40.14947877280244" lon="9.152897940946252"><ele>705.3333333333334</ele><time>2026-04-29T08:11:32.013Z</time></trkpt><trkpt lat="40.149321500434255" lon="9.15292392946924"><ele>706.0</ele><time>2026-04-29T08:11:33.013Z</time></trkpt><trkpt lat="40.14916846508913" lon="9.152952391969318"><ele>706.0</ele><time>2026-04-29T08:11:34.013Z</time></trkpt><trkpt lat="40.14901236364587" lon="9.152985181363574"><ele>706.0</ele><time>2026-04-29T08:11:35.013Z</time></trkpt><trkpt lat="40.1488504249918" lon="9.153012456372837"><ele>706.0</ele><time>2026-04-29T08:11:36.013Z</time></trkpt><trkpt lat="40.14868712430105" lon="9.1530405809266"><ele>706.0</ele><time>2026-04-29T08:11:37.013Z</time></trkpt><trkpt lat="40.14853399663094" lon="9.15306613984927"><ele>706.0</ele><time>2026-04-29T08:11:38.013Z</time></trkpt><trkpt lat="40.14839399190589" lon="9.153092205849882"><ele>706.0</ele><time>2026-04-29T08:11:39.013Z</time></trkpt><trkpt lat="40.14825592192608" lon="9.15312597017856"><ele>706.0</ele><time>2026-04-29T08:11:40.013Z</time></trkpt><trkpt lat="40.1481213545529" lon="9.15316709731983"><ele>700.75</ele><time>2026-04-29T08:11:41.013Z</time></trkpt><trkpt lat="40.147992330100024" lon="9.153209924593401"><ele>695.5</ele><time>2026-04-29T08:11:42.015Z</time></trkpt><trkpt lat="40.14787165398483" lon="9.153266144126288"><ele>690.25</ele><time>2026-04-29T08:11:43.016Z</time></trkpt><trkpt lat="40.14775379738352" lon="9.153344144398375"><ele>685.0</ele><time>2026-04-29T08:11:44.016Z</time></trkpt><trkpt lat="40.14763742947585" lon="9.153416457508317"><ele>685.0</ele><time>2026-04-29T08:11:45.016Z</time></trkpt><trkpt lat="40.147517267776934" lon="9.15349649511007"><ele>685.0</ele><time>2026-04-29T08:11:46.015Z</time></trkpt><trkpt lat="40.147383209527305" lon="9.153590533879635"><ele>685.0</ele><time>2026-04-29T08:11:47.015Z</time></trkpt><trkpt lat="40.147251359956904" lon="9.153690947818152"><ele>685.0</ele><time>2026-04-29T08:11:48.016Z</time></trkpt><trkpt lat="40.147116984348" lon="9.153817469271766"><ele>681.3333333333334</ele><time>2026-04-29T08:11:49.015Z</time></trkpt><trkpt lat="40.14698731776851" lon="9.153942025620589"><ele>677.6666666666666</ele><time>2026-04-29T08:11:50.015Z</time></trkpt><trkpt lat="40.146844590714934" lon="9.154066686326066"><ele>674.0</ele><time>2026-04-29T08:11:51.015Z</time></trkpt><trkpt lat="40.14670651560929" lon="9.15419471439937"><ele>674.0</ele><time>2026-04-29T08:11:52.015Z</time></trkpt><trkpt lat="40.14657700642586" lon="9.154320405896222"><ele>674.0</ele><time>2026-04-29T08:11:53.015Z</time></trkpt><trkpt lat="40.146455347565734" lon="9.154451564641983"><ele>674.0</ele><time>2026-04-29T08:11:54.016Z</time></trkpt><trkpt lat="40.146339371770225" lon="9.154586048251518"><ele>677.0</ele><time>2026-04-29T08:11:55.015Z</time></trkpt><trkpt lat="40.14623375767734" lon="9.15471298595171"><ele>680.0</ele><time>2026-04-29T08:11:56.015Z</time></trkpt><trkpt lat="40.14612417107963" lon="9.154836063246083"><ele>683.0</ele><time>2026-04-29T08:11:57.015Z</time></trkpt><trkpt lat="40.14602979979649" lon="9.15494199558276"><ele>686.0</ele><time>2026-04-29T08:11:58.015Z</time></trkpt><trkpt lat="40.14592405062176" lon="9.15504355919746"><ele>679.0</ele><time>2026-04-29T08:11:59.015Z</time></trkpt><trkpt lat="40.14581092549853" lon="9.155102140782244"><ele>672.0</ele><time>2026-04-29T08:12:00.015Z</time></trkpt><trkpt lat="40.14568596841286" lon="9.15512763340689"><ele>665.0</ele><time>2026-04-29T08:12:01.015Z</time></trkpt><trkpt lat="40.145548038930265" lon="9.15514007491246"><ele>658.0</ele><time>2026-04-29T08:12:02.015Z</time></trkpt><trkpt lat="40.145419693166744" lon="9.155133621785748"><ele>656.5</ele><time>2026-04-29T08:12:03.015Z</time></trkpt><trkpt lat="40.1452908464915" lon="9.155121951557426"><ele>655.0</ele><time>2026-04-29T08:12:04.015Z</time></trkpt><trkpt lat="40.14516349711619" lon="9.155104884568994"><ele>653.5</ele><time>2026-04-29T08:12:05.015Z</time></trkpt><trkpt lat="40.14502882236161" lon="9.15507579765965"><ele>652.0</ele><time>2026-04-29T08:12:06.015Z</time></trkpt><trkpt lat="40.144895416998196" lon="9.155031030634136"><ele>654.5</ele><time>2026-04-29T08:12:07.015Z</time></trkpt><trkpt lat="40.14476568703109" lon="9.15497756954886"><ele>657.0</ele><time>2026-04-29T08:12:08.015Z</time></trkpt><trkpt lat="40.14463541040494" lon="9.154902951408054"><ele>659.5</ele><time>2026-04-29T08:12:09.015Z</time></trkpt><trkpt lat="40.144501076997095" lon="9.154823634934363"><ele>662.0</ele><time>2026-04-29T08:12:10.015Z</time></trkpt><trkpt lat="40.14436439481282" lon="9.154771023370932"><ele>662.0</ele><time>2026-04-29T08:12:11.015Z</time></trkpt><trkpt lat="40.14422525597571" lon="9.154745621424588"><ele>662.0</ele><time>2026-04-29T08:12:12.015Z</time></trkpt><trkpt lat="40.144097447964086" lon="9.154721642970914"><ele>662.0</ele><time>2026-04-29T08:12:13.015Z</time></trkpt><trkpt lat="40.143966352389455" lon="9.154689215360273"><ele>662.0</ele><time>2026-04-29T08:12:14.015Z</time></trkpt><trkpt lat="40.14385630621333" lon="9.154634616099207"><ele>657.0</ele><time>2026-04-29T08:12:15.015Z</time></trkpt><trkpt lat="40.1437579371658" lon="9.154519535380286"><ele>652.0</ele><time>2026-04-29T08:12:16.015Z</time></trkpt><trkpt lat="40.143662630091974" lon="9.15439068777782"><ele>647.0</ele><time>2026-04-29T08:12:17.015Z</time></trkpt><trkpt lat="40.14356645611804" lon="9.154279064510416"><ele>642.0</ele><time>2026-04-29T08:12:18.015Z</time></trkpt><trkpt lat="40.14347047248733" lon="9.154232469464056"><ele>642.0</ele><time>2026-04-29T08:12:19.015Z</time></trkpt><trkpt lat="40.14335265505726" lon="9.154195113271726"><ele>642.0</ele><time>2026-04-29T08:12:20.015Z</time></trkpt><trkpt lat="40.143225870607985" lon="9.154184283732157"><ele>642.0</ele><time>2026-04-29T08:12:21.015Z</time></trkpt><trkpt lat="40.143113203526575" lon="9.154190732187363"><ele>642.0</ele><time>2026-04-29T08:12:22.015Z</time></trkpt><trkpt lat="40.143026237401756" lon="9.15416474916304"><ele>640.6</ele><time>2026-04-29T08:12:23.015Z</time></trkpt><trkpt lat="40.14294955391367" lon="9.154099776406706"><ele>639.2</ele><time>2026-04-29T08:12:24.015Z</time></trkpt><trkpt lat="40.1428772800405" lon="9.154001224241865"><ele>637.8</ele><time>2026-04-29T08:12:25.015Z</time></trkpt><trkpt lat="40.142800532836986" lon="9.15388828589264"><ele>636.4</ele><time>2026-04-29T08:12:26.015Z</time></trkpt><trkpt lat="40.14271532792254" lon="9.153782576104712"><ele>635.0</ele><time>2026-04-29T08:12:27.015Z</time></trkpt><trkpt lat="40.14263815928318" lon="9.153664650715756"><ele>635.0</ele><time>2026-04-29T08:12:28.015Z</time></trkpt><trkpt lat="40.14255224496446" lon="9.1535426833479"><ele>635.0</ele><time>2026-04-29T08:12:29.015Z</time></trkpt><trkpt lat="40.14245636049508" lon="9.153428270777598"><ele>635.0</ele><time>2026-04-29T08:12:30.015Z</time></trkpt><trkpt lat="40.142367624469436" lon="9.153310044494509"><ele>635.0</ele><time>2026-04-29T08:12:31.015Z</time></trkpt><trkpt lat="40.1422772749998" lon="9.153196204863361"><ele>634.0</ele><time>2026-04-29T08:12:32.015Z</time></trkpt><trkpt lat="40.14218118508657" lon="9.15308181160808"><ele>633.0</ele><time>2026-04-29T08:12:33.015Z</time></trkpt><trkpt lat="40.14209007893233" lon="9.152979980150945"><ele>632.0</ele><time>2026-04-29T08:12:34.015Z</time></trkpt><trkpt lat="40.142005398402" lon="9.15287869846615"><ele>631.0</ele><time>2026-04-29T08:12:35.015Z</time></trkpt><trkpt lat="40.14192153647548" lon="9.152786482504865"><ele>631.0</ele><time>2026-04-29T08:12:36.015Z</time></trkpt><trkpt lat="40.14184459045063" lon="9.15271679519994"><ele>631.0</ele><time>2026-04-29T08:12:37.015Z</time></trkpt><trkpt lat="40.14173954316373" lon="9.152678324332408"><ele>631.0</ele><time>2026-04-29T08:12:38.015Z</time></trkpt><trkpt lat="40.14161889732091" lon="9.152674369410102"><ele>631.0</ele><time>2026-04-29T08:12:39.015Z</time></trkpt><trkpt lat="40.141501686446084" lon="9.152685440505866"><ele>631.0</ele><time>2026-04-29T08:12:40.015Z</time></trkpt><trkpt lat="40.14138047927808" lon="9.152687475384829"><ele>627.5</ele><time>2026-04-29T08:12:41.015Z</time></trkpt><trkpt lat="40.14126304896286" lon="9.152687486548563"><ele>624.0</ele><time>2026-04-29T08:12:42.015Z</time></trkpt><trkpt lat="40.14114504185288" lon="9.15269801049013"><ele>620.5</ele><time>2026-04-29T08:12:43.015Z</time></trkpt><trkpt lat="40.141028274513125" lon="9.152711806435471"><ele>617.0</ele><time>2026-04-29T08:12:44.015Z</time></trkpt><trkpt lat="40.14091584324585" lon="9.15271377345645"><ele>617.0</ele><time>2026-04-29T08:12:45.015Z</time></trkpt><trkpt lat="40.1407967248736" lon="9.15269553224239"><ele>617.0</ele><time>2026-04-29T08:12:46.015Z</time></trkpt><trkpt lat="40.14068118695501" lon="9.152646991079838"><ele>617.0</ele><time>2026-04-29T08:12:47.015Z</time></trkpt><trkpt lat="40.14056571326842" lon="9.152585560886488"><ele>617.0</ele><time>2026-04-29T08:12:48.015Z</time></trkpt><trkpt lat="40.140456209647766" lon="9.152513113891143"><ele>612.8000000000001</ele><time>2026-04-29T08:12:49.015Z</time></trkpt><trkpt lat="40.140340698867675" lon="9.152446606992585"><ele>608.6</ele><time>2026-04-29T08:12:50.015Z</time></trkpt><trkpt lat="40.14025105824277" lon="9.152377522913115"><ele>604.4000000000001</ele><time>2026-04-29T08:12:51.015Z</time></trkpt><trkpt lat="40.14018548923118" lon="9.152295850749043"><ele>600.2</ele><time>2026-04-29T08:12:52.015Z</time></trkpt><trkpt lat="40.14014568896972" lon="9.152184957149933"><ele>596.0</ele><time>2026-04-29T08:12:53.015Z</time></trkpt><trkpt lat="40.14013094708906" lon="9.15206261112677"><ele>596.0</ele><time>2026-04-29T08:12:54.015Z</time></trkpt><trkpt lat="40.14015401014393" lon="9.151933298526608"><ele>596.0</ele><time>2026-04-29T08:12:55.015Z</time></trkpt><trkpt lat="40.14018555422445" lon="9.151802556349248"><ele>596.0</ele><time>2026-04-29T08:12:56.015Z</time></trkpt><trkpt lat="40.14021288540198" lon="9.151662871009552"><ele>596.0</ele><time>2026-04-29T08:12:57.015Z</time></trkpt><trkpt lat="40.14024245753388" lon="9.151519589403893"><ele>596.0</ele><time>2026-04-29T08:12:58.015Z</time></trkpt><trkpt lat="40.140277646825965" lon="9.151368335270785"><ele>591.25</ele><time>2026-04-29T08:12:59.015Z</time></trkpt><trkpt lat="40.14032221683418" lon="9.15121476883019"><ele>586.5</ele><time>2026-04-29T08:13:00.015Z</time></trkpt><trkpt lat="40.140364168157" lon="9.151057848321896"><ele>581.75</ele><time>2026-04-29T08:13:01.015Z</time></trkpt><trkpt lat="40.14040841091181" lon="9.150895380371532"><ele>577.0</ele><time>2026-04-29T08:13:02.015Z</time></trkpt><trkpt lat="40.14045643327595" lon="9.15074532546742"><ele>571.75</ele><time>2026-04-29T08:13:03.015Z</time></trkpt><trkpt lat="40.140512660679995" lon="9.150597821545466"><ele>566.5</ele><time>2026-04-29T08:13:04.015Z</time></trkpt><trkpt lat="40.14056830304139" lon="9.15045116655196"><ele>561.25</ele><time>2026-04-29T08:13:05.015Z</time></trkpt><trkpt lat="40.1406206626322" lon="9.150294790162185"><ele>556.0</ele><time>2026-04-29T08:13:06.015Z</time></trkpt><trkpt lat="40.14066415710942" lon="9.15013917850821"><ele>556.0</ele><time>2026-04-29T08:13:07.015Z</time></trkpt><trkpt lat="40.14070560186203" lon="9.149994840587981"><ele>556.0</ele><time>2026-04-29T08:13:08.015Z</time></trkpt><trkpt lat="40.14073903003176" lon="9.14987380551879"><ele>556.0</ele><time>2026-04-29T08:13:09.015Z</time></trkpt><trkpt lat="40.1407535458406" lon="9.149740210051526"><ele>556.0</ele><time>2026-04-29T08:13:10.015Z</time></trkpt><trkpt lat="40.140748058489834" lon="9.149601403943375"><ele>556.0</ele><time>2026-04-29T08:13:11.015Z</time></trkpt><trkpt lat="40.140723403160834" lon="9.149465394620824"><ele>555.5</ele><time>2026-04-29T08:13:12.015Z</time></trkpt><trkpt lat="40.14068787335089" lon="9.14932655987652"><ele>555.0</ele><time>2026-04-29T08:13:13.015Z</time></trkpt><trkpt lat="40.140634835774364" lon="9.149182096228907"><ele>554.5</ele><time>2026-04-29T08:13:14.015Z</time></trkpt><trkpt lat="40.14057402095055" lon="9.149045633241498"><ele>554.0</ele><time>2026-04-29T08:13:15.015Z</time></trkpt><trkpt lat="40.140502678925806" lon="9.148922203329704"><ele>554.6666666666666</ele><time>2026-04-29T08:13:16.015Z</time></trkpt><trkpt lat="40.14042933177769" lon="9.148811170443757"><ele>555.3333333333333</ele><time>2026-04-29T08:13:17.015Z</time></trkpt><trkpt lat="40.14037567918418" lon="9.148724264973087"><ele>556.0</ele><time>2026-04-29T08:13:18.015Z</time></trkpt><trkpt lat="40.14033647362596" lon="9.14864447656214"><ele>556.6666666666666</ele><time>2026-04-29T08:13:19.015Z</time></trkpt><trkpt lat="40.14031722933273" lon="9.148546796599735"><ele>557.3333333333334</ele><time>2026-04-29T08:13:20.015Z</time></trkpt><trkpt lat="40.14029725828467" lon="9.148424755922544"><ele>558.0</ele><time>2026-04-29T08:13:21.015Z</time></trkpt><trkpt lat="40.14027463573327" lon="9.148298076897794"><ele>559.8</ele><time>2026-04-29T08:13:22.015Z</time></trkpt><trkpt lat="40.14023512217607" lon="9.148176816668226"><ele>561.5999999999999</ele><time>2026-04-29T08:13:23.015Z</time></trkpt><trkpt lat="40.14019242603775" lon="9.148046571863807"><ele>563.4000000000001</ele><time>2026-04-29T08:13:24.015Z</time></trkpt><trkpt lat="40.140140059138076" lon="9.147914823252357"><ele>565.2</ele><time>2026-04-29T08:13:25.015Z</time></trkpt><trkpt lat="40.140075085647254" lon="9.14778220912926"><ele>567.0</ele><time>2026-04-29T08:13:26.015Z</time></trkpt><trkpt lat="40.1400105844088" lon="9.147650462521746"><ele>567.0</ele><time>2026-04-29T08:13:27.015Z</time></trkpt><trkpt lat="40.139948347265566" lon="9.147513973430927"><ele>567.0</ele><time>2026-04-29T08:13:28.015Z</time></trkpt><trkpt lat="40.13989218883831" lon="9.147379184286258"><ele>567.0</ele><time>2026-04-29T08:13:29.015Z</time></trkpt><trkpt lat="40.13984645326126" lon="9.147236104289878"><ele>567.0</ele><time>2026-04-29T08:13:30.015Z</time></trkpt><trkpt lat="40.13982462928793" lon="9.147078589386823"><ele>557.75</ele><time>2026-04-29T08:13:31.015Z</time></trkpt><trkpt lat="40.139808840371046" lon="9.146923574774636"><ele>548.5</ele><time>2026-04-29T08:13:32.015Z</time></trkpt><trkpt lat="40.139799940524846" lon="9.14676040922313"><ele>539.25</ele><time>2026-04-29T08:13:33.015Z</time></trkpt><trkpt lat="40.13978641361168" lon="9.146602851316478"><ele>530.0</ele><time>2026-04-29T08:13:34.015Z</time></trkpt><trkpt lat="40.13978421591102" lon="9.146444154530874"><ele>530.0</ele><time>2026-04-29T08:13:35.015Z</time></trkpt><trkpt lat="40.13978871362003" lon="9.146294967815143"><ele>530.0</ele><time>2026-04-29T08:13:36.015Z</time></trkpt><trkpt lat="40.13979861154603" lon="9.146154920383115"><ele>530.0</ele><time>2026-04-29T08:13:37.015Z</time></trkpt><trkpt lat="40.13982760691663" lon="9.14602643108993"><ele>530.0</ele><time>2026-04-29T08:13:38.015Z</time></trkpt><trkpt lat="40.13986719206857" lon="9.145909540542913"><ele>530.0</ele><time>2026-04-29T08:13:39.015Z</time></trkpt><trkpt lat="40.13991473431826" lon="9.145805696502428"><ele>532.8</ele><time>2026-04-29T08:13:40.015Z</time></trkpt><trkpt lat="40.139976146382665" lon="9.145704832453202"><ele>535.6</ele><time>2026-04-29T08:13:41.015Z</time></trkpt><trkpt lat="40.14004632754766" lon="9.14561126896032"><ele>538.4</ele><time>2026-04-29T08:13:42.015Z</time></trkpt><trkpt lat="40.14012834152368" lon="9.145524316789189"><ele>541.2</ele><time>2026-04-29T08:13:43.015Z</time></trkpt><trkpt lat="40.14022340803499" lon="9.145455640935475"><ele>544.0</ele><time>2026-04-29T08:13:44.015Z</time></trkpt><trkpt lat="40.140329816212045" lon="9.145399877680408"><ele>544.0</ele><time>2026-04-29T08:13:45.015Z</time></trkpt><trkpt lat="40.14043660701204" lon="9.145361504317528"><ele>544.0</ele><time>2026-04-29T08:13:46.015Z</time></trkpt><trkpt lat="40.14054141727336" lon="9.145319542419958"><ele>544.0</ele><time>2026-04-29T08:13:47.015Z</time></trkpt><trkpt lat="40.140658200389694" lon="9.145311033052513"><ele>544.0</ele><time>2026-04-29T08:13:48.017Z</time></trkpt><trkpt lat="40.140770343300495" lon="9.145303397770421"><ele>545.0</ele><time>2026-04-29T08:13:49.017Z</time></trkpt><trkpt lat="40.14086829130081" lon="9.14530485396814"><ele>546.0</ele><time>2026-04-29T08:13:50.017Z</time></trkpt><trkpt lat="40.140963331449626" lon="9.14532198954953"><ele>547.0</ele><time>2026-04-29T08:13:51.017Z</time></trkpt><trkpt lat="40.14106700441043" lon="9.145348924794817"><ele>548.0</ele><time>2026-04-29T08:13:52.017Z</time></trkpt><trkpt lat="40.14118143421931" lon="9.145382181824571"><ele>549.0</ele><time>2026-04-29T08:13:53.017Z</time></trkpt><trkpt lat="40.141304162245994" lon="9.145404629361925"><ele>549.0</ele><time>2026-04-29T08:13:54.017Z</time></trkpt><trkpt lat="40.14143148816727" lon="9.14541113686031"><ele>549.0</ele><time>2026-04-29T08:13:55.017Z</time></trkpt><trkpt lat="40.14155682119502" lon="9.145415930030783"><ele>549.0</ele><time>2026-04-29T08:13:56.017Z</time></trkpt><trkpt lat="40.14169071138505" lon="9.145431883448852"><ele>549.0</ele><time>2026-04-29T08:13:57.017Z</time></trkpt><trkpt lat="40.14181918997571" lon="9.145457419342126"><ele>545.25</ele><time>2026-04-29T08:13:58.017Z</time></trkpt><trkpt lat="40.14194442652192" lon="9.145477614587271"><ele>541.5</ele><time>2026-04-29T08:13:59.017Z</time></trkpt><trkpt lat="40.142063595320955" lon="9.145495277682503"><ele>537.75</ele><time>2026-04-29T08:14:00.017Z</time></trkpt><trkpt lat="40.14219171746253" lon="9.145507022097108"><ele>534.0</ele><time>2026-04-29T08:14:01.017Z</time></trkpt><trkpt lat="40.14231098585818" lon="9.14550362361961"><ele>533.0</ele><time>2026-04-29T08:14:02.017Z</time></trkpt><trkpt lat="40.142421274280764" lon="9.145484490909924"><ele>532.0</ele><time>2026-04-29T08:14:03.017Z</time></trkpt><trkpt lat="40.14252253670341" lon="9.145457672414219"><ele>531.0</ele><time>2026-04-29T08:14:04.017Z</time></trkpt><trkpt lat="40.14260701330848" lon="9.145375498865985"><ele>530.0</ele><time>2026-04-29T08:14:05.017Z</time></trkpt><trkpt lat="40.142685564937814" lon="9.145268065901556"><ele>529.0</ele><time>2026-04-29T08:14:06.017Z</time></trkpt><trkpt lat="40.14276971044822" lon="9.14514928822378"><ele>529.0</ele><time>2026-04-29T08:14:07.017Z</time></trkpt><trkpt lat="40.142861437489984" lon="9.145034561835065"><ele>529.0</ele><time>2026-04-29T08:14:08.017Z</time></trkpt><trkpt lat="40.14295956189076" lon="9.14492389675441"><ele>529.0</ele><time>2026-04-29T08:14:09.017Z</time></trkpt><trkpt lat="40.14305876316082" lon="9.14480100071255"><ele>529.0</ele><time>2026-04-29T08:14:10.017Z</time></trkpt><trkpt lat="40.14316359797708" lon="9.144681784945616"><ele>526.25</ele><time>2026-04-29T08:14:11.017Z</time></trkpt><trkpt lat="40.14326764874826" lon="9.14455935505703"><ele>523.5</ele><time>2026-04-29T08:14:12.017Z</time></trkpt><trkpt lat="40.14336581188327" lon="9.144445642008295"><ele>520.75</ele><time>2026-04-29T08:14:13.017Z</time></trkpt><trkpt lat="40.1434675594262" lon="9.14432849377963"><ele>518.0</ele><time>2026-04-29T08:14:14.017Z</time></trkpt><trkpt lat="40.14356829364756" lon="9.14420343896548"><ele>518.0</ele><time>2026-04-29T08:14:15.017Z</time></trkpt><trkpt lat="40.14367188121095" lon="9.144077297592213"><ele>518.0</ele><time>2026-04-29T08:14:16.017Z</time></trkpt><trkpt lat="40.14377014549494" lon="9.143952984458696"><ele>518.0</ele><time>2026-04-29T08:14:17.017Z</time></trkpt><trkpt lat="40.14386892773296" lon="9.143841925012604"><ele>518.0</ele><time>2026-04-29T08:14:18.017Z</time></trkpt><trkpt lat="40.14396253612158" lon="9.143729370182765"><ele>515.25</ele><time>2026-04-29T08:14:19.017Z</time></trkpt><trkpt lat="40.144069054771535" lon="9.143641064196856"><ele>512.5</ele><time>2026-04-29T08:14:20.017Z</time></trkpt><trkpt lat="40.144189556966445" lon="9.143556401544005"><ele>509.75</ele><time>2026-04-29T08:14:21.017Z</time></trkpt><trkpt lat="40.14431615829591" lon="9.14346860530981"><ele>507.0</ele><time>2026-04-29T08:14:22.017Z</time></trkpt><trkpt lat="40.14444447383347" lon="9.143386189041122"><ele>507.0</ele><time>2026-04-29T08:14:23.017Z</time></trkpt><trkpt lat="40.14457719810518" lon="9.143297515550437"><ele>507.0</ele><time>2026-04-29T08:14:24.017Z</time></trkpt><trkpt lat="40.14470522852819" lon="9.143207941284796"><ele>507.0</ele><time>2026-04-29T08:14:25.017Z</time></trkpt><trkpt lat="40.144825935132644" lon="9.143117782243573"><ele>507.0</ele><time>2026-04-29T08:14:26.017Z</time></trkpt><trkpt lat="40.14494039345127" lon="9.143033250184766"><ele>505.0</ele><time>2026-04-29T08:14:27.017Z</time></trkpt><trkpt lat="40.14505210552151" lon="9.142946075156907"><ele>503.0</ele><time>2026-04-29T08:14:28.017Z</time></trkpt><trkpt lat="40.14515253108693" lon="9.14284826568595"><ele>501.0</ele><time>2026-04-29T08:14:29.017Z</time></trkpt><trkpt lat="40.14523692077459" lon="9.142734097211314"><ele>499.0</ele><time>2026-04-29T08:14:30.017Z</time></trkpt><trkpt lat="40.14530634307681" lon="9.14260404615715"><ele>499.0</ele><time>2026-04-29T08:14:31.017Z</time></trkpt><trkpt lat="40.14536460429764" lon="9.142453369441084"><ele>499.0</ele><time>2026-04-29T08:14:32.017Z</time></trkpt><trkpt lat="40.1454071862129" lon="9.142292458165896"><ele>499.0</ele><time>2026-04-29T08:14:33.017Z</time></trkpt><trkpt lat="40.14543858468939" lon="9.142120289031471"><ele>499.0</ele><time>2026-04-29T08:14:34.017Z</time></trkpt><trkpt lat="40.14547009736004" lon="9.141952769873335"><ele>497.0</ele><time>2026-04-29T08:14:35.017Z</time></trkpt><trkpt lat="40.145504567930324" lon="9.14178725401603"><ele>495.0</ele><time>2026-04-29T08:14:36.017Z</time></trkpt><trkpt lat="40.14553520443054" lon="9.141627266357965"><ele>493.0</ele><time>2026-04-29T08:14:37.017Z</time></trkpt><trkpt lat="40.14556288429711" lon="9.141472580730442"><ele>491.0</ele><time>2026-04-29T08:14:38.017Z</time></trkpt><trkpt lat="40.14557450036506" lon="9.141342279710914"><ele>490.3333333333333</ele><time>2026-04-29T08:14:39.017Z</time></trkpt><trkpt lat="40.14557025869195" lon="9.141236490970801"><ele>489.66666666666663</ele><time>2026-04-29T08:14:40.017Z</time></trkpt><trkpt lat="40.14554578370029" lon="9.141149801825602"><ele>489.0</ele><time>2026-04-29T08:14:41.017Z</time></trkpt><trkpt lat="40.1454954674669" lon="9.14108954828084"><ele>488.33333333333337</ele><time>2026-04-29T08:14:42.017Z</time></trkpt><trkpt lat="40.14542766646606" lon="9.141045107544679"><ele>487.6666666666667</ele><time>2026-04-29T08:14:43.017Z</time></trkpt><trkpt lat="40.14534012065333" lon="9.141038407671433"><ele>487.0</ele><time>2026-04-29T08:14:44.017Z</time></trkpt><trkpt lat="40.14523904540617" lon="9.141051067530974"><ele>487.0</ele><time>2026-04-29T08:14:45.016Z</time></trkpt><trkpt lat="40.14513916241435" lon="9.141089593915773"><ele>487.0</ele><time>2026-04-29T08:14:46.016Z</time></trkpt><trkpt lat="40.14503270115737" lon="9.141138859425553"><ele>487.0</ele><time>2026-04-29T08:14:47.016Z</time></trkpt><trkpt lat="40.14492375679302" lon="9.141199407966528"><ele>487.0</ele><time>2026-04-29T08:14:48.016Z</time></trkpt><trkpt lat="40.14481309105312" lon="9.14126917657633"><ele>483.5</ele><time>2026-04-29T08:14:49.016Z</time></trkpt><trkpt lat="40.14470005187372" lon="9.14133602437598"><ele>480.0</ele><time>2026-04-29T08:14:50.016Z</time></trkpt><trkpt lat="40.144585637408525" lon="9.141410432307525"><ele>476.5</ele><time>2026-04-29T08:14:51.016Z</time></trkpt><trkpt lat="40.144468419585" lon="9.141472348986849"><ele>473.0</ele><time>2026-04-29T08:14:52.016Z</time></trkpt><trkpt lat="40.14434863349551" lon="9.14153711777569"><ele>473.75</ele><time>2026-04-29T08:14:53.016Z</time></trkpt><trkpt lat="40.144234777932844" lon="9.141593084025976"><ele>474.5</ele><time>2026-04-29T08:14:54.016Z</time></trkpt><trkpt lat="40.14412831044029" lon="9.14165954725725"><ele>475.25</ele><time>2026-04-29T08:14:55.016Z</time></trkpt><trkpt lat="40.1440051489026" lon="9.141704786789354"><ele>476.0</ele><time>2026-04-29T08:14:56.016Z</time></trkpt><trkpt lat="40.14389824576862" lon="9.141728717834242"><ele>474.16666666666663</ele><time>2026-04-29T08:14:57.016Z</time></trkpt><trkpt lat="40.14381192654158" lon="9.141740049452366"><ele>472.3333333333333</ele><time>2026-04-29T08:14:58.016Z</time></trkpt><trkpt lat="40.14373188232724" lon="9.141704054305519"><ele>470.5</ele><time>2026-04-29T08:14:59.016Z</time></trkpt><trkpt lat="40.143666968668676" lon="9.14163508827421"><ele>468.66666666666663</ele><time>2026-04-29T08:15:00.016Z</time></trkpt><trkpt lat="40.14361978331889" lon="9.141551239919007"><ele>466.8333333333333</ele><time>2026-04-29T08:15:01.016Z</time></trkpt><trkpt lat="40.143584832198734" lon="9.141441584571774"><ele>465.0</ele><time>2026-04-29T08:15:02.016Z</time></trkpt><trkpt lat="40.14355908352664" lon="9.141319855556931"><ele>463.75</ele><time>2026-04-29T08:15:03.016Z</time></trkpt><trkpt lat="40.14354213774905" lon="9.141184527337971"><ele>462.5</ele><time>2026-04-29T08:15:04.016Z</time></trkpt><trkpt lat="40.14352988923252" lon="9.141035489034401"><ele>461.25</ele><time>2026-04-29T08:15:05.016Z</time></trkpt><trkpt lat="40.14352129356665" lon="9.14088173411898"><ele>460.0</ele><time>2026-04-29T08:15:06.016Z</time></trkpt><trkpt lat="40.143514078327826" lon="9.140725001872692"><ele>459.5</ele><time>2026-04-29T08:15:07.016Z</time></trkpt><trkpt lat="40.14351064368705" lon="9.140562722717227"><ele>459.0</ele><time>2026-04-29T08:15:08.016Z</time></trkpt><trkpt lat="40.14351255302275" lon="9.140403675154886"><ele>458.5</ele><time>2026-04-29T08:15:09.016Z</time></trkpt><trkpt lat="40.1435250153201" lon="9.1402510812345"><ele>458.0</ele><time>2026-04-29T08:15:10.016Z</time></trkpt><trkpt lat="40.14354207100573" lon="9.140107341231603"><ele>458.0</ele><time>2026-04-29T08:15:11.016Z</time></trkpt><trkpt lat="40.14357260048441" lon="9.13997350703928"><ele>457.99999999999994</ele><time>2026-04-29T08:15:12.016Z</time></trkpt><trkpt lat="40.143630781383806" lon="9.139850417672822"><ele>457.99999999999994</ele><time>2026-04-29T08:15:13.016Z</time></trkpt><trkpt lat="40.14370977834077" lon="9.139752725869094"><ele>458.0</ele><time>2026-04-29T08:15:14.016Z</time></trkpt><trkpt lat="40.14380590322166" lon="9.139660600813588"><ele>458.0</ele><time>2026-04-29T08:15:15.016Z</time></trkpt><trkpt lat="40.14388123483432" lon="9.139566545543671"><ele>460.0</ele><time>2026-04-29T08:15:16.016Z</time></trkpt><trkpt lat="40.14396548310917" lon="9.13946242602893"><ele>461.99999999999994</ele><time>2026-04-29T08:15:17.016Z</time></trkpt><trkpt lat="40.14404556666093" lon="9.139356554862115"><ele>463.99999999999994</ele><time>2026-04-29T08:15:18.016Z</time></trkpt><trkpt lat="40.14412202926858" lon="9.139253036479925"><ele>466.0</ele><time>2026-04-29T08:15:19.016Z</time></trkpt><trkpt lat="40.1441937002237" lon="9.139162860633041"><ele>468.0</ele><time>2026-04-29T08:15:20.016Z</time></trkpt><trkpt lat="40.144256701498925" lon="9.139087194832307"><ele>467.6666666666667</ele><time>2026-04-29T08:15:21.016Z</time></trkpt><trkpt lat="40.144309130780826" lon="9.139025641659726"><ele>467.33333333333337</ele><time>2026-04-29T08:15:22.016Z</time></trkpt><trkpt lat="40.14438906713389" lon="9.138939430073254"><ele>467.0</ele><time>2026-04-29T08:15:24.016Z</time></trkpt><trkpt lat="40.14443010141198" lon="9.138851358238037"><ele>466.6666666666667</ele><time>2026-04-29T08:15:27.016Z</time></trkpt><trkpt lat="40.14439197007811" lon="9.138781253631397"><ele>466.33333333333337</ele><time>2026-04-29T08:15:30.016Z</time></trkpt><trkpt lat="40.144290314722646" lon="9.138833738850964"><ele>466.0</ele><time>2026-04-29T08:15:32.016Z</time></trkpt><trkpt lat="40.144231425428345" lon="9.138913258700503"><ele>466.0</ele><time>2026-04-29T08:15:33.016Z</time></trkpt><trkpt lat="40.14415509128085" lon="9.139000241249837"><ele>466.0</ele><time>2026-04-29T08:15:34.016Z</time></trkpt><trkpt lat="40.14407186608848" lon="9.139091190106594"><ele>466.0</ele><time>2026-04-29T08:15:35.016Z</time></trkpt><trkpt lat="40.14398428014778" lon="9.139186420995173"><ele>466.0</ele><time>2026-04-29T08:15:36.016Z</time></trkpt><trkpt lat="40.1438859206257" lon="9.139288005224454"><ele>466.0</ele><time>2026-04-29T08:15:37.016Z</time></trkpt><trkpt lat="40.143782299243824" lon="9.139404408724708"><ele>466.5</ele><time>2026-04-29T08:15:38.016Z</time></trkpt><trkpt lat="40.14367133759856" lon="9.139528906137436"><ele>467.0</ele><time>2026-04-29T08:15:39.016Z</time></trkpt><trkpt lat="40.14356249494905" lon="9.13964078930124"><ele>467.5</ele><time>2026-04-29T08:15:40.016Z</time></trkpt><trkpt lat="40.14345423692776" lon="9.139755977125645"><ele>468.0</ele><time>2026-04-29T08:15:41.016Z</time></trkpt><trkpt lat="40.14334797412487" lon="9.139868958377445"><ele>465.5</ele><time>2026-04-29T08:15:42.016Z</time></trkpt><trkpt lat="40.14324881574991" lon="9.13997597950146"><ele>463.0</ele><time>2026-04-29T08:15:43.016Z</time></trkpt><trkpt lat="40.14315660815724" lon="9.140068529168587"><ele>460.5</ele><time>2026-04-29T08:15:44.016Z</time></trkpt><trkpt lat="40.14304831785587" lon="9.140135903521848"><ele>458.0</ele><time>2026-04-29T08:15:45.016Z</time></trkpt><trkpt lat="40.14291920088739" lon="9.140160590320196"><ele>455.5</ele><time>2026-04-29T08:15:46.016Z</time></trkpt><trkpt lat="40.142782248519694" lon="9.140151634691026"><ele>453.0</ele><time>2026-04-29T08:15:47.016Z</time></trkpt><trkpt lat="40.142635800308646" lon="9.140098860819984"><ele>450.5</ele><time>2026-04-29T08:15:48.016Z</time></trkpt><trkpt lat="40.14250299237461" lon="9.140032044800257"><ele>448.0</ele><time>2026-04-29T08:15:49.016Z</time></trkpt><trkpt lat="40.142364881743504" lon="9.139952800696102"><ele>450.33333333333337</ele><time>2026-04-29T08:15:50.016Z</time></trkpt><trkpt lat="40.1422248684384" lon="9.139879492695384"><ele>452.66666666666663</ele><time>2026-04-29T08:15:51.016Z</time></trkpt><trkpt lat="40.142080381898104" lon="9.13980462035237"><ele>455.0</ele><time>2026-04-29T08:15:52.016Z</time></trkpt><trkpt lat="40.14193898026387" lon="9.139734732353904"><ele>455.0</ele><time>2026-04-29T08:15:53.016Z</time></trkpt><trkpt lat="40.14179114407512" lon="9.139710690276171"><ele>455.0</ele><time>2026-04-29T08:15:54.018Z</time></trkpt><trkpt lat="40.14163345229493" lon="9.139721064759645"><ele>455.0</ele><time>2026-04-29T08:15:55.019Z</time></trkpt><trkpt lat="40.14147168488577" lon="9.139742195598805"><ele>452.3333333333333</ele><time>2026-04-29T08:15:56.019Z</time></trkpt><trkpt lat="40.14130141316971" lon="9.13975268465451"><ele>449.66666666666663</ele><time>2026-04-29T08:15:57.019Z</time></trkpt><trkpt lat="40.1411282715358" lon="9.139762593574874"><ele>447.0</ele><time>2026-04-29T08:15:58.018Z</time></trkpt><trkpt lat="40.14095282060543" lon="9.139770542690474"><ele>447.0</ele><time>2026-04-29T08:15:59.018Z</time></trkpt><trkpt lat="40.14077267525606" lon="9.139764460075439"><ele>447.0</ele><time>2026-04-29T08:16:00.018Z</time></trkpt><trkpt lat="40.14057666183658" lon="9.139722399039572"><ele>447.0</ele><time>2026-04-29T08:16:01.018Z</time></trkpt><trkpt lat="40.140375378252315" lon="9.139668413380893"><ele>444.66666666666663</ele><time>2026-04-29T08:16:02.018Z</time></trkpt><trkpt lat="40.14017643196554" lon="9.139602012743964"><ele>442.3333333333333</ele><time>2026-04-29T08:16:03.019Z</time></trkpt><trkpt lat="40.139968024929765" lon="9.139536825670787"><ele>440.0</ele><time>2026-04-29T08:16:04.018Z</time></trkpt><trkpt lat="40.13976156757119" lon="9.139492292126622"><ele>435.66666666666663</ele><time>2026-04-29T08:16:05.018Z</time></trkpt><trkpt lat="40.139561829574575" lon="9.13946007408937"><ele>431.33333333333337</ele><time>2026-04-29T08:16:06.019Z</time></trkpt><trkpt lat="40.13936690328293" lon="9.1394285952608"><ele>427.0</ele><time>2026-04-29T08:16:07.018Z</time></trkpt><trkpt lat="40.13918250303058" lon="9.13943031786976"><ele>424.33333333333337</ele><time>2026-04-29T08:16:08.018Z</time></trkpt><trkpt lat="40.139008912354754" lon="9.13943241260823"><ele>421.66666666666663</ele><time>2026-04-29T08:16:09.018Z</time></trkpt><trkpt lat="40.138837603655205" lon="9.139440232244525"><ele>419.0</ele><time>2026-04-29T08:16:10.018Z</time></trkpt><trkpt lat="40.13866944461354" lon="9.13945053801919"><ele>419.0</ele><time>2026-04-29T08:16:11.018Z</time></trkpt><trkpt lat="40.13852836367506" lon="9.139453444851497"><ele>419.0</ele><time>2026-04-29T08:16:12.018Z</time></trkpt><trkpt lat="40.13843211430936" lon="9.139487660611424"><ele>419.0</ele><time>2026-04-29T08:16:13.018Z</time></trkpt><trkpt lat="40.13831327023638" lon="9.139475589201956"><ele>419.0</ele><time>2026-04-29T08:16:14.018Z</time></trkpt><trkpt lat="40.138182994898884" lon="9.139450549575622"><ele>415.3333333333333</ele><time>2026-04-29T08:16:15.018Z</time></trkpt><trkpt lat="40.138007676655796" lon="9.13940614656523"><ele>411.66666666666663</ele><time>2026-04-29T08:16:16.018Z</time></trkpt><trkpt lat="40.137826363194925" lon="9.139381685100716"><ele>408.0</ele><time>2026-04-29T08:16:17.018Z</time></trkpt><trkpt lat="40.137643309537104" lon="9.139361234825506"><ele>408.0</ele><time>2026-04-29T08:16:18.018Z</time></trkpt><trkpt lat="40.13744738903473" lon="9.139315262595188"><ele>408.0</ele><time>2026-04-29T08:16:19.018Z</time></trkpt><trkpt lat="40.13725081002667" lon="9.13924679266537"><ele>408.0</ele><time>2026-04-29T08:16:20.018Z</time></trkpt><trkpt lat="40.137056665950496" lon="9.139179916533488"><ele>406.33333333333337</ele><time>2026-04-29T08:16:21.018Z</time></trkpt><trkpt lat="40.136861032353536" lon="9.13911780053921"><ele>404.6666666666667</ele><time>2026-04-29T08:16:22.018Z</time></trkpt><trkpt lat="40.1366681757601" lon="9.139041738712633"><ele>403.0</ele><time>2026-04-29T08:16:23.018Z</time></trkpt><trkpt lat="40.13647790913888" lon="9.138977586264463"><ele>403.0</ele><time>2026-04-29T08:16:24.018Z</time></trkpt><trkpt lat="40.136293447758696" lon="9.138921528904556"><ele>403.0</ele><time>2026-04-29T08:16:25.018Z</time></trkpt><trkpt lat="40.136116037568875" lon="9.138868388129548"><ele>403.0</ele><time>2026-04-29T08:16:26.018Z</time></trkpt><trkpt lat="40.13594188841302" lon="9.138805026248596"><ele>403.0</ele><time>2026-04-29T08:16:27.018Z</time></trkpt><trkpt lat="40.135767754547516" lon="9.138717321779115"><ele>403.0</ele><time>2026-04-29T08:16:28.018Z</time></trkpt><trkpt lat="40.13559503460017" lon="9.138620288106738"><ele>403.0</ele><time>2026-04-29T08:16:29.018Z</time></trkpt><trkpt lat="40.13542248299891" lon="9.138515676303506"><ele>396.33333333333337</ele><time>2026-04-29T08:16:30.018Z</time></trkpt><trkpt lat="40.13524735712583" lon="9.138427929755846"><ele>389.6666666666667</ele><time>2026-04-29T08:16:31.018Z</time></trkpt><trkpt lat="40.13506302281079" lon="9.13836839601817"><ele>383.0</ele><time>2026-04-29T08:16:32.018Z</time></trkpt><trkpt lat="40.134874097397464" lon="9.138353156114068"><ele>386.0</ele><time>2026-04-29T08:16:33.018Z</time></trkpt><trkpt lat="40.13468861621996" lon="9.138330188445542"><ele>389.0</ele><time>2026-04-29T08:16:34.018Z</time></trkpt><trkpt lat="40.134503039268196" lon="9.138280077126447"><ele>392.0</ele><time>2026-04-29T08:16:35.018Z</time></trkpt><trkpt lat="40.134326789782826" lon="9.138197353205111"><ele>392.0</ele><time>2026-04-29T08:16:36.018Z</time></trkpt><trkpt lat="40.13415565266326" lon="9.138079153973774"><ele>392.0</ele><time>2026-04-29T08:16:37.018Z</time></trkpt><trkpt lat="40.13399383583825" lon="9.137940788097735"><ele>392.0</ele><time>2026-04-29T08:16:38.018Z</time></trkpt><trkpt lat="40.13382776133073" lon="9.137808720216384"><ele>383.3333333333333</ele><time>2026-04-29T08:16:39.018Z</time></trkpt><trkpt lat="40.133664371893495" lon="9.13769968251172"><ele>374.66666666666663</ele><time>2026-04-29T08:16:40.018Z</time></trkpt><trkpt lat="40.13350532919713" lon="9.137599079888478"><ele>366.0</ele><time>2026-04-29T08:16:41.018Z</time></trkpt><trkpt lat="40.133354249217625" lon="9.1374939394181"><ele>361.3333333333333</ele><time>2026-04-29T08:16:42.018Z</time></trkpt><trkpt lat="40.13321338813268" lon="9.13737547040924"><ele>356.66666666666663</ele><time>2026-04-29T08:16:43.018Z</time></trkpt><trkpt lat="40.13308775630623" lon="9.137239645226282"><ele>352.0</ele><time>2026-04-29T08:16:44.018Z</time></trkpt><trkpt lat="40.132965308338136" lon="9.137087783832056"><ele>352.0</ele><time>2026-04-29T08:16:45.018Z</time></trkpt><trkpt lat="40.13285038248114" lon="9.136928001596182"><ele>352.0</ele><time>2026-04-29T08:16:46.018Z</time></trkpt><trkpt lat="40.132749341672636" lon="9.136749575943114"><ele>352.0</ele><time>2026-04-29T08:16:47.018Z</time></trkpt><trkpt lat="40.132673770369856" lon="9.13655307394478"><ele>353.3333333333333</ele><time>2026-04-29T08:16:48.018Z</time></trkpt><trkpt lat="40.1326151572368" lon="9.136352407991318"><ele>354.6666666666667</ele><time>2026-04-29T08:16:49.018Z</time></trkpt><trkpt lat="40.132572208958166" lon="9.136146928822276"><ele>356.0</ele><time>2026-04-29T08:16:50.018Z</time></trkpt><trkpt lat="40.132535064400344" lon="9.135940073393618"><ele>356.0</ele><time>2026-04-29T08:16:51.018Z</time></trkpt><trkpt lat="40.132528129500244" lon="9.135730707339897"><ele>356.0</ele><time>2026-04-29T08:16:52.018Z</time></trkpt><trkpt lat="40.13254724711668" lon="9.135522315353079"><ele>356.0</ele><time>2026-04-29T08:16:53.018Z</time></trkpt><trkpt lat="40.13259639183799" lon="9.135303085809262"><ele>354.6666666666667</ele><time>2026-04-29T08:16:54.018Z</time></trkpt><trkpt lat="40.13264371230743" lon="9.135079684326962"><ele>353.3333333333333</ele><time>2026-04-29T08:16:55.018Z</time></trkpt><trkpt lat="40.13269311167684" lon="9.134859077831704"><ele>352.0</ele><time>2026-04-29T08:16:56.018Z</time></trkpt><trkpt lat="40.13273589817948" lon="9.134630195567947"><ele>350.66666666666663</ele><time>2026-04-29T08:16:57.018Z</time></trkpt><trkpt lat="40.132779570229054" lon="9.134391789571797"><ele>349.3333333333333</ele><time>2026-04-29T08:16:58.018Z</time></trkpt><trkpt lat="40.13281800325374" lon="9.134157379569478"><ele>348.0</ele><time>2026-04-29T08:16:59.018Z</time></trkpt><trkpt lat="40.132862459017005" lon="9.133916119003077"><ele>347.6666666666667</ele><time>2026-04-29T08:17:00.018Z</time></trkpt><trkpt lat="40.13290761931368" lon="9.133678805644967"><ele>347.33333333333337</ele><time>2026-04-29T08:17:01.018Z</time></trkpt><trkpt lat="40.13293156396314" lon="9.133436092161887"><ele>347.0</ele><time>2026-04-29T08:17:02.018Z</time></trkpt><trkpt lat="40.132923852227336" lon="9.133196494191157"><ele>348.6666666666667</ele><time>2026-04-29T08:17:03.018Z</time></trkpt><trkpt lat="40.132885506130265" lon="9.1329524333611"><ele>350.3333333333333</ele><time>2026-04-29T08:17:04.018Z</time></trkpt><trkpt lat="40.132834250363054" lon="9.132713135922476"><ele>352.0</ele><time>2026-04-29T08:17:05.018Z</time></trkpt><trkpt lat="40.132768660286445" lon="9.132489774599946"><ele>357.0</ele><time>2026-04-29T08:17:06.018Z</time></trkpt><trkpt lat="40.132675568426514" lon="9.13228479598681"><ele>362.0</ele><time>2026-04-29T08:17:07.018Z</time></trkpt><trkpt lat="40.13256087119527" lon="9.132099052835674"><ele>367.0</ele><time>2026-04-29T08:17:08.018Z</time></trkpt><trkpt lat="40.13244509127554" lon="9.131916890775011"><ele>359.3333333333333</ele><time>2026-04-29T08:17:09.018Z</time></trkpt><trkpt lat="40.13233051131257" lon="9.131726535963663"><ele>351.6666666666667</ele><time>2026-04-29T08:17:10.018Z</time></trkpt><trkpt lat="40.13222644395059" lon="9.13154184211092"><ele>344.0</ele><time>2026-04-29T08:17:11.018Z</time></trkpt><trkpt lat="40.13213819608516" lon="9.131367521903838"><ele>343.0</ele><time>2026-04-29T08:17:12.018Z</time></trkpt><trkpt lat="40.13205583808398" lon="9.13120122012024"><ele>342.0</ele><time>2026-04-29T08:17:13.018Z</time></trkpt><trkpt lat="40.1319668901517" lon="9.131056426792476"><ele>341.0</ele><time>2026-04-29T08:17:14.018Z</time></trkpt><trkpt lat="40.13186768803638" lon="9.130947391007775"><ele>340.0</ele><time>2026-04-29T08:17:15.018Z</time></trkpt><trkpt lat="40.13176598761189" lon="9.130863585153769"><ele>340.0</ele><time>2026-04-29T08:17:16.018Z</time></trkpt><trkpt lat="40.131669762479596" lon="9.130793933449642"><ele>340.0</ele><time>2026-04-29T08:17:17.018Z</time></trkpt><trkpt lat="40.131577794657936" lon="9.130727250402513"><ele>340.0</ele><time>2026-04-29T08:17:18.018Z</time></trkpt><trkpt lat="40.13148282739686" lon="9.130657816114658"><ele>340.0</ele><time>2026-04-29T08:17:19.018Z</time></trkpt><trkpt lat="40.13139013499256" lon="9.130585793085423"><ele>340.0</ele><time>2026-04-29T08:17:20.018Z</time></trkpt><trkpt lat="40.13129528129386" lon="9.13051516638543"><ele>341.8</ele><time>2026-04-29T08:17:21.018Z</time></trkpt><trkpt lat="40.131199253341045" lon="9.130444130754745"><ele>343.6</ele><time>2026-04-29T08:17:22.018Z</time></trkpt><trkpt lat="40.13110225312367" lon="9.130369951313037"><ele>345.4</ele><time>2026-04-29T08:17:23.018Z</time></trkpt><trkpt lat="40.131004394584565" lon="9.130294072138572"><ele>347.2</ele><time>2026-04-29T08:17:24.018Z</time></trkpt><trkpt lat="40.13092176503529" lon="9.130208186317148"><ele>349.0</ele><time>2026-04-29T08:17:25.018Z</time></trkpt><trkpt lat="40.13086685093703" lon="9.130100751880894"><ele>349.0</ele><time>2026-04-29T08:17:26.018Z</time></trkpt><trkpt lat="40.13084226285708" lon="9.12997887209615"><ele>349.0</ele><time>2026-04-29T08:17:27.018Z</time></trkpt><trkpt lat="40.13084453599835" lon="9.129835818786972"><ele>349.0</ele><time>2026-04-29T08:17:28.018Z</time></trkpt><trkpt lat="40.13083699686004" lon="9.129683671814519"><ele>349.0</ele><time>2026-04-29T08:17:29.018Z</time></trkpt><trkpt lat="40.130791211202734" lon="9.129544122192497"><ele>349.0</ele><time>2026-04-29T08:17:30.018Z</time></trkpt><trkpt lat="40.130709653792515" lon="9.129438836114236"><ele>354.79999999999995</ele><time>2026-04-29T08:17:31.018Z</time></trkpt><trkpt lat="40.130610652161906" lon="9.129361494562886"><ele>360.59999999999997</ele><time>2026-04-29T08:17:32.018Z</time></trkpt><trkpt lat="40.130521399961026" lon="9.129281619070028"><ele>366.4</ele><time>2026-04-29T08:17:33.018Z</time></trkpt><trkpt lat="40.130473220268776" lon="9.129157431408988"><ele>372.2</ele><time>2026-04-29T08:17:34.018Z</time></trkpt><trkpt lat="40.13046101443511" lon="9.129027672265101"><ele>378.0</ele><time>2026-04-29T08:17:35.018Z</time></trkpt><trkpt lat="40.1304728711213" lon="9.128890796621368"><ele>379.0</ele><time>2026-04-29T08:17:36.018Z</time></trkpt><trkpt lat="40.13047733895949" lon="9.128765910446848"><ele>380.0</ele><time>2026-04-29T08:17:37.018Z</time></trkpt><trkpt lat="40.130433994078416" lon="9.128669901829749"><ele>381.0</ele><time>2026-04-29T08:17:38.018Z</time></trkpt><trkpt lat="40.13036064616771" lon="9.12862089008307"><ele>382.0</ele><time>2026-04-29T08:17:39.018Z</time></trkpt><trkpt lat="40.13027618702048" lon="9.12864335357539"><ele>383.0</ele><time>2026-04-29T08:17:40.018Z</time></trkpt><trkpt lat="40.1302116818282" lon="9.128707307374341"><ele>384.0</ele><time>2026-04-29T08:17:41.018Z</time></trkpt><trkpt lat="40.13017031198929" lon="9.128811349001493"><ele>384.0</ele><time>2026-04-29T08:17:42.018Z</time></trkpt><trkpt lat="40.13014205368166" lon="9.128930279708428"><ele>384.0</ele><time>2026-04-29T08:17:43.018Z</time></trkpt><trkpt lat="40.130142295193544" lon="9.129062232245095"><ele>384.0</ele><time>2026-04-29T08:17:44.018Z</time></trkpt><trkpt lat="40.130178086277745" lon="9.129180529981994"><ele>384.0</ele><time>2026-04-29T08:17:45.018Z</time></trkpt><trkpt lat="40.13024551855045" lon="9.129286311037536"><ele>384.0</ele><time>2026-04-29T08:17:46.018Z</time></trkpt><trkpt lat="40.130331206156676" lon="9.129386209704757"><ele>384.4</ele><time>2026-04-29T08:17:47.018Z</time></trkpt><trkpt lat="40.13042177110564" lon="9.12947939071843"><ele>384.79999999999995</ele><time>2026-04-29T08:17:48.018Z</time></trkpt><trkpt lat="40.13049242118222" lon="9.129590313628162"><ele>385.20000000000005</ele><time>2026-04-29T08:17:49.018Z</time></trkpt><trkpt lat="40.13052125276929" lon="9.129722788481502"><ele>385.6</ele><time>2026-04-29T08:17:50.018Z</time></trkpt><trkpt lat="40.13050604745519" lon="9.129870234303892"><ele>386.0</ele><time>2026-04-29T08:17:51.018Z</time></trkpt><trkpt lat="40.13045855706378" lon="9.130021422363114"><ele>386.0</ele><time>2026-04-29T08:17:52.018Z</time></trkpt><trkpt lat="40.13039155921214" lon="9.130170717434279"><ele>386.0</ele><time>2026-04-29T08:17:53.018Z</time></trkpt><trkpt lat="40.13031643215242" lon="9.13032546191689"><ele>386.0</ele><time>2026-04-29T08:17:54.018Z</time></trkpt><trkpt lat="40.13024550745489" lon="9.13049357615252"><ele>386.0</ele><time>2026-04-29T08:17:55.018Z</time></trkpt><trkpt lat="40.13019404788653" lon="9.130668586513103"><ele>386.0</ele><time>2026-04-29T08:17:56.018Z</time></trkpt><trkpt lat="40.13015348473128" lon="9.130851522154087"><ele>386.0</ele><time>2026-04-29T08:17:57.018Z</time></trkpt><trkpt lat="40.13011823060972" lon="9.131048207494015"><ele>386.0</ele><time>2026-04-29T08:17:58.018Z</time></trkpt><trkpt lat="40.130085821272374" lon="9.131252484512157"><ele>386.0</ele><time>2026-04-29T08:17:59.018Z</time></trkpt><trkpt lat="40.130057055828736" lon="9.131466129473058"><ele>386.0</ele><time>2026-04-29T08:18:00.021Z</time></trkpt><trkpt lat="40.130029817770165" lon="9.131663296390938"><ele>386.0</ele><time>2026-04-29T08:18:01.02Z</time></trkpt><trkpt lat="40.13000360731004" lon="9.131831436251538"><ele>383.20000000000005</ele><time>2026-04-29T08:18:02.02Z</time></trkpt><trkpt lat="40.12996977589816" lon="9.131968024726131"><ele>380.40000000000003</ele><time>2026-04-29T08:18:03.02Z</time></trkpt><trkpt lat="40.12991302532543" lon="9.132050137109491"><ele>377.6</ele><time>2026-04-29T08:18:04.02Z</time></trkpt><trkpt lat="40.129839072922316" lon="9.132082015379712"><ele>374.8</ele><time>2026-04-29T08:18:05.02Z</time></trkpt><trkpt lat="40.12974634055716" lon="9.132057563866816"><ele>372.0</ele><time>2026-04-29T08:18:06.021Z</time></trkpt><trkpt lat="40.12965845911375" lon="9.13197769750274"><ele>372.0</ele><time>2026-04-29T08:18:07.02Z</time></trkpt><trkpt lat="40.12957812882587" lon="9.131866982256216"><ele>372.0</ele><time>2026-04-29T08:18:08.02Z</time></trkpt><trkpt lat="40.12950970161752" lon="9.131743868901918"><ele>372.0</ele><time>2026-04-29T08:18:09.02Z</time></trkpt><trkpt lat="40.12944939633876" lon="9.131603013089945"><ele>372.0</ele><time>2026-04-29T08:18:10.021Z</time></trkpt><trkpt lat="40.12939452361067" lon="9.13143532655556"><ele>376.5</ele><time>2026-04-29T08:18:11.021Z</time></trkpt><trkpt lat="40.12933450008577" lon="9.13126445225975"><ele>381.0</ele><time>2026-04-29T08:18:12.02Z</time></trkpt><trkpt lat="40.12927099883435" lon="9.131085188265061"><ele>385.5</ele><time>2026-04-29T08:18:13.02Z</time></trkpt><trkpt lat="40.1291976058604" lon="9.130928502606585"><ele>390.0</ele><time>2026-04-29T08:18:14.02Z</time></trkpt><trkpt lat="40.12909981191839" lon="9.1307830569528"><ele>392.33333333333337</ele><time>2026-04-29T08:18:15.02Z</time></trkpt><trkpt lat="40.128985674123946" lon="9.130650217815948"><ele>394.6666666666667</ele><time>2026-04-29T08:18:16.02Z</time></trkpt><trkpt lat="40.128861815769724" lon="9.130530989546696"><ele>397.0</ele><time>2026-04-29T08:18:17.02Z</time></trkpt><trkpt lat="40.128732682276066" lon="9.130406235860193"><ele>397.0</ele><time>2026-04-29T08:18:18.02Z</time></trkpt><trkpt lat="40.1285952666892" lon="9.130304214533774"><ele>397.0</ele><time>2026-04-29T08:18:19.02Z</time></trkpt><trkpt lat="40.128461420888236" lon="9.13021471799322"><ele>397.0</ele><time>2026-04-29T08:18:20.02Z</time></trkpt><trkpt lat="40.128314955761475" lon="9.130157680011363"><ele>395.75</ele><time>2026-04-29T08:18:21.02Z</time></trkpt><trkpt lat="40.1281688264334" lon="9.130117449815199"><ele>394.5</ele><time>2026-04-29T08:18:22.02Z</time></trkpt><trkpt lat="40.12804208673741" lon="9.13008045356948"><ele>393.25</ele><time>2026-04-29T08:18:23.02Z</time></trkpt><trkpt lat="40.127944004643346" lon="9.129999344338092"><ele>392.0</ele><time>2026-04-29T08:18:24.02Z</time></trkpt><trkpt lat="40.127872346607795" lon="9.129870554547537"><ele>392.0</ele><time>2026-04-29T08:18:25.02Z</time></trkpt><trkpt lat="40.12784074846906" lon="9.129703691442417"><ele>392.0</ele><time>2026-04-29T08:18:26.02Z</time></trkpt><trkpt lat="40.12783150158918" lon="9.129514215134673"><ele>392.0</ele><time>2026-04-29T08:18:27.02Z</time></trkpt><trkpt lat="40.12781783155034" lon="9.129311904043178"><ele>392.0</ele><time>2026-04-29T08:18:28.02Z</time></trkpt><trkpt lat="40.12777344494857" lon="9.129133283395458"><ele>399.0</ele><time>2026-04-29T08:18:29.02Z</time></trkpt><trkpt lat="40.12769301256685" lon="9.12896408740396"><ele>406.0</ele><time>2026-04-29T08:18:30.02Z</time></trkpt><trkpt lat="40.127586917521306" lon="9.128826570818168"><ele>413.0</ele><time>2026-04-29T08:18:31.02Z</time></trkpt><trkpt lat="40.127447701085835" lon="9.128706377157988"><ele>410.66666666666663</ele><time>2026-04-29T08:18:32.02Z</time></trkpt><trkpt lat="40.12729611553965" lon="9.128636313911455"><ele>408.33333333333337</ele><time>2026-04-29T08:18:33.02Z</time></trkpt><trkpt lat="40.127122192861286" lon="9.128592287691417"><ele>406.0</ele><time>2026-04-29T08:18:34.02Z</time></trkpt><trkpt lat="40.12694685697811" lon="9.128554142725752"><ele>406.0</ele><time>2026-04-29T08:18:35.02Z</time></trkpt><trkpt lat="40.12677864528585" lon="9.12849683757127"><ele>406.0</ele><time>2026-04-29T08:18:36.02Z</time></trkpt><trkpt lat="40.12665017159617" lon="9.128439183535997"><ele>406.0</ele><time>2026-04-29T08:18:37.02Z</time></trkpt><trkpt lat="40.1265102690535" lon="9.128400737571958"><ele>404.0</ele><time>2026-04-29T08:18:38.02Z</time></trkpt><trkpt lat="40.126389931537226" lon="9.12834862682704"><ele>402.0</ele><time>2026-04-29T08:18:39.02Z</time></trkpt><trkpt lat="40.126298170677224" lon="9.128236654256083"><ele>400.0</ele><time>2026-04-29T08:18:40.02Z</time></trkpt><trkpt lat="40.12623407300544" lon="9.12808016945133"><ele>398.0</ele><time>2026-04-29T08:18:41.02Z</time></trkpt><trkpt lat="40.12621311866013" lon="9.12788283443382"><ele>398.0</ele><time>2026-04-29T08:18:42.02Z</time></trkpt><trkpt lat="40.12622421951549" lon="9.127665266523646"><ele>398.0</ele><time>2026-04-29T08:18:43.02Z</time></trkpt><trkpt lat="40.12623520140314" lon="9.12743090491744"><ele>398.0</ele><time>2026-04-29T08:18:44.02Z</time></trkpt><trkpt lat="40.12623821247003" lon="9.127186630636455"><ele>401.0</ele><time>2026-04-29T08:18:45.02Z</time></trkpt><trkpt lat="40.12624153853484" lon="9.126939285165676"><ele>404.0</ele><time>2026-04-29T08:18:46.02Z</time></trkpt><trkpt lat="40.126240851685154" lon="9.126683046959297"><ele>407.0</ele><time>2026-04-29T08:18:47.02Z</time></trkpt><trkpt lat="40.12623656178896" lon="9.126422550320742"><ele>410.0</ele><time>2026-04-29T08:18:48.02Z</time></trkpt><trkpt lat="40.12623727337792" lon="9.126164664689263"><ele>413.0</ele><time>2026-04-29T08:18:49.02Z</time></trkpt><trkpt lat="40.12622518048477" lon="9.125919153274461"><ele>416.0</ele><time>2026-04-29T08:18:50.02Z</time></trkpt><trkpt lat="40.126186343642544" lon="9.12567106995715"><ele>419.0</ele><time>2026-04-29T08:18:51.02Z</time></trkpt><trkpt lat="40.12611565784774" lon="9.125430567738608"><ele>422.0</ele><time>2026-04-29T08:18:52.02Z</time></trkpt><trkpt lat="40.126052199072454" lon="9.125207142303514"><ele>425.0</ele><time>2026-04-29T08:18:53.02Z</time></trkpt><trkpt lat="40.12599282706721" lon="9.125005290413233"><ele>427.75</ele><time>2026-04-29T08:18:54.02Z</time></trkpt><trkpt lat="40.125931458188724" lon="9.124840885143515"><ele>430.5</ele><time>2026-04-29T08:18:55.02Z</time></trkpt><trkpt lat="40.12587066327756" lon="9.124713267042955"><ele>433.25</ele><time>2026-04-29T08:18:56.02Z</time></trkpt><trkpt lat="40.12578542513159" lon="9.124630736686626"><ele>436.0</ele><time>2026-04-29T08:18:57.02Z</time></trkpt><trkpt lat="40.12567135901963" lon="9.124584113114617"><ele>438.0</ele><time>2026-04-29T08:18:58.02Z</time></trkpt><trkpt lat="40.125529335097234" lon="9.124584338488152"><ele>440.0</ele><time>2026-04-29T08:18:59.02Z</time></trkpt><trkpt lat="40.12532548732408" lon="9.124706358449966"><ele>442.0</ele><time>2026-04-29T08:19:00.02Z</time></trkpt><trkpt lat="40.12516142067962" lon="9.124729567425545"><ele>442.0</ele><time>2026-04-29T08:19:01.02Z</time></trkpt><trkpt lat="40.12499850333628" lon="9.124742245084883"><ele>442.0</ele><time>2026-04-29T08:19:02.02Z</time></trkpt><trkpt lat="40.12484861747727" lon="9.124754682129284"><ele>442.0</ele><time>2026-04-29T08:19:03.02Z</time></trkpt><trkpt lat="40.12472312325892" lon="9.124752858532203"><ele>442.0</ele><time>2026-04-29T08:19:04.02Z</time></trkpt><trkpt lat="40.12461301828333" lon="9.124709423427651"><ele>441.25</ele><time>2026-04-29T08:19:05.02Z</time></trkpt><trkpt lat="40.12452588738592" lon="9.124583923833466"><ele>440.5</ele><time>2026-04-29T08:19:06.02Z</time></trkpt><trkpt lat="40.124451868468" lon="9.12440447950662"><ele>439.75</ele><time>2026-04-29T08:19:07.02Z</time></trkpt><trkpt lat="40.12439344421094" lon="9.124213515138555"><ele>439.0</ele><time>2026-04-29T08:19:08.02Z</time></trkpt><trkpt lat="40.12433267783711" lon="9.124015983548883"><ele>439.0</ele><time>2026-04-29T08:19:09.02Z</time></trkpt><trkpt lat="40.124262264314076" lon="9.123819287931022"><ele>439.0</ele><time>2026-04-29T08:19:10.02Z</time></trkpt><trkpt lat="40.12418228294296" lon="9.123597446037069"><ele>439.0</ele><time>2026-04-29T08:19:11.02Z</time></trkpt><trkpt lat="40.12411600626561" lon="9.123388587644332"><ele>440.0</ele><time>2026-04-29T08:19:12.02Z</time></trkpt><trkpt lat="40.12405083728317" lon="9.123178546069143"><ele>441.0</ele><time>2026-04-29T08:19:13.02Z</time></trkpt><trkpt lat="40.12397131896314" lon="9.122999242659558"><ele>442.0</ele><time>2026-04-29T08:19:14.02Z</time></trkpt><trkpt lat="40.12385484379507" lon="9.122849581504715"><ele>442.0</ele><time>2026-04-29T08:19:15.02Z</time></trkpt><trkpt lat="40.12370974580751" lon="9.122739678989973"><ele>442.0</ele><time>2026-04-29T08:19:16.02Z</time></trkpt><trkpt lat="40.123539024013205" lon="9.12266234356047"><ele>442.0</ele><time>2026-04-29T08:19:17.02Z</time></trkpt><trkpt lat="40.123349521658554" lon="9.122601110846858"><ele>441.6666666666667</ele><time>2026-04-29T08:19:18.02Z</time></trkpt><trkpt lat="40.123161757595454" lon="9.122537623330219"><ele>441.33333333333337</ele><time>2026-04-29T08:19:19.02Z</time></trkpt><trkpt lat="40.12297426111042" lon="9.122464225209988"><ele>441.0</ele><time>2026-04-29T08:19:20.02Z</time></trkpt><trkpt lat="40.12278255127611" lon="9.122376521195713"><ele>445.66666666666663</ele><time>2026-04-29T08:19:21.02Z</time></trkpt><trkpt lat="40.1225834729578" lon="9.122292723093269"><ele>450.3333333333333</ele><time>2026-04-29T08:19:22.02Z</time></trkpt><trkpt lat="40.12238212861593" lon="9.122206033295846"><ele>455.0</ele><time>2026-04-29T08:19:23.02Z</time></trkpt><trkpt lat="40.122179556377674" lon="9.122117673067283"><ele>455.0</ele><time>2026-04-29T08:19:24.02Z</time></trkpt><trkpt lat="40.121989161662356" lon="9.122038099904968"><ele>455.0</ele><time>2026-04-29T08:19:25.02Z</time></trkpt><trkpt lat="40.121797883120315" lon="9.121967914707133"><ele>455.0</ele><time>2026-04-29T08:19:26.02Z</time></trkpt><trkpt lat="40.121618317880895" lon="9.121877263774778"><ele>453.5</ele><time>2026-04-29T08:19:27.02Z</time></trkpt><trkpt lat="40.121457986561474" lon="9.12181178451914"><ele>452.0</ele><time>2026-04-29T08:19:28.02Z</time></trkpt><trkpt lat="40.12131810157092" lon="9.121753388060801"><ele>450.5</ele><time>2026-04-29T08:19:29.02Z</time></trkpt><trkpt lat="40.121201625027325" lon="9.121696657753727"><ele>449.0</ele><time>2026-04-29T08:19:30.02Z</time></trkpt><trkpt lat="40.12109157885475" lon="9.121626953741977"><ele>450.75</ele><time>2026-04-29T08:19:31.02Z</time></trkpt><trkpt lat="40.120984416199974" lon="9.121510883258182"><ele>452.5</ele><time>2026-04-29T08:19:32.02Z</time></trkpt><trkpt lat="40.120895178932265" lon="9.121359036898534"><ele>454.25</ele><time>2026-04-29T08:19:33.02Z</time></trkpt><trkpt lat="40.120843335707335" lon="9.121186130428768"><ele>456.0</ele><time>2026-04-29T08:19:34.02Z</time></trkpt><trkpt lat="40.12083549168931" lon="9.120994510346897"><ele>456.0</ele><time>2026-04-29T08:19:35.02Z</time></trkpt><trkpt lat="40.120866381814146" lon="9.120792925296254"><ele>456.0</ele><time>2026-04-29T08:19:36.02Z</time></trkpt><trkpt lat="40.12092209653267" lon="9.120587895598359"><ele>456.0</ele><time>2026-04-29T08:19:37.02Z</time></trkpt><trkpt lat="40.12098329536728" lon="9.120384052052984"><ele>457.0</ele><time>2026-04-29T08:19:38.02Z</time></trkpt><trkpt lat="40.1210399275322" lon="9.120160614742973"><ele>458.0</ele><time>2026-04-29T08:19:39.02Z</time></trkpt><trkpt lat="40.12108808471613" lon="9.119924794943596"><ele>459.0</ele><time>2026-04-29T08:19:40.02Z</time></trkpt><trkpt lat="40.121143526062184" lon="9.119691304358236"><ele>459.66666666666663</ele><time>2026-04-29T08:19:41.02Z</time></trkpt><trkpt lat="40.12119606703146" lon="9.119456892559693"><ele>460.3333333333333</ele><time>2026-04-29T08:19:42.02Z</time></trkpt><trkpt lat="40.121252264360706" lon="9.11922213589913"><ele>461.0</ele><time>2026-04-29T08:19:43.02Z</time></trkpt><trkpt lat="40.12130892322125" lon="9.11900845776962"><ele>462.5</ele><time>2026-04-29T08:19:44.02Z</time></trkpt><trkpt lat="40.12135496984984" lon="9.11882471608786"><ele>464.0</ele><time>2026-04-29T08:19:45.02Z</time></trkpt><trkpt lat="40.121383769819076" lon="9.118662805549228"><ele>465.5</ele><time>2026-04-29T08:19:46.02Z</time></trkpt><trkpt lat="40.12137101370443" lon="9.118512765619931"><ele>467.0</ele><time>2026-04-29T08:19:47.02Z</time></trkpt><trkpt lat="40.12130909567159" lon="9.118371871330186"><ele>467.0</ele><time>2026-04-29T08:19:48.02Z</time></trkpt><trkpt lat="40.12122218706009" lon="9.118248667172892"><ele>467.0</ele><time>2026-04-29T08:19:49.02Z</time></trkpt><trkpt lat="40.121103457327514" lon="9.118170863338642"><ele>467.0</ele><time>2026-04-29T08:19:50.02Z</time></trkpt><trkpt lat="40.12096092216752" lon="9.118151973058632"><ele>467.0</ele><time>2026-04-29T08:19:51.02Z</time></trkpt><trkpt lat="40.12081964509262" lon="9.118190688095437"><ele>469.75</ele><time>2026-04-29T08:19:52.02Z</time></trkpt><trkpt lat="40.12070612563308" lon="9.118287187762169"><ele>472.5</ele><time>2026-04-29T08:19:53.02Z</time></trkpt><trkpt lat="40.120612583172516" lon="9.118420184693893"><ele>475.25</ele><time>2026-04-29T08:19:54.02Z</time></trkpt><trkpt lat="40.12052974529684" lon="9.118594236022501"><ele>478.0</ele><time>2026-04-29T08:19:55.02Z</time></trkpt><trkpt lat="40.12045847612878" lon="9.118809506388805"><ele>478.0</ele><time>2026-04-29T08:19:56.02Z</time></trkpt><trkpt lat="40.120376554069985" lon="9.119042605546724"><ele>478.0</ele><time>2026-04-29T08:19:57.02Z</time></trkpt><trkpt lat="40.12028630948938" lon="9.119270094507257"><ele>478.0</ele><time>2026-04-29T08:19:58.02Z</time></trkpt><trkpt lat="40.12018331909859" lon="9.119507055677188"><ele>478.0</ele><time>2026-04-29T08:19:59.02Z</time></trkpt><trkpt lat="40.12008046705065" lon="9.11975930047294"><ele>478.0</ele><time>2026-04-29T08:20:00.02Z</time></trkpt><trkpt lat="40.11997617119635" lon="9.120013205070327"><ele>478.0</ele><time>2026-04-29T08:20:01.02Z</time></trkpt><trkpt lat="40.11987349638943" lon="9.120273394579693"><ele>484.0</ele><time>2026-04-29T08:20:02.02Z</time></trkpt><trkpt lat="40.11977222267403" lon="9.120521269808819"><ele>490.0</ele><time>2026-04-29T08:20:03.02Z</time></trkpt><trkpt lat="40.119676312426314" lon="9.120749697852396"><ele>496.0</ele><time>2026-04-29T08:20:04.02Z</time></trkpt><trkpt lat="40.119596922695955" lon="9.120951218360824"><ele>496.0</ele><time>2026-04-29T08:20:05.02Z</time></trkpt><trkpt lat="40.11952366252863" lon="9.121130429775707"><ele>496.0</ele><time>2026-04-29T08:20:06.022Z</time></trkpt><trkpt lat="40.119445719321334" lon="9.121306138889882"><ele>496.0</ele><time>2026-04-29T08:20:07.022Z</time></trkpt><trkpt lat="40.119333539062765" lon="9.12144966363625"><ele>496.0</ele><time>2026-04-29T08:20:08.022Z</time></trkpt><trkpt lat="40.11919947103194" lon="9.121561235813278"><ele>496.0</ele><time>2026-04-29T08:20:09.021Z</time></trkpt><trkpt lat="40.11906511809872" lon="9.12161752770518"><ele>496.0</ele><time>2026-04-29T08:20:10.022Z</time></trkpt><trkpt lat="40.118901118397076" lon="9.12162197347405"><ele>494.0</ele><time>2026-04-29T08:20:11.022Z</time></trkpt><trkpt lat="40.11872864726749" lon="9.121584352380614"><ele>492.0</ele><time>2026-04-29T08:20:12.022Z</time></trkpt><trkpt lat="40.11855094411679" lon="9.121544492823485"><ele>490.0</ele><time>2026-04-29T08:20:13.022Z</time></trkpt><trkpt lat="40.118367402846225" lon="9.121513168356168"><ele>494.33333333333337</ele><time>2026-04-29T08:20:14.022Z</time></trkpt><trkpt lat="40.118200580146414" lon="9.121486589345295"><ele>498.66666666666663</ele><time>2026-04-29T08:20:15.022Z</time></trkpt><trkpt lat="40.11805912935705" lon="9.1214258872681"><ele>503.0</ele><time>2026-04-29T08:20:16.021Z</time></trkpt><trkpt lat="40.11792060763694" lon="9.12130175958352"><ele>503.0</ele><time>2026-04-29T08:20:17.021Z</time></trkpt><trkpt lat="40.117777931416306" lon="9.121156205663997"><ele>503.0</ele><time>2026-04-29T08:20:18.022Z</time></trkpt><trkpt lat="40.11763853888638" lon="9.121012807892917"><ele>503.0</ele><time>2026-04-29T08:20:19.022Z</time></trkpt><trkpt lat="40.11751418494101" lon="9.12088925515104"><ele>503.25</ele><time>2026-04-29T08:20:20.022Z</time></trkpt><trkpt lat="40.11739413985632" lon="9.120800076795923"><ele>503.5</ele><time>2026-04-29T08:20:21.022Z</time></trkpt><trkpt lat="40.11726631803271" lon="9.120773836184634"><ele>503.75</ele><time>2026-04-29T08:20:22.022Z</time></trkpt><trkpt lat="40.11711115020991" lon="9.120798939941086"><ele>504.0</ele><time>2026-04-29T08:20:23.022Z</time></trkpt><trkpt lat="40.11694161467605" lon="9.120855175680582"><ele>504.0</ele><time>2026-04-29T08:20:24.022Z</time></trkpt><trkpt lat="40.11677499426013" lon="9.120919683288868"><ele>504.0</ele><time>2026-04-29T08:20:25.022Z</time></trkpt><trkpt lat="40.11663211730002" lon="9.1209487733966"><ele>504.0</ele><time>2026-04-29T08:20:26.022Z</time></trkpt><trkpt lat="40.11650906968858" lon="9.120944952634094"><ele>504.0</ele><time>2026-04-29T08:20:27.022Z</time></trkpt><trkpt lat="40.11640611697749" lon="9.120856906956291"><ele>503.0</ele><time>2026-04-29T08:20:28.022Z</time></trkpt><trkpt lat="40.11631994774909" lon="9.120714281163206"><ele>502.0</ele><time>2026-04-29T08:20:29.022Z</time></trkpt><trkpt lat="40.116273616407234" lon="9.120523610757305"><ele>501.0</ele><time>2026-04-29T08:20:30.022Z</time></trkpt><trkpt lat="40.11626683835283" lon="9.120313166093881"><ele>501.0</ele><time>2026-04-29T08:20:31.022Z</time></trkpt><trkpt lat="40.116256512401335" lon="9.120094285801194"><ele>501.0</ele><time>2026-04-29T08:20:32.022Z</time></trkpt><trkpt lat="40.116204828312235" lon="9.119908432782495"><ele>501.0</ele><time>2026-04-29T08:20:33.022Z</time></trkpt><trkpt lat="40.11610216731987" lon="9.119739854335633"><ele>500.66666666666663</ele><time>2026-04-29T08:20:34.022Z</time></trkpt><trkpt lat="40.115950114320064" lon="9.119598931281082"><ele>500.3333333333333</ele><time>2026-04-29T08:20:35.022Z</time></trkpt><trkpt lat="40.11578635559279" lon="9.119461311876115"><ele>500.0</ele><time>2026-04-29T08:20:36.022Z</time></trkpt><trkpt lat="40.1156240933051" lon="9.11931127584049"><ele>500.0</ele><time>2026-04-29T08:20:37.022Z</time></trkpt><trkpt lat="40.115464139983416" lon="9.119140749930157"><ele>500.0</ele><time>2026-04-29T08:20:38.022Z</time></trkpt><trkpt lat="40.1153033358551" lon="9.11896426539491"><ele>500.0</ele><time>2026-04-29T08:20:39.022Z</time></trkpt><trkpt lat="40.11513098402966" lon="9.1187908639866"><ele>504.66666666666663</ele><time>2026-04-29T08:20:40.022Z</time></trkpt><trkpt lat="40.114943980564384" lon="9.11863906689543"><ele>509.33333333333337</ele><time>2026-04-29T08:20:41.022Z</time></trkpt><trkpt lat="40.114740671096015" lon="9.118513828802152"><ele>514.0</ele><time>2026-04-29T08:20:42.022Z</time></trkpt><trkpt lat="40.11453082153623" lon="9.118398952828764"><ele>514.0</ele><time>2026-04-29T08:20:43.022Z</time></trkpt><trkpt lat="40.114320244259964" lon="9.118289175976056"><ele>514.0</ele><time>2026-04-29T08:20:44.022Z</time></trkpt><trkpt lat="40.1141171185784" lon="9.118184486485372"><ele>514.0</ele><time>2026-04-29T08:20:45.022Z</time></trkpt><trkpt lat="40.1139478800336" lon="9.11809087772753"><ele>519.3333333333334</ele><time>2026-04-29T08:20:46.022Z</time></trkpt><trkpt lat="40.113788882674875" lon="9.118010780704807"><ele>524.6666666666666</ele><time>2026-04-29T08:20:47.022Z</time></trkpt><trkpt lat="40.11362616143178" lon="9.117924558197217"><ele>530.0</ele><time>2026-04-29T08:20:48.022Z</time></trkpt><trkpt lat="40.11346746994997" lon="9.117821129349146"><ele>530.0</ele><time>2026-04-29T08:20:49.022Z</time></trkpt><trkpt lat="40.11333674238807" lon="9.117701179592272"><ele>530.0</ele><time>2026-04-29T08:20:50.022Z</time></trkpt><trkpt lat="40.11322650867473" lon="9.117545999142996"><ele>530.0</ele><time>2026-04-29T08:20:51.022Z</time></trkpt><trkpt lat="40.11313442552499" lon="9.117345088650959"><ele>527.0</ele><time>2026-04-29T08:20:52.022Z</time></trkpt><trkpt lat="40.11305331556861" lon="9.117107402921388"><ele>524.0</ele><time>2026-04-29T08:20:53.022Z</time></trkpt><trkpt lat="40.1129765945141" lon="9.116863484076827"><ele>521.0</ele><time>2026-04-29T08:20:54.022Z</time></trkpt><trkpt lat="40.11290443078484" lon="9.116627228490632"><ele>528.3333333333333</ele><time>2026-04-29T08:20:55.022Z</time></trkpt><trkpt lat="40.11283897290679" lon="9.116431702905665"><ele>535.6666666666666</ele><time>2026-04-29T08:20:56.022Z</time></trkpt><trkpt lat="40.112752443873326" lon="9.116268709101057"><ele>543.0</ele><time>2026-04-29T08:20:57.022Z</time></trkpt><trkpt lat="40.1126370552914" lon="9.11616662599468"><ele>543.0</ele><time>2026-04-29T08:20:58.022Z</time></trkpt><trkpt lat="40.112477656768036" lon="9.116124545406134"><ele>543.0</ele><time>2026-04-29T08:20:59.022Z</time></trkpt><trkpt lat="40.11229857917663" lon="9.116127878717052"><ele>543.0</ele><time>2026-04-29T08:21:00.022Z</time></trkpt><trkpt lat="40.11213600422432" lon="9.116144940816712"><ele>539.0</ele><time>2026-04-29T08:21:01.022Z</time></trkpt><trkpt lat="40.112000500302734" lon="9.11612187121426"><ele>535.0</ele><time>2026-04-29T08:21:02.022Z</time></trkpt><trkpt lat="40.11187476717773" lon="9.11601592365914"><ele>531.0</ele><time>2026-04-29T08:21:03.022Z</time></trkpt><trkpt lat="40.111749608154305" lon="9.11583219944414"><ele>531.3333333333334</ele><time>2026-04-29T08:21:04.022Z</time></trkpt><trkpt lat="40.11161813285353" lon="9.115627807338775"><ele>531.6666666666667</ele><time>2026-04-29T08:21:05.022Z</time></trkpt><trkpt lat="40.11146998049765" lon="9.11543662362408"><ele>532.0</ele><time>2026-04-29T08:21:06.022Z</time></trkpt><trkpt lat="40.11131582794006" lon="9.115234073531804"><ele>532.0</ele><time>2026-04-29T08:21:07.022Z</time></trkpt><trkpt lat="40.11115009271668" lon="9.115051338421361"><ele>532.0</ele><time>2026-04-29T08:21:08.022Z</time></trkpt><trkpt lat="40.11102318846251" lon="9.114856137353122"><ele>532.0</ele><time>2026-04-29T08:21:09.022Z</time></trkpt><trkpt lat="40.110892334692764" lon="9.114726773497717"><ele>533.75</ele><time>2026-04-29T08:21:10.022Z</time></trkpt><trkpt lat="40.110769074087194" lon="9.11463268736096"><ele>535.5</ele><time>2026-04-29T08:21:11.022Z</time></trkpt><trkpt lat="40.11065583402908" lon="9.11458464616519"><ele>537.25</ele><time>2026-04-29T08:21:12.022Z</time></trkpt><trkpt lat="40.11053799891007" lon="9.114609391938194"><ele>539.0</ele><time>2026-04-29T08:21:13.022Z</time></trkpt><trkpt lat="40.11043234326982" lon="9.114685222506068"><ele>539.0</ele><time>2026-04-29T08:21:14.022Z</time></trkpt><trkpt lat="40.1103434051853" lon="9.114812472605953"><ele>539.0</ele><time>2026-04-29T08:21:15.022Z</time></trkpt><trkpt lat="40.110276537002434" lon="9.114983951394482"><ele>539.0</ele><time>2026-04-29T08:21:16.022Z</time></trkpt><trkpt lat="40.110220424021755" lon="9.11517960978761"><ele>539.0</ele><time>2026-04-29T08:21:17.022Z</time></trkpt><trkpt lat="40.11014826286537" lon="9.115399412121304"><ele>541.6666666666666</ele><time>2026-04-29T08:21:18.022Z</time></trkpt><trkpt lat="40.110060189756965" lon="9.115638727283553"><ele>544.3333333333334</ele><time>2026-04-29T08:21:19.022Z</time></trkpt><trkpt lat="40.109968568535734" lon="9.115886997086267"><ele>547.0</ele><time>2026-04-29T08:21:20.022Z</time></trkpt><trkpt lat="40.10988181842787" lon="9.116146923229074"><ele>555.0</ele><time>2026-04-29T08:21:21.022Z</time></trkpt><trkpt lat="40.109793053442836" lon="9.11639863311513"><ele>563.0</ele><time>2026-04-29T08:21:22.022Z</time></trkpt><trkpt lat="40.10971552487619" lon="9.116619477739086"><ele>571.0</ele><time>2026-04-29T08:21:23.022Z</time></trkpt><trkpt lat="40.10964432140114" lon="9.116816607012684"><ele>571.0</ele><time>2026-04-29T08:21:24.022Z</time></trkpt><trkpt lat="40.10958083096725" lon="9.11699302735228"><ele>571.0</ele><time>2026-04-29T08:21:25.022Z</time></trkpt><trkpt lat="40.109526759749436" lon="9.11715087614493"><ele>571.0</ele><time>2026-04-29T08:21:26.022Z</time></trkpt><trkpt lat="40.10947830980662" lon="9.117305779423793"><ele>571.0</ele><time>2026-04-29T08:21:27.022Z</time></trkpt><trkpt lat="40.109461681726714" lon="9.117480390211977"><ele>569.75</ele><time>2026-04-29T08:21:28.022Z</time></trkpt><trkpt lat="40.109487369433445" lon="9.117655236628451"><ele>568.5</ele><time>2026-04-29T08:21:29.022Z</time></trkpt><trkpt lat="40.10955737296607" lon="9.117823163803509"><ele>567.25</ele><time>2026-04-29T08:21:30.022Z</time></trkpt><trkpt lat="40.10967037675208" lon="9.117970634229861"><ele>566.0</ele><time>2026-04-29T08:21:31.022Z</time></trkpt><trkpt lat="40.109804272616536" lon="9.118094063823499"><ele>564.0</ele><time>2026-04-29T08:21:32.022Z</time></trkpt><trkpt lat="40.10994520095632" lon="9.118213613659346"><ele>562.0</ele><time>2026-04-29T08:21:33.022Z</time></trkpt><trkpt lat="40.110085189974214" lon="9.118339042858203"><ele>560.0</ele><time>2026-04-29T08:21:34.022Z</time></trkpt><trkpt lat="40.11019934254531" lon="9.118493920016723"><ele>560.0</ele><time>2026-04-29T08:21:35.022Z</time></trkpt><trkpt lat="40.11026970105022" lon="9.118679865751243"><ele>560.0</ele><time>2026-04-29T08:21:36.022Z</time></trkpt><trkpt lat="40.11029093087392" lon="9.118872941279307"><ele>560.0</ele><time>2026-04-29T08:21:37.022Z</time></trkpt><trkpt lat="40.110249889031145" lon="9.119054014049757"><ele>563.0</ele><time>2026-04-29T08:21:38.022Z</time></trkpt><trkpt lat="40.11015478002364" lon="9.119235316142943"><ele>566.0</ele><time>2026-04-29T08:21:39.022Z</time></trkpt><trkpt lat="40.11001947491496" lon="9.119404133732278"><ele>569.0</ele><time>2026-04-29T08:21:40.022Z</time></trkpt><trkpt lat="40.109874217711614" lon="9.119558715815293"><ele>569.6666666666666</ele><time>2026-04-29T08:21:41.022Z</time></trkpt><trkpt lat="40.10971937606467" lon="9.119724520621249"><ele>570.3333333333334</ele><time>2026-04-29T08:21:42.022Z</time></trkpt><trkpt lat="40.10961841007489" lon="9.11987886429055"><ele>571.0</ele><time>2026-04-29T08:21:43.022Z</time></trkpt><trkpt lat="40.10945256741488" lon="9.120045986950611"><ele>571.0</ele><time>2026-04-29T08:21:44.022Z</time></trkpt><trkpt lat="40.10952977426158" lon="9.12000947984984"><ele>571.0</ele><time>2026-04-29T08:21:45.022Z</time></trkpt><trkpt lat="40.109362101482" lon="9.120042669369656"><ele>571.0</ele><time>2026-04-29T08:21:46.022Z</time></trkpt><trkpt lat="40.109168045556856" lon="9.120031922566879"><ele>571.0</ele><time>2026-04-29T08:21:47.022Z</time></trkpt><trkpt lat="40.10898384371104" lon="9.120040076791776"><ele>573.3333333333334</ele><time>2026-04-29T08:21:48.022Z</time></trkpt><trkpt lat="40.10881984757112" lon="9.12004212702351"><ele>575.6666666666666</ele><time>2026-04-29T08:21:49.022Z</time></trkpt><trkpt lat="40.108676402130705" lon="9.120045179208633"><ele>578.0</ele><time>2026-04-29T08:21:50.022Z</time></trkpt><trkpt lat="40.10853763018884" lon="9.120102157917687"><ele>578.0</ele><time>2026-04-29T08:21:51.022Z</time></trkpt><trkpt lat="40.10841932722638" lon="9.120209803862657"><ele>578.0</ele><time>2026-04-29T08:21:52.022Z</time></trkpt><trkpt lat="40.108335084606246" lon="9.120363444942607"><ele>578.0</ele><time>2026-04-29T08:21:53.022Z</time></trkpt><trkpt lat="40.10828493256489" lon="9.12055742639267"><ele>578.0</ele><time>2026-04-29T08:21:54.022Z</time></trkpt><trkpt lat="40.10826739951" lon="9.12077164723121"><ele>577.0</ele><time>2026-04-29T08:21:55.022Z</time></trkpt><trkpt lat="40.108251188060315" lon="9.120993652249872"><ele>576.0</ele><time>2026-04-29T08:21:56.022Z</time></trkpt><trkpt lat="40.108223126660185" lon="9.121203325369027"><ele>575.0</ele><time>2026-04-29T08:21:57.022Z</time></trkpt><trkpt lat="40.10818587653431" lon="9.121383518460616"><ele>577.0</ele><time>2026-04-29T08:21:58.022Z</time></trkpt><trkpt lat="40.10812673279548" lon="9.121540664004826"><ele>579.0</ele><time>2026-04-29T08:21:59.022Z</time></trkpt><trkpt lat="40.10803575640322" lon="9.121669150795597"><ele>581.0</ele><time>2026-04-29T08:22:00.022Z</time></trkpt><trkpt lat="40.10791845104049" lon="9.121763530056203"><ele>583.0</ele><time>2026-04-29T08:22:01.022Z</time></trkpt><trkpt lat="40.10777453673061" lon="9.121812309068583"><ele>583.0</ele><time>2026-04-29T08:22:02.022Z</time></trkpt><trkpt lat="40.10761032134403" lon="9.12182427540396"><ele>583.0</ele><time>2026-04-29T08:22:03.022Z</time></trkpt><trkpt lat="40.107436779560665" lon="9.121836759037421"><ele>583.0</ele><time>2026-04-29T08:22:04.022Z</time></trkpt><trkpt lat="40.10725709498578" lon="9.121859411083383"><ele>583.6666666666667</ele><time>2026-04-29T08:22:05.022Z</time></trkpt><trkpt lat="40.10706680684132" lon="9.121886696523198"><ele>584.3333333333334</ele><time>2026-04-29T08:22:06.022Z</time></trkpt><trkpt lat="40.10686968590084" lon="9.12190363118104"><ele>585.0</ele><time>2026-04-29T08:22:07.022Z</time></trkpt><trkpt lat="40.10666867076083" lon="9.12191019758492"><ele>591.3333333333334</ele><time>2026-04-29T08:22:08.022Z</time></trkpt><trkpt lat="40.10649199008412" lon="9.121935448031504"><ele>597.6666666666667</ele><time>2026-04-29T08:22:09.022Z</time></trkpt><trkpt lat="40.10632744534986" lon="9.12195374077827"><ele>604.0</ele><time>2026-04-29T08:22:10.022Z</time></trkpt><trkpt lat="40.10619216947741" lon="9.122006356511411"><ele>604.0</ele><time>2026-04-29T08:22:11.022Z</time></trkpt><trkpt lat="40.10606959069547" lon="9.122111131282216"><ele>604.0</ele><time>2026-04-29T08:22:12.024Z</time></trkpt><trkpt lat="40.105978511268795" lon="9.122249505739871"><ele>604.0</ele><time>2026-04-29T08:22:13.023Z</time></trkpt><trkpt lat="40.10589906748516" lon="9.122415680026062"><ele>604.0</ele><time>2026-04-29T08:22:14.023Z</time></trkpt><trkpt lat="40.105824581820734" lon="9.122558749291368"><ele>601.0</ele><time>2026-04-29T08:22:15.024Z</time></trkpt><trkpt lat="40.10572510907229" lon="9.122643966052564"><ele>598.0</ele><time>2026-04-29T08:22:16.023Z</time></trkpt><trkpt lat="40.10559482472881" lon="9.122656996552243"><ele>595.0</ele><time>2026-04-29T08:22:17.023Z</time></trkpt><trkpt lat="40.1054496814707" lon="9.122608068013852"><ele>592.0</ele><time>2026-04-29T08:22:18.023Z</time></trkpt><trkpt lat="40.105298648116424" lon="9.122534153366585"><ele>592.0</ele><time>2026-04-29T08:22:19.023Z</time></trkpt><trkpt lat="40.10513904120497" lon="9.122464132868764"><ele>592.0</ele><time>2026-04-29T08:22:20.023Z</time></trkpt><trkpt lat="40.10496832648206" lon="9.122424488940602"><ele>592.0</ele><time>2026-04-29T08:22:21.023Z</time></trkpt><trkpt lat="40.10479570310313" lon="9.122416783746363"><ele>593.0</ele><time>2026-04-29T08:22:22.023Z</time></trkpt><trkpt lat="40.10463437132819" lon="9.122444726727839"><ele>594.0</ele><time>2026-04-29T08:22:23.023Z</time></trkpt><trkpt lat="40.1044621836992" lon="9.122478091196784"><ele>595.0</ele><time>2026-04-29T08:22:24.023Z</time></trkpt><trkpt lat="40.1042896062544" lon="9.122516004760415"><ele>595.0</ele><time>2026-04-29T08:22:25.024Z</time></trkpt><trkpt lat="40.10410319679922" lon="9.122555260502414"><ele>595.0</ele><time>2026-04-29T08:22:26.024Z</time></trkpt><trkpt lat="40.1039110636726" lon="9.122579003038307"><ele>595.0</ele><time>2026-04-29T08:22:27.024Z</time></trkpt><trkpt lat="40.103720648793676" lon="9.122593353406621"><ele>598.6666666666667</ele><time>2026-04-29T08:22:28.024Z</time></trkpt><trkpt lat="40.10353680824212" lon="9.12264541607279"><ele>602.3333333333334</ele><time>2026-04-29T08:22:29.024Z</time></trkpt><trkpt lat="40.10336271802155" lon="9.122726934847742"><ele>606.0</ele><time>2026-04-29T08:22:30.024Z</time></trkpt><trkpt lat="40.103190681998" lon="9.12281670202515"><ele>608.5</ele><time>2026-04-29T08:22:31.024Z</time></trkpt><trkpt lat="40.10303990078979" lon="9.122901911172052"><ele>611.0</ele><time>2026-04-29T08:22:32.024Z</time></trkpt><trkpt lat="40.10290484505611" lon="9.122988631368385"><ele>613.5</ele><time>2026-04-29T08:22:33.024Z</time></trkpt><trkpt lat="40.102781963048386" lon="9.123057914203898"><ele>616.0</ele><time>2026-04-29T08:22:34.024Z</time></trkpt><trkpt lat="40.1026607378134" lon="9.123122163629539"><ele>616.0</ele><time>2026-04-29T08:22:35.024Z</time></trkpt><trkpt lat="40.10256038658262" lon="9.123176053019982"><ele>616.0</ele><time>2026-04-29T08:22:36.024Z</time></trkpt><trkpt lat="40.1024595328373" lon="9.123215943567505"><ele>616.0</ele><time>2026-04-29T08:22:37.024Z</time></trkpt><trkpt lat="40.1023490379209" lon="9.123244476615705"><ele>616.0</ele><time>2026-04-29T08:22:38.024Z</time></trkpt><trkpt lat="40.10223355758273" lon="9.123255901091131"><ele>616.0</ele><time>2026-04-29T08:22:39.024Z</time></trkpt><trkpt lat="40.10211847066722" lon="9.123222721458223"><ele>614.0</ele><time>2026-04-29T08:22:40.024Z</time></trkpt><trkpt lat="40.10200598046659" lon="9.123154042878255"><ele>612.0</ele><time>2026-04-29T08:22:41.024Z</time></trkpt><trkpt lat="40.101882728923854" lon="9.12306793494879"><ele>610.0</ele><time>2026-04-29T08:22:42.024Z</time></trkpt><trkpt lat="40.10175518492231" lon="9.122949852592198"><ele>608.0</ele><time>2026-04-29T08:22:43.024Z</time></trkpt><trkpt lat="40.10163194263584" lon="9.122815002064822"><ele>606.0</ele><time>2026-04-29T08:22:44.024Z</time></trkpt><trkpt lat="40.10149204419885" lon="9.122676839370293"><ele>604.0</ele><time>2026-04-29T08:22:45.024Z</time></trkpt><trkpt lat="40.10133619138227" lon="9.122561520610406"><ele>602.0</ele><time>2026-04-29T08:22:46.024Z</time></trkpt><trkpt lat="40.101190358667374" lon="9.122428654445882"><ele>604.0</ele><time>2026-04-29T08:22:47.024Z</time></trkpt><trkpt lat="40.101040074714085" lon="9.122314501975698"><ele>606.0</ele><time>2026-04-29T08:22:48.024Z</time></trkpt><trkpt lat="40.100881882093134" lon="9.122200160619276"><ele>608.0</ele><time>2026-04-29T08:22:49.024Z</time></trkpt><trkpt lat="40.10072593596852" lon="9.12206884248216"><ele>608.0</ele><time>2026-04-29T08:22:50.024Z</time></trkpt><trkpt lat="40.10057115683295" lon="9.12191942631137"><ele>608.0</ele><time>2026-04-29T08:22:51.024Z</time></trkpt><trkpt lat="40.10041382453552" lon="9.121778391548432"><ele>608.0</ele><time>2026-04-29T08:22:52.024Z</time></trkpt><trkpt lat="40.10025455412398" lon="9.121649093729113"><ele>610.75</ele><time>2026-04-29T08:22:53.024Z</time></trkpt><trkpt lat="40.100119888833426" lon="9.12153463173681"><ele>613.5</ele><time>2026-04-29T08:22:54.024Z</time></trkpt><trkpt lat="40.099997765915404" lon="9.121445068840698"><ele>616.25</ele><time>2026-04-29T08:22:55.024Z</time></trkpt><trkpt lat="40.09988027551593" lon="9.121411401036303"><ele>619.0</ele><time>2026-04-29T08:22:56.024Z</time></trkpt><trkpt lat="40.09975816973737" lon="9.121452624818419"><ele>618.75</ele><time>2026-04-29T08:22:57.024Z</time></trkpt><trkpt lat="40.09964334191093" lon="9.121536424233943"><ele>618.5</ele><time>2026-04-29T08:22:58.024Z</time></trkpt><trkpt lat="40.099548461166876" lon="9.12165104437467"><ele>618.25</ele><time>2026-04-29T08:22:59.024Z</time></trkpt><trkpt lat="40.0994870902489" lon="9.121786937873152"><ele>618.0</ele><time>2026-04-29T08:23:00.024Z</time></trkpt><trkpt lat="40.09946154542917" lon="9.121968390197276"><ele>618.0</ele><time>2026-04-29T08:23:01.024Z</time></trkpt><trkpt lat="40.09946878676969" lon="9.122189252539982"><ele>618.0</ele><time>2026-04-29T08:23:02.024Z</time></trkpt><trkpt lat="40.09947482471775" lon="9.12241001872893"><ele>618.0</ele><time>2026-04-29T08:23:03.024Z</time></trkpt><trkpt lat="40.099469776251546" lon="9.122634120320244"><ele>620.0</ele><time>2026-04-29T08:23:04.024Z</time></trkpt><trkpt lat="40.09945759280446" lon="9.122876627862523"><ele>622.0</ele><time>2026-04-29T08:23:05.024Z</time></trkpt><trkpt lat="40.09943902356166" lon="9.123125558952255"><ele>624.0</ele><time>2026-04-29T08:23:06.024Z</time></trkpt><trkpt lat="40.099424442167376" lon="9.12338443027324"><ele>626.6666666666666</ele><time>2026-04-29T08:23:07.024Z</time></trkpt><trkpt lat="40.09940483738996" lon="9.123643786176553"><ele>629.3333333333333</ele><time>2026-04-29T08:23:08.024Z</time></trkpt><trkpt lat="40.09937726156312" lon="9.123903769295595"><ele>632.0</ele><time>2026-04-29T08:23:09.024Z</time></trkpt><trkpt lat="40.099360982275435" lon="9.124131588242236"><ele>632.5</ele><time>2026-04-29T08:23:10.024Z</time></trkpt><trkpt lat="40.0993332412454" lon="9.124332014512799"><ele>633.0</ele><time>2026-04-29T08:23:11.024Z</time></trkpt><trkpt lat="40.09932780112999" lon="9.12449650686289"><ele>633.5</ele><time>2026-04-29T08:23:12.024Z</time></trkpt><trkpt lat="40.09930968133372" lon="9.124635006032394"><ele>634.0</ele><time>2026-04-29T08:23:13.024Z</time></trkpt><trkpt lat="40.099292192720824" lon="9.12474493216917"><ele>634.0</ele><time>2026-04-29T08:23:14.024Z</time></trkpt><trkpt lat="40.09927504376686" lon="9.124850082923476"><ele>634.0</ele><time>2026-04-29T08:23:15.024Z</time></trkpt><trkpt lat="40.0992646611759" lon="9.124961819369132"><ele>634.0</ele><time>2026-04-29T08:23:16.024Z</time></trkpt><trkpt lat="40.09925828052132" lon="9.125058054441"><ele>634.0</ele><time>2026-04-29T08:23:17.024Z</time></trkpt><trkpt lat="40.09925337772609" lon="9.125181629978638"><ele>634.0</ele><time>2026-04-29T08:23:18.024Z</time></trkpt><trkpt lat="40.09925033498822" lon="9.125307164355782"><ele>634.0</ele><time>2026-04-29T08:23:19.024Z</time></trkpt><trkpt lat="40.09924444782641" lon="9.12543397689236"><ele>634.6</ele><time>2026-04-29T08:23:20.024Z</time></trkpt><trkpt lat="40.09922844021411" lon="9.125566057933856"><ele>635.2</ele><time>2026-04-29T08:23:21.024Z</time></trkpt><trkpt lat="40.0992130792021" lon="9.125689197671605"><ele>635.8000000000001</ele><time>2026-04-29T08:23:22.024Z</time></trkpt><trkpt lat="40.09919752554246" lon="9.125823278176991"><ele>636.4</ele><time>2026-04-29T08:23:23.024Z</time></trkpt><trkpt lat="40.09918325079904" lon="9.125956086971712"><ele>637.0</ele><time>2026-04-29T08:23:24.024Z</time></trkpt><trkpt lat="40.09917593848285" lon="9.12610229168888"><ele>637.4</ele><time>2026-04-29T08:23:25.024Z</time></trkpt><trkpt lat="40.09917660939649" lon="9.126241970633286"><ele>637.8000000000001</ele><time>2026-04-29T08:23:26.024Z</time></trkpt><trkpt lat="40.09920127886363" lon="9.126382228157837"><ele>638.2</ele><time>2026-04-29T08:23:27.024Z</time></trkpt><trkpt lat="40.099249818988326" lon="9.126517850331476"><ele>638.6</ele><time>2026-04-29T08:23:28.024Z</time></trkpt><trkpt lat="40.09930688571654" lon="9.12664666997244"><ele>639.0</ele><time>2026-04-29T08:23:29.024Z</time></trkpt><trkpt lat="40.09936621927861" lon="9.12676880714709"><ele>641.4</ele><time>2026-04-29T08:23:30.024Z</time></trkpt><trkpt lat="40.09942702579818" lon="9.12689529121665"><ele>643.8</ele><time>2026-04-29T08:23:31.024Z</time></trkpt><trkpt lat="40.09947918898165" lon="9.127022430878828"><ele>646.1999999999999</ele><time>2026-04-29T08:23:32.024Z</time></trkpt><trkpt lat="40.0995379696989" lon="9.127140260383971"><ele>648.5999999999999</ele><time>2026-04-29T08:23:33.024Z</time></trkpt><trkpt lat="40.0995924876692" lon="9.127260219192014"><ele>651.0</ele><time>2026-04-29T08:23:34.024Z</time></trkpt><trkpt lat="40.0996386795756" lon="9.12737032188149"><ele>652.6666666666666</ele><time>2026-04-29T08:23:35.024Z</time></trkpt><trkpt lat="40.09967727938046" lon="9.127468424924341"><ele>654.3333333333334</ele><time>2026-04-29T08:23:36.024Z</time></trkpt><trkpt lat="40.09970304381358" lon="9.127569531783127"><ele>656.0</ele><time>2026-04-29T08:23:37.024Z</time></trkpt><trkpt lat="40.099711505284326" lon="9.127677482220866"><ele>657.6666666666667</ele><time>2026-04-29T08:23:38.024Z</time></trkpt><trkpt lat="40.09971300104955" lon="9.127797032864272"><ele>659.3333333333334</ele><time>2026-04-29T08:23:39.024Z</time></trkpt><trkpt lat="40.09969051539864" lon="9.12793100904383"><ele>661.0</ele><time>2026-04-29T08:23:40.024Z</time></trkpt><trkpt lat="40.09963594976197" lon="9.128053772321902"><ele>661.0</ele><time>2026-04-29T08:23:41.024Z</time></trkpt><trkpt lat="40.09956277548447" lon="9.128163923809634"><ele>661.0</ele><time>2026-04-29T08:23:42.024Z</time></trkpt><trkpt lat="40.0994538915058" lon="9.128261926333671"><ele>661.0</ele><time>2026-04-29T08:23:43.024Z</time></trkpt><trkpt lat="40.09933558370645" lon="9.128345434704354"><ele>661.0</ele><time>2026-04-29T08:23:44.024Z</time></trkpt><trkpt lat="40.09920481141018" lon="9.128419467706662"><ele>660.0</ele><time>2026-04-29T08:23:45.024Z</time></trkpt><trkpt lat="40.0990594810935" lon="9.128469556979855"><ele>659.0</ele><time>2026-04-29T08:23:46.024Z</time></trkpt><trkpt lat="40.09890693984274" lon="9.1284768064491"><ele>658.0</ele><time>2026-04-29T08:23:47.024Z</time></trkpt><trkpt lat="40.09874070609328" lon="9.128451467888004"><ele>658.0</ele><time>2026-04-29T08:23:48.024Z</time></trkpt><trkpt lat="40.09858472443891" lon="9.12838305147032"><ele>658.0</ele><time>2026-04-29T08:23:49.024Z</time></trkpt><trkpt lat="40.09842582359226" lon="9.128318035722874"><ele>658.0</ele><time>2026-04-29T08:23:50.024Z</time></trkpt><trkpt lat="40.09826945704324" lon="9.128274740620094"><ele>659.75</ele><time>2026-04-29T08:23:51.024Z</time></trkpt><trkpt lat="40.098118301898744" lon="9.12828338033052"><ele>661.5</ele><time>2026-04-29T08:23:52.024Z</time></trkpt><trkpt lat="40.09797934305674" lon="9.128337126942226"><ele>663.25</ele><time>2026-04-29T08:23:53.024Z</time></trkpt><trkpt lat="40.09785362529396" lon="9.128379451996253"><ele>665.0</ele><time>2026-04-29T08:23:54.024Z</time></trkpt><trkpt lat="40.09773387758216" lon="9.128360889840701"><ele>665.0</ele><time>2026-04-29T08:23:55.024Z</time></trkpt><trkpt lat="40.09763337817225" lon="9.128250940984817"><ele>665.0</ele><time>2026-04-29T08:23:56.024Z</time></trkpt><trkpt lat="40.097547129759256" lon="9.12811657683667"><ele>665.0</ele><time>2026-04-29T08:23:57.024Z</time></trkpt><trkpt lat="40.097483160261625" lon="9.127941243584088"><ele>665.0</ele><time>2026-04-29T08:23:58.024Z</time></trkpt><trkpt lat="40.09741757591584" lon="9.127771346979117"><ele>670.6666666666666</ele><time>2026-04-29T08:23:59.024Z</time></trkpt><trkpt lat="40.09734890923913" lon="9.127589844832267"><ele>676.3333333333334</ele><time>2026-04-29T08:24:00.024Z</time></trkpt><trkpt lat="40.0972800284531" lon="9.127397720052333"><ele>682.0</ele><time>2026-04-29T08:24:01.024Z</time></trkpt><trkpt lat="40.097206317467425" lon="9.127204988843816"><ele>685.3333333333334</ele><time>2026-04-29T08:24:02.024Z</time></trkpt><trkpt lat="40.09713887269863" lon="9.127000939698982"><ele>688.6666666666666</ele><time>2026-04-29T08:24:03.024Z</time></trkpt><trkpt lat="40.09708881315969" lon="9.126786244237657"><ele>692.0</ele><time>2026-04-29T08:24:04.024Z</time></trkpt><trkpt lat="40.097054092827484" lon="9.126569212081137"><ele>690.6666666666666</ele><time>2026-04-29T08:24:05.024Z</time></trkpt><trkpt lat="40.09701581106625" lon="9.126338045173187"><ele>689.3333333333334</ele><time>2026-04-29T08:24:06.024Z</time></trkpt><trkpt lat="40.0969698231365" lon="9.126124406400091"><ele>688.0</ele><time>2026-04-29T08:24:07.024Z</time></trkpt><trkpt lat="40.09691936480077" lon="9.125938563723194"><ele>688.0</ele><time>2026-04-29T08:24:08.024Z</time></trkpt><trkpt lat="40.09686253970614" lon="9.125782268866967"><ele>688.0</ele><time>2026-04-29T08:24:09.024Z</time></trkpt><trkpt lat="40.09684617605438" lon="9.125630075992536"><ele>688.0</ele><time>2026-04-29T08:24:10.024Z</time></trkpt><trkpt lat="40.09686601848223" lon="9.125469943632575"><ele>688.0</ele><time>2026-04-29T08:24:11.024Z</time></trkpt><trkpt lat="40.096923222626764" lon="9.125313927194917"><ele>689.0</ele><time>2026-04-29T08:24:12.024Z</time></trkpt><trkpt lat="40.09699552438768" lon="9.125166282279936"><ele>690.0</ele><time>2026-04-29T08:24:13.024Z</time></trkpt><trkpt lat="40.09702281810834" lon="9.124985462044345"><ele>691.0</ele><time>2026-04-29T08:24:14.024Z</time></trkpt><trkpt lat="40.09700725695035" lon="9.1248072415954"><ele>692.0</ele><time>2026-04-29T08:24:15.024Z</time></trkpt><trkpt lat="40.09696150455613" lon="9.124632717567062"><ele>692.0</ele><time>2026-04-29T08:24:16.024Z</time></trkpt><trkpt lat="40.09688901333897" lon="9.124460554430312"><ele>692.0</ele><time>2026-04-29T08:24:17.024Z</time></trkpt><trkpt lat="40.096809155232016" lon="9.124314806760148"><ele>692.0</ele><time>2026-04-29T08:24:18.025Z</time></trkpt><trkpt lat="40.09674321242107" lon="9.124129239573659"><ele>692.0</ele><time>2026-04-29T08:24:19.025Z</time></trkpt><trkpt lat="40.09667920522026" lon="9.12395246779929"><ele>691.0</ele><time>2026-04-29T08:24:20.025Z</time></trkpt><trkpt lat="40.09662862173849" lon="9.12376639784597"><ele>690.0</ele><time>2026-04-29T08:24:21.024Z</time></trkpt><trkpt lat="40.09657107953354" lon="9.123594156826387"><ele>689.0</ele><time>2026-04-29T08:24:22.024Z</time></trkpt><trkpt lat="40.096505236482315" lon="9.123424966351411"><ele>688.0</ele><time>2026-04-29T08:24:23.024Z</time></trkpt><trkpt lat="40.09645243606193" lon="9.123262246884963"><ele>694.25</ele><time>2026-04-29T08:24:24.025Z</time></trkpt><trkpt lat="40.096404604457156" lon="9.123096913435084"><ele>700.5</ele><time>2026-04-29T08:24:25.025Z</time></trkpt><trkpt lat="40.09636702014428" lon="9.12293799090732"><ele>706.75</ele><time>2026-04-29T08:24:26.025Z</time></trkpt><trkpt lat="40.0963438497125" lon="9.122778923133792"><ele>713.0</ele><time>2026-04-29T08:24:27.024Z</time></trkpt><trkpt lat="40.096326424919326" lon="9.122623379406532"><ele>713.0</ele><time>2026-04-29T08:24:28.025Z</time></trkpt><trkpt lat="40.09631153829996" lon="9.122474059772259"><ele>713.0</ele><time>2026-04-29T08:24:29.025Z</time></trkpt><trkpt lat="40.09629110389543" lon="9.122318904487413"><ele>713.0</ele><time>2026-04-29T08:24:30.025Z</time></trkpt><trkpt lat="40.09627895977861" lon="9.122164687575191"><ele>713.0</ele><time>2026-04-29T08:24:31.025Z</time></trkpt><trkpt lat="40.09625527535599" lon="9.122011981539936"><ele>713.2</ele><time>2026-04-29T08:24:32.025Z</time></trkpt><trkpt lat="40.09623364545637" lon="9.121874776475247"><ele>713.4</ele><time>2026-04-29T08:24:33.025Z</time></trkpt><trkpt lat="40.09620578952098" lon="9.121758536073001"><ele>713.6</ele><time>2026-04-29T08:24:34.025Z</time></trkpt><trkpt lat="40.096156798061955" lon="9.121657062087005"><ele>713.8000000000001</ele><time>2026-04-29T08:24:35.025Z</time></trkpt><trkpt lat="40.09610316834592" lon="9.121561537849955"><ele>714.0</ele><time>2026-04-29T08:24:36.025Z</time></trkpt><trkpt lat="40.096049937363745" lon="9.121472780497259"><ele>714.0</ele><time>2026-04-29T08:24:37.025Z</time></trkpt><trkpt lat="40.096008420808154" lon="9.121388227251817"><ele>714.0</ele><time>2026-04-29T08:24:38.025Z</time></trkpt><trkpt lat="40.095985564371" lon="9.121293037557788"><ele>714.0</ele><time>2026-04-29T08:24:39.025Z</time></trkpt><trkpt lat="40.09598371876514" lon="9.121196883675907"><ele>714.0</ele><time>2026-04-29T08:24:40.025Z</time></trkpt><trkpt lat="40.09601678437489" lon="9.121104172906653"><ele>714.0</ele><time>2026-04-29T08:24:41.025Z</time></trkpt><trkpt lat="40.0960557764335" lon="9.120999563477493"><ele>714.0</ele><time>2026-04-29T08:24:42.025Z</time></trkpt><trkpt lat="40.096093051888836" lon="9.120886062442002"><ele>714.0</ele><time>2026-04-29T08:24:43.025Z</time></trkpt><trkpt lat="40.096126608845225" lon="9.120775473352388"><ele>714.0</ele><time>2026-04-29T08:24:44.025Z</time></trkpt><trkpt lat="40.09616021561899" lon="9.120662606221144"><ele>714.0</ele><time>2026-04-29T08:24:45.025Z</time></trkpt><trkpt lat="40.09620005643237" lon="9.12056361447488"><ele>714.0</ele><time>2026-04-29T08:24:46.025Z</time></trkpt><trkpt lat="40.096261663985594" lon="9.120479419202024"><ele>714.0</ele><time>2026-04-29T08:24:47.025Z</time></trkpt><trkpt lat="40.09633638736374" lon="9.120379201175021"><ele>716.2</ele><time>2026-04-29T08:24:48.025Z</time></trkpt><trkpt lat="40.09640497440697" lon="9.120281059379582"><ele>718.4000000000001</ele><time>2026-04-29T08:24:49.025Z</time></trkpt><trkpt lat="40.0964617971806" lon="9.120179813565187"><ele>720.6</ele><time>2026-04-29T08:24:50.025Z</time></trkpt><trkpt lat="40.096502804408196" lon="9.120071498145697"><ele>722.8</ele><time>2026-04-29T08:24:51.025Z</time></trkpt><trkpt lat="40.096519695849686" lon="9.119950454421303"><ele>725.0</ele><time>2026-04-29T08:24:52.025Z</time></trkpt><trkpt lat="40.09650919049643" lon="9.11983295653612"><ele>726.0</ele><time>2026-04-29T08:24:53.025Z</time></trkpt><trkpt lat="40.09648025243405" lon="9.119721061220755"><ele>727.0</ele><time>2026-04-29T08:24:54.025Z</time></trkpt><trkpt lat="40.09645442972355" lon="9.119603390304539"><ele>728.0</ele><time>2026-04-29T08:24:55.025Z</time></trkpt><trkpt lat="40.096438794493764" lon="9.119471662223555"><ele>729.0</ele><time>2026-04-29T08:24:56.025Z</time></trkpt><trkpt lat="40.09642113810189" lon="9.119337276049343"><ele>730.0</ele><time>2026-04-29T08:24:57.025Z</time></trkpt><trkpt lat="40.09640295113858" lon="9.119205741061274"><ele>730.0</ele><time>2026-04-29T08:24:58.025Z</time></trkpt><trkpt lat="40.09638123305222" lon="9.119077406653034"><ele>730.0</ele><time>2026-04-29T08:24:59.025Z</time></trkpt><trkpt lat="40.09635953811971" lon="9.118942971954652"><ele>730.0</ele><time>2026-04-29T08:25:00.025Z</time></trkpt><trkpt lat="40.096345403156676" lon="9.11880157620285"><ele>730.0</ele><time>2026-04-29T08:25:01.025Z</time></trkpt><trkpt lat="40.09634542981977" lon="9.118665602605812"><ele>730.0</ele><time>2026-04-29T08:25:02.025Z</time></trkpt><trkpt lat="40.09634041651899" lon="9.118526367371894"><ele>730.2</ele><time>2026-04-29T08:25:03.025Z</time></trkpt><trkpt lat="40.096343513821814" lon="9.118385139543815"><ele>730.4</ele><time>2026-04-29T08:25:04.025Z</time></trkpt><trkpt lat="40.096362977415474" lon="9.118230642423992"><ele>730.5999999999999</ele><time>2026-04-29T08:25:05.025Z</time></trkpt><trkpt lat="40.09635723031685" lon="9.11808285994606"><ele>730.8</ele><time>2026-04-29T08:25:06.025Z</time></trkpt><trkpt lat="40.09635487340126" lon="9.117944893190364"><ele>731.0</ele><time>2026-04-29T08:25:07.025Z</time></trkpt><trkpt lat="40.09633697521778" lon="9.117814965889155"><ele>730.1999999999999</ele><time>2026-04-29T08:25:08.025Z</time></trkpt><trkpt lat="40.09630224466088" lon="9.117685929070685"><ele>729.4</ele><time>2026-04-29T08:25:09.025Z</time></trkpt><trkpt lat="40.09627484864987" lon="9.117565748399281"><ele>728.6</ele><time>2026-04-29T08:25:10.025Z</time></trkpt><trkpt lat="40.096222691887995" lon="9.117457810601568"><ele>727.8</ele><time>2026-04-29T08:25:11.025Z</time></trkpt><trkpt lat="40.096153939878164" lon="9.117347304383001"><ele>727.0</ele><time>2026-04-29T08:25:12.025Z</time></trkpt><trkpt lat="40.09607878377333" lon="9.11725216581103"><ele>727.6</ele><time>2026-04-29T08:25:13.025Z</time></trkpt><trkpt lat="40.0959892695645" lon="9.117175423236406"><ele>728.2</ele><time>2026-04-29T08:25:14.025Z</time></trkpt><trkpt lat="40.09589003092118" lon="9.117115523929497"><ele>728.8</ele><time>2026-04-29T08:25:15.025Z</time></trkpt><trkpt lat="40.09578426286909" lon="9.117074693562436"><ele>729.4</ele><time>2026-04-29T08:25:16.025Z</time></trkpt><trkpt lat="40.0956785321091" lon="9.117047791366716"><ele>730.0</ele><time>2026-04-29T08:25:17.025Z</time></trkpt><trkpt lat="40.095568645550536" lon="9.11702765561043"><ele>730.0</ele><time>2026-04-29T08:25:18.025Z</time></trkpt><trkpt lat="40.095463505062824" lon="9.117010754360164"><ele>730.0</ele><time>2026-04-29T08:25:19.025Z</time></trkpt><trkpt lat="40.09535465056261" lon="9.116950137996154"><ele>730.0</ele><time>2026-04-29T08:25:20.025Z</time></trkpt><trkpt lat="40.095257780132656" lon="9.11685569207207"><ele>730.0</ele><time>2026-04-29T08:25:21.025Z</time></trkpt><trkpt lat="40.095170473420495" lon="9.116750301095255"><ele>730.0</ele><time>2026-04-29T08:25:22.025Z</time></trkpt><trkpt lat="40.09510696469274" lon="9.116624210218621"><ele>730.0</ele><time>2026-04-29T08:25:23.025Z</time></trkpt><trkpt lat="40.09506084178965" lon="9.116476122650795"><ele>730.0</ele><time>2026-04-29T08:25:24.025Z</time></trkpt><trkpt lat="40.094975587653146" lon="9.116374081082535"><ele>730.0</ele><time>2026-04-29T08:25:25.025Z</time></trkpt><trkpt lat="40.09487106177254" lon="9.116306731616776"><ele>732.0</ele><time>2026-04-29T08:25:26.025Z</time></trkpt><trkpt lat="40.094747635765444" lon="9.11627423957083"><ele>734.0</ele><time>2026-04-29T08:25:27.025Z</time></trkpt><trkpt lat="40.094612230739834" lon="9.116255842371052"><ele>736.0</ele><time>2026-04-29T08:25:28.025Z</time></trkpt><trkpt lat="40.09446918691368" lon="9.116238235289632"><ele>738.0</ele><time>2026-04-29T08:25:29.025Z</time></trkpt><trkpt lat="40.09432215542761" lon="9.116210392986577"><ele>738.0</ele><time>2026-04-29T08:25:30.025Z</time></trkpt><trkpt lat="40.09419491524706" lon="9.116180748432175"><ele>738.0</ele><time>2026-04-29T08:25:31.025Z</time></trkpt><trkpt lat="40.094077638478005" lon="9.11615883399136"><ele>738.0</ele><time>2026-04-29T08:25:32.025Z</time></trkpt><trkpt lat="40.093982798751746" lon="9.116108076317756"><ele>738.0</ele><time>2026-04-29T08:25:33.025Z</time></trkpt><trkpt lat="40.09390065215887" lon="9.116018557566111"><ele>741.25</ele><time>2026-04-29T08:25:34.025Z</time></trkpt><trkpt lat="40.09384244562783" lon="9.11589239672586"><ele>744.5</ele><time>2026-04-29T08:25:35.025Z</time></trkpt><trkpt lat="40.09380939992185" lon="9.115743366168978"><ele>747.75</ele><time>2026-04-29T08:25:36.025Z</time></trkpt><trkpt lat="40.093818641514645" lon="9.115604629931555"><ele>751.0</ele><time>2026-04-29T08:25:37.025Z</time></trkpt><trkpt lat="40.093851796344794" lon="9.115458861865292"><ele>751.0</ele><time>2026-04-29T08:25:38.025Z</time></trkpt><trkpt lat="40.09390089036435" lon="9.115345568620366"><ele>751.0</ele><time>2026-04-29T08:25:39.025Z</time></trkpt><trkpt lat="40.09394483279386" lon="9.115233827691858"><ele>751.0</ele><time>2026-04-29T08:25:40.025Z</time></trkpt><trkpt lat="40.09399025557246" lon="9.115100162097853"><ele>751.0</ele><time>2026-04-29T08:25:41.025Z</time></trkpt><trkpt lat="40.09399844018001" lon="9.114940828993522"><ele>751.0</ele><time>2026-04-29T08:25:42.025Z</time></trkpt><trkpt lat="40.093961417618424" lon="9.114796505242031"><ele>749.4</ele><time>2026-04-29T08:25:43.025Z</time></trkpt><trkpt lat="40.09388256361573" lon="9.114690261991019"><ele>747.8</ele><time>2026-04-29T08:25:44.025Z</time></trkpt><trkpt lat="40.09378323143942" lon="9.11465628901501"><ele>746.1999999999999</ele><time>2026-04-29T08:25:45.025Z</time></trkpt><trkpt lat="40.09368080681431" lon="9.114673610651034"><ele>744.5999999999999</ele><time>2026-04-29T08:25:46.025Z</time></trkpt><trkpt lat="40.09357237142102" lon="9.114742363660861"><ele>743.0</ele><time>2026-04-29T08:25:47.025Z</time></trkpt><trkpt lat="40.09347855891187" lon="9.114852680046136"><ele>745.0</ele><time>2026-04-29T08:25:48.025Z</time></trkpt><trkpt lat="40.093418559595584" lon="9.115008027833921"><ele>747.0</ele><time>2026-04-29T08:25:49.025Z</time></trkpt><trkpt lat="40.09337996874785" lon="9.115185935451867"><ele>749.0</ele><time>2026-04-29T08:25:50.025Z</time></trkpt><trkpt lat="40.09333966313717" lon="9.115374012055591"><ele>751.0</ele><time>2026-04-29T08:25:51.025Z</time></trkpt><trkpt lat="40.09329326305181" lon="9.115561561142417"><ele>756.5</ele><time>2026-04-29T08:25:52.025Z</time></trkpt><trkpt lat="40.093243060035206" lon="9.115741473090925"><ele>762.0</ele><time>2026-04-29T08:25:53.025Z</time></trkpt><trkpt lat="40.09319404160749" lon="9.115912954270645"><ele>767.5</ele><time>2026-04-29T08:25:54.025Z</time></trkpt><trkpt lat="40.093152087765866" lon="9.11607739473406"><ele>773.0</ele><time>2026-04-29T08:25:55.025Z</time></trkpt><trkpt lat="40.09312622910301" lon="9.116247003349349"><ele>773.0</ele><time>2026-04-29T08:25:56.025Z</time></trkpt><trkpt lat="40.0931411410617" lon="9.116417882373167"><ele>773.0</ele><time>2026-04-29T08:25:57.025Z</time></trkpt><trkpt lat="40.09319654911347" lon="9.116573571879838"><ele>773.0</ele><time>2026-04-29T08:25:58.025Z</time></trkpt><trkpt lat="40.093276532150135" lon="9.116720681378279"><ele>773.0</ele><time>2026-04-29T08:25:59.025Z</time></trkpt><trkpt lat="40.09337035020931" lon="9.116863525426798"><ele>769.0</ele><time>2026-04-29T08:26:00.025Z</time></trkpt><trkpt lat="40.09347654961703" lon="9.116986012286315"><ele>765.0</ele><time>2026-04-29T08:26:01.025Z</time></trkpt><trkpt lat="40.09359038273361" lon="9.117089690323779"><ele>761.0</ele><time>2026-04-29T08:26:02.025Z</time></trkpt><trkpt lat="40.09370851596971" lon="9.117184514953639"><ele>757.0</ele><time>2026-04-29T08:26:03.025Z</time></trkpt><trkpt lat="40.09381946684618" lon="9.117280857576695"><ele>757.0</ele><time>2026-04-29T08:26:04.025Z</time></trkpt><trkpt lat="40.09391706582402" lon="9.11737044242334"><ele>757.0</ele><time>2026-04-29T08:26:05.025Z</time></trkpt><trkpt lat="40.09399338951812" lon="9.117477329556484"><ele>757.0</ele><time>2026-04-29T08:26:06.025Z</time></trkpt><trkpt lat="40.094055461493205" lon="9.117614233246746"><ele>757.0</ele><time>2026-04-29T08:26:07.025Z</time></trkpt><trkpt lat="40.09408764366167" lon="9.117767560534489"><ele>758.75</ele><time>2026-04-29T08:26:08.025Z</time></trkpt><trkpt lat="40.094088111728134" lon="9.117919101293044"><ele>760.5</ele><time>2026-04-29T08:26:09.025Z</time></trkpt><trkpt lat="40.09406960183774" lon="9.118082919446532"><ele>762.25</ele><time>2026-04-29T08:26:10.025Z</time></trkpt><trkpt lat="40.09403539464388" lon="9.118261255753717"><ele>764.0</ele><time>2026-04-29T08:26:11.025Z</time></trkpt><trkpt lat="40.09400518446322" lon="9.118447944271493"><ele>766.5</ele><time>2026-04-29T08:26:12.025Z</time></trkpt><trkpt lat="40.09397833642435" lon="9.118640069165606"><ele>769.0</ele><time>2026-04-29T08:26:13.025Z</time></trkpt><trkpt lat="40.09395216539379" lon="9.118822460697846"><ele>771.5</ele><time>2026-04-29T08:26:14.025Z</time></trkpt><trkpt lat="40.093925910119744" lon="9.118990180579761"><ele>774.0</ele><time>2026-04-29T08:26:15.025Z</time></trkpt><trkpt lat="40.09391241815574" lon="9.119139594219517"><ele>775.0</ele><time>2026-04-29T08:26:16.025Z</time></trkpt><trkpt lat="40.09387550637221" lon="9.119265984243352"><ele>776.0</ele><time>2026-04-29T08:26:17.025Z</time></trkpt><trkpt lat="40.093799171654595" lon="9.119345514594343"><ele>777.0</ele><time>2026-04-29T08:26:18.025Z</time></trkpt><trkpt lat="40.09369766168826" lon="9.119372543059331"><ele>778.0</ele><time>2026-04-29T08:26:19.025Z</time></trkpt><trkpt lat="40.093604751772745" lon="9.119332200348827"><ele>779.0</ele><time>2026-04-29T08:26:20.025Z</time></trkpt><trkpt lat="40.09353526655445" lon="9.11923623088687"><ele>779.0</ele><time>2026-04-29T08:26:21.025Z</time></trkpt><trkpt lat="40.093507290501464" lon="9.119109503440251"><ele>779.0</ele><time>2026-04-29T08:26:22.025Z</time></trkpt><trkpt lat="40.09351924398711" lon="9.118954952592713"><ele>779.0</ele><time>2026-04-29T08:26:23.025Z</time></trkpt><trkpt lat="40.093548080623684" lon="9.118790998513767"><ele>779.0</ele><time>2026-04-29T08:26:24.027Z</time></trkpt><trkpt lat="40.09356805160689" lon="9.118618875797319"><ele>777.75</ele><time>2026-04-29T08:26:25.026Z</time></trkpt><trkpt lat="40.093560970781624" lon="9.118434904934597"><ele>776.5</ele><time>2026-04-29T08:26:26.026Z</time></trkpt><trkpt lat="40.0935298545786" lon="9.118268402834053"><ele>775.25</ele><time>2026-04-29T08:26:27.026Z</time></trkpt><trkpt lat="40.093463891541994" lon="9.118125030906755"><ele>774.0</ele><time>2026-04-29T08:26:28.026Z</time></trkpt><trkpt lat="40.09337368089863" lon="9.118014180906457"><ele>776.25</ele><time>2026-04-29T08:26:29.026Z</time></trkpt><trkpt lat="40.093265615468184" lon="9.117923611652575"><ele>778.5</ele><time>2026-04-29T08:26:30.027Z</time></trkpt><trkpt lat="40.09313820518282" lon="9.117849139923898"><ele>780.75</ele><time>2026-04-29T08:26:31.026Z</time></trkpt><trkpt lat="40.09300447118412" lon="9.117760538035224"><ele>783.0</ele><time>2026-04-29T08:26:32.026Z</time></trkpt><trkpt lat="40.09287932025261" lon="9.11765136792199"><ele>783.0</ele><time>2026-04-29T08:26:33.027Z</time></trkpt><trkpt lat="40.09277736869018" lon="9.117523279201565"><ele>783.0</ele><time>2026-04-29T08:26:34.026Z</time></trkpt><trkpt lat="40.092675770030766" lon="9.117386350606814"><ele>783.0</ele><time>2026-04-29T08:26:35.026Z</time></trkpt><trkpt lat="40.09258646449669" lon="9.117229004763802"><ele>783.0</ele><time>2026-04-29T08:26:36.026Z</time></trkpt><trkpt lat="40.09250799718101" lon="9.117058219366555"><ele>781.3333333333333</ele><time>2026-04-29T08:26:37.026Z</time></trkpt><trkpt lat="40.0924324685269" lon="9.116890669351351"><ele>779.6666666666666</ele><time>2026-04-29T08:26:38.026Z</time></trkpt><trkpt lat="40.092337197836336" lon="9.116736098088788"><ele>778.0</ele><time>2026-04-29T08:26:39.026Z</time></trkpt><trkpt lat="40.09222568493028" lon="9.116593990058073"><ele>780.0</ele><time>2026-04-29T08:26:40.026Z</time></trkpt><trkpt lat="40.092095246063074" lon="9.116469393862815"><ele>782.0</ele><time>2026-04-29T08:26:41.026Z</time></trkpt><trkpt lat="40.091952089874184" lon="9.116364321944067"><ele>784.0</ele><time>2026-04-29T08:26:42.026Z</time></trkpt><trkpt lat="40.09179820065456" lon="9.116282793913653"><ele>784.0</ele><time>2026-04-29T08:26:43.026Z</time></trkpt><trkpt lat="40.09163763374812" lon="9.116232202174059"><ele>784.0</ele><time>2026-04-29T08:26:44.026Z</time></trkpt><trkpt lat="40.09147037678451" lon="9.116222315795978"><ele>784.0</ele><time>2026-04-29T08:26:45.026Z</time></trkpt><trkpt lat="40.09130204452943" lon="9.116236416259751"><ele>787.3333333333333</ele><time>2026-04-29T08:26:46.026Z</time></trkpt><trkpt lat="40.09114142824747" lon="9.116270124271974"><ele>790.6666666666667</ele><time>2026-04-29T08:26:47.026Z</time></trkpt><trkpt lat="40.09099020607559" lon="9.116296449887631"><ele>794.0</ele><time>2026-04-29T08:26:48.026Z</time></trkpt><trkpt lat="40.090842396974494" lon="9.116295157954545"><ele>799.0</ele><time>2026-04-29T08:26:49.026Z</time></trkpt><trkpt lat="40.09070574856701" lon="9.11624733581078"><ele>804.0</ele><time>2026-04-29T08:26:50.026Z</time></trkpt><trkpt lat="40.09056496000796" lon="9.116153918550316"><ele>809.0</ele><time>2026-04-29T08:26:51.026Z</time></trkpt><trkpt lat="40.090453306430824" lon="9.116018000193684"><ele>809.0</ele><time>2026-04-29T08:26:52.026Z</time></trkpt><trkpt lat="40.090364676447734" lon="9.11586150491686"><ele>809.0</ele><time>2026-04-29T08:26:53.026Z</time></trkpt><trkpt lat="40.090306039011686" lon="9.115686032598385"><ele>809.0</ele><time>2026-04-29T08:26:54.026Z</time></trkpt><trkpt lat="40.090271857119156" lon="9.115494543665037"><ele>809.0</ele><time>2026-04-29T08:26:55.026Z</time></trkpt><trkpt lat="40.090236883140044" lon="9.115300873074581"><ele>808.25</ele><time>2026-04-29T08:26:56.026Z</time></trkpt><trkpt lat="40.09018417109797" lon="9.115125609805645"><ele>807.5</ele><time>2026-04-29T08:26:57.026Z</time></trkpt><trkpt lat="40.090106927874196" lon="9.114963691692196"><ele>806.75</ele><time>2026-04-29T08:26:58.026Z</time></trkpt><trkpt lat="40.0900050757782" lon="9.114819591923448"><ele>806.0</ele><time>2026-04-29T08:26:59.026Z</time></trkpt><trkpt lat="40.08988633745015" lon="9.11468657630733"><ele>808.5</ele><time>2026-04-29T08:27:00.026Z</time></trkpt><trkpt lat="40.08976257578136" lon="9.11457855913072"><ele>811.0</ele><time>2026-04-29T08:27:01.026Z</time></trkpt><trkpt lat="40.089635074536695" lon="9.114477735007366"><ele>813.5</ele><time>2026-04-29T08:27:02.026Z</time></trkpt><trkpt lat="40.08950937472317" lon="9.1143821203591"><ele>816.0</ele><time>2026-04-29T08:27:03.026Z</time></trkpt><trkpt lat="40.08940663440028" lon="9.114276762490606"><ele>816.0</ele><time>2026-04-29T08:27:04.026Z</time></trkpt><trkpt lat="40.08932926547115" lon="9.114153813130308"><ele>816.0</ele><time>2026-04-29T08:27:05.026Z</time></trkpt><trkpt lat="40.089261107103326" lon="9.114031285882072"><ele>816.0</ele><time>2026-04-29T08:27:06.026Z</time></trkpt><trkpt lat="40.08919767836132" lon="9.11392302726639"><ele>816.0</ele><time>2026-04-29T08:27:07.026Z</time></trkpt><trkpt lat="40.089124754099814" lon="9.113827028317287"><ele>816.0</ele><time>2026-04-29T08:27:08.026Z</time></trkpt><trkpt lat="40.08903858424242" lon="9.113751017230102"><ele>814.25</ele><time>2026-04-29T08:27:09.026Z</time></trkpt><trkpt lat="40.08893847330232" lon="9.113698213299719"><ele>812.5</ele><time>2026-04-29T08:27:10.026Z</time></trkpt><trkpt lat="40.088815145118716" lon="9.11367934559772"><ele>810.75</ele><time>2026-04-29T08:27:11.026Z</time></trkpt><trkpt lat="40.08868086562653" lon="9.11368478120328"><ele>809.0</ele><time>2026-04-29T08:27:12.026Z</time></trkpt><trkpt lat="40.088538601176936" lon="9.113688046386523"><ele>809.0</ele><time>2026-04-29T08:27:13.026Z</time></trkpt><trkpt lat="40.088389485678015" lon="9.113673471042123"><ele>809.0</ele><time>2026-04-29T08:27:14.026Z</time></trkpt><trkpt lat="40.088233734436585" lon="9.113644325678612"><ele>809.0</ele><time>2026-04-29T08:27:15.026Z</time></trkpt><trkpt lat="40.08807609501225" lon="9.113613829428422"><ele>812.3333333333334</ele><time>2026-04-29T08:27:16.026Z</time></trkpt><trkpt lat="40.08791013358843" lon="9.113583895069151"><ele>815.6666666666667</ele><time>2026-04-29T08:27:17.026Z</time></trkpt><trkpt lat="40.08774433847024" lon="9.113556957919986"><ele>819.0</ele><time>2026-04-29T08:27:18.026Z</time></trkpt><trkpt lat="40.08757503660126" lon="9.113529312921301"><ele>822.0</ele><time>2026-04-29T08:27:19.026Z</time></trkpt><trkpt lat="40.0874165351117" lon="9.113501612033609"><ele>825.0</ele><time>2026-04-29T08:27:20.026Z</time></trkpt><trkpt lat="40.08725658220727" lon="9.113474718811773"><ele>828.0</ele><time>2026-04-29T08:27:21.026Z</time></trkpt><trkpt lat="40.08709096171856" lon="9.113445373094654"><ele>828.0</ele><time>2026-04-29T08:27:22.026Z</time></trkpt><trkpt lat="40.08692311505682" lon="9.113415674741965"><ele>828.0</ele><time>2026-04-29T08:27:23.026Z</time></trkpt><trkpt lat="40.08675331258289" lon="9.113387584260726"><ele>828.0</ele><time>2026-04-29T08:27:24.026Z</time></trkpt><trkpt lat="40.08659016183546" lon="9.113358064816854"><ele>827.6666666666667</ele><time>2026-04-29T08:27:25.026Z</time></trkpt><trkpt lat="40.086431416728026" lon="9.11332478388457"><ele>827.3333333333334</ele><time>2026-04-29T08:27:26.026Z</time></trkpt><trkpt lat="40.08627831536425" lon="9.113268571274133"><ele>827.0</ele><time>2026-04-29T08:27:27.026Z</time></trkpt><trkpt lat="40.08614048333847" lon="9.113175160659727"><ele>827.0</ele><time>2026-04-29T08:27:28.026Z</time></trkpt><trkpt lat="40.08601849670526" lon="9.113045691229004"><ele>827.0</ele><time>2026-04-29T08:27:29.026Z</time></trkpt><trkpt lat="40.085908177547175" lon="9.112896696745937"><ele>827.0</ele><time>2026-04-29T08:27:30.026Z</time></trkpt><trkpt lat="40.08578855587474" lon="9.112754328442426"><ele>832.0</ele><time>2026-04-29T08:27:31.026Z</time></trkpt><trkpt lat="40.08565892565912" lon="9.112641402620662"><ele>837.0</ele><time>2026-04-29T08:27:32.026Z</time></trkpt><trkpt lat="40.085512152454164" lon="9.112552720345688"><ele>842.0</ele><time>2026-04-29T08:27:33.026Z</time></trkpt><trkpt lat="40.08535172416943" lon="9.112489580944073"><ele>842.0</ele><time>2026-04-29T08:27:34.026Z</time></trkpt><trkpt lat="40.08518292136031" lon="9.11244235932917"><ele>842.0</ele><time>2026-04-29T08:27:35.026Z</time></trkpt><trkpt lat="40.08500920320099" lon="9.112392948988482"><ele>842.0</ele><time>2026-04-29T08:27:36.026Z</time></trkpt><trkpt lat="40.08484617489956" lon="9.112336334235835"><ele>843.0</ele><time>2026-04-29T08:27:37.026Z</time></trkpt><trkpt lat="40.0846939595666" lon="9.112243761631643"><ele>844.0</ele><time>2026-04-29T08:27:38.026Z</time></trkpt><trkpt lat="40.08455380250307" lon="9.112131070083453"><ele>845.0</ele><time>2026-04-29T08:27:39.026Z</time></trkpt><trkpt lat="40.08441830154623" lon="9.112002053699598"><ele>845.0</ele><time>2026-04-29T08:27:40.026Z</time></trkpt><trkpt lat="40.08428527120805" lon="9.111863922084428"><ele>845.0</ele><time>2026-04-29T08:27:41.026Z</time></trkpt><trkpt lat="40.084147579070816" lon="9.111741856877668"><ele>845.0</ele><time>2026-04-29T08:27:42.026Z</time></trkpt><trkpt lat="40.08399769702729" lon="9.111643973630002"><ele>847.0</ele><time>2026-04-29T08:27:43.026Z</time></trkpt><trkpt lat="40.08383752420958" lon="9.111568352972553"><ele>849.0</ele><time>2026-04-29T08:27:44.026Z</time></trkpt><trkpt lat="40.08367045704194" lon="9.11149530563044"><ele>851.0</ele><time>2026-04-29T08:27:45.026Z</time></trkpt><trkpt lat="40.08350798025282" lon="9.111424524791106"><ele>851.0</ele><time>2026-04-29T08:27:46.026Z</time></trkpt><trkpt lat="40.083350003998746" lon="9.111350359630505"><ele>851.0</ele><time>2026-04-29T08:27:47.026Z</time></trkpt><trkpt lat="40.0831929276172" lon="9.111267028026594"><ele>851.0</ele><time>2026-04-29T08:27:48.026Z</time></trkpt><trkpt lat="40.08304373380633" lon="9.111163302048492"><ele>848.0</ele><time>2026-04-29T08:27:49.026Z</time></trkpt><trkpt lat="40.08291884498385" lon="9.111018525395066"><ele>845.0</ele><time>2026-04-29T08:27:50.026Z</time></trkpt><trkpt lat="40.08282125707256" lon="9.110851869794983"><ele>842.0</ele><time>2026-04-29T08:27:51.026Z</time></trkpt><trkpt lat="40.08275662371369" lon="9.110665904928752"><ele>842.0</ele><time>2026-04-29T08:27:52.026Z</time></trkpt><trkpt lat="40.08273050254214" lon="9.11046061827669"><ele>842.0</ele><time>2026-04-29T08:27:53.026Z</time></trkpt><trkpt lat="40.08273782266474" lon="9.110244168989865"><ele>842.0</ele><time>2026-04-29T08:27:54.026Z</time></trkpt><trkpt lat="40.082786024642154" lon="9.110032925269689"><ele>839.6666666666667</ele><time>2026-04-29T08:27:55.026Z</time></trkpt><trkpt lat="40.08286517612574" lon="9.109840053310888"><ele>837.3333333333333</ele><time>2026-04-29T08:27:56.026Z</time></trkpt><trkpt lat="40.082973459236044" lon="9.109675314907163"><ele>835.0</ele><time>2026-04-29T08:27:57.026Z</time></trkpt><trkpt lat="40.083097142051905" lon="9.109522495925107"><ele>835.0</ele><time>2026-04-29T08:27:58.026Z</time></trkpt><trkpt lat="40.083230327241424" lon="9.109367148015727"><ele>835.0</ele><time>2026-04-29T08:27:59.026Z</time></trkpt><trkpt lat="40.083364572972926" lon="9.109210603516043"><ele>835.0</ele><time>2026-04-29T08:28:00.026Z</time></trkpt><trkpt lat="40.08349659159211" lon="9.109049078507237"><ele>833.0</ele><time>2026-04-29T08:28:01.026Z</time></trkpt><trkpt lat="40.083609238725984" lon="9.108875698311833"><ele>831.0</ele><time>2026-04-29T08:28:02.026Z</time></trkpt><trkpt lat="40.08369178565928" lon="9.108679777193794"><ele>829.0</ele><time>2026-04-29T08:28:03.026Z</time></trkpt><trkpt lat="40.08374763694402" lon="9.10847896216894"><ele>829.0</ele><time>2026-04-29T08:28:04.026Z</time></trkpt><trkpt lat="40.083771808146345" lon="9.108285619081185"><ele>829.0</ele><time>2026-04-29T08:28:05.026Z</time></trkpt><trkpt lat="40.08376284963354" lon="9.108098711325903"><ele>829.0</ele><time>2026-04-29T08:28:06.026Z</time></trkpt><trkpt lat="40.08373517155954" lon="9.10791279007596"><ele>829.0</ele><time>2026-04-29T08:28:07.026Z</time></trkpt><trkpt lat="40.08369326111428" lon="9.107720461224696"><ele>829.0</ele><time>2026-04-29T08:28:08.026Z</time></trkpt><trkpt lat="40.0836210215509" lon="9.107534423949046"><ele>829.0</ele><time>2026-04-29T08:28:09.026Z</time></trkpt><trkpt lat="40.08352064479012" lon="9.107363428137967"><ele>829.0</ele><time>2026-04-29T08:28:10.026Z</time></trkpt><trkpt lat="40.08339937502565" lon="9.107209188059224"><ele>828.3333333333333</ele><time>2026-04-29T08:28:11.026Z</time></trkpt><trkpt lat="40.08326339012679" lon="9.107088726500356"><ele>827.6666666666667</ele><time>2026-04-29T08:28:12.025Z</time></trkpt><trkpt lat="40.08311500446635" lon="9.10699012741002"><ele>827.0</ele><time>2026-04-29T08:28:13.025Z</time></trkpt><trkpt lat="40.08295395766227" lon="9.10690553750048"><ele>827.0</ele><time>2026-04-29T08:28:14.025Z</time></trkpt><trkpt lat="40.082788783804084" lon="9.106812402976368"><ele>827.0</ele><time>2026-04-29T08:28:15.025Z</time></trkpt><trkpt lat="40.082623453565716" lon="9.10672819551837"><ele>827.0</ele><time>2026-04-29T08:28:16.025Z</time></trkpt><trkpt lat="40.082461795402885" lon="9.106647067993102"><ele>830.3333333333334</ele><time>2026-04-29T08:28:17.025Z</time></trkpt><trkpt lat="40.08230416830354" lon="9.106549349766313"><ele>833.6666666666667</ele><time>2026-04-29T08:28:18.025Z</time></trkpt><trkpt lat="40.082141634444646" lon="9.106475610732922"><ele>837.0</ele><time>2026-04-29T08:28:19.025Z</time></trkpt><trkpt lat="40.08197906915173" lon="9.106408753495167"><ele>837.0</ele><time>2026-04-29T08:28:20.025Z</time></trkpt><trkpt lat="40.08181976390181" lon="9.106336490290966"><ele>837.0</ele><time>2026-04-29T08:28:21.025Z</time></trkpt><trkpt lat="40.08166199164996" lon="9.106264734214179"><ele>837.0</ele><time>2026-04-29T08:28:22.025Z</time></trkpt><trkpt lat="40.08150421874241" lon="9.106205444778709"><ele>834.0</ele><time>2026-04-29T08:28:23.025Z</time></trkpt><trkpt lat="40.08134472761388" lon="9.106140301083636"><ele>831.0</ele><time>2026-04-29T08:28:24.025Z</time></trkpt><trkpt lat="40.08118565212556" lon="9.106081209908067"><ele>828.0</ele><time>2026-04-29T08:28:25.025Z</time></trkpt><trkpt lat="40.081028451080506" lon="9.106016578529522"><ele>828.0</ele><time>2026-04-29T08:28:26.025Z</time></trkpt><trkpt lat="40.08086498217262" lon="9.105955016858013"><ele>828.0</ele><time>2026-04-29T08:28:27.025Z</time></trkpt><trkpt lat="40.08070052711486" lon="9.105888767884133"><ele>828.0</ele><time>2026-04-29T08:28:28.025Z</time></trkpt><trkpt lat="40.08053844460353" lon="9.105826927606069"><ele>830.0</ele><time>2026-04-29T08:28:29.025Z</time></trkpt><trkpt lat="40.08037843130044" lon="9.105758642709398"><ele>832.0</ele><time>2026-04-29T08:28:30.027Z</time></trkpt><trkpt lat="40.08021440676513" lon="9.105711923687437"><ele>834.0</ele><time>2026-04-29T08:28:31.028Z</time></trkpt><trkpt lat="40.08004559855737" lon="9.10567550030049"><ele>833.0</ele><time>2026-04-29T08:28:32.028Z</time></trkpt><trkpt lat="40.079871854166775" lon="9.105649024651433"><ele>832.0</ele><time>2026-04-29T08:28:33.028Z</time></trkpt><trkpt lat="40.07970237450432" lon="9.10562515698466"><ele>831.0</ele><time>2026-04-29T08:28:34.027Z</time></trkpt><trkpt lat="40.07953067419754" lon="9.105599375219478"><ele>831.0</ele><time>2026-04-29T08:28:35.027Z</time></trkpt><trkpt lat="40.07935600876073" lon="9.105570358290882"><ele>831.0</ele><time>2026-04-29T08:28:36.028Z</time></trkpt><trkpt lat="40.07918319110629" lon="9.105547279340591"><ele>831.0</ele><time>2026-04-29T08:28:37.028Z</time></trkpt><trkpt lat="40.079014389026135" lon="9.105533782830395"><ele>828.3333333333333</ele><time>2026-04-29T08:28:38.028Z</time></trkpt><trkpt lat="40.07884600894755" lon="9.105539050340063"><ele>825.6666666666666</ele><time>2026-04-29T08:28:39.028Z</time></trkpt><trkpt lat="40.07868093822689" lon="9.105560322779926"><ele>823.0</ele><time>2026-04-29T08:28:40.027Z</time></trkpt><trkpt lat="40.07852718450841" lon="9.105594012362626"><ele>823.0</ele><time>2026-04-29T08:28:41.027Z</time></trkpt><trkpt lat="40.07837964664448" lon="9.105619703410401"><ele>823.0</ele><time>2026-04-29T08:28:42.027Z</time></trkpt><trkpt lat="40.078231562488405" lon="9.105630048990674"><ele>823.0</ele><time>2026-04-29T08:28:43.027Z</time></trkpt><trkpt lat="40.078089849428636" lon="9.105595365408366"><ele>823.0</ele><time>2026-04-29T08:28:44.027Z</time></trkpt><trkpt lat="40.07796530608693" lon="9.105521151292002"><ele>820.25</ele><time>2026-04-29T08:28:45.027Z</time></trkpt><trkpt lat="40.077860203295266" lon="9.105402794377037"><ele>817.5</ele><time>2026-04-29T08:28:46.027Z</time></trkpt><trkpt lat="40.077766789613385" lon="9.105248132243927"><ele>814.75</ele><time>2026-04-29T08:28:47.027Z</time></trkpt><trkpt lat="40.07768974505321" lon="9.105066618116144"><ele>812.0</ele><time>2026-04-29T08:28:48.027Z</time></trkpt><trkpt lat="40.077642389856656" lon="9.10485492102595"><ele>812.0</ele><time>2026-04-29T08:28:49.027Z</time></trkpt><trkpt lat="40.077608342345854" lon="9.10463801915383"><ele>812.0</ele><time>2026-04-29T08:28:50.027Z</time></trkpt><trkpt lat="40.07756030247987" lon="9.104449065655528"><ele>812.0</ele><time>2026-04-29T08:28:51.027Z</time></trkpt><trkpt lat="40.07748161529591" lon="9.104281689495943"><ele>811.3333333333334</ele><time>2026-04-29T08:28:52.027Z</time></trkpt><trkpt lat="40.07737358339267" lon="9.104155553549258"><ele>810.6666666666667</ele><time>2026-04-29T08:28:53.027Z</time></trkpt><trkpt lat="40.07722523038582" lon="9.104059584738776"><ele>810.0</ele><time>2026-04-29T08:28:54.027Z</time></trkpt><trkpt lat="40.07705007385242" lon="9.104004438448367"><ele>810.0</ele><time>2026-04-29T08:28:55.027Z</time></trkpt><trkpt lat="40.07686133618707" lon="9.103969338839843"><ele>810.0</ele><time>2026-04-29T08:28:56.027Z</time></trkpt><trkpt lat="40.07667447524392" lon="9.103939246106997"><ele>810.0</ele><time>2026-04-29T08:28:57.027Z</time></trkpt><trkpt lat="40.07649069988342" lon="9.103903274574593"><ele>807.3333333333333</ele><time>2026-04-29T08:28:58.027Z</time></trkpt><trkpt lat="40.076301001283994" lon="9.103871369836313"><ele>804.6666666666666</ele><time>2026-04-29T08:28:59.027Z</time></trkpt><trkpt lat="40.07610890158697" lon="9.103854775569683"><ele>802.0</ele><time>2026-04-29T08:29:00.027Z</time></trkpt><trkpt lat="40.07591854656869" lon="9.103859107143712"><ele>798.3333333333333</ele><time>2026-04-29T08:29:01.027Z</time></trkpt><trkpt lat="40.07573599424464" lon="9.103883913398143"><ele>794.6666666666667</ele><time>2026-04-29T08:29:02.027Z</time></trkpt><trkpt lat="40.075575926902545" lon="9.103922423632648"><ele>791.0</ele><time>2026-04-29T08:29:03.027Z</time></trkpt><trkpt lat="40.07543495811574" lon="9.103940901871212"><ele>791.0</ele><time>2026-04-29T08:29:04.027Z</time></trkpt><trkpt lat="40.075316507320196" lon="9.103931157397449"><ele>791.0</ele><time>2026-04-29T08:29:05.027Z</time></trkpt><trkpt lat="40.075210749311225" lon="9.103872284891294"><ele>791.0</ele><time>2026-04-29T08:29:06.027Z</time></trkpt><trkpt lat="40.075137996738185" lon="9.103760999197302"><ele>791.0</ele><time>2026-04-29T08:29:07.027Z</time></trkpt><trkpt lat="40.075101066681576" lon="9.103610424171507"><ele>791.0</ele><time>2026-04-29T08:29:08.027Z</time></trkpt><trkpt lat="40.07511056856063" lon="9.103445332529441"><ele>791.0</ele><time>2026-04-29T08:29:09.027Z</time></trkpt><trkpt lat="40.07516631258583" lon="9.103296072282829"><ele>791.0</ele><time>2026-04-29T08:29:10.027Z</time></trkpt><trkpt lat="40.07525604415143" lon="9.103186725139295"><ele>791.0</ele><time>2026-04-29T08:29:11.027Z</time></trkpt><trkpt lat="40.07536160825785" lon="9.10308225097799"><ele>790.0</ele><time>2026-04-29T08:29:12.027Z</time></trkpt><trkpt lat="40.07545117314396" lon="9.10295502780785"><ele>789.0</ele><time>2026-04-29T08:29:13.027Z</time></trkpt><trkpt lat="40.07552193376161" lon="9.102807594597076"><ele>788.0</ele><time>2026-04-29T08:29:14.027Z</time></trkpt><trkpt lat="40.07556162549381" lon="9.102638829007303"><ele>787.0</ele><time>2026-04-29T08:29:15.027Z</time></trkpt><trkpt lat="40.07556145383752" lon="9.102450111437646"><ele>788.5</ele><time>2026-04-29T08:29:16.027Z</time></trkpt><trkpt lat="40.075533364584686" lon="9.102272589993511"><ele>790.0</ele><time>2026-04-29T08:29:17.027Z</time></trkpt><trkpt lat="40.07546863788934" lon="9.102107835883558"><ele>791.5</ele><time>2026-04-29T08:29:18.027Z</time></trkpt><trkpt lat="40.07537206704353" lon="9.101954424104525"><ele>793.0</ele><time>2026-04-29T08:29:19.027Z</time></trkpt><trkpt lat="40.07525821951621" lon="9.101811614276247"><ele>793.0</ele><time>2026-04-29T08:29:20.027Z</time></trkpt><trkpt lat="40.07513405069813" lon="9.101672328398744"><ele>793.0</ele><time>2026-04-29T08:29:21.027Z</time></trkpt><trkpt lat="40.07500769439604" lon="9.101524912454137"><ele>793.0</ele><time>2026-04-29T08:29:22.027Z</time></trkpt><trkpt lat="40.074886220782446" lon="9.101362088254287"><ele>793.0</ele><time>2026-04-29T08:29:23.027Z</time></trkpt><trkpt lat="40.0747617106254" lon="9.101196934614938"><ele>793.0</ele><time>2026-04-29T08:29:24.027Z</time></trkpt><trkpt lat="40.07462546083275" lon="9.101037055796603"><ele>793.0</ele><time>2026-04-29T08:29:25.027Z</time></trkpt><trkpt lat="40.07449261645242" lon="9.100871377827131"><ele>795.0</ele><time>2026-04-29T08:29:26.027Z</time></trkpt><trkpt lat="40.07435053401207" lon="9.100714349822942"><ele>797.0</ele><time>2026-04-29T08:29:27.027Z</time></trkpt><trkpt lat="40.07419646415765" lon="9.10057121102285"><ele>799.0</ele><time>2026-04-29T08:29:28.027Z</time></trkpt><trkpt lat="40.074035300007864" lon="9.100442621086472"><ele>799.6666666666666</ele><time>2026-04-29T08:29:29.027Z</time></trkpt><trkpt lat="40.07386396950818" lon="9.100342050857531"><ele>800.3333333333333</ele><time>2026-04-29T08:29:30.027Z</time></trkpt><trkpt lat="40.073684299109345" lon="9.100252102215643"><ele>801.0</ele><time>2026-04-29T08:29:31.027Z</time></trkpt><trkpt lat="40.07350164085825" lon="9.100158015095815"><ele>801.0</ele><time>2026-04-29T08:29:32.027Z</time></trkpt><trkpt lat="40.07332077652143" lon="9.100061811051312"><ele>801.0</ele><time>2026-04-29T08:29:33.027Z</time></trkpt><trkpt lat="40.073148383267416" lon="9.099972365846462"><ele>801.0</ele><time>2026-04-29T08:29:34.027Z</time></trkpt><trkpt lat="40.07301137410158" lon="9.099884164212959"><ele>800.0</ele><time>2026-04-29T08:29:35.027Z</time></trkpt><trkpt lat="40.07289884608266" lon="9.099794647736028"><ele>799.0</ele><time>2026-04-29T08:29:36.027Z</time></trkpt><trkpt lat="40.072822486315204" lon="9.09966705036997"><ele>798.0</ele><time>2026-04-29T08:29:37.027Z</time></trkpt><trkpt lat="40.072753143799005" lon="9.099529290614628"><ele>797.0</ele><time>2026-04-29T08:29:38.027Z</time></trkpt><trkpt lat="40.07270458179626" lon="9.099366333521601"><ele>797.0</ele><time>2026-04-29T08:29:39.027Z</time></trkpt><trkpt lat="40.07266962442147" lon="9.099188343392118"><ele>797.0</ele><time>2026-04-29T08:29:40.027Z</time></trkpt><trkpt lat="40.07267083697289" lon="9.098996487102408"><ele>797.0</ele><time>2026-04-29T08:29:41.027Z</time></trkpt><trkpt lat="40.07268945033839" lon="9.09880086978785"><ele>797.0</ele><time>2026-04-29T08:29:42.027Z</time></trkpt><trkpt lat="40.07274958201584" lon="9.098615454597029"><ele>794.0</ele><time>2026-04-29T08:29:43.027Z</time></trkpt><trkpt lat="40.07283199310883" lon="9.098488636486675"><ele>791.0</ele><time>2026-04-29T08:29:44.027Z</time></trkpt><trkpt lat="40.07295304948905" lon="9.098376408817069"><ele>788.0</ele><time>2026-04-29T08:29:45.027Z</time></trkpt><trkpt lat="40.073111106550954" lon="9.098199654243365"><ele>785.6666666666667</ele><time>2026-04-29T08:29:46.027Z</time></trkpt><trkpt lat="40.07324430151409" lon="9.098083119810275"><ele>783.3333333333333</ele><time>2026-04-29T08:29:47.027Z</time></trkpt><trkpt lat="40.07339832712687" lon="9.098027825523586"><ele>781.0</ele><time>2026-04-29T08:29:48.027Z</time></trkpt><trkpt lat="40.07355839197484" lon="9.097989657487412"><ele>781.0</ele><time>2026-04-29T08:29:49.027Z</time></trkpt><trkpt lat="40.07370988722255" lon="9.097966348155634"><ele>781.0</ele><time>2026-04-29T08:29:50.027Z</time></trkpt><trkpt lat="40.07384257184178" lon="9.097935280147505"><ele>781.0</ele><time>2026-04-29T08:29:51.027Z</time></trkpt><trkpt lat="40.07397522311438" lon="9.097896857817407"><ele>781.0</ele><time>2026-04-29T08:29:52.027Z</time></trkpt><trkpt lat="40.07410685467711" lon="9.09784743169786"><ele>781.0</ele><time>2026-04-29T08:29:53.027Z</time></trkpt><trkpt lat="40.07422264471061" lon="9.097769241698103"><ele>781.0</ele><time>2026-04-29T08:29:54.027Z</time></trkpt><trkpt lat="40.07431670809206" lon="9.097658134141069"><ele>781.0</ele><time>2026-04-29T08:29:55.027Z</time></trkpt><trkpt lat="40.07438814651445" lon="9.097529705447586"><ele>781.0</ele><time>2026-04-29T08:29:56.027Z</time></trkpt><trkpt lat="40.07444234226506" lon="9.097359510009552"><ele>781.0</ele><time>2026-04-29T08:29:57.027Z</time></trkpt><trkpt lat="40.07445799092724" lon="9.097191063694957"><ele>781.0</ele><time>2026-04-29T08:29:58.027Z</time></trkpt><trkpt lat="40.074450309706194" lon="9.09700333581514"><ele>781.0</ele><time>2026-04-29T08:29:59.027Z</time></trkpt><trkpt lat="40.07440805132086" lon="9.096831450808157"><ele>781.0</ele><time>2026-04-29T08:30:00.027Z</time></trkpt><trkpt lat="40.074331353427084" lon="9.096688753137105"><ele>780.0</ele><time>2026-04-29T08:30:01.027Z</time></trkpt><trkpt lat="40.07422612054336" lon="9.096563475766539"><ele>779.0</ele><time>2026-04-29T08:30:02.027Z</time></trkpt><trkpt lat="40.07409646717174" lon="9.096447569321114"><ele>778.0</ele><time>2026-04-29T08:30:03.027Z</time></trkpt><trkpt lat="40.073938183047346" lon="9.096357154724025"><ele>778.0</ele><time>2026-04-29T08:30:04.027Z</time></trkpt><trkpt lat="40.07376436283154" lon="9.096281364806842"><ele>778.0</ele><time>2026-04-29T08:30:05.027Z</time></trkpt><trkpt lat="40.0735975181501" lon="9.096204062535172"><ele>778.0</ele><time>2026-04-29T08:30:06.027Z</time></trkpt><trkpt lat="40.07343624248045" lon="9.096117953116636"><ele>776.6666666666666</ele><time>2026-04-29T08:30:07.027Z</time></trkpt><trkpt lat="40.073266261825964" lon="9.09603743483227"><ele>775.3333333333333</ele><time>2026-04-29T08:30:08.027Z</time></trkpt><trkpt lat="40.07309844227235" lon="9.095963013304527"><ele>774.0</ele><time>2026-04-29T08:30:09.027Z</time></trkpt><trkpt lat="40.07292320311974" lon="9.095917919958161"><ele>774.0</ele><time>2026-04-29T08:30:10.027Z</time></trkpt><trkpt lat="40.07273718713363" lon="9.09591114586585"><ele>774.0</ele><time>2026-04-29T08:30:11.027Z</time></trkpt><trkpt lat="40.07255244786847" lon="9.095925923505726"><ele>774.0</ele><time>2026-04-29T08:30:12.027Z</time></trkpt><trkpt lat="40.072372624074674" lon="9.095940763818236"><ele>771.6666666666666</ele><time>2026-04-29T08:30:13.027Z</time></trkpt><trkpt lat="40.07219311954693" lon="9.095960857796676"><ele>769.3333333333333</ele><time>2026-04-29T08:30:14.027Z</time></trkpt><trkpt lat="40.0720282505957" lon="9.095969209535223"><ele>767.0</ele><time>2026-04-29T08:30:15.027Z</time></trkpt><trkpt lat="40.07185612165604" lon="9.09596590809595"><ele>767.0</ele><time>2026-04-29T08:30:16.027Z</time></trkpt><trkpt lat="40.071678391129865" lon="9.095949228688253"><ele>767.0</ele><time>2026-04-29T08:30:17.027Z</time></trkpt><trkpt lat="40.07149809951848" lon="9.095912283464214"><ele>767.0</ele><time>2026-04-29T08:30:18.027Z</time></trkpt><trkpt lat="40.07131814001064" lon="9.095859928247913"><ele>764.3333333333333</ele><time>2026-04-29T08:30:19.027Z</time></trkpt><trkpt lat="40.071149097714" lon="9.09577263792425"><ele>761.6666666666666</ele><time>2026-04-29T08:30:20.027Z</time></trkpt><trkpt lat="40.07100416424464" lon="9.095650366530043"><ele>759.0</ele><time>2026-04-29T08:30:21.027Z</time></trkpt><trkpt lat="40.07088843481731" lon="9.095490042147555"><ele>759.0</ele><time>2026-04-29T08:30:22.027Z</time></trkpt><trkpt lat="40.07079371882606" lon="9.095314445716552"><ele>759.0</ele><time>2026-04-29T08:30:23.027Z</time></trkpt><trkpt lat="40.070731239004814" lon="9.095140137209702"><ele>759.0</ele><time>2026-04-29T08:30:24.027Z</time></trkpt><trkpt lat="40.07071442653563" lon="9.09496253499228"><ele>759.0</ele><time>2026-04-29T08:30:25.027Z</time></trkpt><trkpt lat="40.07074477003527" lon="9.094787327406841"><ele>758.0</ele><time>2026-04-29T08:30:26.027Z</time></trkpt><trkpt lat="40.07079153695264" lon="9.094599684674083"><ele>757.0</ele><time>2026-04-29T08:30:27.027Z</time></trkpt><trkpt lat="40.070839215233136" lon="9.094418942709714"><ele>756.0</ele><time>2026-04-29T08:30:28.027Z</time></trkpt><trkpt lat="40.07087082064348" lon="9.094239883343908"><ele>755.0</ele><time>2026-04-29T08:30:29.027Z</time></trkpt><trkpt lat="40.070877532564985" lon="9.09406021067564"><ele>754.5</ele><time>2026-04-29T08:30:30.027Z</time></trkpt><trkpt lat="40.070865914497894" lon="9.09388540659459"><ele>754.0</ele><time>2026-04-29T08:30:31.027Z</time></trkpt><trkpt lat="40.07085036929177" lon="9.093722246762216"><ele>753.5</ele><time>2026-04-29T08:30:32.027Z</time></trkpt><trkpt lat="40.070838506272146" lon="9.093562112389018"><ele>753.0</ele><time>2026-04-29T08:30:33.027Z</time></trkpt><trkpt lat="40.07083006182644" lon="9.093403749804285"><ele>751.75</ele><time>2026-04-29T08:30:34.027Z</time></trkpt><trkpt lat="40.07082442495555" lon="9.093249492355701"><ele>750.5</ele><time>2026-04-29T08:30:35.027Z</time></trkpt><trkpt lat="40.07083136722308" lon="9.093097473130383"><ele>749.25</ele><time>2026-04-29T08:30:36.029Z</time></trkpt><trkpt lat="40.070847701979325" lon="9.092944122477974"><ele>748.0</ele><time>2026-04-29T08:30:37.029Z</time></trkpt><trkpt lat="40.07086543954784" lon="9.092790689453663"><ele>748.0</ele><time>2026-04-29T08:30:38.029Z</time></trkpt><trkpt lat="40.07088310249324" lon="9.092633245027463"><ele>748.0</ele><time>2026-04-29T08:30:39.029Z</time></trkpt><trkpt lat="40.070910022787025" lon="9.092479772931744"><ele>748.0</ele><time>2026-04-29T08:30:40.028Z</time></trkpt><trkpt lat="40.07093848985924" lon="9.092333049773696"><ele>748.0</ele><time>2026-04-29T08:30:41.028Z</time></trkpt><trkpt lat="40.07097029454709" lon="9.092190486828205"><ele>747.0</ele><time>2026-04-29T08:30:42.03Z</time></trkpt><trkpt lat="40.0710013908601" lon="9.092055180338987"><ele>746.0</ele><time>2026-04-29T08:30:43.029Z</time></trkpt><trkpt lat="40.07102685590478" lon="9.091922786580296"><ele>745.0</ele><time>2026-04-29T08:30:44.029Z</time></trkpt><trkpt lat="40.07104324245101" lon="9.091791254706"><ele>744.0</ele><time>2026-04-29T08:30:45.029Z</time></trkpt><trkpt lat="40.071059957883904" lon="9.09166318519266"><ele>743.0</ele><time>2026-04-29T08:30:46.029Z</time></trkpt><trkpt lat="40.07107557690837" lon="9.09153806828413"><ele>742.5999999999999</ele><time>2026-04-29T08:30:47.029Z</time></trkpt><trkpt lat="40.07108062119357" lon="9.091419913113937"><ele>742.1999999999999</ele><time>2026-04-29T08:30:48.029Z</time></trkpt><trkpt lat="40.071087390403235" lon="9.091298067505514"><ele>741.8</ele><time>2026-04-29T08:30:49.029Z</time></trkpt><trkpt lat="40.0710966197247" lon="9.091175815539893"><ele>741.4</ele><time>2026-04-29T08:30:50.029Z</time></trkpt><trkpt lat="40.07110691640592" lon="9.091056788673267"><ele>741.0</ele><time>2026-04-29T08:30:51.029Z</time></trkpt><trkpt lat="40.07111998309349" lon="9.090938910114874"><ele>741.0</ele><time>2026-04-29T08:30:52.029Z</time></trkpt><trkpt lat="40.071131229459716" lon="9.0908148346985"><ele>741.0</ele><time>2026-04-29T08:30:53.029Z</time></trkpt><trkpt lat="40.07114199177164" lon="9.090697948212656"><ele>741.0</ele><time>2026-04-29T08:30:54.029Z</time></trkpt><trkpt lat="40.0711490650477" lon="9.09057825497088"><ele>741.0</ele><time>2026-04-29T08:30:55.029Z</time></trkpt><trkpt lat="40.07116271506419" lon="9.090458385582084"><ele>741.0</ele><time>2026-04-29T08:30:56.029Z</time></trkpt><trkpt lat="40.07117138617962" lon="9.090330083791002"><ele>741.1999999999999</ele><time>2026-04-29T08:30:57.029Z</time></trkpt><trkpt lat="40.07117011907015" lon="9.090207252296798"><ele>741.4</ele><time>2026-04-29T08:30:58.029Z</time></trkpt><trkpt lat="40.07117756187358" lon="9.090077169730431"><ele>741.6</ele><time>2026-04-29T08:30:59.029Z</time></trkpt><trkpt lat="40.07118597952411" lon="9.089943784951771"><ele>741.8</ele><time>2026-04-29T08:31:00.029Z</time></trkpt><trkpt lat="40.071195581863456" lon="9.089825726096782"><ele>742.0</ele><time>2026-04-29T08:31:01.029Z</time></trkpt><trkpt lat="40.071175175733295" lon="9.089705071456931"><ele>741.2</ele><time>2026-04-29T08:31:02.029Z</time></trkpt><trkpt lat="40.07114174696329" lon="9.08958065814528"><ele>740.4000000000001</ele><time>2026-04-29T08:31:03.029Z</time></trkpt><trkpt lat="40.07110849212256" lon="9.08946736983536"><ele>739.5999999999999</ele><time>2026-04-29T08:31:04.029Z</time></trkpt><trkpt lat="40.0710650898801" lon="9.089362922640172"><ele>738.8</ele><time>2026-04-29T08:31:05.029Z</time></trkpt><trkpt lat="40.0710033623463" lon="9.089273877777792"><ele>738.0</ele><time>2026-04-29T08:31:06.029Z</time></trkpt><trkpt lat="40.07094333083775" lon="9.08918272447719"><ele>738.0</ele><time>2026-04-29T08:31:07.029Z</time></trkpt><trkpt lat="40.070905334996034" lon="9.08909513485983"><ele>738.0</ele><time>2026-04-29T08:31:08.029Z</time></trkpt><trkpt lat="40.07089943147664" lon="9.088998276352445"><ele>738.0</ele><time>2026-04-29T08:31:09.029Z</time></trkpt><trkpt lat="40.070927493918376" lon="9.088899672416886"><ele>738.0</ele><time>2026-04-29T08:31:10.029Z</time></trkpt><trkpt lat="40.070957527916896" lon="9.088790466206856"><ele>738.0</ele><time>2026-04-29T08:31:11.029Z</time></trkpt><trkpt lat="40.070987792626376" lon="9.088689148187198"><ele>738.0</ele><time>2026-04-29T08:31:12.029Z</time></trkpt><trkpt lat="40.071002679243335" lon="9.088604541291385"><ele>737.1666666666666</ele><time>2026-04-29T08:31:13.029Z</time></trkpt><trkpt lat="40.071009296417245" lon="9.088507562404326"><ele>736.3333333333334</ele><time>2026-04-29T08:31:14.029Z</time></trkpt><trkpt lat="40.07100826271648" lon="9.088412931956423"><ele>735.5</ele><time>2026-04-29T08:31:15.029Z</time></trkpt><trkpt lat="40.070985191419666" lon="9.08829398566599"><ele>734.6666666666667</ele><time>2026-04-29T08:31:16.029Z</time></trkpt><trkpt lat="40.07094613894874" lon="9.08818312275099"><ele>733.8333333333334</ele><time>2026-04-29T08:31:17.029Z</time></trkpt><trkpt lat="40.07091720724654" lon="9.088077332639946"><ele>733.0</ele><time>2026-04-29T08:31:18.029Z</time></trkpt><trkpt lat="40.070892218446446" lon="9.087957657226848"><ele>732.0</ele><time>2026-04-29T08:31:19.029Z</time></trkpt><trkpt lat="40.07087066398232" lon="9.087835845006099"><ele>731.0</ele><time>2026-04-29T08:31:20.029Z</time></trkpt><trkpt lat="40.07085560471063" lon="9.087706257488627"><ele>730.0</ele><time>2026-04-29T08:31:21.029Z</time></trkpt><trkpt lat="40.07084602988731" lon="9.087574200741948"><ele>729.0</ele><time>2026-04-29T08:31:22.029Z</time></trkpt><trkpt lat="40.07083641400984" lon="9.087437193123957"><ele>728.0</ele><time>2026-04-29T08:31:23.029Z</time></trkpt><trkpt lat="40.0708252403551" lon="9.087297972327978"><ele>727.5999999999999</ele><time>2026-04-29T08:31:24.029Z</time></trkpt><trkpt lat="40.07081845130043" lon="9.087159410344187"><ele>727.1999999999999</ele><time>2026-04-29T08:31:25.029Z</time></trkpt><trkpt lat="40.07081278250151" lon="9.087021724791231"><ele>726.8</ele><time>2026-04-29T08:31:26.029Z</time></trkpt><trkpt lat="40.07080200184984" lon="9.08688799335907"><ele>726.4</ele><time>2026-04-29T08:31:27.029Z</time></trkpt><trkpt lat="40.070786114144" lon="9.086754861366325"><ele>726.0</ele><time>2026-04-29T08:31:28.029Z</time></trkpt><trkpt lat="40.07076282703105" lon="9.0866202973549"><ele>725.25</ele><time>2026-04-29T08:31:29.029Z</time></trkpt><trkpt lat="40.07073236486395" lon="9.086481514798178"><ele>724.5</ele><time>2026-04-29T08:31:30.029Z</time></trkpt><trkpt lat="40.07069109362293" lon="9.086337844152718"><ele>723.75</ele><time>2026-04-29T08:31:31.029Z</time></trkpt><trkpt lat="40.0706407149674" lon="9.086199059821103"><ele>723.0</ele><time>2026-04-29T08:31:32.029Z</time></trkpt><trkpt lat="40.07058851274601" lon="9.086059780790274"><ele>723.0</ele><time>2026-04-29T08:31:33.029Z</time></trkpt><trkpt lat="40.07054404114662" lon="9.085910710938386"><ele>723.0</ele><time>2026-04-29T08:31:34.029Z</time></trkpt><trkpt lat="40.07049411593837" lon="9.085767027054024"><ele>723.0</ele><time>2026-04-29T08:31:35.029Z</time></trkpt><trkpt lat="40.070444660185245" lon="9.085621358140004"><ele>723.0</ele><time>2026-04-29T08:31:36.029Z</time></trkpt><trkpt lat="40.070394619978174" lon="9.085468916920677"><ele>721.75</ele><time>2026-04-29T08:31:37.029Z</time></trkpt><trkpt lat="40.07035266763764" lon="9.085311137482977"><ele>720.5</ele><time>2026-04-29T08:31:38.029Z</time></trkpt><trkpt lat="40.07032441252421" lon="9.08513911103235"><ele>719.25</ele><time>2026-04-29T08:31:39.029Z</time></trkpt><trkpt lat="40.070301996300884" lon="9.084960665575029"><ele>718.0</ele><time>2026-04-29T08:31:40.029Z</time></trkpt><trkpt lat="40.07028710367545" lon="9.084775975389274"><ele>715.6666666666667</ele><time>2026-04-29T08:31:41.029Z</time></trkpt><trkpt lat="40.07027000410599" lon="9.084589099970003"><ele>713.3333333333334</ele><time>2026-04-29T08:31:42.029Z</time></trkpt><trkpt lat="40.0702502413176" lon="9.08438893088834"><ele>711.0</ele><time>2026-04-29T08:31:43.029Z</time></trkpt><trkpt lat="40.07022826861973" lon="9.084184893088889"><ele>711.6666666666666</ele><time>2026-04-29T08:31:44.029Z</time></trkpt><trkpt lat="40.07020794176677" lon="9.083974952021633"><ele>712.3333333333333</ele><time>2026-04-29T08:31:45.029Z</time></trkpt><trkpt lat="40.07019144456336" lon="9.083761751256613"><ele>713.0</ele><time>2026-04-29T08:31:46.029Z</time></trkpt><trkpt lat="40.070171439947885" lon="9.083557501114111"><ele>713.0</ele><time>2026-04-29T08:31:47.029Z</time></trkpt><trkpt lat="40.07014229089021" lon="9.083352381396272"><ele>713.0</ele><time>2026-04-29T08:31:48.029Z</time></trkpt><trkpt lat="40.0700979876203" lon="9.083170171156427"><ele>713.0</ele><time>2026-04-29T08:31:49.029Z</time></trkpt><trkpt lat="40.07001509855461" lon="9.082998377072805"><ele>713.0</ele><time>2026-04-29T08:31:50.029Z</time></trkpt><trkpt lat="40.06990999442034" lon="9.082847801391248"><ele>713.0</ele><time>2026-04-29T08:31:51.029Z</time></trkpt><trkpt lat="40.06978062858798" lon="9.082715235910666"><ele>713.0</ele><time>2026-04-29T08:31:52.029Z</time></trkpt><trkpt lat="40.069633655327195" lon="9.082599043507676"><ele>713.0</ele><time>2026-04-29T08:31:53.029Z</time></trkpt><trkpt lat="40.06948471926615" lon="9.082495439682008"><ele>713.0</ele><time>2026-04-29T08:31:54.029Z</time></trkpt><trkpt lat="40.06933088465663" lon="9.08237962168508"><ele>713.0</ele><time>2026-04-29T08:31:55.029Z</time></trkpt><trkpt lat="40.06916679299256" lon="9.082267207109922"><ele>712.6666666666666</ele><time>2026-04-29T08:31:56.029Z</time></trkpt><trkpt lat="40.06901054381826" lon="9.082140546799511"><ele>712.3333333333334</ele><time>2026-04-29T08:31:57.029Z</time></trkpt><trkpt lat="40.06885013395389" lon="9.082016486897205"><ele>712.0</ele><time>2026-04-29T08:31:58.029Z</time></trkpt><trkpt lat="40.068687679153186" lon="9.08189330976983"><ele>712.0</ele><time>2026-04-29T08:31:59.029Z</time></trkpt><trkpt lat="40.06852972602182" lon="9.081772642521505"><ele>712.0</ele><time>2026-04-29T08:32:00.029Z</time></trkpt><trkpt lat="40.068387595756086" lon="9.081634057653426"><ele>712.0</ele><time>2026-04-29T08:32:01.029Z</time></trkpt><trkpt lat="40.068261396477915" lon="9.081471876311772"><ele>709.6666666666667</ele><time>2026-04-29T08:32:02.029Z</time></trkpt><trkpt lat="40.068154580211626" lon="9.081289489243662"><ele>707.3333333333334</ele><time>2026-04-29T08:32:03.029Z</time></trkpt><trkpt lat="40.06805891421081" lon="9.081086149221504"><ele>705.0</ele><time>2026-04-29T08:32:04.029Z</time></trkpt><trkpt lat="40.06797393002794" lon="9.080868008331658"><ele>705.6666666666666</ele><time>2026-04-29T08:32:05.029Z</time></trkpt><trkpt lat="40.067892230882414" lon="9.0806425890959"><ele>706.3333333333333</ele><time>2026-04-29T08:32:06.029Z</time></trkpt><trkpt lat="40.06781961984613" lon="9.080413356452558"><ele>707.0</ele><time>2026-04-29T08:32:07.029Z</time></trkpt><trkpt lat="40.06776538298948" lon="9.080175583374688"><ele>707.0</ele><time>2026-04-29T08:32:08.029Z</time></trkpt><trkpt lat="40.06772187207948" lon="9.079935384258842"><ele>707.0</ele><time>2026-04-29T08:32:09.029Z</time></trkpt><trkpt lat="40.067679674076274" lon="9.079689147372928"><ele>707.0</ele><time>2026-04-29T08:32:10.029Z</time></trkpt><trkpt lat="40.06763510288334" lon="9.079439783878597"><ele>707.0</ele><time>2026-04-29T08:32:11.029Z</time></trkpt><trkpt lat="40.067590183948596" lon="9.079193894834892"><ele>707.0</ele><time>2026-04-29T08:32:12.029Z</time></trkpt><trkpt lat="40.06754866856619" lon="9.078945032851816"><ele>707.0</ele><time>2026-04-29T08:32:13.029Z</time></trkpt><trkpt lat="40.067502169367856" lon="9.078698378087863"><ele>707.6666666666666</ele><time>2026-04-29T08:32:14.029Z</time></trkpt><trkpt lat="40.06745303737955" lon="9.078452351185646"><ele>708.3333333333334</ele><time>2026-04-29T08:32:15.029Z</time></trkpt><trkpt lat="40.06741307277963" lon="9.07820542440619"><ele>709.0</ele><time>2026-04-29T08:32:16.029Z</time></trkpt><trkpt lat="40.06738609780456" lon="9.077955176558838"><ele>709.3333333333334</ele><time>2026-04-29T08:32:17.029Z</time></trkpt><trkpt lat="40.067364745438944" lon="9.077710222604916"><ele>709.6666666666666</ele><time>2026-04-29T08:32:18.029Z</time></trkpt><trkpt lat="40.06736800271724" lon="9.07748129283301"><ele>710.0</ele><time>2026-04-29T08:32:19.029Z</time></trkpt><trkpt lat="40.0673833729707" lon="9.077228455778375"><ele>710.0</ele><time>2026-04-29T08:32:20.029Z</time></trkpt><trkpt lat="40.06741552013019" lon="9.076973744317952"><ele>710.0</ele><time>2026-04-29T08:32:21.029Z</time></trkpt><trkpt lat="40.067452139654776" lon="9.076718754709047"><ele>710.0</ele><time>2026-04-29T08:32:22.029Z</time></trkpt><trkpt lat="40.06748682181668" lon="9.07647196990934"><ele>707.3333333333333</ele><time>2026-04-29T08:32:23.029Z</time></trkpt><trkpt lat="40.067511706375235" lon="9.07623678242923"><ele>704.6666666666666</ele><time>2026-04-29T08:32:24.029Z</time></trkpt><trkpt lat="40.06754511257897" lon="9.076000897141391"><ele>702.0</ele><time>2026-04-29T08:32:25.029Z</time></trkpt><trkpt lat="40.06759757854029" lon="9.075798979529976"><ele>703.3333333333334</ele><time>2026-04-29T08:32:26.029Z</time></trkpt><trkpt lat="40.06768446723221" lon="9.07560319844346"><ele>704.6666666666667</ele><time>2026-04-29T08:32:27.029Z</time></trkpt><trkpt lat="40.06778984457582" lon="9.075423912561895"><ele>706.0</ele><time>2026-04-29T08:32:28.029Z</time></trkpt><trkpt lat="40.06791512956955" lon="9.075256617672396"><ele>706.0</ele><time>2026-04-29T08:32:29.029Z</time></trkpt><trkpt lat="40.068044371055144" lon="9.075088202442535"><ele>706.0</ele><time>2026-04-29T08:32:30.029Z</time></trkpt><trkpt lat="40.06817204591911" lon="9.074923892972357"><ele>706.0</ele><time>2026-04-29T08:32:31.029Z</time></trkpt><trkpt lat="40.06827462373388" lon="9.07478299246114"><ele>701.25</ele><time>2026-04-29T08:32:32.029Z</time></trkpt><trkpt lat="40.0683540600457" lon="9.074637606826599"><ele>696.5</ele><time>2026-04-29T08:32:33.029Z</time></trkpt><trkpt lat="40.06840404371115" lon="9.074470174766729"><ele>691.75</ele><time>2026-04-29T08:32:34.029Z</time></trkpt><trkpt lat="40.06842348547741" lon="9.074297892469396"><ele>687.0</ele><time>2026-04-29T08:32:35.029Z</time></trkpt><trkpt lat="40.06841204023932" lon="9.07411568684084"><ele>686.6666666666666</ele><time>2026-04-29T08:32:36.029Z</time></trkpt><trkpt lat="40.06836480980802" lon="9.073931425806853"><ele>686.3333333333333</ele><time>2026-04-29T08:32:37.029Z</time></trkpt><trkpt lat="40.068283485218075" lon="9.07376426506168"><ele>686.0</ele><time>2026-04-29T08:32:38.029Z</time></trkpt><trkpt lat="40.068173298720325" lon="9.073620462216029"><ele>686.0</ele><time>2026-04-29T08:32:39.029Z</time></trkpt><trkpt lat="40.06805465356685" lon="9.07349170681166"><ele>686.0</ele><time>2026-04-29T08:32:40.029Z</time></trkpt><trkpt lat="40.06794625975959" lon="9.073382078097012"><ele>686.0</ele><time>2026-04-29T08:32:41.029Z</time></trkpt><trkpt lat="40.067874476485294" lon="9.073261015860174"><ele>686.0</ele><time>2026-04-29T08:32:42.03Z</time></trkpt><trkpt lat="40.067838845266394" lon="9.073119353615745"><ele>685.5</ele><time>2026-04-29T08:32:43.03Z</time></trkpt><trkpt lat="40.067835644594005" lon="9.072965066239233"><ele>685.0</ele><time>2026-04-29T08:32:44.03Z</time></trkpt><trkpt lat="40.067866530842416" lon="9.072812451840655"><ele>684.5</ele><time>2026-04-29T08:32:45.031Z</time></trkpt><trkpt lat="40.06793145968295" lon="9.072672808079487"><ele>684.0</ele><time>2026-04-29T08:32:46.03Z</time></trkpt><trkpt lat="40.06802036017257" lon="9.072531533949155"><ele>685.3333333333334</ele><time>2026-04-29T08:32:47.03Z</time></trkpt><trkpt lat="40.06811245903493" lon="9.072377371024022"><ele>686.6666666666667</ele><time>2026-04-29T08:32:48.031Z</time></trkpt><trkpt lat="40.06820552280422" lon="9.07221067374261"><ele>688.0</ele><time>2026-04-29T08:32:49.03Z</time></trkpt><trkpt lat="40.0682928624891" lon="9.07204937060084"><ele>688.0</ele><time>2026-04-29T08:32:50.03Z</time></trkpt><trkpt lat="40.06837324219692" lon="9.071870259283898"><ele>688.0</ele><time>2026-04-29T08:32:51.031Z</time></trkpt><trkpt lat="40.0684480328221" lon="9.071684303897255"><ele>688.0</ele><time>2026-04-29T08:32:52.03Z</time></trkpt><trkpt lat="40.0685148788777" lon="9.071501887415003"><ele>688.25</ele><time>2026-04-29T08:32:53.03Z</time></trkpt><trkpt lat="40.068573155875015" lon="9.07132734181703"><ele>688.5</ele><time>2026-04-29T08:32:54.03Z</time></trkpt><trkpt lat="40.068608218475056" lon="9.071143482583645"><ele>688.75</ele><time>2026-04-29T08:32:55.031Z</time></trkpt><trkpt lat="40.068608355168685" lon="9.070966797731478"><ele>689.0</ele><time>2026-04-29T08:32:56.031Z</time></trkpt><trkpt lat="40.068579766063806" lon="9.070802057202282"><ele>688.25</ele><time>2026-04-29T08:32:57.031Z</time></trkpt><trkpt lat="40.068525315113" lon="9.070647022043431"><ele>687.5</ele><time>2026-04-29T08:32:58.031Z</time></trkpt><trkpt lat="40.06844523995336" lon="9.070499363987869"><ele>686.75</ele><time>2026-04-29T08:32:59.031Z</time></trkpt><trkpt lat="40.06833354121957" lon="9.070374197831129"><ele>686.0</ele><time>2026-04-29T08:33:00.031Z</time></trkpt><trkpt lat="40.06820271960943" lon="9.070261374249009"><ele>686.0</ele><time>2026-04-29T08:33:01.031Z</time></trkpt><trkpt lat="40.0680583473902" lon="9.070152899859728"><ele>686.0</ele><time>2026-04-29T08:33:02.031Z</time></trkpt><trkpt lat="40.067912408929324" lon="9.070027588351097"><ele>686.0</ele><time>2026-04-29T08:33:03.031Z</time></trkpt><trkpt lat="40.06776663854509" lon="9.06988545637186"><ele>684.3333333333333</ele><time>2026-04-29T08:33:04.031Z</time></trkpt><trkpt lat="40.06762598917003" lon="9.069738324408227"><ele>682.6666666666666</ele><time>2026-04-29T08:33:05.031Z</time></trkpt><trkpt lat="40.06748252416749" lon="9.069574261240115"><ele>681.0</ele><time>2026-04-29T08:33:06.031Z</time></trkpt><trkpt lat="40.06734609351077" lon="9.069398314517406"><ele>681.0</ele><time>2026-04-29T08:33:07.031Z</time></trkpt><trkpt lat="40.06721682847229" lon="9.069250546801195"><ele>681.0</ele><time>2026-04-29T08:33:08.031Z</time></trkpt><trkpt lat="40.06709460097532" lon="9.069103302042352"><ele>681.0</ele><time>2026-04-29T08:33:09.031Z</time></trkpt><trkpt lat="40.06697163320725" lon="9.068962502645842"><ele>678.75</ele><time>2026-04-29T08:33:10.031Z</time></trkpt><trkpt lat="40.06686419869011" lon="9.068827947749242"><ele>676.5</ele><time>2026-04-29T08:33:11.031Z</time></trkpt><trkpt lat="40.066780395518414" lon="9.068694206817643"><ele>674.25</ele><time>2026-04-29T08:33:12.031Z</time></trkpt><trkpt lat="40.06671534013199" lon="9.06856304421262"><ele>672.0</ele><time>2026-04-29T08:33:13.031Z</time></trkpt><trkpt lat="40.06667832509514" lon="9.068408817414316"><ele>671.25</ele><time>2026-04-29T08:33:14.031Z</time></trkpt><trkpt lat="40.06667441493625" lon="9.068250373825261"><ele>670.5</ele><time>2026-04-29T08:33:15.031Z</time></trkpt><trkpt lat="40.066707127181424" lon="9.068084678340716"><ele>669.75</ele><time>2026-04-29T08:33:16.031Z</time></trkpt><trkpt lat="40.06676618887242" lon="9.067913161803306"><ele>669.0</ele><time>2026-04-29T08:33:17.031Z</time></trkpt><trkpt lat="40.06684603179883" lon="9.067730299462664"><ele>669.0</ele><time>2026-04-29T08:33:18.031Z</time></trkpt><trkpt lat="40.06693682812279" lon="9.067544883215273"><ele>669.0</ele><time>2026-04-29T08:33:19.031Z</time></trkpt><trkpt lat="40.067037703942866" lon="9.067368646536819"><ele>669.0</ele><time>2026-04-29T08:33:20.031Z</time></trkpt><trkpt lat="40.06712355510866" lon="9.06718487664932"><ele>668.5</ele><time>2026-04-29T08:33:21.031Z</time></trkpt><trkpt lat="40.06720305266988" lon="9.067017322010905"><ele>668.0</ele><time>2026-04-29T08:33:22.031Z</time></trkpt><trkpt lat="40.06727333800897" lon="9.066873419708656"><ele>667.5</ele><time>2026-04-29T08:33:23.031Z</time></trkpt><trkpt lat="40.06732390041421" lon="9.066722217157462"><ele>667.0</ele><time>2026-04-29T08:33:24.031Z</time></trkpt><trkpt lat="40.06735056157959" lon="9.066573247370995"><ele>664.75</ele><time>2026-04-29T08:33:25.031Z</time></trkpt><trkpt lat="40.06734678848069" lon="9.06642285134567"><ele>662.5</ele><time>2026-04-29T08:33:26.031Z</time></trkpt><trkpt lat="40.06730661666537" lon="9.066282054650378"><ele>660.25</ele><time>2026-04-29T08:33:27.031Z</time></trkpt><trkpt lat="40.067229401632964" lon="9.066154463122764"><ele>658.0</ele><time>2026-04-29T08:33:28.031Z</time></trkpt><trkpt lat="40.06711771912221" lon="9.066045275941155"><ele>658.0</ele><time>2026-04-29T08:33:29.031Z</time></trkpt><trkpt lat="40.06698954687935" lon="9.065944116779418"><ele>658.0</ele><time>2026-04-29T08:33:30.031Z</time></trkpt><trkpt lat="40.06686065505235" lon="9.065827597777199"><ele>658.0</ele><time>2026-04-29T08:33:31.031Z</time></trkpt><trkpt lat="40.06673744085761" lon="9.06569186910738"><ele>658.0</ele><time>2026-04-29T08:33:32.031Z</time></trkpt><trkpt lat="40.066643190368694" lon="9.065535862798368"><ele>658.0</ele><time>2026-04-29T08:33:33.031Z</time></trkpt><trkpt lat="40.066581534353816" lon="9.065360824070329"><ele>658.0</ele><time>2026-04-29T08:33:34.031Z</time></trkpt><trkpt lat="40.06654331785848" lon="9.065171375769452"><ele>658.0</ele><time>2026-04-29T08:33:35.031Z</time></trkpt><trkpt lat="40.06652875127409" lon="9.064965046992912"><ele>655.75</ele><time>2026-04-29T08:33:36.031Z</time></trkpt><trkpt lat="40.06654257986461" lon="9.064767075025731"><ele>653.5</ele><time>2026-04-29T08:33:37.031Z</time></trkpt><trkpt lat="40.06655597717949" lon="9.064591174407862"><ele>651.25</ele><time>2026-04-29T08:33:38.031Z</time></trkpt><trkpt lat="40.06653000247374" lon="9.0644201519364"><ele>649.0</ele><time>2026-04-29T08:33:39.031Z</time></trkpt><trkpt lat="40.06646617360028" lon="9.064278218555978"><ele>649.0</ele><time>2026-04-29T08:33:40.031Z</time></trkpt><trkpt lat="40.06636652643851" lon="9.064160590928134"><ele>649.0</ele><time>2026-04-29T08:33:41.031Z</time></trkpt><trkpt lat="40.06625863308619" lon="9.064058540196482"><ele>649.0</ele><time>2026-04-29T08:33:42.031Z</time></trkpt><trkpt lat="40.06616735746836" lon="9.063925109615965"><ele>649.0</ele><time>2026-04-29T08:33:43.031Z</time></trkpt><trkpt lat="40.06608939011208" lon="9.063795198567428"><ele>647.75</ele><time>2026-04-29T08:33:44.031Z</time></trkpt><trkpt lat="40.06605273020894" lon="9.06364555060219"><ele>646.5</ele><time>2026-04-29T08:33:45.031Z</time></trkpt><trkpt lat="40.06606449849071" lon="9.063494296837593"><ele>645.25</ele><time>2026-04-29T08:33:46.031Z</time></trkpt><trkpt lat="40.066121467509774" lon="9.063349351931647"><ele>644.0</ele><time>2026-04-29T08:33:47.031Z</time></trkpt><trkpt lat="40.06621132559638" lon="9.063213813242541"><ele>644.0</ele><time>2026-04-29T08:33:48.031Z</time></trkpt><trkpt lat="40.066308329916964" lon="9.063072018506707"><ele>644.0</ele><time>2026-04-29T08:33:49.031Z</time></trkpt><trkpt lat="40.06638883187619" lon="9.062901036353388"><ele>644.0</ele><time>2026-04-29T08:33:50.031Z</time></trkpt><trkpt lat="40.06644355223197" lon="9.062704651375183"><ele>644.0</ele><time>2026-04-29T08:33:51.031Z</time></trkpt><trkpt lat="40.06647085096985" lon="9.062497707644246"><ele>644.0</ele><time>2026-04-29T08:33:52.031Z</time></trkpt><trkpt lat="40.06647011734881" lon="9.06228226486485"><ele>644.0</ele><time>2026-04-29T08:33:53.031Z</time></trkpt><trkpt lat="40.06646521805343" lon="9.062048851877096"><ele>641.0</ele><time>2026-04-29T08:33:54.031Z</time></trkpt><trkpt lat="40.066464914502106" lon="9.061828890225023"><ele>638.0</ele><time>2026-04-29T08:33:55.031Z</time></trkpt><trkpt lat="40.06646571209305" lon="9.061618377647932"><ele>635.0</ele><time>2026-04-29T08:33:56.031Z</time></trkpt><trkpt lat="40.06644649327544" lon="9.061423975168783"><ele>630.6666666666666</ele><time>2026-04-29T08:33:57.031Z</time></trkpt><trkpt lat="40.066396657995675" lon="9.06124107542411"><ele>626.3333333333334</ele><time>2026-04-29T08:33:58.031Z</time></trkpt><trkpt lat="40.06630332202571" lon="9.061073891931292"><ele>622.0</ele><time>2026-04-29T08:33:59.031Z</time></trkpt><trkpt lat="40.0661810887235" lon="9.060947645087062"><ele>622.0</ele><time>2026-04-29T08:34:00.031Z</time></trkpt><trkpt lat="40.06604847689522" lon="9.060862026042415"><ele>622.0</ele><time>2026-04-29T08:34:01.031Z</time></trkpt><trkpt lat="40.065893138279584" lon="9.060815060887645"><ele>622.0</ele><time>2026-04-29T08:34:02.031Z</time></trkpt><trkpt lat="40.06572501652838" lon="9.060809293824764"><ele>620.3333333333334</ele><time>2026-04-29T08:34:03.031Z</time></trkpt><trkpt lat="40.065553183587134" lon="9.060815583091962"><ele>618.6666666666666</ele><time>2026-04-29T08:34:04.031Z</time></trkpt><trkpt lat="40.06539107149963" lon="9.060804630378957"><ele>617.0</ele><time>2026-04-29T08:34:05.031Z</time></trkpt><trkpt lat="40.06523488182904" lon="9.060780306317914"><ele>614.3333333333333</ele><time>2026-04-29T08:34:06.031Z</time></trkpt><trkpt lat="40.06509077164726" lon="9.060716998753955"><ele>611.6666666666666</ele><time>2026-04-29T08:34:07.031Z</time></trkpt><trkpt lat="40.06496920355121" lon="9.06061404725069"><ele>609.0</ele><time>2026-04-29T08:34:08.031Z</time></trkpt><trkpt lat="40.06483811607352" lon="9.060481237989048"><ele>609.0</ele><time>2026-04-29T08:34:09.031Z</time></trkpt><trkpt lat="40.064708326831436" lon="9.060334566006796"><ele>609.0</ele><time>2026-04-29T08:34:10.031Z</time></trkpt><trkpt lat="40.064582686875326" lon="9.060196878150334"><ele>609.0</ele><time>2026-04-29T08:34:11.031Z</time></trkpt><trkpt lat="40.064450443743816" lon="9.060066127082854"><ele>609.0</ele><time>2026-04-29T08:34:12.03Z</time></trkpt><trkpt lat="40.06431180789316" lon="9.059962443463224"><ele>609.0</ele><time>2026-04-29T08:34:13.03Z</time></trkpt><trkpt lat="40.064158208807015" lon="9.059880821574891"><ele>609.0</ele><time>2026-04-29T08:34:14.03Z</time></trkpt><trkpt lat="40.063982214676955" lon="9.059821220581172"><ele>603.6666666666666</ele><time>2026-04-29T08:34:15.03Z</time></trkpt><trkpt lat="40.063797812891394" lon="9.059791353194074"><ele>598.3333333333333</ele><time>2026-04-29T08:34:16.03Z</time></trkpt><trkpt lat="40.06361031669564" lon="9.059771337818571"><ele>593.0</ele><time>2026-04-29T08:34:17.03Z</time></trkpt><trkpt lat="40.063421842378396" lon="9.059744513735556"><ele>593.0</ele><time>2026-04-29T08:34:18.03Z</time></trkpt><trkpt lat="40.06322408409682" lon="9.059716453450003"><ele>593.0</ele><time>2026-04-29T08:34:19.03Z</time></trkpt><trkpt lat="40.063040236927186" lon="9.05966436345617"><ele>593.0</ele><time>2026-04-29T08:34:20.03Z</time></trkpt><trkpt lat="40.06285610528917" lon="9.059602080797289"><ele>593.0</ele><time>2026-04-29T08:34:21.03Z</time></trkpt><trkpt lat="40.062672548880506" lon="9.05952015452595"><ele>593.0</ele><time>2026-04-29T08:34:22.03Z</time></trkpt><trkpt lat="40.06249413771223" lon="9.059424556521472"><ele>593.0</ele><time>2026-04-29T08:34:23.03Z</time></trkpt><trkpt lat="40.06231178345725" lon="9.059324104120382"><ele>592.0</ele><time>2026-04-29T08:34:24.03Z</time></trkpt><trkpt lat="40.062127439813" lon="9.059223340898416"><ele>591.0</ele><time>2026-04-29T08:34:25.03Z</time></trkpt><trkpt lat="40.061938602243224" lon="9.059132261231134"><ele>590.0</ele><time>2026-04-29T08:34:26.03Z</time></trkpt><trkpt lat="40.06174953361493" lon="9.059036667973032"><ele>589.0</ele><time>2026-04-29T08:34:27.03Z</time></trkpt><trkpt lat="40.061559522047574" lon="9.058936668591738"><ele>588.0</ele><time>2026-04-29T08:34:28.03Z</time></trkpt><trkpt lat="40.06136749613763" lon="9.058836283492857"><ele>587.0</ele><time>2026-04-29T08:34:29.03Z</time></trkpt><trkpt lat="40.06116960168665" lon="9.058734873446022"><ele>587.0</ele><time>2026-04-29T08:34:30.03Z</time></trkpt><trkpt lat="40.060973483746565" lon="9.058628037861311"><ele>587.0</ele><time>2026-04-29T08:34:31.03Z</time></trkpt><trkpt lat="40.06077826518924" lon="9.058527511728053"><ele>587.0</ele><time>2026-04-29T08:34:32.03Z</time></trkpt><trkpt lat="40.06058298014239" lon="9.05841301030048"><ele>586.3333333333333</ele><time>2026-04-29T08:34:33.03Z</time></trkpt><trkpt lat="40.060394248847615" lon="9.058295696885516"><ele>585.6666666666666</ele><time>2026-04-29T08:34:34.03Z</time></trkpt><trkpt lat="40.060215633958386" lon="9.058169919756219"><ele>585.0</ele><time>2026-04-29T08:34:35.03Z</time></trkpt><trkpt lat="40.06004022116682" lon="9.058041278543746"><ele>586.6666666666666</ele><time>2026-04-29T08:34:36.03Z</time></trkpt><trkpt lat="40.05987108817986" lon="9.05791395247989"><ele>588.3333333333333</ele><time>2026-04-29T08:34:37.03Z</time></trkpt><trkpt lat="40.05969986100111" lon="9.057788436482875"><ele>590.0</ele><time>2026-04-29T08:34:38.03Z</time></trkpt><trkpt lat="40.05952838016871" lon="9.057665592861875"><ele>590.0</ele><time>2026-04-29T08:34:39.03Z</time></trkpt><trkpt lat="40.059354259632826" lon="9.057544184177225"><ele>590.0</ele><time>2026-04-29T08:34:40.03Z</time></trkpt><trkpt lat="40.059182112011335" lon="9.05742404104932"><ele>590.0</ele><time>2026-04-29T08:34:41.03Z</time></trkpt><trkpt lat="40.059010338866045" lon="9.057300413501817"><ele>591.6666666666666</ele><time>2026-04-29T08:34:42.03Z</time></trkpt><trkpt lat="40.05883881437288" lon="9.057180885972217"><ele>593.3333333333334</ele><time>2026-04-29T08:34:43.03Z</time></trkpt><trkpt lat="40.05866674589124" lon="9.057058328990259"><ele>595.0</ele><time>2026-04-29T08:34:44.03Z</time></trkpt><trkpt lat="40.05849605261731" lon="9.0569366098943"><ele>595.0</ele><time>2026-04-29T08:34:45.03Z</time></trkpt><trkpt lat="40.05832577397551" lon="9.056808302042393"><ele>595.0</ele><time>2026-04-29T08:34:46.03Z</time></trkpt><trkpt lat="40.05815885570596" lon="9.056672327445902"><ele>595.0</ele><time>2026-04-29T08:34:47.03Z</time></trkpt><trkpt lat="40.05800377329597" lon="9.056519415919096"><ele>595.3333333333334</ele><time>2026-04-29T08:34:48.032Z</time></trkpt><trkpt lat="40.05787339077571" lon="9.056363833654503"><ele>595.6666666666666</ele><time>2026-04-29T08:34:49.032Z</time></trkpt><trkpt lat="40.057760669050154" lon="9.056186972925259"><ele>596.0</ele><time>2026-04-29T08:34:50.032Z</time></trkpt><trkpt lat="40.05766492681141" lon="9.055984881155833"><ele>598.3333333333333</ele><time>2026-04-29T08:34:51.032Z</time></trkpt><trkpt lat="40.05759068482213" lon="9.055754864526756"><ele>600.6666666666666</ele><time>2026-04-29T08:34:52.031Z</time></trkpt><trkpt lat="40.05754045020057" lon="9.05552621252149"><ele>603.0</ele><time>2026-04-29T08:34:53.031Z</time></trkpt><trkpt lat="40.0575011295897" lon="9.055289878841203"><ele>603.0</ele><time>2026-04-29T08:34:54.032Z</time></trkpt><trkpt lat="40.05748914526671" lon="9.055048853880914"><ele>603.0</ele><time>2026-04-29T08:34:55.032Z</time></trkpt><trkpt lat="40.057505100185516" lon="9.054800915305803"><ele>603.0</ele><time>2026-04-29T08:34:56.032Z</time></trkpt><trkpt lat="40.05754223916946" lon="9.054555067657684"><ele>605.3333333333334</ele><time>2026-04-29T08:34:57.031Z</time></trkpt><trkpt lat="40.05758764651886" lon="9.05430284232503"><ele>607.6666666666667</ele><time>2026-04-29T08:34:58.032Z</time></trkpt><trkpt lat="40.05763233368136" lon="9.054048288574592"><ele>610.0</ele><time>2026-04-29T08:34:59.032Z</time></trkpt><trkpt lat="40.05766975239885" lon="9.053786989248238"><ele>611.3333333333334</ele><time>2026-04-29T08:35:00.032Z</time></trkpt><trkpt lat="40.05769114683143" lon="9.053527039052543"><ele>612.6666666666666</ele><time>2026-04-29T08:35:01.032Z</time></trkpt><trkpt lat="40.057707667217464" lon="9.053282598517312"><ele>614.0</ele><time>2026-04-29T08:35:02.032Z</time></trkpt><trkpt lat="40.05773397100424" lon="9.053055988023855"><ele>614.0</ele><time>2026-04-29T08:35:03.032Z</time></trkpt><trkpt lat="40.057773295013924" lon="9.052842845073581"><ele>614.0</ele><time>2026-04-29T08:35:04.032Z</time></trkpt><trkpt lat="40.05785386014406" lon="9.052639205002249"><ele>614.0</ele><time>2026-04-29T08:35:05.032Z</time></trkpt><trkpt lat="40.05796792505617" lon="9.05243428876223"><ele>609.3333333333333</ele><time>2026-04-29T08:35:06.032Z</time></trkpt><trkpt lat="40.05807984142426" lon="9.052228758131122"><ele>604.6666666666666</ele><time>2026-04-29T08:35:07.032Z</time></trkpt><trkpt lat="40.05817992297195" lon="9.052004465958845"><ele>600.0</ele><time>2026-04-29T08:35:08.032Z</time></trkpt><trkpt lat="40.058269629818305" lon="9.051764944489578"><ele>595.6666666666666</ele><time>2026-04-29T08:35:09.032Z</time></trkpt><trkpt lat="40.05835143722032" lon="9.051513968143736"><ele>591.3333333333333</ele><time>2026-04-29T08:35:10.032Z</time></trkpt><trkpt lat="40.058442550228065" lon="9.05125828450673"><ele>587.0</ele><time>2026-04-29T08:35:11.032Z</time></trkpt><trkpt lat="40.05853950264847" lon="9.051011204758298"><ele>583.0</ele><time>2026-04-29T08:35:12.032Z</time></trkpt><trkpt lat="40.05863882023106" lon="9.050780711290718"><ele>579.0</ele><time>2026-04-29T08:35:13.032Z</time></trkpt><trkpt lat="40.05874179697118" lon="9.050570209375625"><ele>575.0</ele><time>2026-04-29T08:35:14.032Z</time></trkpt><trkpt lat="40.05883531909549" lon="9.050374603135772"><ele>575.0</ele><time>2026-04-29T08:35:15.032Z</time></trkpt><trkpt lat="40.058910287074156" lon="9.050196340611556"><ele>575.0</ele><time>2026-04-29T08:35:16.032Z</time></trkpt><trkpt lat="40.05896165522616" lon="9.050007931570072"><ele>575.0</ele><time>2026-04-29T08:35:17.032Z</time></trkpt><trkpt lat="40.05896684122105" lon="9.049802111865679"><ele>574.6666666666666</ele><time>2026-04-29T08:35:18.032Z</time></trkpt><trkpt lat="40.05892176742874" lon="9.04959986935792"><ele>574.3333333333334</ele><time>2026-04-29T08:35:19.032Z</time></trkpt><trkpt lat="40.058850405671016" lon="9.049399458494399"><ele>574.0</ele><time>2026-04-29T08:35:20.032Z</time></trkpt><trkpt lat="40.058752772135016" lon="9.049189688055815"><ele>574.3333333333334</ele><time>2026-04-29T08:35:21.032Z</time></trkpt><trkpt lat="40.05865428491972" lon="9.048973589214759"><ele>574.6666666666666</ele><time>2026-04-29T08:35:22.032Z</time></trkpt><trkpt lat="40.05857542802639" lon="9.048751827662072"><ele>575.0</ele><time>2026-04-29T08:35:23.032Z</time></trkpt><trkpt lat="40.05853302128635" lon="9.048515893981996"><ele>575.3333333333333</ele><time>2026-04-29T08:35:24.032Z</time></trkpt><trkpt lat="40.05851947529159" lon="9.048283734203746"><ele>575.6666666666666</ele><time>2026-04-29T08:35:25.032Z</time></trkpt><trkpt lat="40.058543992356654" lon="9.048056441089209"><ele>576.0</ele><time>2026-04-29T08:35:26.032Z</time></trkpt><trkpt lat="40.05859223424697" lon="9.047830653796941"><ele>576.0</ele><time>2026-04-29T08:35:27.032Z</time></trkpt><trkpt lat="40.05866758839148" lon="9.047616445366863"><ele>576.0</ele><time>2026-04-29T08:35:28.032Z</time></trkpt><trkpt lat="40.05876814613704" lon="9.047403062538567"><ele>576.0</ele><time>2026-04-29T08:35:29.032Z</time></trkpt><trkpt lat="40.05888697359034" lon="9.047198217288406"><ele>576.6666666666666</ele><time>2026-04-29T08:35:30.032Z</time></trkpt><trkpt lat="40.05899524439086" lon="9.046998418785831"><ele>577.3333333333333</ele><time>2026-04-29T08:35:31.032Z</time></trkpt><trkpt lat="40.05910675119657" lon="9.046796229901634"><ele>578.0</ele><time>2026-04-29T08:35:32.032Z</time></trkpt><trkpt lat="40.05922020056621" lon="9.046593015939212"><ele>578.0</ele><time>2026-04-29T08:35:33.032Z</time></trkpt><trkpt lat="40.059333936681185" lon="9.046385271230752"><ele>578.0</ele><time>2026-04-29T08:35:34.032Z</time></trkpt><trkpt lat="40.05945126720076" lon="9.046172808240476"><ele>578.0</ele><time>2026-04-29T08:35:35.032Z</time></trkpt><trkpt lat="40.05957381985425" lon="9.045960663565932"><ele>580.6666666666666</ele><time>2026-04-29T08:35:36.032Z</time></trkpt><trkpt lat="40.05969379515585" lon="9.04573905191848"><ele>583.3333333333334</ele><time>2026-04-29T08:35:37.032Z</time></trkpt><trkpt lat="40.05981498927099" lon="9.045514870434603"><ele>586.0</ele><time>2026-04-29T08:35:38.032Z</time></trkpt><trkpt lat="40.05994097922518" lon="9.045292861902716"><ele>580.0</ele><time>2026-04-29T08:35:39.032Z</time></trkpt><trkpt lat="40.06007040664418" lon="9.045074485905078"><ele>574.0</ele><time>2026-04-29T08:35:40.032Z</time></trkpt><trkpt lat="40.0601952677446" lon="9.04484785344164"><ele>568.0</ele><time>2026-04-29T08:35:41.032Z</time></trkpt><trkpt lat="40.06031580297189" lon="9.044631885051533"><ele>568.0</ele><time>2026-04-29T08:35:42.032Z</time></trkpt><trkpt lat="40.06043591472194" lon="9.044411566816766"><ele>568.0</ele><time>2026-04-29T08:35:43.032Z</time></trkpt><trkpt lat="40.06055828374638" lon="9.044191949685843"><ele>568.0</ele><time>2026-04-29T08:35:44.032Z</time></trkpt><trkpt lat="40.06067946700479" lon="9.043972647484075"><ele>561.6666666666667</ele><time>2026-04-29T08:35:45.032Z</time></trkpt><trkpt lat="40.06079448580907" lon="9.043754106284808"><ele>555.3333333333334</ele><time>2026-04-29T08:35:46.032Z</time></trkpt><trkpt lat="40.06089914966286" lon="9.043532184504235"><ele>549.0</ele><time>2026-04-29T08:35:47.032Z</time></trkpt><trkpt lat="40.060987992048005" lon="9.043302081277684"><ele>550.3333333333334</ele><time>2026-04-29T08:35:48.032Z</time></trkpt><trkpt lat="40.06105679977149" lon="9.043059909453738"><ele>551.6666666666667</ele><time>2026-04-29T08:35:49.032Z</time></trkpt><trkpt lat="40.06109907567638" lon="9.042808462319396"><ele>553.0</ele><time>2026-04-29T08:35:50.032Z</time></trkpt><trkpt lat="40.06112430737031" lon="9.04254457429769"><ele>552.3333333333334</ele><time>2026-04-29T08:35:51.032Z</time></trkpt><trkpt lat="40.06113052786236" lon="9.042279160292848"><ele>551.6666666666666</ele><time>2026-04-29T08:35:52.032Z</time></trkpt><trkpt lat="40.061120972249114" lon="9.042011834046361"><ele>551.0</ele><time>2026-04-29T08:35:53.032Z</time></trkpt><trkpt lat="40.061105662866595" lon="9.041752086156556"><ele>551.3333333333333</ele><time>2026-04-29T08:35:54.032Z</time></trkpt><trkpt lat="40.06110307092605" lon="9.041507882412526"><ele>551.6666666666666</ele><time>2026-04-29T08:35:55.032Z</time></trkpt><trkpt lat="40.061126386308096" lon="9.041303936192842"><ele>552.0</ele><time>2026-04-29T08:35:56.032Z</time></trkpt><trkpt lat="40.06119532975689" lon="9.041119183782605"><ele>552.0</ele><time>2026-04-29T08:35:57.032Z</time></trkpt><trkpt lat="40.06129455190829" lon="9.040959230100752"><ele>552.0</ele><time>2026-04-29T08:35:58.032Z</time></trkpt><trkpt lat="40.06141752745433" lon="9.040820749869237"><ele>552.0</ele><time>2026-04-29T08:35:59.032Z</time></trkpt><trkpt lat="40.06152055867618" lon="9.04067123947041"><ele>551.3333333333334</ele><time>2026-04-29T08:36:00.032Z</time></trkpt><trkpt lat="40.06158064669888" lon="9.040486478604125"><ele>550.6666666666667</ele><time>2026-04-29T08:36:01.032Z</time></trkpt><trkpt lat="40.061612675770085" lon="9.04026540733811"><ele>550.0</ele><time>2026-04-29T08:36:02.032Z</time></trkpt><trkpt lat="40.061621903969645" lon="9.040018336690345"><ele>542.0</ele><time>2026-04-29T08:36:03.032Z</time></trkpt><trkpt lat="40.06163466690943" lon="9.03974758079847"><ele>534.0</ele><time>2026-04-29T08:36:04.032Z</time></trkpt><trkpt lat="40.06163934751337" lon="9.039492456028043"><ele>526.0</ele><time>2026-04-29T08:36:05.032Z</time></trkpt><trkpt lat="40.06164276543365" lon="9.039254785954286"><ele>524.0</ele><time>2026-04-29T08:36:06.032Z</time></trkpt><trkpt lat="40.061626255151246" lon="9.039046652231075"><ele>522.0</ele><time>2026-04-29T08:36:07.032Z</time></trkpt><trkpt lat="40.06156605835355" lon="9.038863182559622"><ele>520.0</ele><time>2026-04-29T08:36:08.032Z</time></trkpt><trkpt lat="40.061469729073174" lon="9.038683687757743"><ele>520.3333333333334</ele><time>2026-04-29T08:36:09.032Z</time></trkpt><trkpt lat="40.061356026332504" lon="9.038500754828654"><ele>520.6666666666666</ele><time>2026-04-29T08:36:10.032Z</time></trkpt><trkpt lat="40.061241213086866" lon="9.038305970522973"><ele>521.0</ele><time>2026-04-29T08:36:11.032Z</time></trkpt><trkpt lat="40.06113090578295" lon="9.038113027712038"><ele>521.0</ele><time>2026-04-29T08:36:12.032Z</time></trkpt><trkpt lat="40.06101970484034" lon="9.037918595646568"><ele>521.0</ele><time>2026-04-29T08:36:13.032Z</time></trkpt><trkpt lat="40.0609118152071" lon="9.037730748977573"><ele>521.0</ele><time>2026-04-29T08:36:14.032Z</time></trkpt><trkpt lat="40.06081931715295" lon="9.037540108914587"><ele>521.3333333333333</ele><time>2026-04-29T08:36:15.032Z</time></trkpt><trkpt lat="40.06076218250854" lon="9.03735451934171"><ele>521.6666666666666</ele><time>2026-04-29T08:36:16.032Z</time></trkpt><trkpt lat="40.060743969469364" lon="9.03716646198458"><ele>522.0</ele><time>2026-04-29T08:36:17.032Z</time></trkpt><trkpt lat="40.06076709632715" lon="9.03695923822095"><ele>522.0</ele><time>2026-04-29T08:36:18.032Z</time></trkpt><trkpt lat="40.0608196939993" lon="9.036754990207836"><ele>522.0</ele><time>2026-04-29T08:36:19.032Z</time></trkpt><trkpt lat="40.06088783203401" lon="9.036556361035574"><ele>522.0</ele><time>2026-04-29T08:36:20.032Z</time></trkpt><trkpt lat="40.060971086456426" lon="9.036370148918406"><ele>522.0</ele><time>2026-04-29T08:36:21.032Z</time></trkpt><trkpt lat="40.061085997827306" lon="9.036208606087278"><ele>522.0</ele><time>2026-04-29T08:36:22.032Z</time></trkpt><trkpt lat="40.06122587739616" lon="9.036061348460148"><ele>522.0</ele><time>2026-04-29T08:36:23.032Z</time></trkpt><trkpt lat="40.06137342957923" lon="9.03591538145475"><ele>522.6666666666666</ele><time>2026-04-29T08:36:24.032Z</time></trkpt><trkpt lat="40.06152440087445" lon="9.035765599797365"><ele>523.3333333333333</ele><time>2026-04-29T08:36:25.032Z</time></trkpt><trkpt lat="40.06167777517466" lon="9.035609100022125"><ele>524.0</ele><time>2026-04-29T08:36:26.032Z</time></trkpt><trkpt lat="40.06183543452367" lon="9.035449510515456"><ele>524.0</ele><time>2026-04-29T08:36:27.032Z</time></trkpt><trkpt lat="40.06199554892643" lon="9.03529148254315"><ele>524.0</ele><time>2026-04-29T08:36:28.032Z</time></trkpt><trkpt lat="40.06215682515186" lon="9.035130938051035"><ele>524.0</ele><time>2026-04-29T08:36:29.032Z</time></trkpt><trkpt lat="40.0623103022223" lon="9.034986499909452"><ele>524.3333333333333</ele><time>2026-04-29T08:36:30.032Z</time></trkpt><trkpt lat="40.06245965061427" lon="9.034846655566511"><ele>524.6666666666666</ele><time>2026-04-29T08:36:31.032Z</time></trkpt><trkpt lat="40.0625950863575" lon="9.034700107816418"><ele>525.0</ele><time>2026-04-29T08:36:32.032Z</time></trkpt><trkpt lat="40.06273482844248" lon="9.034562714113457"><ele>525.0</ele><time>2026-04-29T08:36:33.032Z</time></trkpt><trkpt lat="40.06288704540933" lon="9.034452207724165"><ele>525.0</ele><time>2026-04-29T08:36:34.032Z</time></trkpt><trkpt lat="40.063057069976146" lon="9.03437950660959"><ele>525.0</ele><time>2026-04-29T08:36:35.032Z</time></trkpt><trkpt lat="40.06323051986936" lon="9.034322709196406"><ele>524.3333333333334</ele><time>2026-04-29T08:36:36.032Z</time></trkpt><trkpt lat="40.06340732930921" lon="9.034267243405404"><ele>523.6666666666667</ele><time>2026-04-29T08:36:37.032Z</time></trkpt><trkpt lat="40.06358565783913" lon="9.03423161315709"><ele>523.0</ele><time>2026-04-29T08:36:38.032Z</time></trkpt><trkpt lat="40.063771336761924" lon="9.034232375158401"><ele>523.0</ele><time>2026-04-29T08:36:39.032Z</time></trkpt><trkpt lat="40.06395705840645" lon="9.03427609934761"><ele>523.0</ele><time>2026-04-29T08:36:40.032Z</time></trkpt><trkpt lat="40.06413385710064" lon="9.034321335477328"><ele>523.0</ele><time>2026-04-29T08:36:41.032Z</time></trkpt><trkpt lat="40.06430854518443" lon="9.034337273006333"><ele>524.3333333333334</ele><time>2026-04-29T08:36:42.032Z</time></trkpt><trkpt lat="40.06447294869545" lon="9.034312554082334"><ele>525.6666666666666</ele><time>2026-04-29T08:36:43.032Z</time></trkpt><trkpt lat="40.06464631341316" lon="9.034245182810054"><ele>527.0</ele><time>2026-04-29T08:36:44.032Z</time></trkpt><trkpt lat="40.064814248701886" lon="9.03413069916716"><ele>530.0</ele><time>2026-04-29T08:36:45.032Z</time></trkpt><trkpt lat="40.06497789724625" lon="9.033993400453301"><ele>533.0</ele><time>2026-04-29T08:36:46.032Z</time></trkpt><trkpt lat="40.06513565266889" lon="9.033843122971613"><ele>536.0</ele><time>2026-04-29T08:36:47.032Z</time></trkpt><trkpt lat="40.065273200607955" lon="9.033685790694442"><ele>536.0</ele><time>2026-04-29T08:36:48.032Z</time></trkpt><trkpt lat="40.065397372137" lon="9.03349794230901"><ele>536.0</ele><time>2026-04-29T08:36:49.032Z</time></trkpt><trkpt lat="40.06550726509392" lon="9.033290456579932"><ele>536.0</ele><time>2026-04-29T08:36:50.032Z</time></trkpt><trkpt lat="40.06560539980308" lon="9.03307294235303"><ele>536.0</ele><time>2026-04-29T08:36:51.032Z</time></trkpt><trkpt lat="40.06569648325295" lon="9.032834862441533"><ele>536.0</ele><time>2026-04-29T08:36:52.032Z</time></trkpt><trkpt lat="40.06580136808005" lon="9.032598663912493"><ele>536.0</ele><time>2026-04-29T08:36:53.032Z</time></trkpt><trkpt lat="40.06592855198624" lon="9.032376661512652"><ele>536.0</ele><time>2026-04-29T08:36:54.034Z</time></trkpt><trkpt lat="40.0660654280017" lon="9.032160661920281"><ele>536.0</ele><time>2026-04-29T08:36:55.034Z</time></trkpt><trkpt lat="40.06621280519609" lon="9.031952465755417"><ele>536.0</ele><time>2026-04-29T08:36:56.034Z</time></trkpt><trkpt lat="40.06637016047673" lon="9.031734283826781"><ele>534.0</ele><time>2026-04-29T08:36:57.033Z</time></trkpt><trkpt lat="40.06652174573201" lon="9.03150738063938"><ele>532.0</ele><time>2026-04-29T08:36:58.033Z</time></trkpt><trkpt lat="40.06666712517531" lon="9.03126705793082"><ele>532.0</ele><time>2026-04-29T08:36:59.033Z</time></trkpt><trkpt lat="40.066812961016645" lon="9.031025559056117"><ele>532.0</ele><time>2026-04-29T08:37:00.033Z</time></trkpt><trkpt lat="40.066960057050835" lon="9.030785439679258"><ele>536.0</ele><time>2026-04-29T08:37:01.033Z</time></trkpt><trkpt lat="40.067096237976244" lon="9.030560090550964"><ele>540.0</ele><time>2026-04-29T08:37:02.033Z</time></trkpt><trkpt lat="40.067207483407685" lon="9.030324468341327"><ele>544.0</ele><time>2026-04-29T08:37:03.034Z</time></trkpt><trkpt lat="40.067295371771465" lon="9.030068657019472"><ele>540.6666666666667</ele><time>2026-04-29T08:37:04.033Z</time></trkpt><trkpt lat="40.06737561063426" lon="9.029810757103608"><ele>537.3333333333334</ele><time>2026-04-29T08:37:05.033Z</time></trkpt><trkpt lat="40.067444170451736" lon="9.029565825623983"><ele>534.0</ele><time>2026-04-29T08:37:06.033Z</time></trkpt><trkpt lat="40.06749486002858" lon="9.029337592464607"><ele>534.0</ele><time>2026-04-29T08:37:07.034Z</time></trkpt><trkpt lat="40.067514026829706" lon="9.029111404329297"><ele>534.0</ele><time>2026-04-29T08:37:08.034Z</time></trkpt><trkpt lat="40.06750567399518" lon="9.028867911609037"><ele>534.0</ele><time>2026-04-29T08:37:09.034Z</time></trkpt><trkpt lat="40.06747599117708" lon="9.028620799353572"><ele>538.0</ele><time>2026-04-29T08:37:10.034Z</time></trkpt><trkpt lat="40.06742626161426" lon="9.028362989149066"><ele>542.0</ele><time>2026-04-29T08:37:11.034Z</time></trkpt><trkpt lat="40.067364627595445" lon="9.028096163432057"><ele>546.0</ele><time>2026-04-29T08:37:12.034Z</time></trkpt><trkpt lat="40.06730791549694" lon="9.027828243093516"><ele>546.0</ele><time>2026-04-29T08:37:13.034Z</time></trkpt><trkpt lat="40.0672649179931" lon="9.027580236825704"><ele>546.0</ele><time>2026-04-29T08:37:14.034Z</time></trkpt><trkpt lat="40.067259688161165" lon="9.027339387060737"><ele>546.0</ele><time>2026-04-29T08:37:15.034Z</time></trkpt><trkpt lat="40.0672918390576" lon="9.027082098910679"><ele>548.0</ele><time>2026-04-29T08:37:16.034Z</time></trkpt><trkpt lat="40.06734486913709" lon="9.026824920692665"><ele>550.0</ele><time>2026-04-29T08:37:17.034Z</time></trkpt><trkpt lat="40.067416327568885" lon="9.02656702234826"><ele>552.0</ele><time>2026-04-29T08:37:18.034Z</time></trkpt><trkpt lat="40.06751278525158" lon="9.026324493477615"><ele>549.6666666666666</ele><time>2026-04-29T08:37:19.034Z</time></trkpt><trkpt lat="40.06763024799829" lon="9.026086184110348"><ele>547.3333333333333</ele><time>2026-04-29T08:37:20.034Z</time></trkpt><trkpt lat="40.067738473731765" lon="9.025841324866526"><ele>545.0</ele><time>2026-04-29T08:37:21.034Z</time></trkpt><trkpt lat="40.06781904603531" lon="9.02558633656638"><ele>545.0</ele><time>2026-04-29T08:37:22.034Z</time></trkpt><trkpt lat="40.06786294400595" lon="9.025318230197287"><ele>545.0</ele><time>2026-04-29T08:37:23.034Z</time></trkpt><trkpt lat="40.067879889696094" lon="9.025046251996155"><ele>545.0</ele><time>2026-04-29T08:37:24.034Z</time></trkpt><trkpt lat="40.06788237842092" lon="9.024765698365876"><ele>544.6666666666666</ele><time>2026-04-29T08:37:25.034Z</time></trkpt><trkpt lat="40.067884006920494" lon="9.024479723841145"><ele>544.3333333333334</ele><time>2026-04-29T08:37:26.034Z</time></trkpt><trkpt lat="40.06789021143119" lon="9.024183406762619"><ele>544.0</ele><time>2026-04-29T08:37:27.034Z</time></trkpt><trkpt lat="40.06788823483136" lon="9.023892074910448"><ele>544.0</ele><time>2026-04-29T08:37:28.034Z</time></trkpt><trkpt lat="40.06788580946644" lon="9.02359358021712"><ele>544.0</ele><time>2026-04-29T08:37:29.034Z</time></trkpt><trkpt lat="40.0678833620451" lon="9.023287011449906"><ele>544.0</ele><time>2026-04-29T08:37:30.034Z</time></trkpt><trkpt lat="40.067877408292475" lon="9.022982516765607"><ele>544.0</ele><time>2026-04-29T08:37:31.034Z</time></trkpt><trkpt lat="40.06786699740059" lon="9.022678604952436"><ele>549.0</ele><time>2026-04-29T08:37:32.034Z</time></trkpt><trkpt lat="40.0678662951537" lon="9.022374080298771"><ele>554.0</ele><time>2026-04-29T08:37:33.034Z</time></trkpt><trkpt lat="40.067863496035876" lon="9.022081934944426"><ele>554.0</ele><time>2026-04-29T08:37:34.034Z</time></trkpt><trkpt lat="40.06787111151606" lon="9.021794265271001"><ele>554.0</ele><time>2026-04-29T08:37:35.034Z</time></trkpt><trkpt lat="40.067909579220945" lon="9.021507215283403"><ele>554.0</ele><time>2026-04-29T08:37:36.034Z</time></trkpt><trkpt lat="40.06793928927445" lon="9.021221192087863"><ele>556.6666666666666</ele><time>2026-04-29T08:37:37.034Z</time></trkpt><trkpt lat="40.06796070311213" lon="9.020941693798692"><ele>559.3333333333334</ele><time>2026-04-29T08:37:38.034Z</time></trkpt><trkpt lat="40.06797992858762" lon="9.020687489900105"><ele>562.0</ele><time>2026-04-29T08:37:39.034Z</time></trkpt><trkpt lat="40.067988359582245" lon="9.020451381115496"><ele>562.0</ele><time>2026-04-29T08:37:40.034Z</time></trkpt><trkpt lat="40.06797118566787" lon="9.020236231389259"><ele>562.0</ele><time>2026-04-29T08:37:41.034Z</time></trkpt><trkpt lat="40.06791846748224" lon="9.020050278507677"><ele>562.0</ele><time>2026-04-29T08:37:42.034Z</time></trkpt><trkpt lat="40.06782061685958" lon="9.0198921068388"><ele>563.0</ele><time>2026-04-29T08:37:43.034Z</time></trkpt><trkpt lat="40.06768637359382" lon="9.019765255230235"><ele>564.0</ele><time>2026-04-29T08:37:44.034Z</time></trkpt><trkpt lat="40.06752734544709" lon="9.019665311246271"><ele>565.0</ele><time>2026-04-29T08:37:45.034Z</time></trkpt><trkpt lat="40.06735469957616" lon="9.01956640667604"><ele>565.0</ele><time>2026-04-29T08:37:46.034Z</time></trkpt><trkpt lat="40.06717816000217" lon="9.019470333331357"><ele>565.0</ele><time>2026-04-29T08:37:47.034Z</time></trkpt><trkpt lat="40.06701582754574" lon="9.019345209378606"><ele>565.0</ele><time>2026-04-29T08:37:48.034Z</time></trkpt><trkpt lat="40.06687673595203" lon="9.01920116002403"><ele>563.0</ele><time>2026-04-29T08:37:49.034Z</time></trkpt><trkpt lat="40.06676620885956" lon="9.019017984421797"><ele>561.0</ele><time>2026-04-29T08:37:50.034Z</time></trkpt><trkpt lat="40.06664589046851" lon="9.018846237078543"><ele>559.0</ele><time>2026-04-29T08:37:51.034Z</time></trkpt><trkpt lat="40.06650904365475" lon="9.018707619705678"><ele>564.0</ele><time>2026-04-29T08:37:52.034Z</time></trkpt><trkpt lat="40.06635475719311" lon="9.018599004949392"><ele>569.0</ele><time>2026-04-29T08:37:53.034Z</time></trkpt><trkpt lat="40.06619467497656" lon="9.018498815094617"><ele>574.0</ele><time>2026-04-29T08:37:54.034Z</time></trkpt><trkpt lat="40.06604376470662" lon="9.018376165922101"><ele>573.0</ele><time>2026-04-29T08:37:55.034Z</time></trkpt><trkpt lat="40.06591384599932" lon="9.018216231010433"><ele>572.0</ele><time>2026-04-29T08:37:56.034Z</time></trkpt><trkpt lat="40.06579880468112" lon="9.018035035885346"><ele>571.0</ele><time>2026-04-29T08:37:57.034Z</time></trkpt><trkpt lat="40.06570041568638" lon="9.017838095307456"><ele>577.6666666666667</ele><time>2026-04-29T08:37:58.033Z</time></trkpt><trkpt lat="40.06561559091292" lon="9.017620864199316"><ele>584.3333333333334</ele><time>2026-04-29T08:37:59.033Z</time></trkpt><trkpt lat="40.065534086894914" lon="9.017403239656822"><ele>591.0</ele><time>2026-04-29T08:38:00.033Z</time></trkpt><trkpt lat="40.06546111354554" lon="9.017194189217491"><ele>591.75</ele><time>2026-04-29T08:38:01.033Z</time></trkpt><trkpt lat="40.065391027779775" lon="9.017003454520358"><ele>592.5</ele><time>2026-04-29T08:38:02.033Z</time></trkpt><trkpt lat="40.06534517749574" lon="9.016827335243347"><ele>593.25</ele><time>2026-04-29T08:38:03.033Z</time></trkpt><trkpt lat="40.06533956271098" lon="9.016655034213295"><ele>594.0</ele><time>2026-04-29T08:38:04.033Z</time></trkpt><trkpt lat="40.06537574991099" lon="9.01649419861016"><ele>593.0</ele><time>2026-04-29T08:38:05.033Z</time></trkpt><trkpt lat="40.065451265597616" lon="9.01636955852691"><ele>592.0</ele><time>2026-04-29T08:38:06.033Z</time></trkpt><trkpt lat="40.0655542827103" lon="9.01628280850835"><ele>591.0</ele><time>2026-04-29T08:38:07.033Z</time></trkpt><trkpt lat="40.06568252041503" lon="9.016258012216461"><ele>590.0</ele><time>2026-04-29T08:38:08.033Z</time></trkpt><trkpt lat="40.065814278270665" lon="9.016296555416861"><ele>590.0</ele><time>2026-04-29T08:38:09.033Z</time></trkpt><trkpt lat="40.065939207662076" lon="9.016385386609693"><ele>590.0</ele><time>2026-04-29T08:38:10.033Z</time></trkpt><trkpt lat="40.06604404548181" lon="9.016473362364076"><ele>590.0</ele><time>2026-04-29T08:38:11.033Z</time></trkpt><trkpt lat="40.06615866313405" lon="9.016515356981406"><ele>590.0</ele><time>2026-04-29T08:38:12.033Z</time></trkpt><trkpt lat="40.066271789991355" lon="9.016497567534406"><ele>590.0</ele><time>2026-04-29T08:38:13.033Z</time></trkpt><trkpt lat="40.066387068787996" lon="9.016408097462527"><ele>590.0</ele><time>2026-04-29T08:38:14.033Z</time></trkpt><trkpt lat="40.066487485786794" lon="9.016280766280904"><ele>590.0</ele><time>2026-04-29T08:38:15.033Z</time></trkpt><trkpt lat="40.066585484648144" lon="9.01613638644538"><ele>590.0</ele><time>2026-04-29T08:38:16.033Z</time></trkpt><trkpt lat="40.066689651485696" lon="9.015981923312136"><ele>591.0</ele><time>2026-04-29T08:38:17.033Z</time></trkpt><trkpt lat="40.06680214116549" lon="9.015840922650117"><ele>592.0</ele><time>2026-04-29T08:38:18.033Z</time></trkpt><trkpt lat="40.06690851428969" lon="9.015696925033758"><ele>593.0</ele><time>2026-04-29T08:38:19.033Z</time></trkpt><trkpt lat="40.06697514105905" lon="9.015525684740004"><ele>595.6666666666666</ele><time>2026-04-29T08:38:20.033Z</time></trkpt><trkpt lat="40.06700124216447" lon="9.015332354859176"><ele>598.3333333333334</ele><time>2026-04-29T08:38:21.033Z</time></trkpt><trkpt lat="40.066975657057604" lon="9.01512518196893"><ele>601.0</ele><time>2026-04-29T08:38:22.033Z</time></trkpt><trkpt lat="40.06691129170578" lon="9.014916880940303"><ele>603.3333333333334</ele><time>2026-04-29T08:38:23.033Z</time></trkpt><trkpt lat="40.066835754435026" lon="9.014710719378133"><ele>605.6666666666666</ele><time>2026-04-29T08:38:24.033Z</time></trkpt><trkpt lat="40.066780338396754" lon="9.014523941471518"><ele>608.0</ele><time>2026-04-29T08:38:25.033Z</time></trkpt><trkpt lat="40.06675239894971" lon="9.01434503672589"><ele>608.0</ele><time>2026-04-29T08:38:26.033Z</time></trkpt><trkpt lat="40.06677137304589" lon="9.014172976343506"><ele>608.0</ele><time>2026-04-29T08:38:27.033Z</time></trkpt><trkpt lat="40.066839586450925" lon="9.01403203602992"><ele>608.0</ele><time>2026-04-29T08:38:28.033Z</time></trkpt><trkpt lat="40.0669507028259" lon="9.013935345039634"><ele>608.0</ele><time>2026-04-29T08:38:29.033Z</time></trkpt><trkpt lat="40.06708615255478" lon="9.013894630588252"><ele>608.5</ele><time>2026-04-29T08:38:30.033Z</time></trkpt><trkpt lat="40.06722762603257" lon="9.013854535911506"><ele>609.0</ele><time>2026-04-29T08:38:31.033Z</time></trkpt><trkpt lat="40.06735718235154" lon="9.013763491069454"><ele>609.5</ele><time>2026-04-29T08:38:32.033Z</time></trkpt><trkpt lat="40.06747176126124" lon="9.013630945346986"><ele>610.0</ele><time>2026-04-29T08:38:33.033Z</time></trkpt><trkpt lat="40.067568611789895" lon="9.013471793416038"><ele>613.0</ele><time>2026-04-29T08:38:34.033Z</time></trkpt><trkpt lat="40.067636552000884" lon="9.013282631194587"><ele>616.0</ele><time>2026-04-29T08:38:35.033Z</time></trkpt><trkpt lat="40.06767550176137" lon="9.013071346950932"><ele>619.0</ele><time>2026-04-29T08:38:36.033Z</time></trkpt><trkpt lat="40.06769882936867" lon="9.012845139285888"><ele>619.0</ele><time>2026-04-29T08:38:37.033Z</time></trkpt><trkpt lat="40.06772153082982" lon="9.01261775962334"><ele>619.0</ele><time>2026-04-29T08:38:38.033Z</time></trkpt><trkpt lat="40.06774339812714" lon="9.012404017501051"><ele>619.0</ele><time>2026-04-29T08:38:39.033Z</time></trkpt><trkpt lat="40.067736001196224" lon="9.012203730366634"><ele>618.0</ele><time>2026-04-29T08:38:40.033Z</time></trkpt><trkpt lat="40.06768664596781" lon="9.012009614300547"><ele>617.0</ele><time>2026-04-29T08:38:41.033Z</time></trkpt><trkpt lat="40.06760773014708" lon="9.011821174812084"><ele>616.0</ele><time>2026-04-29T08:38:42.033Z</time></trkpt><trkpt lat="40.06750031329636" lon="9.011634463545716"><ele>618.0</ele><time>2026-04-29T08:38:43.033Z</time></trkpt><trkpt lat="40.06739240949061" lon="9.011441582764053"><ele>620.0</ele><time>2026-04-29T08:38:44.033Z</time></trkpt><trkpt lat="40.06727701908716" lon="9.011250355087267"><ele>622.0</ele><time>2026-04-29T08:38:45.033Z</time></trkpt><trkpt lat="40.067137111519685" lon="9.011080101237274"><ele>622.0</ele><time>2026-04-29T08:38:46.033Z</time></trkpt><trkpt lat="40.06698942539341" lon="9.010929011491669"><ele>622.0</ele><time>2026-04-29T08:38:47.033Z</time></trkpt><trkpt lat="40.06682600307278" lon="9.010805191209814"><ele>622.0</ele><time>2026-04-29T08:38:48.033Z</time></trkpt><trkpt lat="40.06667093898455" lon="9.01073293642206"><ele>622.6666666666667</ele><time>2026-04-29T08:38:49.033Z</time></trkpt><trkpt lat="40.06651645619428" lon="9.010696070342798"><ele>623.3333333333334</ele><time>2026-04-29T08:38:50.033Z</time></trkpt><trkpt lat="40.06635698282471" lon="9.010709554199648"><ele>624.0</ele><time>2026-04-29T08:38:51.033Z</time></trkpt><trkpt lat="40.06620533276756" lon="9.010746218002188"><ele>624.0</ele><time>2026-04-29T08:38:52.033Z</time></trkpt><trkpt lat="40.06605836428942" lon="9.010797689188411"><ele>624.0</ele><time>2026-04-29T08:38:53.033Z</time></trkpt><trkpt lat="40.0659403614823" lon="9.010813802418049"><ele>624.0</ele><time>2026-04-29T08:38:54.033Z</time></trkpt><trkpt lat="40.06582813739462" lon="9.010766037398245"><ele>624.0</ele><time>2026-04-29T08:38:55.033Z</time></trkpt><trkpt lat="40.06573072012089" lon="9.010664934709427"><ele>635.6666666666666</ele><time>2026-04-29T08:38:56.033Z</time></trkpt><trkpt lat="40.06566710030408" lon="9.010506894521555"><ele>647.3333333333333</ele><time>2026-04-29T08:38:57.033Z</time></trkpt><trkpt lat="40.065619438706825" lon="9.010311726402897"><ele>659.0</ele><time>2026-04-29T08:38:58.033Z</time></trkpt><trkpt lat="40.06556215994344" lon="9.010102041644066"><ele>658.0</ele><time>2026-04-29T08:38:59.033Z</time></trkpt><trkpt lat="40.06549009761444" lon="9.009884651611763"><ele>657.0</ele><time>2026-04-29T08:39:00.034Z</time></trkpt><trkpt lat="40.06542560686779" lon="9.009655616351338"><ele>656.0</ele><time>2026-04-29T08:39:01.035Z</time></trkpt><trkpt lat="40.065367854077024" lon="9.009421638553299"><ele>656.0</ele><time>2026-04-29T08:39:02.035Z</time></trkpt><trkpt lat="40.06530979740241" lon="9.009179019890022"><ele>656.0</ele><time>2026-04-29T08:39:03.035Z</time></trkpt><trkpt lat="40.06525371790771" lon="9.008933603258129"><ele>656.0</ele><time>2026-04-29T08:39:04.034Z</time></trkpt><trkpt lat="40.065197276226456" lon="9.008688539773162"><ele>655.0</ele><time>2026-04-29T08:39:05.034Z</time></trkpt><trkpt lat="40.0651355053854" lon="9.008450750102877"><ele>654.0</ele><time>2026-04-29T08:39:06.034Z</time></trkpt><trkpt lat="40.06508426112215" lon="9.008224845615892"><ele>653.0</ele><time>2026-04-29T08:39:07.035Z</time></trkpt><trkpt lat="40.065043234731185" lon="9.00804132049215"><ele>653.0</ele><time>2026-04-29T08:39:08.035Z</time></trkpt><trkpt lat="40.06502061623322" lon="9.007878469938236"><ele>653.0</ele><time>2026-04-29T08:39:09.035Z</time></trkpt><trkpt lat="40.06504559346405" lon="9.007719594197546"><ele>653.0</ele><time>2026-04-29T08:39:10.034Z</time></trkpt><trkpt lat="40.06511448259673" lon="9.007583621708632"><ele>653.0</ele><time>2026-04-29T08:39:11.034Z</time></trkpt><trkpt lat="40.06521460225031" lon="9.007488713565381"><ele>653.0</ele><time>2026-04-29T08:39:12.035Z</time></trkpt><trkpt lat="40.06533712042311" lon="9.007437453398913"><ele>653.0</ele><time>2026-04-29T08:39:13.034Z</time></trkpt><trkpt lat="40.06547059166264" lon="9.00744188053645"><ele>653.0</ele><time>2026-04-29T08:39:14.034Z</time></trkpt><trkpt lat="40.06561025765058" lon="9.007498704800755"><ele>653.0</ele><time>2026-04-29T08:39:15.034Z</time></trkpt><trkpt lat="40.065754601285605" lon="9.007579509131585"><ele>652.5</ele><time>2026-04-29T08:39:16.034Z</time></trkpt><trkpt lat="40.06590181368865" lon="9.00763428972859"><ele>652.0</ele><time>2026-04-29T08:39:17.034Z</time></trkpt><trkpt lat="40.06604095785341" lon="9.007660346686645"><ele>651.5</ele><time>2026-04-29T08:39:18.034Z</time></trkpt><trkpt lat="40.06617359010086" lon="9.007638785702152"><ele>651.0</ele><time>2026-04-29T08:39:19.034Z</time></trkpt><trkpt lat="40.066298135312" lon="9.007555988512621"><ele>658.0</ele><time>2026-04-29T08:39:20.034Z</time></trkpt><trkpt lat="40.066410935244036" lon="9.007422339306315"><ele>665.0</ele><time>2026-04-29T08:39:21.034Z</time></trkpt><trkpt lat="40.06652362925982" lon="9.007265500184774"><ele>672.0</ele><time>2026-04-29T08:39:22.034Z</time></trkpt><trkpt lat="40.066661681022666" lon="9.007123288973352"><ele>672.0</ele><time>2026-04-29T08:39:23.034Z</time></trkpt><trkpt lat="40.06681821982816" lon="9.00699446037302"><ele>672.0</ele><time>2026-04-29T08:39:24.034Z</time></trkpt><trkpt lat="40.06698040790575" lon="9.006879231770014"><ele>672.0</ele><time>2026-04-29T08:39:25.034Z</time></trkpt><trkpt lat="40.067150545834885" lon="9.006768505952744"><ele>677.0</ele><time>2026-04-29T08:39:26.034Z</time></trkpt><trkpt lat="40.06732602004913" lon="9.006655545635551"><ele>682.0</ele><time>2026-04-29T08:39:27.034Z</time></trkpt><trkpt lat="40.067501059807505" lon="9.006549308239256"><ele>687.0</ele><time>2026-04-29T08:39:28.034Z</time></trkpt><trkpt lat="40.067671599858244" lon="9.00643555402496"><ele>687.0</ele><time>2026-04-29T08:39:29.034Z</time></trkpt><trkpt lat="40.067837532264626" lon="9.00628565659431"><ele>687.0</ele><time>2026-04-29T08:39:30.034Z</time></trkpt><trkpt lat="40.06798407907887" lon="9.00610619184094"><ele>687.0</ele><time>2026-04-29T08:39:31.034Z</time></trkpt><trkpt lat="40.06811147009861" lon="9.005899485224587"><ele>684.3333333333334</ele><time>2026-04-29T08:39:32.034Z</time></trkpt><trkpt lat="40.06822164390884" lon="9.005670537323109"><ele>681.6666666666667</ele><time>2026-04-29T08:39:33.034Z</time></trkpt><trkpt lat="40.06832884625703" lon="9.005436234055884"><ele>679.0</ele><time>2026-04-29T08:39:34.034Z</time></trkpt><trkpt lat="40.068439275596816" lon="9.005195353372775"><ele>686.3333333333334</ele><time>2026-04-29T08:39:35.034Z</time></trkpt><trkpt lat="40.0685536193956" lon="9.00495290295502"><ele>693.6666666666666</ele><time>2026-04-29T08:39:36.034Z</time></trkpt><trkpt lat="40.06866654323663" lon="9.004724137553673"><ele>701.0</ele><time>2026-04-29T08:39:37.034Z</time></trkpt><trkpt lat="40.06877215960209" lon="9.004494740622098"><ele>701.0</ele><time>2026-04-29T08:39:38.034Z</time></trkpt><trkpt lat="40.06887848467302" lon="9.004271555202456"><ele>701.0</ele><time>2026-04-29T08:39:39.034Z</time></trkpt><trkpt lat="40.06899799995801" lon="9.004078926165933"><ele>701.0</ele><time>2026-04-29T08:39:40.034Z</time></trkpt><trkpt lat="40.06913956058656" lon="9.003918431967325"><ele>700.0</ele><time>2026-04-29T08:39:41.034Z</time></trkpt><trkpt lat="40.069293842359244" lon="9.003767370397894"><ele>699.0</ele><time>2026-04-29T08:39:42.034Z</time></trkpt><trkpt lat="40.069437736615576" lon="9.003607874099517"><ele>698.0</ele><time>2026-04-29T08:39:43.034Z</time></trkpt><trkpt lat="40.06956853290898" lon="9.00343991869076"><ele>704.6666666666666</ele><time>2026-04-29T08:39:44.034Z</time></trkpt><trkpt lat="40.06966711157479" lon="9.003233305284036"><ele>711.3333333333334</ele><time>2026-04-29T08:39:45.034Z</time></trkpt><trkpt lat="40.06974587717159" lon="9.00303095015109"><ele>718.0</ele><time>2026-04-29T08:39:46.034Z</time></trkpt><trkpt lat="40.0698236335838" lon="9.002851973132346"><ele>718.0</ele><time>2026-04-29T08:39:47.034Z</time></trkpt><trkpt lat="40.069924408476524" lon="9.002715535688862"><ele>718.0</ele><time>2026-04-29T08:39:48.034Z</time></trkpt><trkpt lat="40.070043717841" lon="9.002603714153357"><ele>718.0</ele><time>2026-04-29T08:39:49.034Z</time></trkpt><trkpt lat="40.07017946848487" lon="9.002531053498368"><ele>718.0</ele><time>2026-04-29T08:39:50.034Z</time></trkpt><trkpt lat="40.07031635282587" lon="9.002486857032093"><ele>713.3333333333334</ele><time>2026-04-29T08:39:51.034Z</time></trkpt><trkpt lat="40.07045942269511" lon="9.002419834480964"><ele>708.6666666666666</ele><time>2026-04-29T08:39:52.034Z</time></trkpt><trkpt lat="40.07059632889543" lon="9.002314143829864"><ele>704.0</ele><time>2026-04-29T08:39:53.034Z</time></trkpt><trkpt lat="40.070722538895005" lon="9.002164580772464"><ele>698.0</ele><time>2026-04-29T08:39:54.034Z</time></trkpt><trkpt lat="40.07084499976286" lon="9.001990631721137"><ele>692.0</ele><time>2026-04-29T08:39:55.034Z</time></trkpt><trkpt lat="40.070971788793265" lon="9.001835542324208"><ele>686.0</ele><time>2026-04-29T08:39:56.034Z</time></trkpt><trkpt lat="40.07108351595875" lon="9.001699223794194"><ele>687.25</ele><time>2026-04-29T08:39:57.034Z</time></trkpt><trkpt lat="40.071169318330696" lon="9.00156592747576"><ele>688.5</ele><time>2026-04-29T08:39:58.034Z</time></trkpt><trkpt lat="40.07122289133119" lon="9.001414101062108"><ele>689.75</ele><time>2026-04-29T08:39:59.034Z</time></trkpt><trkpt lat="40.071246347583525" lon="9.001236639362498"><ele>691.0</ele><time>2026-04-29T08:40:00.034Z</time></trkpt><trkpt lat="40.07124823226922" lon="9.001038109652324"><ele>690.6666666666667</ele><time>2026-04-29T08:40:01.034Z</time></trkpt><trkpt lat="40.07122595683876" lon="9.000832323325756"><ele>690.3333333333334</ele><time>2026-04-29T08:40:02.034Z</time></trkpt><trkpt lat="40.07119995315918" lon="9.000613139371344"><ele>690.0</ele><time>2026-04-29T08:40:03.034Z</time></trkpt><trkpt lat="40.0711946542218" lon="9.000383192701255"><ele>690.0</ele><time>2026-04-29T08:40:04.034Z</time></trkpt><trkpt lat="40.07120309365345" lon="9.000164813617024"><ele>690.0</ele><time>2026-04-29T08:40:05.034Z</time></trkpt><trkpt lat="40.071212682020686" lon="8.999949122300617"><ele>690.0</ele><time>2026-04-29T08:40:06.034Z</time></trkpt><trkpt lat="40.07122225040817" lon="8.999716558216862"><ele>690.0</ele><time>2026-04-29T08:40:07.034Z</time></trkpt><trkpt lat="40.071222176689254" lon="8.999466696514098"><ele>690.0</ele><time>2026-04-29T08:40:08.034Z</time></trkpt><trkpt lat="40.07122286127087" lon="8.99921235235678"><ele>690.0</ele><time>2026-04-29T08:40:09.034Z</time></trkpt><trkpt lat="40.07122829803755" lon="8.998960372625781"><ele>689.0</ele><time>2026-04-29T08:40:10.034Z</time></trkpt><trkpt lat="40.071238913061464" lon="8.99871305133007"><ele>688.0</ele><time>2026-04-29T08:40:11.034Z</time></trkpt><trkpt lat="40.07126227309923" lon="8.998470885711209"><ele>687.0</ele><time>2026-04-29T08:40:12.034Z</time></trkpt><trkpt lat="40.07130226162555" lon="8.998230052343331"><ele>686.0</ele><time>2026-04-29T08:40:13.034Z</time></trkpt><trkpt lat="40.071356420318956" lon="8.997993278144403"><ele>685.0</ele><time>2026-04-29T08:40:14.034Z</time></trkpt><trkpt lat="40.07142610443995" lon="8.997760083710125"><ele>684.0</ele><time>2026-04-29T08:40:15.034Z</time></trkpt><trkpt lat="40.07150872026574" lon="8.9975322808825"><ele>683.3333333333334</ele><time>2026-04-29T08:40:16.034Z</time></trkpt><trkpt lat="40.07159929600625" lon="8.997309223435655"><ele>682.6666666666667</ele><time>2026-04-29T08:40:17.034Z</time></trkpt><trkpt lat="40.07169568707641" lon="8.997063801148723"><ele>682.0</ele><time>2026-04-29T08:40:18.034Z</time></trkpt><trkpt lat="40.07178245198185" lon="8.996821037944848"><ele>678.0</ele><time>2026-04-29T08:40:19.034Z</time></trkpt><trkpt lat="40.07187810913588" lon="8.996567883554235"><ele>674.0</ele><time>2026-04-29T08:40:20.034Z</time></trkpt><trkpt lat="40.07197344375078" lon="8.99631337717029"><ele>670.0</ele><time>2026-04-29T08:40:21.034Z</time></trkpt><trkpt lat="40.072070742784376" lon="8.996059050792978"><ele>671.3333333333334</ele><time>2026-04-29T08:40:22.034Z</time></trkpt><trkpt lat="40.072169166496664" lon="8.995806466878207"><ele>672.6666666666666</ele><time>2026-04-29T08:40:23.034Z</time></trkpt><trkpt lat="40.07226712994531" lon="8.99554982821717"><ele>674.0</ele><time>2026-04-29T08:40:24.034Z</time></trkpt><trkpt lat="40.07236393049147" lon="8.995295777921521"><ele>671.3333333333333</ele><time>2026-04-29T08:40:25.034Z</time></trkpt><trkpt lat="40.07245747146014" lon="8.995061290539436"><ele>668.6666666666666</ele><time>2026-04-29T08:40:26.034Z</time></trkpt><trkpt lat="40.07256129646928" lon="8.99485558640658"><ele>666.0</ele><time>2026-04-29T08:40:27.034Z</time></trkpt><trkpt lat="40.072689675270844" lon="8.994666884612755"><ele>666.0</ele><time>2026-04-29T08:40:28.034Z</time></trkpt><trkpt lat="40.072829790302755" lon="8.994485375895598"><ele>666.0</ele><time>2026-04-29T08:40:29.034Z</time></trkpt><trkpt lat="40.07299088516077" lon="8.994323520940132"><ele>666.0</ele><time>2026-04-29T08:40:30.034Z</time></trkpt><trkpt lat="40.07316507622571" lon="8.994173047370996"><ele>664.6666666666666</ele><time>2026-04-29T08:40:31.034Z</time></trkpt><trkpt lat="40.07334861744965" lon="8.994021178171494"><ele>663.3333333333333</ele><time>2026-04-29T08:40:32.034Z</time></trkpt><trkpt lat="40.0735373266575" lon="8.993871368989188"><ele>662.0</ele><time>2026-04-29T08:40:33.034Z</time></trkpt><trkpt lat="40.07371946910501" lon="8.993715442158667"><ele>662.0</ele><time>2026-04-29T08:40:34.034Z</time></trkpt><trkpt lat="40.0738999932142" lon="8.99355515485216"><ele>662.0</ele><time>2026-04-29T08:40:35.034Z</time></trkpt><trkpt lat="40.07408028265979" lon="8.993403842361133"><ele>662.0</ele><time>2026-04-29T08:40:36.034Z</time></trkpt><trkpt lat="40.07426109591403" lon="8.993255212636814"><ele>662.6666666666666</ele><time>2026-04-29T08:40:37.034Z</time></trkpt><trkpt lat="40.07444457627685" lon="8.993114310444081"><ele>663.3333333333334</ele><time>2026-04-29T08:40:38.034Z</time></trkpt><trkpt lat="40.074621596175504" lon="8.992970225599555"><ele>664.0</ele><time>2026-04-29T08:40:39.034Z</time></trkpt><trkpt lat="40.07478942614524" lon="8.992811145657551"><ele>663.6666666666667</ele><time>2026-04-29T08:40:40.034Z</time></trkpt><trkpt lat="40.07495203370139" lon="8.99263092329262"><ele>663.3333333333334</ele><time>2026-04-29T08:40:41.034Z</time></trkpt><trkpt lat="40.075116457566" lon="8.992438319897484"><ele>663.0</ele><time>2026-04-29T08:40:42.034Z</time></trkpt><trkpt lat="40.07528105993831" lon="8.992249201585826"><ele>663.0</ele><time>2026-04-29T08:40:43.034Z</time></trkpt><trkpt lat="40.07544623150262" lon="8.992060958661444"><ele>663.0</ele><time>2026-04-29T08:40:44.034Z</time></trkpt><trkpt lat="40.0756130808397" lon="8.99187257611268"><ele>663.0</ele><time>2026-04-29T08:40:45.034Z</time></trkpt><trkpt lat="40.0757765431534" lon="8.991684269219077"><ele>663.0</ele><time>2026-04-29T08:40:46.034Z</time></trkpt><trkpt lat="40.07593867872459" lon="8.991496185363987"><ele>663.0</ele><time>2026-04-29T08:40:47.034Z</time></trkpt><trkpt lat="40.07609463895689" lon="8.991311321884789"><ele>663.0</ele><time>2026-04-29T08:40:48.034Z</time></trkpt><trkpt lat="40.07624981408167" lon="8.991131386671016"><ele>663.0</ele><time>2026-04-29T08:40:49.034Z</time></trkpt><trkpt lat="40.07638947365745" lon="8.990958331017882"><ele>663.0</ele><time>2026-04-29T08:40:50.034Z</time></trkpt><trkpt lat="40.07649752189756" lon="8.990768421521837"><ele>663.0</ele><time>2026-04-29T08:40:51.034Z</time></trkpt><trkpt lat="40.076598801827345" lon="8.990540690916577"><ele>663.3333333333334</ele><time>2026-04-29T08:40:52.034Z</time></trkpt><trkpt lat="40.07667540529592" lon="8.990282577984283"><ele>663.6666666666667</ele><time>2026-04-29T08:40:53.034Z</time></trkpt><trkpt lat="40.07675964907301" lon="8.990032825199977"><ele>664.0</ele><time>2026-04-29T08:40:54.034Z</time></trkpt><trkpt lat="40.07685586608798" lon="8.989783679081746"><ele>663.3333333333334</ele><time>2026-04-29T08:40:55.034Z</time></trkpt><trkpt lat="40.07696964014002" lon="8.989534088416265"><ele>662.6666666666666</ele><time>2026-04-29T08:40:56.034Z</time></trkpt><trkpt lat="40.077088596513825" lon="8.989289891581919"><ele>662.0</ele><time>2026-04-29T08:40:57.034Z</time></trkpt><trkpt lat="40.07722303100581" lon="8.989035754035555"><ele>660.0</ele><time>2026-04-29T08:40:58.034Z</time></trkpt><trkpt lat="40.07735163191842" lon="8.988776045666876"><ele>658.0</ele><time>2026-04-29T08:40:59.034Z</time></trkpt><trkpt lat="40.07747644893507" lon="8.988515864664187"><ele>654.5</ele><time>2026-04-29T08:41:00.034Z</time></trkpt><trkpt lat="40.07759357314559" lon="8.988256835495518"><ele>651.0</ele><time>2026-04-29T08:41:01.034Z</time></trkpt><trkpt lat="40.07772101974859" lon="8.987990148126485"><ele>651.0</ele><time>2026-04-29T08:41:02.034Z</time></trkpt><trkpt lat="40.077847057935585" lon="8.987732584418723"><ele>651.0</ele><time>2026-04-29T08:41:03.034Z</time></trkpt><trkpt lat="40.07797097317775" lon="8.987475851626222"><ele>650.6666666666666</ele><time>2026-04-29T08:41:04.034Z</time></trkpt><trkpt lat="40.07809507951846" lon="8.98722230731046"><ele>650.3333333333333</ele><time>2026-04-29T08:41:05.034Z</time></trkpt><trkpt lat="40.07820982723401" lon="8.98698136767836"><ele>650.0</ele><time>2026-04-29T08:41:06.035Z</time></trkpt><trkpt lat="40.07831467351263" lon="8.986763817827365"><ele>649.0</ele><time>2026-04-29T08:41:07.036Z</time></trkpt><trkpt lat="40.07841228719527" lon="8.98656230554266"><ele>648.0</ele><time>2026-04-29T08:41:08.036Z</time></trkpt><trkpt lat="40.078499659563334" lon="8.986379401278086"><ele>647.0</ele><time>2026-04-29T08:41:09.036Z</time></trkpt><trkpt lat="40.07859246641403" lon="8.986221375409007"><ele>647.0</ele><time>2026-04-29T08:41:10.036Z</time></trkpt><trkpt lat="40.07868558238352" lon="8.98610625505237"><ele>647.0</ele><time>2026-04-29T08:41:11.036Z</time></trkpt><trkpt lat="40.07880918790104" lon="8.986012455493418"><ele>647.0</ele><time>2026-04-29T08:41:12.036Z</time></trkpt><trkpt lat="40.07895848065661" lon="8.985921526793822"><ele>647.0</ele><time>2026-04-29T08:41:13.036Z</time></trkpt><trkpt lat="40.07913840677004" lon="8.985851887371261"><ele>644.6666666666666</ele><time>2026-04-29T08:41:14.036Z</time></trkpt><trkpt lat="40.07932642317942" lon="8.985791620246125"><ele>642.3333333333334</ele><time>2026-04-29T08:41:15.036Z</time></trkpt><trkpt lat="40.07951996090332" lon="8.985730203082694"><ele>640.0</ele><time>2026-04-29T08:41:16.036Z</time></trkpt><trkpt lat="40.079711710822174" lon="8.98565618021737"><ele>640.0</ele><time>2026-04-29T08:41:17.036Z</time></trkpt><trkpt lat="40.07989578799617" lon="8.985581726996697"><ele>640.0</ele><time>2026-04-29T08:41:18.036Z</time></trkpt><trkpt lat="40.08004942349046" lon="8.985466083248946"><ele>640.0</ele><time>2026-04-29T08:41:19.036Z</time></trkpt><trkpt lat="40.08019382943683" lon="8.985335891526002"><ele>639.0</ele><time>2026-04-29T08:41:20.036Z</time></trkpt><trkpt lat="40.08030380734736" lon="8.985165981175015"><ele>638.0</ele><time>2026-04-29T08:41:21.036Z</time></trkpt><trkpt lat="40.08037999457547" lon="8.984959772012937"><ele>637.0</ele><time>2026-04-29T08:41:22.036Z</time></trkpt><trkpt lat="40.08043445823733" lon="8.984732619923568"><ele>634.0</ele><time>2026-04-29T08:41:23.036Z</time></trkpt><trkpt lat="40.080461317296056" lon="8.984492698048268"><ele>631.0</ele><time>2026-04-29T08:41:24.036Z</time></trkpt><trkpt lat="40.08047473096482" lon="8.984229696188203"><ele>628.0</ele><time>2026-04-29T08:41:25.036Z</time></trkpt><trkpt lat="40.080475186667535" lon="8.983968206767884"><ele>628.0</ele><time>2026-04-29T08:41:26.036Z</time></trkpt><trkpt lat="40.08045895844781" lon="8.983699756318767"><ele>628.0</ele><time>2026-04-29T08:41:27.036Z</time></trkpt><trkpt lat="40.080415047086" lon="8.983426634071803"><ele>628.0</ele><time>2026-04-29T08:41:28.036Z</time></trkpt><trkpt lat="40.08036479752734" lon="8.983144315094417"><ele>628.0</ele><time>2026-04-29T08:41:29.036Z</time></trkpt><trkpt lat="40.08031774027934" lon="8.982848940082883"><ele>628.0</ele><time>2026-04-29T08:41:30.036Z</time></trkpt><trkpt lat="40.08028154958654" lon="8.982554834397822"><ele>627.5</ele><time>2026-04-29T08:41:31.036Z</time></trkpt><trkpt lat="40.080228823525026" lon="8.98224316056165"><ele>627.0</ele><time>2026-04-29T08:41:32.036Z</time></trkpt><trkpt lat="40.080177328293104" lon="8.981935861527512"><ele>625.0</ele><time>2026-04-29T08:41:33.036Z</time></trkpt><trkpt lat="40.080133790457964" lon="8.981638979442275"><ele>623.0</ele><time>2026-04-29T08:41:34.036Z</time></trkpt><trkpt lat="40.08010123809777" lon="8.981348948516324"><ele>623.0</ele><time>2026-04-29T08:41:35.036Z</time></trkpt><trkpt lat="40.08006396586145" lon="8.981073847397896"><ele>623.0</ele><time>2026-04-29T08:41:36.036Z</time></trkpt><trkpt lat="40.08002633409155" lon="8.980800294612964"><ele>623.0</ele><time>2026-04-29T08:41:37.036Z</time></trkpt><trkpt lat="40.07999964862696" lon="8.980553544828743"><ele>622.3333333333333</ele><time>2026-04-29T08:41:38.036Z</time></trkpt><trkpt lat="40.07999513399216" lon="8.98033258469756"><ele>621.6666666666666</ele><time>2026-04-29T08:41:39.036Z</time></trkpt><trkpt lat="40.080034931938755" lon="8.980113422359231"><ele>621.0</ele><time>2026-04-29T08:41:40.036Z</time></trkpt><trkpt lat="40.080122844064356" lon="8.979887337569957"><ele>620.0</ele><time>2026-04-29T08:41:41.036Z</time></trkpt><trkpt lat="40.0802531491523" lon="8.979682191511241"><ele>619.0</ele><time>2026-04-29T08:41:42.036Z</time></trkpt><trkpt lat="40.08041618477906" lon="8.979513807984992"><ele>618.0</ele><time>2026-04-29T08:41:43.036Z</time></trkpt><trkpt lat="40.08058444062438" lon="8.979354885890592"><ele>617.6666666666666</ele><time>2026-04-29T08:41:44.036Z</time></trkpt><trkpt lat="40.08073444067022" lon="8.979171232100217"><ele>617.3333333333333</ele><time>2026-04-29T08:41:45.036Z</time></trkpt><trkpt lat="40.0808450487717" lon="8.97894637919738"><ele>617.0</ele><time>2026-04-29T08:41:46.036Z</time></trkpt><trkpt lat="40.08094343628992" lon="8.978700886920269"><ele>616.3333333333333</ele><time>2026-04-29T08:41:47.036Z</time></trkpt><trkpt lat="40.081032967389795" lon="8.97843979764665"><ele>615.6666666666666</ele><time>2026-04-29T08:41:48.036Z</time></trkpt><trkpt lat="40.08111723247882" lon="8.978161177478281"><ele>615.0</ele><time>2026-04-29T08:41:49.036Z</time></trkpt><trkpt lat="40.0812134810306" lon="8.977896393343103"><ele>613.5</ele><time>2026-04-29T08:41:50.036Z</time></trkpt><trkpt lat="40.081317979873276" lon="8.977628579515981"><ele>612.0</ele><time>2026-04-29T08:41:51.036Z</time></trkpt><trkpt lat="40.08141859176982" lon="8.977364781049715"><ele>611.6666666666666</ele><time>2026-04-29T08:41:52.036Z</time></trkpt><trkpt lat="40.08151511099555" lon="8.977102937308276"><ele>611.3333333333333</ele><time>2026-04-29T08:41:53.036Z</time></trkpt><trkpt lat="40.08160685434776" lon="8.97683592703923"><ele>611.0</ele><time>2026-04-29T08:41:54.036Z</time></trkpt><trkpt lat="40.081704142406956" lon="8.976566329406458"><ele>610.0</ele><time>2026-04-29T08:41:55.036Z</time></trkpt><trkpt lat="40.08181158509576" lon="8.976288772085379"><ele>609.0</ele><time>2026-04-29T08:41:56.036Z</time></trkpt><trkpt lat="40.08191890341751" lon="8.976020747044329"><ele>608.5</ele><time>2026-04-29T08:41:57.036Z</time></trkpt><trkpt lat="40.08201867660072" lon="8.975745688355948"><ele>608.0</ele><time>2026-04-29T08:41:58.036Z</time></trkpt><trkpt lat="40.08211767848471" lon="8.975466929931333"><ele>608.0</ele><time>2026-04-29T08:41:59.036Z</time></trkpt><trkpt lat="40.08221838052601" lon="8.975186734451619"><ele>608.0</ele><time>2026-04-29T08:42:00.036Z</time></trkpt><trkpt lat="40.08231843440985" lon="8.97491200868221"><ele>608.0</ele><time>2026-04-29T08:42:01.036Z</time></trkpt><trkpt lat="40.082424689944055" lon="8.974632378118024"><ele>608.0</ele><time>2026-04-29T08:42:02.036Z</time></trkpt><trkpt lat="40.08253021657037" lon="8.974343674580616"><ele>608.5</ele><time>2026-04-29T08:42:03.036Z</time></trkpt><trkpt lat="40.082633052623464" lon="8.974049183023059"><ele>609.0</ele><time>2026-04-29T08:42:04.036Z</time></trkpt><trkpt lat="40.082738178488455" lon="8.973763568005836"><ele>609.0</ele><time>2026-04-29T08:42:05.036Z</time></trkpt><trkpt lat="40.08284183240652" lon="8.97346853661394"><ele>609.0</ele><time>2026-04-29T08:42:06.036Z</time></trkpt><trkpt lat="40.08294647575928" lon="8.973172691249076"><ele>609.0</ele><time>2026-04-29T08:42:07.036Z</time></trkpt><trkpt lat="40.083050304825136" lon="8.972885108928045"><ele>609.0</ele><time>2026-04-29T08:42:08.036Z</time></trkpt><trkpt lat="40.083156789597815" lon="8.972605108208844"><ele>610.5</ele><time>2026-04-29T08:42:09.036Z</time></trkpt><trkpt lat="40.083254476367216" lon="8.972325218382595"><ele>612.0</ele><time>2026-04-29T08:42:10.036Z</time></trkpt><trkpt lat="40.083339456082804" lon="8.972052060639445"><ele>613.0</ele><time>2026-04-29T08:42:11.036Z</time></trkpt><trkpt lat="40.0834485466244" lon="8.971775168564141"><ele>614.0</ele><time>2026-04-29T08:42:12.036Z</time></trkpt><trkpt lat="40.083551376948044" lon="8.971499481707673"><ele>614.3333333333333</ele><time>2026-04-29T08:42:13.036Z</time></trkpt><trkpt lat="40.083650878574325" lon="8.971230997461989"><ele>614.6666666666666</ele><time>2026-04-29T08:42:14.036Z</time></trkpt><trkpt lat="40.08374651481508" lon="8.97097730580431"><ele>615.0</ele><time>2026-04-29T08:42:15.036Z</time></trkpt><trkpt lat="40.08382991030395" lon="8.970716943373654"><ele>618.0</ele><time>2026-04-29T08:42:16.036Z</time></trkpt><trkpt lat="40.08389286341686" lon="8.97044844010671"><ele>621.0</ele><time>2026-04-29T08:42:17.036Z</time></trkpt><trkpt lat="40.0839372468751" lon="8.970160558239867"><ele>624.0</ele><time>2026-04-29T08:42:18.036Z</time></trkpt><trkpt lat="40.08398247803963" lon="8.969869715697193"><ele>629.0</ele><time>2026-04-29T08:42:19.036Z</time></trkpt><trkpt lat="40.0840243746863" lon="8.969576135915487"><ele>634.0</ele><time>2026-04-29T08:42:20.036Z</time></trkpt><trkpt lat="40.084069320026636" lon="8.969291141170217"><ele>634.0</ele><time>2026-04-29T08:42:21.036Z</time></trkpt><trkpt lat="40.08410031914228" lon="8.96902034612226"><ele>634.0</ele><time>2026-04-29T08:42:22.036Z</time></trkpt><trkpt lat="40.0841028235025" lon="8.968750117209002"><ele>634.0</ele><time>2026-04-29T08:42:23.036Z</time></trkpt><trkpt lat="40.084081693288745" lon="8.968491704105649"><ele>633.0</ele><time>2026-04-29T08:42:24.036Z</time></trkpt><trkpt lat="40.08404867008068" lon="8.968230962650388"><ele>632.0</ele><time>2026-04-29T08:42:25.036Z</time></trkpt><trkpt lat="40.08401796803933" lon="8.967987804433317"><ele>631.0</ele><time>2026-04-29T08:42:26.036Z</time></trkpt><trkpt lat="40.08397768241906" lon="8.967725041863753"><ele>628.6666666666667</ele><time>2026-04-29T08:42:27.036Z</time></trkpt><trkpt lat="40.08393158140581" lon="8.96745882775039"><ele>626.3333333333334</ele><time>2026-04-29T08:42:28.036Z</time></trkpt><trkpt lat="40.08389584218784" lon="8.967174241948095"><ele>624.0</ele><time>2026-04-29T08:42:29.036Z</time></trkpt><trkpt lat="40.08386903117204" lon="8.966887177335192"><ele>621.6666666666666</ele><time>2026-04-29T08:42:30.036Z</time></trkpt><trkpt lat="40.08385870098779" lon="8.966616584321095"><ele>619.3333333333333</ele><time>2026-04-29T08:42:31.036Z</time></trkpt><trkpt lat="40.08387268372654" lon="8.966396635230128"><ele>617.0</ele><time>2026-04-29T08:42:32.036Z</time></trkpt><trkpt lat="40.08384191339655" lon="8.966112644497672"><ele>617.0</ele><time>2026-04-29T08:42:33.036Z</time></trkpt><trkpt lat="40.0840964090793" lon="8.96624048072409"><ele>617.0</ele><time>2026-04-29T08:42:34.036Z</time></trkpt><trkpt lat="40.08414300730456" lon="8.966086877671767"><ele>617.0</ele><time>2026-04-29T08:42:35.036Z</time></trkpt><trkpt lat="40.08420104207106" lon="8.965966058675328"><ele>616.75</ele><time>2026-04-29T08:42:36.036Z</time></trkpt><trkpt lat="40.08425609044181" lon="8.96587529748543"><ele>616.5</ele><time>2026-04-29T08:42:37.036Z</time></trkpt><trkpt lat="40.08430774370073" lon="8.965813487918746"><ele>616.25</ele><time>2026-04-29T08:42:38.036Z</time></trkpt><trkpt lat="40.08448295554377" lon="8.965638980202096"><ele>616.0</ele><time>2026-04-29T08:42:41.036Z</time></trkpt><trkpt lat="40.084573738157815" lon="8.965574071880624"><ele>616.8</ele><time>2026-04-29T08:42:42.036Z</time></trkpt><trkpt lat="40.08467102851783" lon="8.96551528647674"><ele>617.6</ele><time>2026-04-29T08:42:43.036Z</time></trkpt><trkpt lat="40.0847601405198" lon="8.965460614554322"><ele>618.4</ele><time>2026-04-29T08:42:44.036Z</time></trkpt><trkpt lat="40.084841627944996" lon="8.965405060650628"><ele>619.2</ele><time>2026-04-29T08:42:45.036Z</time></trkpt><trkpt lat="40.08493274198223" lon="8.965340583082579"><ele>620.0</ele><time>2026-04-29T08:42:46.036Z</time></trkpt><trkpt lat="40.085037683095514" lon="8.965267889158424"><ele>620.0</ele><time>2026-04-29T08:42:47.036Z</time></trkpt><trkpt lat="40.08514374692577" lon="8.96519870215921"><ele>620.0</ele><time>2026-04-29T08:42:48.036Z</time></trkpt><trkpt lat="40.08524985201252" lon="8.96512620672466"><ele>620.0</ele><time>2026-04-29T08:42:49.036Z</time></trkpt><trkpt lat="40.08537181838087" lon="8.96504472098702"><ele>620.0</ele><time>2026-04-29T08:42:50.036Z</time></trkpt><trkpt lat="40.085498420845276" lon="8.964947245102492"><ele>620.0</ele><time>2026-04-29T08:42:51.036Z</time></trkpt><trkpt lat="40.08563739871741" lon="8.96486691816007"><ele>620.0</ele><time>2026-04-29T08:42:52.036Z</time></trkpt><trkpt lat="40.08577456863121" lon="8.96481532407941"><ele>620.0</ele><time>2026-04-29T08:42:53.036Z</time></trkpt><trkpt lat="40.085917917024645" lon="8.964797756531079"><ele>620.0</ele><time>2026-04-29T08:42:54.036Z</time></trkpt><trkpt lat="40.08606283575318" lon="8.964809503950235"><ele>620.0</ele><time>2026-04-29T08:42:55.036Z</time></trkpt><trkpt lat="40.08622124993356" lon="8.96491413581846"><ele>620.0</ele><time>2026-04-29T08:42:56.036Z</time></trkpt><trkpt lat="40.08636541532499" lon="8.965005286600633"><ele>620.0</ele><time>2026-04-29T08:42:57.036Z</time></trkpt><trkpt lat="40.08651434664222" lon="8.965108496417923"><ele>622.6666666666666</ele><time>2026-04-29T08:42:58.036Z</time></trkpt><trkpt lat="40.08666898150338" lon="8.965214848745319"><ele>625.3333333333334</ele><time>2026-04-29T08:42:59.036Z</time></trkpt><trkpt lat="40.08682065815463" lon="8.96532329164993"><ele>628.0</ele><time>2026-04-29T08:43:00.036Z</time></trkpt><trkpt lat="40.08698039890115" lon="8.965428007921878"><ele>628.0</ele><time>2026-04-29T08:43:01.036Z</time></trkpt><trkpt lat="40.08714372429991" lon="8.96553459299942"><ele>628.0</ele><time>2026-04-29T08:43:02.036Z</time></trkpt><trkpt lat="40.0873019383173" lon="8.965639751517324"><ele>628.0</ele><time>2026-04-29T08:43:03.036Z</time></trkpt><trkpt lat="40.087467785319966" lon="8.965749927618196"><ele>627.6666666666667</ele><time>2026-04-29T08:43:04.036Z</time></trkpt><trkpt lat="40.08763170754757" lon="8.965859865425896"><ele>627.3333333333334</ele><time>2026-04-29T08:43:05.036Z</time></trkpt><trkpt lat="40.08780515168634" lon="8.965946026176027"><ele>627.0</ele><time>2026-04-29T08:43:06.036Z</time></trkpt><trkpt lat="40.08798808224078" lon="8.966024454549116"><ele>628.0</ele><time>2026-04-29T08:43:07.036Z</time></trkpt><trkpt lat="40.088175033666516" lon="8.966082200760757"><ele>629.0</ele><time>2026-04-29T08:43:08.036Z</time></trkpt><trkpt lat="40.08836173284614" lon="8.966124854559052"><ele>630.0</ele><time>2026-04-29T08:43:09.036Z</time></trkpt><trkpt lat="40.08855061760422" lon="8.966156110355238"><ele>630.0</ele><time>2026-04-29T08:43:10.036Z</time></trkpt><trkpt lat="40.08874554029775" lon="8.966177520416906"><ele>630.0</ele><time>2026-04-29T08:43:11.036Z</time></trkpt><trkpt lat="40.088942799284084" lon="8.966178533317487"><ele>630.0</ele><time>2026-04-29T08:43:12.038Z</time></trkpt><trkpt lat="40.089145378277316" lon="8.966172954448496"><ele>627.6666666666666</ele><time>2026-04-29T08:43:13.037Z</time></trkpt><trkpt lat="40.089349273684014" lon="8.966181170472781"><ele>625.3333333333333</ele><time>2026-04-29T08:43:14.037Z</time></trkpt><trkpt lat="40.08955352097545" lon="8.966196426185899"><ele>623.0</ele><time>2026-04-29T08:43:15.037Z</time></trkpt><trkpt lat="40.08976545637443" lon="8.966208800188602"><ele>621.6666666666666</ele><time>2026-04-29T08:43:16.037Z</time></trkpt><trkpt lat="40.08997572912698" lon="8.966227245624781"><ele>620.3333333333334</ele><time>2026-04-29T08:43:17.037Z</time></trkpt><trkpt lat="40.090181913254284" lon="8.966244366045652"><ele>619.0</ele><time>2026-04-29T08:43:18.038Z</time></trkpt><trkpt lat="40.09038303095148" lon="8.966252213283852"><ele>619.0</ele><time>2026-04-29T08:43:19.037Z</time></trkpt><trkpt lat="40.090578143670704" lon="8.966228549384603"><ele>619.0</ele><time>2026-04-29T08:43:20.037Z</time></trkpt><trkpt lat="40.090767263066105" lon="8.966187241768898"><ele>619.0</ele><time>2026-04-29T08:43:21.037Z</time></trkpt><trkpt lat="40.09094719987872" lon="8.966122861089858"><ele>617.3333333333334</ele><time>2026-04-29T08:43:22.037Z</time></trkpt><trkpt lat="40.091139724918285" lon="8.966040021907904"><ele>615.6666666666666</ele><time>2026-04-29T08:43:23.037Z</time></trkpt><trkpt lat="40.09133502529841" lon="8.96594696112131"><ele>614.0</ele><time>2026-04-29T08:43:24.037Z</time></trkpt><trkpt lat="40.091522091113816" lon="8.96585460712076"><ele>611.0</ele><time>2026-04-29T08:43:25.037Z</time></trkpt><trkpt lat="40.091712137445036" lon="8.965769588375256"><ele>608.0</ele><time>2026-04-29T08:43:26.037Z</time></trkpt><trkpt lat="40.09190242865841" lon="8.965680401562672"><ele>605.0</ele><time>2026-04-29T08:43:27.037Z</time></trkpt><trkpt lat="40.09208154902409" lon="8.965594802877316"><ele>605.0</ele><time>2026-04-29T08:43:28.037Z</time></trkpt><trkpt lat="40.092246665111304" lon="8.965505215954062"><ele>605.0</ele><time>2026-04-29T08:43:29.037Z</time></trkpt><trkpt lat="40.09241144742887" lon="8.965406538498222"><ele>605.0</ele><time>2026-04-29T08:43:30.037Z</time></trkpt><trkpt lat="40.0925819955593" lon="8.965281178961561"><ele>605.0</ele><time>2026-04-29T08:43:31.037Z</time></trkpt><trkpt lat="40.092764430518066" lon="8.965146245362119"><ele>605.0</ele><time>2026-04-29T08:43:32.037Z</time></trkpt><trkpt lat="40.092948547955444" lon="8.964994577245282"><ele>605.0</ele><time>2026-04-29T08:43:33.037Z</time></trkpt><trkpt lat="40.093121366268804" lon="8.9648351710732"><ele>601.3333333333333</ele><time>2026-04-29T08:43:34.037Z</time></trkpt><trkpt lat="40.09329535729943" lon="8.964662109483983"><ele>597.6666666666666</ele><time>2026-04-29T08:43:35.037Z</time></trkpt><trkpt lat="40.0934698836391" lon="8.964489663445459"><ele>594.0</ele><time>2026-04-29T08:43:36.037Z</time></trkpt><trkpt lat="40.093650603663505" lon="8.964306404869884"><ele>589.0</ele><time>2026-04-29T08:43:37.037Z</time></trkpt><trkpt lat="40.09383585176449" lon="8.964126991671275"><ele>584.0</ele><time>2026-04-29T08:43:38.037Z</time></trkpt><trkpt lat="40.094021372238245" lon="8.963952149859779"><ele>584.6666666666666</ele><time>2026-04-29T08:43:39.037Z</time></trkpt><trkpt lat="40.09420352472407" lon="8.963775076946535"><ele>585.3333333333334</ele><time>2026-04-29T08:43:40.037Z</time></trkpt><trkpt lat="40.09438106066111" lon="8.963601865971018"><ele>586.0</ele><time>2026-04-29T08:43:41.037Z</time></trkpt><trkpt lat="40.094559153434986" lon="8.963429985539523"><ele>584.0</ele><time>2026-04-29T08:43:42.037Z</time></trkpt><trkpt lat="40.09473119778815" lon="8.963265158728813"><ele>582.0</ele><time>2026-04-29T08:43:43.037Z</time></trkpt><trkpt lat="40.09488672504904" lon="8.963116362685554"><ele>580.0</ele><time>2026-04-29T08:43:44.037Z</time></trkpt><trkpt lat="40.09503444463707" lon="8.962969812531378"><ele>580.0</ele><time>2026-04-29T08:43:45.037Z</time></trkpt><trkpt lat="40.09517373457844" lon="8.96284164395994"><ele>580.0</ele><time>2026-04-29T08:43:46.037Z</time></trkpt><trkpt lat="40.095312362846634" lon="8.962733320064215"><ele>580.0</ele><time>2026-04-29T08:43:47.037Z</time></trkpt><trkpt lat="40.09546170117771" lon="8.962662261569976"><ele>580.0</ele><time>2026-04-29T08:43:48.037Z</time></trkpt><trkpt lat="40.09562177391755" lon="8.962643340639678"><ele>580.0</ele><time>2026-04-29T08:43:49.037Z</time></trkpt><trkpt lat="40.09578530320897" lon="8.962663988157821"><ele>580.0</ele><time>2026-04-29T08:43:50.037Z</time></trkpt><trkpt lat="40.095945985189196" lon="8.962725631905174"><ele>579.3333333333334</ele><time>2026-04-29T08:43:51.037Z</time></trkpt><trkpt lat="40.09609637419966" lon="8.962826747933438"><ele>578.6666666666666</ele><time>2026-04-29T08:43:52.037Z</time></trkpt><trkpt lat="40.09623463289207" lon="8.96297428884231"><ele>578.0</ele><time>2026-04-29T08:43:53.037Z</time></trkpt><trkpt lat="40.09634331526768" lon="8.963146413049975"><ele>578.0</ele><time>2026-04-29T08:43:54.037Z</time></trkpt><trkpt lat="40.09641458063323" lon="8.963337015323564"><ele>578.0</ele><time>2026-04-29T08:43:55.037Z</time></trkpt><trkpt lat="40.09646312722623" lon="8.963562090557305"><ele>578.0</ele><time>2026-04-29T08:43:56.037Z</time></trkpt><trkpt lat="40.09648003427236" lon="8.963811200912652"><ele>580.3333333333333</ele><time>2026-04-29T08:43:57.037Z</time></trkpt><trkpt lat="40.09649197460294" lon="8.964065326207164"><ele>582.6666666666666</ele><time>2026-04-29T08:43:58.037Z</time></trkpt><trkpt lat="40.09651397881278" lon="8.964320282696999"><ele>585.0</ele><time>2026-04-29T08:43:59.037Z</time></trkpt><trkpt lat="40.096541434718105" lon="8.964585203314275"><ele>585.3333333333334</ele><time>2026-04-29T08:44:00.037Z</time></trkpt><trkpt lat="40.09656060409847" lon="8.96483968022613"><ele>585.6666666666667</ele><time>2026-04-29T08:44:01.037Z</time></trkpt><trkpt lat="40.09657465414236" lon="8.965081236235672"><ele>586.0</ele><time>2026-04-29T08:44:02.037Z</time></trkpt><trkpt lat="40.096584749195166" lon="8.96531085668986"><ele>577.3333333333334</ele><time>2026-04-29T08:44:03.037Z</time></trkpt><trkpt lat="40.09660335295923" lon="8.965527694250932"><ele>568.6666666666666</ele><time>2026-04-29T08:44:04.037Z</time></trkpt><trkpt lat="40.09662725186375" lon="8.965743355800548"><ele>560.0</ele><time>2026-04-29T08:44:05.037Z</time></trkpt><trkpt lat="40.09665580979861" lon="8.965955020668305"><ele>560.0</ele><time>2026-04-29T08:44:06.037Z</time></trkpt><trkpt lat="40.096704995283595" lon="8.966167281037437"><ele>560.0</ele><time>2026-04-29T08:44:07.037Z</time></trkpt><trkpt lat="40.09678159249028" lon="8.966378079485338"><ele>560.0</ele><time>2026-04-29T08:44:08.037Z</time></trkpt><trkpt lat="40.09686719749621" lon="8.966582848414696"><ele>559.6666666666666</ele><time>2026-04-29T08:44:09.037Z</time></trkpt><trkpt lat="40.09696157429027" lon="8.966790556907158"><ele>559.3333333333334</ele><time>2026-04-29T08:44:10.037Z</time></trkpt><trkpt lat="40.09705495769663" lon="8.967011840333365"><ele>559.0</ele><time>2026-04-29T08:44:11.037Z</time></trkpt><trkpt lat="40.09714422796602" lon="8.967230590261963"><ele>559.0</ele><time>2026-04-29T08:44:12.037Z</time></trkpt><trkpt lat="40.09724067312387" lon="8.967436917705076"><ele>559.0</ele><time>2026-04-29T08:44:13.037Z</time></trkpt><trkpt lat="40.097358106446805" lon="8.967619166893217"><ele>559.0</ele><time>2026-04-29T08:44:14.037Z</time></trkpt><trkpt lat="40.09749946351034" lon="8.967783443931369"><ele>555.6666666666667</ele><time>2026-04-29T08:44:15.037Z</time></trkpt><trkpt lat="40.09765130454219" lon="8.967923496101225"><ele>552.3333333333334</ele><time>2026-04-29T08:44:16.037Z</time></trkpt><trkpt lat="40.09782183665832" lon="8.968033064092095"><ele>549.0</ele><time>2026-04-29T08:44:17.037Z</time></trkpt><trkpt lat="40.0980024004976" lon="8.96812272196484"><ele>549.0</ele><time>2026-04-29T08:44:18.037Z</time></trkpt><trkpt lat="40.09819519743555" lon="8.968179273901383"><ele>549.0</ele><time>2026-04-29T08:44:19.037Z</time></trkpt><trkpt lat="40.09839315124261" lon="8.96821429820183"><ele>549.0</ele><time>2026-04-29T08:44:20.037Z</time></trkpt><trkpt lat="40.09859482849006" lon="8.968239191184603"><ele>546.0</ele><time>2026-04-29T08:44:21.037Z</time></trkpt><trkpt lat="40.09878482023083" lon="8.968269486962372"><ele>543.0</ele><time>2026-04-29T08:44:22.037Z</time></trkpt><trkpt lat="40.098965893794166" lon="8.968303109826225"><ele>540.0</ele><time>2026-04-29T08:44:23.037Z</time></trkpt><trkpt lat="40.09914169167253" lon="8.968328578054816"><ele>537.3333333333334</ele><time>2026-04-29T08:44:24.037Z</time></trkpt><trkpt lat="40.0993133669041" lon="8.96831857970683"><ele>534.6666666666667</ele><time>2026-04-29T08:44:25.037Z</time></trkpt><trkpt lat="40.099481032001975" lon="8.968272867026409"><ele>532.0</ele><time>2026-04-29T08:44:26.037Z</time></trkpt><trkpt lat="40.09964274846676" lon="8.968174989744307"><ele>532.0</ele><time>2026-04-29T08:44:27.037Z</time></trkpt><trkpt lat="40.09979584685342" lon="8.968032359065392"><ele>532.0</ele><time>2026-04-29T08:44:28.037Z</time></trkpt><trkpt lat="40.0999264691433" lon="8.967853386721833"><ele>532.0</ele><time>2026-04-29T08:44:29.037Z</time></trkpt><trkpt lat="40.10001979719717" lon="8.967643012494255"><ele>528.3333333333334</ele><time>2026-04-29T08:44:30.037Z</time></trkpt><trkpt lat="40.10008644865935" lon="8.967405012058693"><ele>524.6666666666666</ele><time>2026-04-29T08:44:31.037Z</time></trkpt><trkpt lat="40.10012876433181" lon="8.967136679980058"><ele>521.0</ele><time>2026-04-29T08:44:32.037Z</time></trkpt><trkpt lat="40.10014694732022" lon="8.966833334022457"><ele>518.5</ele><time>2026-04-29T08:44:33.037Z</time></trkpt><trkpt lat="40.10015707490273" lon="8.966505809511109"><ele>516.0</ele><time>2026-04-29T08:44:34.037Z</time></trkpt><trkpt lat="40.10017352735838" lon="8.966132740612311"><ele>514.5</ele><time>2026-04-29T08:44:35.037Z</time></trkpt><trkpt lat="40.100212846684066" lon="8.965726209732512"><ele>513.0</ele><time>2026-04-29T08:44:36.037Z</time></trkpt><trkpt lat="40.10027048569882" lon="8.965306340561476"><ele>511.0</ele><time>2026-04-29T08:44:37.037Z</time></trkpt><trkpt lat="40.100313662380735" lon="8.964868016594625"><ele>509.0</ele><time>2026-04-29T08:44:38.037Z</time></trkpt><trkpt lat="40.10034338192932" lon="8.964423925214183"><ele>509.5</ele><time>2026-04-29T08:44:39.037Z</time></trkpt><trkpt lat="40.10038482351647" lon="8.963980776672333"><ele>510.0</ele><time>2026-04-29T08:44:40.037Z</time></trkpt><trkpt lat="40.10042810180733" lon="8.963548607194733"><ele>510.5</ele><time>2026-04-29T08:44:41.037Z</time></trkpt><trkpt lat="40.10046308862855" lon="8.963144014628748"><ele>511.0</ele><time>2026-04-29T08:44:42.037Z</time></trkpt><trkpt lat="40.100492736501444" lon="8.962761187058303"><ele>511.5</ele><time>2026-04-29T08:44:43.037Z</time></trkpt><trkpt lat="40.100519028122925" lon="8.962416877259022"><ele>512.0</ele><time>2026-04-29T08:44:44.037Z</time></trkpt><trkpt lat="40.10054732811113" lon="8.962103887285613"><ele>512.0</ele><time>2026-04-29T08:44:45.037Z</time></trkpt><trkpt lat="40.10057293931613" lon="8.961810918344293"><ele>512.0</ele><time>2026-04-29T08:44:46.037Z</time></trkpt><trkpt lat="40.10059987141709" lon="8.96155209108044"><ele>512.0</ele><time>2026-04-29T08:44:47.037Z</time></trkpt><trkpt lat="40.1006345610751" lon="8.96132822558936"><ele>512.3333333333333</ele><time>2026-04-29T08:44:48.037Z</time></trkpt><trkpt lat="40.10069179814178" lon="8.961135202449997"><ele>512.6666666666666</ele><time>2026-04-29T08:44:49.037Z</time></trkpt><trkpt lat="40.10078656215018" lon="8.960951499651365"><ele>513.0</ele><time>2026-04-29T08:44:50.037Z</time></trkpt><trkpt lat="40.100921020283174" lon="8.960805761265968"><ele>516.3333333333334</ele><time>2026-04-29T08:44:51.037Z</time></trkpt><trkpt lat="40.10108442365197" lon="8.960694756885305"><ele>519.6666666666667</ele><time>2026-04-29T08:44:52.037Z</time></trkpt><trkpt lat="40.101267086718714" lon="8.960624051404588"><ele>523.0</ele><time>2026-04-29T08:44:53.037Z</time></trkpt><trkpt lat="40.10145019499652" lon="8.960538608376417"><ele>524.3333333333334</ele><time>2026-04-29T08:44:54.037Z</time></trkpt><trkpt lat="40.1016216426639" lon="8.960441442256528"><ele>525.6666666666666</ele><time>2026-04-29T08:44:55.037Z</time></trkpt><trkpt lat="40.10178846869331" lon="8.960348048289559"><ele>527.0</ele><time>2026-04-29T08:44:56.037Z</time></trkpt><trkpt lat="40.101944426979834" lon="8.960257443687713"><ele>527.0</ele><time>2026-04-29T08:44:57.037Z</time></trkpt><trkpt lat="40.1020915910783" lon="8.96017193498774"><ele>527.0</ele><time>2026-04-29T08:44:58.037Z</time></trkpt><trkpt lat="40.10222635225447" lon="8.960080877492677"><ele>527.0</ele><time>2026-04-29T08:44:59.037Z</time></trkpt><trkpt lat="40.10235714786592" lon="8.95996997725566"><ele>524.6666666666666</ele><time>2026-04-29T08:45:00.037Z</time></trkpt><trkpt lat="40.102476353691294" lon="8.959826052953623"><ele>522.3333333333334</ele><time>2026-04-29T08:45:01.037Z</time></trkpt><trkpt lat="40.10258262764836" lon="8.959649080066956"><ele>520.0</ele><time>2026-04-29T08:45:02.037Z</time></trkpt><trkpt lat="40.10266757087665" lon="8.959442956957725"><ele>520.0</ele><time>2026-04-29T08:45:03.037Z</time></trkpt><trkpt lat="40.102719567442946" lon="8.959224001745424"><ele>520.0</ele><time>2026-04-29T08:45:04.037Z</time></trkpt><trkpt lat="40.102748607691154" lon="8.958991131681099"><ele>520.0</ele><time>2026-04-29T08:45:05.037Z</time></trkpt><trkpt lat="40.10276124345413" lon="8.958745035858339"><ele>517.6666666666667</ele><time>2026-04-29T08:45:06.037Z</time></trkpt><trkpt lat="40.102776813396645" lon="8.958522979530516"><ele>515.3333333333334</ele><time>2026-04-29T08:45:07.037Z</time></trkpt><trkpt lat="40.10279564498822" lon="8.958308486340346"><ele>513.0</ele><time>2026-04-29T08:45:08.037Z</time></trkpt><trkpt lat="40.10280596408697" lon="8.958107548457175"><ele>511.25</ele><time>2026-04-29T08:45:09.037Z</time></trkpt><trkpt lat="40.10279565393591" lon="8.957910880944016"><ele>509.5</ele><time>2026-04-29T08:45:10.037Z</time></trkpt><trkpt lat="40.10277499822591" lon="8.957724791691117"><ele>507.75</ele><time>2026-04-29T08:45:11.037Z</time></trkpt><trkpt lat="40.10274280302214" lon="8.957551997869261"><ele>506.0</ele><time>2026-04-29T08:45:12.037Z</time></trkpt><trkpt lat="40.102701926344366" lon="8.957391352029864"><ele>505.5</ele><time>2026-04-29T08:45:13.037Z</time></trkpt><trkpt lat="40.10265887227706" lon="8.957239242283"><ele>505.0</ele><time>2026-04-29T08:45:14.037Z</time></trkpt><trkpt lat="40.10261161453537" lon="8.957098181666264"><ele>504.5</ele><time>2026-04-29T08:45:15.037Z</time></trkpt><trkpt lat="40.10254018728896" lon="8.956973941791158"><ele>504.0</ele><time>2026-04-29T08:45:16.037Z</time></trkpt><trkpt lat="40.10244735236149" lon="8.956854658421925"><ele>503.0</ele><time>2026-04-29T08:45:17.037Z</time></trkpt><trkpt lat="40.10235095034114" lon="8.95673332991069"><ele>502.0</ele><time>2026-04-29T08:45:18.039Z</time></trkpt><trkpt lat="40.10225418657038" lon="8.956612907878672"><ele>501.0</ele><time>2026-04-29T08:45:19.039Z</time></trkpt><trkpt lat="40.10216071666925" lon="8.956493655757198"><ele>500.0</ele><time>2026-04-29T08:45:20.039Z</time></trkpt><trkpt lat="40.10206717789233" lon="8.95637206750416"><ele>500.0</ele><time>2026-04-29T08:45:21.039Z</time></trkpt><trkpt lat="40.101977150292605" lon="8.956251980593647"><ele>500.0</ele><time>2026-04-29T08:45:22.038Z</time></trkpt><trkpt lat="40.101889233153415" lon="8.956136662465903"><ele>500.0</ele><time>2026-04-29T08:45:23.038Z</time></trkpt><trkpt lat="40.10180830418066" lon="8.95600930284774"><ele>500.0</ele><time>2026-04-29T08:45:24.039Z</time></trkpt><trkpt lat="40.10173902886749" lon="8.955885120079204"><ele>502.0</ele><time>2026-04-29T08:45:25.038Z</time></trkpt><trkpt lat="40.10168907458983" lon="8.955737082756452"><ele>504.0</ele><time>2026-04-29T08:45:26.038Z</time></trkpt><trkpt lat="40.10164463639731" lon="8.955583627991016"><ele>506.0</ele><time>2026-04-29T08:45:27.039Z</time></trkpt><trkpt lat="40.101613934648604" lon="8.955427454503093"><ele>508.0</ele><time>2026-04-29T08:45:28.038Z</time></trkpt><trkpt lat="40.1015938409688" lon="8.955273943716966"><ele>505.0</ele><time>2026-04-29T08:45:29.038Z</time></trkpt><trkpt lat="40.101571266416364" lon="8.955120453455962"><ele>501.99999999999994</ele><time>2026-04-29T08:45:30.039Z</time></trkpt><trkpt lat="40.101552269035544" lon="8.954975852526317"><ele>498.99999999999994</ele><time>2026-04-29T08:45:31.038Z</time></trkpt><trkpt lat="40.101533395873" lon="8.954835588883288"><ele>496.0</ele><time>2026-04-29T08:45:32.038Z</time></trkpt><trkpt lat="40.10153251948642" lon="8.954693532345228"><ele>493.0</ele><time>2026-04-29T08:45:33.038Z</time></trkpt><trkpt lat="40.10154395568535" lon="8.954545374163418"><ele>493.0</ele><time>2026-04-29T08:45:34.038Z</time></trkpt><trkpt lat="40.10156628874291" lon="8.954404940377348"><ele>492.99999999999994</ele><time>2026-04-29T08:45:35.038Z</time></trkpt><trkpt lat="40.10158838308019" lon="8.954277456679126"><ele>492.99999999999994</ele><time>2026-04-29T08:45:36.038Z</time></trkpt><trkpt lat="40.10161056932125" lon="8.954162937587428"><ele>493.0</ele><time>2026-04-29T08:45:37.038Z</time></trkpt><trkpt lat="40.10164013625988" lon="8.954065844964267"><ele>493.0</ele><time>2026-04-29T08:45:38.038Z</time></trkpt><trkpt lat="40.101689793389255" lon="8.953985220756447"><ele>495.6666666666667</ele><time>2026-04-29T08:45:39.038Z</time></trkpt><trkpt lat="40.10174624845291" lon="8.953909366681604"><ele>498.33333333333337</ele><time>2026-04-29T08:45:40.038Z</time></trkpt><trkpt lat="40.1018036683115" lon="8.95383590832845"><ele>501.0</ele><time>2026-04-29T08:45:41.038Z</time></trkpt><trkpt lat="40.10186606293418" lon="8.953777418888032"><ele>503.66666666666663</ele><time>2026-04-29T08:45:42.038Z</time></trkpt><trkpt lat="40.10193802529538" lon="8.953723942935216"><ele>506.3333333333333</ele><time>2026-04-29T08:45:43.038Z</time></trkpt><trkpt lat="40.10201038944442" lon="8.953674900160875"><ele>509.0</ele><time>2026-04-29T08:45:44.038Z</time></trkpt><trkpt lat="40.102085477505874" lon="8.953643023068237"><ele>508.99999999999994</ele><time>2026-04-29T08:45:45.038Z</time></trkpt><trkpt lat="40.1021617865735" lon="8.953629663509405"><ele>509.0</ele><time>2026-04-29T08:45:46.038Z</time></trkpt><trkpt lat="40.10223750242632" lon="8.95363731312287"><ele>509.0</ele><time>2026-04-29T08:45:47.038Z</time></trkpt><trkpt lat="40.10230586776372" lon="8.953670850380588"><ele>509.0</ele><time>2026-04-29T08:45:48.038Z</time></trkpt><trkpt lat="40.102375580977984" lon="8.953752153065617"><ele>508.99999999999994</ele><time>2026-04-29T08:45:49.038Z</time></trkpt><trkpt lat="40.1024215685392" lon="8.9538769337153"><ele>509.0</ele><time>2026-04-29T08:45:50.038Z</time></trkpt><trkpt lat="40.10245689262942" lon="8.954000744178202"><ele>508.2</ele><time>2026-04-29T08:45:51.038Z</time></trkpt><trkpt lat="40.102515494274776" lon="8.954107124572802"><ele>507.4</ele><time>2026-04-29T08:45:52.038Z</time></trkpt><trkpt lat="40.10260853771461" lon="8.954178762589969"><ele>506.6</ele><time>2026-04-29T08:45:53.038Z</time></trkpt><trkpt lat="40.102720384757994" lon="8.954230432066439"><ele>505.8</ele><time>2026-04-29T08:45:54.038Z</time></trkpt><trkpt lat="40.102837460148976" lon="8.954271398955196"><ele>505.0</ele><time>2026-04-29T08:45:55.038Z</time></trkpt><trkpt lat="40.10294956792091" lon="8.954326068060636"><ele>504.25</ele><time>2026-04-29T08:45:56.038Z</time></trkpt><trkpt lat="40.103054665126734" lon="8.95439354508553"><ele>503.5</ele><time>2026-04-29T08:45:57.038Z</time></trkpt><trkpt lat="40.10315725378973" lon="8.954477964533874"><ele>502.75</ele><time>2026-04-29T08:45:58.038Z</time></trkpt><trkpt lat="40.103258021492984" lon="8.95456549071091"><ele>502.0</ele><time>2026-04-29T08:45:59.038Z</time></trkpt><trkpt lat="40.103359112200835" lon="8.95464692333697"><ele>502.0</ele><time>2026-04-29T08:46:00.038Z</time></trkpt><trkpt lat="40.10346055823098" lon="8.954721807492827"><ele>502.0</ele><time>2026-04-29T08:46:01.038Z</time></trkpt><trkpt lat="40.10357064534297" lon="8.954792142321367"><ele>502.0</ele><time>2026-04-29T08:46:02.038Z</time></trkpt><trkpt lat="40.10368007950429" lon="8.954860631914608"><ele>502.0</ele><time>2026-04-29T08:46:03.038Z</time></trkpt><trkpt lat="40.10378949867511" lon="8.95493613004529"><ele>502.0</ele><time>2026-04-29T08:46:04.038Z</time></trkpt><trkpt lat="40.1038995022513" lon="8.95501699830063"><ele>502.0</ele><time>2026-04-29T08:46:05.038Z</time></trkpt><trkpt lat="40.104005051186945" lon="8.955107201599931"><ele>502.0</ele><time>2026-04-29T08:46:06.038Z</time></trkpt><trkpt lat="40.104100908715786" lon="8.955215631823885"><ele>502.0</ele><time>2026-04-29T08:46:07.038Z</time></trkpt><trkpt lat="40.10419077037979" lon="8.955337176448653"><ele>501.25</ele><time>2026-04-29T08:46:08.038Z</time></trkpt><trkpt lat="40.10426763270505" lon="8.955473725319926"><ele>500.5</ele><time>2026-04-29T08:46:09.038Z</time></trkpt><trkpt lat="40.10434123998109" lon="8.955624271541735"><ele>499.75</ele><time>2026-04-29T08:46:10.038Z</time></trkpt><trkpt lat="40.104412145709745" lon="8.9557741929065"><ele>499.0</ele><time>2026-04-29T08:46:11.038Z</time></trkpt><trkpt lat="40.104484944698356" lon="8.955930195572446"><ele>499.0</ele><time>2026-04-29T08:46:12.038Z</time></trkpt><trkpt lat="40.10455696400587" lon="8.956084063470147"><ele>499.0</ele><time>2026-04-29T08:46:13.038Z</time></trkpt><trkpt lat="40.10462741930674" lon="8.956234174289978"><ele>499.0</ele><time>2026-04-29T08:46:14.038Z</time></trkpt><trkpt lat="40.10469821036084" lon="8.956390959406676"><ele>499.0</ele><time>2026-04-29T08:46:15.038Z</time></trkpt><trkpt lat="40.10476917610543" lon="8.956545157507653"><ele>499.0</ele><time>2026-04-29T08:46:16.038Z</time></trkpt><trkpt lat="40.10485659759965" lon="8.956679971007448"><ele>499.0</ele><time>2026-04-29T08:46:17.038Z</time></trkpt><trkpt lat="40.10495233048696" lon="8.956795535984572"><ele>499.0</ele><time>2026-04-29T08:46:18.038Z</time></trkpt><trkpt lat="40.10507198231977" lon="8.956894939040643"><ele>499.0</ele><time>2026-04-29T08:46:19.038Z</time></trkpt><trkpt lat="40.105194132945925" lon="8.956965004644264"><ele>497.25</ele><time>2026-04-29T08:46:20.038Z</time></trkpt><trkpt lat="40.10532716449067" lon="8.957002818488123"><ele>495.5</ele><time>2026-04-29T08:46:21.038Z</time></trkpt><trkpt lat="40.10547065276026" lon="8.957012969116077"><ele>493.75</ele><time>2026-04-29T08:46:22.038Z</time></trkpt><trkpt lat="40.105616159358696" lon="8.956993754229673"><ele>492.0</ele><time>2026-04-29T08:46:23.038Z</time></trkpt><trkpt lat="40.10576207096955" lon="8.956962993448855"><ele>489.25</ele><time>2026-04-29T08:46:24.038Z</time></trkpt><trkpt lat="40.1059108298505" lon="8.956933862162746"><ele>486.5</ele><time>2026-04-29T08:46:25.038Z</time></trkpt><trkpt lat="40.1060579448672" lon="8.956901561298077"><ele>483.75</ele><time>2026-04-29T08:46:26.038Z</time></trkpt><trkpt lat="40.106196261864056" lon="8.95686503684035"><ele>481.0</ele><time>2026-04-29T08:46:27.038Z</time></trkpt><trkpt lat="40.10632505031906" lon="8.956805751920715"><ele>478.25</ele><time>2026-04-29T08:46:28.038Z</time></trkpt><trkpt lat="40.1064300437276" lon="8.956699427094328"><ele>475.5</ele><time>2026-04-29T08:46:29.038Z</time></trkpt><trkpt lat="40.10650894019516" lon="8.956557994384154"><ele>472.75</ele><time>2026-04-29T08:46:30.038Z</time></trkpt><trkpt lat="40.106561542197916" lon="8.956394848958732"><ele>470.0</ele><time>2026-04-29T08:46:31.038Z</time></trkpt><trkpt lat="40.106576821409654" lon="8.956219775734944"><ele>470.0</ele><time>2026-04-29T08:46:32.038Z</time></trkpt><trkpt lat="40.106549012255996" lon="8.956048601653587"><ele>470.0</ele><time>2026-04-29T08:46:33.038Z</time></trkpt><trkpt lat="40.106483017866" lon="8.955881388130663"><ele>470.0</ele><time>2026-04-29T08:46:34.038Z</time></trkpt><trkpt lat="40.1063837414941" lon="8.955740403901457"><ele>470.0</ele><time>2026-04-29T08:46:35.038Z</time></trkpt><trkpt lat="40.10625425741505" lon="8.955617774615344"><ele>466.66666666666663</ele><time>2026-04-29T08:46:36.038Z</time></trkpt><trkpt lat="40.10612002507084" lon="8.955486912840119"><ele>463.33333333333337</ele><time>2026-04-29T08:46:37.038Z</time></trkpt><trkpt lat="40.10598454964924" lon="8.955347833453159"><ele>460.0</ele><time>2026-04-29T08:46:38.038Z</time></trkpt><trkpt lat="40.105849331748246" lon="8.955209122442254"><ele>461.6666666666667</ele><time>2026-04-29T08:46:39.038Z</time></trkpt><trkpt lat="40.10573353270349" lon="8.955051840744119"><ele>463.33333333333337</ele><time>2026-04-29T08:46:40.038Z</time></trkpt><trkpt lat="40.10564753556811" lon="8.954863713775596"><ele>465.0</ele><time>2026-04-29T08:46:41.038Z</time></trkpt><trkpt lat="40.1055949021795" lon="8.95466264133619"><ele>465.0</ele><time>2026-04-29T08:46:42.038Z</time></trkpt><trkpt lat="40.10557355851707" lon="8.954462460841327"><ele>465.0</ele><time>2026-04-29T08:46:43.038Z</time></trkpt><trkpt lat="40.10558958465971" lon="8.954254991932782"><ele>465.0</ele><time>2026-04-29T08:46:44.038Z</time></trkpt><trkpt lat="40.10564040261195" lon="8.95404638478739"><ele>463.66666666666663</ele><time>2026-04-29T08:46:45.038Z</time></trkpt><trkpt lat="40.10570754966591" lon="8.953836743184656"><ele>462.3333333333333</ele><time>2026-04-29T08:46:46.038Z</time></trkpt><trkpt lat="40.10578160481538" lon="8.953622938922575"><ele>461.0</ele><time>2026-04-29T08:46:47.038Z</time></trkpt><trkpt lat="40.10586084097221" lon="8.953400498256721"><ele>454.66666666666663</ele><time>2026-04-29T08:46:48.038Z</time></trkpt><trkpt lat="40.10594350984898" lon="8.953178939220034"><ele>448.33333333333337</ele><time>2026-04-29T08:46:49.038Z</time></trkpt><trkpt lat="40.10602410028702" lon="8.952950308876058"><ele>442.0</ele><time>2026-04-29T08:46:50.038Z</time></trkpt><trkpt lat="40.10610567506837" lon="8.952723183002245"><ele>441.6666666666667</ele><time>2026-04-29T08:46:51.038Z</time></trkpt><trkpt lat="40.10618394600925" lon="8.952504236635923"><ele>441.33333333333337</ele><time>2026-04-29T08:46:52.038Z</time></trkpt><trkpt lat="40.1062640447179" lon="8.952283782306097"><ele>441.0</ele><time>2026-04-29T08:46:53.038Z</time></trkpt><trkpt lat="40.10634486662876" lon="8.952048697212202"><ele>441.0</ele><time>2026-04-29T08:46:54.038Z</time></trkpt><trkpt lat="40.10641738172063" lon="8.951809420948585"><ele>441.0</ele><time>2026-04-29T08:46:55.038Z</time></trkpt><trkpt lat="40.10647886281969" lon="8.951566270378251"><ele>441.0</ele><time>2026-04-29T08:46:56.038Z</time></trkpt><trkpt lat="40.10653147133623" lon="8.951319544433181"><ele>437.66666666666663</ele><time>2026-04-29T08:46:57.038Z</time></trkpt><trkpt lat="40.106584717038366" lon="8.951065448813994"><ele>434.3333333333333</ele><time>2026-04-29T08:46:58.038Z</time></trkpt><trkpt lat="40.10663553117147" lon="8.950828642532565"><ele>431.0</ele><time>2026-04-29T08:46:59.038Z</time></trkpt><trkpt lat="40.106677084274025" lon="8.950601708629378"><ele>430.0</ele><time>2026-04-29T08:47:00.038Z</time></trkpt><trkpt lat="40.106719068262116" lon="8.950379635762362"><ele>429.0</ele><time>2026-04-29T08:47:01.038Z</time></trkpt><trkpt lat="40.106752721297866" lon="8.950158423388734"><ele>428.0</ele><time>2026-04-29T08:47:02.038Z</time></trkpt><trkpt lat="40.10677123440771" lon="8.949936127619965"><ele>427.3333333333333</ele><time>2026-04-29T08:47:03.038Z</time></trkpt><trkpt lat="40.10676339707239" lon="8.949711347329055"><ele>426.66666666666663</ele><time>2026-04-29T08:47:04.038Z</time></trkpt><trkpt lat="40.106731061929224" lon="8.949491346228584"><ele>426.0</ele><time>2026-04-29T08:47:05.038Z</time></trkpt><trkpt lat="40.10667764266811" lon="8.949268807658168"><ele>427.33333333333337</ele><time>2026-04-29T08:47:06.038Z</time></trkpt><trkpt lat="40.106597051145016" lon="8.94905956865371"><ele>428.6666666666667</ele><time>2026-04-29T08:47:07.038Z</time></trkpt><trkpt lat="40.10650123584884" lon="8.948857825200266"><ele>430.0</ele><time>2026-04-29T08:47:08.038Z</time></trkpt><trkpt lat="40.10639693362267" lon="8.948657697101616"><ele>430.0</ele><time>2026-04-29T08:47:09.038Z</time></trkpt><trkpt lat="40.10629099752878" lon="8.94845599221308"><ele>430.0</ele><time>2026-04-29T08:47:10.038Z</time></trkpt><trkpt lat="40.106186344961024" lon="8.948251004592013"><ele>430.0</ele><time>2026-04-29T08:47:11.038Z</time></trkpt><trkpt lat="40.1060790975782" lon="8.94804372548462"><ele>426.6666666666667</ele><time>2026-04-29T08:47:12.038Z</time></trkpt><trkpt lat="40.10597090494203" lon="8.94783781785317"><ele>423.33333333333337</ele><time>2026-04-29T08:47:13.038Z</time></trkpt><trkpt lat="40.1058553859017" lon="8.947648106412226"><ele>420.0</ele><time>2026-04-29T08:47:14.038Z</time></trkpt><trkpt lat="40.105747884462914" lon="8.947476124117172"><ele>421.66666666666663</ele><time>2026-04-29T08:47:15.038Z</time></trkpt><trkpt lat="40.105659657821775" lon="8.947288020139919"><ele>423.3333333333333</ele><time>2026-04-29T08:47:16.038Z</time></trkpt><trkpt lat="40.1056263438703" lon="8.947037011977208"><ele>425.0</ele><time>2026-04-29T08:47:17.038Z</time></trkpt><trkpt lat="40.105626850956256" lon="8.946792457833785"><ele>424.66666666666663</ele><time>2026-04-29T08:47:18.038Z</time></trkpt><trkpt lat="40.10567164341435" lon="8.946556983009405"><ele>424.33333333333337</ele><time>2026-04-29T08:47:19.038Z</time></trkpt><trkpt lat="40.10574933634796" lon="8.946326197052334"><ele>424.0</ele><time>2026-04-29T08:47:20.038Z</time></trkpt><trkpt lat="40.10583959382851" lon="8.946095684208093"><ele>416.6666666666667</ele><time>2026-04-29T08:47:21.038Z</time></trkpt><trkpt lat="40.10593168077022" lon="8.945858237177143"><ele>409.33333333333337</ele><time>2026-04-29T08:47:22.038Z</time></trkpt><trkpt lat="40.1060296519289" lon="8.945611603241723"><ele>402.0</ele><time>2026-04-29T08:47:23.041Z</time></trkpt><trkpt lat="40.106141490700736" lon="8.945360339231847"><ele>402.0</ele><time>2026-04-29T08:47:24.04Z</time></trkpt><trkpt lat="40.106250148313144" lon="8.945101806624852"><ele>402.0</ele><time>2026-04-29T08:47:25.04Z</time></trkpt><trkpt lat="40.10636206655083" lon="8.944841323191335"><ele>401.0</ele><time>2026-04-29T08:47:26.041Z</time></trkpt><trkpt lat="40.10647694057375" lon="8.944588973181794"><ele>400.0</ele><time>2026-04-29T08:47:27.04Z</time></trkpt><trkpt lat="40.106587993008546" lon="8.944335526747066"><ele>399.0</ele><time>2026-04-29T08:47:28.04Z</time></trkpt><trkpt lat="40.106692985604184" lon="8.944084569753548"><ele>394.5</ele><time>2026-04-29T08:47:29.04Z</time></trkpt><trkpt lat="40.10678449165647" lon="8.943813878819993"><ele>390.0</ele><time>2026-04-29T08:47:30.04Z</time></trkpt><trkpt lat="40.10684239330248" lon="8.943529643940591"><ele>390.0</ele><time>2026-04-29T08:47:31.04Z</time></trkpt><trkpt lat="40.106894907421875" lon="8.943226013129607"><ele>390.0</ele><time>2026-04-29T08:47:32.04Z</time></trkpt><trkpt lat="40.106950060441825" lon="8.942912177329685"><ele>390.0</ele><time>2026-04-29T08:47:33.04Z</time></trkpt><trkpt lat="40.10701436917691" lon="8.94259142413286"><ele>390.0</ele><time>2026-04-29T08:47:34.04Z</time></trkpt><trkpt lat="40.10708694068837" lon="8.942276678892984"><ele>392.5</ele><time>2026-04-29T08:47:35.04Z</time></trkpt><trkpt lat="40.107151559582185" lon="8.941974242520223"><ele>395.0</ele><time>2026-04-29T08:47:36.04Z</time></trkpt><trkpt lat="40.10721363520939" lon="8.94167556033341"><ele>395.66666666666663</ele><time>2026-04-29T08:47:37.04Z</time></trkpt><trkpt lat="40.107271692418585" lon="8.94138975849614"><ele>396.33333333333337</ele><time>2026-04-29T08:47:38.04Z</time></trkpt><trkpt lat="40.10732318412514" lon="8.941128624983666"><ele>397.0</ele><time>2026-04-29T08:47:39.04Z</time></trkpt><trkpt lat="40.107373210720546" lon="8.940882999463732"><ele>389.6666666666667</ele><time>2026-04-29T08:47:40.04Z</time></trkpt><trkpt lat="40.10742048466034" lon="8.940651354212221"><ele>382.33333333333337</ele><time>2026-04-29T08:47:41.04Z</time></trkpt><trkpt lat="40.107459710425374" lon="8.94044106232192"><ele>375.0</ele><time>2026-04-29T08:47:42.04Z</time></trkpt><trkpt lat="40.10746690958245" lon="8.940229382603368"><ele>373.0</ele><time>2026-04-29T08:47:43.04Z</time></trkpt><trkpt lat="40.107429725995374" lon="8.940023794915186"><ele>371.0</ele><time>2026-04-29T08:47:44.04Z</time></trkpt><trkpt lat="40.107349778362064" lon="8.939831938086328"><ele>369.0</ele><time>2026-04-29T08:47:45.04Z</time></trkpt><trkpt lat="40.10723436728929" lon="8.939649473566865"><ele>375.66666666666663</ele><time>2026-04-29T08:47:46.04Z</time></trkpt><trkpt lat="40.10708248792631" lon="8.939493328239662"><ele>382.3333333333333</ele><time>2026-04-29T08:47:47.04Z</time></trkpt><trkpt lat="40.10693960130995" lon="8.939347677536334"><ele>389.0</ele><time>2026-04-29T08:47:48.04Z</time></trkpt><trkpt lat="40.1068190942251" lon="8.939224711507862"><ele>386.0</ele><time>2026-04-29T08:47:49.04Z</time></trkpt><trkpt lat="40.10673267438707" lon="8.93908443124459"><ele>383.0</ele><time>2026-04-29T08:47:50.04Z</time></trkpt><trkpt lat="40.10668615169981" lon="8.938916443272822"><ele>380.0</ele><time>2026-04-29T08:47:51.04Z</time></trkpt><trkpt lat="40.106679930365175" lon="8.938735816659072"><ele>377.0</ele><time>2026-04-29T08:47:52.04Z</time></trkpt><trkpt lat="40.10671976112002" lon="8.938572180600662"><ele>377.0</ele><time>2026-04-29T08:47:53.04Z</time></trkpt><trkpt lat="40.10678871085808" lon="8.93842172984072"><ele>377.0</ele><time>2026-04-29T08:47:54.04Z</time></trkpt><trkpt lat="40.10688622371983" lon="8.938302468246507"><ele>377.0</ele><time>2026-04-29T08:47:55.04Z</time></trkpt><trkpt lat="40.10700502874511" lon="8.938241247029051"><ele>377.0</ele><time>2026-04-29T08:47:56.04Z</time></trkpt><trkpt lat="40.107143943962484" lon="8.93821609562545"><ele>378.0</ele><time>2026-04-29T08:47:57.04Z</time></trkpt><trkpt lat="40.1072926685989" lon="8.93819449475362"><ele>379.0</ele><time>2026-04-29T08:47:58.04Z</time></trkpt><trkpt lat="40.10743502372315" lon="8.938158062628393"><ele>380.0</ele><time>2026-04-29T08:47:59.04Z</time></trkpt><trkpt lat="40.107574960131" lon="8.938120792950903"><ele>381.0</ele><time>2026-04-29T08:48:00.04Z</time></trkpt><trkpt lat="40.10771112852103" lon="8.938083120198769"><ele>375.75</ele><time>2026-04-29T08:48:01.04Z</time></trkpt><trkpt lat="40.10784353364021" lon="8.93803945106164"><ele>370.5</ele><time>2026-04-29T08:48:02.04Z</time></trkpt><trkpt lat="40.107970613250295" lon="8.937984602259109"><ele>365.25</ele><time>2026-04-29T08:48:03.04Z</time></trkpt><trkpt lat="40.108086990101526" lon="8.937918816372711"><ele>360.0</ele><time>2026-04-29T08:48:04.04Z</time></trkpt><trkpt lat="40.10818070862134" lon="8.937844391223557"><ele>360.0</ele><time>2026-04-29T08:48:05.04Z</time></trkpt><trkpt lat="40.108243097910666" lon="8.937745034694556"><ele>360.0</ele><time>2026-04-29T08:48:06.04Z</time></trkpt><trkpt lat="40.10823226816124" lon="8.93760235777877"><ele>360.0</ele><time>2026-04-29T08:48:07.04Z</time></trkpt><trkpt lat="40.10818523105305" lon="8.937498700231952"><ele>360.0</ele><time>2026-04-29T08:48:08.04Z</time></trkpt><trkpt lat="40.108105056598255" lon="8.93741209762763"><ele>360.0</ele><time>2026-04-29T08:48:09.04Z</time></trkpt><trkpt lat="40.107990888942695" lon="8.9373717683031"><ele>361.25</ele><time>2026-04-29T08:48:10.04Z</time></trkpt><trkpt lat="40.10788281837964" lon="8.93733740012822"><ele>362.5</ele><time>2026-04-29T08:48:11.04Z</time></trkpt><trkpt lat="40.10777802462605" lon="8.937273748943316"><ele>363.75</ele><time>2026-04-29T08:48:12.04Z</time></trkpt><trkpt lat="40.10768968284895" lon="8.937156287783495"><ele>365.0</ele><time>2026-04-29T08:48:13.04Z</time></trkpt><trkpt lat="40.10764931469578" lon="8.936994273467743"><ele>365.0</ele><time>2026-04-29T08:48:14.04Z</time></trkpt><trkpt lat="40.10762910867322" lon="8.936837471552987"><ele>365.0</ele><time>2026-04-29T08:48:15.04Z</time></trkpt><trkpt lat="40.10760169203381" lon="8.936680179893216"><ele>365.0</ele><time>2026-04-29T08:48:16.04Z</time></trkpt><trkpt lat="40.107569222809516" lon="8.936513480310895"><ele>365.0</ele><time>2026-04-29T08:48:17.04Z</time></trkpt><trkpt lat="40.10753728004186" lon="8.9363464345992"><ele>365.25</ele><time>2026-04-29T08:48:18.04Z</time></trkpt><trkpt lat="40.1075011575333" lon="8.936186333537917"><ele>365.5</ele><time>2026-04-29T08:48:19.04Z</time></trkpt><trkpt lat="40.107443347487774" lon="8.93603886213986"><ele>365.75</ele><time>2026-04-29T08:48:20.04Z</time></trkpt><trkpt lat="40.10734530037121" lon="8.935927174373878"><ele>366.0</ele><time>2026-04-29T08:48:21.04Z</time></trkpt><trkpt lat="40.10724960698494" lon="8.935812788365991"><ele>366.0</ele><time>2026-04-29T08:48:22.04Z</time></trkpt><trkpt lat="40.10716473991721" lon="8.93567866712065"><ele>366.0</ele><time>2026-04-29T08:48:23.04Z</time></trkpt><trkpt lat="40.107106355298896" lon="8.935522821641065"><ele>366.0</ele><time>2026-04-29T08:48:24.04Z</time></trkpt><trkpt lat="40.10707184157192" lon="8.935349840499807"><ele>366.0</ele><time>2026-04-29T08:48:25.04Z</time></trkpt><trkpt lat="40.10705290342106" lon="8.935178447421903"><ele>363.0</ele><time>2026-04-29T08:48:26.04Z</time></trkpt><trkpt lat="40.107024941315885" lon="8.935004448775585"><ele>360.0</ele><time>2026-04-29T08:48:27.04Z</time></trkpt><trkpt lat="40.10697937184872" lon="8.934842209982408"><ele>357.0</ele><time>2026-04-29T08:48:28.04Z</time></trkpt><trkpt lat="40.10690586976432" lon="8.93469937828137"><ele>354.0</ele><time>2026-04-29T08:48:29.04Z</time></trkpt><trkpt lat="40.106820396997115" lon="8.934572684859175"><ele>354.0</ele><time>2026-04-29T08:48:30.04Z</time></trkpt><trkpt lat="40.10675374836394" lon="8.934422325301187"><ele>354.0</ele><time>2026-04-29T08:48:31.04Z</time></trkpt><trkpt lat="40.10671682766321" lon="8.934254406490153"><ele>354.0</ele><time>2026-04-29T08:48:32.04Z</time></trkpt><trkpt lat="40.10670577848664" lon="8.93407746674419"><ele>354.0</ele><time>2026-04-29T08:48:33.04Z</time></trkpt><trkpt lat="40.106719414367745" lon="8.933904611254619"><ele>351.5</ele><time>2026-04-29T08:48:34.04Z</time></trkpt><trkpt lat="40.10675521691466" lon="8.933739687476416"><ele>349.0</ele><time>2026-04-29T08:48:35.04Z</time></trkpt><trkpt lat="40.10679091595635" lon="8.93358394346439"><ele>346.5</ele><time>2026-04-29T08:48:36.04Z</time></trkpt><trkpt lat="40.10682425222741" lon="8.93343432191068"><ele>344.0</ele><time>2026-04-29T08:48:37.04Z</time></trkpt><trkpt lat="40.10685236735445" lon="8.933290135283373"><ele>343.1666666666667</ele><time>2026-04-29T08:48:38.04Z</time></trkpt><trkpt lat="40.10687946142743" lon="8.933155474646538"><ele>342.33333333333337</ele><time>2026-04-29T08:48:39.04Z</time></trkpt><trkpt lat="40.106876902499955" lon="8.933033327421326"><ele>341.5</ele><time>2026-04-29T08:48:40.04Z</time></trkpt><trkpt lat="40.10683514825156" lon="8.932952213251571"><ele>340.6666666666667</ele><time>2026-04-29T08:48:41.04Z</time></trkpt><trkpt lat="40.10677573693131" lon="8.932890359044615"><ele>339.8333333333333</ele><time>2026-04-29T08:48:42.04Z</time></trkpt><trkpt lat="40.10672087797533" lon="8.93284037046204"><ele>339.0</ele><time>2026-04-29T08:48:43.04Z</time></trkpt><trkpt lat="40.10665359067124" lon="8.932780137114422"><ele>339.0</ele><time>2026-04-29T08:48:44.04Z</time></trkpt><trkpt lat="40.106587099202244" lon="8.93272091430418"><ele>339.0</ele><time>2026-04-29T08:48:45.04Z</time></trkpt><trkpt lat="40.106517069339894" lon="8.932664485162963"><ele>339.0</ele><time>2026-04-29T08:48:46.04Z</time></trkpt><trkpt lat="40.10645051887361" lon="8.932607412995461"><ele>339.0</ele><time>2026-04-29T08:48:47.04Z</time></trkpt><trkpt lat="40.10638541160902" lon="8.932539538595647"><ele>339.0</ele><time>2026-04-29T08:48:48.04Z</time></trkpt><trkpt lat="40.10631818240113" lon="8.93246883683812"><ele>339.0</ele><time>2026-04-29T08:48:49.04Z</time></trkpt><trkpt lat="40.10625077521107" lon="8.932389613473925"><ele>339.6666666666667</ele><time>2026-04-29T08:48:50.04Z</time></trkpt><trkpt lat="40.106191740785654" lon="8.932307316016894"><ele>340.3333333333333</ele><time>2026-04-29T08:48:51.04Z</time></trkpt><trkpt lat="40.106140075277196" lon="8.932220753761182"><ele>341.0</ele><time>2026-04-29T08:48:52.04Z</time></trkpt><trkpt lat="40.10609194095173" lon="8.932130019542253"><ele>341.66666666666663</ele><time>2026-04-29T08:48:53.04Z</time></trkpt><trkpt lat="40.10604300852544" lon="8.932031310752285"><ele>342.3333333333333</ele><time>2026-04-29T08:48:54.04Z</time></trkpt><trkpt lat="40.105991894678844" lon="8.931935023219744"><ele>343.0</ele><time>2026-04-29T08:48:55.04Z</time></trkpt><trkpt lat="40.105938323285564" lon="8.931853375819593"><ele>343.0</ele><time>2026-04-29T08:48:56.04Z</time></trkpt><trkpt lat="40.105847527819805" lon="8.931801564808545"><ele>343.0</ele><time>2026-04-29T08:48:57.04Z</time></trkpt><trkpt lat="40.10574627098837" lon="8.931772648094869"><ele>343.0</ele><time>2026-04-29T08:48:58.04Z</time></trkpt><trkpt lat="40.1056420863836" lon="8.931750838224906"><ele>343.0</ele><time>2026-04-29T08:48:59.04Z</time></trkpt><trkpt lat="40.1055413842843" lon="8.931734845840959"><ele>343.0</ele><time>2026-04-29T08:49:00.04Z</time></trkpt><trkpt lat="40.10544627219001" lon="8.93170421132008"><ele>342.0</ele><time>2026-04-29T08:49:01.04Z</time></trkpt><trkpt lat="40.1053609824924" lon="8.931656529920527"><ele>341.0</ele><time>2026-04-29T08:49:02.04Z</time></trkpt><trkpt lat="40.105293496902775" lon="8.931593096056384"><ele>340.0</ele><time>2026-04-29T08:49:03.04Z</time></trkpt><trkpt lat="40.105249147908154" lon="8.931473994268988"><ele>339.0</ele><time>2026-04-29T08:49:04.04Z</time></trkpt><trkpt lat="40.10521877290884" lon="8.931330050973859"><ele>338.0</ele><time>2026-04-29T08:49:05.04Z</time></trkpt><trkpt lat="40.10518746448629" lon="8.931186041849424"><ele>338.0</ele><time>2026-04-29T08:49:06.04Z</time></trkpt><trkpt lat="40.10514791887121" lon="8.931052231715448"><ele>338.0</ele><time>2026-04-29T08:49:07.04Z</time></trkpt><trkpt lat="40.10510580322325" lon="8.930923256408246"><ele>338.0</ele><time>2026-04-29T08:49:08.04Z</time></trkpt><trkpt lat="40.105056606257506" lon="8.930802387418266"><ele>338.0</ele><time>2026-04-29T08:49:09.04Z</time></trkpt><trkpt lat="40.105008975931135" lon="8.930690302198084"><ele>338.0</ele><time>2026-04-29T08:49:10.04Z</time></trkpt><trkpt lat="40.10496900933938" lon="8.930575810636359"><ele>336.0</ele><time>2026-04-29T08:49:11.04Z</time></trkpt><trkpt lat="40.10493444319593" lon="8.930458510071"><ele>334.0</ele><time>2026-04-29T08:49:12.04Z</time></trkpt><trkpt lat="40.10490651544956" lon="8.930335932861485"><ele>332.0</ele><time>2026-04-29T08:49:13.04Z</time></trkpt><trkpt lat="40.104908002143375" lon="8.930202446475727"><ele>330.0</ele><time>2026-04-29T08:49:14.04Z</time></trkpt><trkpt lat="40.10495397481052" lon="8.930089967245541"><ele>328.0</ele><time>2026-04-29T08:49:15.04Z</time></trkpt><trkpt lat="40.10502808901686" lon="8.930030463235525"><ele>328.0</ele><time>2026-04-29T08:49:16.04Z</time></trkpt><trkpt lat="40.105103091528186" lon="8.93002707368837"><ele>328.0</ele><time>2026-04-29T08:49:17.04Z</time></trkpt><trkpt lat="40.105167535328604" lon="8.930061371466794"><ele>328.0</ele><time>2026-04-29T08:49:18.04Z</time></trkpt><trkpt lat="40.10523298122988" lon="8.93013663847588"><ele>328.0</ele><time>2026-04-29T08:49:19.04Z</time></trkpt><trkpt lat="40.10529878465629" lon="8.930205037939816"><ele>328.0</ele><time>2026-04-29T08:49:20.04Z</time></trkpt><trkpt lat="40.10537366881894" lon="8.930286240659209"><ele>328.0</ele><time>2026-04-29T08:49:21.04Z</time></trkpt><trkpt lat="40.10545914228961" lon="8.9303718707767"><ele>328.0</ele><time>2026-04-29T08:49:22.04Z</time></trkpt><trkpt lat="40.105550124204704" lon="8.930451133925995"><ele>328.0</ele><time>2026-04-29T08:49:23.04Z</time></trkpt><trkpt lat="40.105639058865556" lon="8.930537354049093"><ele>328.0</ele><time>2026-04-29T08:49:24.04Z</time></trkpt><trkpt lat="40.10573052231856" lon="8.930618442451724"><ele>328.0</ele><time>2026-04-29T08:49:25.04Z</time></trkpt><trkpt lat="40.105833870172404" lon="8.930664113811128"><ele>328.0</ele><time>2026-04-29T08:49:26.04Z</time></trkpt><trkpt lat="40.10594936680438" lon="8.93068550075244"><ele>325.5</ele><time>2026-04-29T08:49:27.04Z</time></trkpt><trkpt lat="40.106068001624884" lon="8.930683071866124"><ele>323.0</ele><time>2026-04-29T08:49:28.04Z</time></trkpt><trkpt lat="40.106194482660776" lon="8.930666969072249"><ele>320.5</ele><time>2026-04-29T08:49:29.041Z</time></trkpt><trkpt lat="40.1063132419327" lon="8.930638782682646"><ele>318.0</ele><time>2026-04-29T08:49:30.041Z</time></trkpt><trkpt lat="40.10643789983357" lon="8.930610844210229"><ele>318.0</ele><time>2026-04-29T08:49:31.041Z</time></trkpt><trkpt lat="40.1065558878615" lon="8.930596004172658"><ele>318.0</ele><time>2026-04-29T08:49:32.042Z</time></trkpt><trkpt lat="40.10667215087455" lon="8.93057611714259"><ele>318.0</ele><time>2026-04-29T08:49:33.041Z</time></trkpt><trkpt lat="40.10678474049156" lon="8.930528473683024"><ele>318.0</ele><time>2026-04-29T08:49:34.041Z</time></trkpt><trkpt lat="40.106898285907484" lon="8.930468828154774"><ele>317.5</ele><time>2026-04-29T08:49:35.041Z</time></trkpt><trkpt lat="40.107009271486554" lon="8.93041310739348"><ele>317.0</ele><time>2026-04-29T08:49:36.041Z</time></trkpt><trkpt lat="40.10712183022784" lon="8.930370979906382"><ele>316.5</ele><time>2026-04-29T08:49:37.041Z</time></trkpt><trkpt lat="40.10723485088268" lon="8.930344928512477"><ele>316.0</ele><time>2026-04-29T08:49:38.041Z</time></trkpt><trkpt lat="40.107347934731145" lon="8.93032849846717"><ele>315.40000000000003</ele><time>2026-04-29T08:49:39.041Z</time></trkpt><trkpt lat="40.10746064913117" lon="8.930328592340008"><ele>314.8</ele><time>2026-04-29T08:49:40.041Z</time></trkpt><trkpt lat="40.107567840105595" lon="8.930349252743113"><ele>314.20000000000005</ele><time>2026-04-29T08:49:41.041Z</time></trkpt><trkpt lat="40.10766558587228" lon="8.930392068262933"><ele>313.6</ele><time>2026-04-29T08:49:42.042Z</time></trkpt><trkpt lat="40.1077648057274" lon="8.930464160298333"><ele>313.0</ele><time>2026-04-29T08:49:43.042Z</time></trkpt><trkpt lat="40.10786627553497" lon="8.93055501621159"><ele>313.0</ele><time>2026-04-29T08:49:44.042Z</time></trkpt><trkpt lat="40.10796610346236" lon="8.930642158268713"><ele>313.0</ele><time>2026-04-29T08:49:45.042Z</time></trkpt><trkpt lat="40.10805072431974" lon="8.930755157867457"><ele>313.0</ele><time>2026-04-29T08:49:46.042Z</time></trkpt><trkpt lat="40.10810551676959" lon="8.930902019676841"><ele>313.0</ele><time>2026-04-29T08:49:47.042Z</time></trkpt><trkpt lat="40.108135310887995" lon="8.93107107418487"><ele>313.75</ele><time>2026-04-29T08:49:48.042Z</time></trkpt><trkpt lat="40.10815821656816" lon="8.931238502693576"><ele>314.5</ele><time>2026-04-29T08:49:49.042Z</time></trkpt><trkpt lat="40.10818124349339" lon="8.931407301657137"><ele>315.25</ele><time>2026-04-29T08:49:50.042Z</time></trkpt><trkpt lat="40.108186541561174" lon="8.93158303159747"><ele>316.0</ele><time>2026-04-29T08:49:51.042Z</time></trkpt><trkpt lat="40.108181557436104" lon="8.93176634989457"><ele>316.0</ele><time>2026-04-29T08:49:52.042Z</time></trkpt><trkpt lat="40.10817157342862" lon="8.931953937265005"><ele>316.0</ele><time>2026-04-29T08:49:53.042Z</time></trkpt><trkpt lat="40.10817311238104" lon="8.932144203305919"><ele>316.0</ele><time>2026-04-29T08:49:54.042Z</time></trkpt><trkpt lat="40.10819160526446" lon="8.93233482393436"><ele>316.0</ele><time>2026-04-29T08:49:55.042Z</time></trkpt><trkpt lat="40.10822390726867" lon="8.93253165682793"><ele>305.66666666666663</ele><time>2026-04-29T08:49:56.042Z</time></trkpt><trkpt lat="40.108251775250565" lon="8.932737934638508"><ele>295.3333333333333</ele><time>2026-04-29T08:49:57.042Z</time></trkpt><trkpt lat="40.10828556726912" lon="8.93293793183446"><ele>285.0</ele><time>2026-04-29T08:49:58.041Z</time></trkpt><trkpt lat="40.10832284018016" lon="8.93313482721219"><ele>285.0</ele><time>2026-04-29T08:49:59.041Z</time></trkpt><trkpt lat="40.10835886012158" lon="8.933320994244793"><ele>285.0</ele><time>2026-04-29T08:50:00.041Z</time></trkpt><trkpt lat="40.108415864750356" lon="8.93349003260273"><ele>285.0</ele><time>2026-04-29T08:50:01.041Z</time></trkpt><trkpt lat="40.108510956105185" lon="8.933636069801796"><ele>285.0</ele><time>2026-04-29T08:50:02.041Z</time></trkpt><trkpt lat="40.10863838963819" lon="8.933742619206873"><ele>286.6666666666667</ele><time>2026-04-29T08:50:03.041Z</time></trkpt><trkpt lat="40.10878334965719" lon="8.933798409073008"><ele>288.33333333333337</ele><time>2026-04-29T08:50:04.041Z</time></trkpt><trkpt lat="40.10893482700932" lon="8.933797987025946"><ele>290.0</ele><time>2026-04-29T08:50:05.041Z</time></trkpt><trkpt lat="40.10907616311817" lon="8.933741614876888"><ele>286.6666666666667</ele><time>2026-04-29T08:50:06.041Z</time></trkpt><trkpt lat="40.109196527814824" lon="8.933632184985592"><ele>283.3333333333333</ele><time>2026-04-29T08:50:07.041Z</time></trkpt><trkpt lat="40.10930542033447" lon="8.933477563485715"><ele>280.0</ele><time>2026-04-29T08:50:08.041Z</time></trkpt><trkpt lat="40.109397266046116" lon="8.933298227465936"><ele>277.66666666666663</ele><time>2026-04-29T08:50:09.041Z</time></trkpt><trkpt lat="40.109485475812775" lon="8.933109107349098"><ele>275.3333333333333</ele><time>2026-04-29T08:50:10.041Z</time></trkpt><trkpt lat="40.10957208227383" lon="8.932923225495529"><ele>273.0</ele><time>2026-04-29T08:50:11.041Z</time></trkpt><trkpt lat="40.109667176510584" lon="8.9327293892215"><ele>271.6666666666667</ele><time>2026-04-29T08:50:12.041Z</time></trkpt><trkpt lat="40.10975871626467" lon="8.932537475152305"><ele>270.33333333333337</ele><time>2026-04-29T08:50:13.041Z</time></trkpt><trkpt lat="40.10985115974907" lon="8.93235370684875"><ele>269.0</ele><time>2026-04-29T08:50:14.041Z</time></trkpt><trkpt lat="40.10995355807714" lon="8.93218725011334"><ele>268.25</ele><time>2026-04-29T08:50:15.041Z</time></trkpt><trkpt lat="40.110071921488675" lon="8.932081094689625"><ele>267.5</ele><time>2026-04-29T08:50:16.041Z</time></trkpt><trkpt lat="40.11020308304113" lon="8.932011921027856"><ele>266.75</ele><time>2026-04-29T08:50:17.041Z</time></trkpt><trkpt lat="40.110349341687694" lon="8.931998573161847"><ele>266.0</ele><time>2026-04-29T08:50:18.041Z</time></trkpt><trkpt lat="40.11050177535874" lon="8.932028145030126"><ele>266.0</ele><time>2026-04-29T08:50:19.041Z</time></trkpt><trkpt lat="40.110643637278024" lon="8.932071151490339"><ele>266.0</ele><time>2026-04-29T08:50:20.041Z</time></trkpt><trkpt lat="40.11076766954589" lon="8.932109077744865"><ele>266.0</ele><time>2026-04-29T08:50:21.041Z</time></trkpt><trkpt lat="40.1108649481744" lon="8.932163151720003"><ele>266.0</ele><time>2026-04-29T08:50:22.041Z</time></trkpt><trkpt lat="40.11093388605419" lon="8.932245325692215"><ele>265.0</ele><time>2026-04-29T08:50:23.041Z</time></trkpt><trkpt lat="40.11099572525557" lon="8.932322226734422"><ele>264.0</ele><time>2026-04-29T08:50:24.041Z</time></trkpt><trkpt lat="40.11107244006371" lon="8.932358065527618"><ele>263.0</ele><time>2026-04-29T08:50:25.041Z</time></trkpt><trkpt lat="40.1111555143203" lon="8.93235047228177"><ele>262.0</ele><time>2026-04-29T08:50:26.041Z</time></trkpt><trkpt lat="40.11122610793054" lon="8.932299640861741"><ele>261.0</ele><time>2026-04-29T08:50:27.041Z</time></trkpt><trkpt lat="40.11127063052632" lon="8.932211835632954"><ele>260.0</ele><time>2026-04-29T08:50:28.041Z</time></trkpt><trkpt lat="40.111294020171236" lon="8.932108377011648"><ele>260.0</ele><time>2026-04-29T08:50:29.041Z</time></trkpt><trkpt lat="40.11131736605026" lon="8.932004402229117"><ele>260.0</ele><time>2026-04-29T08:50:30.041Z</time></trkpt><trkpt lat="40.11135143195341" lon="8.931913234231612"><ele>260.0</ele><time>2026-04-29T08:50:31.041Z</time></trkpt><trkpt lat="40.11140043245504" lon="8.931823918518234"><ele>260.0</ele><time>2026-04-29T08:50:32.041Z</time></trkpt><trkpt lat="40.11143714794941" lon="8.9317301216994"><ele>260.0</ele><time>2026-04-29T08:50:33.041Z</time></trkpt><trkpt lat="40.1114670664657" lon="8.93164592878614"><ele>260.0</ele><time>2026-04-29T08:50:34.041Z</time></trkpt><trkpt lat="40.111486615185186" lon="8.93154773352789"><ele>259.0</ele><time>2026-04-29T08:50:35.041Z</time></trkpt><trkpt lat="40.111491315984786" lon="8.931430138423977"><ele>258.0</ele><time>2026-04-29T08:50:36.041Z</time></trkpt><trkpt lat="40.11149071743782" lon="8.93130468167528"><ele>257.0</ele><time>2026-04-29T08:50:37.041Z</time></trkpt><trkpt lat="40.11147873165361" lon="8.931169256952982"><ele>256.0</ele><time>2026-04-29T08:50:38.041Z</time></trkpt><trkpt lat="40.111452947814016" lon="8.931029704230449"><ele>255.0</ele><time>2026-04-29T08:50:39.041Z</time></trkpt><trkpt lat="40.111406502285206" lon="8.930896049380136"><ele>252.5</ele><time>2026-04-29T08:50:40.041Z</time></trkpt><trkpt lat="40.11133686620311" lon="8.93077554829194"><ele>250.0</ele><time>2026-04-29T08:50:41.041Z</time></trkpt><trkpt lat="40.111245404960805" lon="8.930676471403254"><ele>247.5</ele><time>2026-04-29T08:50:42.041Z</time></trkpt><trkpt lat="40.11113458727551" lon="8.930599681674705"><ele>245.0</ele><time>2026-04-29T08:50:43.041Z</time></trkpt><trkpt lat="40.111005139788375" lon="8.930541715073355"><ele>245.0</ele><time>2026-04-29T08:50:44.041Z</time></trkpt><trkpt lat="40.11086932857542" lon="8.930491703088938"><ele>245.0</ele><time>2026-04-29T08:50:45.041Z</time></trkpt><trkpt lat="40.11073318867391" lon="8.930451852307195"><ele>245.0</ele><time>2026-04-29T08:50:46.041Z</time></trkpt><trkpt lat="40.110595438314434" lon="8.930406734812859"><ele>245.0</ele><time>2026-04-29T08:50:47.041Z</time></trkpt><trkpt lat="40.11045645287878" lon="8.93036113769973"><ele>245.25</ele><time>2026-04-29T08:50:48.041Z</time></trkpt><trkpt lat="40.11032866041985" lon="8.93030122213904"><ele>245.5</ele><time>2026-04-29T08:50:49.041Z</time></trkpt><trkpt lat="40.110236513975245" lon="8.930191392776862"><ele>245.75</ele><time>2026-04-29T08:50:50.041Z</time></trkpt><trkpt lat="40.110182084026924" lon="8.930039908369196"><ele>246.0</ele><time>2026-04-29T08:50:51.041Z</time></trkpt><trkpt lat="40.11015001125054" lon="8.929875708501317"><ele>244.0</ele><time>2026-04-29T08:50:52.041Z</time></trkpt><trkpt lat="40.11016265633799" lon="8.92969630910607"><ele>242.0</ele><time>2026-04-29T08:50:53.041Z</time></trkpt><trkpt lat="40.11016480596909" lon="8.929503265184273"><ele>240.0</ele><time>2026-04-29T08:50:54.041Z</time></trkpt><trkpt lat="40.110131861150066" lon="8.929315814787886"><ele>238.0</ele><time>2026-04-29T08:50:55.041Z</time></trkpt><trkpt lat="40.11007385746532" lon="8.929128345129799"><ele>236.0</ele><time>2026-04-29T08:50:56.041Z</time></trkpt><trkpt lat="40.11001085068905" lon="8.928931338760105"><ele>234.0</ele><time>2026-04-29T08:50:57.041Z</time></trkpt><trkpt lat="40.10994956160498" lon="8.928747147719358"><ele>232.0</ele><time>2026-04-29T08:50:58.041Z</time></trkpt><trkpt lat="40.10989125791133" lon="8.928577744453992"><ele>234.6</ele><time>2026-04-29T08:50:59.041Z</time></trkpt><trkpt lat="40.10984689694326" lon="8.9284201078531"><ele>237.2</ele><time>2026-04-29T08:51:00.041Z</time></trkpt><trkpt lat="40.109821531613996" lon="8.928299251617936"><ele>239.8</ele><time>2026-04-29T08:51:01.041Z</time></trkpt><trkpt lat="40.10980205021627" lon="8.92821742175473"><ele>242.4</ele><time>2026-04-29T08:51:02.041Z</time></trkpt><trkpt lat="40.1097896174582" lon="8.928101544635982"><ele>245.0</ele><time>2026-04-29T08:51:04.041Z</time></trkpt><trkpt lat="40.109758986167115" lon="8.928011286332971"><ele>245.0</ele><time>2026-04-29T08:51:07.041Z</time></trkpt><trkpt lat="40.10970383942147" lon="8.927970679687407"><ele>245.0</ele><time>2026-04-29T09:00:25.048Z</time></trkpt><trkpt lat="40.10965995816467" lon="8.927858101389818"><ele>245.0</ele><time>2026-04-29T09:00:27.048Z</time></trkpt><trkpt lat="40.10961708058618" lon="8.927717886230134"><ele>245.0</ele><time>2026-04-29T09:00:29.048Z</time></trkpt><trkpt lat="40.10956907963941" lon="8.92757946137111"><ele>245.0</ele><time>2026-04-29T09:00:31.048Z</time></trkpt><trkpt lat="40.109531393023516" lon="8.927426214032929"><ele>243.4</ele><time>2026-04-29T09:00:33.048Z</time></trkpt><trkpt lat="40.10951104478852" lon="8.927282713540496"><ele>241.8</ele><time>2026-04-29T09:00:35.048Z</time></trkpt><trkpt lat="40.10949651090374" lon="8.927145850200976"><ele>240.2</ele><time>2026-04-29T09:00:37.048Z</time></trkpt><trkpt lat="40.109502021847256" lon="8.927006853363181"><ele>238.6</ele><time>2026-04-29T09:00:39.048Z</time></trkpt><trkpt lat="40.109519254777055" lon="8.926852504121277"><ele>237.0</ele><time>2026-04-29T09:00:41.048Z</time></trkpt><trkpt lat="40.10953168002191" lon="8.926769514506718"><ele>235.66666666666666</ele><time>2026-04-29T09:00:42.048Z</time></trkpt><trkpt lat="40.10955080918337" lon="8.926678374481767"><ele>234.33333333333331</ele><time>2026-04-29T09:00:43.048Z</time></trkpt><trkpt lat="40.10957701249814" lon="8.926585183178386"><ele>233.0</ele><time>2026-04-29T09:00:44.048Z</time></trkpt><trkpt lat="40.10960276432092" lon="8.926490479986274"><ele>231.66666666666666</ele><time>2026-04-29T09:00:45.048Z</time></trkpt><trkpt lat="40.10962399807801" lon="8.926387464801508"><ele>230.33333333333331</ele><time>2026-04-29T09:00:46.048Z</time></trkpt><trkpt lat="40.10963057664405" lon="8.926285666979785"><ele>229.0</ele><time>2026-04-29T09:00:47.048Z</time></trkpt><trkpt lat="40.10963096021744" lon="8.926181242985077"><ele>228.99999999999997</ele><time>2026-04-29T09:00:48.048Z</time></trkpt><trkpt lat="40.10962278316953" lon="8.926075976686667"><ele>229.0</ele><time>2026-04-29T09:00:49.048Z</time></trkpt><trkpt lat="40.10961259745511" lon="8.92597220347793"><ele>229.0</ele><time>2026-04-29T09:00:50.048Z</time></trkpt><trkpt lat="40.10959574569511" lon="8.92587215069953"><ele>229.0</ele><time>2026-04-29T09:00:51.048Z</time></trkpt><trkpt lat="40.109578687943696" lon="8.925774515584138"><ele>228.99999999999997</ele><time>2026-04-29T09:00:52.048Z</time></trkpt><trkpt lat="40.10955680528123" lon="8.925675793260037"><ele>229.0</ele><time>2026-04-29T09:00:53.048Z</time></trkpt><trkpt lat="40.10953477296973" lon="8.925576739649161"><ele>227.99999999999997</ele><time>2026-04-29T09:00:54.048Z</time></trkpt><trkpt lat="40.109521151710894" lon="8.925474990168466"><ele>227.0</ele><time>2026-04-29T09:00:55.048Z</time></trkpt><trkpt lat="40.109503607120715" lon="8.92537128946738"><ele>226.0</ele><time>2026-04-29T09:00:56.048Z</time></trkpt><trkpt lat="40.1094820772768" lon="8.925268549342674"><ele>225.0</ele><time>2026-04-29T09:00:57.048Z</time></trkpt><trkpt lat="40.109458302886395" lon="8.92516553834749"><ele>223.99999999999997</ele><time>2026-04-29T09:00:58.048Z</time></trkpt><trkpt lat="40.109431644151684" lon="8.925065917708324"><ele>223.0</ele><time>2026-04-29T09:00:59.048Z</time></trkpt><trkpt lat="40.10939048883524" lon="8.924970488018722"><ele>222.66666666666666</ele><time>2026-04-29T09:01:00.048Z</time></trkpt><trkpt lat="40.10933854401229" lon="8.92488659847252"><ele>222.33333333333331</ele><time>2026-04-29T09:01:01.048Z</time></trkpt><trkpt lat="40.109282897829175" lon="8.924807245503768"><ele>222.0</ele><time>2026-04-29T09:01:02.048Z</time></trkpt><trkpt lat="40.10921640843898" lon="8.924743293484282"><ele>221.66666666666669</ele><time>2026-04-29T09:01:03.048Z</time></trkpt><trkpt lat="40.10913674669694" lon="8.924701901909465"><ele>221.33333333333334</ele><time>2026-04-29T09:01:04.048Z</time></trkpt><trkpt lat="40.10905393147356" lon="8.924664996078175"><ele>221.0</ele><time>2026-04-29T09:01:05.048Z</time></trkpt><trkpt lat="40.1089649496991" lon="8.924631048239737"><ele>221.00000000000003</ele><time>2026-04-29T09:01:06.048Z</time></trkpt><trkpt lat="40.10887947258496" lon="8.924592182700001"><ele>221.0</ele><time>2026-04-29T09:01:07.048Z</time></trkpt><trkpt lat="40.108797299781834" lon="8.924556693596946"><ele>221.0</ele><time>2026-04-29T09:01:08.048Z</time></trkpt><trkpt lat="40.108710687809335" lon="8.924521068021754"><ele>221.0</ele><time>2026-04-29T09:01:09.048Z</time></trkpt><trkpt lat="40.108626130395606" lon="8.924487651557525"><ele>221.00000000000003</ele><time>2026-04-29T09:01:10.048Z</time></trkpt><trkpt lat="40.10854357516517" lon="8.924454610693937"><ele>221.0</ele><time>2026-04-29T09:01:11.048Z</time></trkpt><trkpt lat="40.10845627489785" lon="8.92441706020232"><ele>221.00000000000003</ele><time>2026-04-29T09:01:12.048Z</time></trkpt><trkpt lat="40.1083684034685" lon="8.924384661582177"><ele>221.0</ele><time>2026-04-29T09:01:13.048Z</time></trkpt><trkpt lat="40.10828329523409" lon="8.92434908461885"><ele>221.0</ele><time>2026-04-29T09:01:14.048Z</time></trkpt><trkpt lat="40.10819637635575" lon="8.92431430931507"><ele>221.0</ele><time>2026-04-29T09:01:15.048Z</time></trkpt><trkpt lat="40.108111354656174" lon="8.92428011915677"><ele>221.00000000000003</ele><time>2026-04-29T09:01:16.048Z</time></trkpt><trkpt lat="40.10802872349515" lon="8.924245373957982"><ele>221.0</ele><time>2026-04-29T09:01:17.048Z</time></trkpt><trkpt lat="40.10794056297798" lon="8.924213449553093"><ele>217.20000000000002</ele><time>2026-04-29T09:01:18.048Z</time></trkpt><trkpt lat="40.10785427296166" lon="8.924182954671705"><ele>213.40000000000003</ele><time>2026-04-29T09:01:19.048Z</time></trkpt><trkpt lat="40.10776505310023" lon="8.924151463504243"><ele>209.6</ele><time>2026-04-29T09:01:20.048Z</time></trkpt><trkpt lat="40.10767841307054" lon="8.924115635844997"><ele>205.8</ele><time>2026-04-29T09:01:21.048Z</time></trkpt><trkpt lat="40.10759020083351" lon="8.924079095075555"><ele>202.0</ele><time>2026-04-29T09:01:22.048Z</time></trkpt><trkpt lat="40.10749829406302" lon="8.924041940014284"><ele>201.99999999999997</ele><time>2026-04-29T09:01:23.048Z</time></trkpt><trkpt lat="40.107412156171726" lon="8.924004246444225"><ele>202.0</ele><time>2026-04-29T09:01:24.048Z</time></trkpt><trkpt lat="40.10733044342482" lon="8.923956149791035"><ele>202.0</ele><time>2026-04-29T09:01:25.048Z</time></trkpt><trkpt lat="40.107265334260624" lon="8.923885688935119"><ele>202.0</ele><time>2026-04-29T09:01:26.048Z</time></trkpt><trkpt lat="40.10721385211548" lon="8.923802442405522"><ele>201.99999999999997</ele><time>2026-04-29T09:01:27.048Z</time></trkpt><trkpt lat="40.107172333096635" lon="8.923703756649513"><ele>202.0</ele><time>2026-04-29T09:01:28.048Z</time></trkpt><trkpt lat="40.10717158784733" lon="8.92359323039334"><ele>204.0</ele><time>2026-04-29T09:01:29.048Z</time></trkpt><trkpt lat="40.1071871749054" lon="8.923458563947818"><ele>206.0</ele><time>2026-04-29T09:01:30.048Z</time></trkpt><trkpt lat="40.107215108169015" lon="8.9233355956952"><ele>208.0</ele><time>2026-04-29T09:01:31.048Z</time></trkpt><trkpt lat="40.107253854215514" lon="8.92321560838508"><ele>210.0</ele><time>2026-04-29T09:01:32.048Z</time></trkpt><trkpt lat="40.107309183928095" lon="8.92310994628591"><ele>212.0</ele><time>2026-04-29T09:01:33.048Z</time></trkpt><trkpt lat="40.1073736645131" lon="8.923014901305514"><ele>208.0</ele><time>2026-04-29T09:01:34.048Z</time></trkpt><trkpt lat="40.107448664159975" lon="8.922929351693137"><ele>204.0</ele><time>2026-04-29T09:01:35.048Z</time></trkpt><trkpt lat="40.1075298716559" lon="8.922847715278094"><ele>200.0</ele><time>2026-04-29T09:01:36.048Z</time></trkpt><trkpt lat="40.10761716062915" lon="8.922772620726153"><ele>196.0</ele><time>2026-04-29T09:01:37.048Z</time></trkpt><trkpt lat="40.10771022076299" lon="8.922705515609142"><ele>192.0</ele><time>2026-04-29T09:01:38.048Z</time></trkpt><trkpt lat="40.10780912447676" lon="8.922655062796359"><ele>192.0</ele><time>2026-04-29T09:01:39.048Z</time></trkpt><trkpt lat="40.10790710986598" lon="8.922608497401702"><ele>192.0</ele><time>2026-04-29T09:01:40.048Z</time></trkpt><trkpt lat="40.10800149367709" lon="8.92255941016426"><ele>192.0</ele><time>2026-04-29T09:01:41.048Z</time></trkpt><trkpt lat="40.10809870379821" lon="8.922507821124192"><ele>192.0</ele><time>2026-04-29T09:01:42.048Z</time></trkpt><trkpt lat="40.10819345790575" lon="8.922449956766181"><ele>192.0</ele><time>2026-04-29T09:01:43.048Z</time></trkpt><trkpt lat="40.10828777647558" lon="8.922393737386512"><ele>190.6</ele><time>2026-04-29T09:01:44.048Z</time></trkpt><trkpt lat="40.10838598143224" lon="8.922339230319983"><ele>189.2</ele><time>2026-04-29T09:01:45.048Z</time></trkpt><trkpt lat="40.10848260101807" lon="8.922278321843404"><ele>187.8</ele><time>2026-04-29T09:01:46.048Z</time></trkpt><trkpt lat="40.10857335383416" lon="8.922204177079744"><ele>186.4</ele><time>2026-04-29T09:01:47.048Z</time></trkpt><trkpt lat="40.10865813098618" lon="8.92212381096875"><ele>185.0</ele><time>2026-04-29T09:01:48.048Z</time></trkpt><trkpt lat="40.10873415060855" lon="8.922031076513067"><ele>185.0</ele><time>2026-04-29T09:01:49.048Z</time></trkpt><trkpt lat="40.108807976893544" lon="8.921931551130992"><ele>185.0</ele><time>2026-04-29T09:01:50.048Z</time></trkpt><trkpt lat="40.10887874513292" lon="8.92182348713074"><ele>185.0</ele><time>2026-04-29T09:01:51.048Z</time></trkpt><trkpt lat="40.10894642393249" lon="8.921703255940427"><ele>185.0</ele><time>2026-04-29T09:01:52.048Z</time></trkpt><trkpt lat="40.109008887378565" lon="8.921578221769124"><ele>185.0</ele><time>2026-04-29T09:01:53.048Z</time></trkpt><trkpt lat="40.10906789070749" lon="8.921442836463749"><ele>183.5</ele><time>2026-04-29T09:01:54.048Z</time></trkpt><trkpt lat="40.109125936064096" lon="8.921305422451391"><ele>182.0</ele><time>2026-04-29T09:01:55.048Z</time></trkpt><trkpt lat="40.10918905578792" lon="8.921167457825748"><ele>180.5</ele><time>2026-04-29T09:01:56.048Z</time></trkpt><trkpt lat="40.109252137285225" lon="8.921032820815793"><ele>179.0</ele><time>2026-04-29T09:01:57.048Z</time></trkpt><trkpt lat="40.10931793683619" lon="8.920893584126238"><ele>179.0</ele><time>2026-04-29T09:01:58.048Z</time></trkpt><trkpt lat="40.10938243532717" lon="8.920752457099317"><ele>179.0</ele><time>2026-04-29T09:01:59.048Z</time></trkpt><trkpt lat="40.10944821912822" lon="8.920606813965895"><ele>179.0</ele><time>2026-04-29T09:02:00.048Z</time></trkpt><trkpt lat="40.10951409702495" lon="8.92046102878778"><ele>179.0</ele><time>2026-04-29T09:02:01.048Z</time></trkpt><trkpt lat="40.109581417408215" lon="8.92031477404412"><ele>179.0</ele><time>2026-04-29T09:02:02.048Z</time></trkpt><trkpt lat="40.109644847697005" lon="8.920165972171405"><ele>179.0</ele><time>2026-04-29T09:02:03.048Z</time></trkpt><trkpt lat="40.10971296029311" lon="8.920017736892502"><ele>179.0</ele><time>2026-04-29T09:02:04.048Z</time></trkpt><trkpt lat="40.1097807404637" lon="8.91986945738163"><ele>179.0</ele><time>2026-04-29T09:02:05.049Z</time></trkpt><trkpt lat="40.10984138875669" lon="8.919723174028832"><ele>177.0</ele><time>2026-04-29T09:02:06.048Z</time></trkpt><trkpt lat="40.1099109397052" lon="8.919571938892394"><ele>175.0</ele><time>2026-04-29T09:02:07.048Z</time></trkpt><trkpt lat="40.109976982273366" lon="8.919420640722912"><ele>173.0</ele><time>2026-04-29T09:02:08.049Z</time></trkpt><trkpt lat="40.11004340679296" lon="8.919274775070004"><ele>171.0</ele><time>2026-04-29T09:02:09.049Z</time></trkpt><trkpt lat="40.11011423125608" lon="8.919133853143379"><ele>171.0</ele><time>2026-04-29T09:02:10.049Z</time></trkpt><trkpt lat="40.11019469457191" lon="8.918996049951721"><ele>171.0</ele><time>2026-04-29T09:02:11.049Z</time></trkpt><trkpt lat="40.110285474204545" lon="8.918877480231187"><ele>171.0</ele><time>2026-04-29T09:02:12.048Z</time></trkpt><trkpt lat="40.11038937879493" lon="8.918767584947341"><ele>171.0</ele><time>2026-04-29T09:02:13.048Z</time></trkpt><trkpt lat="40.11050355183217" lon="8.918671682357129"><ele>171.0</ele><time>2026-04-29T09:02:14.049Z</time></trkpt><trkpt lat="40.11062056112542" lon="8.918586013849014"><ele>171.0</ele><time>2026-04-29T09:02:15.049Z</time></trkpt><trkpt lat="40.11073855652562" lon="8.918500429747803"><ele>171.0</ele><time>2026-04-29T09:02:16.049Z</time></trkpt><trkpt lat="40.11085196863489" lon="8.918415604496031"><ele>171.0</ele><time>2026-04-29T09:02:17.049Z</time></trkpt><trkpt lat="40.110964596651094" lon="8.91832534359915"><ele>169.25</ele><time>2026-04-29T09:02:18.049Z</time></trkpt><trkpt lat="40.111060752688516" lon="8.918225692199835"><ele>167.5</ele><time>2026-04-29T09:02:19.049Z</time></trkpt><trkpt lat="40.111140489474884" lon="8.91809539838277"><ele>165.75</ele><time>2026-04-29T09:02:20.049Z</time></trkpt><trkpt lat="40.11119412407094" lon="8.917950781494111"><ele>164.0</ele><time>2026-04-29T09:02:21.049Z</time></trkpt><trkpt lat="40.11123344286375" lon="8.917802377273706"><ele>164.0</ele><time>2026-04-29T09:02:22.049Z</time></trkpt><trkpt lat="40.11126442533874" lon="8.91765099748672"><ele>164.0</ele><time>2026-04-29T09:02:23.049Z</time></trkpt><trkpt lat="40.11129408061487" lon="8.917500406396245"><ele>164.0</ele><time>2026-04-29T09:02:24.049Z</time></trkpt><trkpt lat="40.1113278616575" lon="8.917355927330416"><ele>164.0</ele><time>2026-04-29T09:02:25.049Z</time></trkpt><trkpt lat="40.11135501783915" lon="8.917216726828967"><ele>165.0</ele><time>2026-04-29T09:02:26.049Z</time></trkpt><trkpt lat="40.111386654257934" lon="8.917081123571258"><ele>166.0</ele><time>2026-04-29T09:02:27.049Z</time></trkpt><trkpt lat="40.111415532125505" lon="8.916948976250362"><ele>167.0</ele><time>2026-04-29T09:02:28.048Z</time></trkpt><trkpt lat="40.111444997555715" lon="8.916823730188261"><ele>168.0</ele><time>2026-04-29T09:02:29.048Z</time></trkpt><trkpt lat="40.11147802811152" lon="8.91669765346798"><ele>169.0</ele><time>2026-04-29T09:02:30.048Z</time></trkpt><trkpt lat="40.111506728633735" lon="8.916568607946699"><ele>169.0</ele><time>2026-04-29T09:02:31.048Z</time></trkpt><trkpt lat="40.11153472164455" lon="8.916445271719365"><ele>169.0</ele><time>2026-04-29T09:02:32.048Z</time></trkpt><trkpt lat="40.11156788792825" lon="8.916326301833589"><ele>169.0</ele><time>2026-04-29T09:02:33.048Z</time></trkpt><trkpt lat="40.11159372390011" lon="8.916221305960583"><ele>169.0</ele><time>2026-04-29T09:02:34.048Z</time></trkpt><trkpt lat="40.111616389337435" lon="8.916117454356778"><ele>169.0</ele><time>2026-04-29T09:02:35.048Z</time></trkpt><trkpt lat="40.11163816447823" lon="8.916026791661363"><ele>169.0</ele><time>2026-04-29T09:02:36.048Z</time></trkpt><trkpt lat="40.11167516238753" lon="8.915898402642243"><ele>166.16666666666669</ele><time>2026-04-29T09:02:38.048Z</time></trkpt><trkpt lat="40.111697910282814" lon="8.915803024333057"><ele>163.33333333333334</ele><time>2026-04-29T09:02:40.048Z</time></trkpt><trkpt lat="40.1117145070212" lon="8.915703289621757"><ele>160.5</ele><time>2026-04-29T09:02:43.048Z</time></trkpt><trkpt lat="40.111730358490036" lon="8.91558604066172"><ele>157.66666666666666</ele><time>2026-04-29T09:02:46.048Z</time></trkpt><trkpt lat="40.11174916178651" lon="8.915492064598823"><ele>154.83333333333331</ele><time>2026-04-29T09:02:49.048Z</time></trkpt><trkpt lat="40.111765434019894" lon="8.915407565475666"><ele>152.0</ele><time>2026-04-29T09:02:51.048Z</time></trkpt><trkpt lat="40.11178586542559" lon="8.915277782852598"><ele>152.0</ele><time>2026-04-29T09:02:53.048Z</time></trkpt><trkpt lat="40.11178555790221" lon="8.915185976497126"><ele>152.0</ele><time>2026-04-29T09:02:54.048Z</time></trkpt><trkpt lat="40.11178770060446" lon="8.915069416657984"><ele>152.0</ele><time>2026-04-29T09:02:55.048Z</time></trkpt><trkpt lat="40.11178094448779" lon="8.914932722398905"><ele>152.0</ele><time>2026-04-29T09:02:56.048Z</time></trkpt><trkpt lat="40.111767223601156" lon="8.914800930040128"><ele>152.0</ele><time>2026-04-29T09:02:57.048Z</time></trkpt><trkpt lat="40.111742475643894" lon="8.914668247768883"><ele>154.0</ele><time>2026-04-29T09:02:58.048Z</time></trkpt><trkpt lat="40.11170239606464" lon="8.914521790129092"><ele>156.0</ele><time>2026-04-29T09:02:59.048Z</time></trkpt><trkpt lat="40.11164500186918" lon="8.914370307791113"><ele>158.0</ele><time>2026-04-29T09:03:00.048Z</time></trkpt><trkpt lat="40.11156948077083" lon="8.914215495281478"><ele>160.0</ele><time>2026-04-29T09:03:01.048Z</time></trkpt><trkpt lat="40.11147652671419" lon="8.914064981868496"><ele>163.33333333333334</ele><time>2026-04-29T09:03:02.048Z</time></trkpt><trkpt lat="40.111366088738585" lon="8.913933597909011"><ele>166.66666666666666</ele><time>2026-04-29T09:03:03.048Z</time></trkpt><trkpt lat="40.11123323079048" lon="8.913820610490221"><ele>170.0</ele><time>2026-04-29T09:03:04.048Z</time></trkpt><trkpt lat="40.11108823864857" lon="8.913725571215958"><ele>170.0</ele><time>2026-04-29T09:03:05.048Z</time></trkpt><trkpt lat="40.11091682443477" lon="8.913651333340777"><ele>170.0</ele><time>2026-04-29T09:03:06.048Z</time></trkpt><trkpt lat="40.11073889990547" lon="8.913620609088053"><ele>170.0</ele><time>2026-04-29T09:03:07.048Z</time></trkpt><trkpt lat="40.11054689055356" lon="8.91362683459375"><ele>169.66666666666666</ele><time>2026-04-29T09:03:08.048Z</time></trkpt><trkpt lat="40.11034829495651" lon="8.913670099053123"><ele>169.33333333333334</ele><time>2026-04-29T09:03:09.048Z</time></trkpt><trkpt lat="40.11014323177293" lon="8.913729311128423"><ele>169.0</ele><time>2026-04-29T09:03:10.048Z</time></trkpt><trkpt lat="40.109938487342745" lon="8.91379864954462"><ele>166.33333333333334</ele><time>2026-04-29T09:03:11.048Z</time></trkpt><trkpt lat="40.10971891059952" lon="8.913852508039103"><ele>163.66666666666666</ele><time>2026-04-29T09:03:12.048Z</time></trkpt><trkpt lat="40.1094977428638" lon="8.91390749264322"><ele>161.0</ele><time>2026-04-29T09:03:13.048Z</time></trkpt><trkpt lat="40.109272218387794" lon="8.913970085596956"><ele>158.5</ele><time>2026-04-29T09:03:14.048Z</time></trkpt><trkpt lat="40.109040668062065" lon="8.914032482162892"><ele>156.0</ele><time>2026-04-29T09:03:15.048Z</time></trkpt><trkpt lat="40.108808755716915" lon="8.914102902959858"><ele>156.0</ele><time>2026-04-29T09:03:16.048Z</time></trkpt><trkpt lat="40.10857716806086" lon="8.914169458155383"><ele>156.0</ele><time>2026-04-29T09:03:17.048Z</time></trkpt><trkpt lat="40.10836597594645" lon="8.914226620947915"><ele>156.33333333333334</ele><time>2026-04-29T09:03:18.048Z</time></trkpt><trkpt lat="40.108166633440106" lon="8.914275196550543"><ele>156.66666666666669</ele><time>2026-04-29T09:03:19.048Z</time></trkpt><trkpt lat="40.10797448552348" lon="8.914270115182912"><ele>157.0</ele><time>2026-04-29T09:03:20.048Z</time></trkpt><trkpt lat="40.107796536502036" lon="8.914217853516552"><ele>157.0</ele><time>2026-04-29T09:03:21.048Z</time></trkpt><trkpt lat="40.107631095244095" lon="8.914135264130541"><ele>157.0</ele><time>2026-04-29T09:03:22.048Z</time></trkpt><trkpt lat="40.107480312423284" lon="8.9140331965899"><ele>157.0</ele><time>2026-04-29T09:03:23.048Z</time></trkpt><trkpt lat="40.10733524822778" lon="8.913902770247422"><ele>163.66666666666669</ele><time>2026-04-29T09:03:24.048Z</time></trkpt><trkpt lat="40.10720664937194" lon="8.913732698088193"><ele>170.33333333333334</ele><time>2026-04-29T09:03:25.048Z</time></trkpt><trkpt lat="40.10709866901777" lon="8.913536412578413"><ele>177.0</ele><time>2026-04-29T09:03:26.048Z</time></trkpt><trkpt lat="40.10701701841135" lon="8.91332423038222"><ele>177.66666666666666</ele><time>2026-04-29T09:03:27.048Z</time></trkpt><trkpt lat="40.10696214314668" lon="8.913097177217837"><ele>178.33333333333331</ele><time>2026-04-29T09:03:28.048Z</time></trkpt><trkpt lat="40.10693934169902" lon="8.912845747536416"><ele>179.0</ele><time>2026-04-29T09:03:29.048Z</time></trkpt><trkpt lat="40.10692641410341" lon="8.912572326131407"><ele>177.33333333333331</ele><time>2026-04-29T09:03:30.048Z</time></trkpt><trkpt lat="40.10691045546885" lon="8.912300314328894"><ele>175.66666666666666</ele><time>2026-04-29T09:03:31.048Z</time></trkpt><trkpt lat="40.10688649559887" lon="8.912032234693003"><ele>174.0</ele><time>2026-04-29T09:03:32.048Z</time></trkpt><trkpt lat="40.10686246716405" lon="8.911799258013952"><ele>172.33333333333334</ele><time>2026-04-29T09:03:33.048Z</time></trkpt><trkpt lat="40.10685224214427" lon="8.911579542164393"><ele>170.66666666666669</ele><time>2026-04-29T09:03:34.048Z</time></trkpt><trkpt lat="40.106834275783065" lon="8.911367876554277"><ele>169.0</ele><time>2026-04-29T09:03:35.048Z</time></trkpt><trkpt lat="40.10679422671085" lon="8.911172636950043"><ele>169.0</ele><time>2026-04-29T09:03:36.048Z</time></trkpt><trkpt lat="40.106713772079225" lon="8.9109922442439"><ele>169.0</ele><time>2026-04-29T09:03:37.048Z</time></trkpt><trkpt lat="40.10660735392526" lon="8.910827897612975"><ele>169.0</ele><time>2026-04-29T09:03:38.048Z</time></trkpt><trkpt lat="40.10647501615034" lon="8.910696097918873"><ele>168.66666666666669</ele><time>2026-04-29T09:03:39.048Z</time></trkpt><trkpt lat="40.10631683931142" lon="8.910602975243712"><ele>168.33333333333334</ele><time>2026-04-29T09:03:40.048Z</time></trkpt><trkpt lat="40.10614834203723" lon="8.910522852206856"><ele>168.0</ele><time>2026-04-29T09:03:41.048Z</time></trkpt><trkpt lat="40.10597599888761" lon="8.91050284623005"><ele>168.0</ele><time>2026-04-29T09:03:42.048Z</time></trkpt><trkpt lat="40.10578637551229" lon="8.910515525393441"><ele>168.0</ele><time>2026-04-29T09:03:43.048Z</time></trkpt><trkpt lat="40.10560833302017" lon="8.91053280808674"><ele>168.0</ele><time>2026-04-29T09:03:44.048Z</time></trkpt><trkpt lat="40.105422821701296" lon="8.910503776150062"><ele>167.66666666666666</ele><time>2026-04-29T09:03:45.048Z</time></trkpt><trkpt lat="40.10524066255225" lon="8.910447260828082"><ele>167.33333333333331</ele><time>2026-04-29T09:03:46.048Z</time></trkpt><trkpt lat="40.10505741425741" lon="8.910360745988877"><ele>167.0</ele><time>2026-04-29T09:03:47.048Z</time></trkpt><trkpt lat="40.104884292803" lon="8.910235008558594"><ele>167.66666666666666</ele><time>2026-04-29T09:03:48.048Z</time></trkpt><trkpt lat="40.10473080640313" lon="8.910081853766703"><ele>168.33333333333334</ele><time>2026-04-29T09:03:49.048Z</time></trkpt><trkpt lat="40.10459188148923" lon="8.909897084836366"><ele>169.0</ele><time>2026-04-29T09:03:50.048Z</time></trkpt><trkpt lat="40.10447837701366" lon="8.909689207830107"><ele>169.0</ele><time>2026-04-29T09:03:51.048Z</time></trkpt><trkpt lat="40.104388136312565" lon="8.909452098773844"><ele>169.0</ele><time>2026-04-29T09:03:52.048Z</time></trkpt><trkpt lat="40.104321294484464" lon="8.909201375107832"><ele>169.0</ele><time>2026-04-29T09:03:53.048Z</time></trkpt><trkpt lat="40.104280431124764" lon="8.908929442605606"><ele>166.33333333333334</ele><time>2026-04-29T09:03:54.048Z</time></trkpt><trkpt lat="40.10426931422409" lon="8.908653521055175"><ele>163.66666666666666</ele><time>2026-04-29T09:03:55.048Z</time></trkpt><trkpt lat="40.104271486147404" lon="8.9083783025675"><ele>161.0</ele><time>2026-04-29T09:03:56.048Z</time></trkpt><trkpt lat="40.10429268967489" lon="8.908089732399581"><ele>157.66666666666666</ele><time>2026-04-29T09:03:57.048Z</time></trkpt><trkpt lat="40.10431074682367" lon="8.907800336538415"><ele>154.33333333333334</ele><time>2026-04-29T09:03:58.048Z</time></trkpt><trkpt lat="40.104322835313305" lon="8.90751269927702"><ele>151.0</ele><time>2026-04-29T09:03:59.048Z</time></trkpt><trkpt lat="40.104339122356116" lon="8.907223476276199"><ele>150.33333333333334</ele><time>2026-04-29T09:04:00.048Z</time></trkpt><trkpt lat="40.1043496872991" lon="8.906940427196233"><ele>149.66666666666666</ele><time>2026-04-29T09:04:01.048Z</time></trkpt><trkpt lat="40.104361749552744" lon="8.90666325473296"><ele>149.0</ele><time>2026-04-29T09:04:02.048Z</time></trkpt><trkpt lat="40.10437349660017" lon="8.906390102712509"><ele>151.0</ele><time>2026-04-29T09:04:03.048Z</time></trkpt><trkpt lat="40.10438269053649" lon="8.90612321685604"><ele>153.0</ele><time>2026-04-29T09:04:04.048Z</time></trkpt><trkpt lat="40.10439900993495" lon="8.905868624583778"><ele>155.0</ele><time>2026-04-29T09:04:05.048Z</time></trkpt><trkpt lat="40.10440424871461" lon="8.905624219830974"><ele>154.66666666666666</ele><time>2026-04-29T09:04:06.048Z</time></trkpt><trkpt lat="40.10441407578516" lon="8.905381561400887"><ele>154.33333333333334</ele><time>2026-04-29T09:04:07.048Z</time></trkpt><trkpt lat="40.10439330405586" lon="8.905135471269432"><ele>154.0</ele><time>2026-04-29T09:04:08.048Z</time></trkpt><trkpt lat="40.10433803681601" lon="8.904900257487855"><ele>154.0</ele><time>2026-04-29T09:04:09.048Z</time></trkpt><trkpt lat="40.10426716114337" lon="8.904664234323446"><ele>154.0</ele><time>2026-04-29T09:04:10.048Z</time></trkpt><trkpt lat="40.10419058440471" lon="8.9044246783585"><ele>154.0</ele><time>2026-04-29T09:04:11.05Z</time></trkpt><trkpt lat="40.10411123048332" lon="8.904191319173373"><ele>157.66666666666669</ele><time>2026-04-29T09:04:12.05Z</time></trkpt><trkpt lat="40.1040361166127" lon="8.903951541136692"><ele>161.33333333333334</ele><time>2026-04-29T09:04:13.05Z</time></trkpt><trkpt lat="40.103968849744426" lon="8.903706895188575"><ele>165.0</ele><time>2026-04-29T09:04:14.05Z</time></trkpt><trkpt lat="40.103894069002095" lon="8.90345925294342"><ele>162.0</ele><time>2026-04-29T09:04:15.05Z</time></trkpt><trkpt lat="40.10382427024789" lon="8.903220859552828"><ele>159.0</ele><time>2026-04-29T09:04:16.05Z</time></trkpt><trkpt lat="40.10374826124985" lon="8.902983566824046"><ele>156.0</ele><time>2026-04-29T09:04:17.05Z</time></trkpt><trkpt lat="40.10367656348063" lon="8.90274721716539"><ele>153.0</ele><time>2026-04-29T09:04:18.05Z</time></trkpt><trkpt lat="40.10361094332277" lon="8.902503947142158"><ele>150.0</ele><time>2026-04-29T09:04:19.05Z</time></trkpt><trkpt lat="40.103575926033116" lon="8.90224180671329"><ele>147.0</ele><time>2026-04-29T09:04:20.05Z</time></trkpt><trkpt lat="40.10356229355582" lon="8.901988340634173"><ele>144.66666666666666</ele><time>2026-04-29T09:04:21.05Z</time></trkpt><trkpt lat="40.103561157861826" lon="8.901727817563073"><ele>142.33333333333331</ele><time>2026-04-29T09:04:22.05Z</time></trkpt><trkpt lat="40.10357669711117" lon="8.901467729080531"><ele>140.0</ele><time>2026-04-29T09:04:23.05Z</time></trkpt><trkpt lat="40.10361056388913" lon="8.901212864390297"><ele>140.0</ele><time>2026-04-29T09:04:24.05Z</time></trkpt><trkpt lat="40.103663280650586" lon="8.9009595768945"><ele>140.0</ele><time>2026-04-29T09:04:25.05Z</time></trkpt><trkpt lat="40.10373771009069" lon="8.900714538965948"><ele>140.0</ele><time>2026-04-29T09:04:26.05Z</time></trkpt><trkpt lat="40.10382872311069" lon="8.900482057441037"><ele>137.66666666666666</ele><time>2026-04-29T09:04:27.05Z</time></trkpt><trkpt lat="40.1039283226326" lon="8.90025626159658"><ele>135.33333333333334</ele><time>2026-04-29T09:04:28.05Z</time></trkpt><trkpt lat="40.10403634227162" lon="8.900025702322463"><ele>133.0</ele><time>2026-04-29T09:04:29.05Z</time></trkpt><trkpt lat="40.10414918228421" lon="8.899788971167938"><ele>131.0</ele><time>2026-04-29T09:04:30.05Z</time></trkpt><trkpt lat="40.10426094663119" lon="8.899564372184074"><ele>129.0</ele><time>2026-04-29T09:04:31.05Z</time></trkpt><trkpt lat="40.104376962540314" lon="8.899328189101245"><ele>127.0</ele><time>2026-04-29T09:04:32.05Z</time></trkpt><trkpt lat="40.10449281131982" lon="8.899087987082602"><ele>127.0</ele><time>2026-04-29T09:04:33.05Z</time></trkpt><trkpt lat="40.104614186556354" lon="8.898848313517702"><ele>127.0</ele><time>2026-04-29T09:04:34.05Z</time></trkpt><trkpt lat="40.10473283795919" lon="8.898607225835226"><ele>127.0</ele><time>2026-04-29T09:04:35.05Z</time></trkpt><trkpt lat="40.1048428568051" lon="8.898360729147514"><ele>127.66666666666667</ele><time>2026-04-29T09:04:36.05Z</time></trkpt><trkpt lat="40.104953079931704" lon="8.898115416676173"><ele>128.33333333333334</ele><time>2026-04-29T09:04:37.05Z</time></trkpt><trkpt lat="40.10506923176335" lon="8.897872598496361"><ele>129.0</ele><time>2026-04-29T09:04:38.05Z</time></trkpt><trkpt lat="40.105192753205884" lon="8.897639731325086"><ele>128.33333333333334</ele><time>2026-04-29T09:04:39.05Z</time></trkpt><trkpt lat="40.105319266306935" lon="8.897415900031145"><ele>127.66666666666667</ele><time>2026-04-29T09:04:40.05Z</time></trkpt><trkpt lat="40.10544257945294" lon="8.897189321707325"><ele>127.0</ele><time>2026-04-29T09:04:41.05Z</time></trkpt><trkpt lat="40.10557039078967" lon="8.896970729185645"><ele>127.0</ele><time>2026-04-29T09:04:42.05Z</time></trkpt><trkpt lat="40.10569326815869" lon="8.896757900045593"><ele>127.0</ele><time>2026-04-29T09:04:43.05Z</time></trkpt><trkpt lat="40.10581819581044" lon="8.896550097979894"><ele>127.0</ele><time>2026-04-29T09:04:44.05Z</time></trkpt><trkpt lat="40.105937351090255" lon="8.896339458462725"><ele>125.0</ele><time>2026-04-29T09:04:45.05Z</time></trkpt><trkpt lat="40.106069787480415" lon="8.896127107641101"><ele>123.0</ele><time>2026-04-29T09:04:46.05Z</time></trkpt><trkpt lat="40.10618482985754" lon="8.895922749219848"><ele>121.0</ele><time>2026-04-29T09:04:47.05Z</time></trkpt><trkpt lat="40.1063073848074" lon="8.895708344429043"><ele>117.33333333333334</ele><time>2026-04-29T09:04:48.05Z</time></trkpt><trkpt lat="40.10642323455866" lon="8.895492949153788"><ele>113.66666666666666</ele><time>2026-04-29T09:04:49.05Z</time></trkpt><trkpt lat="40.10653880787404" lon="8.895283334459181"><ele>110.0</ele><time>2026-04-29T09:04:50.05Z</time></trkpt><trkpt lat="40.106657229986546" lon="8.895073789603085"><ele>104.0</ele><time>2026-04-29T09:04:51.05Z</time></trkpt><trkpt lat="40.106778490772584" lon="8.894862023976591"><ele>98.0</ele><time>2026-04-29T09:04:52.05Z</time></trkpt><trkpt lat="40.10689503775162" lon="8.8946596465056"><ele>92.0</ele><time>2026-04-29T09:04:53.05Z</time></trkpt><trkpt lat="40.107011492933076" lon="8.894457541576852"><ele>92.33333333333334</ele><time>2026-04-29T09:04:54.05Z</time></trkpt><trkpt lat="40.10712883175215" lon="8.894253690573581"><ele>92.66666666666667</ele><time>2026-04-29T09:04:55.05Z</time></trkpt><trkpt lat="40.10724534250578" lon="8.894048366830976"><ele>93.0</ele><time>2026-04-29T09:04:56.05Z</time></trkpt><trkpt lat="40.107362658001826" lon="8.893848718355992"><ele>92.66666666666667</ele><time>2026-04-29T09:04:57.05Z</time></trkpt><trkpt lat="40.10747814099833" lon="8.893652869884905"><ele>92.33333333333334</ele><time>2026-04-29T09:04:58.05Z</time></trkpt><trkpt lat="40.107592497048174" lon="8.893451874854824"><ele>92.0</ele><time>2026-04-29T09:04:59.05Z</time></trkpt><trkpt lat="40.10770462313411" lon="8.893255316239468"><ele>96.33333333333334</ele><time>2026-04-29T09:05:00.05Z</time></trkpt><trkpt lat="40.10781982561254" lon="8.893055145728537"><ele>100.66666666666667</ele><time>2026-04-29T09:05:01.05Z</time></trkpt><trkpt lat="40.1079367146371" lon="8.892854613751641"><ele>105.0</ele><time>2026-04-29T09:05:02.05Z</time></trkpt><trkpt lat="40.10805552579037" lon="8.892651398538888"><ele>108.0</ele><time>2026-04-29T09:05:03.05Z</time></trkpt><trkpt lat="40.10817521598422" lon="8.892450087170106"><ele>111.0</ele><time>2026-04-29T09:05:04.05Z</time></trkpt><trkpt lat="40.108293165736804" lon="8.89225100850749"><ele>114.0</ele><time>2026-04-29T09:05:05.05Z</time></trkpt><trkpt lat="40.10841497240132" lon="8.892044461532263"><ele>117.66666666666666</ele><time>2026-04-29T09:05:06.05Z</time></trkpt><trkpt lat="40.10852301535019" lon="8.891827462447463"><ele>121.33333333333333</ele><time>2026-04-29T09:05:07.05Z</time></trkpt><trkpt lat="40.108613037838" lon="8.891598440970748"><ele>125.0</ele><time>2026-04-29T09:05:08.05Z</time></trkpt><trkpt lat="40.10867509570443" lon="8.891354977403056"><ele>126.0</ele><time>2026-04-29T09:05:09.05Z</time></trkpt><trkpt lat="40.10869837947884" lon="8.891103909488885"><ele>127.0</ele><time>2026-04-29T09:05:10.05Z</time></trkpt><trkpt lat="40.10869510522403" lon="8.890840297466719"><ele>128.0</ele><time>2026-04-29T09:05:11.05Z</time></trkpt><trkpt lat="40.10866978453722" lon="8.890575824299733"><ele>129.0</ele><time>2026-04-29T09:05:12.05Z</time></trkpt><trkpt lat="40.1086330367952" lon="8.89031088575105"><ele>130.0</ele><time>2026-04-29T09:05:13.05Z</time></trkpt><trkpt lat="40.10859437070873" lon="8.8900471960057"><ele>131.0</ele><time>2026-04-29T09:05:14.05Z</time></trkpt><trkpt lat="40.1085375442451" lon="8.889794445559826"><ele>131.66666666666666</ele><time>2026-04-29T09:05:15.05Z</time></trkpt><trkpt lat="40.10845366393265" lon="8.889561260605571"><ele>132.33333333333334</ele><time>2026-04-29T09:05:16.05Z</time></trkpt><trkpt lat="40.108347586405976" lon="8.889342310476872"><ele>133.0</ele><time>2026-04-29T09:05:17.05Z</time></trkpt><trkpt lat="40.10822909370508" lon="8.88912950710547"><ele>129.0</ele><time>2026-04-29T09:05:18.05Z</time></trkpt><trkpt lat="40.10810982846258" lon="8.888912057361939"><ele>125.0</ele><time>2026-04-29T09:05:19.05Z</time></trkpt><trkpt lat="40.10800060141734" lon="8.888693271114608"><ele>121.0</ele><time>2026-04-29T09:05:20.05Z</time></trkpt><trkpt lat="40.10789163370356" lon="8.888481691693752"><ele>122.33333333333334</ele><time>2026-04-29T09:05:21.05Z</time></trkpt><trkpt lat="40.10777822017369" lon="8.888273743482621"><ele>123.66666666666666</ele><time>2026-04-29T09:05:22.05Z</time></trkpt><trkpt lat="40.10767281992846" lon="8.88805591102425"><ele>125.0</ele><time>2026-04-29T09:05:23.05Z</time></trkpt><trkpt lat="40.10757455482313" lon="8.887832865237598"><ele>125.0</ele><time>2026-04-29T09:05:24.05Z</time></trkpt><trkpt lat="40.10749649312289" lon="8.887600687310483"><ele>125.0</ele><time>2026-04-29T09:05:25.05Z</time></trkpt><trkpt lat="40.10744732311919" lon="8.88735543586103"><ele>125.0</ele><time>2026-04-29T09:05:26.05Z</time></trkpt><trkpt lat="40.10739366250167" lon="8.887112178356661"><ele>130.33333333333331</ele><time>2026-04-29T09:05:27.05Z</time></trkpt><trkpt lat="40.10733297734047" lon="8.886872104493836"><ele>135.66666666666666</ele><time>2026-04-29T09:05:28.05Z</time></trkpt><trkpt lat="40.10727443305379" lon="8.8866309307387"><ele>141.0</ele><time>2026-04-29T09:05:29.05Z</time></trkpt><trkpt lat="40.107235582417665" lon="8.886398271548636"><ele>144.33333333333334</ele><time>2026-04-29T09:05:30.05Z</time></trkpt><trkpt lat="40.1072203015543" lon="8.886183324265042"><ele>147.66666666666669</ele><time>2026-04-29T09:05:31.05Z</time></trkpt><trkpt lat="40.10724880392038" lon="8.885977490807333"><ele>151.0</ele><time>2026-04-29T09:05:32.05Z</time></trkpt><trkpt lat="40.107313570354414" lon="8.885790104570379"><ele>151.66666666666669</ele><time>2026-04-29T09:05:33.05Z</time></trkpt><trkpt lat="40.10740806204504" lon="8.885629665154609"><ele>152.33333333333334</ele><time>2026-04-29T09:05:34.05Z</time></trkpt><trkpt lat="40.107520768901686" lon="8.885495216073336"><ele>153.0</ele><time>2026-04-29T09:05:35.05Z</time></trkpt><trkpt lat="40.10765445922565" lon="8.885410080734115"><ele>151.33333333333334</ele><time>2026-04-29T09:05:36.05Z</time></trkpt><trkpt lat="40.1077985000052" lon="8.885351874915909"><ele>149.66666666666669</ele><time>2026-04-29T09:05:37.05Z</time></trkpt><trkpt lat="40.10794867742164" lon="8.885331548494584"><ele>148.0</ele><time>2026-04-29T09:05:38.05Z</time></trkpt><trkpt lat="40.10809960221685" lon="8.885358244388424"><ele>148.0</ele><time>2026-04-29T09:05:39.05Z</time></trkpt><trkpt lat="40.108238559992756" lon="8.885432016414708"><ele>148.0</ele><time>2026-04-29T09:05:40.05Z</time></trkpt><trkpt lat="40.10836877737829" lon="8.885536847119011"><ele>148.0</ele><time>2026-04-29T09:05:41.05Z</time></trkpt><trkpt lat="40.108478773438186" lon="8.885676938240161"><ele>148.33333333333334</ele><time>2026-04-29T09:05:42.05Z</time></trkpt><trkpt lat="40.108578905980735" lon="8.885842012166718"><ele>148.66666666666666</ele><time>2026-04-29T09:05:43.05Z</time></trkpt><trkpt lat="40.10868251112415" lon="8.886015293782215"><ele>149.0</ele><time>2026-04-29T09:05:44.05Z</time></trkpt><trkpt lat="40.10879092318928" lon="8.886184157804886"><ele>149.0</ele><time>2026-04-29T09:05:45.05Z</time></trkpt><trkpt lat="40.10890325086872" lon="8.886358867376869"><ele>149.0</ele><time>2026-04-29T09:05:46.05Z</time></trkpt><trkpt lat="40.10901376916213" lon="8.88653159780823"><ele>149.0</ele><time>2026-04-29T09:05:47.05Z</time></trkpt><trkpt lat="40.109130718159726" lon="8.886689639578336"><ele>152.33333333333331</ele><time>2026-04-29T09:05:48.05Z</time></trkpt><trkpt lat="40.10926755404901" lon="8.886828033419071"><ele>155.66666666666666</ele><time>2026-04-29T09:05:49.05Z</time></trkpt><trkpt lat="40.10942013404266" lon="8.886931578929705"><ele>159.0</ele><time>2026-04-29T09:05:50.05Z</time></trkpt><trkpt lat="40.10958401252386" lon="8.886994234323778"><ele>159.0</ele><time>2026-04-29T09:05:51.05Z</time></trkpt><trkpt lat="40.109759970275356" lon="8.887024543186174"><ele>159.0</ele><time>2026-04-29T09:05:52.05Z</time></trkpt><trkpt lat="40.10994382514816" lon="8.88703604926892"><ele>159.0</ele><time>2026-04-29T09:05:53.05Z</time></trkpt><trkpt lat="40.11012826557317" lon="8.887039530708844"><ele>160.66666666666666</ele><time>2026-04-29T09:05:54.05Z</time></trkpt><trkpt lat="40.11031863827701" lon="8.887046860455763"><ele>162.33333333333331</ele><time>2026-04-29T09:05:55.05Z</time></trkpt><trkpt lat="40.11051498860616" lon="8.887059775883673"><ele>164.0</ele><time>2026-04-29T09:05:56.05Z</time></trkpt><trkpt lat="40.11071147207622" lon="8.887079312549922"><ele>165.0</ele><time>2026-04-29T09:05:57.05Z</time></trkpt><trkpt lat="40.11090267655648" lon="8.887093542540066"><ele>166.0</ele><time>2026-04-29T09:05:58.05Z</time></trkpt><trkpt lat="40.111076381350465" lon="8.887101702498224"><ele>167.0</ele><time>2026-04-29T09:05:59.05Z</time></trkpt><trkpt lat="40.111229335347566" lon="8.887087384931242"><ele>167.0</ele><time>2026-04-29T09:06:00.05Z</time></trkpt><trkpt lat="40.11136841395468" lon="8.887026695323193"><ele>167.0</ele><time>2026-04-29T09:06:01.05Z</time></trkpt><trkpt lat="40.11148947934948" lon="8.886917340329902"><ele>167.0</ele><time>2026-04-29T09:06:02.05Z</time></trkpt><trkpt lat="40.11158835953453" lon="8.886762118802947"><ele>167.0</ele><time>2026-04-29T09:06:03.05Z</time></trkpt><trkpt lat="40.111647490313565" lon="8.886579861250226"><ele>168.0</ele><time>2026-04-29T09:06:04.05Z</time></trkpt><trkpt lat="40.111648745849905" lon="8.88639414671466"><ele>169.0</ele><time>2026-04-29T09:06:05.05Z</time></trkpt><trkpt lat="40.111612003560936" lon="8.88622188922815"><ele>170.0</ele><time>2026-04-29T09:06:06.05Z</time></trkpt><trkpt lat="40.111551132857535" lon="8.886069330002332"><ele>171.0</ele><time>2026-04-29T09:06:07.05Z</time></trkpt><trkpt lat="40.111474308056266" lon="8.885936922505492"><ele>172.0</ele><time>2026-04-29T09:06:08.05Z</time></trkpt><trkpt lat="40.11139649856285" lon="8.885811744657037"><ele>173.0</ele><time>2026-04-29T09:06:09.05Z</time></trkpt><trkpt lat="40.111326437612156" lon="8.885685752372869"><ele>174.0</ele><time>2026-04-29T09:06:10.05Z</time></trkpt><trkpt lat="40.11126594996403" lon="8.885569943322343"><ele>175.0</ele><time>2026-04-29T09:06:11.05Z</time></trkpt><trkpt lat="40.11120943522359" lon="8.885459016067074"><ele>175.0</ele><time>2026-04-29T09:06:12.05Z</time></trkpt><trkpt lat="40.11114959019891" lon="8.885352730493413"><ele>175.0</ele><time>2026-04-29T09:06:13.05Z</time></trkpt><trkpt lat="40.11108621883952" lon="8.885248972254956"><ele>175.0</ele><time>2026-04-29T09:06:14.05Z</time></trkpt><trkpt lat="40.1110178591007" lon="8.885155972203647"><ele>175.0</ele><time>2026-04-29T09:06:15.05Z</time></trkpt><trkpt lat="40.110941949183065" lon="8.885073535109392"><ele>175.0</ele><time>2026-04-29T09:06:16.05Z</time></trkpt><trkpt lat="40.110866737033426" lon="8.885006457888863"><ele>175.83333333333334</ele><time>2026-04-29T09:06:17.051Z</time></trkpt><trkpt lat="40.110797390322055" lon="8.884944564785382"><ele>176.66666666666669</ele><time>2026-04-29T09:06:18.05Z</time></trkpt><trkpt lat="40.110733035583166" lon="8.884895582838062"><ele>177.5</ele><time>2026-04-29T09:06:19.05Z</time></trkpt><trkpt lat="40.11067521876236" lon="8.884845654317772"><ele>178.33333333333334</ele><time>2026-04-29T09:06:20.051Z</time></trkpt><trkpt lat="40.110611904172636" lon="8.884792773334214"><ele>179.16666666666666</ele><time>2026-04-29T09:06:21.051Z</time></trkpt><trkpt lat="40.110546365312004" lon="8.88474469773987"><ele>180.0</ele><time>2026-04-29T09:06:22.051Z</time></trkpt><trkpt lat="40.11047537665805" lon="8.884696792001845"><ele>180.0</ele><time>2026-04-29T09:06:23.051Z</time></trkpt><trkpt lat="40.11040293892601" lon="8.884641412362514"><ele>180.0</ele><time>2026-04-29T09:06:24.051Z</time></trkpt><trkpt lat="40.11033596960934" lon="8.884576833035117"><ele>180.0</ele><time>2026-04-29T09:06:25.051Z</time></trkpt><trkpt lat="40.11027262084869" lon="8.884505967715121"><ele>180.0</ele><time>2026-04-29T09:06:26.051Z</time></trkpt><trkpt lat="40.110210702023075" lon="8.884426375132254"><ele>180.0</ele><time>2026-04-29T09:06:27.051Z</time></trkpt><trkpt lat="40.1101484293214" lon="8.884345331466092"><ele>180.0</ele><time>2026-04-29T09:06:28.051Z</time></trkpt><trkpt lat="40.11008032004279" lon="8.88428779376701"><ele>180.16666666666666</ele><time>2026-04-29T09:06:29.051Z</time></trkpt><trkpt lat="40.11001995881495" lon="8.8842185802843"><ele>180.33333333333334</ele><time>2026-04-29T09:06:30.051Z</time></trkpt><trkpt lat="40.109971882273385" lon="8.884138954973837"><ele>180.5</ele><time>2026-04-29T09:06:31.051Z</time></trkpt><trkpt lat="40.10993327925926" lon="8.884043913776734"><ele>180.66666666666669</ele><time>2026-04-29T09:06:32.051Z</time></trkpt><trkpt lat="40.109894030881875" lon="8.883952108092753"><ele>180.83333333333334</ele><time>2026-04-29T09:06:33.051Z</time></trkpt><trkpt lat="40.10986598156238" lon="8.883855288647846"><ele>181.0</ele><time>2026-04-29T09:06:34.051Z</time></trkpt><trkpt lat="40.10983603648862" lon="8.883756606010943"><ele>181.0</ele><time>2026-04-29T09:06:35.051Z</time></trkpt><trkpt lat="40.10980463448033" lon="8.883658651974551"><ele>181.0</ele><time>2026-04-29T09:06:36.051Z</time></trkpt><trkpt lat="40.1097716446399" lon="8.883561217728829"><ele>181.0</ele><time>2026-04-29T09:06:37.051Z</time></trkpt><trkpt lat="40.10976577237201" lon="8.883453645793653"><ele>181.0</ele><time>2026-04-29T09:06:38.051Z</time></trkpt><trkpt lat="40.10977850159815" lon="8.88334441767316"><ele>181.0</ele><time>2026-04-29T09:06:39.051Z</time></trkpt><trkpt lat="40.10979530233937" lon="8.883226201773878"><ele>181.0</ele><time>2026-04-29T09:06:40.051Z</time></trkpt><trkpt lat="40.1098184924672" lon="8.883102052752664"><ele>180.75</ele><time>2026-04-29T09:06:41.051Z</time></trkpt><trkpt lat="40.10985152045469" lon="8.882838351952673"><ele>180.5</ele><time>2026-04-29T09:06:43.051Z</time></trkpt><trkpt lat="40.10986723276983" lon="8.882701969589144"><ele>180.25</ele><time>2026-04-29T09:06:44.051Z</time></trkpt><trkpt lat="40.10986791709434" lon="8.882567156292914"><ele>180.0</ele><time>2026-04-29T09:06:45.051Z</time></trkpt><trkpt lat="40.10983684412741" lon="8.882434476306283"><ele>178.8</ele><time>2026-04-29T09:06:46.051Z</time></trkpt><trkpt lat="40.109796692997236" lon="8.882330261178932"><ele>177.6</ele><time>2026-04-29T09:06:47.051Z</time></trkpt><trkpt lat="40.10975791452963" lon="8.882217885102628"><ele>176.39999999999998</ele><time>2026-04-29T09:06:48.051Z</time></trkpt><trkpt lat="40.1097162201969" lon="8.88210362957516"><ele>175.2</ele><time>2026-04-29T09:06:49.051Z</time></trkpt><trkpt lat="40.10967190556435" lon="8.881987930837722"><ele>174.0</ele><time>2026-04-29T09:06:50.051Z</time></trkpt><trkpt lat="40.10963890664975" lon="8.881869657035647"><ele>174.39999999999998</ele><time>2026-04-29T09:06:51.051Z</time></trkpt><trkpt lat="40.10961322325034" lon="8.881752839425577"><ele>174.8</ele><time>2026-04-29T09:06:52.051Z</time></trkpt><trkpt lat="40.10959360736132" lon="8.881636393914881"><ele>175.2</ele><time>2026-04-29T09:06:53.051Z</time></trkpt><trkpt lat="40.10957303503499" lon="8.881523667199616"><ele>175.60000000000002</ele><time>2026-04-29T09:06:54.051Z</time></trkpt><trkpt lat="40.109556817283995" lon="8.881405638384244"><ele>176.0</ele><time>2026-04-29T09:06:55.051Z</time></trkpt><trkpt lat="40.109539518343695" lon="8.881284573180846"><ele>176.0</ele><time>2026-04-29T09:06:56.051Z</time></trkpt><trkpt lat="40.1095225560128" lon="8.881154193886097"><ele>176.0</ele><time>2026-04-29T09:06:57.051Z</time></trkpt><trkpt lat="40.10950640276768" lon="8.881018311144715"><ele>176.0</ele><time>2026-04-29T09:06:58.051Z</time></trkpt><trkpt lat="40.109488747746845" lon="8.88087939443989"><ele>176.0</ele><time>2026-04-29T09:06:59.051Z</time></trkpt><trkpt lat="40.109474767252344" lon="8.880736375351127"><ele>176.0</ele><time>2026-04-29T09:07:00.051Z</time></trkpt><trkpt lat="40.10948722781135" lon="8.880597703834153"><ele>177.25</ele><time>2026-04-29T09:07:01.051Z</time></trkpt><trkpt lat="40.10952767450079" lon="8.880465313248438"><ele>178.5</ele><time>2026-04-29T09:07:02.051Z</time></trkpt><trkpt lat="40.10959065209197" lon="8.880339208010977"><ele>179.75</ele><time>2026-04-29T09:07:03.051Z</time></trkpt><trkpt lat="40.10967032789514" lon="8.880218499158113"><ele>181.0</ele><time>2026-04-29T09:07:04.051Z</time></trkpt><trkpt lat="40.10976405691685" lon="8.880102301993562"><ele>181.75</ele><time>2026-04-29T09:07:05.051Z</time></trkpt><trkpt lat="40.10986297022249" lon="8.879983925280847"><ele>182.5</ele><time>2026-04-29T09:07:06.051Z</time></trkpt><trkpt lat="40.10995793462767" lon="8.879863301231183"><ele>183.25</ele><time>2026-04-29T09:07:07.051Z</time></trkpt><trkpt lat="40.110041607178275" lon="8.879720534142946"><ele>184.0</ele><time>2026-04-29T09:07:08.051Z</time></trkpt><trkpt lat="40.110104765357946" lon="8.879553656876404"><ele>185.5</ele><time>2026-04-29T09:07:09.051Z</time></trkpt><trkpt lat="40.1101552207874" lon="8.879377149332912"><ele>187.0</ele><time>2026-04-29T09:07:10.051Z</time></trkpt><trkpt lat="40.11021221898395" lon="8.879194849556733"><ele>188.5</ele><time>2026-04-29T09:07:11.051Z</time></trkpt><trkpt lat="40.11027571919606" lon="8.879016824199883"><ele>190.0</ele><time>2026-04-29T09:07:12.051Z</time></trkpt><trkpt lat="40.110351112915396" lon="8.87886593288065"><ele>190.0</ele><time>2026-04-29T09:07:13.051Z</time></trkpt><trkpt lat="40.11045310461204" lon="8.878741884195861"><ele>190.0</ele><time>2026-04-29T09:07:14.051Z</time></trkpt><trkpt lat="40.110576524083" lon="8.87864956915257"><ele>190.0</ele><time>2026-04-29T09:07:15.051Z</time></trkpt><trkpt lat="40.110723667453115" lon="8.878583569648606"><ele>190.0</ele><time>2026-04-29T09:07:16.051Z</time></trkpt><trkpt lat="40.11088229197208" lon="8.878499221891897"><ele>190.66666666666669</ele><time>2026-04-29T09:07:17.051Z</time></trkpt><trkpt lat="40.11104355544732" lon="8.878416770332674"><ele>191.33333333333334</ele><time>2026-04-29T09:07:18.051Z</time></trkpt><trkpt lat="40.111205236563244" lon="8.878304118107959"><ele>192.0</ele><time>2026-04-29T09:07:19.051Z</time></trkpt><trkpt lat="40.11136131867577" lon="8.878177387774564"><ele>192.0</ele><time>2026-04-29T09:07:20.051Z</time></trkpt><trkpt lat="40.11150651212281" lon="8.87806479819373"><ele>192.0</ele><time>2026-04-29T09:07:21.051Z</time></trkpt><trkpt lat="40.11162902407211" lon="8.877966442435046"><ele>192.0</ele><time>2026-04-29T09:07:22.051Z</time></trkpt><trkpt lat="40.11169899215201" lon="8.877820485805188"><ele>192.0</ele><time>2026-04-29T09:07:23.051Z</time></trkpt><trkpt lat="40.11172240655225" lon="8.877635353100233"><ele>188.66666666666666</ele><time>2026-04-29T09:07:24.051Z</time></trkpt><trkpt lat="40.11169395296955" lon="8.877437034832266"><ele>185.33333333333331</ele><time>2026-04-29T09:07:25.051Z</time></trkpt><trkpt lat="40.111620011276926" lon="8.877254814710438"><ele>182.0</ele><time>2026-04-29T09:07:26.051Z</time></trkpt><trkpt lat="40.1115357895815" lon="8.877079276239327"><ele>182.0</ele><time>2026-04-29T09:07:27.051Z</time></trkpt><trkpt lat="40.11147875627743" lon="8.876928697120015"><ele>182.0</ele><time>2026-04-29T09:07:28.051Z</time></trkpt><trkpt lat="40.11148081192363" lon="8.876756337133228"><ele>182.0</ele><time>2026-04-29T09:07:29.051Z</time></trkpt><trkpt lat="40.11151841987121" lon="8.87655883725917"><ele>182.0</ele><time>2026-04-29T09:07:30.051Z</time></trkpt><trkpt lat="40.11157271546934" lon="8.8763621689474"><ele>186.66666666666666</ele><time>2026-04-29T09:07:31.051Z</time></trkpt><trkpt lat="40.11165464914268" lon="8.876183688026527"><ele>191.33333333333331</ele><time>2026-04-29T09:07:32.051Z</time></trkpt><trkpt lat="40.11175816269321" lon="8.876035642673385"><ele>196.0</ele><time>2026-04-29T09:07:33.051Z</time></trkpt><trkpt lat="40.1118918985178" lon="8.87593385571086"><ele>196.0</ele><time>2026-04-29T09:07:34.051Z</time></trkpt><trkpt lat="40.11203431414561" lon="8.875864290050828"><ele>196.0</ele><time>2026-04-29T09:07:35.051Z</time></trkpt><trkpt lat="40.11218719040272" lon="8.87584498168276"><ele>196.0</ele><time>2026-04-29T09:07:36.051Z</time></trkpt><trkpt lat="40.1123159315994" lon="8.875869617991828"><ele>196.0</ele><time>2026-04-29T09:07:37.051Z</time></trkpt><trkpt lat="40.11242778738631" lon="8.875872579961795"><ele>200.5</ele><time>2026-04-29T09:07:38.051Z</time></trkpt><trkpt lat="40.11252786763447" lon="8.87580350987121"><ele>205.0</ele><time>2026-04-29T09:07:39.051Z</time></trkpt><trkpt lat="40.11259551706326" lon="8.875679285340109"><ele>209.5</ele><time>2026-04-29T09:07:40.051Z</time></trkpt><trkpt lat="40.11263797891304" lon="8.875529523280404"><ele>214.0</ele><time>2026-04-29T09:07:41.051Z</time></trkpt><trkpt lat="40.11266642186967" lon="8.875351838501373"><ele>214.0</ele><time>2026-04-29T09:07:42.051Z</time></trkpt><trkpt lat="40.112687837534196" lon="8.875156921876886"><ele>214.0</ele><time>2026-04-29T09:07:43.051Z</time></trkpt><trkpt lat="40.11271025327537" lon="8.87495950381437"><ele>214.0</ele><time>2026-04-29T09:07:44.051Z</time></trkpt><trkpt lat="40.11273065824283" lon="8.874756404005938"><ele>212.0</ele><time>2026-04-29T09:07:45.051Z</time></trkpt><trkpt lat="40.11274979921696" lon="8.87456387816143"><ele>210.0</ele><time>2026-04-29T09:07:46.051Z</time></trkpt><trkpt lat="40.112771027912025" lon="8.874389602101262"><ele>208.0</ele><time>2026-04-29T09:07:47.051Z</time></trkpt><trkpt lat="40.11280496213325" lon="8.874229819565452"><ele>206.0</ele><time>2026-04-29T09:07:48.051Z</time></trkpt><trkpt lat="40.11284432212332" lon="8.874075710339934"><ele>206.0</ele><time>2026-04-29T09:07:49.051Z</time></trkpt><trkpt lat="40.11287140362316" lon="8.8739095167068"><ele>206.0</ele><time>2026-04-29T09:07:50.051Z</time></trkpt><trkpt lat="40.11288472226745" lon="8.873729407951018"><ele>206.0</ele><time>2026-04-29T09:07:51.051Z</time></trkpt><trkpt lat="40.112894298561045" lon="8.8735468200486"><ele>206.0</ele><time>2026-04-29T09:07:52.051Z</time></trkpt><trkpt lat="40.112889828572285" lon="8.87335663307219"><ele>206.0</ele><time>2026-04-29T09:07:53.051Z</time></trkpt><trkpt lat="40.11290815717382" lon="8.873164033738092"><ele>206.0</ele><time>2026-04-29T09:07:54.051Z</time></trkpt><trkpt lat="40.11293475972028" lon="8.872985270882795"><ele>206.0</ele><time>2026-04-29T09:07:55.051Z</time></trkpt><trkpt lat="40.11297327330543" lon="8.87280679608742"><ele>206.0</ele><time>2026-04-29T09:07:56.051Z</time></trkpt><trkpt lat="40.11302521926377" lon="8.872642258850588"><ele>208.20000000000002</ele><time>2026-04-29T09:07:57.051Z</time></trkpt><trkpt lat="40.113079951583394" lon="8.872502892803048"><ele>210.4</ele><time>2026-04-29T09:07:58.051Z</time></trkpt><trkpt lat="40.11312365298294" lon="8.872367216156235"><ele>212.6</ele><time>2026-04-29T09:07:59.051Z</time></trkpt><trkpt lat="40.11312318280737" lon="8.872229044418958"><ele>214.8</ele><time>2026-04-29T09:08:00.051Z</time></trkpt><trkpt lat="40.11306855570349" lon="8.872105169611256"><ele>217.0</ele><time>2026-04-29T09:08:01.051Z</time></trkpt><trkpt lat="40.11298768006994" lon="8.872002975538486"><ele>217.0</ele><time>2026-04-29T09:08:02.051Z</time></trkpt><trkpt lat="40.11290853008244" lon="8.871904233685528"><ele>217.0</ele><time>2026-04-29T09:08:03.051Z</time></trkpt><trkpt lat="40.11286286581976" lon="8.871778177542666"><ele>217.0</ele><time>2026-04-29T09:08:04.051Z</time></trkpt><trkpt lat="40.11285568534678" lon="8.87162924267451"><ele>217.0</ele><time>2026-04-29T09:08:05.051Z</time></trkpt><trkpt lat="40.11287712622959" lon="8.871477094694047"><ele>217.0</ele><time>2026-04-29T09:08:06.051Z</time></trkpt><trkpt lat="40.11292232986017" lon="8.871338794745448"><ele>217.5</ele><time>2026-04-29T09:08:07.051Z</time></trkpt><trkpt lat="40.11299965434626" lon="8.871222228989717"><ele>218.0</ele><time>2026-04-29T09:08:08.051Z</time></trkpt><trkpt lat="40.11307972729721" lon="8.871103475613875"><ele>218.5</ele><time>2026-04-29T09:08:09.051Z</time></trkpt><trkpt lat="40.11315273449066" lon="8.870975933561354"><ele>219.0</ele><time>2026-04-29T09:08:10.051Z</time></trkpt><trkpt lat="40.11322241397493" lon="8.870837746901394"><ele>221.75</ele><time>2026-04-29T09:08:11.051Z</time></trkpt><trkpt lat="40.11328863152661" lon="8.870701428493355"><ele>224.5</ele><time>2026-04-29T09:08:12.051Z</time></trkpt><trkpt lat="40.113335237944966" lon="8.870540473986166"><ele>227.25</ele><time>2026-04-29T09:08:13.051Z</time></trkpt><trkpt lat="40.11337634405813" lon="8.870379595476878"><ele>230.0</ele><time>2026-04-29T09:08:14.051Z</time></trkpt><trkpt lat="40.11344488043049" lon="8.870237239850267"><ele>230.0</ele><time>2026-04-29T09:08:15.051Z</time></trkpt><trkpt lat="40.113535318940194" lon="8.870120350326568"><ele>230.0</ele><time>2026-04-29T09:08:16.051Z</time></trkpt><trkpt lat="40.11364259630234" lon="8.870025628941933"><ele>230.0</ele><time>2026-04-29T09:08:17.051Z</time></trkpt><trkpt lat="40.11375832323128" lon="8.869919173442485"><ele>230.0</ele><time>2026-04-29T09:08:18.051Z</time></trkpt><trkpt lat="40.11385563230978" lon="8.869800628043043"><ele>228.75</ele><time>2026-04-29T09:08:19.051Z</time></trkpt><trkpt lat="40.11393694833865" lon="8.86965121805031"><ele>227.5</ele><time>2026-04-29T09:08:20.051Z</time></trkpt><trkpt lat="40.11400822568045" lon="8.869488783717836"><ele>226.25</ele><time>2026-04-29T09:08:21.051Z</time></trkpt><trkpt lat="40.1140814208165" lon="8.869315017529233"><ele>225.0</ele><time>2026-04-29T09:08:22.051Z</time></trkpt><trkpt lat="40.11416241328323" lon="8.86914015077334"><ele>228.66666666666669</ele><time>2026-04-29T09:08:23.051Z</time></trkpt><trkpt lat="40.11423653343246" lon="8.868959797185623"><ele>232.33333333333334</ele><time>2026-04-29T09:08:24.051Z</time></trkpt><trkpt lat="40.11428467298823" lon="8.868768236681593"><ele>236.0</ele><time>2026-04-29T09:08:25.051Z</time></trkpt><trkpt lat="40.114299314204125" lon="8.868573364460715"><ele>236.5</ele><time>2026-04-29T09:08:26.052Z</time></trkpt><trkpt lat="40.11426999921785" lon="8.868381683566135"><ele>237.0</ele><time>2026-04-29T09:08:27.052Z</time></trkpt><trkpt lat="40.11421238025944" lon="8.868210681902672"><ele>237.5</ele><time>2026-04-29T09:08:28.052Z</time></trkpt><trkpt lat="40.114147705218464" lon="8.868044102393512"><ele>238.0</ele><time>2026-04-29T09:08:29.052Z</time></trkpt><trkpt lat="40.11411859750719" lon="8.867866193235919"><ele>238.0</ele><time>2026-04-29T09:08:30.051Z</time></trkpt><trkpt lat="40.11412716659929" lon="8.867679922139565"><ele>238.0</ele><time>2026-04-29T09:08:31.051Z</time></trkpt><trkpt lat="40.11416671006706" lon="8.867498330202633"><ele>238.0</ele><time>2026-04-29T09:08:32.051Z</time></trkpt><trkpt lat="40.11422550395283" lon="8.86732085990607"><ele>238.0</ele><time>2026-04-29T09:08:33.052Z</time></trkpt><trkpt lat="40.11429557037654" lon="8.867142418402906"><ele>238.0</ele><time>2026-04-29T09:08:34.052Z</time></trkpt><trkpt lat="40.11437396648247" lon="8.866985764960557"><ele>238.0</ele><time>2026-04-29T09:08:35.052Z</time></trkpt><trkpt lat="40.11447225667515" lon="8.866855355983935"><ele>238.0</ele><time>2026-04-29T09:08:36.052Z</time></trkpt><trkpt lat="40.11458531079136" lon="8.866752617099705"><ele>238.0</ele><time>2026-04-29T09:08:37.052Z</time></trkpt><trkpt lat="40.11471169058301" lon="8.866669307833305"><ele>236.0</ele><time>2026-04-29T09:08:38.052Z</time></trkpt><trkpt lat="40.11485862349349" lon="8.866591546012907"><ele>234.0</ele><time>2026-04-29T09:08:39.052Z</time></trkpt><trkpt lat="40.11500407231097" lon="8.866520074518071"><ele>232.0</ele><time>2026-04-29T09:08:40.052Z</time></trkpt><trkpt lat="40.11515107003596" lon="8.866459449003727"><ele>237.0</ele><time>2026-04-29T09:08:41.052Z</time></trkpt><trkpt lat="40.11529806955827" lon="8.866416219976033"><ele>242.0</ele><time>2026-04-29T09:08:42.052Z</time></trkpt><trkpt lat="40.11545085229116" lon="8.866367838472868"><ele>247.0</ele><time>2026-04-29T09:08:43.052Z</time></trkpt><trkpt lat="40.11560761144501" lon="8.866320081991127"><ele>250.66666666666666</ele><time>2026-04-29T09:08:44.052Z</time></trkpt><trkpt lat="40.11576757097552" lon="8.866247112042615"><ele>254.33333333333331</ele><time>2026-04-29T09:08:45.052Z</time></trkpt><trkpt lat="40.115926095269266" lon="8.866158043693323"><ele>258.0</ele><time>2026-04-29T09:08:46.052Z</time></trkpt><trkpt lat="40.1160837549851" lon="8.866067561261964"><ele>258.0</ele><time>2026-04-29T09:08:47.052Z</time></trkpt><trkpt lat="40.11624456427307" lon="8.865984596955924"><ele>258.0</ele><time>2026-04-29T09:08:48.052Z</time></trkpt><trkpt lat="40.1164091545011" lon="8.865913040385088"><ele>258.0</ele><time>2026-04-29T09:08:49.052Z</time></trkpt><trkpt lat="40.11657243073309" lon="8.865857510626105"><ele>257.0</ele><time>2026-04-29T09:08:50.052Z</time></trkpt><trkpt lat="40.11673921759482" lon="8.865825926374995"><ele>256.0</ele><time>2026-04-29T09:08:51.052Z</time></trkpt><trkpt lat="40.11690553729236" lon="8.865799430302854"><ele>255.0</ele><time>2026-04-29T09:08:52.052Z</time></trkpt><trkpt lat="40.11707225464721" lon="8.86578383611054"><ele>255.0</ele><time>2026-04-29T09:08:53.052Z</time></trkpt><trkpt lat="40.11723957738145" lon="8.865784398325568"><ele>255.0</ele><time>2026-04-29T09:08:54.052Z</time></trkpt><trkpt lat="40.11740207572397" lon="8.865778763905125"><ele>255.0</ele><time>2026-04-29T09:08:55.052Z</time></trkpt><trkpt lat="40.11756991848645" lon="8.86578427282519"><ele>257.6666666666667</ele><time>2026-04-29T09:08:56.052Z</time></trkpt><trkpt lat="40.117733564563494" lon="8.865785165292515"><ele>260.33333333333337</ele><time>2026-04-29T09:08:57.052Z</time></trkpt><trkpt lat="40.11788577805498" lon="8.865782815075304"><ele>263.0</ele><time>2026-04-29T09:08:58.052Z</time></trkpt><trkpt lat="40.11802596907226" lon="8.86575299620199"><ele>263.0</ele><time>2026-04-29T09:08:59.052Z</time></trkpt><trkpt lat="40.11814262953947" lon="8.865677305492104"><ele>263.0</ele><time>2026-04-29T09:09:00.052Z</time></trkpt><trkpt lat="40.11823659754856" lon="8.865555544313752"><ele>263.0</ele><time>2026-04-29T09:09:01.052Z</time></trkpt><trkpt lat="40.118314440888625" lon="8.865395518484299"><ele>263.0</ele><time>2026-04-29T09:09:02.052Z</time></trkpt><trkpt lat="40.118376159106475" lon="8.865208060687145"><ele>264.33333333333337</ele><time>2026-04-29T09:09:03.052Z</time></trkpt><trkpt lat="40.1184374575171" lon="8.864999130599701"><ele>265.6666666666667</ele><time>2026-04-29T09:09:04.052Z</time></trkpt><trkpt lat="40.11850437436045" lon="8.864782057485844"><ele>267.0</ele><time>2026-04-29T09:09:05.052Z</time></trkpt><trkpt lat="40.11857994549525" lon="8.864548396431832"><ele>267.0</ele><time>2026-04-29T09:09:06.052Z</time></trkpt><trkpt lat="40.118652010544174" lon="8.864318898515199"><ele>267.0</ele><time>2026-04-29T09:09:07.052Z</time></trkpt><trkpt lat="40.11872697966888" lon="8.864084033919326"><ele>267.0</ele><time>2026-04-29T09:09:08.052Z</time></trkpt><trkpt lat="40.11879869465693" lon="8.863840349628907"><ele>268.3333333333333</ele><time>2026-04-29T09:09:09.052Z</time></trkpt><trkpt lat="40.11887123223521" lon="8.86359390213576"><ele>269.66666666666663</ele><time>2026-04-29T09:09:10.052Z</time></trkpt><trkpt lat="40.1189455946867" lon="8.863342782112626"><ele>271.0</ele><time>2026-04-29T09:09:11.052Z</time></trkpt><trkpt lat="40.11902540380767" lon="8.863088531377885"><ele>271.66666666666663</ele><time>2026-04-29T09:09:12.052Z</time></trkpt><trkpt lat="40.11911154478495" lon="8.862827936616"><ele>272.3333333333333</ele><time>2026-04-29T09:09:13.052Z</time></trkpt><trkpt lat="40.11920036288127" lon="8.862563152317628"><ele>273.0</ele><time>2026-04-29T09:09:14.052Z</time></trkpt><trkpt lat="40.119290856395686" lon="8.862291835967403"><ele>273.5</ele><time>2026-04-29T09:09:15.052Z</time></trkpt><trkpt lat="40.1193833225644" lon="8.862017933434332"><ele>274.0</ele><time>2026-04-29T09:09:16.052Z</time></trkpt><trkpt lat="40.11947670745083" lon="8.861738678996272"><ele>274.0</ele><time>2026-04-29T09:09:17.052Z</time></trkpt><trkpt lat="40.119571147908225" lon="8.861454924179162"><ele>274.0</ele><time>2026-04-29T09:09:18.052Z</time></trkpt><trkpt lat="40.119663598648856" lon="8.861172777988353"><ele>275.5</ele><time>2026-04-29T09:09:19.052Z</time></trkpt><trkpt lat="40.119756018308806" lon="8.860890344956283"><ele>277.0</ele><time>2026-04-29T09:09:20.052Z</time></trkpt><trkpt lat="40.11984910609186" lon="8.860613195053725"><ele>276.66666666666663</ele><time>2026-04-29T09:09:21.052Z</time></trkpt><trkpt lat="40.11993810932663" lon="8.86034909598246"><ele>276.3333333333333</ele><time>2026-04-29T09:09:22.052Z</time></trkpt><trkpt lat="40.12002780832106" lon="8.860088484014186"><ele>276.0</ele><time>2026-04-29T09:09:23.052Z</time></trkpt><trkpt lat="40.12011244275619" lon="8.859831662655127"><ele>276.0</ele><time>2026-04-29T09:09:24.052Z</time></trkpt><trkpt lat="40.120195324177004" lon="8.859573487393597"><ele>276.0</ele><time>2026-04-29T09:09:25.052Z</time></trkpt><trkpt lat="40.12028013802859" lon="8.859311403822732"><ele>276.0</ele><time>2026-04-29T09:09:26.052Z</time></trkpt><trkpt lat="40.12036117944584" lon="8.859061165646423"><ele>276.0</ele><time>2026-04-29T09:09:27.052Z</time></trkpt><trkpt lat="40.12044386727495" lon="8.858806254430698"><ele>276.0</ele><time>2026-04-29T09:09:28.052Z</time></trkpt><trkpt lat="40.120527251866015" lon="8.858551519914684"><ele>276.0</ele><time>2026-04-29T09:09:29.052Z</time></trkpt><trkpt lat="40.12061202379604" lon="8.858293437973758"><ele>276.0</ele><time>2026-04-29T09:09:30.052Z</time></trkpt><trkpt lat="40.12069573302247" lon="8.85802776195822"><ele>276.0</ele><time>2026-04-29T09:09:31.052Z</time></trkpt><trkpt lat="40.12078268665792" lon="8.857762074629507"><ele>276.0</ele><time>2026-04-29T09:09:32.052Z</time></trkpt><trkpt lat="40.12086938828068" lon="8.857496380544964"><ele>276.0</ele><time>2026-04-29T09:09:33.052Z</time></trkpt><trkpt lat="40.1209534543448" lon="8.857230557299191"><ele>276.0</ele><time>2026-04-29T09:09:34.052Z</time></trkpt><trkpt lat="40.12103523212033" lon="8.85697203990514"><ele>276.0</ele><time>2026-04-29T09:09:35.052Z</time></trkpt><trkpt lat="40.12110832353924" lon="8.856735104369589"><ele>276.3333333333333</ele><time>2026-04-29T09:09:36.052Z</time></trkpt><trkpt lat="40.12117619612081" lon="8.85651550497048"><ele>276.66666666666663</ele><time>2026-04-29T09:09:37.052Z</time></trkpt><trkpt lat="40.12124125291291" lon="8.856303364877459"><ele>277.0</ele><time>2026-04-29T09:09:38.052Z</time></trkpt><trkpt lat="40.12130157725474" lon="8.856114054778109"><ele>277.0</ele><time>2026-04-29T09:09:39.052Z</time></trkpt><trkpt lat="40.121352637772944" lon="8.855965421161985"><ele>277.0</ele><time>2026-04-29T09:09:40.052Z</time></trkpt><trkpt lat="40.121397894055164" lon="8.855831758200601"><ele>277.0</ele><time>2026-04-29T09:09:41.052Z</time></trkpt><trkpt lat="40.12143804148143" lon="8.855701870946355"><ele>277.0</ele><time>2026-04-29T09:09:42.052Z</time></trkpt><trkpt lat="40.12147631985436" lon="8.855573778893497"><ele>277.0</ele><time>2026-04-29T09:09:43.052Z</time></trkpt><trkpt lat="40.121519048393395" lon="8.855441516537766"><ele>276.5</ele><time>2026-04-29T09:09:44.052Z</time></trkpt><trkpt lat="40.12156650184738" lon="8.85530238161539"><ele>276.0</ele><time>2026-04-29T09:09:45.052Z</time></trkpt><trkpt lat="40.121617292201904" lon="8.855145152960954"><ele>275.5</ele><time>2026-04-29T09:09:46.052Z</time></trkpt><trkpt lat="40.12167283180191" lon="8.854976880707799"><ele>275.0</ele><time>2026-04-29T09:09:47.052Z</time></trkpt><trkpt lat="40.12173141446902" lon="8.854801612473572"><ele>275.0</ele><time>2026-04-29T09:09:48.052Z</time></trkpt><trkpt lat="40.121786424609894" lon="8.854622168244545"><ele>275.0</ele><time>2026-04-29T09:09:49.052Z</time></trkpt><trkpt lat="40.12184443229439" lon="8.854440490483551"><ele>275.0</ele><time>2026-04-29T09:09:50.052Z</time></trkpt><trkpt lat="40.12190214346625" lon="8.854258833131748"><ele>275.0</ele><time>2026-04-29T09:09:51.052Z</time></trkpt><trkpt lat="40.12195609355469" lon="8.854088135160374"><ele>274.75</ele><time>2026-04-29T09:09:52.052Z</time></trkpt><trkpt lat="40.1220105086365" lon="8.853920650689371"><ele>274.5</ele><time>2026-04-29T09:09:53.052Z</time></trkpt><trkpt lat="40.12206547505431" lon="8.853758640304626"><ele>274.25</ele><time>2026-04-29T09:09:54.052Z</time></trkpt><trkpt lat="40.12211975743037" lon="8.853593285612789"><ele>274.0</ele><time>2026-04-29T09:09:55.052Z</time></trkpt><trkpt lat="40.12217754056788" lon="8.853417791964294"><ele>273.0</ele><time>2026-04-29T09:09:56.052Z</time></trkpt><trkpt lat="40.12223649996843" lon="8.853232293223593"><ele>272.0</ele><time>2026-04-29T09:09:57.052Z</time></trkpt><trkpt lat="40.12229945109952" lon="8.853035831669647"><ele>271.0</ele><time>2026-04-29T09:09:58.052Z</time></trkpt><trkpt lat="40.12236355200913" lon="8.852835250160298"><ele>270.66666666666663</ele><time>2026-04-29T09:09:59.052Z</time></trkpt><trkpt lat="40.122431296173225" lon="8.852631723880659"><ele>270.3333333333333</ele><time>2026-04-29T09:10:00.052Z</time></trkpt><trkpt lat="40.122498032799754" lon="8.852421276204955"><ele>270.0</ele><time>2026-04-29T09:10:01.052Z</time></trkpt><trkpt lat="40.12256528814236" lon="8.852204032339479"><ele>269.0</ele><time>2026-04-29T09:10:02.052Z</time></trkpt><trkpt lat="40.122620400635064" lon="8.851986877374355"><ele>268.0</ele><time>2026-04-29T09:10:03.052Z</time></trkpt><trkpt lat="40.12266065191473" lon="8.851748319405447"><ele>267.0</ele><time>2026-04-29T09:10:04.052Z</time></trkpt><trkpt lat="40.12269461806917" lon="8.851514191834088"><ele>266.6666666666667</ele><time>2026-04-29T09:10:05.052Z</time></trkpt><trkpt lat="40.12273197508975" lon="8.851281380277989"><ele>266.33333333333337</ele><time>2026-04-29T09:10:06.052Z</time></trkpt><trkpt lat="40.12277991212457" lon="8.851054905729457"><ele>266.0</ele><time>2026-04-29T09:10:07.052Z</time></trkpt><trkpt lat="40.12284558232282" lon="8.850839294272271"><ele>266.0</ele><time>2026-04-29T09:10:08.052Z</time></trkpt><trkpt lat="40.12291806882275" lon="8.850634893902173"><ele>266.0</ele><time>2026-04-29T09:10:09.052Z</time></trkpt><trkpt lat="40.1230024288881" lon="8.850443267806243"><ele>266.0</ele><time>2026-04-29T09:10:10.052Z</time></trkpt><trkpt lat="40.12309484795817" lon="8.850260314471933"><ele>266.0</ele><time>2026-04-29T09:10:11.052Z</time></trkpt><trkpt lat="40.123194257327086" lon="8.850096055288954"><ele>266.0</ele><time>2026-04-29T09:10:12.052Z</time></trkpt><trkpt lat="40.123290520010855" lon="8.849945199031264"><ele>266.0</ele><time>2026-04-29T09:10:13.052Z</time></trkpt><trkpt lat="40.123381721230594" lon="8.849807178212009"><ele>266.0</ele><time>2026-04-29T09:10:14.052Z</time></trkpt><trkpt lat="40.1234628306284" lon="8.849669281655334"><ele>266.0</ele><time>2026-04-29T09:10:15.052Z</time></trkpt><trkpt lat="40.12354084103989" lon="8.849525047950454"><ele>266.0</ele><time>2026-04-29T09:10:16.052Z</time></trkpt><trkpt lat="40.12360939238002" lon="8.849385420644412"><ele>266.0</ele><time>2026-04-29T09:10:17.052Z</time></trkpt><trkpt lat="40.12366200897321" lon="8.849247730162068"><ele>266.75</ele><time>2026-04-29T09:10:18.052Z</time></trkpt><trkpt lat="40.12371347200136" lon="8.849098422309424"><ele>267.5</ele><time>2026-04-29T09:10:19.052Z</time></trkpt><trkpt lat="40.123757315574686" lon="8.848932308018513"><ele>268.25</ele><time>2026-04-29T09:10:20.052Z</time></trkpt><trkpt lat="40.123799585669836" lon="8.848760493429369"><ele>269.0</ele><time>2026-04-29T09:10:21.052Z</time></trkpt><trkpt lat="40.12383558685541" lon="8.848575628530337"><ele>268.0</ele><time>2026-04-29T09:10:22.052Z</time></trkpt><trkpt lat="40.12386506997444" lon="8.848379068723748"><ele>267.0</ele><time>2026-04-29T09:10:23.052Z</time></trkpt><trkpt lat="40.12389755609736" lon="8.848174043313595"><ele>266.0</ele><time>2026-04-29T09:10:24.052Z</time></trkpt><trkpt lat="40.12393270084818" lon="8.847968817282567"><ele>266.0</ele><time>2026-04-29T09:10:25.052Z</time></trkpt><trkpt lat="40.12397903075177" lon="8.847768001878645"><ele>266.0</ele><time>2026-04-29T09:10:26.052Z</time></trkpt><trkpt lat="40.12403601780507" lon="8.847569840685264"><ele>266.0</ele><time>2026-04-29T09:10:27.052Z</time></trkpt><trkpt lat="40.124100544426945" lon="8.847378199615493"><ele>267.6666666666667</ele><time>2026-04-29T09:10:28.052Z</time></trkpt><trkpt lat="40.124160073445104" lon="8.847189334538413"><ele>269.3333333333333</ele><time>2026-04-29T09:10:29.053Z</time></trkpt><trkpt lat="40.124215116435415" lon="8.84699730611843"><ele>271.0</ele><time>2026-04-29T09:10:30.052Z</time></trkpt><trkpt lat="40.124272671498574" lon="8.846805601992799"><ele>271.3333333333333</ele><time>2026-04-29T09:10:31.052Z</time></trkpt><trkpt lat="40.12433490189903" lon="8.8466129919365"><ele>271.6666666666667</ele><time>2026-04-29T09:10:32.053Z</time></trkpt><trkpt lat="40.12439762476694" lon="8.846415169027935"><ele>272.0</ele><time>2026-04-29T09:10:33.052Z</time></trkpt><trkpt lat="40.12445798876646" lon="8.846215339755885"><ele>272.0</ele><time>2026-04-29T09:10:34.052Z</time></trkpt><trkpt lat="40.12452432658545" lon="8.846019732280219"><ele>272.0</ele><time>2026-04-29T09:10:35.053Z</time></trkpt><trkpt lat="40.12459078565167" lon="8.845818565930573"><ele>272.0</ele><time>2026-04-29T09:10:36.052Z</time></trkpt><trkpt lat="40.124657152778454" lon="8.845621208681827"><ele>273.0</ele><time>2026-04-29T09:10:37.052Z</time></trkpt><trkpt lat="40.12472518587592" lon="8.84542377373984"><ele>274.0</ele><time>2026-04-29T09:10:38.053Z</time></trkpt><trkpt lat="40.12478487119123" lon="8.845228220468458"><ele>275.0</ele><time>2026-04-29T09:10:39.053Z</time></trkpt><trkpt lat="40.12484903138388" lon="8.845037069764757"><ele>275.33333333333337</ele><time>2026-04-29T09:10:40.053Z</time></trkpt><trkpt lat="40.124908886170935" lon="8.844851031656088"><ele>275.6666666666667</ele><time>2026-04-29T09:10:41.053Z</time></trkpt><trkpt lat="40.1249664506777" lon="8.844662531724127"><ele>276.0</ele><time>2026-04-29T09:10:42.053Z</time></trkpt><trkpt lat="40.12502988812189" lon="8.844468982443976"><ele>277.3333333333333</ele><time>2026-04-29T09:10:43.053Z</time></trkpt><trkpt lat="40.12509214590867" lon="8.844282970003308"><ele>278.66666666666663</ele><time>2026-04-29T09:10:44.053Z</time></trkpt><trkpt lat="40.12514961937575" lon="8.84409256297715"><ele>280.0</ele><time>2026-04-29T09:10:45.053Z</time></trkpt><trkpt lat="40.12520721954957" lon="8.843901900084171"><ele>280.0</ele><time>2026-04-29T09:10:46.053Z</time></trkpt><trkpt lat="40.12526251256942" lon="8.843708920037978"><ele>280.0</ele><time>2026-04-29T09:10:47.053Z</time></trkpt><trkpt lat="40.12532238569447" lon="8.84351627550942"><ele>280.0</ele><time>2026-04-29T09:10:48.053Z</time></trkpt><trkpt lat="40.12538509665084" lon="8.84332364133151"><ele>280.66666666666663</ele><time>2026-04-29T09:10:49.053Z</time></trkpt><trkpt lat="40.125449050382144" lon="8.843135283194433"><ele>281.3333333333333</ele><time>2026-04-29T09:10:50.053Z</time></trkpt><trkpt lat="40.125511166612526" lon="8.842947190989316"><ele>282.0</ele><time>2026-04-29T09:10:51.053Z</time></trkpt><trkpt lat="40.125573850869685" lon="8.842750233157672"><ele>282.0</ele><time>2026-04-29T09:10:52.053Z</time></trkpt><trkpt lat="40.12563354161772" lon="8.84255316046142"><ele>282.0</ele><time>2026-04-29T09:10:53.053Z</time></trkpt><trkpt lat="40.12569252394084" lon="8.842360101861527"><ele>282.0</ele><time>2026-04-29T09:10:54.053Z</time></trkpt><trkpt lat="40.12575697985604" lon="8.842166426832677"><ele>282.0</ele><time>2026-04-29T09:10:55.053Z</time></trkpt><trkpt lat="40.12582428879166" lon="8.841981955044307"><ele>282.0</ele><time>2026-04-29T09:10:56.053Z</time></trkpt><trkpt lat="40.12588642225266" lon="8.841807420535565"><ele>282.0</ele><time>2026-04-29T09:10:57.053Z</time></trkpt><trkpt lat="40.12593927188162" lon="8.841641305321307"><ele>282.0</ele><time>2026-04-29T09:10:58.053Z</time></trkpt><trkpt lat="40.125992988292374" lon="8.841488393551705"><ele>282.2</ele><time>2026-04-29T09:10:59.053Z</time></trkpt><trkpt lat="40.12604247732848" lon="8.841343362002986"><ele>282.4</ele><time>2026-04-29T09:11:00.053Z</time></trkpt><trkpt lat="40.12608505359273" lon="8.841206951267147"><ele>282.6</ele><time>2026-04-29T09:11:01.053Z</time></trkpt><trkpt lat="40.12612417319037" lon="8.841076575293826"><ele>282.8</ele><time>2026-04-29T09:11:02.053Z</time></trkpt><trkpt lat="40.12615955489099" lon="8.840958004672071"><ele>283.0</ele><time>2026-04-29T09:11:03.053Z</time></trkpt><trkpt lat="40.12619562264941" lon="8.840828664581363"><ele>283.25</ele><time>2026-04-29T09:11:04.053Z</time></trkpt><trkpt lat="40.12623688530834" lon="8.840690278955185"><ele>283.5</ele><time>2026-04-29T09:11:05.053Z</time></trkpt><trkpt lat="40.12628293717905" lon="8.840547745611305"><ele>283.75</ele><time>2026-04-29T09:11:06.053Z</time></trkpt><trkpt lat="40.1263322941293" lon="8.840405424858323"><ele>284.0</ele><time>2026-04-29T09:11:07.053Z</time></trkpt><trkpt lat="40.12638403048881" lon="8.840259680996482"><ele>284.5</ele><time>2026-04-29T09:11:08.053Z</time></trkpt><trkpt lat="40.12643299422353" lon="8.840115713606696"><ele>285.0</ele><time>2026-04-29T09:11:09.053Z</time></trkpt><trkpt lat="40.126471992730345" lon="8.839975528162567"><ele>285.5</ele><time>2026-04-29T09:11:10.053Z</time></trkpt><trkpt lat="40.12650283722243" lon="8.839832646643766"><ele>286.0</ele><time>2026-04-29T09:11:11.053Z</time></trkpt><trkpt lat="40.126530689828044" lon="8.83969067164452"><ele>286.0</ele><time>2026-04-29T09:11:12.053Z</time></trkpt><trkpt lat="40.12654348863749" lon="8.839562296760848"><ele>286.0</ele><time>2026-04-29T09:11:13.053Z</time></trkpt><trkpt lat="40.12655385227252" lon="8.83944855773093"><ele>286.0</ele><time>2026-04-29T09:11:14.053Z</time></trkpt><trkpt lat="40.12657810988707" lon="8.839354428186326"><ele>286.0</ele><time>2026-04-29T09:11:15.053Z</time></trkpt><trkpt lat="40.12662626897248" lon="8.839291264650864"><ele>286.0</ele><time>2026-04-29T09:11:16.053Z</time></trkpt><trkpt lat="40.12669110797946" lon="8.839242711822328"><ele>286.0</ele><time>2026-04-29T09:11:17.053Z</time></trkpt><trkpt lat="40.12676277708251" lon="8.839195813928226"><ele>285.8</ele><time>2026-04-29T09:11:18.053Z</time></trkpt><trkpt lat="40.12684196646806" lon="8.839136561155128"><ele>285.6</ele><time>2026-04-29T09:11:19.053Z</time></trkpt><trkpt lat="40.12691427994034" lon="8.83905830736548"><ele>285.4</ele><time>2026-04-29T09:11:20.053Z</time></trkpt><trkpt lat="40.12698619065095" lon="8.838971228249672"><ele>285.2</ele><time>2026-04-29T09:11:21.053Z</time></trkpt><trkpt lat="40.12704986491507" lon="8.838880810222905"><ele>285.0</ele><time>2026-04-29T09:11:22.053Z</time></trkpt><trkpt lat="40.127119752372174" lon="8.838778565140535"><ele>285.0</ele><time>2026-04-29T09:11:23.053Z</time></trkpt><trkpt lat="40.12719966766198" lon="8.83866148189728"><ele>285.0</ele><time>2026-04-29T09:11:24.053Z</time></trkpt><trkpt lat="40.1272818393068" lon="8.838528302450369"><ele>285.0</ele><time>2026-04-29T09:11:25.053Z</time></trkpt><trkpt lat="40.12735731246174" lon="8.83837441956619"><ele>285.0</ele><time>2026-04-29T09:11:26.053Z</time></trkpt><trkpt lat="40.127419416767275" lon="8.83819798940376"><ele>282.0</ele><time>2026-04-29T09:11:27.053Z</time></trkpt><trkpt lat="40.12745955814825" lon="8.838004969379055"><ele>279.0</ele><time>2026-04-29T09:11:28.053Z</time></trkpt><trkpt lat="40.12747957882867" lon="8.837793864232093"><ele>276.0</ele><time>2026-04-29T09:11:29.053Z</time></trkpt><trkpt lat="40.12746955292554" lon="8.837571274631607"><ele>274.3333333333333</ele><time>2026-04-29T09:11:30.053Z</time></trkpt><trkpt lat="40.12742866817916" lon="8.837360496465063"><ele>272.66666666666663</ele><time>2026-04-29T09:11:31.053Z</time></trkpt><trkpt lat="40.127375852851486" lon="8.837155517435926"><ele>271.0</ele><time>2026-04-29T09:11:32.053Z</time></trkpt><trkpt lat="40.12732297090067" lon="8.836946460067022"><ele>277.0</ele><time>2026-04-29T09:11:33.053Z</time></trkpt><trkpt lat="40.12727200947061" lon="8.836738376128947"><ele>283.0</ele><time>2026-04-29T09:11:34.053Z</time></trkpt><trkpt lat="40.12722474195133" lon="8.836519017666724"><ele>289.0</ele><time>2026-04-29T09:11:35.053Z</time></trkpt><trkpt lat="40.1271830786894" lon="8.836294854397414"><ele>289.0</ele><time>2026-04-29T09:11:36.053Z</time></trkpt><trkpt lat="40.12714234890633" lon="8.836066689635542"><ele>289.0</ele><time>2026-04-29T09:11:37.053Z</time></trkpt><trkpt lat="40.12711067664944" lon="8.835832206737837"><ele>289.0</ele><time>2026-04-29T09:11:38.053Z</time></trkpt><trkpt lat="40.12709025898307" lon="8.835592668895154"><ele>286.0</ele><time>2026-04-29T09:11:39.053Z</time></trkpt><trkpt lat="40.127071067622204" lon="8.83535079607777"><ele>283.0</ele><time>2026-04-29T09:11:40.053Z</time></trkpt><trkpt lat="40.1270571798392" lon="8.835115481642566"><ele>280.0</ele><time>2026-04-29T09:11:41.053Z</time></trkpt><trkpt lat="40.127041767238914" lon="8.834867947430343"><ele>276.0</ele><time>2026-04-29T09:11:42.053Z</time></trkpt><trkpt lat="40.12701250072122" lon="8.834603462134826"><ele>272.0</ele><time>2026-04-29T09:11:43.053Z</time></trkpt><trkpt lat="40.12698322911687" lon="8.834330109364014"><ele>268.0</ele><time>2026-04-29T09:11:44.053Z</time></trkpt><trkpt lat="40.1269749657091" lon="8.834041915464145"><ele>265.0</ele><time>2026-04-29T09:11:45.053Z</time></trkpt><trkpt lat="40.126965540002196" lon="8.833745125050916"><ele>262.0</ele><time>2026-04-29T09:11:46.053Z</time></trkpt><trkpt lat="40.12696883303479" lon="8.833441731418741"><ele>262.0</ele><time>2026-04-29T09:11:47.053Z</time></trkpt><trkpt lat="40.12694606953021" lon="8.833131647264002"><ele>262.0</ele><time>2026-04-29T09:11:48.053Z</time></trkpt><trkpt lat="40.126914643892405" lon="8.83281849011079"><ele>263.5</ele><time>2026-04-29T09:11:49.053Z</time></trkpt><trkpt lat="40.126895508375746" lon="8.83250232661478"><ele>265.0</ele><time>2026-04-29T09:11:50.053Z</time></trkpt><trkpt lat="40.126879335002" lon="8.83218838735929"><ele>265.0</ele><time>2026-04-29T09:11:51.053Z</time></trkpt><trkpt lat="40.126858027932904" lon="8.831881167518965"><ele>265.0</ele><time>2026-04-29T09:11:52.053Z</time></trkpt><trkpt lat="40.126842352687326" lon="8.831578693951517"><ele>266.3333333333333</ele><time>2026-04-29T09:11:53.053Z</time></trkpt><trkpt lat="40.1268245739297" lon="8.831292965408014"><ele>267.6666666666667</ele><time>2026-04-29T09:11:54.053Z</time></trkpt><trkpt lat="40.12680325477646" lon="8.831005519789205"><ele>269.0</ele><time>2026-04-29T09:11:55.053Z</time></trkpt><trkpt lat="40.12678684870838" lon="8.83071523738284"><ele>270.6666666666667</ele><time>2026-04-29T09:11:56.053Z</time></trkpt><trkpt lat="40.12676839085501" lon="8.830434886742758"><ele>272.3333333333333</ele><time>2026-04-29T09:11:57.053Z</time></trkpt><trkpt lat="40.12674520111787" lon="8.8301603534827"><ele>274.0</ele><time>2026-04-29T09:11:58.053Z</time></trkpt><trkpt lat="40.12672678901328" lon="8.829877920846728"><ele>275.66666666666663</ele><time>2026-04-29T09:11:59.053Z</time></trkpt><trkpt lat="40.126712451775944" lon="8.82960350387416"><ele>277.3333333333333</ele><time>2026-04-29T09:12:00.053Z</time></trkpt><trkpt lat="40.126719156607614" lon="8.82932945147585"><ele>279.0</ele><time>2026-04-29T09:12:01.053Z</time></trkpt><trkpt lat="40.1267449312331" lon="8.829069378843663"><ele>279.3333333333333</ele><time>2026-04-29T09:12:02.053Z</time></trkpt><trkpt lat="40.12680944829763" lon="8.828857580722913"><ele>279.66666666666663</ele><time>2026-04-29T09:12:03.053Z</time></trkpt><trkpt lat="40.12690667649757" lon="8.828659984965578"><ele>280.0</ele><time>2026-04-29T09:12:04.053Z</time></trkpt><trkpt lat="40.12703290465658" lon="8.828476161224128"><ele>280.0</ele><time>2026-04-29T09:12:05.053Z</time></trkpt><trkpt lat="40.12717021607378" lon="8.82831386249561"><ele>280.0</ele><time>2026-04-29T09:12:06.053Z</time></trkpt><trkpt lat="40.12733037209577" lon="8.828181007643307"><ele>280.0</ele><time>2026-04-29T09:12:07.053Z</time></trkpt><trkpt lat="40.12751102254564" lon="8.828099882363906"><ele>287.0</ele><time>2026-04-29T09:12:08.053Z</time></trkpt><trkpt lat="40.12771834820827" lon="8.828063580144919"><ele>294.0</ele><time>2026-04-29T09:12:09.053Z</time></trkpt><trkpt lat="40.127907259876565" lon="8.828062644488824"><ele>301.0</ele><time>2026-04-29T09:12:10.053Z</time></trkpt><trkpt lat="40.12809975467852" lon="8.828092540833786"><ele>303.66666666666663</ele><time>2026-04-29T09:12:11.053Z</time></trkpt><trkpt lat="40.12829604048326" lon="8.828164871143576"><ele>306.3333333333333</ele><time>2026-04-29T09:12:12.053Z</time></trkpt><trkpt lat="40.12849587365549" lon="8.828230351512687"><ele>309.0</ele><time>2026-04-29T09:12:13.053Z</time></trkpt><trkpt lat="40.12869345973307" lon="8.82828972970015"><ele>309.0</ele><time>2026-04-29T09:12:14.053Z</time></trkpt><trkpt lat="40.12888132110953" lon="8.828328977722538"><ele>309.0</ele><time>2026-04-29T09:12:15.053Z</time></trkpt><trkpt lat="40.12904521765584" lon="8.828389566426484"><ele>309.0</ele><time>2026-04-29T09:12:16.053Z</time></trkpt><trkpt lat="40.12919378999594" lon="8.828432069403854"><ele>310.0</ele><time>2026-04-29T09:12:17.053Z</time></trkpt><trkpt lat="40.1293312202993" lon="8.828479688998138"><ele>311.0</ele><time>2026-04-29T09:12:18.053Z</time></trkpt><trkpt lat="40.12944522071278" lon="8.82850520283885"><ele>312.0</ele><time>2026-04-29T09:12:19.053Z</time></trkpt><trkpt lat="40.129549446331374" lon="8.828535292741671"><ele>313.0</ele><time>2026-04-29T09:12:20.053Z</time></trkpt><trkpt lat="40.12964433358254" lon="8.828560248618473"><ele>313.0</ele><time>2026-04-29T09:12:21.053Z</time></trkpt><trkpt lat="40.12973063330088" lon="8.828580373361769"><ele>313.0</ele><time>2026-04-29T09:12:22.053Z</time></trkpt><trkpt lat="40.129822349886815" lon="8.828593956057656"><ele>313.0</ele><time>2026-04-29T09:12:23.053Z</time></trkpt><trkpt lat="40.12991663698344" lon="8.828600381969203"><ele>313.0</ele><time>2026-04-29T09:12:24.053Z</time></trkpt><trkpt lat="40.130006754203336" lon="8.828584434830333"><ele>313.0</ele><time>2026-04-29T09:12:25.053Z</time></trkpt><trkpt lat="40.13011296003977" lon="8.828569073139072"><ele>313.0</ele><time>2026-04-29T09:12:26.053Z</time></trkpt><trkpt lat="40.13021557477277" lon="8.828535684672639"><ele>313.0</ele><time>2026-04-29T09:12:27.053Z</time></trkpt><trkpt lat="40.130311041006685" lon="8.828487156721312"><ele>313.0</ele><time>2026-04-29T09:12:28.053Z</time></trkpt><trkpt lat="40.1304018885125" lon="8.828426640955003"><ele>313.0</ele><time>2026-04-29T09:12:29.053Z</time></trkpt><trkpt lat="40.130493177462604" lon="8.828356559494974"><ele>313.0</ele><time>2026-04-29T09:12:30.053Z</time></trkpt><trkpt lat="40.13057905698169" lon="8.828280980424793"><ele>313.0</ele><time>2026-04-29T09:12:31.053Z</time></trkpt><trkpt lat="40.13065347017311" lon="8.828193178547973"><ele>313.0</ele><time>2026-04-29T09:12:32.053Z</time></trkpt><trkpt lat="40.13072112427239" lon="8.828107517954422"><ele>313.0</ele><time>2026-04-29T09:12:33.053Z</time></trkpt><trkpt lat="40.13078324493089" lon="8.828029265557635"><ele>313.0</ele><time>2026-04-29T09:12:34.053Z</time></trkpt><trkpt lat="40.13084314471915" lon="8.827942889132956"><ele>313.0</ele><time>2026-04-29T09:12:35.054Z</time></trkpt><trkpt lat="40.13090369917095" lon="8.827850428146549"><ele>313.16666666666663</ele><time>2026-04-29T09:12:36.054Z</time></trkpt><trkpt lat="40.13095940512294" lon="8.827768103394936"><ele>313.3333333333333</ele><time>2026-04-29T09:12:37.054Z</time></trkpt><trkpt lat="40.13100633107807" lon="8.827694645801637"><ele>313.5</ele><time>2026-04-29T09:12:38.054Z</time></trkpt><trkpt lat="40.131050985641096" lon="8.82762495996018"><ele>313.6666666666667</ele><time>2026-04-29T09:12:39.054Z</time></trkpt><trkpt lat="40.13109261434169" lon="8.827561592858594"><ele>313.83333333333337</ele><time>2026-04-29T09:12:40.054Z</time></trkpt><trkpt lat="40.13113790695109" lon="8.827498677394402"><ele>314.0</ele><time>2026-04-29T09:12:41.055Z</time></trkpt><trkpt lat="40.13120855420121" lon="8.827393282668679"><ele>314.1666666666667</ele><time>2026-04-29T09:12:43.054Z</time></trkpt><trkpt lat="40.13126114324085" lon="8.827324844984826"><ele>314.33333333333337</ele><time>2026-04-29T09:12:45.054Z</time></trkpt><trkpt lat="40.13129693910576" lon="8.82722252100658"><ele>314.5</ele><time>2026-04-29T09:12:49.054Z</time></trkpt><trkpt lat="40.13124718781549" lon="8.827132668050261"><ele>314.6666666666667</ele><time>2026-04-29T09:12:50.054Z</time></trkpt><trkpt lat="40.131168497399685" lon="8.827052608178194"><ele>314.8333333333333</ele><time>2026-04-29T09:12:51.054Z</time></trkpt><trkpt lat="40.13109203690721" lon="8.826959926092478"><ele>315.0</ele><time>2026-04-29T09:12:52.054Z</time></trkpt><trkpt lat="40.131023325293164" lon="8.826857865491778"><ele>315.25</ele><time>2026-04-29T09:12:53.054Z</time></trkpt><trkpt lat="40.130954088120404" lon="8.826746638042172"><ele>315.5</ele><time>2026-04-29T09:12:54.054Z</time></trkpt><trkpt lat="40.130876030364334" lon="8.826630508388956"><ele>315.75</ele><time>2026-04-29T09:12:55.054Z</time></trkpt><trkpt lat="40.13079463456996" lon="8.826509625573141"><ele>316.0</ele><time>2026-04-29T09:12:56.054Z</time></trkpt><trkpt lat="40.130706817908646" lon="8.826381848954735"><ele>315.75</ele><time>2026-04-29T09:12:57.054Z</time></trkpt><trkpt lat="40.13062044819114" lon="8.826252553031471"><ele>315.5</ele><time>2026-04-29T09:12:58.054Z</time></trkpt><trkpt lat="40.130540854775376" lon="8.82613205948146"><ele>315.25</ele><time>2026-04-29T09:12:59.054Z</time></trkpt><trkpt lat="40.13045971722879" lon="8.826011561125858"><ele>315.0</ele><time>2026-04-29T09:13:00.054Z</time></trkpt><trkpt lat="40.13037366211427" lon="8.825882743873594"><ele>315.0</ele><time>2026-04-29T09:13:01.054Z</time></trkpt><trkpt lat="40.130283688203164" lon="8.825752407556077"><ele>315.0</ele><time>2026-04-29T09:13:02.054Z</time></trkpt><trkpt lat="40.130195096177694" lon="8.825616662739828"><ele>315.0</ele><time>2026-04-29T09:13:03.054Z</time></trkpt><trkpt lat="40.13010059155254" lon="8.825478866517265"><ele>315.0</ele><time>2026-04-29T09:13:04.054Z</time></trkpt><trkpt lat="40.13000545531288" lon="8.825344219960378"><ele>315.0</ele><time>2026-04-29T09:13:05.054Z</time></trkpt><trkpt lat="40.12990893496205" lon="8.825203922225516"><ele>315.0</ele><time>2026-04-29T09:13:06.054Z</time></trkpt><trkpt lat="40.12981435089725" lon="8.825058442742257"><ele>315.0</ele><time>2026-04-29T09:13:07.054Z</time></trkpt><trkpt lat="40.12971551287299" lon="8.824913096140273"><ele>315.0</ele><time>2026-04-29T09:13:08.054Z</time></trkpt><trkpt lat="40.129616863607126" lon="8.824768647168684"><ele>314.75</ele><time>2026-04-29T09:13:09.054Z</time></trkpt><trkpt lat="40.12951453206683" lon="8.824624544641948"><ele>314.5</ele><time>2026-04-29T09:13:10.054Z</time></trkpt><trkpt lat="40.12941189299509" lon="8.824483700127296"><ele>314.25</ele><time>2026-04-29T09:13:11.054Z</time></trkpt><trkpt lat="40.129313770359296" lon="8.824339451772106"><ele>314.0</ele><time>2026-04-29T09:13:12.054Z</time></trkpt><trkpt lat="40.12921696868459" lon="8.824195813011238"><ele>314.0</ele><time>2026-04-29T09:13:13.054Z</time></trkpt><trkpt lat="40.1291188654159" lon="8.824056402958098"><ele>314.0</ele><time>2026-04-29T09:13:14.054Z</time></trkpt><trkpt lat="40.1290245005939" lon="8.823921173321304"><ele>314.0</ele><time>2026-04-29T09:13:15.054Z</time></trkpt><trkpt lat="40.12893114978616" lon="8.823784115916174"><ele>314.0</ele><time>2026-04-29T09:13:16.054Z</time></trkpt><trkpt lat="40.12884685558876" lon="8.823650590503622"><ele>313.25</ele><time>2026-04-29T09:13:17.054Z</time></trkpt><trkpt lat="40.128774103867734" lon="8.82352204107659"><ele>312.5</ele><time>2026-04-29T09:13:18.054Z</time></trkpt><trkpt lat="40.12872224648031" lon="8.823393815985904"><ele>311.75</ele><time>2026-04-29T09:13:19.054Z</time></trkpt><trkpt lat="40.12869607304624" lon="8.823258882256262"><ele>311.0</ele><time>2026-04-29T09:13:20.054Z</time></trkpt><trkpt lat="40.1286893924139" lon="8.823100360758872"><ele>312.5</ele><time>2026-04-29T09:13:21.054Z</time></trkpt><trkpt lat="40.12869999955483" lon="8.822943503793484"><ele>314.0</ele><time>2026-04-29T09:13:22.054Z</time></trkpt><trkpt lat="40.128726498674084" lon="8.822786468605331"><ele>315.5</ele><time>2026-04-29T09:13:23.054Z</time></trkpt><trkpt lat="40.128754705782605" lon="8.822625419456433"><ele>317.0</ele><time>2026-04-29T09:13:24.054Z</time></trkpt><trkpt lat="40.12877745290532" lon="8.82247115700312"><ele>317.25</ele><time>2026-04-29T09:13:25.054Z</time></trkpt><trkpt lat="40.12880249688528" lon="8.822317442532864"><ele>317.5</ele><time>2026-04-29T09:13:26.054Z</time></trkpt><trkpt lat="40.12882326699652" lon="8.82215430567997"><ele>317.75</ele><time>2026-04-29T09:13:27.054Z</time></trkpt><trkpt lat="40.12883687144962" lon="8.822000432681339"><ele>318.0</ele><time>2026-04-29T09:13:28.054Z</time></trkpt><trkpt lat="40.128852003305546" lon="8.821846229041228"><ele>318.0</ele><time>2026-04-29T09:13:29.054Z</time></trkpt><trkpt lat="40.12884833416159" lon="8.821681168437204"><ele>318.0</ele><time>2026-04-29T09:13:30.054Z</time></trkpt><trkpt lat="40.1288270791279" lon="8.821522121490847"><ele>318.0</ele><time>2026-04-29T09:13:31.054Z</time></trkpt><trkpt lat="40.128802090606236" lon="8.821356613601198"><ele>318.0</ele><time>2026-04-29T09:13:32.054Z</time></trkpt><trkpt lat="40.12877242600784" lon="8.82119089225987"><ele>318.0</ele><time>2026-04-29T09:13:33.054Z</time></trkpt><trkpt lat="40.12874041979501" lon="8.821034547805127"><ele>318.0</ele><time>2026-04-29T09:13:34.054Z</time></trkpt><trkpt lat="40.128700991238155" lon="8.8208941115478"><ele>318.0</ele><time>2026-04-29T09:13:35.054Z</time></trkpt><trkpt lat="40.12865958570269" lon="8.820760761089756"><ele>318.0</ele><time>2026-04-29T09:13:36.054Z</time></trkpt><trkpt lat="40.12861974339085" lon="8.820635599845037"><ele>318.0</ele><time>2026-04-29T09:13:37.054Z</time></trkpt><trkpt lat="40.12858491151696" lon="8.82051646694699"><ele>318.0</ele><time>2026-04-29T09:13:38.054Z</time></trkpt><trkpt lat="40.12856098878298" lon="8.820424422409037"><ele>318.0</ele><time>2026-04-29T09:13:39.054Z</time></trkpt><trkpt lat="40.128579006436745" lon="8.820285654192851"><ele>318.0</ele><time>2026-04-29T09:13:41.054Z</time></trkpt><trkpt lat="40.128625614381015" lon="8.820203992928004"><ele>318.0</ele><time>2026-04-29T09:13:42.054Z</time></trkpt><trkpt lat="40.128672663759716" lon="8.820101836235773"><ele>318.0</ele><time>2026-04-29T09:13:43.054Z</time></trkpt><trkpt lat="40.12871048829075" lon="8.819980131252183"><ele>317.8</ele><time>2026-04-29T09:13:44.054Z</time></trkpt><trkpt lat="40.1287335184285" lon="8.81985387905937"><ele>317.6</ele><time>2026-04-29T09:13:45.054Z</time></trkpt><trkpt lat="40.12875141407155" lon="8.819726668188515"><ele>317.4</ele><time>2026-04-29T09:13:46.054Z</time></trkpt><trkpt lat="40.12877706181255" lon="8.819597276824243"><ele>317.2</ele><time>2026-04-29T09:13:47.054Z</time></trkpt><trkpt lat="40.12880803476374" lon="8.819464344263356"><ele>317.0</ele><time>2026-04-29T09:13:48.054Z</time></trkpt><trkpt lat="40.128831578887976" lon="8.819328145898389"><ele>317.0</ele><time>2026-04-29T09:13:49.054Z</time></trkpt><trkpt lat="40.128858608458884" lon="8.819191495809376"><ele>317.0</ele><time>2026-04-29T09:13:50.054Z</time></trkpt><trkpt lat="40.128888651495664" lon="8.819073669406688"><ele>317.0</ele><time>2026-04-29T09:13:51.054Z</time></trkpt><trkpt lat="40.12891560381618" lon="8.818951757275293"><ele>317.0</ele><time>2026-04-29T09:13:52.054Z</time></trkpt><trkpt lat="40.12892838530786" lon="8.818828970106098"><ele>317.0</ele><time>2026-04-29T09:13:53.054Z</time></trkpt><trkpt lat="40.12885979581736" lon="8.81863299244863"><ele>317.0</ele><time>2026-04-29T09:13:55.054Z</time></trkpt><trkpt lat="40.128781848029796" lon="8.818568265977307"><ele>317.0</ele><time>2026-04-29T09:13:56.054Z</time></trkpt><trkpt lat="40.12869597828285" lon="8.818505465939523"><ele>317.0</ele><time>2026-04-29T09:13:57.054Z</time></trkpt><trkpt lat="40.128602927909014" lon="8.81843262631104"><ele>317.0</ele><time>2026-04-29T09:13:58.054Z</time></trkpt><trkpt lat="40.128514159406926" lon="8.818350987575199"><ele>317.0</ele><time>2026-04-29T09:13:59.054Z</time></trkpt><trkpt lat="40.1284245828287" lon="8.818267626730812"><ele>317.0</ele><time>2026-04-29T09:14:00.054Z</time></trkpt><trkpt lat="40.128341249066715" lon="8.81818271555736"><ele>317.0</ele><time>2026-04-29T09:14:01.054Z</time></trkpt><trkpt lat="40.12825124916641" lon="8.81809424004658"><ele>317.0</ele><time>2026-04-29T09:14:02.054Z</time></trkpt><trkpt lat="40.12816121369363" lon="8.818010303083781"><ele>317.0</ele><time>2026-04-29T09:14:03.054Z</time></trkpt><trkpt lat="40.1280682178217" lon="8.817924343638063"><ele>317.0</ele><time>2026-04-29T09:14:04.054Z</time></trkpt><trkpt lat="40.127972483413686" lon="8.817842553327502"><ele>317.0</ele><time>2026-04-29T09:14:05.054Z</time></trkpt><trkpt lat="40.12788218582461" lon="8.817756995339773"><ele>317.0</ele><time>2026-04-29T09:14:06.054Z</time></trkpt><trkpt lat="40.12778869408138" lon="8.81766875655251"><ele>317.0</ele><time>2026-04-29T09:14:07.054Z</time></trkpt><trkpt lat="40.12769879045243" lon="8.817576828535257"><ele>317.0</ele><time>2026-04-29T09:14:08.054Z</time></trkpt><trkpt lat="40.12761308832879" lon="8.817495500314244"><ele>317.0</ele><time>2026-04-29T09:14:09.054Z</time></trkpt><trkpt lat="40.12753578587548" lon="8.81743216811757"><ele>317.0</ele><time>2026-04-29T09:14:10.054Z</time></trkpt><trkpt lat="40.12747112445548" lon="8.817375407196723"><ele>317.0</ele><time>2026-04-29T09:14:11.054Z</time></trkpt><trkpt lat="40.12741261630578" lon="8.81731601048495"><ele>317.0</ele><time>2026-04-29T09:14:13.054Z</time></trkpt><trkpt lat="40.12743375484086" lon="8.817229052698952"><ele>317.0</ele><time>2026-04-29T09:14:15.054Z</time></trkpt><trkpt lat="40.12748244680574" lon="8.817159726690383"><ele>317.0</ele><time>2026-04-29T09:14:16.054Z</time></trkpt><trkpt lat="40.12752012615278" lon="8.81708304500379"><ele>317.0</ele><time>2026-04-29T09:14:17.054Z</time></trkpt><trkpt lat="40.12757400418266" lon="8.816938726556055"><ele>317.0</ele><time>2026-04-29T09:14:19.054Z</time></trkpt><trkpt lat="40.12760864053544" lon="8.816867730250122"><ele>317.0</ele><time>2026-04-29T09:14:20.054Z</time></trkpt><trkpt lat="40.12765828053692" lon="8.81675722705634"><ele>317.0</ele><time>2026-04-29T09:14:22.054Z</time></trkpt><trkpt lat="40.12770521715615" lon="8.81664456003947"><ele>317.0</ele><time>2026-04-29T09:14:24.054Z</time></trkpt><trkpt lat="40.127707554864394" lon="8.816505772184163"><ele>317.0</ele><time>2026-04-29T09:14:26.054Z</time></trkpt><trkpt lat="40.127678391839304" lon="8.816428360054415"><ele>317.0</ele><time>2026-04-29T09:14:27.054Z</time></trkpt><trkpt lat="40.12762835869195" lon="8.816365859655948"><ele>317.0</ele><time>2026-04-29T09:14:28.054Z</time></trkpt><trkpt lat="40.12756528405504" lon="8.816314805489823"><ele>317.0</ele><time>2026-04-29T09:14:29.054Z</time></trkpt><trkpt lat="40.12749748401941" lon="8.816259846032814"><ele>317.0</ele><time>2026-04-29T09:14:30.054Z</time></trkpt><trkpt lat="40.12742681720482" lon="8.81620255286825"><ele>317.0</ele><time>2026-04-29T09:14:31.054Z</time></trkpt><trkpt lat="40.127357805057734" lon="8.816142158571779"><ele>317.0</ele><time>2026-04-29T09:14:32.054Z</time></trkpt><trkpt lat="40.12729979527259" lon="8.816065660549992"><ele>317.0</ele><time>2026-04-29T09:14:33.054Z</time></trkpt><trkpt lat="40.12727228531863" lon="8.815960433531751"><ele>317.0</ele><time>2026-04-29T09:14:34.054Z</time></trkpt><trkpt lat="40.127274430952134" lon="8.815838456903307"><ele>317.0</ele><time>2026-04-29T09:14:35.054Z</time></trkpt><trkpt lat="40.12731854452991" lon="8.81571620950397"><ele>317.0</ele><time>2026-04-29T09:14:36.054Z</time></trkpt><trkpt lat="40.12738016619342" lon="8.815608397936943"><ele>317.0</ele><time>2026-04-29T09:14:37.054Z</time></trkpt><trkpt lat="40.12744675943492" lon="8.815494453918795"><ele>317.0</ele><time>2026-04-29T09:14:38.054Z</time></trkpt><trkpt lat="40.127510251758274" lon="8.815383976893239"><ele>317.25</ele><time>2026-04-29T09:14:39.054Z</time></trkpt><trkpt lat="40.127574951913154" lon="8.815260554224142"><ele>317.5</ele><time>2026-04-29T09:14:40.054Z</time></trkpt><trkpt lat="40.12764278385841" lon="8.815145359488127"><ele>317.75</ele><time>2026-04-29T09:14:41.055Z</time></trkpt><trkpt lat="40.12770689390764" lon="8.81501855753855"><ele>318.0</ele><time>2026-04-29T09:14:42.055Z</time></trkpt><trkpt lat="40.12776519712559" lon="8.814895840401874"><ele>318.0</ele><time>2026-04-29T09:14:43.055Z</time></trkpt><trkpt lat="40.12783171464442" lon="8.814769550813844"><ele>318.0</ele><time>2026-04-29T09:14:44.055Z</time></trkpt><trkpt lat="40.127898336413836" lon="8.81464130844103"><ele>318.0</ele><time>2026-04-29T09:14:45.055Z</time></trkpt><trkpt lat="40.127964901010095" lon="8.814525782149806"><ele>318.0</ele><time>2026-04-29T09:14:46.055Z</time></trkpt><trkpt lat="40.12802204539586" lon="8.814415396718482"><ele>318.0</ele><time>2026-04-29T09:14:47.056Z</time></trkpt><trkpt lat="40.128079260668656" lon="8.814317202783348"><ele>318.0</ele><time>2026-04-29T09:14:48.055Z</time></trkpt><trkpt lat="40.128123357859124" lon="8.814228620344176"><ele>318.0</ele><time>2026-04-29T09:14:49.055Z</time></trkpt><trkpt lat="40.12816823977503" lon="8.814155629172296"><ele>318.0</ele><time>2026-04-29T09:14:50.056Z</time></trkpt><trkpt lat="40.12823301379356" lon="8.814058681105257"><ele>318.0</ele><time>2026-04-29T09:14:52.055Z</time></trkpt><trkpt lat="40.128276699798754" lon="8.81397866824636"><ele>318.0</ele><time>2026-04-29T09:14:54.055Z</time></trkpt><trkpt lat="40.12831960789433" lon="8.813918312339654"><ele>318.0</ele><time>2026-04-29T09:15:06.055Z</time></trkpt><trkpt lat="40.128397663654084" lon="8.813791826649599"><ele>318.0</ele><time>2026-04-29T09:15:08.055Z</time></trkpt><trkpt lat="40.12844050992569" lon="8.813704056898626"><ele>318.0</ele><time>2026-04-29T09:15:09.055Z</time></trkpt><trkpt lat="40.12848939490841" lon="8.813602771508775"><ele>318.0</ele><time>2026-04-29T09:15:10.055Z</time></trkpt><trkpt lat="40.12854519657401" lon="8.81350518085363"><ele>318.0</ele><time>2026-04-29T09:15:11.055Z</time></trkpt><trkpt lat="40.12861084538464" lon="8.813398672289532"><ele>318.0</ele><time>2026-04-29T09:15:12.055Z</time></trkpt><trkpt lat="40.12868192473383" lon="8.8132616983717"><ele>318.0</ele><time>2026-04-29T09:15:13.055Z</time></trkpt><trkpt lat="40.12875389859906" lon="8.813119019287738"><ele>318.0</ele><time>2026-04-29T09:15:14.055Z</time></trkpt><trkpt lat="40.128822036059546" lon="8.812984128582409"><ele>318.0</ele><time>2026-04-29T09:15:15.055Z</time></trkpt><trkpt lat="40.12889258843212" lon="8.812841371026167"><ele>318.0</ele><time>2026-04-29T09:15:16.055Z</time></trkpt><trkpt lat="40.128956851639806" lon="8.812698013566502"><ele>318.0</ele><time>2026-04-29T09:15:17.055Z</time></trkpt><trkpt lat="40.12902246336672" lon="8.812544301356764"><ele>318.0</ele><time>2026-04-29T09:15:18.055Z</time></trkpt><trkpt lat="40.12908742076583" lon="8.812385243126679"><ele>318.0</ele><time>2026-04-29T09:15:19.055Z</time></trkpt><trkpt lat="40.12914531385427" lon="8.812231486242682"><ele>318.0</ele><time>2026-04-29T09:15:20.055Z</time></trkpt><trkpt lat="40.12920673987028" lon="8.812078343176418"><ele>318.75</ele><time>2026-04-29T09:15:21.055Z</time></trkpt><trkpt lat="40.12926316245172" lon="8.811921229046952"><ele>319.5</ele><time>2026-04-29T09:15:22.055Z</time></trkpt><trkpt lat="40.129322607004845" lon="8.81176215234962"><ele>320.25</ele><time>2026-04-29T09:15:23.055Z</time></trkpt><trkpt lat="40.12938296877213" lon="8.811604846297127"><ele>321.0</ele><time>2026-04-29T09:15:24.055Z</time></trkpt><trkpt lat="40.129446228027035" lon="8.811441081818145"><ele>321.0</ele><time>2026-04-29T09:15:25.055Z</time></trkpt><trkpt lat="40.1295095870848" lon="8.811284695821204"><ele>321.0</ele><time>2026-04-29T09:15:26.055Z</time></trkpt><trkpt lat="40.12957217392308" lon="8.81112244124775"><ele>321.0</ele><time>2026-04-29T09:15:27.055Z</time></trkpt><trkpt lat="40.12962885616755" lon="8.810973655033472"><ele>321.0</ele><time>2026-04-29T09:15:28.055Z</time></trkpt><trkpt lat="40.129678065981196" lon="8.81084056107542"><ele>321.0</ele><time>2026-04-29T09:15:29.055Z</time></trkpt><trkpt lat="40.129728787852095" lon="8.810733757887585"><ele>321.0</ele><time>2026-04-29T09:15:30.055Z</time></trkpt><trkpt lat="40.12975742526719" lon="8.810649070088274"><ele>321.0</ele><time>2026-04-29T09:15:31.055Z</time></trkpt><trkpt lat="40.129787437437216" lon="8.810550350854232"><ele>321.0</ele><time>2026-04-29T09:15:33.055Z</time></trkpt><trkpt lat="40.12973080413698" lon="8.81045279095699"><ele>321.0</ele><time>2026-04-29T09:15:36.055Z</time></trkpt><trkpt lat="40.129706497263506" lon="8.810362362296162"><ele>321.0</ele><time>2026-04-29T09:15:38.055Z</time></trkpt><trkpt lat="40.129698180901684" lon="8.810228653419497"><ele>321.0</ele><time>2026-04-29T09:18:04.056Z</time></trkpt><trkpt lat="40.129772701187285" lon="8.810204401784874"><ele>321.0</ele><time>2026-04-29T09:25:39.061Z</time></trkpt><trkpt lat="40.12983542441181" lon="8.810170091614687"><ele>321.0</ele><time>2026-04-29T09:25:43.061Z</time></trkpt><trkpt lat="40.1298982375357" lon="8.810149498794011"><ele>321.0</ele><time>2026-04-29T09:26:08.061Z</time></trkpt><trkpt lat="40.12996681381885" lon="8.810118055924992"><ele>321.0</ele><time>2026-04-29T09:26:10.061Z</time></trkpt><trkpt lat="40.130016296926556" lon="8.81000906514359"><ele>321.0</ele><time>2026-04-29T09:26:12.061Z</time></trkpt><trkpt lat="40.130061141589536" lon="8.80989580653471"><ele>321.3333333333333</ele><time>2026-04-29T09:26:14.061Z</time></trkpt><trkpt lat="40.13010560937501" lon="8.80976736613671"><ele>321.6666666666667</ele><time>2026-04-29T09:26:16.061Z</time></trkpt><trkpt lat="40.13015608316977" lon="8.809627671347842"><ele>322.0</ele><time>2026-04-29T09:26:18.061Z</time></trkpt><trkpt lat="40.1301820510674" lon="8.809551775416079"><ele>322.33333333333337</ele><time>2026-04-29T09:26:19.061Z</time></trkpt><trkpt lat="40.13021294919268" lon="8.809477118536211"><ele>322.6666666666667</ele><time>2026-04-29T09:26:20.061Z</time></trkpt><trkpt lat="40.130244311070676" lon="8.809398156867413"><ele>323.0</ele><time>2026-04-29T09:26:21.061Z</time></trkpt><trkpt lat="40.13027476681759" lon="8.809317965783098"><ele>323.0</ele><time>2026-04-29T09:26:22.061Z</time></trkpt><trkpt lat="40.130304826750475" lon="8.809242290910127"><ele>323.0</ele><time>2026-04-29T09:26:23.061Z</time></trkpt><trkpt lat="40.13036677941335" lon="8.809097690237794"><ele>323.0</ele><time>2026-04-29T09:26:25.061Z</time></trkpt><trkpt lat="40.13041989401547" lon="8.808960076629027"><ele>323.0</ele><time>2026-04-29T09:26:27.061Z</time></trkpt><trkpt lat="40.13047511450051" lon="8.808822588778481"><ele>323.0</ele><time>2026-04-29T09:26:29.061Z</time></trkpt><trkpt lat="40.13050930969649" lon="8.808745695798821"><ele>323.0</ele><time>2026-04-29T09:26:30.061Z</time></trkpt><trkpt lat="40.13054432069351" lon="8.808664027897215"><ele>323.0</ele><time>2026-04-29T09:26:31.061Z</time></trkpt><trkpt lat="40.130578447899246" lon="8.808570222139327"><ele>323.0</ele><time>2026-04-29T09:26:32.061Z</time></trkpt><trkpt lat="40.13061694948519" lon="8.808469900100585"><ele>323.0</ele><time>2026-04-29T09:26:33.061Z</time></trkpt><trkpt lat="40.130662329208064" lon="8.80836924491853"><ele>323.0</ele><time>2026-04-29T09:26:34.061Z</time></trkpt><trkpt lat="40.13071281081375" lon="8.808260757510306"><ele>323.0</ele><time>2026-04-29T09:26:35.061Z</time></trkpt><trkpt lat="40.130763129009594" lon="8.80814672747301"><ele>323.0</ele><time>2026-04-29T09:26:36.061Z</time></trkpt><trkpt lat="40.1308122001799" lon="8.808026843213858"><ele>323.0</ele><time>2026-04-29T09:26:37.061Z</time></trkpt><trkpt lat="40.130864086801616" lon="8.807903431548135"><ele>323.0</ele><time>2026-04-29T09:26:38.061Z</time></trkpt><trkpt lat="40.13092468887082" lon="8.807782422446987"><ele>323.0</ele><time>2026-04-29T09:26:39.061Z</time></trkpt><trkpt lat="40.130979673149426" lon="8.807655111214634"><ele>323.0</ele><time>2026-04-29T09:26:40.061Z</time></trkpt><trkpt lat="40.13103708351827" lon="8.807522828648827"><ele>322.75</ele><time>2026-04-29T09:26:41.061Z</time></trkpt><trkpt lat="40.13109878374837" lon="8.807386629843855"><ele>322.5</ele><time>2026-04-29T09:26:42.061Z</time></trkpt><trkpt lat="40.13116143460705" lon="8.807242508523542"><ele>322.25</ele><time>2026-04-29T09:26:43.061Z</time></trkpt><trkpt lat="40.1312250649263" lon="8.807098154244045"><ele>322.0</ele><time>2026-04-29T09:26:44.061Z</time></trkpt><trkpt lat="40.131291370815156" lon="8.80694888851369"><ele>321.75</ele><time>2026-04-29T09:26:45.061Z</time></trkpt><trkpt lat="40.131355582289686" lon="8.806794708681622"><ele>321.5</ele><time>2026-04-29T09:26:46.061Z</time></trkpt><trkpt lat="40.13142341468955" lon="8.806637723052916"><ele>321.25</ele><time>2026-04-29T09:26:47.061Z</time></trkpt><trkpt lat="40.13149653666051" lon="8.806471609861012"><ele>321.0</ele><time>2026-04-29T09:26:48.061Z</time></trkpt><trkpt lat="40.13157489169154" lon="8.806300830679884"><ele>322.0</ele><time>2026-04-29T09:26:49.061Z</time></trkpt><trkpt lat="40.131659025044144" lon="8.80612531715089"><ele>323.0</ele><time>2026-04-29T09:26:50.061Z</time></trkpt><trkpt lat="40.13173900140884" lon="8.805933018933505"><ele>324.0</ele><time>2026-04-29T09:26:51.061Z</time></trkpt><trkpt lat="40.1318315006903" lon="8.805736700515245"><ele>324.0</ele><time>2026-04-29T09:26:52.061Z</time></trkpt><trkpt lat="40.131928362645056" lon="8.805529520562926"><ele>324.0</ele><time>2026-04-29T09:26:53.061Z</time></trkpt><trkpt lat="40.13202302554149" lon="8.805304092308424"><ele>324.0</ele><time>2026-04-29T09:26:54.061Z</time></trkpt><trkpt lat="40.13211690443599" lon="8.805074149841648"><ele>324.0</ele><time>2026-04-29T09:26:55.061Z</time></trkpt><trkpt lat="40.132209615139466" lon="8.8048318345496"><ele>324.0</ele><time>2026-04-29T09:26:56.061Z</time></trkpt><trkpt lat="40.13229839367111" lon="8.804578223681807"><ele>324.0</ele><time>2026-04-29T09:26:57.061Z</time></trkpt><trkpt lat="40.13236986572732" lon="8.804321923171436"><ele>324.6666666666667</ele><time>2026-04-29T09:26:58.061Z</time></trkpt><trkpt lat="40.13242995847137" lon="8.80405916466327"><ele>325.33333333333337</ele><time>2026-04-29T09:26:59.061Z</time></trkpt><trkpt lat="40.132487775435216" lon="8.80380172589003"><ele>326.0</ele><time>2026-04-29T09:27:00.061Z</time></trkpt><trkpt lat="40.13254154348777" lon="8.803537602350364"><ele>326.6666666666667</ele><time>2026-04-29T09:27:01.061Z</time></trkpt><trkpt lat="40.132601906686105" lon="8.803272471959831"><ele>327.3333333333333</ele><time>2026-04-29T09:27:02.061Z</time></trkpt><trkpt lat="40.132659865221726" lon="8.803019185018528"><ele>328.0</ele><time>2026-04-29T09:27:03.061Z</time></trkpt><trkpt lat="40.13271516652701" lon="8.802764301839206"><ele>327.66666666666663</ele><time>2026-04-29T09:27:04.061Z</time></trkpt><trkpt lat="40.13277137361456" lon="8.802499227988042"><ele>327.3333333333333</ele><time>2026-04-29T09:27:05.061Z</time></trkpt><trkpt lat="40.13282577133386" lon="8.802240076915986"><ele>327.0</ele><time>2026-04-29T09:27:06.061Z</time></trkpt><trkpt lat="40.132883189538205" lon="8.801977885643153"><ele>327.0</ele><time>2026-04-29T09:27:07.061Z</time></trkpt><trkpt lat="40.13293816363046" lon="8.80171888216812"><ele>327.0</ele><time>2026-04-29T09:27:08.061Z</time></trkpt><trkpt lat="40.13299663175249" lon="8.801459809438295"><ele>327.0</ele><time>2026-04-29T09:27:09.061Z</time></trkpt><trkpt lat="40.133054817300604" lon="8.801198316082509"><ele>327.0</ele><time>2026-04-29T09:27:10.061Z</time></trkpt><trkpt lat="40.1331115436276" lon="8.800930946737337"><ele>327.0</ele><time>2026-04-29T09:27:11.061Z</time></trkpt><trkpt lat="40.133171267667194" lon="8.80066038665472"><ele>327.0</ele><time>2026-04-29T09:27:12.061Z</time></trkpt><trkpt lat="40.13322737401457" lon="8.800398790150952"><ele>327.6666666666667</ele><time>2026-04-29T09:27:13.061Z</time></trkpt><trkpt lat="40.133285180960506" lon="8.800129674354613"><ele>328.33333333333337</ele><time>2026-04-29T09:27:14.061Z</time></trkpt><trkpt lat="40.13333962995755" lon="8.799859511416102"><ele>329.0</ele><time>2026-04-29T09:27:15.063Z</time></trkpt><trkpt lat="40.13339797809334" lon="8.799590920219428"><ele>329.33333333333337</ele><time>2026-04-29T09:27:16.062Z</time></trkpt><trkpt lat="40.133455212122" lon="8.799320877345469"><ele>329.6666666666667</ele><time>2026-04-29T09:27:17.062Z</time></trkpt><trkpt lat="40.13350826783125" lon="8.799052194064268"><ele>330.0</ele><time>2026-04-29T09:27:18.062Z</time></trkpt><trkpt lat="40.13357038714814" lon="8.798779617510514"><ele>330.0</ele><time>2026-04-29T09:27:19.062Z</time></trkpt><trkpt lat="40.13363224074694" lon="8.798504533792975"><ele>330.0</ele><time>2026-04-29T09:27:20.062Z</time></trkpt><trkpt lat="40.13368890075432" lon="8.798234054331962"><ele>330.0</ele><time>2026-04-29T09:27:21.062Z</time></trkpt><trkpt lat="40.13374811328688" lon="8.797963315977912"><ele>329.6666666666667</ele><time>2026-04-29T09:27:22.062Z</time></trkpt><trkpt lat="40.13381018689681" lon="8.79768679829804"><ele>329.33333333333337</ele><time>2026-04-29T09:27:23.062Z</time></trkpt><trkpt lat="40.13386822418917" lon="8.7974103619409"><ele>329.0</ele><time>2026-04-29T09:27:24.062Z</time></trkpt><trkpt lat="40.13392490114343" lon="8.797138721732924"><ele>328.6666666666667</ele><time>2026-04-29T09:27:25.062Z</time></trkpt><trkpt lat="40.13398391677775" lon="8.796872608989352"><ele>328.3333333333333</ele><time>2026-04-29T09:27:26.062Z</time></trkpt><trkpt lat="40.13404291291963" lon="8.79660681002109"><ele>328.0</ele><time>2026-04-29T09:27:27.062Z</time></trkpt><trkpt lat="40.134102020220375" lon="8.79634157144739"><ele>328.0</ele><time>2026-04-29T09:27:28.062Z</time></trkpt><trkpt lat="40.134160396078215" lon="8.796077271042998"><ele>328.0</ele><time>2026-04-29T09:27:29.062Z</time></trkpt><trkpt lat="40.13421795931353" lon="8.795814388575316"><ele>328.0</ele><time>2026-04-29T09:27:30.062Z</time></trkpt><trkpt lat="40.13427550076707" lon="8.79555547156757"><ele>327.66666666666663</ele><time>2026-04-29T09:27:31.062Z</time></trkpt><trkpt lat="40.134333079017786" lon="8.795295955407628"><ele>327.3333333333333</ele><time>2026-04-29T09:27:32.062Z</time></trkpt><trkpt lat="40.13438764766099" lon="8.795034817153487"><ele>327.0</ele><time>2026-04-29T09:27:33.062Z</time></trkpt><trkpt lat="40.13444431946527" lon="8.794773547772529"><ele>327.0</ele><time>2026-04-29T09:27:34.062Z</time></trkpt><trkpt lat="40.1344999274012" lon="8.794514580204545"><ele>327.0</ele><time>2026-04-29T09:27:35.062Z</time></trkpt><trkpt lat="40.1345556039572" lon="8.794255047174113"><ele>327.0</ele><time>2026-04-29T09:27:36.062Z</time></trkpt><trkpt lat="40.1346096931041" lon="8.793996473679844"><ele>327.3333333333333</ele><time>2026-04-29T09:27:37.062Z</time></trkpt><trkpt lat="40.13466843667612" lon="8.793735980175486"><ele>327.66666666666663</ele><time>2026-04-29T09:27:38.062Z</time></trkpt><trkpt lat="40.134726256002565" lon="8.793475683315892"><ele>328.0</ele><time>2026-04-29T09:27:39.062Z</time></trkpt><trkpt lat="40.13478408657762" lon="8.79321439466064"><ele>328.0</ele><time>2026-04-29T09:27:40.062Z</time></trkpt><trkpt lat="40.13484161620001" lon="8.792952653149271"><ele>328.0</ele><time>2026-04-29T09:27:41.062Z</time></trkpt><trkpt lat="40.13490023198043" lon="8.792683282486756"><ele>328.0</ele><time>2026-04-29T09:27:42.062Z</time></trkpt><trkpt lat="40.13495758467678" lon="8.79242010700064"><ele>328.0</ele><time>2026-04-29T09:27:43.062Z</time></trkpt><trkpt lat="40.1350124007421" lon="8.792157527939123"><ele>328.0</ele><time>2026-04-29T09:27:44.062Z</time></trkpt><trkpt lat="40.135067802779346" lon="8.791893033810588"><ele>328.0</ele><time>2026-04-29T09:27:45.062Z</time></trkpt><trkpt lat="40.13512695033852" lon="8.791627928866957"><ele>328.3333333333333</ele><time>2026-04-29T09:27:46.062Z</time></trkpt><trkpt lat="40.13518510289933" lon="8.791363634595536"><ele>328.6666666666667</ele><time>2026-04-29T09:27:47.062Z</time></trkpt><trkpt lat="40.13524313768673" lon="8.791092915104265"><ele>329.0</ele><time>2026-04-29T09:27:48.062Z</time></trkpt><trkpt lat="40.135301647294185" lon="8.790816360499019"><ele>329.33333333333337</ele><time>2026-04-29T09:27:49.062Z</time></trkpt><trkpt lat="40.13536012463441" lon="8.790549202230224"><ele>329.6666666666667</ele><time>2026-04-29T09:27:50.062Z</time></trkpt><trkpt lat="40.135418181576085" lon="8.790281625633273"><ele>330.0</ele><time>2026-04-29T09:27:51.062Z</time></trkpt><trkpt lat="40.1354757837096" lon="8.790015411181189"><ele>330.3333333333333</ele><time>2026-04-29T09:27:52.062Z</time></trkpt><trkpt lat="40.13553820393497" lon="8.78975043833509"><ele>330.66666666666663</ele><time>2026-04-29T09:27:53.062Z</time></trkpt><trkpt lat="40.135590331197335" lon="8.78947863407248"><ele>331.0</ele><time>2026-04-29T09:27:54.062Z</time></trkpt><trkpt lat="40.135651389380016" lon="8.789214351228482"><ele>331.3333333333333</ele><time>2026-04-29T09:27:55.062Z</time></trkpt><trkpt lat="40.1357091990556" lon="8.788950622430955"><ele>331.6666666666667</ele><time>2026-04-29T09:27:56.062Z</time></trkpt><trkpt lat="40.13576764714936" lon="8.788682865529275"><ele>332.0</ele><time>2026-04-29T09:27:57.062Z</time></trkpt><trkpt lat="40.13582308151774" lon="8.78841127539013"><ele>332.33333333333337</ele><time>2026-04-29T09:27:58.062Z</time></trkpt><trkpt lat="40.135882200564765" lon="8.788142881615608"><ele>332.6666666666667</ele><time>2026-04-29T09:27:59.062Z</time></trkpt><trkpt lat="40.135940887246825" lon="8.787874684080732"><ele>333.0</ele><time>2026-04-29T09:28:00.062Z</time></trkpt><trkpt lat="40.135997660482296" lon="8.787600883917438"><ele>333.0</ele><time>2026-04-29T09:28:01.062Z</time></trkpt><trkpt lat="40.136055628475944" lon="8.787327947100668"><ele>333.0</ele><time>2026-04-29T09:28:02.062Z</time></trkpt><trkpt lat="40.13611412606287" lon="8.787057848386379"><ele>333.0</ele><time>2026-04-29T09:28:03.062Z</time></trkpt><trkpt lat="40.13617256800753" lon="8.786788860243123"><ele>333.6666666666667</ele><time>2026-04-29T09:28:04.062Z</time></trkpt><trkpt lat="40.136232472696186" lon="8.786518050637785"><ele>334.33333333333337</ele><time>2026-04-29T09:28:05.062Z</time></trkpt><trkpt lat="40.136290650906204" lon="8.786244452837167"><ele>335.0</ele><time>2026-04-29T09:28:06.062Z</time></trkpt><trkpt lat="40.13634893552707" lon="8.785971978582628"><ele>335.0</ele><time>2026-04-29T09:28:07.062Z</time></trkpt><trkpt lat="40.136406782607274" lon="8.78569368868188"><ele>335.0</ele><time>2026-04-29T09:28:08.062Z</time></trkpt><trkpt lat="40.136461516768144" lon="8.785416573695816"><ele>335.0</ele><time>2026-04-29T09:28:09.062Z</time></trkpt><trkpt lat="40.1365233263188" lon="8.785139159104558"><ele>335.0</ele><time>2026-04-29T09:28:10.062Z</time></trkpt><trkpt lat="40.13658562302309" lon="8.784865848454034"><ele>335.0</ele><time>2026-04-29T09:28:11.062Z</time></trkpt><trkpt lat="40.13664274191982" lon="8.78459232780198"><ele>335.0</ele><time>2026-04-29T09:28:12.062Z</time></trkpt><trkpt lat="40.136697702435804" lon="8.784317927744281"><ele>335.0</ele><time>2026-04-29T09:28:13.062Z</time></trkpt><trkpt lat="40.136748491714414" lon="8.784050965990437"><ele>335.0</ele><time>2026-04-29T09:28:14.062Z</time></trkpt><trkpt lat="40.13680285061175" lon="8.783783500862656"><ele>335.0</ele><time>2026-04-29T09:28:15.062Z</time></trkpt><trkpt lat="40.13686018542759" lon="8.783512801276796"><ele>336.0</ele><time>2026-04-29T09:28:16.062Z</time></trkpt><trkpt lat="40.13692156922957" lon="8.783238240243875"><ele>337.0</ele><time>2026-04-29T09:28:17.062Z</time></trkpt><trkpt lat="40.13698263122148" lon="8.782968175883207"><ele>338.0</ele><time>2026-04-29T09:28:18.062Z</time></trkpt><trkpt lat="40.13703634980245" lon="8.782691548212572"><ele>337.6666666666667</ele><time>2026-04-29T09:28:19.062Z</time></trkpt><trkpt lat="40.13709361240734" lon="8.782414698293028"><ele>337.3333333333333</ele><time>2026-04-29T09:28:20.062Z</time></trkpt><trkpt lat="40.13715625550242" lon="8.782143140787639"><ele>337.0</ele><time>2026-04-29T09:28:21.062Z</time></trkpt><trkpt lat="40.13721398539719" lon="8.781869844570956"><ele>337.0</ele><time>2026-04-29T09:28:22.062Z</time></trkpt><trkpt lat="40.137268629899864" lon="8.78159544130152"><ele>337.0</ele><time>2026-04-29T09:28:23.062Z</time></trkpt><trkpt lat="40.13732303089055" lon="8.781324091529138"><ele>337.0</ele><time>2026-04-29T09:28:24.062Z</time></trkpt><trkpt lat="40.13737680153603" lon="8.781051139183958"><ele>338.0</ele><time>2026-04-29T09:28:25.062Z</time></trkpt><trkpt lat="40.13743423687966" lon="8.78078112162664"><ele>339.0</ele><time>2026-04-29T09:28:26.062Z</time></trkpt><trkpt lat="40.13749278980212" lon="8.780506707655157"><ele>340.0</ele><time>2026-04-29T09:28:27.062Z</time></trkpt><trkpt lat="40.137555379337286" lon="8.780230360740763"><ele>339.66666666666663</ele><time>2026-04-29T09:28:28.062Z</time></trkpt><trkpt lat="40.13761619451358" lon="8.779956677811098"><ele>339.3333333333333</ele><time>2026-04-29T09:28:29.062Z</time></trkpt><trkpt lat="40.13767440912748" lon="8.779684876934656"><ele>339.0</ele><time>2026-04-29T09:28:30.062Z</time></trkpt><trkpt lat="40.13773179731188" lon="8.779410351055159"><ele>339.3333333333333</ele><time>2026-04-29T09:28:31.062Z</time></trkpt><trkpt lat="40.13778917210209" lon="8.779136406355404"><ele>339.66666666666663</ele><time>2026-04-29T09:28:32.062Z</time></trkpt><trkpt lat="40.13784814817857" lon="8.778860867421791"><ele>340.0</ele><time>2026-04-29T09:28:33.062Z</time></trkpt><trkpt lat="40.13790630667671" lon="8.778590045278808"><ele>339.66666666666663</ele><time>2026-04-29T09:28:34.062Z</time></trkpt><trkpt lat="40.13796315080227" lon="8.77831937221802"><ele>339.3333333333333</ele><time>2026-04-29T09:28:35.062Z</time></trkpt><trkpt lat="40.13801858012762" lon="8.778051787004454"><ele>339.0</ele><time>2026-04-29T09:28:36.062Z</time></trkpt><trkpt lat="40.13807557127474" lon="8.777779801023247"><ele>338.6666666666667</ele><time>2026-04-29T09:28:37.062Z</time></trkpt><trkpt lat="40.138136805170575" lon="8.777505375732904"><ele>338.33333333333337</ele><time>2026-04-29T09:28:38.062Z</time></trkpt><trkpt lat="40.13819400058803" lon="8.777228488380937"><ele>338.0</ele><time>2026-04-29T09:28:39.062Z</time></trkpt><trkpt lat="40.13825164295264" lon="8.776949955631618"><ele>338.0</ele><time>2026-04-29T09:28:40.062Z</time></trkpt><trkpt lat="40.13831242917813" lon="8.776665744341008"><ele>338.0</ele><time>2026-04-29T09:28:41.062Z</time></trkpt><trkpt lat="40.138373597991105" lon="8.77638232059964"><ele>338.0</ele><time>2026-04-29T09:28:42.062Z</time></trkpt><trkpt lat="40.13843646366571" lon="8.77609328703589"><ele>338.0</ele><time>2026-04-29T09:28:43.062Z</time></trkpt><trkpt lat="40.138493181583925" lon="8.775800716507016"><ele>338.5</ele><time>2026-04-29T09:28:44.062Z</time></trkpt><trkpt lat="40.13855126621917" lon="8.775509557796505"><ele>339.0</ele><time>2026-04-29T09:28:45.062Z</time></trkpt><trkpt lat="40.13861402363289" lon="8.775214676850073"><ele>338.3333333333333</ele><time>2026-04-29T09:28:46.062Z</time></trkpt><trkpt lat="40.13867596095128" lon="8.774934282097643"><ele>337.66666666666663</ele><time>2026-04-29T09:28:47.062Z</time></trkpt><trkpt lat="40.138748338800475" lon="8.774660621622361"><ele>337.0</ele><time>2026-04-29T09:28:48.062Z</time></trkpt><trkpt lat="40.138809958331805" lon="8.7743821134005"><ele>336.3333333333333</ele><time>2026-04-29T09:28:49.062Z</time></trkpt><trkpt lat="40.1388683317854" lon="8.774101624236412"><ele>335.6666666666667</ele><time>2026-04-29T09:28:50.062Z</time></trkpt><trkpt lat="40.13892912039013" lon="8.773819687687016"><ele>335.0</ele><time>2026-04-29T09:28:51.062Z</time></trkpt><trkpt lat="40.13898740846103" lon="8.77354176407254"><ele>335.0</ele><time>2026-04-29T09:28:52.062Z</time></trkpt><trkpt lat="40.13904476018529" lon="8.773263164822655"><ele>335.0</ele><time>2026-04-29T09:28:53.062Z</time></trkpt><trkpt lat="40.139100779381636" lon="8.772987783614878"><ele>335.0</ele><time>2026-04-29T09:28:54.062Z</time></trkpt><trkpt lat="40.139154017620804" lon="8.772710781613885"><ele>335.33333333333337</ele><time>2026-04-29T09:28:55.062Z</time></trkpt><trkpt lat="40.13921270581207" lon="8.772436979418197"><ele>335.6666666666667</ele><time>2026-04-29T09:28:56.062Z</time></trkpt><trkpt lat="40.13927419178295" lon="8.772158102499613"><ele>336.0</ele><time>2026-04-29T09:28:57.062Z</time></trkpt><trkpt lat="40.1393339622739" lon="8.771878494736418"><ele>336.0</ele><time>2026-04-29T09:28:58.062Z</time></trkpt><trkpt lat="40.13939208278967" lon="8.77159627082063"><ele>336.0</ele><time>2026-04-29T09:28:59.062Z</time></trkpt><trkpt lat="40.13945221954749" lon="8.771310708624519"><ele>336.0</ele><time>2026-04-29T09:29:00.062Z</time></trkpt><trkpt lat="40.139515507361686" lon="8.77102438945285"><ele>336.0</ele><time>2026-04-29T09:29:01.062Z</time></trkpt><trkpt lat="40.139568857929795" lon="8.770731842293298"><ele>335.5</ele><time>2026-04-29T09:29:02.062Z</time></trkpt><trkpt lat="40.139625996517026" lon="8.77043950308288"><ele>335.0</ele><time>2026-04-29T09:29:03.062Z</time></trkpt><trkpt lat="40.13968324112578" lon="8.770148928141808"><ele>334.5</ele><time>2026-04-29T09:29:04.062Z</time></trkpt><trkpt lat="40.13974068683135" lon="8.769856903865724"><ele>334.0</ele><time>2026-04-29T09:29:05.062Z</time></trkpt><trkpt lat="40.13978568728393" lon="8.769564234016666"><ele>333.0</ele><time>2026-04-29T09:29:06.062Z</time></trkpt><trkpt lat="40.13979660356352" lon="8.769254831288386"><ele>332.0</ele><time>2026-04-29T09:29:07.062Z</time></trkpt><trkpt lat="40.139796818282015" lon="8.768943863739448"><ele>332.0</ele><time>2026-04-29T09:29:08.062Z</time></trkpt><trkpt lat="40.13978915201993" lon="8.768623481180995"><ele>332.0</ele><time>2026-04-29T09:29:09.062Z</time></trkpt><trkpt lat="40.13976797769743" lon="8.768300570812963"><ele>332.0</ele><time>2026-04-29T09:29:10.062Z</time></trkpt><trkpt lat="40.13974265689384" lon="8.767989637373887"><ele>332.0</ele><time>2026-04-29T09:29:11.062Z</time></trkpt><trkpt lat="40.13970718480919" lon="8.767671053405605"><ele>332.0</ele><time>2026-04-29T09:29:12.062Z</time></trkpt><trkpt lat="40.13967249742598" lon="8.767330436440659"><ele>332.0</ele><time>2026-04-29T09:29:13.062Z</time></trkpt><trkpt lat="40.139634598373824" lon="8.766977499974903"><ele>332.5</ele><time>2026-04-29T09:29:14.062Z</time></trkpt><trkpt lat="40.139602488667" lon="8.766625938061951"><ele>333.0</ele><time>2026-04-29T09:29:15.062Z</time></trkpt><trkpt lat="40.13956302946011" lon="8.766281656670113"><ele>335.0</ele><time>2026-04-29T09:29:16.062Z</time></trkpt><trkpt lat="40.140410932439245" lon="8.766581999193379"><ele>335.0</ele><time>2026-04-29T09:29:17.062Z</time></trkpt><trkpt lat="40.14039866584438" lon="8.766312083125971"><ele>335.0</ele><time>2026-04-29T09:29:18.062Z</time></trkpt><trkpt lat="40.1403614779734" lon="8.766037506064718"><ele>335.0</ele><time>2026-04-29T09:29:19.062Z</time></trkpt><trkpt lat="40.14032710676516" lon="8.765761733496824"><ele>335.0</ele><time>2026-04-29T09:29:20.062Z</time></trkpt><trkpt lat="40.14030193870672" lon="8.765479251499519"><ele>335.0</ele><time>2026-04-29T09:29:21.063Z</time></trkpt><trkpt lat="40.14027544780433" lon="8.765192667292839"><ele>335.0</ele><time>2026-04-29T09:29:22.063Z</time></trkpt><trkpt lat="40.14024770085086" lon="8.764909243871049"><ele>335.0</ele><time>2026-04-29T09:29:23.063Z</time></trkpt><trkpt lat="40.14021913250456" lon="8.764613253106546"><ele>335.0</ele><time>2026-04-29T09:29:24.063Z</time></trkpt><trkpt lat="40.14018454965896" lon="8.76431784133025"><ele>334.0</ele><time>2026-04-29T09:29:25.062Z</time></trkpt><trkpt lat="40.14014260345165" lon="8.764024548676142"><ele>333.0</ele><time>2026-04-29T09:29:26.062Z</time></trkpt><trkpt lat="40.140085216973596" lon="8.763734408898952"><ele>334.5</ele><time>2026-04-29T09:29:27.063Z</time></trkpt><trkpt lat="40.140028285812015" lon="8.763443418988862"><ele>336.0</ele><time>2026-04-29T09:29:28.063Z</time></trkpt><trkpt lat="40.139966496512066" lon="8.763158185547205"><ele>336.0</ele><time>2026-04-29T09:29:29.063Z</time></trkpt><trkpt lat="40.13991331681843" lon="8.762875439509397"><ele>336.0</ele><time>2026-04-29T09:29:30.063Z</time></trkpt><trkpt lat="40.13985348831724" lon="8.76258971959898"><ele>336.0</ele><time>2026-04-29T09:29:31.063Z</time></trkpt><trkpt lat="40.13979587682394" lon="8.762291027528878"><ele>336.5</ele><time>2026-04-29T09:29:32.063Z</time></trkpt><trkpt lat="40.139734454199676" lon="8.76199385595656"><ele>337.0</ele><time>2026-04-29T09:29:33.063Z</time></trkpt><trkpt lat="40.139680540898794" lon="8.761698382765626"><ele>337.0</ele><time>2026-04-29T09:29:34.062Z</time></trkpt><trkpt lat="40.13962291445388" lon="8.7614034288705"><ele>337.0</ele><time>2026-04-29T09:29:35.062Z</time></trkpt><trkpt lat="40.13956627427669" lon="8.76110018838265"><ele>337.0</ele><time>2026-04-29T09:29:36.062Z</time></trkpt><trkpt lat="40.13950634316803" lon="8.760804311836655"><ele>337.0</ele><time>2026-04-29T09:29:37.062Z</time></trkpt><trkpt lat="40.1394448871111" lon="8.760507905301928"><ele>337.0</ele><time>2026-04-29T09:29:38.062Z</time></trkpt><trkpt lat="40.139385897590245" lon="8.760215263526113"><ele>337.0</ele><time>2026-04-29T09:29:39.062Z</time></trkpt><trkpt lat="40.13932855997389" lon="8.759919198891312"><ele>337.0</ele><time>2026-04-29T09:29:40.062Z</time></trkpt><trkpt lat="40.1392684182439" lon="8.759629746508093"><ele>337.0</ele><time>2026-04-29T09:29:41.062Z</time></trkpt><trkpt lat="40.139212894154454" lon="8.759337433744047"><ele>337.0</ele><time>2026-04-29T09:29:42.062Z</time></trkpt><trkpt lat="40.13915762782432" lon="8.759066410120516"><ele>337.0</ele><time>2026-04-29T09:29:43.062Z</time></trkpt><trkpt lat="40.13910920709892" lon="8.758810576708498"><ele>337.0</ele><time>2026-04-29T09:29:44.062Z</time></trkpt><trkpt lat="40.13905856610324" lon="8.758575189193264"><ele>337.3333333333333</ele><time>2026-04-29T09:29:45.062Z</time></trkpt><trkpt lat="40.13901447590702" lon="8.7583364718165"><ele>337.6666666666667</ele><time>2026-04-29T09:29:46.062Z</time></trkpt><trkpt lat="40.138965381283555" lon="8.75811160979266"><ele>338.0</ele><time>2026-04-29T09:29:47.062Z</time></trkpt><trkpt lat="40.13890520023539" lon="8.757866931057132"><ele>338.6666666666667</ele><time>2026-04-29T09:29:48.062Z</time></trkpt><trkpt lat="40.138847963151484" lon="8.757607749506148"><ele>339.3333333333333</ele><time>2026-04-29T09:29:49.062Z</time></trkpt><trkpt lat="40.13881157340557" lon="8.757351004586674"><ele>340.0</ele><time>2026-04-29T09:29:50.062Z</time></trkpt><trkpt lat="40.13877663226645" lon="8.757091307954672"><ele>340.3333333333333</ele><time>2026-04-29T09:29:51.062Z</time></trkpt><trkpt lat="40.13872696421992" lon="8.756828394168439"><ele>340.6666666666667</ele><time>2026-04-29T09:29:52.062Z</time></trkpt><trkpt lat="40.13867319947011" lon="8.75656852331168"><ele>341.0</ele><time>2026-04-29T09:29:53.062Z</time></trkpt><trkpt lat="40.13861759092154" lon="8.756300976753165"><ele>341.6666666666667</ele><time>2026-04-29T09:29:54.062Z</time></trkpt><trkpt lat="40.13856357615053" lon="8.756033331780786"><ele>342.3333333333333</ele><time>2026-04-29T09:29:55.062Z</time></trkpt><trkpt lat="40.138508010006085" lon="8.75576529025138"><ele>343.0</ele><time>2026-04-29T09:29:56.062Z</time></trkpt><trkpt lat="40.13845292761558" lon="8.755500626944897"><ele>343.0</ele><time>2026-04-29T09:29:57.062Z</time></trkpt><trkpt lat="40.13839898465684" lon="8.755238920068765"><ele>343.0</ele><time>2026-04-29T09:29:58.062Z</time></trkpt><trkpt lat="40.138344881655186" lon="8.75496998347169"><ele>343.0</ele><time>2026-04-29T09:29:59.062Z</time></trkpt><trkpt lat="40.138295247999274" lon="8.754708718495763"><ele>345.0</ele><time>2026-04-29T09:30:00.062Z</time></trkpt><trkpt lat="40.13824623314715" lon="8.754440633585975"><ele>347.0</ele><time>2026-04-29T09:30:01.062Z</time></trkpt><trkpt lat="40.138189836769" lon="8.75417519425999"><ele>349.0</ele><time>2026-04-29T09:30:02.062Z</time></trkpt><trkpt lat="40.13813701504548" lon="8.753906914789503"><ele>349.3333333333333</ele><time>2026-04-29T09:30:03.062Z</time></trkpt><trkpt lat="40.138082471101335" lon="8.75364307017188"><ele>349.6666666666667</ele><time>2026-04-29T09:30:04.062Z</time></trkpt><trkpt lat="40.13803175290465" lon="8.753368198221404"><ele>350.0</ele><time>2026-04-29T09:30:05.062Z</time></trkpt><trkpt lat="40.13797578436356" lon="8.753088707413388"><ele>349.0</ele><time>2026-04-29T09:30:06.062Z</time></trkpt><trkpt lat="40.137920215466686" lon="8.752798785317655"><ele>348.0</ele><time>2026-04-29T09:30:07.062Z</time></trkpt><trkpt lat="40.137861607217566" lon="8.752510624112647"><ele>347.0</ele><time>2026-04-29T09:30:08.062Z</time></trkpt><trkpt lat="40.137803035604534" lon="8.75221766072512"><ele>346.0</ele><time>2026-04-29T09:30:09.062Z</time></trkpt><trkpt lat="40.13774039850497" lon="8.75191815173394"><ele>346.0</ele><time>2026-04-29T09:30:10.062Z</time></trkpt><trkpt lat="40.13768480642357" lon="8.75162282481325"><ele>346.0</ele><time>2026-04-29T09:30:11.062Z</time></trkpt><trkpt lat="40.137630064153804" lon="8.751322947771563"><ele>347.0</ele><time>2026-04-29T09:30:12.062Z</time></trkpt><trkpt lat="40.137571216730535" lon="8.751039477171497"><ele>348.0</ele><time>2026-04-29T09:30:13.062Z</time></trkpt><trkpt lat="40.137516157368445" lon="8.750758034455565"><ele>349.0</ele><time>2026-04-29T09:30:14.062Z</time></trkpt><trkpt lat="40.137456547476695" lon="8.750475249761905"><ele>349.0</ele><time>2026-04-29T09:30:15.062Z</time></trkpt><trkpt lat="40.13739317404235" lon="8.750187164851548"><ele>349.0</ele><time>2026-04-29T09:30:16.062Z</time></trkpt><trkpt lat="40.137339933642565" lon="8.749901863688727"><ele>348.66666666666663</ele><time>2026-04-29T09:30:17.062Z</time></trkpt><trkpt lat="40.13728519553326" lon="8.749617370856805"><ele>348.3333333333333</ele><time>2026-04-29T09:30:18.062Z</time></trkpt><trkpt lat="40.137232473803316" lon="8.749333227127508"><ele>348.0</ele><time>2026-04-29T09:30:19.062Z</time></trkpt><trkpt lat="40.137179407746956" lon="8.749047515674402"><ele>348.0</ele><time>2026-04-29T09:30:20.062Z</time></trkpt><trkpt lat="40.13712027561873" lon="8.748767625068561"><ele>348.0</ele><time>2026-04-29T09:30:21.062Z</time></trkpt><trkpt lat="40.13706124556851" lon="8.748478994949325"><ele>349.0</ele><time>2026-04-29T09:30:22.062Z</time></trkpt><trkpt lat="40.13699987845296" lon="8.74819416330339"><ele>350.0</ele><time>2026-04-29T09:30:23.062Z</time></trkpt><trkpt lat="40.13694592955086" lon="8.747908429654249"><ele>351.0</ele><time>2026-04-29T09:30:24.062Z</time></trkpt><trkpt lat="40.13689053381109" lon="8.747615135655385"><ele>352.0</ele><time>2026-04-29T09:30:25.062Z</time></trkpt><trkpt lat="40.13683140156341" lon="8.747321054012037"><ele>352.0</ele><time>2026-04-29T09:30:26.062Z</time></trkpt><trkpt lat="40.13677776807965" lon="8.747043083433148"><ele>352.0</ele><time>2026-04-29T09:30:27.062Z</time></trkpt><trkpt lat="40.13672166793697" lon="8.746762851490061"><ele>352.0</ele><time>2026-04-29T09:30:28.062Z</time></trkpt><trkpt lat="40.136673360749676" lon="8.746494888172629"><ele>353.0</ele><time>2026-04-29T09:30:29.062Z</time></trkpt><trkpt lat="40.13660535413504" lon="8.746241615214418"><ele>354.0</ele><time>2026-04-29T09:30:30.062Z</time></trkpt><trkpt lat="40.13651126586196" lon="8.746021864805696"><ele>355.0</ele><time>2026-04-29T09:30:31.062Z</time></trkpt><trkpt lat="40.13638172295196" lon="8.745789344640949"><ele>355.0</ele><time>2026-04-29T09:30:32.062Z</time></trkpt><trkpt lat="40.1362583631257" lon="8.745560026139772"><ele>355.0</ele><time>2026-04-29T09:30:33.062Z</time></trkpt><trkpt lat="40.136155592325466" lon="8.745333967130117"><ele>355.0</ele><time>2026-04-29T09:30:34.062Z</time></trkpt><trkpt lat="40.1361012938458" lon="8.745112057538606"><ele>356.66666666666663</ele><time>2026-04-29T09:30:35.062Z</time></trkpt><trkpt lat="40.13609998575245" lon="8.74487005492327"><ele>358.3333333333333</ele><time>2026-04-29T09:30:36.062Z</time></trkpt><trkpt lat="40.136157023666534" lon="8.744620645619845"><ele>360.0</ele><time>2026-04-29T09:30:37.062Z</time></trkpt><trkpt lat="40.13620618430388" lon="8.744354666347185"><ele>360.6666666666667</ele><time>2026-04-29T09:30:38.062Z</time></trkpt><trkpt lat="40.13624423934928" lon="8.744079935054355"><ele>361.33333333333337</ele><time>2026-04-29T09:30:39.062Z</time></trkpt><trkpt lat="40.136278123975416" lon="8.743798359874669"><ele>362.0</ele><time>2026-04-29T09:30:40.062Z</time></trkpt><trkpt lat="40.13631359317832" lon="8.743511314220548"><ele>362.33333333333337</ele><time>2026-04-29T09:30:41.062Z</time></trkpt><trkpt lat="40.136354076770765" lon="8.743221110740677"><ele>362.6666666666667</ele><time>2026-04-29T09:30:42.062Z</time></trkpt><trkpt lat="40.13638754355748" lon="8.74294039626544"><ele>363.0</ele><time>2026-04-29T09:30:43.062Z</time></trkpt><trkpt lat="40.13642836888016" lon="8.742655483536344"><ele>364.3333333333333</ele><time>2026-04-29T09:30:44.062Z</time></trkpt><trkpt lat="40.13647213298605" lon="8.742371382482597"><ele>365.66666666666663</ele><time>2026-04-29T09:30:45.062Z</time></trkpt><trkpt lat="40.13650590378002" lon="8.742088043982395"><ele>367.0</ele><time>2026-04-29T09:30:46.062Z</time></trkpt><trkpt lat="40.136537405452906" lon="8.74180739991305"><ele>368.0</ele><time>2026-04-29T09:30:47.062Z</time></trkpt><trkpt lat="40.13657490869405" lon="8.741525472757738"><ele>369.0</ele><time>2026-04-29T09:30:48.062Z</time></trkpt><trkpt lat="40.13661311530884" lon="8.741236586149803"><ele>370.0</ele><time>2026-04-29T09:30:49.062Z</time></trkpt><trkpt lat="40.13665687601223" lon="8.74094807278605"><ele>370.5</ele><time>2026-04-29T09:30:50.062Z</time></trkpt><trkpt lat="40.136698256043516" lon="8.740653751439567"><ele>371.0</ele><time>2026-04-29T09:30:51.062Z</time></trkpt><trkpt lat="40.13674336622126" lon="8.740355304920108"><ele>371.5</ele><time>2026-04-29T09:30:52.062Z</time></trkpt><trkpt lat="40.136787628913495" lon="8.740056897354552"><ele>372.0</ele><time>2026-04-29T09:30:53.062Z</time></trkpt><trkpt lat="40.13682162966481" lon="8.739747975406965"><ele>372.0</ele><time>2026-04-29T09:30:54.062Z</time></trkpt><trkpt lat="40.136858660110406" lon="8.739446154353143"><ele>372.0</ele><time>2026-04-29T09:30:55.062Z</time></trkpt><trkpt lat="40.13689409633717" lon="8.739140528391097"><ele>372.5</ele><time>2026-04-29T09:30:56.062Z</time></trkpt><trkpt lat="40.13693585819883" lon="8.738837747247704"><ele>373.0</ele><time>2026-04-29T09:30:57.062Z</time></trkpt><trkpt lat="40.136975343857614" lon="8.738533626067007"><ele>372.0</ele><time>2026-04-29T09:30:58.062Z</time></trkpt><trkpt lat="40.13700986911004" lon="8.738229539731735"><ele>371.0</ele><time>2026-04-29T09:30:59.062Z</time></trkpt><trkpt lat="40.137048407537094" lon="8.737924556668057"><ele>370.5</ele><time>2026-04-29T09:31:00.062Z</time></trkpt><trkpt lat="40.137092627424714" lon="8.737610092195393"><ele>370.0</ele><time>2026-04-29T09:31:01.062Z</time></trkpt><trkpt lat="40.13713649579858" lon="8.737297748169613"><ele>370.0</ele><time>2026-04-29T09:31:02.062Z</time></trkpt><trkpt lat="40.13717499088822" lon="8.736983700461652"><ele>370.0</ele><time>2026-04-29T09:31:03.062Z</time></trkpt><trkpt lat="40.13721108633927" lon="8.736674862672116"><ele>369.0</ele><time>2026-04-29T09:31:04.062Z</time></trkpt><trkpt lat="40.13724763715667" lon="8.736361572390178"><ele>368.0</ele><time>2026-04-29T09:31:05.062Z</time></trkpt><trkpt lat="40.13729580697826" lon="8.73605192746738"><ele>368.5</ele><time>2026-04-29T09:31:06.062Z</time></trkpt><trkpt lat="40.13734242991154" lon="8.7357479043429"><ele>369.0</ele><time>2026-04-29T09:31:07.062Z</time></trkpt><trkpt lat="40.13738580586957" lon="8.735437331356358"><ele>368.0</ele><time>2026-04-29T09:31:08.062Z</time></trkpt><trkpt lat="40.13742755918567" lon="8.735135950780982"><ele>367.0</ele><time>2026-04-29T09:31:09.062Z</time></trkpt><trkpt lat="40.137467295319496" lon="8.734837204474385"><ele>367.0</ele><time>2026-04-29T09:31:10.062Z</time></trkpt><trkpt lat="40.13750907435143" lon="8.734530661577237"><ele>367.0</ele><time>2026-04-29T09:31:11.062Z</time></trkpt><trkpt lat="40.13755037164462" lon="8.73422735278962"><ele>367.5</ele><time>2026-04-29T09:31:12.062Z</time></trkpt><trkpt lat="40.13758704813956" lon="8.733927780565647"><ele>368.0</ele><time>2026-04-29T09:31:13.062Z</time></trkpt><trkpt lat="40.13762471184154" lon="8.733627577903098"><ele>368.0</ele><time>2026-04-29T09:31:14.062Z</time></trkpt><trkpt lat="40.1376651630308" lon="8.733327775483552"><ele>368.0</ele><time>2026-04-29T09:31:15.062Z</time></trkpt><trkpt lat="40.13770021486523" lon="8.733031249557536"><ele>368.0</ele><time>2026-04-29T09:31:16.062Z</time></trkpt><trkpt lat="40.13774137042427" lon="8.73273438828379"><ele>368.0</ele><time>2026-04-29T09:31:17.062Z</time></trkpt><trkpt lat="40.13778583533577" lon="8.732433938882293"><ele>366.5</ele><time>2026-04-29T09:31:18.062Z</time></trkpt><trkpt lat="40.13782660702207" lon="8.732135960767405"><ele>365.0</ele><time>2026-04-29T09:31:19.062Z</time></trkpt><trkpt lat="40.137860365372994" lon="8.731841694542428"><ele>365.0</ele><time>2026-04-29T09:31:20.062Z</time></trkpt><trkpt lat="40.13789742944294" lon="8.731546323643203"><ele>365.0</ele><time>2026-04-29T09:31:21.062Z</time></trkpt><trkpt lat="40.137934905033646" lon="8.731255994570468"><ele>365.33333333333337</ele><time>2026-04-29T09:31:22.062Z</time></trkpt><trkpt lat="40.13797157952566" lon="8.730971325870255"><ele>365.6666666666667</ele><time>2026-04-29T09:31:23.062Z</time></trkpt><trkpt lat="40.13801220637536" lon="8.730678919326815"><ele>366.0</ele><time>2026-04-29T09:31:24.062Z</time></trkpt><trkpt lat="40.13804951186478" lon="8.730386488373597"><ele>366.6666666666667</ele><time>2026-04-29T09:31:25.062Z</time></trkpt><trkpt lat="40.13808440523573" lon="8.730096795188501"><ele>367.33333333333337</ele><time>2026-04-29T09:31:26.062Z</time></trkpt><trkpt lat="40.138122512579514" lon="8.729812038171787"><ele>368.0</ele><time>2026-04-29T09:31:27.063Z</time></trkpt><trkpt lat="40.13816046916121" lon="8.72952628389501"><ele>368.6666666666667</ele><time>2026-04-29T09:31:28.064Z</time></trkpt><trkpt lat="40.13819676837241" lon="8.729238281599043"><ele>369.3333333333333</ele><time>2026-04-29T09:31:29.064Z</time></trkpt><trkpt lat="40.13823394389575" lon="8.728954232544208"><ele>370.0</ele><time>2026-04-29T09:31:30.063Z</time></trkpt><trkpt lat="40.13826864015505" lon="8.728665475809917"><ele>371.3333333333333</ele><time>2026-04-29T09:31:31.064Z</time></trkpt><trkpt lat="40.13830599089625" lon="8.728375692902999"><ele>372.6666666666667</ele><time>2026-04-29T09:31:32.064Z</time></trkpt><trkpt lat="40.1383463866811" lon="8.728086990090333"><ele>374.0</ele><time>2026-04-29T09:31:33.064Z</time></trkpt><trkpt lat="40.1383788163434" lon="8.727798333592295"><ele>374.33333333333337</ele><time>2026-04-29T09:31:34.063Z</time></trkpt><trkpt lat="40.13840763666567" lon="8.727512390088677"><ele>374.6666666666667</ele><time>2026-04-29T09:31:35.063Z</time></trkpt><trkpt lat="40.13844899244296" lon="8.727226794610823"><ele>375.0</ele><time>2026-04-29T09:31:36.064Z</time></trkpt><trkpt lat="40.13849744808811" lon="8.72693480778368"><ele>375.0</ele><time>2026-04-29T09:31:37.063Z</time></trkpt><trkpt lat="40.13854054837205" lon="8.726647676353775"><ele>375.0</ele><time>2026-04-29T09:31:38.063Z</time></trkpt><trkpt lat="40.13857479482385" lon="8.726358478362009"><ele>375.0</ele><time>2026-04-29T09:31:39.064Z</time></trkpt><trkpt lat="40.13861112868139" lon="8.726076681373836"><ele>376.0</ele><time>2026-04-29T09:31:40.063Z</time></trkpt><trkpt lat="40.138649547485024" lon="8.72579519185486"><ele>377.0</ele><time>2026-04-29T09:31:41.063Z</time></trkpt><trkpt lat="40.13868496430173" lon="8.725509882063283"><ele>378.0</ele><time>2026-04-29T09:31:42.063Z</time></trkpt><trkpt lat="40.13872235383161" lon="8.725235142702239"><ele>380.0</ele><time>2026-04-29T09:31:43.063Z</time></trkpt><trkpt lat="40.13875832397175" lon="8.724957950406818"><ele>382.0</ele><time>2026-04-29T09:31:44.063Z</time></trkpt><trkpt lat="40.138790362269006" lon="8.72469994658353"><ele>384.0</ele><time>2026-04-29T09:31:45.063Z</time></trkpt><trkpt lat="40.13881649594164" lon="8.724467006149254"><ele>385.0</ele><time>2026-04-29T09:31:46.063Z</time></trkpt><trkpt lat="40.13882833468887" lon="8.724249791357144"><ele>386.0</ele><time>2026-04-29T09:31:47.063Z</time></trkpt><trkpt lat="40.13879971858733" lon="8.724032474185194"><ele>387.0</ele><time>2026-04-29T09:31:48.063Z</time></trkpt><trkpt lat="40.13871824733605" lon="8.723825571592613"><ele>387.0</ele><time>2026-04-29T09:31:49.063Z</time></trkpt><trkpt lat="40.13860588194647" lon="8.723631023730464"><ele>387.0</ele><time>2026-04-29T09:31:50.063Z</time></trkpt><trkpt lat="40.13846529278294" lon="8.723443207877402"><ele>387.0</ele><time>2026-04-29T09:31:51.063Z</time></trkpt><trkpt lat="40.138350017215004" lon="8.723246289320441"><ele>387.33333333333337</ele><time>2026-04-29T09:31:52.063Z</time></trkpt><trkpt lat="40.13822243404921" lon="8.72304810623708"><ele>387.6666666666667</ele><time>2026-04-29T09:31:53.063Z</time></trkpt><trkpt lat="40.13810073658213" lon="8.722857357446882"><ele>388.0</ele><time>2026-04-29T09:31:54.063Z</time></trkpt><trkpt lat="40.1379963446583" lon="8.722664121437209"><ele>388.0</ele><time>2026-04-29T09:31:55.063Z</time></trkpt><trkpt lat="40.137907120710715" lon="8.722467454733286"><ele>388.0</ele><time>2026-04-29T09:31:56.063Z</time></trkpt><trkpt lat="40.13783619098091" lon="8.722251631998542"><ele>388.0</ele><time>2026-04-29T09:31:57.063Z</time></trkpt><trkpt lat="40.13779754473094" lon="8.722021538792125"><ele>389.6666666666667</ele><time>2026-04-29T09:31:58.063Z</time></trkpt><trkpt lat="40.13780488196293" lon="8.721788109336169"><ele>391.33333333333337</ele><time>2026-04-29T09:31:59.063Z</time></trkpt><trkpt lat="40.137852154778194" lon="8.72155362919683"><ele>393.0</ele><time>2026-04-29T09:32:00.063Z</time></trkpt><trkpt lat="40.13793319816067" lon="8.721321137828665"><ele>393.0</ele><time>2026-04-29T09:32:01.063Z</time></trkpt><trkpt lat="40.138015042606185" lon="8.721088318035141"><ele>393.0</ele><time>2026-04-29T09:32:02.063Z</time></trkpt><trkpt lat="40.13809101839911" lon="8.720834616622849"><ele>393.0</ele><time>2026-04-29T09:32:03.063Z</time></trkpt><trkpt lat="40.138164011747335" lon="8.720582151962233"><ele>394.33333333333337</ele><time>2026-04-29T09:32:04.063Z</time></trkpt><trkpt lat="40.13824311882365" lon="8.720333987843114"><ele>395.6666666666667</ele><time>2026-04-29T09:32:05.063Z</time></trkpt><trkpt lat="40.13832598799501" lon="8.72007691600486"><ele>397.0</ele><time>2026-04-29T09:32:06.063Z</time></trkpt><trkpt lat="40.13841086465708" lon="8.719812554830817"><ele>397.0</ele><time>2026-04-29T09:32:07.063Z</time></trkpt><trkpt lat="40.138494549237144" lon="8.719536629310621"><ele>397.0</ele><time>2026-04-29T09:32:08.063Z</time></trkpt><trkpt lat="40.13857661795628" lon="8.719250229382602"><ele>396.0</ele><time>2026-04-29T09:32:09.063Z</time></trkpt><trkpt lat="40.13866715142141" lon="8.7189662789034"><ele>395.0</ele><time>2026-04-29T09:32:10.063Z</time></trkpt><trkpt lat="40.13875575105055" lon="8.718684354107356"><ele>393.5</ele><time>2026-04-29T09:32:11.063Z</time></trkpt><trkpt lat="40.138841994251656" lon="8.718391336857863"><ele>392.0</ele><time>2026-04-29T09:32:12.063Z</time></trkpt><trkpt lat="40.13893344901297" lon="8.718095509580204"><ele>392.0</ele><time>2026-04-29T09:32:13.063Z</time></trkpt><trkpt lat="40.139021914843816" lon="8.717802269707539"><ele>392.0</ele><time>2026-04-29T09:32:14.063Z</time></trkpt><trkpt lat="40.13910782526284" lon="8.71750857483212"><ele>393.5</ele><time>2026-04-29T09:32:15.063Z</time></trkpt><trkpt lat="40.139198304324005" lon="8.717222299911672"><ele>395.0</ele><time>2026-04-29T09:32:16.063Z</time></trkpt><trkpt lat="40.13928198207405" lon="8.716935547503901"><ele>393.5</ele><time>2026-04-29T09:32:17.063Z</time></trkpt><trkpt lat="40.13937855995263" lon="8.716655677378343"><ele>392.0</ele><time>2026-04-29T09:32:18.063Z</time></trkpt><trkpt lat="40.1394647289012" lon="8.716366253311886"><ele>392.0</ele><time>2026-04-29T09:32:19.063Z</time></trkpt><trkpt lat="40.13955287336039" lon="8.716082981131558"><ele>392.0</ele><time>2026-04-29T09:32:20.063Z</time></trkpt><trkpt lat="40.13964272551633" lon="8.715805509755265"><ele>392.0</ele><time>2026-04-29T09:32:21.063Z</time></trkpt><trkpt lat="40.13972981566422" lon="8.715526807570518"><ele>392.0</ele><time>2026-04-29T09:32:22.063Z</time></trkpt><trkpt lat="40.13981700516249" lon="8.715241076713612"><ele>392.0</ele><time>2026-04-29T09:32:23.063Z</time></trkpt><trkpt lat="40.1399040682544" lon="8.714953110152035"><ele>392.0</ele><time>2026-04-29T09:32:24.063Z</time></trkpt><trkpt lat="40.13999425737137" lon="8.7146640108971"><ele>391.0</ele><time>2026-04-29T09:32:25.063Z</time></trkpt><trkpt lat="40.140083250645134" lon="8.714373501189616"><ele>390.0</ele><time>2026-04-29T09:32:26.063Z</time></trkpt><trkpt lat="40.14017538514525" lon="8.714089172292637"><ele>390.0</ele><time>2026-04-29T09:32:27.063Z</time></trkpt><trkpt lat="40.140264767044506" lon="8.713810481585568"><ele>390.0</ele><time>2026-04-29T09:32:28.063Z</time></trkpt><trkpt lat="40.14035686298157" lon="8.713531645026569"><ele>388.5</ele><time>2026-04-29T09:32:29.063Z</time></trkpt><trkpt lat="40.14044518782742" lon="8.713260450454008"><ele>387.0</ele><time>2026-04-29T09:32:30.063Z</time></trkpt><trkpt lat="40.14053123313282" lon="8.712983859791247"><ele>387.33333333333337</ele><time>2026-04-29T09:32:31.063Z</time></trkpt><trkpt lat="40.14061426749695" lon="8.712711832173817"><ele>387.6666666666667</ele><time>2026-04-29T09:32:32.063Z</time></trkpt><trkpt lat="40.14068797947558" lon="8.71244105330786"><ele>388.0</ele><time>2026-04-29T09:32:33.063Z</time></trkpt><trkpt lat="40.14076329818596" lon="8.712177499042516"><ele>388.0</ele><time>2026-04-29T09:32:34.063Z</time></trkpt><trkpt lat="40.140816466597464" lon="8.711932581513915"><ele>388.0</ele><time>2026-04-29T09:32:35.063Z</time></trkpt><trkpt lat="40.14083741922746" lon="8.711720418618794"><ele>388.0</ele><time>2026-04-29T09:32:36.063Z</time></trkpt><trkpt lat="40.14084091798316" lon="8.711529272033877"><ele>387.5</ele><time>2026-04-29T09:32:37.063Z</time></trkpt><trkpt lat="40.14085370761173" lon="8.711323667845233"><ele>387.0</ele><time>2026-04-29T09:32:38.063Z</time></trkpt><trkpt lat="40.14087425934967" lon="8.711133791396469"><ele>386.5</ele><time>2026-04-29T09:32:39.063Z</time></trkpt><trkpt lat="40.140900410551694" lon="8.710950745206302"><ele>386.0</ele><time>2026-04-29T09:32:40.063Z</time></trkpt><trkpt lat="40.14099587391358" lon="8.710736895435156"><ele>384.3333333333333</ele><time>2026-04-29T09:32:41.063Z</time></trkpt><trkpt lat="40.14107792630849" lon="8.710561872286762"><ele>382.66666666666663</ele><time>2026-04-29T09:32:42.063Z</time></trkpt><trkpt lat="40.14117347921361" lon="8.710412766972249"><ele>381.0</ele><time>2026-04-29T09:32:43.063Z</time></trkpt><trkpt lat="40.14127711048353" lon="8.71027162069831"><ele>380.75</ele><time>2026-04-29T09:32:44.063Z</time></trkpt><trkpt lat="40.141391552616774" lon="8.710144983774953"><ele>380.5</ele><time>2026-04-29T09:32:45.063Z</time></trkpt><trkpt lat="40.141499039474475" lon="8.710017413334466"><ele>380.25</ele><time>2026-04-29T09:32:46.063Z</time></trkpt><trkpt lat="40.14160505429468" lon="8.709890845400508"><ele>380.0</ele><time>2026-04-29T09:32:47.063Z</time></trkpt><trkpt lat="40.14171128434295" lon="8.709764296795937"><ele>380.0</ele><time>2026-04-29T09:32:48.063Z</time></trkpt><trkpt lat="40.14182626340863" lon="8.709658068398687"><ele>380.0</ele><time>2026-04-29T09:32:49.063Z</time></trkpt><trkpt lat="40.141952036189096" lon="8.70959488368627"><ele>380.0</ele><time>2026-04-29T09:32:50.063Z</time></trkpt><trkpt lat="40.142078507873364" lon="8.709557646951163"><ele>380.0</ele><time>2026-04-29T09:32:51.063Z</time></trkpt><trkpt lat="40.14220269243943" lon="8.709527160389294"><ele>380.0</ele><time>2026-04-29T09:32:52.063Z</time></trkpt><trkpt lat="40.14233300105038" lon="8.709498728254898"><ele>380.0</ele><time>2026-04-29T09:32:53.063Z</time></trkpt><trkpt lat="40.14246391190232" lon="8.70946314236168"><ele>380.0</ele><time>2026-04-29T09:32:54.063Z</time></trkpt><trkpt lat="40.1425930615998" lon="8.709432024761751"><ele>380.0</ele><time>2026-04-29T09:32:55.063Z</time></trkpt><trkpt lat="40.142710794575535" lon="8.70941095192076"><ele>378.2</ele><time>2026-04-29T09:32:56.063Z</time></trkpt><trkpt lat="40.1428139662514" lon="8.709401659672768"><ele>376.4</ele><time>2026-04-29T09:32:57.063Z</time></trkpt><trkpt lat="40.14290837077638" lon="8.70936845716374"><ele>374.6</ele><time>2026-04-29T09:32:58.063Z</time></trkpt><trkpt lat="40.14299205051598" lon="8.709328213759028"><ele>372.8</ele><time>2026-04-29T09:32:59.063Z</time></trkpt><trkpt lat="40.14305941660366" lon="8.709250897662983"><ele>371.0</ele><time>2026-04-29T09:33:00.063Z</time></trkpt><trkpt lat="40.143103806809506" lon="8.709160325480914"><ele>371.0</ele><time>2026-04-29T09:33:01.063Z</time></trkpt><trkpt lat="40.14312214572351" lon="8.709060949989778"><ele>371.0</ele><time>2026-04-29T09:33:02.063Z</time></trkpt><trkpt lat="40.14311540505442" lon="8.708941631703354"><ele>371.0</ele><time>2026-04-29T09:33:03.063Z</time></trkpt><trkpt lat="40.14309131358834" lon="8.70882417580839"><ele>371.0</ele><time>2026-04-29T09:33:04.063Z</time></trkpt><trkpt lat="40.143048995581765" lon="8.70871863673228"><ele>371.0</ele><time>2026-04-29T09:33:05.063Z</time></trkpt><trkpt lat="40.14297374230541" lon="8.708636418038228"><ele>371.0</ele><time>2026-04-29T09:33:06.063Z</time></trkpt><trkpt lat="40.14288039553191" lon="8.70857673484413"><ele>371.0</ele><time>2026-04-29T09:33:07.063Z</time></trkpt><trkpt lat="40.14278514361884" lon="8.708522336277557"><ele>371.0</ele><time>2026-04-29T09:33:08.063Z</time></trkpt><trkpt lat="40.14269958721233" lon="8.708456372920626"><ele>371.0</ele><time>2026-04-29T09:33:09.063Z</time></trkpt><trkpt lat="40.14260708572048" lon="8.708379312177666"><ele>371.0</ele><time>2026-04-29T09:33:10.063Z</time></trkpt><trkpt lat="40.14251693590934" lon="8.708300836950817"><ele>371.25</ele><time>2026-04-29T09:33:11.063Z</time></trkpt><trkpt lat="40.14242699070413" lon="8.708213497345078"><ele>371.5</ele><time>2026-04-29T09:33:12.063Z</time></trkpt><trkpt lat="40.14234368831135" lon="8.708108706173984"><ele>371.75</ele><time>2026-04-29T09:33:13.063Z</time></trkpt><trkpt lat="40.14227466093531" lon="8.707987859054647"><ele>372.0</ele><time>2026-04-29T09:33:14.063Z</time></trkpt><trkpt lat="40.14222296956772" lon="8.707851491941081"><ele>371.25</ele><time>2026-04-29T09:33:15.063Z</time></trkpt><trkpt lat="40.1421943254923" lon="8.707698542522644"><ele>370.5</ele><time>2026-04-29T09:33:16.063Z</time></trkpt><trkpt lat="40.142192251184646" lon="8.707519921473958"><ele>369.75</ele><time>2026-04-29T09:33:17.063Z</time></trkpt><trkpt lat="40.14219628809784" lon="8.707312518173326"><ele>369.0</ele><time>2026-04-29T09:33:18.063Z</time></trkpt><trkpt lat="40.142204525715904" lon="8.707075338418742"><ele>368.6666666666667</ele><time>2026-04-29T09:33:19.063Z</time></trkpt><trkpt lat="40.14221580387277" lon="8.706818782731537"><ele>368.33333333333337</ele><time>2026-04-29T09:33:20.063Z</time></trkpt><trkpt lat="40.14222421263027" lon="8.706541840071973"><ele>368.0</ele><time>2026-04-29T09:33:21.063Z</time></trkpt><trkpt lat="40.142235606038895" lon="8.706251029399747"><ele>368.0</ele><time>2026-04-29T09:33:22.063Z</time></trkpt><trkpt lat="40.14225158692624" lon="8.705949188059348"><ele>368.0</ele><time>2026-04-29T09:33:23.063Z</time></trkpt><trkpt lat="40.142272415598455" lon="8.70563107721195"><ele>368.0</ele><time>2026-04-29T09:33:24.063Z</time></trkpt><trkpt lat="40.14229040902252" lon="8.705304793376582"><ele>368.0</ele><time>2026-04-29T09:33:25.063Z</time></trkpt><trkpt lat="40.142302190619574" lon="8.70496914922722"><ele>367.5</ele><time>2026-04-29T09:33:26.063Z</time></trkpt><trkpt lat="40.142315698541935" lon="8.70463036383929"><ele>367.0</ele><time>2026-04-29T09:33:27.063Z</time></trkpt><trkpt lat="40.142330595375554" lon="8.70429862231995"><ele>365.5</ele><time>2026-04-29T09:33:28.063Z</time></trkpt><trkpt lat="40.142342858944424" lon="8.703973664177473"><ele>364.0</ele><time>2026-04-29T09:33:29.063Z</time></trkpt><trkpt lat="40.142351556626075" lon="8.703653536389114"><ele>364.5</ele><time>2026-04-29T09:33:30.063Z</time></trkpt><trkpt lat="40.14236114393385" lon="8.703337740161077"><ele>365.0</ele><time>2026-04-29T09:33:31.063Z</time></trkpt><trkpt lat="40.14237090186893" lon="8.703026884520453"><ele>366.0</ele><time>2026-04-29T09:33:32.063Z</time></trkpt><trkpt lat="40.14238014769366" lon="8.702722834296267"><ele>367.0</ele><time>2026-04-29T09:33:33.065Z</time></trkpt><trkpt lat="40.14239127671006" lon="8.702423866975876"><ele>369.0</ele><time>2026-04-29T09:33:34.064Z</time></trkpt><trkpt lat="40.142401865610665" lon="8.702122803321345"><ele>371.0</ele><time>2026-04-29T09:33:35.064Z</time></trkpt><trkpt lat="40.1424089849233" lon="8.701821242125389"><ele>372.0</ele><time>2026-04-29T09:33:36.065Z</time></trkpt><trkpt lat="40.14241943851376" lon="8.701514228912348"><ele>373.0</ele><time>2026-04-29T09:33:37.065Z</time></trkpt><trkpt lat="40.142431111464795" lon="8.70120459585921"><ele>373.0</ele><time>2026-04-29T09:33:38.065Z</time></trkpt><trkpt lat="40.14244625522429" lon="8.700894149320629"><ele>373.0</ele><time>2026-04-29T09:33:39.064Z</time></trkpt><trkpt lat="40.142457321765384" lon="8.700576164720314"><ele>373.0</ele><time>2026-04-29T09:33:40.064Z</time></trkpt><trkpt lat="40.142467869746376" lon="8.700261824532339"><ele>373.0</ele><time>2026-04-29T09:33:41.064Z</time></trkpt><trkpt lat="40.1424778860132" lon="8.69994915201828"><ele>373.5</ele><time>2026-04-29T09:33:42.065Z</time></trkpt><trkpt lat="40.14248705885176" lon="8.699638962110864"><ele>374.0</ele><time>2026-04-29T09:33:43.065Z</time></trkpt><trkpt lat="40.14249779291022" lon="8.699333060042502"><ele>375.5</ele><time>2026-04-29T09:33:44.065Z</time></trkpt><trkpt lat="40.142510690375104" lon="8.69902854889181"><ele>377.0</ele><time>2026-04-29T09:33:45.064Z</time></trkpt><trkpt lat="40.14252182333186" lon="8.698720862840922"><ele>377.0</ele><time>2026-04-29T09:33:46.064Z</time></trkpt><trkpt lat="40.142531657046305" lon="8.698401137870734"><ele>377.0</ele><time>2026-04-29T09:33:47.064Z</time></trkpt><trkpt lat="40.14253889050673" lon="8.698112021942462"><ele>377.0</ele><time>2026-04-29T09:33:48.064Z</time></trkpt><trkpt lat="40.14253963262241" lon="8.69783664746945"><ele>377.0</ele><time>2026-04-29T09:33:49.064Z</time></trkpt><trkpt lat="40.142551566055" lon="8.6975787915605"><ele>377.0</ele><time>2026-04-29T09:33:50.064Z</time></trkpt><trkpt lat="40.14257496630854" lon="8.697335231916362"><ele>376.0</ele><time>2026-04-29T09:33:51.064Z</time></trkpt><trkpt lat="40.14263014812983" lon="8.697102031677767"><ele>375.0</ele><time>2026-04-29T09:33:52.064Z</time></trkpt><trkpt lat="40.142726559975806" lon="8.696869198942982"><ele>374.0</ele><time>2026-04-29T09:33:53.064Z</time></trkpt><trkpt lat="40.14285259080759" lon="8.696636876895214"><ele>371.5</ele><time>2026-04-29T09:33:54.064Z</time></trkpt><trkpt lat="40.142982747583744" lon="8.696389788619085"><ele>369.0</ele><time>2026-04-29T09:33:55.064Z</time></trkpt><trkpt lat="40.143119441844405" lon="8.69613663412918"><ele>372.5</ele><time>2026-04-29T09:33:56.064Z</time></trkpt><trkpt lat="40.14326316386968" lon="8.695889304535688"><ele>376.0</ele><time>2026-04-29T09:33:57.064Z</time></trkpt><trkpt lat="40.143397543502196" lon="8.69563798766916"><ele>376.0</ele><time>2026-04-29T09:33:58.064Z</time></trkpt><trkpt lat="40.14351515154514" lon="8.695378052967797"><ele>376.0</ele><time>2026-04-29T09:33:59.064Z</time></trkpt><trkpt lat="40.14361463914423" lon="8.695110607768406"><ele>374.0</ele><time>2026-04-29T09:34:00.064Z</time></trkpt><trkpt lat="40.1436980613764" lon="8.694847355497755"><ele>372.0</ele><time>2026-04-29T09:34:01.064Z</time></trkpt><trkpt lat="40.14379256752465" lon="8.69460443690894"><ele>370.0</ele><time>2026-04-29T09:34:02.064Z</time></trkpt><trkpt lat="40.14393375326435" lon="8.694416698851073"><ele>370.66666666666663</ele><time>2026-04-29T09:34:03.064Z</time></trkpt><trkpt lat="40.144107622501934" lon="8.694263951526173"><ele>371.3333333333333</ele><time>2026-04-29T09:34:04.064Z</time></trkpt><trkpt lat="40.14427783552163" lon="8.694090554418517"><ele>372.0</ele><time>2026-04-29T09:34:05.064Z</time></trkpt><trkpt lat="40.1444337684117" lon="8.693898535478471"><ele>372.0</ele><time>2026-04-29T09:34:06.064Z</time></trkpt><trkpt lat="40.14457151001186" lon="8.693711450972664"><ele>372.0</ele><time>2026-04-29T09:34:07.064Z</time></trkpt><trkpt lat="40.14468763200589" lon="8.693539354046916"><ele>372.0</ele><time>2026-04-29T09:34:08.064Z</time></trkpt><trkpt lat="40.14479230417216" lon="8.693402304988945"><ele>372.0</ele><time>2026-04-29T09:34:09.064Z</time></trkpt><trkpt lat="40.14486913021877" lon="8.693282297646793"><ele>372.0</ele><time>2026-04-29T09:34:10.064Z</time></trkpt><trkpt lat="40.14488025452216" lon="8.69312256791604"><ele>372.0</ele><time>2026-04-29T09:34:11.064Z</time></trkpt><trkpt lat="40.14484620204135" lon="8.692963354218776"><ele>372.0</ele><time>2026-04-29T09:34:12.064Z</time></trkpt><trkpt lat="40.144765905310855" lon="8.692825552873373"><ele>372.0</ele><time>2026-04-29T09:34:13.064Z</time></trkpt><trkpt lat="40.144652921619105" lon="8.69275226342229"><ele>372.0</ele><time>2026-04-29T09:34:14.064Z</time></trkpt><trkpt lat="40.14452074944137" lon="8.692776171766237"><ele>372.0</ele><time>2026-04-29T09:34:15.064Z</time></trkpt><trkpt lat="40.1443912594145" lon="8.692870389327213"><ele>372.0</ele><time>2026-04-29T09:34:16.064Z</time></trkpt><trkpt lat="40.144240799905" lon="8.692969535422089"><ele>372.0</ele><time>2026-04-29T09:34:17.064Z</time></trkpt><trkpt lat="40.14406432744711" lon="8.693040990323254"><ele>372.0</ele><time>2026-04-29T09:34:18.064Z</time></trkpt><trkpt lat="40.14395257354821" lon="8.693046600730542"><ele>372.0</ele><time>2026-04-29T09:34:19.064Z</time></trkpt><trkpt lat="40.143758000778654" lon="8.693123813683007"><ele>372.6666666666667</ele><time>2026-04-29T09:34:20.064Z</time></trkpt><trkpt lat="40.14354442642669" lon="8.693143183757778"><ele>373.33333333333337</ele><time>2026-04-29T09:34:21.064Z</time></trkpt><trkpt lat="40.14334271017092" lon="8.693105370352466"><ele>374.0</ele><time>2026-04-29T09:34:22.064Z</time></trkpt><trkpt lat="40.14318373094736" lon="8.69307231008679"><ele>374.75</ele><time>2026-04-29T09:34:23.064Z</time></trkpt><trkpt lat="40.14306007419022" lon="8.693011741773477"><ele>375.5</ele><time>2026-04-29T09:34:24.064Z</time></trkpt><trkpt lat="40.14298957260434" lon="8.69286688639679"><ele>376.25</ele><time>2026-04-29T09:34:25.064Z</time></trkpt><trkpt lat="40.142983943874086" lon="8.692642556898942"><ele>377.0</ele><time>2026-04-29T09:34:26.065Z</time></trkpt><trkpt lat="40.143010690035005" lon="8.692384115041031"><ele>380.33333333333337</ele><time>2026-04-29T09:34:27.065Z</time></trkpt><trkpt lat="40.14303165457335" lon="8.69209720265042"><ele>383.6666666666667</ele><time>2026-04-29T09:34:28.065Z</time></trkpt><trkpt lat="40.14306145478295" lon="8.691807488067756"><ele>387.0</ele><time>2026-04-29T09:34:29.065Z</time></trkpt><trkpt lat="40.14306261180901" lon="8.691508783762194"><ele>391.0</ele><time>2026-04-29T09:34:30.065Z</time></trkpt><trkpt lat="40.1430111971042" lon="8.691215777534834"><ele>395.0</ele><time>2026-04-29T09:34:31.065Z</time></trkpt><trkpt lat="40.142941062047676" lon="8.690923995759873"><ele>395.66666666666663</ele><time>2026-04-29T09:34:32.065Z</time></trkpt><trkpt lat="40.14290838679192" lon="8.690651077378892"><ele>396.33333333333337</ele><time>2026-04-29T09:34:33.065Z</time></trkpt><trkpt lat="40.142937484814325" lon="8.690356379798606"><ele>397.0</ele><time>2026-04-29T09:34:34.065Z</time></trkpt><trkpt lat="40.142973500586415" lon="8.690041869393946"><ele>398.0</ele><time>2026-04-29T09:34:35.065Z</time></trkpt><trkpt lat="40.14300438471935" lon="8.689721670279013"><ele>399.0</ele><time>2026-04-29T09:34:36.065Z</time></trkpt><trkpt lat="40.14303260613887" lon="8.689424129837644"><ele>400.5</ele><time>2026-04-29T09:34:37.065Z</time></trkpt><trkpt lat="40.14306069701901" lon="8.689132367819827"><ele>402.0</ele><time>2026-04-29T09:34:38.065Z</time></trkpt><trkpt lat="40.143090317526436" lon="8.68883744602808"><ele>402.0</ele><time>2026-04-29T09:34:39.065Z</time></trkpt><trkpt lat="40.143119693350016" lon="8.68854129823702"><ele>402.0</ele><time>2026-04-29T09:34:40.065Z</time></trkpt><trkpt lat="40.14314942996177" lon="8.68823941066896"><ele>402.0</ele><time>2026-04-29T09:34:41.065Z</time></trkpt><trkpt lat="40.14319556191959" lon="8.687923785030824"><ele>402.0</ele><time>2026-04-29T09:34:42.065Z</time></trkpt><trkpt lat="40.14322590523369" lon="8.687611734034608"><ele>405.5</ele><time>2026-04-29T09:34:43.065Z</time></trkpt><trkpt lat="40.14325280830853" lon="8.687295017940308"><ele>409.0</ele><time>2026-04-29T09:34:44.065Z</time></trkpt><trkpt lat="40.14328320579221" lon="8.686978630259766"><ele>409.0</ele><time>2026-04-29T09:34:45.065Z</time></trkpt><trkpt lat="40.14331364491304" lon="8.686660688071065"><ele>409.0</ele><time>2026-04-29T09:34:46.065Z</time></trkpt><trkpt lat="40.14334386869943" lon="8.686333832622722"><ele>409.5</ele><time>2026-04-29T09:34:47.065Z</time></trkpt><trkpt lat="40.14337760070026" lon="8.68600978171018"><ele>410.0</ele><time>2026-04-29T09:34:48.065Z</time></trkpt><trkpt lat="40.143402824381575" lon="8.685703094905314"><ele>410.0</ele><time>2026-04-29T09:34:49.065Z</time></trkpt><trkpt lat="40.143405569641395" lon="8.685399710797464"><ele>410.0</ele><time>2026-04-29T09:34:50.065Z</time></trkpt><trkpt lat="40.14336859246574" lon="8.68510422552572"><ele>411.5</ele><time>2026-04-29T09:34:51.065Z</time></trkpt><trkpt lat="40.14331035195549" lon="8.684807646342382"><ele>413.0</ele><time>2026-04-29T09:34:52.065Z</time></trkpt><trkpt lat="40.14325676696829" lon="8.684518903975295"><ele>414.0</ele><time>2026-04-29T09:34:53.065Z</time></trkpt><trkpt lat="40.143216906422474" lon="8.684264880907273"><ele>415.0</ele><time>2026-04-29T09:34:54.065Z</time></trkpt><trkpt lat="40.14320233368385" lon="8.684037521272758"><ele>416.0</ele><time>2026-04-29T09:34:55.065Z</time></trkpt><trkpt lat="40.14324276964026" lon="8.6838167771348"><ele>416.0</ele><time>2026-04-29T09:34:56.065Z</time></trkpt><trkpt lat="40.143357325051866" lon="8.683598310346751"><ele>416.0</ele><time>2026-04-29T09:34:57.065Z</time></trkpt><trkpt lat="40.14347184606206" lon="8.683356158440388"><ele>416.0</ele><time>2026-04-29T09:34:58.065Z</time></trkpt><trkpt lat="40.143540145109625" lon="8.683078552189173"><ele>415.3333333333333</ele><time>2026-04-29T09:34:59.065Z</time></trkpt><trkpt lat="40.1435710459937" lon="8.682794042382183"><ele>414.66666666666663</ele><time>2026-04-29T09:35:00.065Z</time></trkpt><trkpt lat="40.143565891307375" lon="8.68251194206296"><ele>414.0</ele><time>2026-04-29T09:35:01.065Z</time></trkpt><trkpt lat="40.14351832363795" lon="8.682247418375985"><ele>414.0</ele><time>2026-04-29T09:35:02.065Z</time></trkpt><trkpt lat="40.1434452955815" lon="8.682018550827483"><ele>414.0</ele><time>2026-04-29T09:35:03.065Z</time></trkpt><trkpt lat="40.14336976811165" lon="8.681816806108804"><ele>414.0</ele><time>2026-04-29T09:35:04.065Z</time></trkpt><trkpt lat="40.14330982257479" lon="8.68165051430791"><ele>415.0</ele><time>2026-04-29T09:35:05.065Z</time></trkpt><trkpt lat="40.14324479950141" lon="8.681534673383927"><ele>416.0</ele><time>2026-04-29T09:35:06.065Z</time></trkpt><trkpt lat="40.14314527150782" lon="8.681473801094501"><ele>417.0</ele><time>2026-04-29T09:35:07.065Z</time></trkpt><trkpt lat="40.14301937341169" lon="8.681512096474963"><ele>418.0</ele><time>2026-04-29T09:35:08.065Z</time></trkpt><trkpt lat="40.142911876861675" lon="8.681633597301198"><ele>420.33333333333337</ele><time>2026-04-29T09:35:09.065Z</time></trkpt><trkpt lat="40.142833751273876" lon="8.68181806663818"><ele>422.66666666666663</ele><time>2026-04-29T09:35:10.065Z</time></trkpt><trkpt lat="40.142786382865566" lon="8.682070437143778"><ele>425.0</ele><time>2026-04-29T09:35:11.065Z</time></trkpt><trkpt lat="40.14276969904519" lon="8.682342043600597"><ele>425.0</ele><time>2026-04-29T09:35:12.065Z</time></trkpt><trkpt lat="40.14277326802309" lon="8.682600641014785"><ele>425.0</ele><time>2026-04-29T09:35:13.065Z</time></trkpt><trkpt lat="40.14273109353594" lon="8.68279642058422"><ele>425.0</ele><time>2026-04-29T09:35:14.065Z</time></trkpt><trkpt lat="40.14262453829379" lon="8.682916531889962"><ele>423.66666666666663</ele><time>2026-04-29T09:35:15.065Z</time></trkpt><trkpt lat="40.14247592870378" lon="8.682996737387693"><ele>422.33333333333337</ele><time>2026-04-29T09:35:16.065Z</time></trkpt><trkpt lat="40.1423073011158" lon="8.683091547549063"><ele>421.0</ele><time>2026-04-29T09:35:17.065Z</time></trkpt><trkpt lat="40.142137932339615" lon="8.683206026351778"><ele>421.0</ele><time>2026-04-29T09:35:18.065Z</time></trkpt><trkpt lat="40.141989725741546" lon="8.683273167324352"><ele>421.0</ele><time>2026-04-29T09:35:19.065Z</time></trkpt><trkpt lat="40.14184903678267" lon="8.683282301416494"><ele>421.0</ele><time>2026-04-29T09:35:20.065Z</time></trkpt><trkpt lat="40.14171736807907" lon="8.683185443118195"><ele>421.0</ele><time>2026-04-29T09:35:21.065Z</time></trkpt><trkpt lat="40.141611167438654" lon="8.683000098824625"><ele>424.33333333333337</ele><time>2026-04-29T09:35:22.065Z</time></trkpt><trkpt lat="40.1415400575379" lon="8.682760511628965"><ele>427.66666666666663</ele><time>2026-04-29T09:35:23.065Z</time></trkpt><trkpt lat="40.14149258615039" lon="8.682506837196925"><ele>431.0</ele><time>2026-04-29T09:35:24.065Z</time></trkpt><trkpt lat="40.14144959481633" lon="8.682285881428399"><ele>431.0</ele><time>2026-04-29T09:35:25.065Z</time></trkpt><trkpt lat="40.14136193239561" lon="8.682136635972027"><ele>431.0</ele><time>2026-04-29T09:35:26.065Z</time></trkpt><trkpt lat="40.141244408993636" lon="8.68205104173951"><ele>431.0</ele><time>2026-04-29T09:35:27.065Z</time></trkpt><trkpt lat="40.14110339439859" lon="8.682064777383633"><ele>431.0</ele><time>2026-04-29T09:35:28.065Z</time></trkpt><trkpt lat="40.14096350242833" lon="8.6821855978339"><ele>431.0</ele><time>2026-04-29T09:35:29.065Z</time></trkpt><trkpt lat="40.14083740676554" lon="8.68237160293301"><ele>431.0</ele><time>2026-04-29T09:35:30.065Z</time></trkpt><trkpt lat="40.14070250754016" lon="8.68255248150664"><ele>431.0</ele><time>2026-04-29T09:35:31.065Z</time></trkpt><trkpt lat="40.14054631661724" lon="8.68269882673904"><ele>431.3333333333333</ele><time>2026-04-29T09:35:32.065Z</time></trkpt><trkpt lat="40.14038324382065" lon="8.682830811747825"><ele>431.66666666666663</ele><time>2026-04-29T09:35:33.065Z</time></trkpt><trkpt lat="40.14024096445179" lon="8.682924290768398"><ele>432.0</ele><time>2026-04-29T09:35:34.065Z</time></trkpt><trkpt lat="40.140111387029975" lon="8.682935983914986"><ele>432.0</ele><time>2026-04-29T09:35:35.065Z</time></trkpt><trkpt lat="40.139982198328084" lon="8.682818240068816"><ele>432.0</ele><time>2026-04-29T09:35:36.065Z</time></trkpt><trkpt lat="40.13987457781535" lon="8.682615645829372"><ele>432.0</ele><time>2026-04-29T09:35:37.065Z</time></trkpt><trkpt lat="40.13976950820941" lon="8.682371054813247"><ele>434.0</ele><time>2026-04-29T09:35:38.065Z</time></trkpt><trkpt lat="40.1396371925162" lon="8.682143360070189"><ele>436.0</ele><time>2026-04-29T09:35:39.066Z</time></trkpt><trkpt lat="40.13950067569507" lon="8.681963402870629"><ele>438.0</ele><time>2026-04-29T09:35:40.066Z</time></trkpt><trkpt lat="40.13933169068522" lon="8.681874566146227"><ele>439.66666666666663</ele><time>2026-04-29T09:35:41.066Z</time></trkpt><trkpt lat="40.13913760726384" lon="8.681864622514274"><ele>441.3333333333333</ele><time>2026-04-29T09:35:42.067Z</time></trkpt><trkpt lat="40.13893840984774" lon="8.681899238749295"><ele>443.0</ele><time>2026-04-29T09:35:43.067Z</time></trkpt><trkpt lat="40.138768516680244" lon="8.681895951719605"><ele>443.0</ele><time>2026-04-29T09:35:44.067Z</time></trkpt><trkpt lat="40.13864183772427" lon="8.681797883675534"><ele>443.0</ele><time>2026-04-29T09:35:45.066Z</time></trkpt><trkpt lat="40.13855320353487" lon="8.681629339960546"><ele>443.0</ele><time>2026-04-29T09:35:46.066Z</time></trkpt><trkpt lat="40.13853903975046" lon="8.681359513673275"><ele>444.0</ele><time>2026-04-29T09:35:47.066Z</time></trkpt><trkpt lat="40.13855783228397" lon="8.681083837200811"><ele>445.0</ele><time>2026-04-29T09:35:48.066Z</time></trkpt><trkpt lat="40.138555477321674" lon="8.680799498965253"><ele>446.0</ele><time>2026-04-29T09:35:49.066Z</time></trkpt><trkpt lat="40.13851242258619" lon="8.680510483484769"><ele>449.0</ele><time>2026-04-29T09:35:50.066Z</time></trkpt><trkpt lat="40.13843483164972" lon="8.680229112857626"><ele>452.0</ele><time>2026-04-29T09:35:51.066Z</time></trkpt><trkpt lat="40.138338897513314" lon="8.679942153154224"><ele>452.0</ele><time>2026-04-29T09:35:52.066Z</time></trkpt><trkpt lat="40.138244082534904" lon="8.67966048228828"><ele>452.0</ele><time>2026-04-29T09:35:53.066Z</time></trkpt><trkpt lat="40.13815062052481" lon="8.679379341139942"><ele>453.5</ele><time>2026-04-29T09:35:54.066Z</time></trkpt><trkpt lat="40.13803272378021" lon="8.67912899241193"><ele>455.0</ele><time>2026-04-29T09:35:55.066Z</time></trkpt><trkpt lat="40.13786634455842" lon="8.678927700206229"><ele>455.0</ele><time>2026-04-29T09:35:56.066Z</time></trkpt><trkpt lat="40.13768114291849" lon="8.678770335068611"><ele>455.0</ele><time>2026-04-29T09:35:57.066Z</time></trkpt><trkpt lat="40.13750178910839" lon="8.678664858879234"><ele>455.0</ele><time>2026-04-29T09:35:58.066Z</time></trkpt><trkpt lat="40.13736728825683" lon="8.678537061765585"><ele>453.3333333333333</ele><time>2026-04-29T09:35:59.066Z</time></trkpt><trkpt lat="40.13730330090352" lon="8.678366702298648"><ele>451.66666666666663</ele><time>2026-04-29T09:36:00.065Z</time></trkpt><trkpt lat="40.1373104030767" lon="8.67811000658347"><ele>450.0</ele><time>2026-04-29T09:36:01.065Z</time></trkpt><trkpt lat="40.13734200011071" lon="8.677831589110664"><ele>452.66666666666663</ele><time>2026-04-29T09:36:02.065Z</time></trkpt><trkpt lat="40.137365855251986" lon="8.677547643068662"><ele>455.3333333333333</ele><time>2026-04-29T09:36:03.065Z</time></trkpt><trkpt lat="40.137388064341536" lon="8.677259092021517"><ele>458.0</ele><time>2026-04-29T09:36:04.065Z</time></trkpt><trkpt lat="40.1373730781804" lon="8.676956870321542"><ele>461.5</ele><time>2026-04-29T09:36:05.065Z</time></trkpt><trkpt lat="40.13733203301305" lon="8.676644290654604"><ele>465.0</ele><time>2026-04-29T09:36:06.065Z</time></trkpt><trkpt lat="40.13732031255351" lon="8.676320470284569"><ele>467.5</ele><time>2026-04-29T09:36:07.065Z</time></trkpt><trkpt lat="40.13733615314456" lon="8.67599853112164"><ele>470.0</ele><time>2026-04-29T09:36:08.065Z</time></trkpt><trkpt lat="40.13735649924327" lon="8.675697252568822"><ele>472.3333333333333</ele><time>2026-04-29T09:36:09.065Z</time></trkpt><trkpt lat="40.137387556112536" lon="8.675431388105677"><ele>474.66666666666663</ele><time>2026-04-29T09:36:10.065Z</time></trkpt><trkpt lat="40.13742028646261" lon="8.675187429378003"><ele>477.0</ele><time>2026-04-29T09:36:11.065Z</time></trkpt><trkpt lat="40.13744821836817" lon="8.67498796124432"><ele>477.0</ele><time>2026-04-29T09:36:12.065Z</time></trkpt><trkpt lat="40.13743643770598" lon="8.674816706930136"><ele>477.0</ele><time>2026-04-29T09:36:13.065Z</time></trkpt><trkpt lat="40.137370484029034" lon="8.674671115214137"><ele>477.0</ele><time>2026-04-29T09:36:14.065Z</time></trkpt><trkpt lat="40.137289771683804" lon="8.674551197283707"><ele>477.0</ele><time>2026-04-29T09:36:15.065Z</time></trkpt><trkpt lat="40.137176011035166" lon="8.67450621535526"><ele>477.0</ele><time>2026-04-29T09:36:16.065Z</time></trkpt><trkpt lat="40.13703591153124" lon="8.674553170179285"><ele>477.0</ele><time>2026-04-29T09:36:17.065Z</time></trkpt><trkpt lat="40.136906664387354" lon="8.674652387297858"><ele>477.0</ele><time>2026-04-29T09:36:18.065Z</time></trkpt><trkpt lat="40.136774438909136" lon="8.674751762436863"><ele>477.0</ele><time>2026-04-29T09:36:19.065Z</time></trkpt><trkpt lat="40.136632938873646" lon="8.674829528118371"><ele>478.0</ele><time>2026-04-29T09:36:20.065Z</time></trkpt><trkpt lat="40.136467556786464" lon="8.674874856863761"><ele>479.0</ele><time>2026-04-29T09:36:21.065Z</time></trkpt><trkpt lat="40.1362950241559" lon="8.67491139534132"><ele>480.0</ele><time>2026-04-29T09:36:22.065Z</time></trkpt><trkpt lat="40.13613105807595" lon="8.674919019341813"><ele>480.0</ele><time>2026-04-29T09:36:23.065Z</time></trkpt><trkpt lat="40.135992930147005" lon="8.674871413587624"><ele>480.0</ele><time>2026-04-29T09:36:24.065Z</time></trkpt><trkpt lat="40.13586618298886" lon="8.674746732601257"><ele>480.0</ele><time>2026-04-29T09:36:25.065Z</time></trkpt><trkpt lat="40.13573543076476" lon="8.674576527215132"><ele>481.0</ele><time>2026-04-29T09:36:26.065Z</time></trkpt><trkpt lat="40.13560359249348" lon="8.674423083388952"><ele>482.0</ele><time>2026-04-29T09:36:27.065Z</time></trkpt><trkpt lat="40.1354863555294" lon="8.674252694982563"><ele>483.0</ele><time>2026-04-29T09:36:28.065Z</time></trkpt><trkpt lat="40.13540518855331" lon="8.674062505480018"><ele>483.0</ele><time>2026-04-29T09:36:29.065Z</time></trkpt><trkpt lat="40.13535454486537" lon="8.67384764433071"><ele>483.0</ele><time>2026-04-29T09:36:30.065Z</time></trkpt><trkpt lat="40.13532561715404" lon="8.673641321861743"><ele>483.0</ele><time>2026-04-29T09:36:31.065Z</time></trkpt><trkpt lat="40.135342616231945" lon="8.67345152250699"><ele>484.33333333333337</ele><time>2026-04-29T09:36:32.065Z</time></trkpt><trkpt lat="40.13539605160582" lon="8.673248453645899"><ele>485.6666666666667</ele><time>2026-04-29T09:36:33.065Z</time></trkpt><trkpt lat="40.13547208855269" lon="8.673027145769499"><ele>487.0</ele><time>2026-04-29T09:36:34.065Z</time></trkpt><trkpt lat="40.135552216170275" lon="8.672825369239453"><ele>487.0</ele><time>2026-04-29T09:36:35.065Z</time></trkpt><trkpt lat="40.135632798566746" lon="8.672628219241767"><ele>487.0</ele><time>2026-04-29T09:36:36.065Z</time></trkpt><trkpt lat="40.135695790819774" lon="8.67241509614216"><ele>487.0</ele><time>2026-04-29T09:36:37.065Z</time></trkpt><trkpt lat="40.13573146697918" lon="8.672196070275664"><ele>488.33333333333337</ele><time>2026-04-29T09:36:38.065Z</time></trkpt><trkpt lat="40.135734691753775" lon="8.671965372860077"><ele>489.66666666666663</ele><time>2026-04-29T09:36:39.065Z</time></trkpt><trkpt lat="40.13572723936672" lon="8.67173804642447"><ele>491.0</ele><time>2026-04-29T09:36:40.065Z</time></trkpt><trkpt lat="40.135689759442926" lon="8.671513529205534"><ele>491.0</ele><time>2026-04-29T09:36:41.065Z</time></trkpt><trkpt lat="40.13565866233298" lon="8.671286094033713"><ele>491.0</ele><time>2026-04-29T09:36:42.065Z</time></trkpt><trkpt lat="40.13565574777957" lon="8.671075387906072"><ele>491.0</ele><time>2026-04-29T09:36:43.065Z</time></trkpt><trkpt lat="40.13570227010762" lon="8.67085783889776"><ele>494.3333333333333</ele><time>2026-04-29T09:36:44.065Z</time></trkpt><trkpt lat="40.1357789054753" lon="8.670648099060923"><ele>497.66666666666663</ele><time>2026-04-29T09:36:45.065Z</time></trkpt><trkpt lat="40.135868674597404" lon="8.670441072277832"><ele>501.0</ele><time>2026-04-29T09:36:46.065Z</time></trkpt><trkpt lat="40.135976504187816" lon="8.67024794842469"><ele>501.0</ele><time>2026-04-29T09:36:47.065Z</time></trkpt><trkpt lat="40.13608621740494" lon="8.67005953952255"><ele>501.0</ele><time>2026-04-29T09:36:48.065Z</time></trkpt><trkpt lat="40.136192960925634" lon="8.669873655080512"><ele>501.0</ele><time>2026-04-29T09:36:49.065Z</time></trkpt><trkpt lat="40.136301434442125" lon="8.669686804067634"><ele>501.0</ele><time>2026-04-29T09:36:50.065Z</time></trkpt><trkpt lat="40.136406752277686" lon="8.669499434005608"><ele>501.0</ele><time>2026-04-29T09:36:51.065Z</time></trkpt><trkpt lat="40.13650990919722" lon="8.669314674424113"><ele>501.0</ele><time>2026-04-29T09:36:52.065Z</time></trkpt><trkpt lat="40.13661387843808" lon="8.669137015252511"><ele>503.33333333333337</ele><time>2026-04-29T09:36:53.065Z</time></trkpt><trkpt lat="40.13671330567305" lon="8.668960546819381"><ele>505.6666666666667</ele><time>2026-04-29T09:36:54.065Z</time></trkpt><trkpt lat="40.13680789994681" lon="8.668775515096632"><ele>508.0</ele><time>2026-04-29T09:36:55.065Z</time></trkpt><trkpt lat="40.13691190788371" lon="8.668599463230896"><ele>508.0</ele><time>2026-04-29T09:36:56.065Z</time></trkpt><trkpt lat="40.137017565049256" lon="8.668422903054235"><ele>508.0</ele><time>2026-04-29T09:36:57.065Z</time></trkpt><trkpt lat="40.137123200921295" lon="8.668236912580955"><ele>508.0</ele><time>2026-04-29T09:36:58.065Z</time></trkpt><trkpt lat="40.13722324582584" lon="8.668046009158672"><ele>508.0</ele><time>2026-04-29T09:36:59.065Z</time></trkpt><trkpt lat="40.13732768597994" lon="8.66785472272748"><ele>508.0</ele><time>2026-04-29T09:37:00.065Z</time></trkpt><trkpt lat="40.13743811872968" lon="8.667665336407302"><ele>508.0</ele><time>2026-04-29T09:37:01.065Z</time></trkpt><trkpt lat="40.1375443751048" lon="8.6674650606075"><ele>507.6666666666667</ele><time>2026-04-29T09:37:02.065Z</time></trkpt><trkpt lat="40.13765299249583" lon="8.667266685918042"><ele>507.33333333333337</ele><time>2026-04-29T09:37:03.065Z</time></trkpt><trkpt lat="40.137763849223155" lon="8.667073610274922"><ele>507.0</ele><time>2026-04-29T09:37:04.065Z</time></trkpt><trkpt lat="40.13787394612588" lon="8.666887519800671"><ele>507.0</ele><time>2026-04-29T09:37:05.065Z</time></trkpt><trkpt lat="40.13798184668275" lon="8.666709391257411"><ele>507.0</ele><time>2026-04-29T09:37:06.065Z</time></trkpt><trkpt lat="40.13807997305946" lon="8.666530934153958"><ele>507.0</ele><time>2026-04-29T09:37:07.065Z</time></trkpt><trkpt lat="40.13818722371973" lon="8.666348592046434"><ele>508.0</ele><time>2026-04-29T09:37:08.065Z</time></trkpt><trkpt lat="40.13831489939983" lon="8.666181903775017"><ele>509.0</ele><time>2026-04-29T09:37:09.065Z</time></trkpt><trkpt lat="40.13845611784005" lon="8.666033631598909"><ele>510.0</ele><time>2026-04-29T09:37:10.065Z</time></trkpt><trkpt lat="40.13859222364406" lon="8.665894509876123"><ele>510.0</ele><time>2026-04-29T09:37:11.065Z</time></trkpt><trkpt lat="40.1387251403945" lon="8.665779841612155"><ele>510.0</ele><time>2026-04-29T09:37:12.065Z</time></trkpt><trkpt lat="40.13885132274481" lon="8.665684404264592"><ele>510.0</ele><time>2026-04-29T09:37:13.065Z</time></trkpt><trkpt lat="40.13897670029362" lon="8.665602174258826"><ele>510.0</ele><time>2026-04-29T09:37:14.065Z</time></trkpt><trkpt lat="40.139100768461326" lon="8.665541782354133"><ele>513.25</ele><time>2026-04-29T09:37:15.065Z</time></trkpt><trkpt lat="40.13922705432261" lon="8.665528985807555"><ele>516.5</ele><time>2026-04-29T09:37:16.065Z</time></trkpt><trkpt lat="40.13933147461171" lon="8.665565623507227"><ele>519.75</ele><time>2026-04-29T09:37:17.065Z</time></trkpt><trkpt lat="40.13942443515583" lon="8.665629424579565"><ele>523.0</ele><time>2026-04-29T09:37:18.065Z</time></trkpt><trkpt lat="40.13953181639493" lon="8.66570710325728"><ele>523.0</ele><time>2026-04-29T09:37:19.065Z</time></trkpt><trkpt lat="40.13964153682048" lon="8.665813698718274"><ele>523.0</ele><time>2026-04-29T09:37:20.065Z</time></trkpt><trkpt lat="40.13975865178136" lon="8.66593528183477"><ele>523.0</ele><time>2026-04-29T09:37:21.065Z</time></trkpt><trkpt lat="40.13989560938762" lon="8.666026508759145"><ele>523.0</ele><time>2026-04-29T09:37:22.065Z</time></trkpt><trkpt lat="40.14004597796839" lon="8.66608474082131"><ele>526.6666666666667</ele><time>2026-04-29T09:37:23.065Z</time></trkpt><trkpt lat="40.14020441138921" lon="8.666134894586287"><ele>530.3333333333334</ele><time>2026-04-29T09:37:24.065Z</time></trkpt><trkpt lat="40.140357223402766" lon="8.666177074567967"><ele>534.0</ele><time>2026-04-29T09:37:25.065Z</time></trkpt><trkpt lat="40.14048839301756" lon="8.666191872176368"><ele>534.0</ele><time>2026-04-29T09:37:26.065Z</time></trkpt><trkpt lat="40.140598776308124" lon="8.666188117607446"><ele>534.0</ele><time>2026-04-29T09:37:27.065Z</time></trkpt><trkpt lat="40.140686990622555" lon="8.666110788434299"><ele>534.0</ele><time>2026-04-29T09:37:28.065Z</time></trkpt><trkpt lat="40.140746946918256" lon="8.665977689982707"><ele>534.0</ele><time>2026-04-29T09:37:29.065Z</time></trkpt><trkpt lat="40.14077045713114" lon="8.66579752201259"><ele>533.0</ele><time>2026-04-29T09:37:30.065Z</time></trkpt><trkpt lat="40.140759209189866" lon="8.665590621157955"><ele>532.0</ele><time>2026-04-29T09:37:31.065Z</time></trkpt><trkpt lat="40.140766646701366" lon="8.665376246039736"><ele>531.0</ele><time>2026-04-29T09:37:32.065Z</time></trkpt><trkpt lat="40.140779262045314" lon="8.665167299882016"><ele>531.0</ele><time>2026-04-29T09:37:33.065Z</time></trkpt><trkpt lat="40.140786824219525" lon="8.664958643624278"><ele>531.0</ele><time>2026-04-29T09:37:34.065Z</time></trkpt><trkpt lat="40.1407866920528" lon="8.664736868298627"><ele>531.0</ele><time>2026-04-29T09:37:35.065Z</time></trkpt><trkpt lat="40.14078196362816" lon="8.664531771819728"><ele>531.3333333333334</ele><time>2026-04-29T09:37:36.065Z</time></trkpt><trkpt lat="40.140765826851975" lon="8.664317389361978"><ele>531.6666666666667</ele><time>2026-04-29T09:37:37.065Z</time></trkpt><trkpt lat="40.14076974484684" lon="8.66410007679886"><ele>532.0</ele><time>2026-04-29T09:37:38.065Z</time></trkpt><trkpt lat="40.14080078675708" lon="8.663885407872067"><ele>532.0</ele><time>2026-04-29T09:37:39.065Z</time></trkpt><trkpt lat="40.14084649231583" lon="8.66368375562731"><ele>532.0</ele><time>2026-04-29T09:37:40.065Z</time></trkpt><trkpt lat="40.14088177457928" lon="8.663484173919406"><ele>532.0</ele><time>2026-04-29T09:37:41.065Z</time></trkpt><trkpt lat="40.140910904144036" lon="8.66328697073587"><ele>531.5</ele><time>2026-04-29T09:37:42.065Z</time></trkpt><trkpt lat="40.14094196364426" lon="8.663095439202609"><ele>531.0</ele><time>2026-04-29T09:37:43.065Z</time></trkpt><trkpt lat="40.14098176918551" lon="8.662901938995649"><ele>530.5</ele><time>2026-04-29T09:37:44.065Z</time></trkpt><trkpt lat="40.141017888648456" lon="8.662717253895819"><ele>530.0</ele><time>2026-04-29T09:37:45.067Z</time></trkpt><trkpt lat="40.141055507364996" lon="8.66253398237592"><ele>529.75</ele><time>2026-04-29T09:37:46.067Z</time></trkpt><trkpt lat="40.141088999787414" lon="8.662354723235008"><ele>529.5</ele><time>2026-04-29T09:37:47.067Z</time></trkpt><trkpt lat="40.1411265481746" lon="8.66217323218185"><ele>529.25</ele><time>2026-04-29T09:37:48.067Z</time></trkpt><trkpt lat="40.14116038397689" lon="8.661994589062472"><ele>529.0</ele><time>2026-04-29T09:37:49.066Z</time></trkpt><trkpt lat="40.14121381486198" lon="8.661836227890554"><ele>530.75</ele><time>2026-04-29T09:37:50.066Z</time></trkpt><trkpt lat="40.14124887186761" lon="8.66166783304407"><ele>532.5</ele><time>2026-04-29T09:37:51.067Z</time></trkpt><trkpt lat="40.141279625436965" lon="8.661499447890005"><ele>534.25</ele><time>2026-04-29T09:37:52.066Z</time></trkpt><trkpt lat="40.14130987820865" lon="8.661331659058463"><ele>536.0</ele><time>2026-04-29T09:37:53.066Z</time></trkpt><trkpt lat="40.14134461270273" lon="8.661171322433978"><ele>537.25</ele><time>2026-04-29T09:37:54.066Z</time></trkpt><trkpt lat="40.141374842289224" lon="8.661014553913828"><ele>538.5</ele><time>2026-04-29T09:37:55.067Z</time></trkpt><trkpt lat="40.14140126456548" lon="8.660861112467735"><ele>539.75</ele><time>2026-04-29T09:37:56.067Z</time></trkpt><trkpt lat="40.14143603955072" lon="8.660695217469907"><ele>541.0</ele><time>2026-04-29T09:37:57.067Z</time></trkpt><trkpt lat="40.14147228649092" lon="8.660531473611535"><ele>541.0</ele><time>2026-04-29T09:37:58.067Z</time></trkpt><trkpt lat="40.141507158951185" lon="8.660358620263914"><ele>541.0</ele><time>2026-04-29T09:37:59.067Z</time></trkpt><trkpt lat="40.14153354279523" lon="8.660183976654814"><ele>541.0</ele><time>2026-04-29T09:38:00.067Z</time></trkpt><trkpt lat="40.14155511444697" lon="8.660017819778382"><ele>541.0</ele><time>2026-04-29T09:38:01.067Z</time></trkpt><trkpt lat="40.14157519774404" lon="8.659859690356232"><ele>541.8</ele><time>2026-04-29T09:38:02.067Z</time></trkpt><trkpt lat="40.141595825467704" lon="8.659718230140193"><ele>542.6</ele><time>2026-04-29T09:38:03.067Z</time></trkpt><trkpt lat="40.141610113079125" lon="8.659582113818958"><ele>543.4</ele><time>2026-04-29T09:38:04.067Z</time></trkpt><trkpt lat="40.141634189400726" lon="8.659459667145526"><ele>544.2</ele><time>2026-04-29T09:38:05.067Z</time></trkpt><trkpt lat="40.14169055888763" lon="8.659358889243352"><ele>545.0</ele><time>2026-04-29T09:38:06.067Z</time></trkpt><trkpt lat="40.14176759521056" lon="8.659290653403804"><ele>546.0</ele><time>2026-04-29T09:38:07.067Z</time></trkpt><trkpt lat="40.14185751921815" lon="8.659254136879943"><ele>547.0</ele><time>2026-04-29T09:38:08.067Z</time></trkpt><trkpt lat="40.141956400388246" lon="8.659247846717946"><ele>548.0</ele><time>2026-04-29T09:38:09.067Z</time></trkpt><trkpt lat="40.14206850059788" lon="8.659250631648023"><ele>549.0</ele><time>2026-04-29T09:38:10.067Z</time></trkpt><trkpt lat="40.142179662106656" lon="8.659263509645946"><ele>550.0</ele><time>2026-04-29T09:38:11.067Z</time></trkpt><trkpt lat="40.142289112400206" lon="8.659278159037843"><ele>550.5</ele><time>2026-04-29T09:38:12.067Z</time></trkpt><trkpt lat="40.1424085908082" lon="8.65929087681467"><ele>551.0</ele><time>2026-04-29T09:38:13.067Z</time></trkpt><trkpt lat="40.142527331467655" lon="8.659306665189387"><ele>551.5</ele><time>2026-04-29T09:38:14.067Z</time></trkpt><trkpt lat="40.14264378306836" lon="8.65934042628491"><ele>552.0</ele><time>2026-04-29T09:38:15.067Z</time></trkpt><trkpt lat="40.14274971376193" lon="8.659408595874558"><ele>549.75</ele><time>2026-04-29T09:38:16.067Z</time></trkpt><trkpt lat="40.14284933285356" lon="8.659503374485404"><ele>547.5</ele><time>2026-04-29T09:38:17.067Z</time></trkpt><trkpt lat="40.14294516132757" lon="8.659610443950905"><ele>545.25</ele><time>2026-04-29T09:38:18.067Z</time></trkpt><trkpt lat="40.143048345631186" lon="8.659716704430112"><ele>543.0</ele><time>2026-04-29T09:38:19.067Z</time></trkpt><trkpt lat="40.14317164393856" lon="8.659812547650123"><ele>545.25</ele><time>2026-04-29T09:38:20.067Z</time></trkpt><trkpt lat="40.14330198051536" lon="8.6598872722139"><ele>547.5</ele><time>2026-04-29T09:38:21.067Z</time></trkpt><trkpt lat="40.143433818085576" lon="8.659957372520463"><ele>549.75</ele><time>2026-04-29T09:38:22.067Z</time></trkpt><trkpt lat="40.14355552878515" lon="8.66000887244429"><ele>552.0</ele><time>2026-04-29T09:38:23.067Z</time></trkpt><trkpt lat="40.14369264055927" lon="8.660063754918097"><ele>552.0</ele><time>2026-04-29T09:38:24.067Z</time></trkpt><trkpt lat="40.1438346153646" lon="8.660116290585039"><ele>552.0</ele><time>2026-04-29T09:38:25.067Z</time></trkpt><trkpt lat="40.143982263260135" lon="8.66015844772312"><ele>552.0</ele><time>2026-04-29T09:38:26.067Z</time></trkpt><trkpt lat="40.1441346493311" lon="8.660172641758995"><ele>555.6666666666666</ele><time>2026-04-29T09:38:27.067Z</time></trkpt><trkpt lat="40.144283185105415" lon="8.660173440149462"><ele>559.3333333333333</ele><time>2026-04-29T09:38:28.067Z</time></trkpt><trkpt lat="40.14444222462664" lon="8.660164844685303"><ele>563.0</ele><time>2026-04-29T09:38:29.067Z</time></trkpt><trkpt lat="40.14458936907203" lon="8.660143283388068"><ele>563.0</ele><time>2026-04-29T09:38:30.067Z</time></trkpt><trkpt lat="40.14473026096303" lon="8.660052660435332"><ele>563.0</ele><time>2026-04-29T09:38:31.067Z</time></trkpt><trkpt lat="40.14484423746623" lon="8.659887529385363"><ele>563.0</ele><time>2026-04-29T09:38:32.067Z</time></trkpt><trkpt lat="40.144940211029514" lon="8.659700557219042"><ele>562.0</ele><time>2026-04-29T09:38:33.067Z</time></trkpt><trkpt lat="40.145027161129164" lon="8.659488274188998"><ele>561.0</ele><time>2026-04-29T09:38:34.067Z</time></trkpt><trkpt lat="40.145119118351694" lon="8.65926557869834"><ele>560.0</ele><time>2026-04-29T09:38:35.067Z</time></trkpt><trkpt lat="40.1452198408587" lon="8.659058267894695"><ele>563.3333333333333</ele><time>2026-04-29T09:38:36.067Z</time></trkpt><trkpt lat="40.14533679592142" lon="8.658853554188578"><ele>566.6666666666666</ele><time>2026-04-29T09:38:37.067Z</time></trkpt><trkpt lat="40.145466575854975" lon="8.658661178556322"><ele>570.0</ele><time>2026-04-29T09:38:38.067Z</time></trkpt><trkpt lat="40.14562243788305" lon="8.658509804404222"><ele>572.3333333333334</ele><time>2026-04-29T09:38:39.067Z</time></trkpt><trkpt lat="40.14579938340671" lon="8.658383387524337"><ele>574.6666666666667</ele><time>2026-04-29T09:38:40.067Z</time></trkpt><trkpt lat="40.14597367444712" lon="8.658247319300044"><ele>577.0</ele><time>2026-04-29T09:38:41.067Z</time></trkpt><trkpt lat="40.14613622203665" lon="8.658083852773085"><ele>577.0</ele><time>2026-04-29T09:38:42.067Z</time></trkpt><trkpt lat="40.1462751482834" lon="8.65788882289824"><ele>577.0</ele><time>2026-04-29T09:38:43.067Z</time></trkpt><trkpt lat="40.146408624919886" lon="8.657682256010498"><ele>577.0</ele><time>2026-04-29T09:38:44.067Z</time></trkpt><trkpt lat="40.14652739001021" lon="8.657476899777583"><ele>577.6666666666667</ele><time>2026-04-29T09:38:45.067Z</time></trkpt><trkpt lat="40.14663819826431" lon="8.657262018145591"><ele>578.3333333333334</ele><time>2026-04-29T09:38:46.067Z</time></trkpt><trkpt lat="40.146713848304266" lon="8.657017783055661"><ele>579.0</ele><time>2026-04-29T09:38:47.067Z</time></trkpt><trkpt lat="40.146784385169134" lon="8.656769808030809"><ele>582.6666666666666</ele><time>2026-04-29T09:38:48.067Z</time></trkpt><trkpt lat="40.14685614753261" lon="8.65655071074335"><ele>586.3333333333333</ele><time>2026-04-29T09:38:49.067Z</time></trkpt><trkpt lat="40.14694901226605" lon="8.656356463032813"><ele>590.0</ele><time>2026-04-29T09:38:50.067Z</time></trkpt><trkpt lat="40.147020347506164" lon="8.656170800623357"><ele>594.0</ele><time>2026-04-29T09:38:51.067Z</time></trkpt><trkpt lat="40.14704301312313" lon="8.655945571238068"><ele>598.0</ele><time>2026-04-29T09:38:52.067Z</time></trkpt><trkpt lat="40.14704131063652" lon="8.655699965421414"><ele>602.0</ele><time>2026-04-29T09:38:53.067Z</time></trkpt><trkpt lat="40.14705622087363" lon="8.655455566999168"><ele>601.8000000000001</ele><time>2026-04-29T09:38:54.067Z</time></trkpt><trkpt lat="40.14710290604757" lon="8.655254446127156"><ele>601.6</ele><time>2026-04-29T09:38:55.067Z</time></trkpt><trkpt lat="40.14716561226254" lon="8.65513391434103"><ele>601.4000000000001</ele><time>2026-04-29T09:38:56.067Z</time></trkpt><trkpt lat="40.14723810982991" lon="8.655086456107384"><ele>601.2</ele><time>2026-04-29T09:38:57.067Z</time></trkpt><trkpt lat="40.14732890581686" lon="8.655103153465323"><ele>601.0</ele><time>2026-04-29T09:38:58.067Z</time></trkpt><trkpt lat="40.14741635255787" lon="8.65520049367679"><ele>600.75</ele><time>2026-04-29T09:38:59.067Z</time></trkpt><trkpt lat="40.14746292995597" lon="8.655370244379165"><ele>600.5</ele><time>2026-04-29T09:39:00.067Z</time></trkpt><trkpt lat="40.14746710438615" lon="8.655573542025692"><ele>600.25</ele><time>2026-04-29T09:39:01.067Z</time></trkpt><trkpt lat="40.14748495129057" lon="8.655771033715242"><ele>600.0</ele><time>2026-04-29T09:39:02.067Z</time></trkpt><trkpt lat="40.14753354272919" lon="8.655975876993427"><ele>599.0</ele><time>2026-04-29T09:39:03.067Z</time></trkpt><trkpt lat="40.14757530317739" lon="8.656202672227323"><ele>598.0</ele><time>2026-04-29T09:39:04.067Z</time></trkpt><trkpt lat="40.14761687913832" lon="8.656438051793119"><ele>597.0</ele><time>2026-04-29T09:39:05.067Z</time></trkpt><trkpt lat="40.14765106469454" lon="8.656683960886209"><ele>597.0</ele><time>2026-04-29T09:39:06.067Z</time></trkpt><trkpt lat="40.1476701596591" lon="8.656942969303296"><ele>597.0</ele><time>2026-04-29T09:39:07.067Z</time></trkpt><trkpt lat="40.14768896220597" lon="8.657204882552794"><ele>597.0</ele><time>2026-04-29T09:39:08.067Z</time></trkpt><trkpt lat="40.147690098944764" lon="8.657475572977553"><ele>597.3333333333334</ele><time>2026-04-29T09:39:09.067Z</time></trkpt><trkpt lat="40.14768392492108" lon="8.657741278336767"><ele>597.6666666666667</ele><time>2026-04-29T09:39:10.067Z</time></trkpt><trkpt lat="40.1476785058496" lon="8.658007863418451"><ele>598.0</ele><time>2026-04-29T09:39:11.067Z</time></trkpt><trkpt lat="40.1476770408521" lon="8.658254063650233"><ele>599.0</ele><time>2026-04-29T09:39:12.067Z</time></trkpt><trkpt lat="40.14767325592182" lon="8.658465270564209"><ele>600.0</ele><time>2026-04-29T09:39:13.067Z</time></trkpt><trkpt lat="40.147675678496064" lon="8.658648646966574"><ele>601.0</ele><time>2026-04-29T09:39:14.067Z</time></trkpt><trkpt lat="40.14770131307247" lon="8.658819625580097"><ele>602.0</ele><time>2026-04-29T09:39:15.067Z</time></trkpt><trkpt lat="40.14778711779532" lon="8.658932198521796"><ele>603.0</ele><time>2026-04-29T09:39:16.067Z</time></trkpt><trkpt lat="40.14792051731161" lon="8.659005187958186"><ele>604.0</ele><time>2026-04-29T09:39:17.067Z</time></trkpt><trkpt lat="40.14808419667401" lon="8.659034226932798"><ele>605.0</ele><time>2026-04-29T09:39:18.067Z</time></trkpt><trkpt lat="40.14825036922856" lon="8.65904353640236"><ele>608.6666666666666</ele><time>2026-04-29T09:39:19.067Z</time></trkpt><trkpt lat="40.14838419940731" lon="8.659124268856024"><ele>612.3333333333334</ele><time>2026-04-29T09:39:20.067Z</time></trkpt><trkpt lat="40.14845067727421" lon="8.65929854783997"><ele>616.0</ele><time>2026-04-29T09:39:21.067Z</time></trkpt><trkpt lat="40.14845325646834" lon="8.659513093806709"><ele>616.0</ele><time>2026-04-29T09:39:22.067Z</time></trkpt><trkpt lat="40.148417074748316" lon="8.659750149194872"><ele>616.0</ele><time>2026-04-29T09:39:23.067Z</time></trkpt><trkpt lat="40.14841751731616" lon="8.659981721912068"><ele>616.0</ele><time>2026-04-29T09:39:24.067Z</time></trkpt><trkpt lat="40.148480577651846" lon="8.660215567253124"><ele>614.6666666666667</ele><time>2026-04-29T09:39:25.067Z</time></trkpt><trkpt lat="40.1485746732916" lon="8.66044625955045"><ele>613.3333333333334</ele><time>2026-04-29T09:39:26.067Z</time></trkpt><trkpt lat="40.14868700997459" lon="8.660674416711325"><ele>612.0</ele><time>2026-04-29T09:39:27.067Z</time></trkpt><trkpt lat="40.1488210152765" lon="8.660885419752894"><ele>612.0</ele><time>2026-04-29T09:39:28.067Z</time></trkpt><trkpt lat="40.14898047235101" lon="8.661070032479245"><ele>612.0</ele><time>2026-04-29T09:39:29.067Z</time></trkpt><trkpt lat="40.14915189803199" lon="8.661245366475288"><ele>612.0</ele><time>2026-04-29T09:39:30.067Z</time></trkpt><trkpt lat="40.14932334170293" lon="8.661395846612404"><ele>613.6666666666666</ele><time>2026-04-29T09:39:31.067Z</time></trkpt><trkpt lat="40.14951483457452" lon="8.66150924366401"><ele>615.3333333333333</ele><time>2026-04-29T09:39:32.067Z</time></trkpt><trkpt lat="40.14972510756564" lon="8.661569014610484"><ele>617.0</ele><time>2026-04-29T09:39:33.067Z</time></trkpt><trkpt lat="40.14993685876006" lon="8.661595773458481"><ele>620.6666666666666</ele><time>2026-04-29T09:39:34.067Z</time></trkpt><trkpt lat="40.150146073366585" lon="8.661617812287306"><ele>624.3333333333334</ele><time>2026-04-29T09:39:35.067Z</time></trkpt><trkpt lat="40.15034804430881" lon="8.661601440869044"><ele>628.0</ele><time>2026-04-29T09:39:36.067Z</time></trkpt><trkpt lat="40.15054507172894" lon="8.661521711323354"><ele>629.6666666666667</ele><time>2026-04-29T09:39:37.067Z</time></trkpt><trkpt lat="40.15073210397059" lon="8.661405453869474"><ele>631.3333333333334</ele><time>2026-04-29T09:39:38.067Z</time></trkpt><trkpt lat="40.15092426801135" lon="8.661279469636053"><ele>633.0</ele><time>2026-04-29T09:39:39.067Z</time></trkpt><trkpt lat="40.1511003507543" lon="8.661140372654785"><ele>635.6666666666666</ele><time>2026-04-29T09:39:40.067Z</time></trkpt><trkpt lat="40.15127294155912" lon="8.660998424012293"><ele>638.3333333333333</ele><time>2026-04-29T09:39:41.067Z</time></trkpt><trkpt lat="40.15143226992532" lon="8.660841259905204"><ele>641.0</ele><time>2026-04-29T09:39:42.067Z</time></trkpt><trkpt lat="40.1515685072574" lon="8.660645809682586"><ele>641.0</ele><time>2026-04-29T09:39:43.067Z</time></trkpt><trkpt lat="40.151717819267624" lon="8.660493742468672"><ele>641.0</ele><time>2026-04-29T09:39:44.067Z</time></trkpt><trkpt lat="40.15189989011277" lon="8.660415356417266"><ele>641.0</ele><time>2026-04-29T09:39:45.067Z</time></trkpt><trkpt lat="40.15210196673252" lon="8.66035337303402"><ele>641.0</ele><time>2026-04-29T09:39:46.067Z</time></trkpt><trkpt lat="40.15230002522385" lon="8.660304246737601"><ele>641.0</ele><time>2026-04-29T09:39:47.067Z</time></trkpt><trkpt lat="40.15250621075326" lon="8.660290060470698"><ele>641.0</ele><time>2026-04-29T09:39:48.067Z</time></trkpt><trkpt lat="40.15270538688122" lon="8.660343740953142"><ele>641.3333333333333</ele><time>2026-04-29T09:39:49.067Z</time></trkpt><trkpt lat="40.15288933676082" lon="8.660469138211548"><ele>641.6666666666666</ele><time>2026-04-29T09:39:50.067Z</time></trkpt><trkpt lat="40.15304882336981" lon="8.66062402490721"><ele>642.0</ele><time>2026-04-29T09:39:51.068Z</time></trkpt><trkpt lat="40.15318514227383" lon="8.660732435893385"><ele>644.3333333333334</ele><time>2026-04-29T09:39:52.068Z</time></trkpt><trkpt lat="40.15333436094624" lon="8.660781546933944"><ele>646.6666666666667</ele><time>2026-04-29T09:39:53.068Z</time></trkpt><trkpt lat="40.15348813570418" lon="8.66071231407141"><ele>649.0</ele><time>2026-04-29T09:39:54.068Z</time></trkpt><trkpt lat="40.153634217050154" lon="8.66056530863623"><ele>649.0</ele><time>2026-04-29T09:39:55.068Z</time></trkpt><trkpt lat="40.15375530760538" lon="8.660366589236354"><ele>649.0</ele><time>2026-04-29T09:39:56.068Z</time></trkpt><trkpt lat="40.153855003907225" lon="8.660130890091258"><ele>649.0</ele><time>2026-04-29T09:39:57.068Z</time></trkpt><trkpt lat="40.15393670222662" lon="8.659872599195017"><ele>654.5</ele><time>2026-04-29T09:39:58.068Z</time></trkpt><trkpt lat="40.15400932895006" lon="8.659598584079088"><ele>660.0</ele><time>2026-04-29T09:39:59.068Z</time></trkpt><trkpt lat="40.15410528587972" lon="8.659321534258678"><ele>661.5</ele><time>2026-04-29T09:40:00.068Z</time></trkpt><trkpt lat="40.154219934520256" lon="8.659059023592837"><ele>663.0</ele><time>2026-04-29T09:40:01.068Z</time></trkpt><trkpt lat="40.15435122374947" lon="8.658819756281945"><ele>669.5</ele><time>2026-04-29T09:40:02.068Z</time></trkpt><trkpt lat="40.1545123709028" lon="8.658605360236416"><ele>676.0</ele><time>2026-04-29T09:40:03.068Z</time></trkpt><trkpt lat="40.154683506310654" lon="8.658410971784562"><ele>676.0</ele><time>2026-04-29T09:40:04.068Z</time></trkpt><trkpt lat="40.15486919878701" lon="8.658236541048314"><ele>676.0</ele><time>2026-04-29T09:40:05.068Z</time></trkpt><trkpt lat="40.15506481940074" lon="8.658060807883702"><ele>680.0</ele><time>2026-04-29T09:40:06.068Z</time></trkpt><trkpt lat="40.15526128718333" lon="8.657871281902512"><ele>684.0</ele><time>2026-04-29T09:40:07.068Z</time></trkpt><trkpt lat="40.155445819665744" lon="8.657674104456948"><ele>684.0</ele><time>2026-04-29T09:40:08.068Z</time></trkpt><trkpt lat="40.15562766655596" lon="8.65747224124377"><ele>684.0</ele><time>2026-04-29T09:40:09.068Z</time></trkpt><trkpt lat="40.1557963830491" lon="8.657259698875157"><ele>688.0</ele><time>2026-04-29T09:40:10.068Z</time></trkpt><trkpt lat="40.15596663393311" lon="8.657060265440757"><ele>692.0</ele><time>2026-04-29T09:40:11.068Z</time></trkpt><trkpt lat="40.1561540177539" lon="8.656877333070238"><ele>692.0</ele><time>2026-04-29T09:40:12.068Z</time></trkpt><trkpt lat="40.156339953384865" lon="8.656699118699846"><ele>692.0</ele><time>2026-04-29T09:40:13.068Z</time></trkpt><trkpt lat="40.15652788870264" lon="8.656526578483215"><ele>694.6666666666666</ele><time>2026-04-29T09:40:14.068Z</time></trkpt><trkpt lat="40.15672184728584" lon="8.656386832198605"><ele>697.3333333333334</ele><time>2026-04-29T09:40:15.068Z</time></trkpt><trkpt lat="40.15691850235706" lon="8.656244002847277"><ele>700.0</ele><time>2026-04-29T09:40:16.068Z</time></trkpt><trkpt lat="40.157109811397824" lon="8.656082828138736"><ele>700.0</ele><time>2026-04-29T09:40:17.068Z</time></trkpt><trkpt lat="40.15729849917433" lon="8.65590176207467"><ele>700.0</ele><time>2026-04-29T09:40:18.068Z</time></trkpt><trkpt lat="40.15745284863022" lon="8.655711506268927"><ele>700.0</ele><time>2026-04-29T09:40:19.068Z</time></trkpt><trkpt lat="40.157582210287686" lon="8.655543353629675"><ele>701.75</ele><time>2026-04-29T09:40:20.068Z</time></trkpt><trkpt lat="40.15770252855552" lon="8.65540646599733"><ele>703.5</ele><time>2026-04-29T09:40:21.068Z</time></trkpt><trkpt lat="40.157788776042686" lon="8.655293790919902"><ele>705.25</ele><time>2026-04-29T09:40:22.068Z</time></trkpt><trkpt lat="40.15789001339872" lon="8.655264396193916"><ele>707.0</ele><time>2026-04-29T09:40:23.068Z</time></trkpt><trkpt lat="40.157996211181754" lon="8.655331019643617"><ele>703.25</ele><time>2026-04-29T09:40:24.068Z</time></trkpt><trkpt lat="40.15808885101975" lon="8.655451989051377"><ele>699.5</ele><time>2026-04-29T09:40:25.068Z</time></trkpt><trkpt lat="40.15814147169634" lon="8.655611330772839"><ele>695.75</ele><time>2026-04-29T09:40:26.068Z</time></trkpt><trkpt lat="40.15813249917608" lon="8.655811967762459"><ele>692.0</ele><time>2026-04-29T09:40:27.068Z</time></trkpt><trkpt lat="40.15809573472011" lon="8.656022825535269"><ele>689.3333333333333</ele><time>2026-04-29T09:40:28.068Z</time></trkpt><trkpt lat="40.15805234675077" lon="8.656261857130081"><ele>686.6666666666666</ele><time>2026-04-29T09:40:29.068Z</time></trkpt><trkpt lat="40.15801101940188" lon="8.656515459046366"><ele>684.0</ele><time>2026-04-29T09:40:30.068Z</time></trkpt><trkpt lat="40.15797233925925" lon="8.65679118112838"><ele>684.5</ele><time>2026-04-29T09:40:31.068Z</time></trkpt><trkpt lat="40.15794064552777" lon="8.657080618439979"><ele>685.0</ele><time>2026-04-29T09:40:32.068Z</time></trkpt><trkpt lat="40.15789883408542" lon="8.657379833948"><ele>685.0</ele><time>2026-04-29T09:40:33.068Z</time></trkpt><trkpt lat="40.15785922521084" lon="8.657679697836299"><ele>685.0</ele><time>2026-04-29T09:40:34.068Z</time></trkpt><trkpt lat="40.15782043859459" lon="8.657975000414348"><ele>687.5</ele><time>2026-04-29T09:40:35.068Z</time></trkpt><trkpt lat="40.157779945235674" lon="8.658268139077524"><ele>690.0</ele><time>2026-04-29T09:40:36.068Z</time></trkpt><trkpt lat="40.15774071026746" lon="8.658559931952626"><ele>692.3333333333334</ele><time>2026-04-29T09:40:37.068Z</time></trkpt><trkpt lat="40.157697613798014" lon="8.658824887670594"><ele>694.6666666666667</ele><time>2026-04-29T09:40:38.068Z</time></trkpt><trkpt lat="40.157665043628015" lon="8.659071839957514"><ele>697.0</ele><time>2026-04-29T09:40:39.068Z</time></trkpt><trkpt lat="40.157664844174896" lon="8.659296143039178"><ele>695.6666666666667</ele><time>2026-04-29T09:40:40.068Z</time></trkpt><trkpt lat="40.15771259858097" lon="8.659493616083024"><ele>694.3333333333334</ele><time>2026-04-29T09:40:41.068Z</time></trkpt><trkpt lat="40.15779211945953" lon="8.659679720330649"><ele>693.0</ele><time>2026-04-29T09:40:42.068Z</time></trkpt><trkpt lat="40.157897066524384" lon="8.6598485147358"><ele>693.0</ele><time>2026-04-29T09:40:43.068Z</time></trkpt><trkpt lat="40.158045506259405" lon="8.65998415229042"><ele>693.0</ele><time>2026-04-29T09:40:44.068Z</time></trkpt><trkpt lat="40.15820819224436" lon="8.660115825397884"><ele>693.0</ele><time>2026-04-29T09:40:45.068Z</time></trkpt><trkpt lat="40.15836180733615" lon="8.660264389868061"><ele>696.3333333333334</ele><time>2026-04-29T09:40:46.068Z</time></trkpt><trkpt lat="40.15849436417048" lon="8.660392795651099"><ele>699.6666666666667</ele><time>2026-04-29T09:40:47.068Z</time></trkpt><trkpt lat="40.1586319366365" lon="8.660487026275606"><ele>703.0</ele><time>2026-04-29T09:40:48.068Z</time></trkpt><trkpt lat="40.158783901080064" lon="8.660515797337483"><ele>703.0</ele><time>2026-04-29T09:40:49.068Z</time></trkpt><trkpt lat="40.158949403278484" lon="8.6604674643104"><ele>703.0</ele><time>2026-04-29T09:40:50.068Z</time></trkpt><trkpt lat="40.159112426358035" lon="8.66035735905226"><ele>703.0</ele><time>2026-04-29T09:40:51.068Z</time></trkpt><trkpt lat="40.15927051604503" lon="8.66022006319369"><ele>708.3333333333334</ele><time>2026-04-29T09:40:52.068Z</time></trkpt><trkpt lat="40.15943913465897" lon="8.660073473280919"><ele>713.6666666666666</ele><time>2026-04-29T09:40:53.068Z</time></trkpt><trkpt lat="40.15961787194195" lon="8.659931199777217"><ele>719.0</ele><time>2026-04-29T09:40:54.068Z</time></trkpt><trkpt lat="40.15980530761542" lon="8.659811310003164"><ele>717.6666666666666</ele><time>2026-04-29T09:40:55.068Z</time></trkpt><trkpt lat="40.16000675371881" lon="8.65969834374526"><ele>716.3333333333334</ele><time>2026-04-29T09:40:56.068Z</time></trkpt><trkpt lat="40.16020148590709" lon="8.659601778084104"><ele>715.0</ele><time>2026-04-29T09:40:57.068Z</time></trkpt><trkpt lat="40.16038874410562" lon="8.659562030786226"><ele>715.0</ele><time>2026-04-29T09:40:58.068Z</time></trkpt><trkpt lat="40.16057993043969" lon="8.65959202093408"><ele>715.0</ele><time>2026-04-29T09:40:59.068Z</time></trkpt><trkpt lat="40.160758178447374" lon="8.659705258348527"><ele>715.0</ele><time>2026-04-29T09:41:00.068Z</time></trkpt><trkpt lat="40.16091384631153" lon="8.659862630180683"><ele>716.0</ele><time>2026-04-29T09:41:01.068Z</time></trkpt><trkpt lat="40.16105812181182" lon="8.66006159304189"><ele>717.0</ele><time>2026-04-29T09:41:02.068Z</time></trkpt><trkpt lat="40.1611783202216" lon="8.660298753026828"><ele>718.0</ele><time>2026-04-29T09:41:03.068Z</time></trkpt><trkpt lat="40.161315633309655" lon="8.660514780435271"><ele>718.0</ele><time>2026-04-29T09:41:04.068Z</time></trkpt><trkpt lat="40.16148898092629" lon="8.660698244532282"><ele>718.0</ele><time>2026-04-29T09:41:05.068Z</time></trkpt><trkpt lat="40.161672021217726" lon="8.660853091805064"><ele>718.0</ele><time>2026-04-29T09:41:06.068Z</time></trkpt><trkpt lat="40.16185626793694" lon="8.660989895446185"><ele>718.3333333333334</ele><time>2026-04-29T09:41:07.068Z</time></trkpt><trkpt lat="40.16202170073764" lon="8.661105132777065"><ele>718.6666666666666</ele><time>2026-04-29T09:41:08.068Z</time></trkpt><trkpt lat="40.16218970141175" lon="8.661159162730105"><ele>719.0</ele><time>2026-04-29T09:41:09.068Z</time></trkpt><trkpt lat="40.162361844206636" lon="8.661130401289444"><ele>724.6666666666666</ele><time>2026-04-29T09:41:10.068Z</time></trkpt><trkpt lat="40.16254285251356" lon="8.66104224361111"><ele>730.3333333333334</ele><time>2026-04-29T09:41:11.068Z</time></trkpt><trkpt lat="40.16269086020076" lon="8.661060409422445"><ele>736.0</ele><time>2026-04-29T09:41:12.068Z</time></trkpt><trkpt lat="40.1628325658898" lon="8.660959994045658"><ele>736.0</ele><time>2026-04-29T09:41:13.068Z</time></trkpt><trkpt lat="40.1629511430937" lon="8.660858539858413"><ele>736.0</ele><time>2026-04-29T09:41:14.068Z</time></trkpt><trkpt lat="40.16302034710815" lon="8.660704851458709"><ele>736.0</ele><time>2026-04-29T09:41:15.068Z</time></trkpt><trkpt lat="40.163057428515906" lon="8.66053008733712"><ele>736.0</ele><time>2026-04-29T09:41:16.068Z</time></trkpt><trkpt lat="40.16310982007813" lon="8.660378449238323"><ele>735.1999999999999</ele><time>2026-04-29T09:41:17.068Z</time></trkpt><trkpt lat="40.16316921979369" lon="8.660254977751304"><ele>734.4</ele><time>2026-04-29T09:41:18.068Z</time></trkpt><trkpt lat="40.1632343660732" lon="8.660138771144025"><ele>733.6</ele><time>2026-04-29T09:41:19.068Z</time></trkpt><trkpt lat="40.163308096531054" lon="8.660025565075673"><ele>732.8</ele><time>2026-04-29T09:41:20.068Z</time></trkpt><trkpt lat="40.16336509711393" lon="8.659896653955228"><ele>732.0</ele><time>2026-04-29T09:41:21.068Z</time></trkpt><trkpt lat="40.16339306294791" lon="8.659763917338825"><ele>732.0</ele><time>2026-04-29T09:41:22.068Z</time></trkpt><trkpt lat="40.16339039366545" lon="8.65962526910169"><ele>732.0</ele><time>2026-04-29T09:41:23.068Z</time></trkpt><trkpt lat="40.163353184482915" lon="8.659480792191776"><ele>732.0</ele><time>2026-04-29T09:41:24.068Z</time></trkpt><trkpt lat="40.1633074714009" lon="8.659338854502876"><ele>732.0</ele><time>2026-04-29T09:41:25.068Z</time></trkpt><trkpt lat="40.16325772402334" lon="8.659198999115874"><ele>733.0</ele><time>2026-04-29T09:41:26.068Z</time></trkpt><trkpt lat="40.16320915292248" lon="8.659056020186686"><ele>734.0</ele><time>2026-04-29T09:41:27.068Z</time></trkpt><trkpt lat="40.16316591876852" lon="8.658913498721558"><ele>735.0</ele><time>2026-04-29T09:41:28.068Z</time></trkpt><trkpt lat="40.16312266439943" lon="8.658772525715946"><ele>736.0</ele><time>2026-04-29T09:41:29.068Z</time></trkpt><trkpt lat="40.163076294645066" lon="8.658632882434619"><ele>738.75</ele><time>2026-04-29T09:41:30.068Z</time></trkpt><trkpt lat="40.16303320210944" lon="8.658491037116564"><ele>741.5</ele><time>2026-04-29T09:41:31.068Z</time></trkpt><trkpt lat="40.162993881058775" lon="8.658349056688731"><ele>744.25</ele><time>2026-04-29T09:41:32.068Z</time></trkpt><trkpt lat="40.16294969369662" lon="8.65820477612609"><ele>747.0</ele><time>2026-04-29T09:41:33.068Z</time></trkpt><trkpt lat="40.162904455634646" lon="8.658061406198943"><ele>747.0</ele><time>2026-04-29T09:41:34.068Z</time></trkpt><trkpt lat="40.16283605280161" lon="8.657924585451365"><ele>747.0</ele><time>2026-04-29T09:41:35.068Z</time></trkpt><trkpt lat="40.162741566179406" lon="8.6578055399118"><ele>747.0</ele><time>2026-04-29T09:41:36.068Z</time></trkpt><trkpt lat="40.16261769760587" lon="8.657724397314585"><ele>747.0</ele><time>2026-04-29T09:41:37.068Z</time></trkpt><trkpt lat="40.162482517961216" lon="8.657663683323095"><ele>746.6</ele><time>2026-04-29T09:41:38.068Z</time></trkpt><trkpt lat="40.16235674155606" lon="8.657616434550906"><ele>746.2</ele><time>2026-04-29T09:41:39.068Z</time></trkpt><trkpt lat="40.16224805148615" lon="8.65756000946847"><ele>745.8</ele><time>2026-04-29T09:41:40.068Z</time></trkpt><trkpt lat="40.162150113753064" lon="8.657507908641344"><ele>745.4</ele><time>2026-04-29T09:41:41.068Z</time></trkpt><trkpt lat="40.16207039047956" lon="8.657442896173514"><ele>745.0</ele><time>2026-04-29T09:41:42.068Z</time></trkpt><trkpt lat="40.16200813123559" lon="8.657359267998299"><ele>745.0</ele><time>2026-04-29T09:41:43.068Z</time></trkpt><trkpt lat="40.161964888978545" lon="8.657262446750948"><ele>745.0</ele><time>2026-04-29T09:41:44.068Z</time></trkpt><trkpt lat="40.16193208651474" lon="8.657161843958098"><ele>745.0</ele><time>2026-04-29T09:41:45.068Z</time></trkpt><trkpt lat="40.161913037584824" lon="8.657042278102471"><ele>745.0</ele><time>2026-04-29T09:41:46.068Z</time></trkpt><trkpt lat="40.16191461493896" lon="8.656896713730893"><ele>745.0</ele><time>2026-04-29T09:41:47.068Z</time></trkpt><trkpt lat="40.16194792172992" lon="8.656721621319027"><ele>745.6666666666667</ele><time>2026-04-29T09:41:48.068Z</time></trkpt><trkpt lat="40.16198446767977" lon="8.656527126202118"><ele>746.3333333333334</ele><time>2026-04-29T09:41:49.068Z</time></trkpt><trkpt lat="40.16203114393943" lon="8.656309072097685"><ele>747.0</ele><time>2026-04-29T09:41:50.068Z</time></trkpt><trkpt lat="40.16207681689358" lon="8.656075804715943"><ele>748.6666666666666</ele><time>2026-04-29T09:41:51.068Z</time></trkpt><trkpt lat="40.16212461649772" lon="8.655829870732507"><ele>750.3333333333333</ele><time>2026-04-29T09:41:52.068Z</time></trkpt><trkpt lat="40.16216893330279" lon="8.655591098192179"><ele>752.0</ele><time>2026-04-29T09:41:53.068Z</time></trkpt><trkpt lat="40.16223669077297" lon="8.655385202510754"><ele>753.3333333333333</ele><time>2026-04-29T09:41:54.068Z</time></trkpt><trkpt lat="40.162345697174125" lon="8.655232970492284"><ele>754.6666666666666</ele><time>2026-04-29T09:41:55.068Z</time></trkpt><trkpt lat="40.162501489482075" lon="8.655129044277784"><ele>756.0</ele><time>2026-04-29T09:41:56.068Z</time></trkpt><trkpt lat="40.162676712539614" lon="8.655076013631199"><ele>756.6666666666666</ele><time>2026-04-29T09:41:57.069Z</time></trkpt><trkpt lat="40.16287832089399" lon="8.655076836527524"><ele>757.3333333333333</ele><time>2026-04-29T09:41:58.069Z</time></trkpt><trkpt lat="40.16308648329582" lon="8.655114908056635"><ele>758.0</ele><time>2026-04-29T09:41:59.069Z</time></trkpt><trkpt lat="40.16329829191394" lon="8.655177109106566"><ele>755.5</ele><time>2026-04-29T09:42:00.069Z</time></trkpt><trkpt lat="40.16350919251796" lon="8.6552661883098"><ele>753.0</ele><time>2026-04-29T09:42:01.069Z</time></trkpt><trkpt lat="40.16372817082504" lon="8.655374988626093"><ele>753.0</ele><time>2026-04-29T09:42:02.069Z</time></trkpt><trkpt lat="40.16396007628597" lon="8.655434632903972"><ele>753.0</ele><time>2026-04-29T09:42:03.069Z</time></trkpt><trkpt lat="40.164189315737744" lon="8.655459133010938"><ele>755.5</ele><time>2026-04-29T09:42:04.069Z</time></trkpt><trkpt lat="40.16442408037312" lon="8.655476003554764"><ele>758.0</ele><time>2026-04-29T09:42:05.069Z</time></trkpt><trkpt lat="40.16463954148248" lon="8.655506523765673"><ele>758.0</ele><time>2026-04-29T09:42:06.069Z</time></trkpt><trkpt lat="40.16483327609562" lon="8.655547944703962"><ele>758.0</ele><time>2026-04-29T09:42:07.069Z</time></trkpt><trkpt lat="40.16500772893205" lon="8.655631351529388"><ele>758.0</ele><time>2026-04-29T09:42:08.069Z</time></trkpt><trkpt lat="40.165176865235864" lon="8.655778678397773"><ele>757.6666666666666</ele><time>2026-04-29T09:42:09.069Z</time></trkpt><trkpt lat="40.16532899282858" lon="8.655955610475004"><ele>757.3333333333334</ele><time>2026-04-29T09:42:10.069Z</time></trkpt><trkpt lat="40.16545962057101" lon="8.656129702997596"><ele>757.0</ele><time>2026-04-29T09:42:11.069Z</time></trkpt><trkpt lat="40.165559324522654" lon="8.65634892404328"><ele>757.0</ele><time>2026-04-29T09:42:12.069Z</time></trkpt><trkpt lat="40.16562153203629" lon="8.656588960549348"><ele>757.0</ele><time>2026-04-29T09:42:13.069Z</time></trkpt><trkpt lat="40.16567062888798" lon="8.656795532894485"><ele>757.0</ele><time>2026-04-29T09:42:14.069Z</time></trkpt><trkpt lat="40.1657403792043" lon="8.656953005914056"><ele>758.6666666666667</ele><time>2026-04-29T09:42:15.069Z</time></trkpt><trkpt lat="40.165849300158236" lon="8.657047516557025"><ele>760.3333333333334</ele><time>2026-04-29T09:42:16.069Z</time></trkpt><trkpt lat="40.165987229484216" lon="8.657078710800358"><ele>762.0</ele><time>2026-04-29T09:42:17.069Z</time></trkpt><trkpt lat="40.16616241963196" lon="8.656998982746945"><ele>767.3333333333333</ele><time>2026-04-29T09:42:18.069Z</time></trkpt><trkpt lat="40.16633102063823" lon="8.65690235774448"><ele>772.6666666666666</ele><time>2026-04-29T09:42:19.069Z</time></trkpt><trkpt lat="40.16651102120733" lon="8.656827965525137"><ele>778.0</ele><time>2026-04-29T09:42:20.069Z</time></trkpt><trkpt lat="40.166701814946016" lon="8.656795183174337"><ele>780.3333333333333</ele><time>2026-04-29T09:42:21.069Z</time></trkpt><trkpt lat="40.166904476206184" lon="8.656768679367486"><ele>782.6666666666667</ele><time>2026-04-29T09:42:22.069Z</time></trkpt><trkpt lat="40.16711179439099" lon="8.656745163585521"><ele>785.0</ele><time>2026-04-29T09:42:23.069Z</time></trkpt><trkpt lat="40.16732068411908" lon="8.656716002917948"><ele>786.0</ele><time>2026-04-29T09:42:24.069Z</time></trkpt><trkpt lat="40.16752122087129" lon="8.656711498224615"><ele>787.0</ele><time>2026-04-29T09:42:25.069Z</time></trkpt><trkpt lat="40.167718380690786" lon="8.656736837064866"><ele>788.0</ele><time>2026-04-29T09:42:26.069Z</time></trkpt><trkpt lat="40.16791480396953" lon="8.656749175456978"><ele>788.0</ele><time>2026-04-29T09:42:27.069Z</time></trkpt><trkpt lat="40.16811396734668" lon="8.656720515666336"><ele>788.0</ele><time>2026-04-29T09:42:28.069Z</time></trkpt><trkpt lat="40.16831339230913" lon="8.656660059656737"><ele>788.0</ele><time>2026-04-29T09:42:29.069Z</time></trkpt><trkpt lat="40.16850596325565" lon="8.656578777843983"><ele>788.3333333333334</ele><time>2026-04-29T09:42:30.069Z</time></trkpt><trkpt lat="40.16868564729872" lon="8.656461538829763"><ele>788.6666666666667</ele><time>2026-04-29T09:42:31.069Z</time></trkpt><trkpt lat="40.168871414844574" lon="8.656327811977471"><ele>789.0</ele><time>2026-04-29T09:42:32.069Z</time></trkpt><trkpt lat="40.169051042789704" lon="8.656179561373941"><ele>793.3333333333333</ele><time>2026-04-29T09:42:33.069Z</time></trkpt><trkpt lat="40.16922982060185" lon="8.656023170691778"><ele>797.6666666666666</ele><time>2026-04-29T09:42:34.069Z</time></trkpt><trkpt lat="40.1693979495528" lon="8.655845967208593"><ele>802.0</ele><time>2026-04-29T09:42:35.069Z</time></trkpt><trkpt lat="40.16956077616899" lon="8.655661544665525"><ele>802.0</ele><time>2026-04-29T09:42:36.069Z</time></trkpt><trkpt lat="40.1697282526068" lon="8.655479313138004"><ele>802.0</ele><time>2026-04-29T09:42:37.069Z</time></trkpt><trkpt lat="40.16989935944203" lon="8.655305444634694"><ele>802.0</ele><time>2026-04-29T09:42:38.069Z</time></trkpt><trkpt lat="40.17008571919492" lon="8.655155920724873"><ele>803.6666666666666</ele><time>2026-04-29T09:42:39.069Z</time></trkpt><trkpt lat="40.17028166754325" lon="8.655025897099161"><ele>805.3333333333333</ele><time>2026-04-29T09:42:40.069Z</time></trkpt><trkpt lat="40.17047609817159" lon="8.65491521781926"><ele>807.0</ele><time>2026-04-29T09:42:41.069Z</time></trkpt><trkpt lat="40.170687978228685" lon="8.654804935490535"><ele>804.6666666666667</ele><time>2026-04-29T09:42:42.069Z</time></trkpt><trkpt lat="40.17090288160774" lon="8.654720122448378"><ele>802.3333333333334</ele><time>2026-04-29T09:42:43.069Z</time></trkpt><trkpt lat="40.171110294306025" lon="8.65463194576214"><ele>800.0</ele><time>2026-04-29T09:42:44.069Z</time></trkpt><trkpt lat="40.17131903685782" lon="8.654518524102077"><ele>804.6666666666667</ele><time>2026-04-29T09:42:45.069Z</time></trkpt><trkpt lat="40.17151483687054" lon="8.654417359137971"><ele>809.3333333333333</ele><time>2026-04-29T09:42:46.069Z</time></trkpt><trkpt lat="40.171695343021156" lon="8.654329708365589"><ele>814.0</ele><time>2026-04-29T09:42:47.069Z</time></trkpt><trkpt lat="40.17186285135616" lon="8.654238502498535"><ele>814.0</ele><time>2026-04-29T09:42:48.069Z</time></trkpt><trkpt lat="40.172014158515125" lon="8.654101580964706"><ele>814.0</ele><time>2026-04-29T09:42:49.069Z</time></trkpt><trkpt lat="40.172145912762595" lon="8.653922400700589"><ele>814.0</ele><time>2026-04-29T09:42:50.069Z</time></trkpt><trkpt lat="40.17224163700299" lon="8.653703091156096"><ele>816.6666666666666</ele><time>2026-04-29T09:42:51.069Z</time></trkpt><trkpt lat="40.17229369920213" lon="8.653449179987373"><ele>819.3333333333333</ele><time>2026-04-29T09:42:52.069Z</time></trkpt><trkpt lat="40.1722978827502" lon="8.653189529553227"><ele>822.0</ele><time>2026-04-29T09:42:53.069Z</time></trkpt><trkpt lat="40.17226973364552" lon="8.65293133820371"><ele>822.6666666666667</ele><time>2026-04-29T09:42:54.069Z</time></trkpt><trkpt lat="40.1722015010262" lon="8.652675322420897"><ele>823.3333333333334</ele><time>2026-04-29T09:42:55.069Z</time></trkpt><trkpt lat="40.17213898871908" lon="8.652416661547534"><ele>824.0</ele><time>2026-04-29T09:42:56.069Z</time></trkpt><trkpt lat="40.172057293596104" lon="8.65216410674638"><ele>824.0</ele><time>2026-04-29T09:42:57.069Z</time></trkpt><trkpt lat="40.17196741338383" lon="8.651901161356388"><ele>824.0</ele><time>2026-04-29T09:42:58.069Z</time></trkpt><trkpt lat="40.17187438112244" lon="8.651638599830031"><ele>824.0</ele><time>2026-04-29T09:42:59.069Z</time></trkpt><trkpt lat="40.171782422747725" lon="8.651365498956425"><ele>822.5</ele><time>2026-04-29T09:43:00.069Z</time></trkpt><trkpt lat="40.171697247844435" lon="8.651087989187872"><ele>821.0</ele><time>2026-04-29T09:43:01.069Z</time></trkpt><trkpt lat="40.171606806068176" lon="8.650795266511485"><ele>824.5</ele><time>2026-04-29T09:43:02.069Z</time></trkpt><trkpt lat="40.1715020994261" lon="8.650522063944045"><ele>828.0</ele><time>2026-04-29T09:43:03.069Z</time></trkpt><trkpt lat="40.171418010752774" lon="8.650238821209529"><ele>828.0</ele><time>2026-04-29T09:43:04.069Z</time></trkpt><trkpt lat="40.17133104073651" lon="8.649962611563884"><ele>828.0</ele><time>2026-04-29T09:43:05.069Z</time></trkpt><trkpt lat="40.171237956651446" lon="8.649688703383083"><ele>827.0</ele><time>2026-04-29T09:43:06.069Z</time></trkpt><trkpt lat="40.171141398136065" lon="8.649410515604705"><ele>826.0</ele><time>2026-04-29T09:43:07.069Z</time></trkpt><trkpt lat="40.171048055321755" lon="8.649142739921356"><ele>826.0</ele><time>2026-04-29T09:43:08.069Z</time></trkpt><trkpt lat="40.17096180455972" lon="8.648864491385607"><ele>826.0</ele><time>2026-04-29T09:43:09.069Z</time></trkpt><trkpt lat="40.170876098111464" lon="8.648586356753043"><ele>827.5</ele><time>2026-04-29T09:43:10.069Z</time></trkpt><trkpt lat="40.170796792996306" lon="8.648306762496247"><ele>829.0</ele><time>2026-04-29T09:43:11.069Z</time></trkpt><trkpt lat="40.17074266962295" lon="8.64800982791236"><ele>829.0</ele><time>2026-04-29T09:43:12.069Z</time></trkpt><trkpt lat="40.170713100487156" lon="8.64770162727851"><ele>829.0</ele><time>2026-04-29T09:43:13.069Z</time></trkpt><trkpt lat="40.17068586866589" lon="8.647396119931802"><ele>833.5</ele><time>2026-04-29T09:43:14.069Z</time></trkpt><trkpt lat="40.170653050712524" lon="8.64709255092859"><ele>838.0</ele><time>2026-04-29T09:43:15.069Z</time></trkpt><trkpt lat="40.170618329192536" lon="8.646775980233262"><ele>838.0</ele><time>2026-04-29T09:43:16.069Z</time></trkpt><trkpt lat="40.17061253990732" lon="8.646460565449258"><ele>838.0</ele><time>2026-04-29T09:43:17.069Z</time></trkpt><trkpt lat="40.17065051575536" lon="8.646137015444939"><ele>835.0</ele><time>2026-04-29T09:43:18.069Z</time></trkpt><trkpt lat="40.17070625800553" lon="8.645831304792821"><ele>832.0</ele><time>2026-04-29T09:43:19.069Z</time></trkpt><trkpt lat="40.170778105271424" lon="8.645518115652454"><ele>835.5</ele><time>2026-04-29T09:43:20.069Z</time></trkpt><trkpt lat="40.170851116852866" lon="8.645204460886339"><ele>839.0</ele><time>2026-04-29T09:43:21.069Z</time></trkpt><trkpt lat="40.17089924663965" lon="8.644888768529375"><ele>839.0</ele><time>2026-04-29T09:43:22.069Z</time></trkpt><trkpt lat="40.1709123633831" lon="8.644569131198343"><ele>839.0</ele><time>2026-04-29T09:43:23.069Z</time></trkpt><trkpt lat="40.17088190637417" lon="8.644266943526192"><ele>840.3333333333334</ele><time>2026-04-29T09:43:24.069Z</time></trkpt><trkpt lat="40.17083939110325" lon="8.643987133890557"><ele>841.6666666666667</ele><time>2026-04-29T09:43:25.069Z</time></trkpt><trkpt lat="40.170839905539694" lon="8.643736117952955"><ele>843.0</ele><time>2026-04-29T09:43:26.069Z</time></trkpt><trkpt lat="40.170909179690916" lon="8.643515060948653"><ele>843.6666666666667</ele><time>2026-04-29T09:43:27.069Z</time></trkpt><trkpt lat="40.17103634679198" lon="8.64330902962711"><ele>844.3333333333334</ele><time>2026-04-29T09:43:28.069Z</time></trkpt><trkpt lat="40.171185340231176" lon="8.643105015332845"><ele>845.0</ele><time>2026-04-29T09:43:29.069Z</time></trkpt><trkpt lat="40.17128982867205" lon="8.642860644037068"><ele>845.0</ele><time>2026-04-29T09:43:30.069Z</time></trkpt><trkpt lat="40.17134246246136" lon="8.642573076849704"><ele>845.0</ele><time>2026-04-29T09:43:31.069Z</time></trkpt><trkpt lat="40.171391886646525" lon="8.642309513276357"><ele>845.0</ele><time>2026-04-29T09:43:32.069Z</time></trkpt><trkpt lat="40.17141768774821" lon="8.642080337080428"><ele>844.0</ele><time>2026-04-29T09:43:33.069Z</time></trkpt><trkpt lat="40.17139688411612" lon="8.641858753973342"><ele>843.0</ele><time>2026-04-29T09:43:34.069Z</time></trkpt><trkpt lat="40.17127807447659" lon="8.641659049790544"><ele>842.0</ele><time>2026-04-29T09:43:35.069Z</time></trkpt><trkpt lat="40.17114258251825" lon="8.641445243969203"><ele>842.0</ele><time>2026-04-29T09:43:36.069Z</time></trkpt><trkpt lat="40.1710277938363" lon="8.641183748920342"><ele>842.0</ele><time>2026-04-29T09:43:37.069Z</time></trkpt><trkpt lat="40.17096136265297" lon="8.640906469436992"><ele>840.3333333333334</ele><time>2026-04-29T09:43:38.069Z</time></trkpt><trkpt lat="40.17089879848787" lon="8.640650459286578"><ele>838.6666666666667</ele><time>2026-04-29T09:43:39.069Z</time></trkpt><trkpt lat="40.17081578342718" lon="8.640428050958361"><ele>837.0</ele><time>2026-04-29T09:43:40.069Z</time></trkpt><trkpt lat="40.170704125268315" lon="8.640248420622646"><ele>839.3333333333333</ele><time>2026-04-29T09:43:41.069Z</time></trkpt><trkpt lat="40.170611391999266" lon="8.640058865362617"><ele>841.6666666666666</ele><time>2026-04-29T09:43:42.069Z</time></trkpt><trkpt lat="40.1706020233074" lon="8.639809989843348"><ele>844.0</ele><time>2026-04-29T09:43:43.069Z</time></trkpt><trkpt lat="40.170634103386355" lon="8.639546271550687"><ele>844.3333333333333</ele><time>2026-04-29T09:43:44.069Z</time></trkpt><trkpt lat="40.17066388283004" lon="8.639263188971167"><ele>844.6666666666667</ele><time>2026-04-29T09:43:45.069Z</time></trkpt><trkpt lat="40.17067880541553" lon="8.638997047205953"><ele>845.0</ele><time>2026-04-29T09:43:46.069Z</time></trkpt><trkpt lat="40.170702458068945" lon="8.638772615443807"><ele>842.0</ele><time>2026-04-29T09:43:47.069Z</time></trkpt><trkpt lat="40.1707838218314" lon="8.63857576806801"><ele>839.0</ele><time>2026-04-29T09:43:48.069Z</time></trkpt><trkpt lat="40.17089854701414" lon="8.638386441280348"><ele>836.0</ele><time>2026-04-29T09:43:49.069Z</time></trkpt><trkpt lat="40.17100188977444" lon="8.638161703552067"><ele>836.0</ele><time>2026-04-29T09:43:50.069Z</time></trkpt><trkpt lat="40.171054231523264" lon="8.63791593492945"><ele>836.0</ele><time>2026-04-29T09:43:51.069Z</time></trkpt><trkpt lat="40.171048600318755" lon="8.637655944209525"><ele>836.0</ele><time>2026-04-29T09:43:52.069Z</time></trkpt><trkpt lat="40.17101718921253" lon="8.637392170740073"><ele>837.3333333333334</ele><time>2026-04-29T09:43:53.069Z</time></trkpt><trkpt lat="40.17099601497138" lon="8.63712786879346"><ele>838.6666666666667</ele><time>2026-04-29T09:43:54.069Z</time></trkpt><trkpt lat="40.170996739450615" lon="8.636847646576316"><ele>840.0</ele><time>2026-04-29T09:43:55.069Z</time></trkpt><trkpt lat="40.170998766656226" lon="8.63656585998078"><ele>840.3333333333333</ele><time>2026-04-29T09:43:56.069Z</time></trkpt><trkpt lat="40.170969240560154" lon="8.636287505962455"><ele>840.6666666666666</ele><time>2026-04-29T09:43:57.069Z</time></trkpt><trkpt lat="40.170910896520006" lon="8.636004378878752"><ele>841.0</ele><time>2026-04-29T09:43:58.069Z</time></trkpt><trkpt lat="40.170841626420525" lon="8.635728082853653"><ele>839.5</ele><time>2026-04-29T09:43:59.069Z</time></trkpt><trkpt lat="40.17076578567796" lon="8.63545046622029"><ele>838.0</ele><time>2026-04-29T09:44:00.069Z</time></trkpt><trkpt lat="40.17067735583121" lon="8.635168284364457"><ele>848.5</ele><time>2026-04-29T09:44:01.069Z</time></trkpt><trkpt lat="40.170592188141505" lon="8.634877436500837"><ele>859.0</ele><time>2026-04-29T09:44:02.069Z</time></trkpt><trkpt lat="40.17048986338438" lon="8.634608305237947"><ele>854.0</ele><time>2026-04-29T09:44:03.07Z</time></trkpt><trkpt lat="40.17037140988956" lon="8.634346639948063"><ele>849.0</ele><time>2026-04-29T09:44:04.07Z</time></trkpt><trkpt lat="40.17024446935124" lon="8.634090671247105"><ele>849.0</ele><time>2026-04-29T09:44:05.07Z</time></trkpt><trkpt lat="40.17011203739618" lon="8.633846393777556"><ele>849.0</ele><time>2026-04-29T09:44:06.07Z</time></trkpt><trkpt lat="40.16998641040502" lon="8.633585217236567"><ele>844.0</ele><time>2026-04-29T09:44:07.07Z</time></trkpt><trkpt lat="40.1698747058477" lon="8.633304673114038"><ele>839.0</ele><time>2026-04-29T09:44:08.07Z</time></trkpt><trkpt lat="40.169786275343625" lon="8.63301148552154"><ele>846.0</ele><time>2026-04-29T09:44:09.07Z</time></trkpt><trkpt lat="40.16969134331693" lon="8.632731127395399"><ele>853.0</ele><time>2026-04-29T09:44:10.07Z</time></trkpt><trkpt lat="40.169610996924746" lon="8.632462361496739"><ele>853.0</ele><time>2026-04-29T09:44:11.07Z</time></trkpt><trkpt lat="40.16953106169182" lon="8.632202386133361"><ele>853.0</ele><time>2026-04-29T09:44:12.07Z</time></trkpt><trkpt lat="40.1694434870317" lon="8.631947491260389"><ele>853.0</ele><time>2026-04-29T09:44:13.07Z</time></trkpt><trkpt lat="40.16935800326505" lon="8.631685673966969"><ele>852.0</ele><time>2026-04-29T09:44:14.07Z</time></trkpt><trkpt lat="40.16928989930984" lon="8.631417115728635"><ele>851.0</ele><time>2026-04-29T09:44:15.069Z</time></trkpt><trkpt lat="40.16923496379432" lon="8.631142764361101"><ele>850.0</ele><time>2026-04-29T09:44:16.07Z</time></trkpt><trkpt lat="40.169184196673626" lon="8.630870217985853"><ele>848.6666666666666</ele><time>2026-04-29T09:44:17.07Z</time></trkpt><trkpt lat="40.16912888254782" lon="8.630620431995943"><ele>847.3333333333333</ele><time>2026-04-29T09:44:18.07Z</time></trkpt><trkpt lat="40.16908623344311" lon="8.630411355554552"><ele>846.0</ele><time>2026-04-29T09:44:19.07Z</time></trkpt><trkpt lat="40.16901240441257" lon="8.6302499340795"><ele>844.5</ele><time>2026-04-29T09:44:20.07Z</time></trkpt><trkpt lat="40.16890244880063" lon="8.630151969439634"><ele>843.0</ele><time>2026-04-29T09:44:21.07Z</time></trkpt><trkpt lat="40.16877313848168" lon="8.630147888512658"><ele>841.5</ele><time>2026-04-29T09:44:22.07Z</time></trkpt><trkpt lat="40.16861414289267" lon="8.630209889998444"><ele>840.0</ele><time>2026-04-29T09:44:23.07Z</time></trkpt><trkpt lat="40.16843498823918" lon="8.630312276993504"><ele>844.0</ele><time>2026-04-29T09:44:24.07Z</time></trkpt><trkpt lat="40.1682411302176" lon="8.63040295136077"><ele>848.0</ele><time>2026-04-29T09:44:25.07Z</time></trkpt><trkpt lat="40.168042579685604" lon="8.630480803852656"><ele>852.0</ele><time>2026-04-29T09:44:26.07Z</time></trkpt><trkpt lat="40.167834639860686" lon="8.630563975205659"><ele>852.0</ele><time>2026-04-29T09:44:27.07Z</time></trkpt><trkpt lat="40.16761298903988" lon="8.630635984180106"><ele>852.0</ele><time>2026-04-29T09:44:28.07Z</time></trkpt><trkpt lat="40.167390161257885" lon="8.630713618714209"><ele>852.3333333333333</ele><time>2026-04-29T09:44:29.07Z</time></trkpt><trkpt lat="40.16718688472508" lon="8.630789837995058"><ele>852.6666666666666</ele><time>2026-04-29T09:44:30.07Z</time></trkpt><trkpt lat="40.16700069081092" lon="8.630855036043085"><ele>853.0</ele><time>2026-04-29T09:44:31.07Z</time></trkpt><trkpt lat="40.166831727725395" lon="8.630878704833583"><ele>853.0</ele><time>2026-04-29T09:44:32.07Z</time></trkpt><trkpt lat="40.166670299518074" lon="8.630827318712278"><ele>853.0</ele><time>2026-04-29T09:44:33.07Z</time></trkpt><trkpt lat="40.16652388814411" lon="8.630727141795061"><ele>853.0</ele><time>2026-04-29T09:44:34.07Z</time></trkpt><trkpt lat="40.16640914389837" lon="8.630576892470614"><ele>856.3333333333333</ele><time>2026-04-29T09:44:35.07Z</time></trkpt><trkpt lat="40.16631889713183" lon="8.630375473635715"><ele>859.6666666666667</ele><time>2026-04-29T09:44:36.07Z</time></trkpt><trkpt lat="40.166235700833404" lon="8.630152356289967"><ele>863.0</ele><time>2026-04-29T09:44:37.07Z</time></trkpt><trkpt lat="40.16615755877767" lon="8.62990475801609"><ele>863.0</ele><time>2026-04-29T09:44:38.07Z</time></trkpt><trkpt lat="40.16608498409362" lon="8.629643759906171"><ele>863.0</ele><time>2026-04-29T09:44:39.07Z</time></trkpt><trkpt lat="40.16601528514375" lon="8.629384708512921"><ele>863.0</ele><time>2026-04-29T09:44:40.07Z</time></trkpt><trkpt lat="40.165961893922734" lon="8.629127699607643"><ele>862.6666666666667</ele><time>2026-04-29T09:44:41.07Z</time></trkpt><trkpt lat="40.16590998886254" lon="8.628903292389783"><ele>862.3333333333333</ele><time>2026-04-29T09:44:42.07Z</time></trkpt><trkpt lat="40.16585699525535" lon="8.628703815631187"><ele>862.0</ele><time>2026-04-29T09:44:43.07Z</time></trkpt><trkpt lat="40.16579370853163" lon="8.628515491955795"><ele>861.6666666666666</ele><time>2026-04-29T09:44:44.07Z</time></trkpt><trkpt lat="40.165721736438904" lon="8.628322937199627"><ele>861.3333333333333</ele><time>2026-04-29T09:44:45.07Z</time></trkpt><trkpt lat="40.16564565968182" lon="8.628130115022943"><ele>861.0</ele><time>2026-04-29T09:44:46.07Z</time></trkpt><trkpt lat="40.165566496158746" lon="8.627933497248554"><ele>866.3333333333333</ele><time>2026-04-29T09:44:47.07Z</time></trkpt><trkpt lat="40.16548728664823" lon="8.627735168310846"><ele>871.6666666666666</ele><time>2026-04-29T09:44:48.07Z</time></trkpt><trkpt lat="40.16540651617047" lon="8.62753613089963"><ele>877.0</ele><time>2026-04-29T09:44:49.07Z</time></trkpt><trkpt lat="40.16532885263281" lon="8.627330462732166"><ele>877.0</ele><time>2026-04-29T09:44:50.07Z</time></trkpt><trkpt lat="40.165244228317135" lon="8.627126278294408"><ele>877.0</ele><time>2026-04-29T09:44:51.07Z</time></trkpt><trkpt lat="40.16516711664926" lon="8.626913566217441"><ele>877.0</ele><time>2026-04-29T09:44:52.07Z</time></trkpt><trkpt lat="40.16508597401749" lon="8.626687453414245"><ele>877.3333333333333</ele><time>2026-04-29T09:44:53.07Z</time></trkpt><trkpt lat="40.16502821335477" lon="8.626454018573721"><ele>877.6666666666667</ele><time>2026-04-29T09:44:54.07Z</time></trkpt><trkpt lat="40.16498624493096" lon="8.62621470256478"><ele>878.0</ele><time>2026-04-29T09:44:55.07Z</time></trkpt><trkpt lat="40.16495680477847" lon="8.625971493892827"><ele>878.0</ele><time>2026-04-29T09:44:56.07Z</time></trkpt><trkpt lat="40.16494202496558" lon="8.625722459267157"><ele>878.0</ele><time>2026-04-29T09:44:57.07Z</time></trkpt><trkpt lat="40.16494378046206" lon="8.625487294226927"><ele>878.0</ele><time>2026-04-29T09:44:58.07Z</time></trkpt><trkpt lat="40.16491773072779" lon="8.625257236188773"><ele>880.3333333333334</ele><time>2026-04-29T09:44:59.07Z</time></trkpt><trkpt lat="40.164836152919975" lon="8.625053583834056"><ele>882.6666666666667</ele><time>2026-04-29T09:45:00.07Z</time></trkpt><trkpt lat="40.16470310220974" lon="8.624891536029189"><ele>885.0</ele><time>2026-04-29T09:45:01.07Z</time></trkpt><trkpt lat="40.16453995626127" lon="8.624764153230453"><ele>885.0</ele><time>2026-04-29T09:45:02.07Z</time></trkpt><trkpt lat="40.164374521967254" lon="8.624634201408282"><ele>885.0</ele><time>2026-04-29T09:45:03.07Z</time></trkpt><trkpt lat="40.16420857029649" lon="8.624478754180242"><ele>885.0</ele><time>2026-04-29T09:45:04.07Z</time></trkpt><trkpt lat="40.16406753941899" lon="8.62432449782459"><ele>884.3333333333333</ele><time>2026-04-29T09:45:05.07Z</time></trkpt><trkpt lat="40.16391498105736" lon="8.624169985220407"><ele>883.6666666666666</ele><time>2026-04-29T09:45:06.07Z</time></trkpt><trkpt lat="40.1637671587022" lon="8.62402013833474"><ele>883.0</ele><time>2026-04-29T09:45:07.07Z</time></trkpt><trkpt lat="40.16362180458057" lon="8.62387749385215"><ele>883.0</ele><time>2026-04-29T09:45:08.07Z</time></trkpt><trkpt lat="40.16348547504218" lon="8.623738328532731"><ele>883.0</ele><time>2026-04-29T09:45:09.07Z</time></trkpt><trkpt lat="40.163363270015545" lon="8.623603778125222"><ele>883.0</ele><time>2026-04-29T09:45:10.07Z</time></trkpt><trkpt lat="40.163283341937564" lon="8.623429569202303"><ele>881.3333333333333</ele><time>2026-04-29T09:45:11.07Z</time></trkpt><trkpt lat="40.163239724503555" lon="8.623225498434"><ele>879.6666666666667</ele><time>2026-04-29T09:45:12.07Z</time></trkpt><trkpt lat="40.16320852058521" lon="8.623013187813664"><ele>878.0</ele><time>2026-04-29T09:45:13.07Z</time></trkpt><trkpt lat="40.163179734852335" lon="8.622806050071107"><ele>884.0</ele><time>2026-04-29T09:45:14.07Z</time></trkpt><trkpt lat="40.1631575688035" lon="8.62259520917184"><ele>890.0</ele><time>2026-04-29T09:45:15.07Z</time></trkpt><trkpt lat="40.163186299510635" lon="8.622360658182112"><ele>896.0</ele><time>2026-04-29T09:45:16.07Z</time></trkpt><trkpt lat="40.16317990290193" lon="8.622137146157899"><ele>895.0</ele><time>2026-04-29T09:45:17.07Z</time></trkpt><trkpt lat="40.16317909137513" lon="8.62191133601125"><ele>894.0</ele><time>2026-04-29T09:45:18.07Z</time></trkpt><trkpt lat="40.163135908416955" lon="8.621675731766437"><ele>893.0</ele><time>2026-04-29T09:45:19.07Z</time></trkpt><trkpt lat="40.16308069290497" lon="8.62145156462171"><ele>893.0</ele><time>2026-04-29T09:45:20.07Z</time></trkpt><trkpt lat="40.1630179701273" lon="8.621229479556915"><ele>893.0</ele><time>2026-04-29T09:45:21.07Z</time></trkpt><trkpt lat="40.162953761704784" lon="8.62099600355576"><ele>893.0</ele><time>2026-04-29T09:45:22.07Z</time></trkpt><trkpt lat="40.16292529319905" lon="8.62075453892326"><ele>890.6666666666667</ele><time>2026-04-29T09:45:23.07Z</time></trkpt><trkpt lat="40.16290426803783" lon="8.620495874270645"><ele>888.3333333333333</ele><time>2026-04-29T09:45:24.07Z</time></trkpt><trkpt lat="40.16290438623306" lon="8.620245147825562"><ele>886.0</ele><time>2026-04-29T09:45:25.07Z</time></trkpt><trkpt lat="40.16290511303347" lon="8.619998878523363"><ele>884.6666666666666</ele><time>2026-04-29T09:45:26.07Z</time></trkpt><trkpt lat="40.1628918559145" lon="8.619755631931616"><ele>883.3333333333333</ele><time>2026-04-29T09:45:27.07Z</time></trkpt><trkpt lat="40.16285261795154" lon="8.61950802441197"><ele>882.0</ele><time>2026-04-29T09:45:28.07Z</time></trkpt><trkpt lat="40.16280108532426" lon="8.619264413603492"><ele>879.6666666666667</ele><time>2026-04-29T09:45:29.07Z</time></trkpt><trkpt lat="40.16274624832748" lon="8.619028263895961"><ele>877.3333333333334</ele><time>2026-04-29T09:45:30.07Z</time></trkpt><trkpt lat="40.16270104445682" lon="8.618779440479807"><ele>875.0</ele><time>2026-04-29T09:45:31.07Z</time></trkpt><trkpt lat="40.16266703527751" lon="8.618541136318226"><ele>874.6666666666667</ele><time>2026-04-29T09:45:32.07Z</time></trkpt><trkpt lat="40.162620167517396" lon="8.618280969400487"><ele>874.3333333333333</ele><time>2026-04-29T09:45:33.07Z</time></trkpt><trkpt lat="40.162580379442325" lon="8.618071185095149"><ele>874.0</ele><time>2026-04-29T09:45:34.07Z</time></trkpt><trkpt lat="40.16254334390743" lon="8.617868846457778"><ele>874.6666666666666</ele><time>2026-04-29T09:45:35.07Z</time></trkpt><trkpt lat="40.162519116494344" lon="8.61763989759609"><ele>875.3333333333333</ele><time>2026-04-29T09:45:36.07Z</time></trkpt><trkpt lat="40.162525100052996" lon="8.617441659189808"><ele>876.0</ele><time>2026-04-29T09:45:37.07Z</time></trkpt><trkpt lat="40.16255492382637" lon="8.617258722035478"><ele>876.0</ele><time>2026-04-29T09:45:38.07Z</time></trkpt><trkpt lat="40.16257766575073" lon="8.617082174703313"><ele>876.0</ele><time>2026-04-29T09:45:39.07Z</time></trkpt><trkpt lat="40.162512321893736" lon="8.616924829664878"><ele>876.0</ele><time>2026-04-29T09:45:40.07Z</time></trkpt><trkpt lat="40.16240388938116" lon="8.61677713889964"><ele>876.0</ele><time>2026-04-29T09:45:41.07Z</time></trkpt><trkpt lat="40.16232333884562" lon="8.616591217269578"><ele>865.3333333333333</ele><time>2026-04-29T09:45:42.07Z</time></trkpt><trkpt lat="40.16228838310128" lon="8.616357674668237"><ele>854.6666666666666</ele><time>2026-04-29T09:45:43.07Z</time></trkpt><trkpt lat="40.16230692264591" lon="8.61615831258087"><ele>844.0</ele><time>2026-04-29T09:45:44.07Z</time></trkpt><trkpt lat="40.1623634190912" lon="8.615988304590397"><ele>851.75</ele><time>2026-04-29T09:45:45.07Z</time></trkpt><trkpt lat="40.16245545653147" lon="8.615846253529805"><ele>859.5</ele><time>2026-04-29T09:45:46.07Z</time></trkpt><trkpt lat="40.16254737540564" lon="8.61571886299589"><ele>867.25</ele><time>2026-04-29T09:45:47.07Z</time></trkpt><trkpt lat="40.16260477593385" lon="8.615561863179963"><ele>875.0</ele><time>2026-04-29T09:45:48.07Z</time></trkpt><trkpt lat="40.162630649399844" lon="8.615366898292168"><ele>872.0</ele><time>2026-04-29T09:45:49.07Z</time></trkpt><trkpt lat="40.16259879376427" lon="8.615169248579207"><ele>869.0</ele><time>2026-04-29T09:45:50.07Z</time></trkpt><trkpt lat="40.16253439645925" lon="8.614997383552652"><ele>866.0</ele><time>2026-04-29T09:45:51.07Z</time></trkpt><trkpt lat="40.162500751986656" lon="8.61481440487008"><ele>863.0</ele><time>2026-04-29T09:45:52.07Z</time></trkpt><trkpt lat="40.16255838068797" lon="8.614617675499279"><ele>857.0</ele><time>2026-04-29T09:45:53.07Z</time></trkpt><trkpt lat="40.16270426525705" lon="8.614471761311162"><ele>851.0</ele><time>2026-04-29T09:45:54.07Z</time></trkpt><trkpt lat="40.16286353409703" lon="8.614375540836047"><ele>845.0</ele><time>2026-04-29T09:45:55.07Z</time></trkpt><trkpt lat="40.16303484929995" lon="8.614324977427298"><ele>852.3333333333334</ele><time>2026-04-29T09:45:56.07Z</time></trkpt><trkpt lat="40.16320597066208" lon="8.614300102761685"><ele>859.6666666666667</ele><time>2026-04-29T09:45:57.07Z</time></trkpt><trkpt lat="40.16335114568976" lon="8.614213503154705"><ele>867.0</ele><time>2026-04-29T09:45:58.07Z</time></trkpt><trkpt lat="40.16348181498251" lon="8.61403902584005"><ele>867.0</ele><time>2026-04-29T09:45:59.07Z</time></trkpt><trkpt lat="40.16358392779948" lon="8.613832665887516"><ele>867.0</ele><time>2026-04-29T09:46:00.07Z</time></trkpt><trkpt lat="40.16368436204159" lon="8.613656943162525"><ele>867.0</ele><time>2026-04-29T09:46:01.07Z</time></trkpt><trkpt lat="40.163800358019486" lon="8.6135204153864"><ele>861.6666666666667</ele><time>2026-04-29T09:46:02.07Z</time></trkpt><trkpt lat="40.163959732725345" lon="8.613465332381613"><ele>856.3333333333334</ele><time>2026-04-29T09:46:03.07Z</time></trkpt><trkpt lat="40.16413856035982" lon="8.613450905554311"><ele>851.0</ele><time>2026-04-29T09:46:04.07Z</time></trkpt><trkpt lat="40.16432075135721" lon="8.613445611242213"><ele>851.0</ele><time>2026-04-29T09:46:05.07Z</time></trkpt><trkpt lat="40.16450927569819" lon="8.613464581331819"><ele>851.0</ele><time>2026-04-29T09:46:06.07Z</time></trkpt><trkpt lat="40.16469581638286" lon="8.613485972345847"><ele>851.0</ele><time>2026-04-29T09:46:07.07Z</time></trkpt><trkpt lat="40.164877598318135" lon="8.613482600962241"><ele>849.6666666666667</ele><time>2026-04-29T09:46:08.07Z</time></trkpt><trkpt lat="40.165047306428455" lon="8.613459206187152"><ele>848.3333333333333</ele><time>2026-04-29T09:46:09.071Z</time></trkpt><trkpt lat="40.16523559168888" lon="8.613513844673365"><ele>847.0</ele><time>2026-04-29T09:46:10.071Z</time></trkpt><trkpt lat="40.1654128201127" lon="8.613598500513266"><ele>854.0</ele><time>2026-04-29T09:46:11.071Z</time></trkpt><trkpt lat="40.16557868328322" lon="8.613669783951561"><ele>861.0</ele><time>2026-04-29T09:46:12.072Z</time></trkpt><trkpt lat="40.16573519465457" lon="8.613695491962279"><ele>868.0</ele><time>2026-04-29T09:46:13.071Z</time></trkpt><trkpt lat="40.16590617088596" lon="8.613659315667931"><ele>858.3333333333333</ele><time>2026-04-29T09:46:14.071Z</time></trkpt><trkpt lat="40.16608931753898" lon="8.613548987299243"><ele>848.6666666666667</ele><time>2026-04-29T09:46:15.071Z</time></trkpt><trkpt lat="40.166265752685455" lon="8.613421299413039"><ele>839.0</ele><time>2026-04-29T09:46:16.072Z</time></trkpt><trkpt lat="40.16642793421557" lon="8.613267218511645"><ele>838.0</ele><time>2026-04-29T09:46:17.072Z</time></trkpt><trkpt lat="40.1665777699037" lon="8.613075041737837"><ele>837.0</ele><time>2026-04-29T09:46:18.071Z</time></trkpt><trkpt lat="40.166722181158484" lon="8.612864067089335"><ele>836.0</ele><time>2026-04-29T09:46:19.071Z</time></trkpt><trkpt lat="40.16685917031899" lon="8.612647277490705"><ele>836.0</ele><time>2026-04-29T09:46:20.071Z</time></trkpt><trkpt lat="40.16698444314173" lon="8.612436575579963"><ele>836.0</ele><time>2026-04-29T09:46:21.071Z</time></trkpt><trkpt lat="40.16705797406756" lon="8.612193415804915"><ele>836.0</ele><time>2026-04-29T09:46:22.071Z</time></trkpt><trkpt lat="40.1670963855757" lon="8.61194813086138"><ele>830.6666666666667</ele><time>2026-04-29T09:46:23.071Z</time></trkpt><trkpt lat="40.16712543863073" lon="8.61166853893589"><ele>825.3333333333333</ele><time>2026-04-29T09:46:24.071Z</time></trkpt><trkpt lat="40.16715831467106" lon="8.611381331422763"><ele>820.0</ele><time>2026-04-29T09:46:25.071Z</time></trkpt><trkpt lat="40.16721081062958" lon="8.61110807952463"><ele>815.0</ele><time>2026-04-29T09:46:26.071Z</time></trkpt><trkpt lat="40.16728864768905" lon="8.610846709865815"><ele>810.0</ele><time>2026-04-29T09:46:27.071Z</time></trkpt><trkpt lat="40.16739565992647" lon="8.610610787617007"><ele>805.0</ele><time>2026-04-29T09:46:28.071Z</time></trkpt><trkpt lat="40.16749364716271" lon="8.610379612301038"><ele>814.3333333333333</ele><time>2026-04-29T09:46:29.071Z</time></trkpt><trkpt lat="40.167547736652146" lon="8.610123207171812"><ele>823.6666666666667</ele><time>2026-04-29T09:46:30.071Z</time></trkpt><trkpt lat="40.167573982507186" lon="8.60985426611698"><ele>833.0</ele><time>2026-04-29T09:46:31.071Z</time></trkpt><trkpt lat="40.16758079371202" lon="8.609594378784884"><ele>831.3333333333334</ele><time>2026-04-29T09:46:32.071Z</time></trkpt><trkpt lat="40.16760012077451" lon="8.609321370079847"><ele>829.6666666666667</ele><time>2026-04-29T09:46:33.071Z</time></trkpt><trkpt lat="40.16762210061942" lon="8.609064042895653"><ele>828.0</ele><time>2026-04-29T09:46:34.071Z</time></trkpt><trkpt lat="40.167653649270875" lon="8.608782695108793"><ele>823.3333333333333</ele><time>2026-04-29T09:46:35.071Z</time></trkpt><trkpt lat="40.16767373417382" lon="8.608526279925503"><ele>818.6666666666666</ele><time>2026-04-29T09:46:36.071Z</time></trkpt><trkpt lat="40.16771159953436" lon="8.608291732015031"><ele>814.0</ele><time>2026-04-29T09:46:37.071Z</time></trkpt><trkpt lat="40.1677901767264" lon="8.608045289629603"><ele>809.0</ele><time>2026-04-29T09:46:38.071Z</time></trkpt><trkpt lat="40.1678997158056" lon="8.607813363358638"><ele>804.0</ele><time>2026-04-29T09:46:39.071Z</time></trkpt><trkpt lat="40.16802863752995" lon="8.607597006488032"><ele>799.0</ele><time>2026-04-29T09:46:40.071Z</time></trkpt><trkpt lat="40.16817014719848" lon="8.607394951968354"><ele>800.6666666666666</ele><time>2026-04-29T09:46:41.071Z</time></trkpt><trkpt lat="40.168341286215444" lon="8.607229552427539"><ele>802.3333333333333</ele><time>2026-04-29T09:46:42.071Z</time></trkpt><trkpt lat="40.16852220492424" lon="8.60707803000416"><ele>804.0</ele><time>2026-04-29T09:46:43.071Z</time></trkpt><trkpt lat="40.168716041400145" lon="8.606941392831772"><ele>804.0</ele><time>2026-04-29T09:46:44.071Z</time></trkpt><trkpt lat="40.168906848264115" lon="8.606808918664644"><ele>804.0</ele><time>2026-04-29T09:46:45.071Z</time></trkpt><trkpt lat="40.169090291092274" lon="8.60667618914999"><ele>804.0</ele><time>2026-04-29T09:46:46.071Z</time></trkpt><trkpt lat="40.16925717650169" lon="8.606513816867174"><ele>809.3333333333333</ele><time>2026-04-29T09:46:47.071Z</time></trkpt><trkpt lat="40.16939656537204" lon="8.606362216611938"><ele>814.6666666666666</ele><time>2026-04-29T09:46:48.071Z</time></trkpt><trkpt lat="40.16953246013286" lon="8.606257387998976"><ele>820.0</ele><time>2026-04-29T09:46:49.071Z</time></trkpt><trkpt lat="40.16968455044427" lon="8.606246173761113"><ele>820.0</ele><time>2026-04-29T09:46:50.071Z</time></trkpt><trkpt lat="40.16984343015784" lon="8.60632377595143"><ele>820.0</ele><time>2026-04-29T09:46:51.071Z</time></trkpt><trkpt lat="40.170017306588605" lon="8.606453431202931"><ele>820.0</ele><time>2026-04-29T09:46:52.071Z</time></trkpt><trkpt lat="40.1701605228194" lon="8.606644210419214"><ele>818.6666666666666</ele><time>2026-04-29T09:46:53.071Z</time></trkpt><trkpt lat="40.17030456213953" lon="8.606853441246166"><ele>817.3333333333333</ele><time>2026-04-29T09:46:54.071Z</time></trkpt><trkpt lat="40.170435015482" lon="8.607074558094464"><ele>816.0</ele><time>2026-04-29T09:46:55.071Z</time></trkpt><trkpt lat="40.17055678626264" lon="8.607297007980431"><ele>813.75</ele><time>2026-04-29T09:46:56.071Z</time></trkpt><trkpt lat="40.1706708623166" lon="8.607490881104175"><ele>811.5</ele><time>2026-04-29T09:46:57.071Z</time></trkpt><trkpt lat="40.17074939978597" lon="8.607641380380326"><ele>809.25</ele><time>2026-04-29T09:46:58.071Z</time></trkpt><trkpt lat="40.17081566399497" lon="8.607743510131765"><ele>807.0</ele><time>2026-04-29T09:46:59.071Z</time></trkpt><trkpt lat="40.17089918445709" lon="8.607800777159254"><ele>807.0</ele><time>2026-04-29T09:47:00.071Z</time></trkpt><trkpt lat="40.17100955799776" lon="8.607758839600853"><ele>807.0</ele><time>2026-04-29T09:47:01.071Z</time></trkpt><trkpt lat="40.1710582984144" lon="8.607631606325546"><ele>807.0</ele><time>2026-04-29T09:47:02.071Z</time></trkpt><trkpt lat="40.17105275340236" lon="8.607474888691772"><ele>807.0</ele><time>2026-04-29T09:47:03.071Z</time></trkpt><trkpt lat="40.17098661455394" lon="8.607325555798058"><ele>807.0</ele><time>2026-04-29T09:47:04.071Z</time></trkpt><trkpt lat="40.17086083609095" lon="8.60720573422571"><ele>807.0</ele><time>2026-04-29T09:47:05.071Z</time></trkpt><trkpt lat="40.17071576747308" lon="8.607109015158176"><ele>807.0</ele><time>2026-04-29T09:47:06.071Z</time></trkpt><trkpt lat="40.17060879352733" lon="8.606979595573966"><ele>810.0</ele><time>2026-04-29T09:47:07.071Z</time></trkpt><trkpt lat="40.170539086618525" lon="8.606811956162227"><ele>813.0</ele><time>2026-04-29T09:47:08.071Z</time></trkpt><trkpt lat="40.1704984744994" lon="8.606573415995797"><ele>816.0</ele><time>2026-04-29T09:47:09.071Z</time></trkpt><trkpt lat="40.170438942708884" lon="8.606349247486364"><ele>813.0</ele><time>2026-04-29T09:47:10.071Z</time></trkpt><trkpt lat="40.17037077163384" lon="8.606113428370236"><ele>810.0</ele><time>2026-04-29T09:47:11.071Z</time></trkpt><trkpt lat="40.170283905929026" lon="8.605895316676765"><ele>807.0</ele><time>2026-04-29T09:47:12.071Z</time></trkpt><trkpt lat="40.17019771690054" lon="8.605704071987988"><ele>807.0</ele><time>2026-04-29T09:47:13.071Z</time></trkpt><trkpt lat="40.17012383706802" lon="8.605535478687537"><ele>807.0</ele><time>2026-04-29T09:47:14.071Z</time></trkpt><trkpt lat="40.17007389365783" lon="8.605414622097351"><ele>807.0</ele><time>2026-04-29T09:47:15.071Z</time></trkpt><trkpt lat="40.17002240975077" lon="8.605326237389786"><ele>807.0</ele><time>2026-04-29T09:47:16.071Z</time></trkpt><trkpt lat="40.16999789634664" lon="8.60523286722469"><ele>807.0</ele><time>2026-04-29T09:47:17.071Z</time></trkpt><trkpt lat="40.17005475414352" lon="8.605144295062194"><ele>807.0</ele><time>2026-04-29T09:47:18.071Z</time></trkpt><trkpt lat="40.170155659517256" lon="8.605138416293695"><ele>807.0</ele><time>2026-04-29T09:47:19.071Z</time></trkpt><trkpt lat="40.17023506823452" lon="8.605254229018383"><ele>807.0</ele><time>2026-04-29T09:47:20.071Z</time></trkpt><trkpt lat="40.170280522349955" lon="8.605428595168485"><ele>807.0</ele><time>2026-04-29T09:47:21.071Z</time></trkpt><trkpt lat="40.17034537028123" lon="8.605636567969592"><ele>807.0</ele><time>2026-04-29T09:47:22.071Z</time></trkpt><trkpt lat="40.17044685760214" lon="8.605805183102612"><ele>807.0</ele><time>2026-04-29T09:47:23.071Z</time></trkpt><trkpt lat="40.17056697267638" lon="8.605964230041794"><ele>807.0</ele><time>2026-04-29T09:47:24.071Z</time></trkpt><trkpt lat="40.17070269800579" lon="8.606142540089722"><ele>803.3333333333333</ele><time>2026-04-29T09:47:25.071Z</time></trkpt><trkpt lat="40.17085036975936" lon="8.606326372865674"><ele>799.6666666666666</ele><time>2026-04-29T09:47:26.071Z</time></trkpt><trkpt lat="40.17094310638795" lon="8.606504303330928"><ele>796.0</ele><time>2026-04-29T09:47:27.071Z</time></trkpt><trkpt lat="40.17101481697162" lon="8.606651312318483"><ele>796.0</ele><time>2026-04-29T09:47:28.071Z</time></trkpt><trkpt lat="40.17110362355035" lon="8.60678922277252"><ele>796.0</ele><time>2026-04-29T09:47:29.071Z</time></trkpt><trkpt lat="40.17122977821622" lon="8.60691372250387"><ele>796.0</ele><time>2026-04-29T09:47:30.071Z</time></trkpt><trkpt lat="40.17138104839646" lon="8.60700273670556"><ele>794.3333333333333</ele><time>2026-04-29T09:47:31.071Z</time></trkpt><trkpt lat="40.171526837010674" lon="8.607141534365999"><ele>792.6666666666667</ele><time>2026-04-29T09:47:32.071Z</time></trkpt><trkpt lat="40.171634992998264" lon="8.607293823100868"><ele>791.0</ele><time>2026-04-29T09:47:33.071Z</time></trkpt><trkpt lat="40.17173401508429" lon="8.607417277796975"><ele>791.0</ele><time>2026-04-29T09:47:34.071Z</time></trkpt><trkpt lat="40.17183162000652" lon="8.60747505024069"><ele>791.0</ele><time>2026-04-29T09:47:35.071Z</time></trkpt><trkpt lat="40.17195726007708" lon="8.607473289761938"><ele>791.0</ele><time>2026-04-29T09:47:36.071Z</time></trkpt><trkpt lat="40.17210108382491" lon="8.607414959472473"><ele>791.0</ele><time>2026-04-29T09:47:37.071Z</time></trkpt><trkpt lat="40.17225436239339" lon="8.607302700978172"><ele>790.6666666666667</ele><time>2026-04-29T09:47:38.071Z</time></trkpt><trkpt lat="40.17240980573455" lon="8.607200884249956"><ele>790.3333333333333</ele><time>2026-04-29T09:47:39.071Z</time></trkpt><trkpt lat="40.17256630589982" lon="8.607081270698911"><ele>790.0</ele><time>2026-04-29T09:47:40.071Z</time></trkpt><trkpt lat="40.17272199993889" lon="8.606937753307703"><ele>788.0</ele><time>2026-04-29T09:47:41.071Z</time></trkpt><trkpt lat="40.17289197827046" lon="8.606777030258417"><ele>786.0</ele><time>2026-04-29T09:47:42.071Z</time></trkpt><trkpt lat="40.17304507449" lon="8.60660310563611"><ele>784.0</ele><time>2026-04-29T09:47:43.071Z</time></trkpt><trkpt lat="40.17320749442657" lon="8.60646409291155"><ele>784.0</ele><time>2026-04-29T09:47:44.071Z</time></trkpt><trkpt lat="40.17335741054553" lon="8.60633710439056"><ele>784.0</ele><time>2026-04-29T09:47:45.071Z</time></trkpt><trkpt lat="40.17347545107075" lon="8.606199630773366"><ele>784.0</ele><time>2026-04-29T09:47:46.071Z</time></trkpt><trkpt lat="40.173551039611596" lon="8.606019631033487"><ele>776.6666666666666</ele><time>2026-04-29T09:47:47.071Z</time></trkpt><trkpt lat="40.17363789825369" lon="8.605806112609999"><ele>769.3333333333333</ele><time>2026-04-29T09:47:48.071Z</time></trkpt><trkpt lat="40.17379379001032" lon="8.605612901106829"><ele>762.0</ele><time>2026-04-29T09:47:49.071Z</time></trkpt><trkpt lat="40.17394910646265" lon="8.605430456888811"><ele>763.3333333333334</ele><time>2026-04-29T09:47:50.071Z</time></trkpt><trkpt lat="40.174087367513195" lon="8.605208149621335"><ele>764.6666666666667</ele><time>2026-04-29T09:47:51.071Z</time></trkpt><trkpt lat="40.17421912706432" lon="8.60500329781322"><ele>766.0</ele><time>2026-04-29T09:47:52.071Z</time></trkpt><trkpt lat="40.17432989196265" lon="8.604858424524796"><ele>766.0</ele><time>2026-04-29T09:47:53.071Z</time></trkpt><trkpt lat="40.17442308608109" lon="8.60472386662289"><ele>766.0</ele><time>2026-04-29T09:47:54.071Z</time></trkpt><trkpt lat="40.17449528515985" lon="8.604562927231486"><ele>766.0</ele><time>2026-04-29T09:47:55.071Z</time></trkpt><trkpt lat="40.17451608809084" lon="8.604374102151526"><ele>766.0</ele><time>2026-04-29T09:47:56.071Z</time></trkpt><trkpt lat="40.174484538337225" lon="8.60415682437937"><ele>762.3333333333334</ele><time>2026-04-29T09:47:57.071Z</time></trkpt><trkpt lat="40.17440955757593" lon="8.603910145519478"><ele>758.6666666666666</ele><time>2026-04-29T09:47:58.071Z</time></trkpt><trkpt lat="40.174340273130525" lon="8.603697072859692"><ele>755.0</ele><time>2026-04-29T09:47:59.071Z</time></trkpt><trkpt lat="40.17433039819214" lon="8.603490362124983"><ele>753.3333333333333</ele><time>2026-04-29T09:48:00.071Z</time></trkpt><trkpt lat="40.17437442368774" lon="8.60324650825565"><ele>751.6666666666666</ele><time>2026-04-29T09:48:01.071Z</time></trkpt><trkpt lat="40.17442710081348" lon="8.603034695225864"><ele>750.0</ele><time>2026-04-29T09:48:02.071Z</time></trkpt><trkpt lat="40.174447233569175" lon="8.602896548139782"><ele>748.0</ele><time>2026-04-29T09:48:03.071Z</time></trkpt><trkpt lat="40.17448373722369" lon="8.602765812641008"><ele>746.0</ele><time>2026-04-29T09:48:04.071Z</time></trkpt><trkpt lat="40.17458411031369" lon="8.602709768629024"><ele>744.0</ele><time>2026-04-29T09:48:05.071Z</time></trkpt><trkpt lat="40.1747164926206" lon="8.602697922283342"><ele>742.0</ele><time>2026-04-29T09:48:06.071Z</time></trkpt><trkpt lat="40.17484222717957" lon="8.6026571724982"><ele>743.3333333333334</ele><time>2026-04-29T09:48:07.071Z</time></trkpt><trkpt lat="40.17496449566556" lon="8.602603466953845"><ele>744.6666666666666</ele><time>2026-04-29T09:48:08.071Z</time></trkpt><trkpt lat="40.17514141831414" lon="8.602571047120275"><ele>746.0</ele><time>2026-04-29T09:48:09.071Z</time></trkpt><trkpt lat="40.1753241706434" lon="8.602542523875245"><ele>746.0</ele><time>2026-04-29T09:48:10.071Z</time></trkpt><trkpt lat="40.175486892948044" lon="8.602585948106016"><ele>746.0</ele><time>2026-04-29T09:48:11.071Z</time></trkpt><trkpt lat="40.17563507190853" lon="8.602684451408768"><ele>746.0</ele><time>2026-04-29T09:48:12.071Z</time></trkpt><trkpt lat="40.17576188732417" lon="8.602780726052162"><ele>744.75</ele><time>2026-04-29T09:48:13.071Z</time></trkpt><trkpt lat="40.17586585907143" lon="8.602842256800882"><ele>743.5</ele><time>2026-04-29T09:48:14.071Z</time></trkpt><trkpt lat="40.17598069499301" lon="8.602842338155716"><ele>742.25</ele><time>2026-04-29T09:48:15.073Z</time></trkpt><trkpt lat="40.176097817897464" lon="8.602765691231083"><ele>741.0</ele><time>2026-04-29T09:48:16.073Z</time></trkpt><trkpt lat="40.176207170607725" lon="8.602624381526532"><ele>741.0</ele><time>2026-04-29T09:48:17.073Z</time></trkpt><trkpt lat="40.17630106934577" lon="8.602426976844926"><ele>741.0</ele><time>2026-04-29T09:48:18.073Z</time></trkpt><trkpt lat="40.176384913055415" lon="8.602198776594792"><ele>741.0</ele><time>2026-04-29T09:48:19.073Z</time></trkpt><trkpt lat="40.17645889488606" lon="8.601966564157776"><ele>742.0</ele><time>2026-04-29T09:48:20.073Z</time></trkpt><trkpt lat="40.17653230290643" lon="8.601756850087371"><ele>743.0</ele><time>2026-04-29T09:48:21.073Z</time></trkpt><trkpt lat="40.17658064612213" lon="8.601554063367594"><ele>744.0</ele><time>2026-04-29T09:48:22.072Z</time></trkpt><trkpt lat="40.17655644303873" lon="8.601336997134178"><ele>733.3333333333334</ele><time>2026-04-29T09:48:23.072Z</time></trkpt><trkpt lat="40.17650936599703" lon="8.60113096257964"><ele>722.6666666666667</ele><time>2026-04-29T09:48:24.073Z</time></trkpt><trkpt lat="40.17646449272358" lon="8.600927224515283"><ele>712.0</ele><time>2026-04-29T09:48:25.073Z</time></trkpt><trkpt lat="40.17646633848649" lon="8.600721198451136"><ele>712.0</ele><time>2026-04-29T09:48:26.073Z</time></trkpt><trkpt lat="40.17651818897312" lon="8.600501844570765"><ele>712.0</ele><time>2026-04-29T09:48:27.072Z</time></trkpt><trkpt lat="40.17658706785531" lon="8.600263833511901"><ele>712.0</ele><time>2026-04-29T09:48:28.073Z</time></trkpt><trkpt lat="40.1766613669121" lon="8.60002855910119"><ele>715.0</ele><time>2026-04-29T09:48:29.073Z</time></trkpt><trkpt lat="40.17671624810749" lon="8.599779242630339"><ele>718.0</ele><time>2026-04-29T09:48:30.073Z</time></trkpt><trkpt lat="40.17674228325457" lon="8.599523843523677"><ele>721.0</ele><time>2026-04-29T09:48:31.073Z</time></trkpt><trkpt lat="40.17676089909362" lon="8.599278402530969"><ele>721.0</ele><time>2026-04-29T09:48:32.073Z</time></trkpt><trkpt lat="40.176760512334745" lon="8.59904698516256"><ele>721.0</ele><time>2026-04-29T09:48:33.073Z</time></trkpt><trkpt lat="40.17672957862453" lon="8.598812797915421"><ele>721.0</ele><time>2026-04-29T09:48:34.073Z</time></trkpt><trkpt lat="40.17667144572637" lon="8.598585831443552"><ele>720.0</ele><time>2026-04-29T09:48:35.073Z</time></trkpt><trkpt lat="40.1766226598208" lon="8.59836637927244"><ele>719.0</ele><time>2026-04-29T09:48:36.073Z</time></trkpt><trkpt lat="40.17661772944792" lon="8.598141298279062"><ele>718.0</ele><time>2026-04-29T09:48:37.073Z</time></trkpt><trkpt lat="40.176653827309565" lon="8.597918020599888"><ele>716.6666666666667</ele><time>2026-04-29T09:48:38.073Z</time></trkpt><trkpt lat="40.176719846177456" lon="8.597721420095745"><ele>715.3333333333334</ele><time>2026-04-29T09:48:39.073Z</time></trkpt><trkpt lat="40.17677065805168" lon="8.597527746188593"><ele>714.0</ele><time>2026-04-29T09:48:40.073Z</time></trkpt><trkpt lat="40.17674271387848" lon="8.597316364469581"><ele>714.0</ele><time>2026-04-29T09:48:41.073Z</time></trkpt><trkpt lat="40.176668185451106" lon="8.59709397124513"><ele>714.0</ele><time>2026-04-29T09:48:42.073Z</time></trkpt><trkpt lat="40.17660079511773" lon="8.59684212067916"><ele>714.0</ele><time>2026-04-29T09:48:43.073Z</time></trkpt><trkpt lat="40.1765633425523" lon="8.596592276857809"><ele>712.6666666666666</ele><time>2026-04-29T09:48:44.073Z</time></trkpt><trkpt lat="40.176572518568605" lon="8.59637608809744"><ele>711.3333333333333</ele><time>2026-04-29T09:48:45.073Z</time></trkpt><trkpt lat="40.17659152218199" lon="8.596140009511469"><ele>710.0</ele><time>2026-04-29T09:48:46.073Z</time></trkpt><trkpt lat="40.17663440930729" lon="8.595902937545072"><ele>707.0</ele><time>2026-04-29T09:48:47.073Z</time></trkpt><trkpt lat="40.17671483372117" lon="8.595689987145274"><ele>704.0</ele><time>2026-04-29T09:48:48.073Z</time></trkpt><trkpt lat="40.176809249514214" lon="8.595465568430596"><ele>701.0</ele><time>2026-04-29T09:48:49.073Z</time></trkpt><trkpt lat="40.17686946575579" lon="8.595215872707135"><ele>699.6666666666666</ele><time>2026-04-29T09:48:50.073Z</time></trkpt><trkpt lat="40.17692679021255" lon="8.59496452399841"><ele>698.3333333333334</ele><time>2026-04-29T09:48:51.073Z</time></trkpt><trkpt lat="40.17697631712104" lon="8.594695534703002"><ele>697.0</ele><time>2026-04-29T09:48:52.073Z</time></trkpt><trkpt lat="40.17701869305408" lon="8.594427857508952"><ele>694.6666666666667</ele><time>2026-04-29T09:48:53.073Z</time></trkpt><trkpt lat="40.177044000765065" lon="8.594155819253688"><ele>692.3333333333334</ele><time>2026-04-29T09:48:54.073Z</time></trkpt><trkpt lat="40.17704014583886" lon="8.593878315419687"><ele>690.0</ele><time>2026-04-29T09:48:55.073Z</time></trkpt><trkpt lat="40.17700949307391" lon="8.59360394103751"><ele>688.3333333333334</ele><time>2026-04-29T09:48:56.073Z</time></trkpt><trkpt lat="40.176951095725116" lon="8.59335193684216"><ele>686.6666666666667</ele><time>2026-04-29T09:48:57.073Z</time></trkpt><trkpt lat="40.17690557031916" lon="8.59308596695902"><ele>685.0</ele><time>2026-04-29T09:48:58.073Z</time></trkpt><trkpt lat="40.17687320202775" lon="8.592832330094971"><ele>684.0</ele><time>2026-04-29T09:48:59.073Z</time></trkpt><trkpt lat="40.17685312730015" lon="8.592586646895455"><ele>683.0</ele><time>2026-04-29T09:49:00.073Z</time></trkpt><trkpt lat="40.17685942898841" lon="8.59235355641641"><ele>682.0</ele><time>2026-04-29T09:49:01.073Z</time></trkpt><trkpt lat="40.17690484226255" lon="8.592136686532678"><ele>680.0</ele><time>2026-04-29T09:49:02.073Z</time></trkpt><trkpt lat="40.17698394376462" lon="8.591944860328688"><ele>678.0</ele><time>2026-04-29T09:49:03.073Z</time></trkpt><trkpt lat="40.177050343943556" lon="8.59178295484851"><ele>676.0</ele><time>2026-04-29T09:49:04.073Z</time></trkpt><trkpt lat="40.17709302313936" lon="8.59165256552513"><ele>674.0</ele><time>2026-04-29T09:49:05.073Z</time></trkpt><trkpt lat="40.17709576371291" lon="8.591530545402025"><ele>674.0</ele><time>2026-04-29T09:49:06.073Z</time></trkpt><trkpt lat="40.177055245928855" lon="8.591442125231644"><ele>674.0</ele><time>2026-04-29T09:49:07.073Z</time></trkpt><trkpt lat="40.17694692962347" lon="8.591498058796704"><ele>674.0</ele><time>2026-04-29T09:49:09.073Z</time></trkpt><trkpt lat="40.1768896203859" lon="8.591622972162595"><ele>674.0</ele><time>2026-04-29T09:49:10.073Z</time></trkpt><trkpt lat="40.17683149249943" lon="8.59176934132403"><ele>674.0</ele><time>2026-04-29T09:49:11.073Z</time></trkpt><trkpt lat="40.176755864374464" lon="8.591909888052166"><ele>676.0</ele><time>2026-04-29T09:49:12.073Z</time></trkpt><trkpt lat="40.17665379014582" lon="8.592044049088228"><ele>678.0</ele><time>2026-04-29T09:49:13.073Z</time></trkpt><trkpt lat="40.17654760975688" lon="8.59219247379894"><ele>680.0</ele><time>2026-04-29T09:49:14.073Z</time></trkpt><trkpt lat="40.17647009673967" lon="8.592328321586907"><ele>682.0</ele><time>2026-04-29T09:49:15.073Z</time></trkpt><trkpt lat="40.17645183693134" lon="8.592502502685525"><ele>675.0</ele><time>2026-04-29T09:49:16.073Z</time></trkpt><trkpt lat="40.17644448525596" lon="8.592716692684066"><ele>668.0</ele><time>2026-04-29T09:49:17.073Z</time></trkpt><trkpt lat="40.17643466518377" lon="8.592906610037096"><ele>661.0</ele><time>2026-04-29T09:49:18.073Z</time></trkpt><trkpt lat="40.17636319460544" lon="8.59310578500973"><ele>661.0</ele><time>2026-04-29T09:49:19.073Z</time></trkpt><trkpt lat="40.1762629979757" lon="8.593291179544243"><ele>661.0</ele><time>2026-04-29T09:49:20.073Z</time></trkpt><trkpt lat="40.176150893489876" lon="8.59348113379149"><ele>661.0</ele><time>2026-04-29T09:49:21.073Z</time></trkpt><trkpt lat="40.176034525538576" lon="8.593645237948087"><ele>663.0</ele><time>2026-04-29T09:49:22.073Z</time></trkpt><trkpt lat="40.17592477024468" lon="8.593874704248348"><ele>665.0</ele><time>2026-04-29T09:49:23.073Z</time></trkpt><trkpt lat="40.175817206506316" lon="8.594082807905188"><ele>667.0</ele><time>2026-04-29T09:49:24.073Z</time></trkpt><trkpt lat="40.17572783645189" lon="8.594309096041554"><ele>663.3333333333334</ele><time>2026-04-29T09:49:25.073Z</time></trkpt><trkpt lat="40.17563880569885" lon="8.594544278949801"><ele>659.6666666666666</ele><time>2026-04-29T09:49:26.073Z</time></trkpt><trkpt lat="40.17555401045679" lon="8.594748439946901"><ele>656.0</ele><time>2026-04-29T09:49:27.073Z</time></trkpt><trkpt lat="40.17548830347777" lon="8.59493140567773"><ele>656.0</ele><time>2026-04-29T09:49:28.073Z</time></trkpt><trkpt lat="40.175479117722304" lon="8.59511209107925"><ele>656.0</ele><time>2026-04-29T09:49:29.073Z</time></trkpt><trkpt lat="40.17549521822849" lon="8.595277740612191"><ele>656.0</ele><time>2026-04-29T09:49:30.073Z</time></trkpt><trkpt lat="40.17550653146945" lon="8.595391707901111"><ele>656.0</ele><time>2026-04-29T09:49:31.073Z</time></trkpt><trkpt lat="40.17546497912073" lon="8.595459356695347"><ele>656.0</ele><time>2026-04-29T09:49:32.073Z</time></trkpt><trkpt lat="40.17537057443073" lon="8.59546595385342"><ele>656.0</ele><time>2026-04-29T09:49:33.073Z</time></trkpt><trkpt lat="40.1753100634273" lon="8.595358601060973"><ele>656.0</ele><time>2026-04-29T09:49:34.073Z</time></trkpt><trkpt lat="40.17530331307454" lon="8.595160906360963"><ele>656.0</ele><time>2026-04-29T09:49:35.073Z</time></trkpt><trkpt lat="40.17529557282841" lon="8.594954104759044"><ele>656.0</ele><time>2026-04-29T09:49:36.073Z</time></trkpt><trkpt lat="40.17528971819406" lon="8.59474100330323"><ele>656.0</ele><time>2026-04-29T09:49:37.073Z</time></trkpt><trkpt lat="40.175304694285174" lon="8.594521585672542"><ele>656.0</ele><time>2026-04-29T09:49:38.073Z</time></trkpt><trkpt lat="40.17533611414222" lon="8.594292152079301"><ele>656.0</ele><time>2026-04-29T09:49:39.073Z</time></trkpt><trkpt lat="40.17535943862847" lon="8.594065060036545"><ele>653.6666666666666</ele><time>2026-04-29T09:49:40.073Z</time></trkpt><trkpt lat="40.175385639628345" lon="8.593818064659501"><ele>651.3333333333334</ele><time>2026-04-29T09:49:41.073Z</time></trkpt><trkpt lat="40.17541528486561" lon="8.593571015756707"><ele>649.0</ele><time>2026-04-29T09:49:42.073Z</time></trkpt><trkpt lat="40.175443105755576" lon="8.593316323570843"><ele>646.3333333333334</ele><time>2026-04-29T09:49:43.073Z</time></trkpt><trkpt lat="40.17546984549175" lon="8.593058223586818"><ele>643.6666666666666</ele><time>2026-04-29T09:49:44.073Z</time></trkpt><trkpt lat="40.17548107779562" lon="8.592796683084645"><ele>641.0</ele><time>2026-04-29T09:49:45.073Z</time></trkpt><trkpt lat="40.175464879932946" lon="8.592554097057116"><ele>639.3333333333333</ele><time>2026-04-29T09:49:46.073Z</time></trkpt><trkpt lat="40.175429794237544" lon="8.59229719136185"><ele>637.6666666666666</ele><time>2026-04-29T09:49:47.073Z</time></trkpt><trkpt lat="40.17540448160278" lon="8.592038638439575"><ele>636.0</ele><time>2026-04-29T09:49:48.073Z</time></trkpt><trkpt lat="40.17538326919186" lon="8.59177464069705"><ele>636.0</ele><time>2026-04-29T09:49:49.073Z</time></trkpt><trkpt lat="40.17537159126609" lon="8.591502321377686"><ele>636.0</ele><time>2026-04-29T09:49:50.073Z</time></trkpt><trkpt lat="40.17535536836941" lon="8.59124490541725"><ele>636.0</ele><time>2026-04-29T09:49:51.073Z</time></trkpt><trkpt lat="40.17533532162938" lon="8.590995066882478"><ele>636.0</ele><time>2026-04-29T09:49:52.073Z</time></trkpt><trkpt lat="40.175329297901484" lon="8.59075747796874"><ele>636.0</ele><time>2026-04-29T09:49:53.073Z</time></trkpt><trkpt lat="40.175374817075294" lon="8.590527937338937"><ele>636.0</ele><time>2026-04-29T09:49:54.073Z</time></trkpt><trkpt lat="40.17546080848016" lon="8.590318082646279"><ele>635.6666666666666</ele><time>2026-04-29T09:49:55.073Z</time></trkpt><trkpt lat="40.17556059539572" lon="8.590121513222"><ele>635.3333333333333</ele><time>2026-04-29T09:49:56.073Z</time></trkpt><trkpt lat="40.17568081064978" lon="8.589932146899047"><ele>635.0</ele><time>2026-04-29T09:49:57.073Z</time></trkpt><trkpt lat="40.17578479703517" lon="8.58974212182854"><ele>635.0</ele><time>2026-04-29T09:49:58.073Z</time></trkpt><trkpt lat="40.1758731072523" lon="8.589552268399691"><ele>635.0</ele><time>2026-04-29T09:49:59.073Z</time></trkpt><trkpt lat="40.175912780737356" lon="8.589345945133347"><ele>635.0</ele><time>2026-04-29T09:50:00.073Z</time></trkpt><trkpt lat="40.17590839960673" lon="8.589141351695094"><ele>631.6666666666666</ele><time>2026-04-29T09:50:01.073Z</time></trkpt><trkpt lat="40.17586178647976" lon="8.588929784309961"><ele>628.3333333333334</ele><time>2026-04-29T09:50:02.073Z</time></trkpt><trkpt lat="40.1758813251188" lon="8.588699770922245"><ele>625.0</ele><time>2026-04-29T09:50:03.073Z</time></trkpt><trkpt lat="40.17592332791274" lon="8.588500108768955"><ele>622.3333333333334</ele><time>2026-04-29T09:50:04.073Z</time></trkpt><trkpt lat="40.17600711663288" lon="8.588305524361715"><ele>619.6666666666666</ele><time>2026-04-29T09:50:05.073Z</time></trkpt><trkpt lat="40.1760970753318" lon="8.58812072265746"><ele>617.0</ele><time>2026-04-29T09:50:06.073Z</time></trkpt><trkpt lat="40.17621317500476" lon="8.587971811438688"><ele>617.0</ele><time>2026-04-29T09:50:07.073Z</time></trkpt><trkpt lat="40.17636442336582" lon="8.587865288067663"><ele>617.0</ele><time>2026-04-29T09:50:08.073Z</time></trkpt><trkpt lat="40.17649604370108" lon="8.587797665525418"><ele>617.0</ele><time>2026-04-29T09:50:09.073Z</time></trkpt><trkpt lat="40.17658407281549" lon="8.587668049919857"><ele>617.0</ele><time>2026-04-29T09:50:10.073Z</time></trkpt><trkpt lat="40.17662191030102" lon="8.58751563527288"><ele>616.0</ele><time>2026-04-29T09:50:11.073Z</time></trkpt><trkpt lat="40.176610164009645" lon="8.587337804958194"><ele>615.0</ele><time>2026-04-29T09:50:12.073Z</time></trkpt><trkpt lat="40.176585855399146" lon="8.587121718923646"><ele>614.0</ele><time>2026-04-29T09:50:13.073Z</time></trkpt><trkpt lat="40.17658292055406" lon="8.586893746406888"><ele>614.0</ele><time>2026-04-29T09:50:14.073Z</time></trkpt><trkpt lat="40.176584598282076" lon="8.586678278766458"><ele>614.0</ele><time>2026-04-29T09:50:15.073Z</time></trkpt><trkpt lat="40.176584060302226" lon="8.586454858646917"><ele>614.0</ele><time>2026-04-29T09:50:16.073Z</time></trkpt><trkpt lat="40.1765874680271" lon="8.586227479883343"><ele>613.0</ele><time>2026-04-29T09:50:17.073Z</time></trkpt><trkpt lat="40.17660177100499" lon="8.585991789114827"><ele>612.0</ele><time>2026-04-29T09:50:18.073Z</time></trkpt><trkpt lat="40.17660053830643" lon="8.58575903784343"><ele>611.0</ele><time>2026-04-29T09:50:19.073Z</time></trkpt><trkpt lat="40.1765783613703" lon="8.585502623401808"><ele>609.3333333333333</ele><time>2026-04-29T09:50:20.073Z</time></trkpt><trkpt lat="40.176537867255064" lon="8.585243198839418"><ele>607.6666666666666</ele><time>2026-04-29T09:50:21.074Z</time></trkpt><trkpt lat="40.17650071205172" lon="8.584984551521094"><ele>606.0</ele><time>2026-04-29T09:50:22.074Z</time></trkpt><trkpt lat="40.176453757116946" lon="8.584727447368943"><ele>600.6666666666666</ele><time>2026-04-29T09:50:23.074Z</time></trkpt><trkpt lat="40.17639424839435" lon="8.584487518413088"><ele>595.3333333333333</ele><time>2026-04-29T09:50:24.074Z</time></trkpt><trkpt lat="40.17634717976931" lon="8.584264537708385"><ele>590.0</ele><time>2026-04-29T09:50:25.074Z</time></trkpt><trkpt lat="40.17632167317884" lon="8.584062086446936"><ele>590.0</ele><time>2026-04-29T09:50:26.074Z</time></trkpt><trkpt lat="40.17633327979989" lon="8.58387086484499"><ele>590.0</ele><time>2026-04-29T09:50:27.074Z</time></trkpt><trkpt lat="40.17638173862915" lon="8.5837025422594"><ele>590.0</ele><time>2026-04-29T09:50:28.074Z</time></trkpt><trkpt lat="40.17647001207821" lon="8.583552135574763"><ele>590.0</ele><time>2026-04-29T09:50:29.074Z</time></trkpt><trkpt lat="40.17658700915064" lon="8.583452958404248"><ele>590.5</ele><time>2026-04-29T09:50:30.074Z</time></trkpt><trkpt lat="40.176715071230454" lon="8.58343584630118"><ele>591.0</ele><time>2026-04-29T09:50:31.074Z</time></trkpt><trkpt lat="40.17684528230737" lon="8.583498046135215"><ele>591.5</ele><time>2026-04-29T09:50:32.074Z</time></trkpt><trkpt lat="40.17696697790308" lon="8.583635551997105"><ele>592.0</ele><time>2026-04-29T09:50:33.073Z</time></trkpt><trkpt lat="40.17706710249265" lon="8.583826993475869"><ele>590.6666666666667</ele><time>2026-04-29T09:50:34.073Z</time></trkpt><trkpt lat="40.17718214662295" lon="8.584012502997064"><ele>589.3333333333334</ele><time>2026-04-29T09:50:35.073Z</time></trkpt><trkpt lat="40.17732489053216" lon="8.584162160192909"><ele>588.0</ele><time>2026-04-29T09:50:36.073Z</time></trkpt><trkpt lat="40.17748614824552" lon="8.584276584186975"><ele>588.0</ele><time>2026-04-29T09:50:37.073Z</time></trkpt><trkpt lat="40.177656870308475" lon="8.584348277207695"><ele>588.0</ele><time>2026-04-29T09:50:38.073Z</time></trkpt><trkpt lat="40.177832056200764" lon="8.58437661486109"><ele>588.0</ele><time>2026-04-29T09:50:39.073Z</time></trkpt><trkpt lat="40.17800321777782" lon="8.584359296011021"><ele>588.0</ele><time>2026-04-29T09:50:40.073Z</time></trkpt><trkpt lat="40.17816725661541" lon="8.584311810827373"><ele>588.0</ele><time>2026-04-29T09:50:41.073Z</time></trkpt><trkpt lat="40.17833261866998" lon="8.58427999823352"><ele>588.0</ele><time>2026-04-29T09:50:42.073Z</time></trkpt><trkpt lat="40.17848345389182" lon="8.584261414019508"><ele>587.5</ele><time>2026-04-29T09:50:43.073Z</time></trkpt><trkpt lat="40.17862511046831" lon="8.584274747761391"><ele>587.0</ele><time>2026-04-29T09:50:44.073Z</time></trkpt><trkpt lat="40.17875235846847" lon="8.584353428894202"><ele>586.5</ele><time>2026-04-29T09:50:45.073Z</time></trkpt><trkpt lat="40.17885862214128" lon="8.584488993704547"><ele>586.0</ele><time>2026-04-29T09:50:46.073Z</time></trkpt><trkpt lat="40.17892225477658" lon="8.584645243595418"><ele>588.25</ele><time>2026-04-29T09:50:47.073Z</time></trkpt><trkpt lat="40.17891401313363" lon="8.584834430774917"><ele>590.5</ele><time>2026-04-29T09:50:48.073Z</time></trkpt><trkpt lat="40.178866304986904" lon="8.585015971364605"><ele>592.75</ele><time>2026-04-29T09:50:49.073Z</time></trkpt><trkpt lat="40.17886682396237" lon="8.58517274886068"><ele>595.0</ele><time>2026-04-29T09:50:50.073Z</time></trkpt><trkpt lat="40.17893068436868" lon="8.585291901213582"><ele>595.0</ele><time>2026-04-29T09:50:51.073Z</time></trkpt><trkpt lat="40.17903551570536" lon="8.585368906672215"><ele>595.0</ele><time>2026-04-29T09:50:52.073Z</time></trkpt><trkpt lat="40.179160983112325" lon="8.585441424889838"><ele>595.0</ele><time>2026-04-29T09:50:53.073Z</time></trkpt><trkpt lat="40.1792787419171" lon="8.58551137092665"><ele>595.0</ele><time>2026-04-29T09:50:54.073Z</time></trkpt><trkpt lat="40.17940818828756" lon="8.585494215496345"><ele>595.0</ele><time>2026-04-29T09:50:55.073Z</time></trkpt><trkpt lat="40.17954866161897" lon="8.585390767845915"><ele>595.0</ele><time>2026-04-29T09:50:56.073Z</time></trkpt><trkpt lat="40.1796536754524" lon="8.585222974716356"><ele>595.0</ele><time>2026-04-29T09:50:57.073Z</time></trkpt><trkpt lat="40.17974877126104" lon="8.58504922250385"><ele>591.0</ele><time>2026-04-29T09:50:58.073Z</time></trkpt><trkpt lat="40.17980777875812" lon="8.584861794031042"><ele>587.0</ele><time>2026-04-29T09:50:59.073Z</time></trkpt><trkpt lat="40.17981669213479" lon="8.584661085468706"><ele>583.0</ele><time>2026-04-29T09:51:00.073Z</time></trkpt><trkpt lat="40.179805528916866" lon="8.58440020801989"><ele>579.3333333333334</ele><time>2026-04-29T09:51:01.073Z</time></trkpt><trkpt lat="40.17981908394484" lon="8.584172833911657"><ele>575.6666666666666</ele><time>2026-04-29T09:51:02.073Z</time></trkpt><trkpt lat="40.17982712070571" lon="8.583915010894124"><ele>572.0</ele><time>2026-04-29T09:51:03.073Z</time></trkpt><trkpt lat="40.179830078269795" lon="8.583646460170717"><ele>568.6666666666666</ele><time>2026-04-29T09:51:04.073Z</time></trkpt><trkpt lat="40.179809275165134" lon="8.583388944460596"><ele>565.3333333333334</ele><time>2026-04-29T09:51:05.073Z</time></trkpt><trkpt lat="40.17979241801476" lon="8.583144892980313"><ele>562.0</ele><time>2026-04-29T09:51:06.073Z</time></trkpt><trkpt lat="40.179802588129505" lon="8.582909730610568"><ele>566.6666666666667</ele><time>2026-04-29T09:51:07.073Z</time></trkpt><trkpt lat="40.179854184377994" lon="8.582668219599078"><ele>571.3333333333334</ele><time>2026-04-29T09:51:08.073Z</time></trkpt><trkpt lat="40.179903422021404" lon="8.582425540271132"><ele>576.0</ele><time>2026-04-29T09:51:09.073Z</time></trkpt><trkpt lat="40.17992846208629" lon="8.58217127255248"><ele>572.0</ele><time>2026-04-29T09:51:10.073Z</time></trkpt><trkpt lat="40.179941511688654" lon="8.58192294140216"><ele>568.0</ele><time>2026-04-29T09:51:11.073Z</time></trkpt><trkpt lat="40.180003725538995" lon="8.581691973467345"><ele>564.0</ele><time>2026-04-29T09:51:12.073Z</time></trkpt><trkpt lat="40.180084246385206" lon="8.581469112467772"><ele>564.0</ele><time>2026-04-29T09:51:13.073Z</time></trkpt><trkpt lat="40.18014783196095" lon="8.581216603347956"><ele>564.0</ele><time>2026-04-29T09:51:14.073Z</time></trkpt><trkpt lat="40.180189444613454" lon="8.58094722725091"><ele>564.0</ele><time>2026-04-29T09:51:15.073Z</time></trkpt><trkpt lat="40.180228286708534" lon="8.580676116125247"><ele>560.6666666666666</ele><time>2026-04-29T09:51:16.073Z</time></trkpt><trkpt lat="40.1802693322599" lon="8.580421721378878"><ele>557.3333333333333</ele><time>2026-04-29T09:51:17.073Z</time></trkpt><trkpt lat="40.18031328368239" lon="8.580178339520309"><ele>554.0</ele><time>2026-04-29T09:51:18.073Z</time></trkpt><trkpt lat="40.18037601792597" lon="8.57995577498344"><ele>549.6666666666666</ele><time>2026-04-29T09:51:19.073Z</time></trkpt><trkpt lat="40.18047123447091" lon="8.579789227017445"><ele>545.3333333333334</ele><time>2026-04-29T09:51:20.073Z</time></trkpt><trkpt lat="40.18061303762578" lon="8.57967921227492"><ele>541.0</ele><time>2026-04-29T09:51:21.073Z</time></trkpt><trkpt lat="40.18078626968783" lon="8.579623948030969"><ele>541.3333333333334</ele><time>2026-04-29T09:51:22.073Z</time></trkpt><trkpt lat="40.18095080668975" lon="8.579537034646057"><ele>541.6666666666666</ele><time>2026-04-29T09:51:23.073Z</time></trkpt><trkpt lat="40.1810806144275" lon="8.579366360121183"><ele>542.0</ele><time>2026-04-29T09:51:24.073Z</time></trkpt><trkpt lat="40.18116060596486" lon="8.57915414143091"><ele>542.0</ele><time>2026-04-29T09:51:25.073Z</time></trkpt><trkpt lat="40.1811948219704" lon="8.578909833639043"><ele>542.0</ele><time>2026-04-29T09:51:26.073Z</time></trkpt><trkpt lat="40.18126222715304" lon="8.57866130700225"><ele>542.0</ele><time>2026-04-29T09:51:27.073Z</time></trkpt><trkpt lat="40.18135343146033" lon="8.578441547620118"><ele>541.3333333333333</ele><time>2026-04-29T09:51:28.073Z</time></trkpt><trkpt lat="40.18145075166387" lon="8.578261663005565"><ele>540.6666666666666</ele><time>2026-04-29T09:51:29.073Z</time></trkpt><trkpt lat="40.181565432018225" lon="8.578148244162957"><ele>540.0</ele><time>2026-04-29T09:51:30.073Z</time></trkpt><trkpt lat="40.18171688626466" lon="8.578115012606355"><ele>540.0</ele><time>2026-04-29T09:51:31.073Z</time></trkpt><trkpt lat="40.181866299616985" lon="8.57813933390844"><ele>540.0</ele><time>2026-04-29T09:51:32.073Z</time></trkpt><trkpt lat="40.18198733442733" lon="8.578244870111204"><ele>540.0</ele><time>2026-04-29T09:51:33.073Z</time></trkpt><trkpt lat="40.18207761501277" lon="8.578411720019943"><ele>540.0</ele><time>2026-04-29T09:51:34.073Z</time></trkpt><trkpt lat="40.18215569811729" lon="8.578613999305325"><ele>540.0</ele><time>2026-04-29T09:51:35.073Z</time></trkpt><trkpt lat="40.18228249634889" lon="8.578756320616243"><ele>540.0</ele><time>2026-04-29T09:51:36.073Z</time></trkpt><trkpt lat="40.18240636916632" lon="8.578841113171496"><ele>538.75</ele><time>2026-04-29T09:51:37.073Z</time></trkpt><trkpt lat="40.182525939647945" lon="8.578834561283822"><ele>537.5</ele><time>2026-04-29T09:51:38.073Z</time></trkpt><trkpt lat="40.18264773414967" lon="8.578732967967968"><ele>536.25</ele><time>2026-04-29T09:51:39.073Z</time></trkpt><trkpt lat="40.182761120383546" lon="8.57855909508832"><ele>535.0</ele><time>2026-04-29T09:51:40.073Z</time></trkpt><trkpt lat="40.18283897144675" lon="8.578345971714008"><ele>535.0</ele><time>2026-04-29T09:51:41.073Z</time></trkpt><trkpt lat="40.18287520194947" lon="8.578118743713734"><ele>535.0</ele><time>2026-04-29T09:51:42.073Z</time></trkpt><trkpt lat="40.18284983956491" lon="8.577894941127195"><ele>535.0</ele><time>2026-04-29T09:51:43.073Z</time></trkpt><trkpt lat="40.18278272940849" lon="8.577691808635647"><ele>532.2</ele><time>2026-04-29T09:51:44.073Z</time></trkpt><trkpt lat="40.182696376196375" lon="8.577529507913555"><ele>529.4</ele><time>2026-04-29T09:51:45.073Z</time></trkpt><trkpt lat="40.18262942421" lon="8.57741778057997"><ele>526.6</ele><time>2026-04-29T09:51:46.073Z</time></trkpt><trkpt lat="40.18263032463836" lon="8.577317549211598"><ele>523.8</ele><time>2026-04-29T09:51:47.073Z</time></trkpt><trkpt lat="40.18269562823524" lon="8.577251463186597"><ele>521.0</ele><time>2026-04-29T09:51:48.073Z</time></trkpt><trkpt lat="40.18277985702722" lon="8.577268670344358"><ele>521.0</ele><time>2026-04-29T09:51:49.073Z</time></trkpt><trkpt lat="40.18286049630963" lon="8.577374745761052"><ele>521.0</ele><time>2026-04-29T09:51:50.073Z</time></trkpt><trkpt lat="40.18295659664131" lon="8.57751442831416"><ele>521.0</ele><time>2026-04-29T09:51:51.073Z</time></trkpt><trkpt lat="40.18306899443051" lon="8.577667978601276"><ele>521.0</ele><time>2026-04-29T09:51:52.073Z</time></trkpt><trkpt lat="40.18316985200667" lon="8.577818272539593"><ele>526.6666666666666</ele><time>2026-04-29T09:51:53.073Z</time></trkpt><trkpt lat="40.18328335195306" lon="8.577945419582187"><ele>532.3333333333334</ele><time>2026-04-29T09:51:54.073Z</time></trkpt><trkpt lat="40.18342677515696" lon="8.578029775006232"><ele>538.0</ele><time>2026-04-29T09:51:55.073Z</time></trkpt><trkpt lat="40.183588017221034" lon="8.578076555941731"><ele>538.0</ele><time>2026-04-29T09:51:56.073Z</time></trkpt><trkpt lat="40.18372918106658" lon="8.578093924317232"><ele>538.0</ele><time>2026-04-29T09:51:57.073Z</time></trkpt><trkpt lat="40.18387228597194" lon="8.57805332650195"><ele>538.0</ele><time>2026-04-29T09:51:58.073Z</time></trkpt><trkpt lat="40.18397947729151" lon="8.577973371755888"><ele>538.0</ele><time>2026-04-29T09:51:59.073Z</time></trkpt><trkpt lat="40.18406436459578" lon="8.577811106391897"><ele>532.3333333333334</ele><time>2026-04-29T09:52:00.073Z</time></trkpt><trkpt lat="40.18411911333099" lon="8.577592828167294"><ele>526.6666666666666</ele><time>2026-04-29T09:52:01.073Z</time></trkpt><trkpt lat="40.18420133778816" lon="8.577364191482783"><ele>521.0</ele><time>2026-04-29T09:52:02.073Z</time></trkpt><trkpt lat="40.1842468256222" lon="8.577126133384663"><ele>519.3333333333333</ele><time>2026-04-29T09:52:03.073Z</time></trkpt><trkpt lat="40.18424605359523" lon="8.576909398863815"><ele>517.6666666666666</ele><time>2026-04-29T09:52:04.073Z</time></trkpt><trkpt lat="40.18417270518836" lon="8.5766901246212"><ele>516.0</ele><time>2026-04-29T09:52:05.073Z</time></trkpt><trkpt lat="40.18407608890641" lon="8.57648179522632"><ele>511.25</ele><time>2026-04-29T09:52:06.073Z</time></trkpt><trkpt lat="40.18397182781471" lon="8.576297157138129"><ele>506.5</ele><time>2026-04-29T09:52:07.073Z</time></trkpt><trkpt lat="40.18388812045097" lon="8.576152411337105"><ele>501.75</ele><time>2026-04-29T09:52:08.073Z</time></trkpt><trkpt lat="40.183856556316414" lon="8.576007609129112"><ele>497.0</ele><time>2026-04-29T09:52:09.073Z</time></trkpt><trkpt lat="40.18390675391694" lon="8.57583899925719"><ele>498.66666666666663</ele><time>2026-04-29T09:52:10.073Z</time></trkpt><trkpt lat="40.18399731429464" lon="8.575654219188177"><ele>500.33333333333337</ele><time>2026-04-29T09:52:11.073Z</time></trkpt><trkpt lat="40.184076171234615" lon="8.575458808763955"><ele>502.0</ele><time>2026-04-29T09:52:12.073Z</time></trkpt><trkpt lat="40.18412909120332" lon="8.575249176124755"><ele>502.0</ele><time>2026-04-29T09:52:13.073Z</time></trkpt><trkpt lat="40.18413912760744" lon="8.575030971373618"><ele>502.0</ele><time>2026-04-29T09:52:14.073Z</time></trkpt><trkpt lat="40.1841418159674" lon="8.574831287435073"><ele>502.0</ele><time>2026-04-29T09:52:15.073Z</time></trkpt><trkpt lat="40.18415911417286" lon="8.574678707850085"><ele>502.0</ele><time>2026-04-29T09:52:16.073Z</time></trkpt><trkpt lat="40.18422798268072" lon="8.57457783599827"><ele>502.0</ele><time>2026-04-29T09:52:17.073Z</time></trkpt><trkpt lat="40.18434101079965" lon="8.574554486532435"><ele>502.0</ele><time>2026-04-29T09:52:18.073Z</time></trkpt><trkpt lat="40.18447618032255" lon="8.574599832362034"><ele>502.0</ele><time>2026-04-29T09:52:19.073Z</time></trkpt><trkpt lat="40.18462482904759" lon="8.574699332077403"><ele>502.0</ele><time>2026-04-29T09:52:20.073Z</time></trkpt><trkpt lat="40.1847681177696" lon="8.574813526849324"><ele>500.6666666666667</ele><time>2026-04-29T09:52:21.073Z</time></trkpt><trkpt lat="40.18493114081896" lon="8.574933068526033"><ele>499.33333333333337</ele><time>2026-04-29T09:52:22.073Z</time></trkpt><trkpt lat="40.185103343040765" lon="8.575056798910452"><ele>498.0</ele><time>2026-04-29T09:52:23.073Z</time></trkpt><trkpt lat="40.18527024200005" lon="8.575181757844712"><ele>498.0</ele><time>2026-04-29T09:52:24.073Z</time></trkpt><trkpt lat="40.18543217022989" lon="8.575292837840157"><ele>498.0</ele><time>2026-04-29T09:52:25.073Z</time></trkpt><trkpt lat="40.185604572004" lon="8.575336269871965"><ele>498.0</ele><time>2026-04-29T09:52:26.076Z</time></trkpt><trkpt lat="40.185781147886104" lon="8.57532143102652"><ele>496.25</ele><time>2026-04-29T09:52:27.075Z</time></trkpt><trkpt lat="40.18592539828645" lon="8.575309001687854"><ele>494.5</ele><time>2026-04-29T09:52:28.075Z</time></trkpt><trkpt lat="40.18605891315123" lon="8.57529068561516"><ele>492.75</ele><time>2026-04-29T09:52:29.075Z</time></trkpt><trkpt lat="40.18615628032165" lon="8.575235207894643"><ele>491.0</ele><time>2026-04-29T09:52:30.075Z</time></trkpt><trkpt lat="40.18621118098614" lon="8.575127556967269"><ele>491.0</ele><time>2026-04-29T09:52:31.075Z</time></trkpt><trkpt lat="40.18621298469761" lon="8.57500655920258"><ele>491.0</ele><time>2026-04-29T09:52:32.075Z</time></trkpt><trkpt lat="40.18614127828058" lon="8.57490008943654"><ele>491.0</ele><time>2026-04-29T09:52:33.075Z</time></trkpt><trkpt lat="40.18601762710549" lon="8.574837715714565"><ele>491.0</ele><time>2026-04-29T09:52:34.075Z</time></trkpt><trkpt lat="40.18588283632635" lon="8.57477127925097"><ele>491.0</ele><time>2026-04-29T09:52:35.075Z</time></trkpt><trkpt lat="40.18573956931375" lon="8.574696689109677"><ele>491.0</ele><time>2026-04-29T09:52:36.075Z</time></trkpt><trkpt lat="40.18559416146008" lon="8.574617053028028"><ele>491.0</ele><time>2026-04-29T09:52:37.075Z</time></trkpt><trkpt lat="40.18546947209065" lon="8.574519818757663"><ele>489.0</ele><time>2026-04-29T09:52:38.075Z</time></trkpt><trkpt lat="40.18536652682846" lon="8.574383964602154"><ele>487.0</ele><time>2026-04-29T09:52:39.075Z</time></trkpt><trkpt lat="40.18527283587228" lon="8.574224793438816"><ele>485.0</ele><time>2026-04-29T09:52:40.075Z</time></trkpt><trkpt lat="40.18517029217167" lon="8.574072770558468"><ele>485.0</ele><time>2026-04-29T09:52:41.075Z</time></trkpt><trkpt lat="40.18502617906238" lon="8.573953616994064"><ele>485.0</ele><time>2026-04-29T09:52:42.075Z</time></trkpt><trkpt lat="40.18486406268059" lon="8.57387348634905"><ele>485.0</ele><time>2026-04-29T09:52:43.075Z</time></trkpt><trkpt lat="40.18468982592013" lon="8.573835525889521"><ele>485.5</ele><time>2026-04-29T09:52:44.075Z</time></trkpt><trkpt lat="40.184535024048635" lon="8.57380034464837"><ele>486.0</ele><time>2026-04-29T09:52:45.075Z</time></trkpt><trkpt lat="40.18443431259358" lon="8.573733852641078"><ele>486.5</ele><time>2026-04-29T09:52:46.075Z</time></trkpt><trkpt lat="40.18434227764653" lon="8.573690411423112"><ele>487.0</ele><time>2026-04-29T09:52:47.075Z</time></trkpt><trkpt lat="40.1842763375223" lon="8.573612714692644"><ele>484.00000000000006</ele><time>2026-04-29T09:52:48.075Z</time></trkpt><trkpt lat="40.184280848219196" lon="8.573516657714245"><ele>481.0</ele><time>2026-04-29T09:52:49.075Z</time></trkpt><trkpt lat="40.184345895824904" lon="8.573450019883438"><ele>478.0</ele><time>2026-04-29T09:52:50.075Z</time></trkpt><trkpt lat="40.184437225699355" lon="8.573457262156605"><ele>475.0</ele><time>2026-04-29T09:52:51.075Z</time></trkpt><trkpt lat="40.18452505122945" lon="8.573491900260443"><ele>472.00000000000006</ele><time>2026-04-29T09:52:52.075Z</time></trkpt><trkpt lat="40.184609904317135" lon="8.573517698931193"><ele>469.0</ele><time>2026-04-29T09:52:53.075Z</time></trkpt><trkpt lat="40.184702843595396" lon="8.573526308855508"><ele>469.0</ele><time>2026-04-29T09:52:54.075Z</time></trkpt><trkpt lat="40.184800764638666" lon="8.57354210343182"><ele>469.0</ele><time>2026-04-29T09:52:55.075Z</time></trkpt><trkpt lat="40.184901087000625" lon="8.57356466378164"><ele>469.0</ele><time>2026-04-29T09:52:56.075Z</time></trkpt><trkpt lat="40.18500380878273" lon="8.573586018729056"><ele>469.0</ele><time>2026-04-29T09:52:57.075Z</time></trkpt><trkpt lat="40.18510697271751" lon="8.573602817784057"><ele>469.0</ele><time>2026-04-29T09:52:58.075Z</time></trkpt><trkpt lat="40.18521203822818" lon="8.573601280542242"><ele>469.2</ele><time>2026-04-29T09:52:59.075Z</time></trkpt><trkpt lat="40.18531736108133" lon="8.573573204202972"><ele>469.4</ele><time>2026-04-29T09:53:00.075Z</time></trkpt><trkpt lat="40.18541609925473" lon="8.573530969070848"><ele>469.6</ele><time>2026-04-29T09:53:01.075Z</time></trkpt><trkpt lat="40.18550076640207" lon="8.573471063244712"><ele>469.8</ele><time>2026-04-29T09:53:02.075Z</time></trkpt><trkpt lat="40.18556808956181" lon="8.57338331643162"><ele>470.0</ele><time>2026-04-29T09:53:03.075Z</time></trkpt><trkpt lat="40.1856190181958" lon="8.57328379430258"><ele>470.0</ele><time>2026-04-29T09:53:04.075Z</time></trkpt><trkpt lat="40.18566044534058" lon="8.573168900795952"><ele>470.0</ele><time>2026-04-29T09:53:05.075Z</time></trkpt><trkpt lat="40.18569873793269" lon="8.573039708821103"><ele>470.0</ele><time>2026-04-29T09:53:06.075Z</time></trkpt><trkpt lat="40.18575202580386" lon="8.572906523868113"><ele>470.0</ele><time>2026-04-29T09:53:07.075Z</time></trkpt><trkpt lat="40.18581102871056" lon="8.572772028117743"><ele>470.0</ele><time>2026-04-29T09:53:08.075Z</time></trkpt><trkpt lat="40.18587907859961" lon="8.57264642410051"><ele>468.25</ele><time>2026-04-29T09:53:09.075Z</time></trkpt><trkpt lat="40.18594437389633" lon="8.572507076000731"><ele>466.5</ele><time>2026-04-29T09:53:10.075Z</time></trkpt><trkpt lat="40.18602673939089" lon="8.572387253807939"><ele>464.75</ele><time>2026-04-29T09:53:11.075Z</time></trkpt><trkpt lat="40.1861315063447" lon="8.572290153376708"><ele>463.0</ele><time>2026-04-29T09:53:12.075Z</time></trkpt><trkpt lat="40.18623817284465" lon="8.57220563154498"><ele>463.0</ele><time>2026-04-29T09:53:13.075Z</time></trkpt><trkpt lat="40.18634197718318" lon="8.572125111609715"><ele>463.0</ele><time>2026-04-29T09:53:14.075Z</time></trkpt><trkpt lat="40.18644786656694" lon="8.572035071663715"><ele>463.0</ele><time>2026-04-29T09:53:15.075Z</time></trkpt><trkpt lat="40.186552921680985" lon="8.571945477544862"><ele>463.0</ele><time>2026-04-29T09:53:16.075Z</time></trkpt><trkpt lat="40.18664656913006" lon="8.57184143508378"><ele>462.0</ele><time>2026-04-29T09:53:17.075Z</time></trkpt><trkpt lat="40.186728061239236" lon="8.571718069801248"><ele>461.0</ele><time>2026-04-29T09:53:18.075Z</time></trkpt><trkpt lat="40.18677974664117" lon="8.571569222403731"><ele>460.0</ele><time>2026-04-29T09:53:19.075Z</time></trkpt><trkpt lat="40.18681653775945" lon="8.571417166092107"><ele>459.0</ele><time>2026-04-29T09:53:20.075Z</time></trkpt><trkpt lat="40.18686235082889" lon="8.571267443857291"><ele>457.2</ele><time>2026-04-29T09:53:21.075Z</time></trkpt><trkpt lat="40.18691850290029" lon="8.571129632884986"><ele>455.4</ele><time>2026-04-29T09:53:22.075Z</time></trkpt><trkpt lat="40.18697410665785" lon="8.571002307042791"><ele>453.6</ele><time>2026-04-29T09:53:23.075Z</time></trkpt><trkpt lat="40.187025071927266" lon="8.570875345719166"><ele>451.8</ele><time>2026-04-29T09:53:24.075Z</time></trkpt><trkpt lat="40.1870859514164" lon="8.570762653075692"><ele>450.0</ele><time>2026-04-29T09:53:25.075Z</time></trkpt><trkpt lat="40.18714545818833" lon="8.570668881796593"><ele>450.0</ele><time>2026-04-29T09:53:26.075Z</time></trkpt><trkpt lat="40.18719554709788" lon="8.570589686679353"><ele>450.0</ele><time>2026-04-29T09:53:27.075Z</time></trkpt><trkpt lat="40.18723508536927" lon="8.57051794729155"><ele>450.0</ele><time>2026-04-29T09:53:28.075Z</time></trkpt><trkpt lat="40.187263731681924" lon="8.57044112415646"><ele>450.0</ele><time>2026-04-29T09:53:29.075Z</time></trkpt><trkpt lat="40.18730109243034" lon="8.570310703849925"><ele>450.0</ele><time>2026-04-29T09:53:31.075Z</time></trkpt><trkpt lat="40.18731581980839" lon="8.57019926220194"><ele>450.0</ele><time>2026-04-29T09:53:33.075Z</time></trkpt><trkpt lat="40.1873319361359" lon="8.570058069591717"><ele>449.5</ele><time>2026-04-29T09:53:35.075Z</time></trkpt><trkpt lat="40.187332490462495" lon="8.5699053925904"><ele>449.0</ele><time>2026-04-29T09:53:37.075Z</time></trkpt><trkpt lat="40.18732449858606" lon="8.569822750071598"><ele>448.5</ele><time>2026-04-29T09:53:38.075Z</time></trkpt><trkpt lat="40.18732091995787" lon="8.569728435594136"><ele>448.0</ele><time>2026-04-29T09:53:39.075Z</time></trkpt><trkpt lat="40.18731262315779" lon="8.569634137761803"><ele>447.5</ele><time>2026-04-29T09:53:40.075Z</time></trkpt><trkpt lat="40.18730944354754" lon="8.569541929827968"><ele>447.0</ele><time>2026-04-29T09:53:41.075Z</time></trkpt><trkpt lat="40.18730678435753" lon="8.569453781305935"><ele>446.99999999999994</ele><time>2026-04-29T09:53:42.075Z</time></trkpt><trkpt lat="40.1873028028457" lon="8.569363956811518"><ele>447.0</ele><time>2026-04-29T09:53:43.075Z</time></trkpt><trkpt lat="40.187302125732344" lon="8.569277099850265"><ele>447.0</ele><time>2026-04-29T09:53:44.075Z</time></trkpt><trkpt lat="40.187318623674564" lon="8.569189235787812"><ele>447.0</ele><time>2026-04-29T09:53:45.075Z</time></trkpt><trkpt lat="40.18734270043859" lon="8.569101081609832"><ele>447.0</ele><time>2026-04-29T09:53:46.075Z</time></trkpt><trkpt lat="40.18736277238741" lon="8.569014927346148"><ele>446.99999999999994</ele><time>2026-04-29T09:53:47.075Z</time></trkpt><trkpt lat="40.187380105017226" lon="8.568930852673496"><ele>447.0</ele><time>2026-04-29T09:53:48.075Z</time></trkpt><trkpt lat="40.18738927042242" lon="8.568834537173062"><ele>448.40000000000003</ele><time>2026-04-29T09:53:49.075Z</time></trkpt><trkpt lat="40.187399059948014" lon="8.56873810787778"><ele>449.80000000000007</ele><time>2026-04-29T09:53:50.075Z</time></trkpt><trkpt lat="40.187410256875" lon="8.56865075613114"><ele>451.2</ele><time>2026-04-29T09:53:51.075Z</time></trkpt><trkpt lat="40.18743600488384" lon="8.56850377708345"><ele>452.6</ele><time>2026-04-29T09:53:53.075Z</time></trkpt><trkpt lat="40.187477876476365" lon="8.568379173737586"><ele>454.0</ele><time>2026-04-29T09:53:55.075Z</time></trkpt><trkpt lat="40.187536531174835" lon="8.568236680397131"><ele>454.0</ele><time>2026-04-29T09:53:57.075Z</time></trkpt><trkpt lat="40.18756842948888" lon="8.568163326754972"><ele>454.00000000000006</ele><time>2026-04-29T09:53:58.075Z</time></trkpt><trkpt lat="40.187611553708784" lon="8.568098155173015"><ele>454.0</ele><time>2026-04-29T09:53:59.075Z</time></trkpt><trkpt lat="40.18764671003198" lon="8.568024320969064"><ele>454.0</ele><time>2026-04-29T09:54:00.075Z</time></trkpt><trkpt lat="40.18771969958444" lon="8.567893640980586"><ele>454.00000000000006</ele><time>2026-04-29T09:54:02.075Z</time></trkpt><trkpt lat="40.187760516003216" lon="8.567828908951421"><ele>454.0</ele><time>2026-04-29T09:54:03.075Z</time></trkpt><trkpt lat="40.18781084182638" lon="8.567776459005573"><ele>454.0</ele><time>2026-04-29T09:54:04.075Z</time></trkpt><trkpt lat="40.18788326146516" lon="8.567717602115856"><ele>452.6666666666667</ele><time>2026-04-29T09:54:05.075Z</time></trkpt><trkpt lat="40.18795810368425" lon="8.567669010988194"><ele>451.33333333333337</ele><time>2026-04-29T09:54:06.075Z</time></trkpt><trkpt lat="40.188030083073606" lon="8.567620895139767"><ele>450.0</ele><time>2026-04-29T09:54:07.075Z</time></trkpt><trkpt lat="40.18810738292337" lon="8.56757259521839"><ele>448.66666666666663</ele><time>2026-04-29T09:54:08.075Z</time></trkpt><trkpt lat="40.18818175039127" lon="8.567530540263089"><ele>447.3333333333333</ele><time>2026-04-29T09:54:09.075Z</time></trkpt><trkpt lat="40.18825038275862" lon="8.567496013461415"><ele>446.0</ele><time>2026-04-29T09:54:10.075Z</time></trkpt><trkpt lat="40.188337096562535" lon="8.567439750046688"><ele>446.0</ele><time>2026-04-29T09:54:12.075Z</time></trkpt><trkpt lat="40.18841255060392" lon="8.567411477685765"><ele>446.0</ele><time>2026-04-29T09:54:16.075Z</time></trkpt><trkpt lat="40.18847968160849" lon="8.567388056956371"><ele>446.0</ele><time>2026-04-29T09:54:18.075Z</time></trkpt><trkpt lat="40.18857108657334" lon="8.567406827258926"><ele>446.0</ele><time>2026-04-29T09:54:20.075Z</time></trkpt><trkpt lat="40.18863067890561" lon="8.567438829375618"><ele>446.0</ele><time>2026-04-29T09:54:21.075Z</time></trkpt><trkpt lat="40.18869870267899" lon="8.567476521196943"><ele>446.0</ele><time>2026-04-29T09:54:22.075Z</time></trkpt><trkpt lat="40.188764745247035" lon="8.567504875272116"><ele>446.0</ele><time>2026-04-29T09:54:23.075Z</time></trkpt><trkpt lat="40.18884152159249" lon="8.56752541436599"><ele>445.99999999999994</ele><time>2026-04-29T09:54:24.075Z</time></trkpt><trkpt lat="40.1889180927349" lon="8.567558271014377"><ele>446.0</ele><time>2026-04-29T09:54:25.075Z</time></trkpt><trkpt lat="40.18899116817235" lon="8.567590034124821"><ele>446.0</ele><time>2026-04-29T09:54:26.075Z</time></trkpt><trkpt lat="40.18906954686433" lon="8.567618616186351"><ele>446.0</ele><time>2026-04-29T09:54:27.075Z</time></trkpt><trkpt lat="40.18914725575044" lon="8.567654727524207"><ele>445.99999999999994</ele><time>2026-04-29T09:54:28.075Z</time></trkpt><trkpt lat="40.189223636715546" lon="8.567679175373552"><ele>446.0</ele><time>2026-04-29T09:54:29.075Z</time></trkpt><trkpt lat="40.18928931788581" lon="8.567710414896302"><ele>444.99999999999994</ele><time>2026-04-29T09:54:30.075Z</time></trkpt><trkpt lat="40.18936435490784" lon="8.567753109817104"><ele>444.0</ele><time>2026-04-29T09:54:31.075Z</time></trkpt><trkpt lat="40.18944601187165" lon="8.567771150983356"><ele>443.0</ele><time>2026-04-29T09:54:32.076Z</time></trkpt><trkpt lat="40.189522085995534" lon="8.567804735173029"><ele>442.0</ele><time>2026-04-29T09:54:33.076Z</time></trkpt><trkpt lat="40.18959317643681" lon="8.567840479076075"><ele>440.99999999999994</ele><time>2026-04-29T09:54:34.076Z</time></trkpt><trkpt lat="40.18966067685545" lon="8.567848401290044"><ele>440.0</ele><time>2026-04-29T09:54:35.076Z</time></trkpt><trkpt lat="40.18972459831618" lon="8.567880657086425"><ele>442.0</ele><time>2026-04-29T09:54:38.076Z</time></trkpt><trkpt lat="40.18983787051176" lon="8.56789596607425"><ele>444.0</ele><time>2026-04-29T09:54:40.077Z</time></trkpt><trkpt lat="40.1899134788096" lon="8.567926821203303"><ele>446.0</ele><time>2026-04-29T09:54:41.076Z</time></trkpt><trkpt lat="40.19000358416672" lon="8.567958723284738"><ele>448.0</ele><time>2026-04-29T09:54:42.076Z</time></trkpt><trkpt lat="40.19008603070927" lon="8.56800598347228"><ele>450.0</ele><time>2026-04-29T09:54:43.076Z</time></trkpt><trkpt lat="40.19017177186517" lon="8.568044017553117"><ele>450.0</ele><time>2026-04-29T09:54:44.076Z</time></trkpt><trkpt lat="40.1902574963167" lon="8.568073646883017"><ele>450.0</ele><time>2026-04-29T09:54:45.076Z</time></trkpt><trkpt lat="40.19033171614798" lon="8.568118771390246"><ele>450.0</ele><time>2026-04-29T09:54:46.076Z</time></trkpt><trkpt lat="40.19041412556369" lon="8.568161753571468"><ele>450.0</ele><time>2026-04-29T09:54:47.076Z</time></trkpt><trkpt lat="40.19048622806743" lon="8.568221753906998"><ele>450.0</ele><time>2026-04-29T09:54:48.076Z</time></trkpt><trkpt lat="40.19055697722545" lon="8.568280194489176"><ele>450.0</ele><time>2026-04-29T09:54:49.076Z</time></trkpt><trkpt lat="40.1906297130985" lon="8.5683437325634"><ele>449.6</ele><time>2026-04-29T09:54:50.076Z</time></trkpt><trkpt lat="40.190702592540674" lon="8.568403679329242"><ele>449.2</ele><time>2026-04-29T09:54:51.076Z</time></trkpt><trkpt lat="40.19076708895075" lon="8.568481201701916"><ele>448.79999999999995</ele><time>2026-04-29T09:54:52.076Z</time></trkpt><trkpt lat="40.19084379723638" lon="8.568553687413127"><ele>448.4</ele><time>2026-04-29T09:54:53.076Z</time></trkpt><trkpt lat="40.19093122156461" lon="8.568603967611216"><ele>448.0</ele><time>2026-04-29T09:54:54.076Z</time></trkpt><trkpt lat="40.19101404808282" lon="8.5686539520168"><ele>449.2</ele><time>2026-04-29T09:54:55.076Z</time></trkpt><trkpt lat="40.19107542890936" lon="8.568726086072681"><ele>450.4</ele><time>2026-04-29T09:54:56.076Z</time></trkpt><trkpt lat="40.191132815390645" lon="8.568817987138962"><ele>451.59999999999997</ele><time>2026-04-29T09:54:57.076Z</time></trkpt><trkpt lat="40.191183593550356" lon="8.568911966516085"><ele>452.79999999999995</ele><time>2026-04-29T09:54:58.076Z</time></trkpt><trkpt lat="40.19122428963473" lon="8.569025040840785"><ele>454.0</ele><time>2026-04-29T09:54:59.076Z</time></trkpt><trkpt lat="40.19126887511352" lon="8.569141730616382"><ele>454.00000000000006</ele><time>2026-04-29T09:55:00.076Z</time></trkpt><trkpt lat="40.19130259265629" lon="8.56924631727436"><ele>454.0</ele><time>2026-04-29T09:55:01.076Z</time></trkpt><trkpt lat="40.19135502154789" lon="8.569341330364093"><ele>454.0</ele><time>2026-04-29T09:55:02.076Z</time></trkpt><trkpt lat="40.19137218260914" lon="8.56943533882244"><ele>454.0</ele><time>2026-04-29T09:55:03.076Z</time></trkpt><trkpt lat="40.191399754131076" lon="8.569541037325182"><ele>454.00000000000006</ele><time>2026-04-29T09:55:04.076Z</time></trkpt><trkpt lat="40.19138051601258" lon="8.569660592644135"><ele>454.0</ele><time>2026-04-29T09:55:05.076Z</time></trkpt><trkpt lat="40.191341422140624" lon="8.569767613793099"><ele>454.6</ele><time>2026-04-29T09:55:06.076Z</time></trkpt><trkpt lat="40.191268904402214" lon="8.569880245939729"><ele>455.2</ele><time>2026-04-29T09:55:07.076Z</time></trkpt><trkpt lat="40.19122947963709" lon="8.569984591865953"><ele>455.80000000000007</ele><time>2026-04-29T09:55:08.076Z</time></trkpt><trkpt lat="40.19119636310225" lon="8.5700911933732"><ele>456.40000000000003</ele><time>2026-04-29T09:55:09.076Z</time></trkpt><trkpt lat="40.191165020012406" lon="8.570212001246782"><ele>457.0</ele><time>2026-04-29T09:55:10.076Z</time></trkpt><trkpt lat="40.1911146687698" lon="8.5703248521907"><ele>456.0</ele><time>2026-04-29T09:55:11.076Z</time></trkpt><trkpt lat="40.191083597114535" lon="8.570451056094367"><ele>455.00000000000006</ele><time>2026-04-29T09:55:12.076Z</time></trkpt><trkpt lat="40.19104828840031" lon="8.570576919238846"><ele>454.00000000000006</ele><time>2026-04-29T09:55:13.076Z</time></trkpt><trkpt lat="40.19101577959981" lon="8.570709683003194"><ele>453.0</ele><time>2026-04-29T09:55:14.076Z</time></trkpt><trkpt lat="40.19100895613941" lon="8.570836161960012"><ele>452.0</ele><time>2026-04-29T09:55:15.076Z</time></trkpt><trkpt lat="40.19101751919015" lon="8.570970187526353"><ele>452.0</ele><time>2026-04-29T09:55:16.076Z</time></trkpt><trkpt lat="40.19103724511501" lon="8.571093529350028"><ele>452.00000000000006</ele><time>2026-04-29T09:55:17.076Z</time></trkpt><trkpt lat="40.19107511602068" lon="8.571214717148415"><ele>452.00000000000006</ele><time>2026-04-29T09:55:18.076Z</time></trkpt><trkpt lat="40.19112871653511" lon="8.571331252458165"><ele>452.0</ele><time>2026-04-29T09:55:19.076Z</time></trkpt><trkpt lat="40.191185557116825" lon="8.571446092972808"><ele>452.0</ele><time>2026-04-29T09:55:20.076Z</time></trkpt><trkpt lat="40.19124970638735" lon="8.571557364909207"><ele>452.20000000000005</ele><time>2026-04-29T09:55:21.076Z</time></trkpt><trkpt lat="40.191319420827156" lon="8.571666246860953"><ele>452.40000000000003</ele><time>2026-04-29T09:55:22.076Z</time></trkpt><trkpt lat="40.19139651955115" lon="8.571760998155451"><ele>452.59999999999997</ele><time>2026-04-29T09:55:23.076Z</time></trkpt><trkpt lat="40.19146962793318" lon="8.571850620611299"><ele>452.79999999999995</ele><time>2026-04-29T09:55:24.076Z</time></trkpt><trkpt lat="40.19153617261694" lon="8.571963734677793"><ele>453.0</ele><time>2026-04-29T09:55:25.076Z</time></trkpt><trkpt lat="40.1915817972679" lon="8.572086005552011"><ele>448.25</ele><time>2026-04-29T09:55:26.076Z</time></trkpt><trkpt lat="40.19157523479359" lon="8.57223407577561"><ele>443.5</ele><time>2026-04-29T09:55:27.076Z</time></trkpt><trkpt lat="40.19156342214088" lon="8.572382050961506"><ele>438.75</ele><time>2026-04-29T09:55:28.076Z</time></trkpt><trkpt lat="40.19155818864756" lon="8.572532751125369"><ele>434.0</ele><time>2026-04-29T09:55:29.076Z</time></trkpt><trkpt lat="40.19154672368354" lon="8.572690809052892"><ele>434.0</ele><time>2026-04-29T09:55:30.076Z</time></trkpt><trkpt lat="40.19152918099594" lon="8.572851584248811"><ele>434.0</ele><time>2026-04-29T09:55:31.076Z</time></trkpt><trkpt lat="40.19150863784172" lon="8.57301321044408"><ele>434.0</ele><time>2026-04-29T09:55:32.076Z</time></trkpt><trkpt lat="40.191461167068624" lon="8.573169912380491"><ele>434.0</ele><time>2026-04-29T09:55:33.076Z</time></trkpt><trkpt lat="40.19139126683793" lon="8.573310388563414"><ele>434.0</ele><time>2026-04-29T09:55:34.076Z</time></trkpt><trkpt lat="40.19128875894704" lon="8.57343193028064"><ele>434.0</ele><time>2026-04-29T09:55:35.076Z</time></trkpt><trkpt lat="40.19116523419124" lon="8.57354807507926"><ele>434.0</ele><time>2026-04-29T09:55:36.076Z</time></trkpt><trkpt lat="40.191051490134406" lon="8.573656443242683"><ele>434.0</ele><time>2026-04-29T09:55:37.076Z</time></trkpt><trkpt lat="40.19097860038433" lon="8.573801183698096"><ele>434.0</ele><time>2026-04-29T09:55:38.076Z</time></trkpt><trkpt lat="40.19095827482181" lon="8.573977783864072"><ele>434.0</ele><time>2026-04-29T09:55:39.076Z</time></trkpt><trkpt lat="40.19102020456057" lon="8.574141017959278"><ele>434.0</ele><time>2026-04-29T09:55:40.076Z</time></trkpt><trkpt lat="40.191129856398774" lon="8.574260814385811"><ele>434.0</ele><time>2026-04-29T09:55:41.076Z</time></trkpt><trkpt lat="40.19129756671851" lon="8.57429679227082"><ele>434.0</ele><time>2026-04-29T09:55:42.076Z</time></trkpt><trkpt lat="40.19149075473588" lon="8.574286858742544"><ele>434.0</ele><time>2026-04-29T09:55:43.076Z</time></trkpt><trkpt lat="40.19169625949374" lon="8.574265309162554"><ele>434.0</ele><time>2026-04-29T09:55:44.076Z</time></trkpt><trkpt lat="40.19192024088604" lon="8.574275109843523"><ele>433.0</ele><time>2026-04-29T09:55:45.076Z</time></trkpt><trkpt lat="40.192128398481096" lon="8.574276213581774"><ele>432.0</ele><time>2026-04-29T09:55:46.076Z</time></trkpt><trkpt lat="40.19232890563059" lon="8.574286881737663"><ele>431.0</ele><time>2026-04-29T09:55:47.076Z</time></trkpt><trkpt lat="40.192516787557246" lon="8.57424744822036"><ele>430.0</ele><time>2026-04-29T09:55:48.076Z</time></trkpt><trkpt lat="40.19270932411091" lon="8.574143033573149"><ele>429.0</ele><time>2026-04-29T09:55:49.076Z</time></trkpt><trkpt lat="40.19288662301812" lon="8.574003191450153"><ele>428.0</ele><time>2026-04-29T09:55:50.076Z</time></trkpt><trkpt lat="40.19301547188244" lon="8.573834270924218"><ele>428.0</ele><time>2026-04-29T09:55:51.076Z</time></trkpt><trkpt lat="40.19311535409712" lon="8.57369508021234"><ele>428.0</ele><time>2026-04-29T09:55:52.076Z</time></trkpt><trkpt lat="40.19318972225342" lon="8.573559049983587"><ele>428.0</ele><time>2026-04-29T09:55:53.076Z</time></trkpt><trkpt lat="40.19327643881332" lon="8.573441098454644"><ele>428.0</ele><time>2026-04-29T09:55:54.076Z</time></trkpt><trkpt lat="40.19337144658074" lon="8.573363441000014"><ele>424.25</ele><time>2026-04-29T09:55:55.076Z</time></trkpt><trkpt lat="40.19346615263843" lon="8.573272403608366"><ele>420.5</ele><time>2026-04-29T09:55:56.076Z</time></trkpt><trkpt lat="40.193563147248625" lon="8.57317557998118"><ele>416.75</ele><time>2026-04-29T09:55:57.076Z</time></trkpt><trkpt lat="40.19368220318791" lon="8.57312675778331"><ele>413.0</ele><time>2026-04-29T09:55:58.076Z</time></trkpt><trkpt lat="40.19381440119871" lon="8.573124121293045"><ele>413.0</ele><time>2026-04-29T09:55:59.076Z</time></trkpt><trkpt lat="40.193958496508785" lon="8.573149271579789"><ele>413.0</ele><time>2026-04-29T09:56:00.076Z</time></trkpt><trkpt lat="40.19410848481053" lon="8.57316412262675"><ele>413.0</ele><time>2026-04-29T09:56:01.076Z</time></trkpt><trkpt lat="40.19425983829005" lon="8.573125900335071"><ele>411.66666666666663</ele><time>2026-04-29T09:56:02.076Z</time></trkpt><trkpt lat="40.19440131711865" lon="8.573015704418706"><ele>410.33333333333337</ele><time>2026-04-29T09:56:03.076Z</time></trkpt><trkpt lat="40.19453384839774" lon="8.572864080385312"><ele>409.0</ele><time>2026-04-29T09:56:04.076Z</time></trkpt><trkpt lat="40.19465527789257" lon="8.572695190260463"><ele>405.33333333333337</ele><time>2026-04-29T09:56:05.076Z</time></trkpt><trkpt lat="40.1947867312842" lon="8.572536900515798"><ele>401.66666666666663</ele><time>2026-04-29T09:56:06.076Z</time></trkpt><trkpt lat="40.19491896575277" lon="8.57237599579663"><ele>398.0</ele><time>2026-04-29T09:56:07.076Z</time></trkpt><trkpt lat="40.19503331326815" lon="8.572252285607126"><ele>398.0</ele><time>2026-04-29T09:56:08.076Z</time></trkpt><trkpt lat="40.1951638259014" lon="8.572186918405427"><ele>398.0</ele><time>2026-04-29T09:56:09.076Z</time></trkpt><trkpt lat="40.195307361601905" lon="8.572203110420368"><ele>398.0</ele><time>2026-04-29T09:56:10.076Z</time></trkpt><trkpt lat="40.19545726455156" lon="8.57230090669998"><ele>398.0</ele><time>2026-04-29T09:56:11.076Z</time></trkpt><trkpt lat="40.195607406422724" lon="8.572445356755093"><ele>398.0</ele><time>2026-04-29T09:56:12.076Z</time></trkpt><trkpt lat="40.1957651058356" lon="8.572597124582026"><ele>398.0</ele><time>2026-04-29T09:56:13.076Z</time></trkpt><trkpt lat="40.195936834826455" lon="8.572755630738667"><ele>399.66666666666663</ele><time>2026-04-29T09:56:14.076Z</time></trkpt><trkpt lat="40.19610136554766" lon="8.57291439925882"><ele>401.33333333333337</ele><time>2026-04-29T09:56:15.076Z</time></trkpt><trkpt lat="40.19624690814889" lon="8.573064205049237"><ele>403.0</ele><time>2026-04-29T09:56:16.076Z</time></trkpt><trkpt lat="40.19634964446216" lon="8.573228687556737"><ele>403.0</ele><time>2026-04-29T09:56:17.076Z</time></trkpt><trkpt lat="40.196379869449366" lon="8.57343368277533"><ele>403.0</ele><time>2026-04-29T09:56:18.076Z</time></trkpt><trkpt lat="40.196361631819514" lon="8.573664443327685"><ele>403.0</ele><time>2026-04-29T09:56:19.076Z</time></trkpt><trkpt lat="40.1963061133416" lon="8.573916671986606"><ele>402.33333333333337</ele><time>2026-04-29T09:56:20.076Z</time></trkpt><trkpt lat="40.19625411080355" lon="8.57415272119221"><ele>401.66666666666663</ele><time>2026-04-29T09:56:21.076Z</time></trkpt><trkpt lat="40.19622453501796" lon="8.574388176969379"><ele>401.0</ele><time>2026-04-29T09:56:22.076Z</time></trkpt><trkpt lat="40.19624244808534" lon="8.57464555453999"><ele>400.25</ele><time>2026-04-29T09:56:23.076Z</time></trkpt><trkpt lat="40.196276547534715" lon="8.574901758423541"><ele>399.5</ele><time>2026-04-29T09:56:24.076Z</time></trkpt><trkpt lat="40.196297081817676" lon="8.575075302921913"><ele>398.75</ele><time>2026-04-29T09:56:25.076Z</time></trkpt><trkpt lat="40.19629535562353" lon="8.575222241463269"><ele>398.0</ele><time>2026-04-29T09:56:26.076Z</time></trkpt><trkpt lat="40.19626394869734" lon="8.575359430412707"><ele>397.59999999999997</ele><time>2026-04-29T09:56:27.076Z</time></trkpt><trkpt lat="40.196237173870344" lon="8.575483195498458"><ele>397.2</ele><time>2026-04-29T09:56:28.076Z</time></trkpt><trkpt lat="40.196208633750246" lon="8.575614102282376"><ele>396.8</ele><time>2026-04-29T09:56:29.076Z</time></trkpt><trkpt lat="40.19617655523567" lon="8.57575373928118"><ele>396.4</ele><time>2026-04-29T09:56:30.076Z</time></trkpt><trkpt lat="40.196136054339114" lon="8.575900146287195"><ele>396.0</ele><time>2026-04-29T09:56:31.076Z</time></trkpt><trkpt lat="40.19610187752638" lon="8.576049832807339"><ele>396.20000000000005</ele><time>2026-04-29T09:56:32.076Z</time></trkpt><trkpt lat="40.196064657746206" lon="8.576202424138142"><ele>396.40000000000003</ele><time>2026-04-29T09:56:33.076Z</time></trkpt><trkpt lat="40.19603854780816" lon="8.576351946748417"><ele>396.6</ele><time>2026-04-29T09:56:34.076Z</time></trkpt><trkpt lat="40.196023998526805" lon="8.576485526351151"><ele>396.8</ele><time>2026-04-29T09:56:35.076Z</time></trkpt><trkpt lat="40.19600952201609" lon="8.576609712363158"><ele>397.0</ele><time>2026-04-29T09:56:36.076Z</time></trkpt><trkpt lat="40.195998829771774" lon="8.576722708658485"><ele>397.0</ele><time>2026-04-29T09:56:37.076Z</time></trkpt><trkpt lat="40.195986518242925" lon="8.576824015447032"><ele>397.0</ele><time>2026-04-29T09:56:38.077Z</time></trkpt><trkpt lat="40.19597521281024" lon="8.576915488721315"><ele>397.0</ele><time>2026-04-29T09:56:39.077Z</time></trkpt><trkpt lat="40.195965255764975" lon="8.57700030855398"><ele>397.0</ele><time>2026-04-29T09:56:40.077Z</time></trkpt><trkpt lat="40.19594562486177" lon="8.577153389329448"><ele>397.0</ele><time>2026-04-29T09:56:42.077Z</time></trkpt><trkpt lat="40.19591711744193" lon="8.577316643205656"><ele>397.0</ele><time>2026-04-29T09:56:44.077Z</time></trkpt><trkpt lat="40.19589969357736" lon="8.57740864557996"><ele>397.0</ele><time>2026-04-29T09:56:45.077Z</time></trkpt><trkpt lat="40.19588373951084" lon="8.577503850256331"><ele>397.0</ele><time>2026-04-29T09:56:46.077Z</time></trkpt><trkpt lat="40.195863262957914" lon="8.577599435802188"><ele>397.0</ele><time>2026-04-29T09:56:47.077Z</time></trkpt><trkpt lat="40.195848220259066" lon="8.577685716421275"><ele>397.0</ele><time>2026-04-29T09:56:48.077Z</time></trkpt><trkpt lat="40.19582219131914" lon="8.57777608172408"><ele>397.0</ele><time>2026-04-29T09:56:49.077Z</time></trkpt><trkpt lat="40.19579078517049" lon="8.577866651041186"><ele>397.0</ele><time>2026-04-29T09:56:50.077Z</time></trkpt><trkpt lat="40.19575692060398" lon="8.577965585406496"><ele>396.20000000000005</ele><time>2026-04-29T09:56:51.077Z</time></trkpt><trkpt lat="40.19572342955566" lon="8.578065184124124"><ele>395.4</ele><time>2026-04-29T09:56:52.077Z</time></trkpt><trkpt lat="40.195693078629546" lon="8.57817555159649"><ele>394.6</ele><time>2026-04-29T09:56:53.077Z</time></trkpt><trkpt lat="40.19565591650893" lon="8.578302745538357"><ele>393.79999999999995</ele><time>2026-04-29T09:56:54.077Z</time></trkpt><trkpt lat="40.19562149789802" lon="8.578441110585885"><ele>393.0</ele><time>2026-04-29T09:56:55.077Z</time></trkpt><trkpt lat="40.19559486468859" lon="8.578594580897702"><ele>396.25</ele><time>2026-04-29T09:56:56.077Z</time></trkpt><trkpt lat="40.19558927091568" lon="8.57875588494211"><ele>399.5</ele><time>2026-04-29T09:56:57.077Z</time></trkpt><trkpt lat="40.19559448074177" lon="8.578934827376383"><ele>402.75</ele><time>2026-04-29T09:56:58.077Z</time></trkpt><trkpt lat="40.19561150221794" lon="8.579114735235255"><ele>406.0</ele><time>2026-04-29T09:56:59.077Z</time></trkpt><trkpt lat="40.195633747712826" lon="8.579301605084162"><ele>406.0</ele><time>2026-04-29T09:57:00.077Z</time></trkpt><trkpt lat="40.19564907285736" lon="8.579488253549512"><ele>406.0</ele><time>2026-04-29T09:57:01.077Z</time></trkpt><trkpt lat="40.1956672807493" lon="8.57966963330999"><ele>406.0</ele><time>2026-04-29T09:57:02.077Z</time></trkpt><trkpt lat="40.195708127181646" lon="8.57982289028717"><ele>406.0</ele><time>2026-04-29T09:57:03.077Z</time></trkpt><trkpt lat="40.19578294226711" lon="8.579958618488384"><ele>405.75</ele><time>2026-04-29T09:57:04.077Z</time></trkpt><trkpt lat="40.195884005556344" lon="8.580072127962596"><ele>405.5</ele><time>2026-04-29T09:57:05.077Z</time></trkpt><trkpt lat="40.1959881429415" lon="8.580185759120344"><ele>405.25</ele><time>2026-04-29T09:57:06.077Z</time></trkpt><trkpt lat="40.19606161889988" lon="8.580334346791583"><ele>405.0</ele><time>2026-04-29T09:57:07.077Z</time></trkpt><trkpt lat="40.19612702688185" lon="8.580498634606482"><ele>408.25</ele><time>2026-04-29T09:57:08.077Z</time></trkpt><trkpt lat="40.196215166429226" lon="8.580636099572063"><ele>411.5</ele><time>2026-04-29T09:57:09.077Z</time></trkpt><trkpt lat="40.19632300068833" lon="8.580737284519284"><ele>414.75</ele><time>2026-04-29T09:57:10.077Z</time></trkpt><trkpt lat="40.1964099930225" lon="8.580836207076192"><ele>418.0</ele><time>2026-04-29T09:57:11.077Z</time></trkpt><trkpt lat="40.196457205208716" lon="8.580962066157712"><ele>418.0</ele><time>2026-04-29T09:57:12.077Z</time></trkpt><trkpt lat="40.19643789218169" lon="8.581121416856238"><ele>418.0</ele><time>2026-04-29T09:57:13.077Z</time></trkpt><trkpt lat="40.196381379235866" lon="8.581270172284068"><ele>418.0</ele><time>2026-04-29T09:57:14.077Z</time></trkpt><trkpt lat="40.19631101662845" lon="8.58141238885866"><ele>418.0</ele><time>2026-04-29T09:57:15.077Z</time></trkpt><trkpt lat="40.196214367666684" lon="8.58154422936622"><ele>418.75</ele><time>2026-04-29T09:57:16.077Z</time></trkpt><trkpt lat="40.19612648365046" lon="8.581679248239684"><ele>419.5</ele><time>2026-04-29T09:57:17.077Z</time></trkpt><trkpt lat="40.196046560865156" lon="8.58183253566028"><ele>420.25</ele><time>2026-04-29T09:57:18.077Z</time></trkpt><trkpt lat="40.19596173794392" lon="8.581985811062484"><ele>421.0</ele><time>2026-04-29T09:57:19.077Z</time></trkpt><trkpt lat="40.195867563424486" lon="8.582131621663766"><ele>421.0</ele><time>2026-04-29T09:57:20.077Z</time></trkpt><trkpt lat="40.195763484847916" lon="8.58226207575722"><ele>421.0</ele><time>2026-04-29T09:57:21.077Z</time></trkpt><trkpt lat="40.19565050800533" lon="8.582385416007657"><ele>421.0</ele><time>2026-04-29T09:57:22.077Z</time></trkpt><trkpt lat="40.19554834588418" lon="8.582499745309573"><ele>421.0</ele><time>2026-04-29T09:57:23.077Z</time></trkpt><trkpt lat="40.195458413771235" lon="8.582611736566887"><ele>426.5</ele><time>2026-04-29T09:57:24.077Z</time></trkpt><trkpt lat="40.19538479006401" lon="8.582756796587065"><ele>432.0</ele><time>2026-04-29T09:57:25.077Z</time></trkpt><trkpt lat="40.19532294052411" lon="8.582915058305417"><ele>437.5</ele><time>2026-04-29T09:57:26.077Z</time></trkpt><trkpt lat="40.19529595835584" lon="8.583050762918102"><ele>443.0</ele><time>2026-04-29T09:57:27.077Z</time></trkpt><trkpt lat="40.19530084390735" lon="8.58317222652831"><ele>443.0</ele><time>2026-04-29T09:57:28.077Z</time></trkpt><trkpt lat="40.195337652734814" lon="8.583274100198883"><ele>442.99999999999994</ele><time>2026-04-29T09:57:29.077Z</time></trkpt><trkpt lat="40.19542476641027" lon="8.5833332224456"><ele>442.99999999999994</ele><time>2026-04-29T09:57:30.077Z</time></trkpt><trkpt lat="40.195522669050206" lon="8.58333171729485"><ele>443.0</ele><time>2026-04-29T09:57:31.077Z</time></trkpt><trkpt lat="40.19564079300095" lon="8.583279524372678"><ele>443.0</ele><time>2026-04-29T09:57:32.077Z</time></trkpt><trkpt lat="40.19576581342083" lon="8.583201318108665"><ele>440.75</ele><time>2026-04-29T09:57:33.077Z</time></trkpt><trkpt lat="40.195901869241716" lon="8.583147272591576"><ele>438.5</ele><time>2026-04-29T09:57:34.077Z</time></trkpt><trkpt lat="40.19604867562422" lon="8.5830937872125"><ele>436.25</ele><time>2026-04-29T09:57:35.077Z</time></trkpt><trkpt lat="40.196193458803904" lon="8.583056252831446"><ele>434.0</ele><time>2026-04-29T09:57:36.077Z</time></trkpt><trkpt lat="40.19633017773985" lon="8.583041669714191"><ele>434.0</ele><time>2026-04-29T09:57:37.077Z</time></trkpt><trkpt lat="40.196467010421344" lon="8.58308228400584"><ele>434.0</ele><time>2026-04-29T09:57:38.077Z</time></trkpt><trkpt lat="40.19655365301405" lon="8.583145622657831"><ele>434.0</ele><time>2026-04-29T09:57:39.077Z</time></trkpt><trkpt lat="40.19659697404805" lon="8.58326061622468"><ele>434.0</ele><time>2026-04-29T09:57:40.077Z</time></trkpt><trkpt lat="40.19661338432456" lon="8.58341408584274"><ele>434.5</ele><time>2026-04-29T09:57:41.077Z</time></trkpt><trkpt lat="40.196620631736124" lon="8.583579120084732"><ele>435.0</ele><time>2026-04-29T09:57:42.077Z</time></trkpt><trkpt lat="40.19662102154343" lon="8.583767722182303"><ele>435.5</ele><time>2026-04-29T09:57:43.077Z</time></trkpt><trkpt lat="40.19662479690409" lon="8.583971001200416"><ele>436.0</ele><time>2026-04-29T09:57:44.077Z</time></trkpt><trkpt lat="40.19663251425421" lon="8.584177122377179"><ele>436.0</ele><time>2026-04-29T09:57:45.077Z</time></trkpt><trkpt lat="40.196627821190056" lon="8.584387343814925"><ele>436.0</ele><time>2026-04-29T09:57:46.077Z</time></trkpt><trkpt lat="40.196601924724945" lon="8.584592332322782"><ele>436.0</ele><time>2026-04-29T09:57:47.077Z</time></trkpt><trkpt lat="40.19654863151508" lon="8.5847923781218"><ele>444.0</ele><time>2026-04-29T09:57:48.077Z</time></trkpt><trkpt lat="40.19648777064519" lon="8.584979576206894"><ele>452.0</ele><time>2026-04-29T09:57:49.077Z</time></trkpt><trkpt lat="40.19644969556458" lon="8.585128946405696"><ele>460.0</ele><time>2026-04-29T09:57:50.077Z</time></trkpt><trkpt lat="40.19644932807023" lon="8.585256565564041"><ele>468.0</ele><time>2026-04-29T09:57:51.077Z</time></trkpt><trkpt lat="40.19649973698224" lon="8.585360971958933"><ele>464.5</ele><time>2026-04-29T09:57:52.077Z</time></trkpt><trkpt lat="40.19660028854669" lon="8.585441350298426"><ele>461.0</ele><time>2026-04-29T09:57:53.077Z</time></trkpt><trkpt lat="40.1967203197571" lon="8.585517100025978"><ele>457.5</ele><time>2026-04-29T09:57:54.077Z</time></trkpt><trkpt lat="40.19684250134902" lon="8.585592424362343"><ele>454.0</ele><time>2026-04-29T09:57:55.077Z</time></trkpt><trkpt lat="40.196953420295024" lon="8.585616147319083"><ele>454.0</ele><time>2026-04-29T09:57:56.077Z</time></trkpt><trkpt lat="40.19707660766311" lon="8.585589458724554"><ele>454.0</ele><time>2026-04-29T09:57:57.077Z</time></trkpt><trkpt lat="40.19717423891718" lon="8.585496310951132"><ele>454.0</ele><time>2026-04-29T09:57:58.077Z</time></trkpt><trkpt lat="40.197269146456996" lon="8.585345163637223"><ele>454.0</ele><time>2026-04-29T09:57:59.077Z</time></trkpt><trkpt lat="40.197373340081676" lon="8.585180868705901"><ele>451.6666666666667</ele><time>2026-04-29T09:58:00.077Z</time></trkpt><trkpt lat="40.19749437020162" lon="8.585051823188621"><ele>449.33333333333337</ele><time>2026-04-29T09:58:01.077Z</time></trkpt><trkpt lat="40.197624769026476" lon="8.584945246991348"><ele>447.0</ele><time>2026-04-29T09:58:02.077Z</time></trkpt><trkpt lat="40.197773446087126" lon="8.584852344480499"><ele>447.0</ele><time>2026-04-29T09:58:03.077Z</time></trkpt><trkpt lat="40.1979195151118" lon="8.584771908181924"><ele>447.0</ele><time>2026-04-29T09:58:04.077Z</time></trkpt><trkpt lat="40.1980501816642" lon="8.584699568143757"><ele>447.0</ele><time>2026-04-29T09:58:05.077Z</time></trkpt><trkpt lat="40.1981593997878" lon="8.584591408235863"><ele>447.0</ele><time>2026-04-29T09:58:06.077Z</time></trkpt><trkpt lat="40.19822632656581" lon="8.584459668219935"><ele>443.75</ele><time>2026-04-29T09:58:07.077Z</time></trkpt><trkpt lat="40.1982325202336" lon="8.584323935367395"><ele>440.5</ele><time>2026-04-29T09:58:08.077Z</time></trkpt><trkpt lat="40.198188776146765" lon="8.584175380509905"><ele>437.25</ele><time>2026-04-29T09:58:09.077Z</time></trkpt><trkpt lat="40.198109940767196" lon="8.58403354986953"><ele>434.0</ele><time>2026-04-29T09:58:10.077Z</time></trkpt><trkpt lat="40.19803326924852" lon="8.583882399758881"><ele>434.0</ele><time>2026-04-29T09:58:11.077Z</time></trkpt><trkpt lat="40.197977842296844" lon="8.583707034559033"><ele>434.0</ele><time>2026-04-29T09:58:12.077Z</time></trkpt><trkpt lat="40.19797593690555" lon="8.583518377133755"><ele>434.0</ele><time>2026-04-29T09:58:13.077Z</time></trkpt><trkpt lat="40.198015111958874" lon="8.58332804241241"><ele>434.0</ele><time>2026-04-29T09:58:14.077Z</time></trkpt><trkpt lat="40.19810040220988" lon="8.583153601879355"><ele>441.0</ele><time>2026-04-29T09:58:15.077Z</time></trkpt><trkpt lat="40.19818474999315" lon="8.582974694443097"><ele>448.0</ele><time>2026-04-29T09:58:16.077Z</time></trkpt><trkpt lat="40.198232385195375" lon="8.582772368421448"><ele>455.0</ele><time>2026-04-29T09:58:17.077Z</time></trkpt><trkpt lat="40.198264789511086" lon="8.58257419871123"><ele>455.0</ele><time>2026-04-29T09:58:18.077Z</time></trkpt><trkpt lat="40.19830689732938" lon="8.582374902441558"><ele>455.0</ele><time>2026-04-29T09:58:19.077Z</time></trkpt><trkpt lat="40.19838986954943" lon="8.58219830459604"><ele>455.0</ele><time>2026-04-29T09:58:20.077Z</time></trkpt><trkpt lat="40.19850887918323" lon="8.58204014941225"><ele>450.0</ele><time>2026-04-29T09:58:21.077Z</time></trkpt><trkpt lat="40.19865052033647" lon="8.581914281993926"><ele>445.0</ele><time>2026-04-29T09:58:22.077Z</time></trkpt><trkpt lat="40.198794447896276" lon="8.581793319364298"><ele>440.0</ele><time>2026-04-29T09:58:23.077Z</time></trkpt><trkpt lat="40.19893166798823" lon="8.581663453053425"><ele>445.25</ele><time>2026-04-29T09:58:24.077Z</time></trkpt><trkpt lat="40.1990447702868" lon="8.58152875799554"><ele>450.5</ele><time>2026-04-29T09:58:25.077Z</time></trkpt><trkpt lat="40.199125571684476" lon="8.58140061607496"><ele>455.75</ele><time>2026-04-29T09:58:26.077Z</time></trkpt><trkpt lat="40.199200379005234" lon="8.581307764429116"><ele>461.0</ele><time>2026-04-29T09:58:27.077Z</time></trkpt><trkpt lat="40.19929906484708" lon="8.581274422890875"><ele>461.0</ele><time>2026-04-29T09:58:28.077Z</time></trkpt><trkpt lat="40.19938883612671" lon="8.581324875830928"><ele>461.0</ele><time>2026-04-29T09:58:29.077Z</time></trkpt><trkpt lat="40.19947284656684" lon="8.581415705359037"><ele>461.0</ele><time>2026-04-29T09:58:30.077Z</time></trkpt><trkpt lat="40.19956140492408" lon="8.581536597482618"><ele>461.0</ele><time>2026-04-29T09:58:31.077Z</time></trkpt><trkpt lat="40.19962440251588" lon="8.581707889265934"><ele>461.0</ele><time>2026-04-29T09:58:32.077Z</time></trkpt><trkpt lat="40.19968297605217" lon="8.581898657464068"><ele>461.0</ele><time>2026-04-29T09:58:33.077Z</time></trkpt><trkpt lat="40.199746896327134" lon="8.582103901066755"><ele>461.0</ele><time>2026-04-29T09:58:34.077Z</time></trkpt><trkpt lat="40.19981493367226" lon="8.582315343432146"><ele>462.3333333333333</ele><time>2026-04-29T09:58:35.077Z</time></trkpt><trkpt lat="40.199884975246974" lon="8.5825278434127"><ele>463.66666666666663</ele><time>2026-04-29T09:58:36.077Z</time></trkpt><trkpt lat="40.19997459360505" lon="8.582723049597202"><ele>465.0</ele><time>2026-04-29T09:58:37.077Z</time></trkpt><trkpt lat="40.200090082384264" lon="8.582894539935655"><ele>467.66666666666663</ele><time>2026-04-29T09:58:38.077Z</time></trkpt><trkpt lat="40.200220553257694" lon="8.583035701883716"><ele>470.3333333333333</ele><time>2026-04-29T09:58:39.077Z</time></trkpt><trkpt lat="40.20032490714194" lon="8.58316909111187"><ele>473.0</ele><time>2026-04-29T09:58:40.077Z</time></trkpt><trkpt lat="40.200385234227724" lon="8.583335795485727"><ele>473.0</ele><time>2026-04-29T09:58:41.077Z</time></trkpt><trkpt lat="40.200423769924356" lon="8.583535879947286"><ele>473.0</ele><time>2026-04-29T09:58:42.077Z</time></trkpt><trkpt lat="40.20045951854917" lon="8.583727982736967"><ele>473.0</ele><time>2026-04-29T09:58:43.077Z</time></trkpt><trkpt lat="40.20047900732467" lon="8.58388705849008"><ele>473.0</ele><time>2026-04-29T09:58:44.078Z</time></trkpt><trkpt lat="40.20044224166895" lon="8.584028243206795"><ele>472.5</ele><time>2026-04-29T09:58:45.077Z</time></trkpt><trkpt lat="40.200348259870616" lon="8.584148223970576"><ele>472.0</ele><time>2026-04-29T09:58:46.077Z</time></trkpt><trkpt lat="40.20025486468928" lon="8.584281027323112"><ele>471.5</ele><time>2026-04-29T09:58:47.077Z</time></trkpt><trkpt lat="40.200194920821154" lon="8.58445919300318"><ele>471.0</ele><time>2026-04-29T09:58:48.078Z</time></trkpt><trkpt lat="40.20019769152127" lon="8.584685693639948"><ele>471.0</ele><time>2026-04-29T09:58:49.078Z</time></trkpt><trkpt lat="40.20023137430263" lon="8.584907986308345"><ele>471.0</ele><time>2026-04-29T09:58:50.078Z</time></trkpt><trkpt lat="40.200295969000535" lon="8.58513607042317"><ele>471.0</ele><time>2026-04-29T09:58:51.078Z</time></trkpt><trkpt lat="40.20035824903127" lon="8.58538053141054"><ele>469.66666666666663</ele><time>2026-04-29T09:58:52.078Z</time></trkpt><trkpt lat="40.200379378381854" lon="8.585617574750726"><ele>468.3333333333333</ele><time>2026-04-29T09:58:53.078Z</time></trkpt><trkpt lat="40.20039347309317" lon="8.585836563910878"><ele>467.0</ele><time>2026-04-29T09:58:54.077Z</time></trkpt><trkpt lat="40.20044303553188" lon="8.586029326422253"><ele>466.3333333333333</ele><time>2026-04-29T09:58:55.077Z</time></trkpt><trkpt lat="40.200562413410864" lon="8.586198607588871"><ele>465.66666666666663</ele><time>2026-04-29T09:58:56.078Z</time></trkpt><trkpt lat="40.20070890131611" lon="8.586354668241707"><ele>465.0</ele><time>2026-04-29T09:58:57.078Z</time></trkpt><trkpt lat="40.20077563833872" lon="8.586547001332617"><ele>457.66666666666663</ele><time>2026-04-29T09:58:58.078Z</time></trkpt><trkpt lat="40.20076411121494" lon="8.586793191699126"><ele>450.3333333333333</ele><time>2026-04-29T09:58:59.078Z</time></trkpt><trkpt lat="40.20073145556553" lon="8.587070834086289"><ele>443.0</ele><time>2026-04-29T09:59:00.078Z</time></trkpt><trkpt lat="40.2007350860641" lon="8.587348411036134"><ele>442.3333333333333</ele><time>2026-04-29T09:59:01.078Z</time></trkpt><trkpt lat="40.20085496719848" lon="8.587319256368318"><ele>441.66666666666663</ele><time>2026-04-29T09:59:02.078Z</time></trkpt><trkpt lat="40.200857505710374" lon="8.58757912862501"><ele>441.0</ele><time>2026-04-29T09:59:03.078Z</time></trkpt><trkpt lat="40.20081245474464" lon="8.587848266087576"><ele>440.33333333333337</ele><time>2026-04-29T09:59:04.078Z</time></trkpt><trkpt lat="40.200741556206815" lon="8.588104341322616"><ele>439.6666666666667</ele><time>2026-04-29T09:59:05.078Z</time></trkpt><trkpt lat="40.20070784217671" lon="8.588350563452451"><ele>439.0</ele><time>2026-04-29T09:59:06.078Z</time></trkpt><trkpt lat="40.20068043314613" lon="8.588590689054067"><ele>438.33333333333337</ele><time>2026-04-29T09:59:07.078Z</time></trkpt><trkpt lat="40.20070158165892" lon="8.588846875061689"><ele>437.66666666666663</ele><time>2026-04-29T09:59:08.078Z</time></trkpt><trkpt lat="40.20077456774044" lon="8.589112415092504"><ele>437.0</ele><time>2026-04-29T09:59:09.078Z</time></trkpt><trkpt lat="40.20085253889424" lon="8.589338946406038"><ele>434.66666666666663</ele><time>2026-04-29T09:59:10.078Z</time></trkpt><trkpt lat="40.200893355818756" lon="8.589546860325044"><ele>432.33333333333337</ele><time>2026-04-29T09:59:11.078Z</time></trkpt><trkpt lat="40.20089491444246" lon="8.5897332953362"><ele>430.0</ele><time>2026-04-29T09:59:12.078Z</time></trkpt><trkpt lat="40.20083866810062" lon="8.589938865844529"><ele>430.0</ele><time>2026-04-29T09:59:13.078Z</time></trkpt><trkpt lat="40.20075588267977" lon="8.590161504281408"><ele>430.0</ele><time>2026-04-29T09:59:14.078Z</time></trkpt><trkpt lat="40.20068759760955" lon="8.590397722563173"><ele>430.0</ele><time>2026-04-29T09:59:15.078Z</time></trkpt><trkpt lat="40.20063530557296" lon="8.590612888535787"><ele>427.75</ele><time>2026-04-29T09:59:16.078Z</time></trkpt><trkpt lat="40.200643670158165" lon="8.590812027737533"><ele>425.5</ele><time>2026-04-29T09:59:17.078Z</time></trkpt><trkpt lat="40.20069248244125" lon="8.591004696119247"><ele>423.25</ele><time>2026-04-29T09:59:18.078Z</time></trkpt><trkpt lat="40.200718353937376" lon="8.591167231438101"><ele>421.0</ele><time>2026-04-29T09:59:19.078Z</time></trkpt><trkpt lat="40.20066735038326" lon="8.591327350800352"><ele>424.33333333333337</ele><time>2026-04-29T09:59:20.078Z</time></trkpt><trkpt lat="40.200572389290336" lon="8.591494123518011"><ele>427.66666666666663</ele><time>2026-04-29T09:59:21.078Z</time></trkpt><trkpt lat="40.20045050619463" lon="8.59167070427758"><ele>431.0</ele><time>2026-04-29T09:59:22.078Z</time></trkpt><trkpt lat="40.20033184237588" lon="8.591848184993408"><ele>425.3333333333333</ele><time>2026-04-29T09:59:23.078Z</time></trkpt><trkpt lat="40.20023747324131" lon="8.592019362081833"><ele>419.66666666666663</ele><time>2026-04-29T09:59:24.078Z</time></trkpt><trkpt lat="40.20013250658137" lon="8.592179530347785"><ele>414.0</ele><time>2026-04-29T09:59:25.078Z</time></trkpt><trkpt lat="40.20000119774972" lon="8.592280695794868"><ele>414.0</ele><time>2026-04-29T09:59:26.078Z</time></trkpt><trkpt lat="40.19990518770901" lon="8.592360096575206"><ele>414.0</ele><time>2026-04-29T09:59:27.078Z</time></trkpt><trkpt lat="40.19987871344891" lon="8.592493297308708"><ele>414.0</ele><time>2026-04-29T09:59:28.078Z</time></trkpt><trkpt lat="40.19990983957361" lon="8.592663023768921"><ele>414.0</ele><time>2026-04-29T09:59:29.078Z</time></trkpt><trkpt lat="40.19991542180456" lon="8.592855127508901"><ele>412.5</ele><time>2026-04-29T09:59:30.078Z</time></trkpt><trkpt lat="40.19984217531738" lon="8.593036877867839"><ele>411.0</ele><time>2026-04-29T09:59:31.078Z</time></trkpt><trkpt lat="40.199789380933666" lon="8.593205098498613"><ele>409.5</ele><time>2026-04-29T09:59:32.078Z</time></trkpt><trkpt lat="40.19983874551487" lon="8.593382318601869"><ele>408.0</ele><time>2026-04-29T09:59:33.078Z</time></trkpt><trkpt lat="40.199924900472375" lon="8.593547029292544"><ele>406.33333333333337</ele><time>2026-04-29T09:59:34.078Z</time></trkpt><trkpt lat="40.20000135952079" lon="8.593766447158826"><ele>404.6666666666667</ele><time>2026-04-29T09:59:35.078Z</time></trkpt><trkpt lat="40.2000129877644" lon="8.59400401763119"><ele>403.0</ele><time>2026-04-29T09:59:36.078Z</time></trkpt><trkpt lat="40.199970139313386" lon="8.594206070236877"><ele>403.0</ele><time>2026-04-29T09:59:37.078Z</time></trkpt><trkpt lat="40.1999211527279" lon="8.594371329929823"><ele>403.0</ele><time>2026-04-29T09:59:38.078Z</time></trkpt><trkpt lat="40.19981075803301" lon="8.59450543298227"><ele>403.0</ele><time>2026-04-29T09:59:39.078Z</time></trkpt><trkpt lat="40.199693271218706" lon="8.594634888886644"><ele>403.0</ele><time>2026-04-29T09:59:40.078Z</time></trkpt><trkpt lat="40.199601197251134" lon="8.594796236408058"><ele>407.5</ele><time>2026-04-29T09:59:41.078Z</time></trkpt><trkpt lat="40.19958288740272" lon="8.594973340985522"><ele>412.0</ele><time>2026-04-29T09:59:42.078Z</time></trkpt><trkpt lat="40.19961463919745" lon="8.595102557702303"><ele>416.5</ele><time>2026-04-29T09:59:43.078Z</time></trkpt><trkpt lat="40.199710774706844" lon="8.595191842432591"><ele>421.0</ele><time>2026-04-29T09:59:44.078Z</time></trkpt><trkpt lat="40.199829565317984" lon="8.595208960655707"><ele>416.5</ele><time>2026-04-29T09:59:45.078Z</time></trkpt><trkpt lat="40.19994401181477" lon="8.5951497209107"><ele>412.0</ele><time>2026-04-29T09:59:46.078Z</time></trkpt><trkpt lat="40.20006847912964" lon="8.595013987127524"><ele>407.5</ele><time>2026-04-29T09:59:47.078Z</time></trkpt><trkpt lat="40.200197667562804" lon="8.594887829837585"><ele>403.0</ele><time>2026-04-29T09:59:48.078Z</time></trkpt><trkpt lat="40.20032851482651" lon="8.594738505086934"><ele>403.0</ele><time>2026-04-29T09:59:49.078Z</time></trkpt><trkpt lat="40.2004612978477" lon="8.59456712729134"><ele>403.0</ele><time>2026-04-29T09:59:50.078Z</time></trkpt><trkpt lat="40.200586886030116" lon="8.59438184886834"><ele>403.0</ele><time>2026-04-29T09:59:51.078Z</time></trkpt><trkpt lat="40.200694728110086" lon="8.594195856004692"><ele>402.33333333333337</ele><time>2026-04-29T09:59:52.078Z</time></trkpt><trkpt lat="40.200770757578404" lon="8.593959247860127"><ele>401.66666666666663</ele><time>2026-04-29T09:59:53.078Z</time></trkpt><trkpt lat="40.20081034908957" lon="8.593697819453208"><ele>401.0</ele><time>2026-04-29T09:59:54.078Z</time></trkpt><trkpt lat="40.2008755560427" lon="8.593426396496833"><ele>397.75</ele><time>2026-04-29T09:59:55.078Z</time></trkpt><trkpt lat="40.20095371048604" lon="8.593277509627134"><ele>394.5</ele><time>2026-04-29T09:59:56.078Z</time></trkpt><trkpt lat="40.20104406811518" lon="8.593185613847439"><ele>391.25</ele><time>2026-04-29T09:59:57.078Z</time></trkpt><trkpt lat="40.201165367757326" lon="8.593159930936352"><ele>388.0</ele><time>2026-04-29T09:59:58.078Z</time></trkpt><trkpt lat="40.201329496949974" lon="8.593205715862668"><ele>388.0</ele><time>2026-04-29T09:59:59.078Z</time></trkpt><trkpt lat="40.201486151721475" lon="8.593284435204048"><ele>388.0</ele><time>2026-04-29T10:00:00.078Z</time></trkpt><trkpt lat="40.2016511373361" lon="8.593340335743092"><ele>388.0</ele><time>2026-04-29T10:00:01.078Z</time></trkpt><trkpt lat="40.20181533302338" lon="8.593333948616797"><ele>387.6666666666667</ele><time>2026-04-29T10:00:02.078Z</time></trkpt><trkpt lat="40.20198096326495" lon="8.59327118065012"><ele>387.33333333333337</ele><time>2026-04-29T10:00:03.078Z</time></trkpt><trkpt lat="40.202150239973335" lon="8.593157593110435"><ele>387.0</ele><time>2026-04-29T10:00:04.078Z</time></trkpt><trkpt lat="40.20231815520153" lon="8.593086171133047"><ele>388.33333333333337</ele><time>2026-04-29T10:00:05.078Z</time></trkpt><trkpt lat="40.20248674212117" lon="8.593023936539538"><ele>389.6666666666667</ele><time>2026-04-29T10:00:06.078Z</time></trkpt><trkpt lat="40.20265924534153" lon="8.593009742720895"><ele>391.0</ele><time>2026-04-29T10:00:07.078Z</time></trkpt><trkpt lat="40.20282157013631" lon="8.593045137795126"><ele>391.0</ele><time>2026-04-29T10:00:08.078Z</time></trkpt><trkpt lat="40.20299628090432" lon="8.593111589343017"><ele>391.0</ele><time>2026-04-29T10:00:09.078Z</time></trkpt><trkpt lat="40.20316203422586" lon="8.593181254223042"><ele>391.0</ele><time>2026-04-29T10:00:10.078Z</time></trkpt><trkpt lat="40.203326770728395" lon="8.593261903988322"><ele>390.75</ele><time>2026-04-29T10:00:11.078Z</time></trkpt><trkpt lat="40.20347156551501" lon="8.59335303157163"><ele>390.5</ele><time>2026-04-29T10:00:12.078Z</time></trkpt><trkpt lat="40.20359322852293" lon="8.593423058971181"><ele>390.25</ele><time>2026-04-29T10:00:13.078Z</time></trkpt><trkpt lat="40.20371026581095" lon="8.593446171923073"><ele>390.0</ele><time>2026-04-29T10:00:14.078Z</time></trkpt><trkpt lat="40.20381646652223" lon="8.593351463544044"><ele>390.0</ele><time>2026-04-29T10:00:15.078Z</time></trkpt><trkpt lat="40.20390277594322" lon="8.593195772867979"><ele>390.0</ele><time>2026-04-29T10:00:16.078Z</time></trkpt><trkpt lat="40.203979176963486" lon="8.59300802120457"><ele>390.0</ele><time>2026-04-29T10:00:17.078Z</time></trkpt><trkpt lat="40.20411184324734" lon="8.592816276825884"><ele>388.66666666666663</ele><time>2026-04-29T10:00:18.078Z</time></trkpt><trkpt lat="40.2042524475454" lon="8.592633772364076"><ele>387.3333333333333</ele><time>2026-04-29T10:00:19.078Z</time></trkpt><trkpt lat="40.204390102323494" lon="8.592482805681493"><ele>386.0</ele><time>2026-04-29T10:00:20.078Z</time></trkpt><trkpt lat="40.20453623523536" lon="8.592381340836713"><ele>386.0</ele><time>2026-04-29T10:00:21.078Z</time></trkpt><trkpt lat="40.20470725526797" lon="8.592327444841578"><ele>386.0</ele><time>2026-04-29T10:00:22.078Z</time></trkpt><trkpt lat="40.204870124999275" lon="8.592220601062872"><ele>386.0</ele><time>2026-04-29T10:00:23.078Z</time></trkpt><trkpt lat="40.20502730054056" lon="8.592056417212206"><ele>386.0</ele><time>2026-04-29T10:00:24.078Z</time></trkpt><trkpt lat="40.20516118260296" lon="8.591844178047932"><ele>386.0</ele><time>2026-04-29T10:00:25.078Z</time></trkpt><trkpt lat="40.20529902497634" lon="8.5916590747014"><ele>386.0</ele><time>2026-04-29T10:00:26.078Z</time></trkpt><trkpt lat="40.20542419407971" lon="8.591515513578559"><ele>386.0</ele><time>2026-04-29T10:00:27.078Z</time></trkpt><trkpt lat="40.20552735222712" lon="8.59140813683374"><ele>386.0</ele><time>2026-04-29T10:00:28.078Z</time></trkpt><trkpt lat="40.205642820250496" lon="8.591351781207582"><ele>386.0</ele><time>2026-04-29T10:00:29.078Z</time></trkpt><trkpt lat="40.20577132076501" lon="8.591337391011981"><ele>386.0</ele><time>2026-04-29T10:00:30.078Z</time></trkpt><trkpt lat="40.205899962972566" lon="8.591415883472477"><ele>388.75</ele><time>2026-04-29T10:00:31.078Z</time></trkpt><trkpt lat="40.20599151331363" lon="8.591532466801464"><ele>391.5</ele><time>2026-04-29T10:00:32.078Z</time></trkpt><trkpt lat="40.20606169402783" lon="8.591700283644458"><ele>394.25</ele><time>2026-04-29T10:00:33.078Z</time></trkpt><trkpt lat="40.20614693538062" lon="8.591883595160207"><ele>397.0</ele><time>2026-04-29T10:00:34.078Z</time></trkpt><trkpt lat="40.206244110936794" lon="8.592047533452586"><ele>395.75</ele><time>2026-04-29T10:00:35.078Z</time></trkpt><trkpt lat="40.20635875593359" lon="8.592146249788245"><ele>394.5</ele><time>2026-04-29T10:00:36.078Z</time></trkpt><trkpt lat="40.20649169278201" lon="8.592181062118824"><ele>393.25</ele><time>2026-04-29T10:00:37.078Z</time></trkpt><trkpt lat="40.20663240455258" lon="8.592119255085231"><ele>392.0</ele><time>2026-04-29T10:00:38.078Z</time></trkpt><trkpt lat="40.206777821244316" lon="8.591946782227984"><ele>392.0</ele><time>2026-04-29T10:00:39.078Z</time></trkpt><trkpt lat="40.20689320811893" lon="8.591724941785428"><ele>392.0</ele><time>2026-04-29T10:00:40.078Z</time></trkpt><trkpt lat="40.20701108003188" lon="8.591528780030654"><ele>392.0</ele><time>2026-04-29T10:00:41.078Z</time></trkpt><trkpt lat="40.20713993909916" lon="8.591345627310805"><ele>392.0</ele><time>2026-04-29T10:00:42.078Z</time></trkpt><trkpt lat="40.20726486783566" lon="8.591219963558123"><ele>392.0</ele><time>2026-04-29T10:00:43.078Z</time></trkpt><trkpt lat="40.20740527376416" lon="8.591143696034619"><ele>392.0</ele><time>2026-04-29T10:00:44.078Z</time></trkpt><trkpt lat="40.20758583523942" lon="8.59110329137776"><ele>389.66666666666663</ele><time>2026-04-29T10:00:45.078Z</time></trkpt><trkpt lat="40.207775333962786" lon="8.591080607395414"><ele>387.33333333333337</ele><time>2026-04-29T10:00:46.078Z</time></trkpt><trkpt lat="40.207953433838306" lon="8.5910307734249"><ele>385.0</ele><time>2026-04-29T10:00:47.078Z</time></trkpt><trkpt lat="40.2081177011451" lon="8.590945305282506"><ele>388.0</ele><time>2026-04-29T10:00:48.078Z</time></trkpt><trkpt lat="40.208266616281804" lon="8.59082227974061"><ele>391.0</ele><time>2026-04-29T10:00:49.078Z</time></trkpt><trkpt lat="40.20841157259414" lon="8.590693347900716"><ele>394.0</ele><time>2026-04-29T10:00:50.078Z</time></trkpt><trkpt lat="40.20855522480229" lon="8.59059138492272"><ele>394.0</ele><time>2026-04-29T10:00:51.079Z</time></trkpt><trkpt lat="40.20868417911788" lon="8.59051953704476"><ele>394.0</ele><time>2026-04-29T10:00:52.079Z</time></trkpt><trkpt lat="40.20882032305096" lon="8.59049291751075"><ele>394.0</ele><time>2026-04-29T10:00:53.079Z</time></trkpt><trkpt lat="40.20898155531269" lon="8.590541302570596"><ele>394.0</ele><time>2026-04-29T10:00:54.079Z</time></trkpt><trkpt lat="40.20913973323962" lon="8.590572104435708"><ele>395.0</ele><time>2026-04-29T10:00:55.079Z</time></trkpt><trkpt lat="40.20930153477172" lon="8.590543331385652"><ele>396.0</ele><time>2026-04-29T10:00:56.079Z</time></trkpt><trkpt lat="40.20944781728695" lon="8.59051611637497"><ele>397.0</ele><time>2026-04-29T10:00:57.078Z</time></trkpt><trkpt lat="40.209597586098816" lon="8.590534420496416"><ele>397.0</ele><time>2026-04-29T10:00:58.078Z</time></trkpt><trkpt lat="40.20975672614142" lon="8.590615295515269"><ele>397.0</ele><time>2026-04-29T10:00:59.079Z</time></trkpt><trkpt lat="40.209909330064995" lon="8.590692539627975"><ele>397.0</ele><time>2026-04-29T10:01:00.079Z</time></trkpt><trkpt lat="40.21005640253378" lon="8.590758973383691"><ele>395.5</ele><time>2026-04-29T10:01:01.079Z</time></trkpt><trkpt lat="40.21017950740841" lon="8.590792261355936"><ele>394.0</ele><time>2026-04-29T10:01:02.078Z</time></trkpt><trkpt lat="40.210293354447906" lon="8.590793222531206"><ele>392.5</ele><time>2026-04-29T10:01:03.079Z</time></trkpt><trkpt lat="40.21039984146805" lon="8.59071621825622"><ele>391.0</ele><time>2026-04-29T10:01:04.079Z</time></trkpt><trkpt lat="40.21048598252213" lon="8.590615588272273"><ele>391.0</ele><time>2026-04-29T10:01:05.079Z</time></trkpt><trkpt lat="40.210567568713586" lon="8.590488999456955"><ele>391.0</ele><time>2026-04-29T10:01:06.079Z</time></trkpt><trkpt lat="40.210637091390105" lon="8.590365772056353"><ele>391.0</ele><time>2026-04-29T10:01:07.079Z</time></trkpt><trkpt lat="40.210682919279215" lon="8.59021695268422"><ele>391.0</ele><time>2026-04-29T10:01:08.079Z</time></trkpt><trkpt lat="40.210730554542145" lon="8.590069624015818"><ele>390.5</ele><time>2026-04-29T10:01:09.079Z</time></trkpt><trkpt lat="40.21079456586667" lon="8.589927383815969"><ele>390.0</ele><time>2026-04-29T10:01:10.079Z</time></trkpt><trkpt lat="40.210867034847034" lon="8.589794020875482"><ele>389.5</ele><time>2026-04-29T10:01:11.079Z</time></trkpt><trkpt lat="40.21095332835229" lon="8.589674274035247"><ele>389.0</ele><time>2026-04-29T10:01:12.079Z</time></trkpt><trkpt lat="40.21104915306258" lon="8.589579529086157"><ele>385.75</ele><time>2026-04-29T10:01:13.079Z</time></trkpt><trkpt lat="40.21116155770571" lon="8.589508491373413"><ele>382.5</ele><time>2026-04-29T10:01:14.079Z</time></trkpt><trkpt lat="40.21126614985994" lon="8.589440161298189"><ele>379.25</ele><time>2026-04-29T10:01:15.079Z</time></trkpt><trkpt lat="40.21136509119479" lon="8.589368579881691"><ele>376.0</ele><time>2026-04-29T10:01:16.079Z</time></trkpt><trkpt lat="40.21146252718734" lon="8.589311411756745"><ele>378.0</ele><time>2026-04-29T10:01:17.079Z</time></trkpt><trkpt lat="40.21156011251425" lon="8.589283168860737"><ele>380.0</ele><time>2026-04-29T10:01:18.079Z</time></trkpt><trkpt lat="40.211648292176115" lon="8.589249747420764"><ele>382.0</ele><time>2026-04-29T10:01:19.079Z</time></trkpt><trkpt lat="40.21174008698517" lon="8.589230716127123"><ele>384.0</ele><time>2026-04-29T10:01:20.079Z</time></trkpt><trkpt lat="40.2118274981767" lon="8.589227529947856"><ele>386.0</ele><time>2026-04-29T10:01:21.079Z</time></trkpt><trkpt lat="40.21192545214157" lon="8.589236091546898"><ele>386.0</ele><time>2026-04-29T10:01:22.079Z</time></trkpt><trkpt lat="40.21203037567847" lon="8.589251774130355"><ele>386.0</ele><time>2026-04-29T10:01:23.079Z</time></trkpt><trkpt lat="40.21213628456457" lon="8.58927439401243"><ele>386.0</ele><time>2026-04-29T10:01:24.079Z</time></trkpt><trkpt lat="40.21223803091307" lon="8.589296928013136"><ele>386.0</ele><time>2026-04-29T10:01:25.079Z</time></trkpt><trkpt lat="40.212347814384906" lon="8.589317216080095"><ele>386.0</ele><time>2026-04-29T10:01:26.079Z</time></trkpt><trkpt lat="40.21245536503079" lon="8.589341763063217"><ele>385.6</ele><time>2026-04-29T10:01:27.079Z</time></trkpt><trkpt lat="40.21256587935342" lon="8.58936751700167"><ele>385.20000000000005</ele><time>2026-04-29T10:01:28.079Z</time></trkpt><trkpt lat="40.21267355094339" lon="8.589393607677659"><ele>384.79999999999995</ele><time>2026-04-29T10:01:29.079Z</time></trkpt><trkpt lat="40.21278348102335" lon="8.589408312156728"><ele>384.4</ele><time>2026-04-29T10:01:30.079Z</time></trkpt><trkpt lat="40.21289308232723" lon="8.58944063413918"><ele>384.0</ele><time>2026-04-29T10:01:31.079Z</time></trkpt><trkpt lat="40.21299686346914" lon="8.589483631496032"><ele>384.0</ele><time>2026-04-29T10:01:32.079Z</time></trkpt><trkpt lat="40.21310451034707" lon="8.58949627944939"><ele>384.0</ele><time>2026-04-29T10:01:33.079Z</time></trkpt><trkpt lat="40.21320886102281" lon="8.58949238616121"><ele>384.0</ele><time>2026-04-29T10:01:34.079Z</time></trkpt><trkpt lat="40.213309223999254" lon="8.589479371913141"><ele>384.0</ele><time>2026-04-29T10:01:35.079Z</time></trkpt><trkpt lat="40.21340286429114" lon="8.589428729793722"><ele>384.0</ele><time>2026-04-29T10:01:36.079Z</time></trkpt><trkpt lat="40.21348632894391" lon="8.589358560512714"><ele>384.4</ele><time>2026-04-29T10:01:37.079Z</time></trkpt><trkpt lat="40.21355357509415" lon="8.589268161507398"><ele>384.79999999999995</ele><time>2026-04-29T10:01:38.079Z</time></trkpt><trkpt lat="40.21361315492991" lon="8.589166827221769"><ele>385.20000000000005</ele><time>2026-04-29T10:01:39.079Z</time></trkpt><trkpt lat="40.213672332687246" lon="8.589052442771443"><ele>385.6</ele><time>2026-04-29T10:01:40.079Z</time></trkpt><trkpt lat="40.21372410842798" lon="8.588929775971698"><ele>386.0</ele><time>2026-04-29T10:01:41.079Z</time></trkpt><trkpt lat="40.21378108068799" lon="8.588823685033676"><ele>385.99999999999994</ele><time>2026-04-29T10:01:42.079Z</time></trkpt><trkpt lat="40.213840586879975" lon="8.588731487447617"><ele>386.0</ele><time>2026-04-29T10:01:43.079Z</time></trkpt><trkpt lat="40.213900432692604" lon="8.588649995754684"><ele>386.0</ele><time>2026-04-29T10:01:44.079Z</time></trkpt><trkpt lat="40.21395568604647" lon="8.588562554576788"><ele>386.0</ele><time>2026-04-29T10:01:45.079Z</time></trkpt><trkpt lat="40.21400930698337" lon="8.588485190757602"><ele>385.99999999999994</ele><time>2026-04-29T10:01:46.079Z</time></trkpt><trkpt lat="40.21408964299411" lon="8.588418966983243"><ele>386.0</ele><time>2026-04-29T10:01:47.079Z</time></trkpt><trkpt lat="40.21417085197785" lon="8.588358586763269"><ele>386.20000000000005</ele><time>2026-04-29T10:01:48.079Z</time></trkpt><trkpt lat="40.21424626050241" lon="8.58829179002992"><ele>386.40000000000003</ele><time>2026-04-29T10:01:49.079Z</time></trkpt><trkpt lat="40.21431651235667" lon="8.588215777250154"><ele>386.6</ele><time>2026-04-29T10:01:50.079Z</time></trkpt><trkpt lat="40.21439230914243" lon="8.588148480881472"><ele>386.8</ele><time>2026-04-29T10:01:51.079Z</time></trkpt><trkpt lat="40.21446360374911" lon="8.5880629413765"><ele>387.0</ele><time>2026-04-29T10:01:52.079Z</time></trkpt><trkpt lat="40.21455161882877" lon="8.588014720253899"><ele>387.0</ele><time>2026-04-29T10:01:53.079Z</time></trkpt><trkpt lat="40.214640075390584" lon="8.587966293972004"><ele>387.0</ele><time>2026-04-29T10:01:54.079Z</time></trkpt><trkpt lat="40.214720320891" lon="8.587911109662102"><ele>387.0</ele><time>2026-04-29T10:01:55.079Z</time></trkpt><trkpt lat="40.21482382216896" lon="8.587869278226767"><ele>387.0</ele><time>2026-04-29T10:01:56.079Z</time></trkpt><trkpt lat="40.21490023037037" lon="8.587802468236347"><ele>387.0</ele><time>2026-04-29T10:01:57.079Z</time></trkpt><trkpt lat="40.21496538913361" lon="8.587722653510072"><ele>386.6666666666667</ele><time>2026-04-29T10:01:58.079Z</time></trkpt><trkpt lat="40.21505605832085" lon="8.58767840867733"><ele>386.33333333333337</ele><time>2026-04-29T10:01:59.079Z</time></trkpt><trkpt lat="40.21514165134764" lon="8.587640159577303"><ele>386.0</ele><time>2026-04-29T10:02:00.079Z</time></trkpt><trkpt lat="40.21521133402673" lon="8.58758983348661"><ele>385.6666666666667</ele><time>2026-04-29T10:02:01.079Z</time></trkpt><trkpt lat="40.21528540740036" lon="8.587560360639758"><ele>385.33333333333337</ele><time>2026-04-29T10:02:02.079Z</time></trkpt><trkpt lat="40.21535857414554" lon="8.587533745021016"><ele>385.0</ele><time>2026-04-29T10:02:03.079Z</time></trkpt><trkpt lat="40.21542099402242" lon="8.587480494212787"><ele>385.0</ele><time>2026-04-29T10:02:04.079Z</time></trkpt><trkpt lat="40.21546041759505" lon="8.587399034810824"><ele>385.0</ele><time>2026-04-29T10:02:05.079Z</time></trkpt><trkpt lat="40.21551589725156" lon="8.587287615239266"><ele>385.0</ele><time>2026-04-29T10:02:06.079Z</time></trkpt><trkpt lat="40.21557422716476" lon="8.587190550822312"><ele>385.0</ele><time>2026-04-29T10:02:07.079Z</time></trkpt><trkpt lat="40.215627419826404" lon="8.587089934768745"><ele>385.0</ele><time>2026-04-29T10:02:08.079Z</time></trkpt><trkpt lat="40.21567976839926" lon="8.586999566513514"><ele>384.6666666666667</ele><time>2026-04-29T10:02:09.079Z</time></trkpt><trkpt lat="40.21574455326137" lon="8.586924208761689"><ele>384.33333333333337</ele><time>2026-04-29T10:02:10.079Z</time></trkpt><trkpt lat="40.21581346943419" lon="8.586845484049663"><ele>384.0</ele><time>2026-04-29T10:02:11.079Z</time></trkpt><trkpt lat="40.215889328971" lon="8.586795361150568"><ele>383.6666666666667</ele><time>2026-04-29T10:02:12.079Z</time></trkpt><trkpt lat="40.21595604295873" lon="8.586740990732306"><ele>383.33333333333337</ele><time>2026-04-29T10:02:13.079Z</time></trkpt><trkpt lat="40.21601893605759" lon="8.586675319224069"><ele>383.0</ele><time>2026-04-29T10:02:14.079Z</time></trkpt><trkpt lat="40.216075544488476" lon="8.586611536507576"><ele>383.0</ele><time>2026-04-29T10:02:15.079Z</time></trkpt><trkpt lat="40.21612377769715" lon="8.586545113324895"><ele>383.0</ele><time>2026-04-29T10:02:16.079Z</time></trkpt><trkpt lat="40.216174861386705" lon="8.586481124942624"><ele>383.0</ele><time>2026-04-29T10:02:17.079Z</time></trkpt><trkpt lat="40.21626928927669" lon="8.586427757923897"><ele>383.0</ele><time>2026-04-29T10:02:19.079Z</time></trkpt><trkpt lat="40.21636675832059" lon="8.586443691832933"><ele>383.0</ele><time>2026-04-29T10:02:21.079Z</time></trkpt><trkpt lat="40.21643514215662" lon="8.586464785500745"><ele>383.0</ele><time>2026-04-29T10:02:22.079Z</time></trkpt><trkpt lat="40.21650652969053" lon="8.586482308687291"><ele>386.0</ele><time>2026-04-29T10:02:23.079Z</time></trkpt><trkpt lat="40.216581197117726" lon="8.58648758904649"><ele>386.0</ele><time>2026-04-29T10:02:24.079Z</time></trkpt><trkpt lat="40.21665192150424" lon="8.586500257207605"><ele>386.0</ele><time>2026-04-29T10:02:25.079Z</time></trkpt><trkpt lat="40.21675677226364" lon="8.586526643709863"><ele>386.0</ele><time>2026-04-29T10:02:27.079Z</time></trkpt><trkpt lat="40.216826277492515" lon="8.586591114951034"><ele>386.0</ele><time>2026-04-29T10:02:30.079Z</time></trkpt></trkseg><trkseg><trkpt lat="40.216942192066796" lon="8.586718038015022"><ele>385.99999999999994</ele><time>2026-04-29T10:29:26.096Z</time></trkpt><trkpt lat="40.21697788480873" lon="8.586789950861732"><ele>386.0</ele><time>2026-04-29T10:29:28.096Z</time></trkpt><trkpt lat="40.217019621669905" lon="8.58689402257517"><ele>386.0</ele><time>2026-04-29T10:29:30.096Z</time></trkpt><trkpt lat="40.217049175631026" lon="8.587005988058976"><ele>386.0</ele><time>2026-04-29T10:29:32.096Z</time></trkpt><trkpt lat="40.217085187758016" lon="8.587112119259837"><ele>385.99999999999994</ele><time>2026-04-29T10:29:34.096Z</time></trkpt><trkpt lat="40.21712738981204" lon="8.587215107325765"><ele>386.0</ele><time>2026-04-29T10:29:36.096Z</time></trkpt><trkpt lat="40.21714878651047" lon="8.587330103862474"><ele>388.20000000000005</ele><time>2026-04-29T10:29:38.096Z</time></trkpt><trkpt lat="40.217173570779224" lon="8.587436237107818"><ele>390.40000000000003</ele><time>2026-04-29T10:29:40.096Z</time></trkpt><trkpt lat="40.217198415236986" lon="8.587517359839547"><ele>392.6</ele><time>2026-04-29T10:29:42.096Z</time></trkpt><trkpt lat="40.21721933820727" lon="8.587618335642206"><ele>394.8</ele><time>2026-04-29T10:29:44.096Z</time></trkpt><trkpt lat="40.217264415925285" lon="8.587758873841254"><ele>397.0</ele><time>2026-04-29T10:29:46.096Z</time></trkpt><trkpt lat="40.217310943927664" lon="8.58789239281583"><ele>396.0</ele><time>2026-04-29T10:29:48.096Z</time></trkpt><trkpt lat="40.21735690371606" lon="8.58802605716642"><ele>395.0</ele><time>2026-04-29T10:29:50.096Z</time></trkpt><trkpt lat="40.21741229473132" lon="8.588157889078522"><ele>394.0</ele><time>2026-04-29T10:29:52.096Z</time></trkpt><trkpt lat="40.21746833551412" lon="8.588289248249446"><ele>393.0</ele><time>2026-04-29T10:29:54.096Z</time></trkpt><trkpt lat="40.217529067019754" lon="8.58842882648404"><ele>393.0</ele><time>2026-04-29T10:29:56.096Z</time></trkpt><trkpt lat="40.21758722652447" lon="8.588556526043162"><ele>393.0</ele><time>2026-04-29T10:29:58.096Z</time></trkpt><trkpt lat="40.217644808460285" lon="8.588688627756426"><ele>393.0</ele><time>2026-04-29T10:30:00.096Z</time></trkpt><trkpt lat="40.21770254437321" lon="8.588816221325683"><ele>393.0</ele><time>2026-04-29T10:30:02.096Z</time></trkpt><trkpt lat="40.217753102403705" lon="8.588937964761872"><ele>393.0</ele><time>2026-04-29T10:30:04.096Z</time></trkpt><trkpt lat="40.21781001850081" lon="8.589056570446402"><ele>394.59999999999997</ele><time>2026-04-29T10:30:06.096Z</time></trkpt><trkpt lat="40.21785674346532" lon="8.589188051680008"><ele>396.2</ele><time>2026-04-29T10:30:08.096Z</time></trkpt><trkpt lat="40.21790872624731" lon="8.58931663565989"><ele>397.8</ele><time>2026-04-29T10:30:10.096Z</time></trkpt><trkpt lat="40.21796388559608" lon="8.589434689595103"><ele>399.4</ele><time>2026-04-29T10:30:12.096Z</time></trkpt><trkpt lat="40.21803048316171" lon="8.589549315814276"><ele>401.0</ele><time>2026-04-29T10:30:14.096Z</time></trkpt><trkpt lat="40.21813011535397" lon="8.589620312895002"><ele>402.0</ele><time>2026-04-29T10:30:16.096Z</time></trkpt><trkpt lat="40.21823517877293" lon="8.589656284693516"><ele>403.0</ele><time>2026-04-29T10:30:18.096Z</time></trkpt><trkpt lat="40.21834927211568" lon="8.589667671339841"><ele>404.0</ele><time>2026-04-29T10:30:20.096Z</time></trkpt><trkpt lat="40.218460764981806" lon="8.589629980084837"><ele>405.0</ele><time>2026-04-29T10:30:22.096Z</time></trkpt><trkpt lat="40.21856579429366" lon="8.589600074109928"><ele>406.0</ele><time>2026-04-29T10:30:24.096Z</time></trkpt><trkpt lat="40.21867646487928" lon="8.589547241066764"><ele>405.6</ele><time>2026-04-29T10:30:26.096Z</time></trkpt><trkpt lat="40.218779916736274" lon="8.589507284695278"><ele>405.20000000000005</ele><time>2026-04-29T10:30:28.096Z</time></trkpt><trkpt lat="40.21888676388251" lon="8.589469821937485"><ele>404.79999999999995</ele><time>2026-04-29T10:30:30.096Z</time></trkpt><trkpt lat="40.21898911380271" lon="8.589421465839255"><ele>404.4</ele><time>2026-04-29T10:30:32.096Z</time></trkpt><trkpt lat="40.219090888290275" lon="8.589355976854627"><ele>404.0</ele><time>2026-04-29T10:30:34.096Z</time></trkpt><trkpt lat="40.219182461465465" lon="8.58926148126243"><ele>404.0</ele><time>2026-04-29T10:30:36.096Z</time></trkpt><trkpt lat="40.2192565915734" lon="8.589144836021205"><ele>404.0</ele><time>2026-04-29T10:30:38.096Z</time></trkpt><trkpt lat="40.21932858196474" lon="8.58901689731447"><ele>404.0</ele><time>2026-04-29T10:30:40.096Z</time></trkpt><trkpt lat="40.219368089271704" lon="8.588951419360695"><ele>404.0</ele><time>2026-04-29T10:30:41.096Z</time></trkpt><trkpt lat="40.21942951206202" lon="8.58882125243064"><ele>404.0</ele><time>2026-04-29T10:30:43.096Z</time></trkpt><trkpt lat="40.21946389178344" lon="8.588678476257904"><ele>404.16666666666663</ele><time>2026-04-29T10:30:45.096Z</time></trkpt><trkpt lat="40.219467682333814" lon="8.588525416803423"><ele>404.3333333333333</ele><time>2026-04-29T10:30:47.096Z</time></trkpt><trkpt lat="40.21945454419787" lon="8.58837443273086"><ele>404.5</ele><time>2026-04-29T10:30:49.096Z</time></trkpt><trkpt lat="40.21942903354167" lon="8.588298550687204"><ele>404.66666666666663</ele><time>2026-04-29T10:30:50.096Z</time></trkpt><trkpt lat="40.21940013396081" lon="8.588220786224324"><ele>404.8333333333333</ele><time>2026-04-29T10:30:51.096Z</time></trkpt><trkpt lat="40.21938963377582" lon="8.588129412953338"><ele>405.0</ele><time>2026-04-29T10:30:52.096Z</time></trkpt><trkpt lat="40.21936429051989" lon="8.588044268060573"><ele>405.0</ele><time>2026-04-29T10:30:53.096Z</time></trkpt><trkpt lat="40.21933933513306" lon="8.587966472689441"><ele>405.0</ele><time>2026-04-29T10:30:54.096Z</time></trkpt><trkpt lat="40.21930275195773" lon="8.587832778832468"><ele>405.0</ele><time>2026-04-29T10:30:56.096Z</time></trkpt><trkpt lat="40.21927382876846" lon="8.587722885973074"><ele>405.0</ele><time>2026-04-29T10:30:58.096Z</time></trkpt><trkpt lat="40.21924402572682" lon="8.587637225995277"><ele>405.0</ele><time>2026-04-29T10:31:00.096Z</time></trkpt><trkpt lat="40.219220691022" lon="8.587552319940105"><ele>405.0</ele><time>2026-04-29T10:31:02.096Z</time></trkpt><trkpt lat="40.219202274881134" lon="8.587465320302355"><ele>405.1666666666667</ele><time>2026-04-29T10:31:04.096Z</time></trkpt><trkpt lat="40.219205461276374" lon="8.58736095484036"><ele>405.33333333333337</ele><time>2026-04-29T10:31:07.096Z</time></trkpt><trkpt lat="40.21919128647244" lon="8.587210258774649"><ele>405.5</ele><time>2026-04-29T10:31:33.097Z</time></trkpt><trkpt lat="40.219186935009326" lon="8.587117737418918"><ele>405.6666666666667</ele><time>2026-04-29T10:31:34.097Z</time></trkpt><trkpt lat="40.21917774494135" lon="8.587005944433214"><ele>405.83333333333337</ele><time>2026-04-29T10:31:35.097Z</time></trkpt><trkpt lat="40.21917315200855" lon="8.586882627103677"><ele>406.0</ele><time>2026-04-29T10:31:36.097Z</time></trkpt><trkpt lat="40.219166532788186" lon="8.586762047757176"><ele>406.0</ele><time>2026-04-29T10:31:37.097Z</time></trkpt><trkpt lat="40.21916024545014" lon="8.586642379950478"><ele>406.0</ele><time>2026-04-29T10:31:38.097Z</time></trkpt><trkpt lat="40.21917699483075" lon="8.586528434132793"><ele>406.0</ele><time>2026-04-29T10:31:39.097Z</time></trkpt><trkpt lat="40.21921104976013" lon="8.586412112591566"><ele>406.0</ele><time>2026-04-29T10:31:40.097Z</time></trkpt><trkpt lat="40.21926490956757" lon="8.58630022105891"><ele>406.0</ele><time>2026-04-29T10:31:41.097Z</time></trkpt><trkpt lat="40.219332352550815" lon="8.586192266969258"><ele>405.20000000000005</ele><time>2026-04-29T10:31:42.097Z</time></trkpt><trkpt lat="40.219406398445514" lon="8.58609047059728"><ele>404.40000000000003</ele><time>2026-04-29T10:31:43.097Z</time></trkpt><trkpt lat="40.21948051969158" lon="8.585989351753744"><ele>403.6</ele><time>2026-04-29T10:31:44.097Z</time></trkpt><trkpt lat="40.21955809085771" lon="8.585885561727569"><ele>402.8</ele><time>2026-04-29T10:31:45.097Z</time></trkpt><trkpt lat="40.219639067164344" lon="8.585783784679094"><ele>402.0</ele><time>2026-04-29T10:31:46.097Z</time></trkpt><trkpt lat="40.21972635409388" lon="8.585699304732668"><ele>404.75</ele><time>2026-04-29T10:31:47.097Z</time></trkpt><trkpt lat="40.219830665164444" lon="8.585651656859358"><ele>407.5</ele><time>2026-04-29T10:31:48.097Z</time></trkpt><trkpt lat="40.219942005814076" lon="8.58563797142364"><ele>410.25</ele><time>2026-04-29T10:31:49.097Z</time></trkpt><trkpt lat="40.22005792720099" lon="8.585674949437859"><ele>413.0</ele><time>2026-04-29T10:31:50.097Z</time></trkpt><trkpt lat="40.22017495110771" lon="8.585725456758174"><ele>413.0</ele><time>2026-04-29T10:31:51.097Z</time></trkpt><trkpt lat="40.22028536351488" lon="8.585764700483999"><ele>413.0</ele><time>2026-04-29T10:31:52.097Z</time></trkpt><trkpt lat="40.22040868894443" lon="8.585795121179887"><ele>413.0</ele><time>2026-04-29T10:31:53.097Z</time></trkpt><trkpt lat="40.22052454548885" lon="8.585831342953911"><ele>413.0</ele><time>2026-04-29T10:31:54.097Z</time></trkpt><trkpt lat="40.220642134910605" lon="8.58586679442309"><ele>413.0</ele><time>2026-04-29T10:31:55.097Z</time></trkpt><trkpt lat="40.22076160580803" lon="8.585904199912614"><ele>413.0</ele><time>2026-04-29T10:31:56.097Z</time></trkpt><trkpt lat="40.220884309918574" lon="8.58594155004995"><ele>413.0</ele><time>2026-04-29T10:31:57.097Z</time></trkpt><trkpt lat="40.2210136363212" lon="8.585981190772692"><ele>413.0</ele><time>2026-04-29T10:31:58.097Z</time></trkpt><trkpt lat="40.22114551951296" lon="8.586021585082664"><ele>413.0</ele><time>2026-04-29T10:31:59.097Z</time></trkpt><trkpt lat="40.22128167992984" lon="8.586063050955337"><ele>413.0</ele><time>2026-04-29T10:32:00.097Z</time></trkpt><trkpt lat="40.221421987649585" lon="8.586106356978505"><ele>413.0</ele><time>2026-04-29T10:32:01.097Z</time></trkpt><trkpt lat="40.2215660589166" lon="8.586153600079392"><ele>413.0</ele><time>2026-04-29T10:32:02.097Z</time></trkpt><trkpt lat="40.221712753042105" lon="8.586208067478806"><ele>414.0</ele><time>2026-04-29T10:32:03.097Z</time></trkpt><trkpt lat="40.2218670007861" lon="8.5862639007975"><ele>415.0</ele><time>2026-04-29T10:32:04.097Z</time></trkpt><trkpt lat="40.22202639907411" lon="8.58631157413906"><ele>416.0</ele><time>2026-04-29T10:32:05.097Z</time></trkpt><trkpt lat="40.22219444068061" lon="8.58635402589368"><ele>415.0</ele><time>2026-04-29T10:32:06.097Z</time></trkpt><trkpt lat="40.222369015382135" lon="8.586410806162332"><ele>414.0</ele><time>2026-04-29T10:32:07.097Z</time></trkpt><trkpt lat="40.22254107716347" lon="8.586467696064531"><ele>413.0</ele><time>2026-04-29T10:32:08.097Z</time></trkpt><trkpt lat="40.222719392520354" lon="8.58652110417279"><ele>413.0</ele><time>2026-04-29T10:32:09.097Z</time></trkpt><trkpt lat="40.222898224186835" lon="8.586565599613767"><ele>413.0</ele><time>2026-04-29T10:32:10.097Z</time></trkpt><trkpt lat="40.22307936282012" lon="8.586590060170533"><ele>413.0</ele><time>2026-04-29T10:32:11.097Z</time></trkpt><trkpt lat="40.223263360805795" lon="8.586576136494648"><ele>413.3333333333333</ele><time>2026-04-29T10:32:12.097Z</time></trkpt><trkpt lat="40.22345031144711" lon="8.58654864894547"><ele>413.66666666666663</ele><time>2026-04-29T10:32:13.097Z</time></trkpt><trkpt lat="40.22363951274114" lon="8.586526171366833"><ele>414.0</ele><time>2026-04-29T10:32:14.097Z</time></trkpt><trkpt lat="40.22381944577122" lon="8.586517127114062"><ele>413.33333333333337</ele><time>2026-04-29T10:32:15.097Z</time></trkpt><trkpt lat="40.223986719784754" lon="8.586532722407215"><ele>412.6666666666667</ele><time>2026-04-29T10:32:16.097Z</time></trkpt><trkpt lat="40.22412562996314" lon="8.586598749557368"><ele>412.0</ele><time>2026-04-29T10:32:17.097Z</time></trkpt><trkpt lat="40.22425112351404" lon="8.586732254355242"><ele>412.0</ele><time>2026-04-29T10:32:18.097Z</time></trkpt><trkpt lat="40.224368347811506" lon="8.586907757505736"><ele>412.0</ele><time>2026-04-29T10:32:19.097Z</time></trkpt><trkpt lat="40.22449239126803" lon="8.587082185112001"><ele>412.0</ele><time>2026-04-29T10:32:20.097Z</time></trkpt><trkpt lat="40.22463790267399" lon="8.587249066150568"><ele>413.0</ele><time>2026-04-29T10:32:21.097Z</time></trkpt><trkpt lat="40.224786726277195" lon="8.587414790232257"><ele>414.0</ele><time>2026-04-29T10:32:22.097Z</time></trkpt><trkpt lat="40.22493364516224" lon="8.587587543072543"><ele>415.0</ele><time>2026-04-29T10:32:23.097Z</time></trkpt><trkpt lat="40.22506222944674" lon="8.587748315358096"><ele>413.33333333333337</ele><time>2026-04-29T10:32:24.097Z</time></trkpt><trkpt lat="40.225184752937096" lon="8.587871635213133"><ele>411.66666666666663</ele><time>2026-04-29T10:32:25.097Z</time></trkpt><trkpt lat="40.22532945891143" lon="8.58793393692657"><ele>410.0</ele><time>2026-04-29T10:32:26.097Z</time></trkpt><trkpt lat="40.22549111300873" lon="8.587928045189056"><ele>407.66666666666663</ele><time>2026-04-29T10:32:27.097Z</time></trkpt><trkpt lat="40.22566312720809" lon="8.587865498516255"><ele>405.33333333333337</ele><time>2026-04-29T10:32:28.097Z</time></trkpt><trkpt lat="40.225847573866204" lon="8.587793442906342"><ele>403.0</ele><time>2026-04-29T10:32:29.097Z</time></trkpt><trkpt lat="40.22604873227536" lon="8.587732437207642"><ele>402.33333333333337</ele><time>2026-04-29T10:32:30.097Z</time></trkpt><trkpt lat="40.2262501814828" lon="8.587681655421926"><ele>401.66666666666663</ele><time>2026-04-29T10:32:31.097Z</time></trkpt><trkpt lat="40.22644023117558" lon="8.587625566221757"><ele>401.0</ele><time>2026-04-29T10:32:32.097Z</time></trkpt><trkpt lat="40.22664949930256" lon="8.587572399345902"><ele>399.66666666666663</ele><time>2026-04-29T10:32:33.097Z</time></trkpt><trkpt lat="40.22686544060278" lon="8.587517184300967"><ele>398.33333333333337</ele><time>2026-04-29T10:32:34.097Z</time></trkpt><trkpt lat="40.22708379905141" lon="8.587459056396563"><ele>397.0</ele><time>2026-04-29T10:32:35.097Z</time></trkpt><trkpt lat="40.227303487287436" lon="8.587396011823127"><ele>398.0</ele><time>2026-04-29T10:32:36.097Z</time></trkpt><trkpt lat="40.22752416377342" lon="8.587330185490067"><ele>399.0</ele><time>2026-04-29T10:32:37.097Z</time></trkpt><trkpt lat="40.227748876769965" lon="8.587271779361256"><ele>399.0</ele><time>2026-04-29T10:32:38.097Z</time></trkpt><trkpt lat="40.22797547727408" lon="8.587213220374302"><ele>399.0</ele><time>2026-04-29T10:32:39.097Z</time></trkpt><trkpt lat="40.22819985337314" lon="8.587147808280811"><ele>398.33333333333337</ele><time>2026-04-29T10:32:40.097Z</time></trkpt><trkpt lat="40.228419341684734" lon="8.587088628951406"><ele>397.6666666666667</ele><time>2026-04-29T10:32:41.097Z</time></trkpt><trkpt lat="40.22862662593331" lon="8.587032598053383"><ele>397.0</ele><time>2026-04-29T10:32:42.097Z</time></trkpt><trkpt lat="40.22883257932276" lon="8.586983624030434"><ele>395.0</ele><time>2026-04-29T10:32:43.097Z</time></trkpt><trkpt lat="40.22904203928988" lon="8.586932424092495"><ele>393.0</ele><time>2026-04-29T10:32:44.097Z</time></trkpt><trkpt lat="40.22924624190137" lon="8.586872950305935"><ele>391.0</ele><time>2026-04-29T10:32:45.097Z</time></trkpt><trkpt lat="40.22945060207252" lon="8.586819558831674"><ele>391.0</ele><time>2026-04-29T10:32:46.097Z</time></trkpt><trkpt lat="40.229649501491096" lon="8.58676378648643"><ele>391.0</ele><time>2026-04-29T10:32:47.097Z</time></trkpt><trkpt lat="40.22984532104892" lon="8.586704102508943"><ele>391.0</ele><time>2026-04-29T10:32:48.097Z</time></trkpt><trkpt lat="40.23003937627287" lon="8.586651665289992"><ele>391.33333333333337</ele><time>2026-04-29T10:32:49.097Z</time></trkpt><trkpt lat="40.23023693799464" lon="8.586595602791393"><ele>391.66666666666663</ele><time>2026-04-29T10:32:50.097Z</time></trkpt><trkpt lat="40.230434480434724" lon="8.586540299361904"><ele>392.0</ele><time>2026-04-29T10:32:51.097Z</time></trkpt><trkpt lat="40.23062496013579" lon="8.586488259862701"><ele>392.0</ele><time>2026-04-29T10:32:52.097Z</time></trkpt><trkpt lat="40.23080044992353" lon="8.586440831496017"><ele>392.0</ele><time>2026-04-29T10:32:53.097Z</time></trkpt><trkpt lat="40.230962048238844" lon="8.586396106239619"><ele>392.0</ele><time>2026-04-29T10:32:54.097Z</time></trkpt><trkpt lat="40.231110756041446" lon="8.58635617489144"><ele>392.0</ele><time>2026-04-29T10:32:55.097Z</time></trkpt><trkpt lat="40.23125435249778" lon="8.586329422376675"><ele>392.0</ele><time>2026-04-29T10:32:56.097Z</time></trkpt><trkpt lat="40.23139921507367" lon="8.586331984135802"><ele>392.0</ele><time>2026-04-29T10:32:57.097Z</time></trkpt><trkpt lat="40.23154982098005" lon="8.586370520059637"><ele>392.0</ele><time>2026-04-29T10:32:58.097Z</time></trkpt><trkpt lat="40.231708408050785" lon="8.58642733130647"><ele>392.0</ele><time>2026-04-29T10:32:59.097Z</time></trkpt><trkpt lat="40.231879647184236" lon="8.586488506216375"><ele>392.0</ele><time>2026-04-29T10:33:00.097Z</time></trkpt><trkpt lat="40.23205703135569" lon="8.586539941504249"><ele>392.0</ele><time>2026-04-29T10:33:01.097Z</time></trkpt><trkpt lat="40.23223636863295" lon="8.586592720802189"><ele>391.66666666666663</ele><time>2026-04-29T10:33:02.097Z</time></trkpt><trkpt lat="40.232420661271306" lon="8.586642587209191"><ele>391.33333333333337</ele><time>2026-04-29T10:33:03.097Z</time></trkpt><trkpt lat="40.232608837652734" lon="8.586698648899365"><ele>391.0</ele><time>2026-04-29T10:33:04.097Z</time></trkpt><trkpt lat="40.23278816351771" lon="8.586771198145458"><ele>391.0</ele><time>2026-04-29T10:33:05.097Z</time></trkpt><trkpt lat="40.23294976047568" lon="8.586859562698764"><ele>391.0</ele><time>2026-04-29T10:33:06.097Z</time></trkpt><trkpt lat="40.23309907361668" lon="8.586969920481792"><ele>391.0</ele><time>2026-04-29T10:33:07.097Z</time></trkpt><trkpt lat="40.23323605434105" lon="8.587110119296966"><ele>388.0</ele><time>2026-04-29T10:33:08.097Z</time></trkpt><trkpt lat="40.233358350712464" lon="8.587279739754479"><ele>385.0</ele><time>2026-04-29T10:33:09.097Z</time></trkpt><trkpt lat="40.233470494596915" lon="8.587474526797193"><ele>382.0</ele><time>2026-04-29T10:33:10.097Z</time></trkpt><trkpt lat="40.23355909247974" lon="8.587686283089504"><ele>381.66666666666663</ele><time>2026-04-29T10:33:11.097Z</time></trkpt><trkpt lat="40.23362660931311" lon="8.587912484975126"><ele>381.3333333333333</ele><time>2026-04-29T10:33:12.097Z</time></trkpt><trkpt lat="40.233680241545315" lon="8.588155042429438"><ele>381.0</ele><time>2026-04-29T10:33:13.097Z</time></trkpt><trkpt lat="40.2337355629257" lon="8.58839093149291"><ele>381.0</ele><time>2026-04-29T10:33:14.097Z</time></trkpt><trkpt lat="40.23379336146338" lon="8.58860633072188"><ele>381.0</ele><time>2026-04-29T10:33:15.097Z</time></trkpt><trkpt lat="40.23383510908322" lon="8.588812355506015"><ele>381.0</ele><time>2026-04-29T10:33:16.097Z</time></trkpt><trkpt lat="40.23384152004193" lon="8.589018922605286"><ele>381.25</ele><time>2026-04-29T10:33:17.097Z</time></trkpt><trkpt lat="40.23381180722859" lon="8.589223727839464"><ele>381.5</ele><time>2026-04-29T10:33:18.097Z</time></trkpt><trkpt lat="40.233772882442246" lon="8.589411301792357"><ele>381.75</ele><time>2026-04-29T10:33:19.097Z</time></trkpt><trkpt lat="40.233780574259335" lon="8.589586518981388"><ele>382.0</ele><time>2026-04-29T10:33:20.097Z</time></trkpt><trkpt lat="40.233837478354715" lon="8.58972690280242"><ele>382.0</ele><time>2026-04-29T10:33:21.097Z</time></trkpt><trkpt lat="40.23393230779128" lon="8.589835208932437"><ele>382.0</ele><time>2026-04-29T10:33:22.097Z</time></trkpt><trkpt lat="40.23405027195801" lon="8.589913807907857"><ele>382.0</ele><time>2026-04-29T10:33:23.097Z</time></trkpt><trkpt lat="40.23417333927918" lon="8.589957210284442"><ele>382.0</ele><time>2026-04-29T10:33:24.099Z</time></trkpt><trkpt lat="40.234309669121" lon="8.589919681391104"><ele>378.3333333333333</ele><time>2026-04-29T10:33:25.098Z</time></trkpt><trkpt lat="40.234437212401545" lon="8.589817248441133"><ele>374.6666666666667</ele><time>2026-04-29T10:33:26.098Z</time></trkpt><trkpt lat="40.23453859836651" lon="8.589666853653952"><ele>371.0</ele><time>2026-04-29T10:33:27.098Z</time></trkpt><trkpt lat="40.234621830715135" lon="8.589468361394799"><ele>370.0</ele><time>2026-04-29T10:33:28.098Z</time></trkpt><trkpt lat="40.23468599388564" lon="8.589244263085876"><ele>369.0</ele><time>2026-04-29T10:33:29.098Z</time></trkpt><trkpt lat="40.23474822469451" lon="8.589015157915567"><ele>368.0</ele><time>2026-04-29T10:33:30.098Z</time></trkpt><trkpt lat="40.23481108799231" lon="8.588790542773534"><ele>371.6666666666667</ele><time>2026-04-29T10:33:31.099Z</time></trkpt><trkpt lat="40.23485278875876" lon="8.58856201389633"><ele>375.3333333333333</ele><time>2026-04-29T10:33:32.099Z</time></trkpt><trkpt lat="40.23487951695436" lon="8.588328318600936"><ele>379.0</ele><time>2026-04-29T10:33:33.099Z</time></trkpt><trkpt lat="40.2348988294434" lon="8.588102294837926"><ele>379.0</ele><time>2026-04-29T10:33:34.098Z</time></trkpt><trkpt lat="40.234914930500736" lon="8.587900718287496"><ele>379.0</ele><time>2026-04-29T10:33:35.098Z</time></trkpt><trkpt lat="40.234927218057614" lon="8.587710586456533"><ele>379.0</ele><time>2026-04-29T10:33:36.099Z</time></trkpt><trkpt lat="40.23496580777609" lon="8.587527754478192"><ele>379.0</ele><time>2026-04-29T10:33:37.098Z</time></trkpt><trkpt lat="40.23505415847037" lon="8.58737365863005"><ele>377.66666666666663</ele><time>2026-04-29T10:33:38.098Z</time></trkpt><trkpt lat="40.235181806841666" lon="8.587252117722487"><ele>376.3333333333333</ele><time>2026-04-29T10:33:39.098Z</time></trkpt><trkpt lat="40.23533571128575" lon="8.587152430442988"><ele>375.0</ele><time>2026-04-29T10:33:40.098Z</time></trkpt><trkpt lat="40.23549304424287" lon="8.58704628923034"><ele>375.3333333333333</ele><time>2026-04-29T10:33:41.098Z</time></trkpt><trkpt lat="40.23565676322698" lon="8.586929621359248"><ele>375.66666666666663</ele><time>2026-04-29T10:33:42.098Z</time></trkpt><trkpt lat="40.23582670222533" lon="8.586812685992703"><ele>376.0</ele><time>2026-04-29T10:33:43.098Z</time></trkpt><trkpt lat="40.2359987998302" lon="8.586687210755075"><ele>376.0</ele><time>2026-04-29T10:33:44.098Z</time></trkpt><trkpt lat="40.23616856898213" lon="8.586563010090865"><ele>376.0</ele><time>2026-04-29T10:33:45.098Z</time></trkpt><trkpt lat="40.236333292124435" lon="8.586441172473245"><ele>376.0</ele><time>2026-04-29T10:33:46.098Z</time></trkpt><trkpt lat="40.23649693777898" lon="8.58631129046685"><ele>378.3333333333333</ele><time>2026-04-29T10:33:47.098Z</time></trkpt><trkpt lat="40.23667093392108" lon="8.586192475538505"><ele>380.6666666666667</ele><time>2026-04-29T10:33:48.098Z</time></trkpt><trkpt lat="40.23685209155651" lon="8.586077563364062"><ele>383.0</ele><time>2026-04-29T10:33:49.098Z</time></trkpt><trkpt lat="40.23704539007419" lon="8.58596937568123"><ele>383.0</ele><time>2026-04-29T10:33:50.098Z</time></trkpt><trkpt lat="40.237245437593415" lon="8.585859288170974"><ele>383.0</ele><time>2026-04-29T10:33:51.098Z</time></trkpt><trkpt lat="40.23745348214396" lon="8.585746512321197"><ele>383.0</ele><time>2026-04-29T10:33:52.098Z</time></trkpt><trkpt lat="40.23766582300792" lon="8.585626385486627"><ele>385.0</ele><time>2026-04-29T10:33:53.098Z</time></trkpt><trkpt lat="40.237883308803454" lon="8.585503136873916"><ele>387.0</ele><time>2026-04-29T10:33:54.098Z</time></trkpt><trkpt lat="40.23810454089798" lon="8.585383059158952"><ele>387.5</ele><time>2026-04-29T10:33:55.098Z</time></trkpt><trkpt lat="40.238332395468575" lon="8.585260922388246"><ele>388.0</ele><time>2026-04-29T10:33:56.098Z</time></trkpt><trkpt lat="40.23855964723787" lon="8.585140640031431"><ele>388.0</ele><time>2026-04-29T10:33:57.098Z</time></trkpt><trkpt lat="40.23878703956122" lon="8.585017509509589"><ele>388.0</ele><time>2026-04-29T10:33:58.098Z</time></trkpt><trkpt lat="40.239012363904976" lon="8.584894167496387"><ele>387.0</ele><time>2026-04-29T10:33:59.098Z</time></trkpt><trkpt lat="40.239238106440254" lon="8.584772181099616"><ele>386.0</ele><time>2026-04-29T10:34:00.098Z</time></trkpt><trkpt lat="40.239463659118286" lon="8.584648345527214"><ele>386.0</ele><time>2026-04-29T10:34:01.098Z</time></trkpt><trkpt lat="40.23968942686262" lon="8.584525900633343"><ele>386.0</ele><time>2026-04-29T10:34:02.098Z</time></trkpt><trkpt lat="40.23991495106692" lon="8.58440536289112"><ele>385.5</ele><time>2026-04-29T10:34:03.098Z</time></trkpt><trkpt lat="40.240138444226176" lon="8.584286145681412"><ele>385.0</ele><time>2026-04-29T10:34:04.098Z</time></trkpt><trkpt lat="40.24035895612" lon="8.584163796147005"><ele>385.0</ele><time>2026-04-29T10:34:05.098Z</time></trkpt><trkpt lat="40.24057899270016" lon="8.584041372317246"><ele>385.0</ele><time>2026-04-29T10:34:06.098Z</time></trkpt><trkpt lat="40.240802022958974" lon="8.583920710542605"><ele>385.0</ele><time>2026-04-29T10:34:07.098Z</time></trkpt><trkpt lat="40.24102277502731" lon="8.58380028034605"><ele>385.0</ele><time>2026-04-29T10:34:08.098Z</time></trkpt><trkpt lat="40.24124551288862" lon="8.583678472810607"><ele>385.0</ele><time>2026-04-29T10:34:09.098Z</time></trkpt><trkpt lat="40.2414699871386" lon="8.583554818539518"><ele>385.0</ele><time>2026-04-29T10:34:10.098Z</time></trkpt><trkpt lat="40.241697547129675" lon="8.583430553172764"><ele>385.0</ele><time>2026-04-29T10:34:11.098Z</time></trkpt><trkpt lat="40.241926760534575" lon="8.583305403254199"><ele>385.0</ele><time>2026-04-29T10:34:12.098Z</time></trkpt><trkpt lat="40.24215725617796" lon="8.583179062279104"><ele>386.0</ele><time>2026-04-29T10:34:13.098Z</time></trkpt><trkpt lat="40.24238869528528" lon="8.583056818269455"><ele>387.0</ele><time>2026-04-29T10:34:14.098Z</time></trkpt><trkpt lat="40.242617193808464" lon="8.58293638767195"><ele>386.5</ele><time>2026-04-29T10:34:15.098Z</time></trkpt><trkpt lat="40.242842960816375" lon="8.58281236567947"><ele>386.0</ele><time>2026-04-29T10:34:16.098Z</time></trkpt><trkpt lat="40.24306858680071" lon="8.58268923429704"><ele>388.5</ele><time>2026-04-29T10:34:17.098Z</time></trkpt><trkpt lat="40.2432927184867" lon="8.58256973573726"><ele>391.0</ele><time>2026-04-29T10:34:18.098Z</time></trkpt><trkpt lat="40.24351655112664" lon="8.582448700248882"><ele>391.0</ele><time>2026-04-29T10:34:19.098Z</time></trkpt><trkpt lat="40.243740366704216" lon="8.582326914315495"><ele>391.0</ele><time>2026-04-29T10:34:20.098Z</time></trkpt><trkpt lat="40.24396231042582" lon="8.58220635349971"><ele>392.5</ele><time>2026-04-29T10:34:21.098Z</time></trkpt><trkpt lat="40.24418592708124" lon="8.582086143584577"><ele>394.0</ele><time>2026-04-29T10:34:22.098Z</time></trkpt><trkpt lat="40.24441144330613" lon="8.581966638786378"><ele>394.0</ele><time>2026-04-29T10:34:23.098Z</time></trkpt><trkpt lat="40.244638205062074" lon="8.581843482053943"><ele>394.0</ele><time>2026-04-29T10:34:24.098Z</time></trkpt><trkpt lat="40.24486514579447" lon="8.581718734439905"><ele>395.5</ele><time>2026-04-29T10:34:25.098Z</time></trkpt><trkpt lat="40.245090240854424" lon="8.581595032447336"><ele>397.0</ele><time>2026-04-29T10:34:26.098Z</time></trkpt><trkpt lat="40.24530857498099" lon="8.581476057457149"><ele>397.0</ele><time>2026-04-29T10:34:27.098Z</time></trkpt><trkpt lat="40.245524880697374" lon="8.581358178740887"><ele>397.0</ele><time>2026-04-29T10:34:28.098Z</time></trkpt><trkpt lat="40.245739951722385" lon="8.581241928994"><ele>398.33333333333337</ele><time>2026-04-29T10:34:29.098Z</time></trkpt><trkpt lat="40.245943304552796" lon="8.581138475570121"><ele>399.66666666666663</ele><time>2026-04-29T10:34:30.098Z</time></trkpt><trkpt lat="40.24613194722807" lon="8.581044215758862"><ele>401.0</ele><time>2026-04-29T10:34:31.098Z</time></trkpt><trkpt lat="40.246305345710134" lon="8.58095484540145"><ele>401.0</ele><time>2026-04-29T10:34:32.098Z</time></trkpt><trkpt lat="40.246454923983165" lon="8.580837779921659"><ele>401.0</ele><time>2026-04-29T10:34:33.098Z</time></trkpt><trkpt lat="40.246579928619326" lon="8.580685519545028"><ele>401.0</ele><time>2026-04-29T10:34:34.098Z</time></trkpt><trkpt lat="40.24668160773647" lon="8.580478290864361"><ele>400.3333333333333</ele><time>2026-04-29T10:34:35.098Z</time></trkpt><trkpt lat="40.24676189633716" lon="8.580237795851847"><ele>399.66666666666663</ele><time>2026-04-29T10:34:36.098Z</time></trkpt><trkpt lat="40.24685546316314" lon="8.579990654151805"><ele>399.0</ele><time>2026-04-29T10:34:37.098Z</time></trkpt><trkpt lat="40.246958373909024" lon="8.57974320532107"><ele>398.0</ele><time>2026-04-29T10:34:38.098Z</time></trkpt><trkpt lat="40.24706472839112" lon="8.579489376707327"><ele>397.0</ele><time>2026-04-29T10:34:39.098Z</time></trkpt><trkpt lat="40.24717384791425" lon="8.579238367198572"><ele>396.0</ele><time>2026-04-29T10:34:40.098Z</time></trkpt><trkpt lat="40.24727588753468" lon="8.57899591510619"><ele>396.33333333333337</ele><time>2026-04-29T10:34:41.098Z</time></trkpt><trkpt lat="40.24737265845326" lon="8.578766681971752"><ele>396.6666666666667</ele><time>2026-04-29T10:34:42.098Z</time></trkpt><trkpt lat="40.247459605775994" lon="8.578539428449382"><ele>397.0</ele><time>2026-04-29T10:34:43.098Z</time></trkpt><trkpt lat="40.24752450565246" lon="8.578301067428315"><ele>396.0</ele><time>2026-04-29T10:34:44.098Z</time></trkpt><trkpt lat="40.24757434203011" lon="8.578066590732334"><ele>395.0</ele><time>2026-04-29T10:34:45.098Z</time></trkpt><trkpt lat="40.24761819498414" lon="8.577849478493784"><ele>394.0</ele><time>2026-04-29T10:34:46.098Z</time></trkpt><trkpt lat="40.24766448352588" lon="8.577652359845183"><ele>393.0</ele><time>2026-04-29T10:34:47.098Z</time></trkpt><trkpt lat="40.24774286784913" lon="8.577488289866544"><ele>392.0</ele><time>2026-04-29T10:34:48.098Z</time></trkpt><trkpt lat="40.247849837618794" lon="8.577381898446097"><ele>391.0</ele><time>2026-04-29T10:34:49.098Z</time></trkpt><trkpt lat="40.24798311035278" lon="8.577316190032672"><ele>390.0</ele><time>2026-04-29T10:34:50.098Z</time></trkpt><trkpt lat="40.24814264235179" lon="8.577287894811922"><ele>389.0</ele><time>2026-04-29T10:34:51.098Z</time></trkpt><trkpt lat="40.248319860113035" lon="8.577262546254657"><ele>388.0</ele><time>2026-04-29T10:34:52.098Z</time></trkpt><trkpt lat="40.248506636308605" lon="8.577231582955191"><ele>387.0</ele><time>2026-04-29T10:34:53.098Z</time></trkpt><trkpt lat="40.248682559781884" lon="8.577201061254353"><ele>387.0</ele><time>2026-04-29T10:34:54.098Z</time></trkpt><trkpt lat="40.24884648020415" lon="8.577207038200253"><ele>387.0</ele><time>2026-04-29T10:34:55.098Z</time></trkpt><trkpt lat="40.24900949979337" lon="8.577271878120396"><ele>387.0</ele><time>2026-04-29T10:34:56.098Z</time></trkpt><trkpt lat="40.24918054504255" lon="8.577362991071851"><ele>385.0</ele><time>2026-04-29T10:34:57.098Z</time></trkpt><trkpt lat="40.24935735679351" lon="8.577464549107312"><ele>383.0</ele><time>2026-04-29T10:34:58.098Z</time></trkpt><trkpt lat="40.24950311959411" lon="8.577590634343839"><ele>381.0</ele><time>2026-04-29T10:34:59.098Z</time></trkpt><trkpt lat="40.24962240653981" lon="8.577748459071687"><ele>382.66666666666663</ele><time>2026-04-29T10:35:00.098Z</time></trkpt><trkpt lat="40.249731419062506" lon="8.577942977769386"><ele>384.3333333333333</ele><time>2026-04-29T10:35:01.098Z</time></trkpt><trkpt lat="40.24980988249076" lon="8.578167802828311"><ele>386.0</ele><time>2026-04-29T10:35:02.098Z</time></trkpt><trkpt lat="40.249872021994946" lon="8.578418138670376"><ele>381.0</ele><time>2026-04-29T10:35:03.098Z</time></trkpt><trkpt lat="40.2499299848556" lon="8.578684042765774"><ele>376.0</ele><time>2026-04-29T10:35:04.098Z</time></trkpt><trkpt lat="40.24996273131102" lon="8.578957313791555"><ele>371.0</ele><time>2026-04-29T10:35:05.098Z</time></trkpt><trkpt lat="40.25000722801715" lon="8.579230298331506"><ele>371.0</ele><time>2026-04-29T10:35:06.098Z</time></trkpt><trkpt lat="40.25005739619994" lon="8.579505086448325"><ele>371.0</ele><time>2026-04-29T10:35:07.098Z</time></trkpt><trkpt lat="40.25010030492528" lon="8.57977398462484"><ele>371.0</ele><time>2026-04-29T10:35:08.098Z</time></trkpt><trkpt lat="40.25014091715706" lon="8.58002870517562"><ele>372.6666666666667</ele><time>2026-04-29T10:35:09.098Z</time></trkpt><trkpt lat="40.25019683212375" lon="8.58026336750459"><ele>374.3333333333333</ele><time>2026-04-29T10:35:10.098Z</time></trkpt><trkpt lat="40.25027765013131" lon="8.580462943342196"><ele>376.0</ele><time>2026-04-29T10:35:11.098Z</time></trkpt><trkpt lat="40.250397678128856" lon="8.580645238901251"><ele>375.3333333333333</ele><time>2026-04-29T10:35:12.098Z</time></trkpt><trkpt lat="40.250532023649825" lon="8.580834869227866"><ele>374.6666666666667</ele><time>2026-04-29T10:35:13.098Z</time></trkpt><trkpt lat="40.2506835224926" lon="8.581027955637762"><ele>374.0</ele><time>2026-04-29T10:35:14.098Z</time></trkpt><trkpt lat="40.250841460034415" lon="8.58121057714282"><ele>374.0</ele><time>2026-04-29T10:35:15.098Z</time></trkpt><trkpt lat="40.25101617160296" lon="8.58136962365819"><ele>374.0</ele><time>2026-04-29T10:35:16.098Z</time></trkpt><trkpt lat="40.25120237018284" lon="8.581498688871442"><ele>374.0</ele><time>2026-04-29T10:35:17.098Z</time></trkpt><trkpt lat="40.25139266419626" lon="8.58162250250327"><ele>372.0</ele><time>2026-04-29T10:35:18.098Z</time></trkpt><trkpt lat="40.251579727084845" lon="8.581757569966765"><ele>370.0</ele><time>2026-04-29T10:35:19.098Z</time></trkpt><trkpt lat="40.251742247478276" lon="8.58191061759608"><ele>368.0</ele><time>2026-04-29T10:35:20.098Z</time></trkpt><trkpt lat="40.25188162326404" lon="8.582087768128472"><ele>368.0</ele><time>2026-04-29T10:35:21.098Z</time></trkpt><trkpt lat="40.25197573429242" lon="8.582290343990813"><ele>368.0</ele><time>2026-04-29T10:35:22.098Z</time></trkpt><trkpt lat="40.25205949106667" lon="8.58251329199766"><ele>368.0</ele><time>2026-04-29T10:35:23.098Z</time></trkpt><trkpt lat="40.252154127658805" lon="8.58275023156685"><ele>371.33333333333337</ele><time>2026-04-29T10:35:24.098Z</time></trkpt><trkpt lat="40.252258902914726" lon="8.58298387398789"><ele>374.6666666666667</ele><time>2026-04-29T10:35:25.098Z</time></trkpt><trkpt lat="40.25239673979689" lon="8.583194120369464"><ele>378.0</ele><time>2026-04-29T10:35:26.098Z</time></trkpt><trkpt lat="40.25254723162771" lon="8.583410105345102"><ele>371.6666666666667</ele><time>2026-04-29T10:35:27.098Z</time></trkpt><trkpt lat="40.25269890654503" lon="8.58363219412653"><ele>365.33333333333337</ele><time>2026-04-29T10:35:28.098Z</time></trkpt><trkpt lat="40.25283081635877" lon="8.5838563708938"><ele>359.0</ele><time>2026-04-29T10:35:29.1Z</time></trkpt><trkpt lat="40.25295596861299" lon="8.584063578636767"><ele>359.0</ele><time>2026-04-29T10:35:30.099Z</time></trkpt><trkpt lat="40.25307869576619" lon="8.584260040639162"><ele>359.0</ele><time>2026-04-29T10:35:31.099Z</time></trkpt><trkpt lat="40.25319362794579" lon="8.584445355520774"><ele>359.0</ele><time>2026-04-29T10:35:32.099Z</time></trkpt><trkpt lat="40.25328363559869" lon="8.584644599923356"><ele>353.6666666666667</ele><time>2026-04-29T10:35:33.099Z</time></trkpt><trkpt lat="40.25333856932314" lon="8.58488258356844"><ele>348.3333333333333</ele><time>2026-04-29T10:35:34.099Z</time></trkpt><trkpt lat="40.253370870422515" lon="8.585121289104046"><ele>343.0</ele><time>2026-04-29T10:35:35.099Z</time></trkpt><trkpt lat="40.25341475286866" lon="8.58533671377242"><ele>343.66666666666663</ele><time>2026-04-29T10:35:36.099Z</time></trkpt><trkpt lat="40.25349288169332" lon="8.585536492093551"><ele>344.3333333333333</ele><time>2026-04-29T10:35:37.099Z</time></trkpt><trkpt lat="40.25358057767258" lon="8.585708488904706"><ele>345.0</ele><time>2026-04-29T10:35:38.099Z</time></trkpt><trkpt lat="40.25370094220615" lon="8.585827648155847"><ele>345.0</ele><time>2026-04-29T10:35:39.099Z</time></trkpt><trkpt lat="40.25386420302296" lon="8.58587688189288"><ele>345.0</ele><time>2026-04-29T10:35:40.099Z</time></trkpt><trkpt lat="40.254032623136666" lon="8.585876710202205"><ele>345.0</ele><time>2026-04-29T10:35:41.1Z</time></trkpt><trkpt lat="40.25418922513749" lon="8.585805603041988"><ele>343.0</ele><time>2026-04-29T10:35:42.099Z</time></trkpt><trkpt lat="40.25431867450985" lon="8.585674572966589"><ele>341.0</ele><time>2026-04-29T10:35:43.099Z</time></trkpt><trkpt lat="40.25441617098912" lon="8.585501000558224"><ele>339.0</ele><time>2026-04-29T10:35:44.099Z</time></trkpt><trkpt lat="40.25447103646708" lon="8.585302018029918"><ele>338.0</ele><time>2026-04-29T10:35:45.099Z</time></trkpt><trkpt lat="40.25450609007761" lon="8.58507916263679"><ele>337.0</ele><time>2026-04-29T10:35:46.099Z</time></trkpt><trkpt lat="40.25455814486159" lon="8.584845767671727"><ele>336.0</ele><time>2026-04-29T10:35:47.099Z</time></trkpt><trkpt lat="40.254634929044606" lon="8.584643411130136"><ele>335.3333333333333</ele><time>2026-04-29T10:35:48.099Z</time></trkpt><trkpt lat="40.25475102033708" lon="8.584472462188566"><ele>334.66666666666663</ele><time>2026-04-29T10:35:49.099Z</time></trkpt><trkpt lat="40.25489893665935" lon="8.584334349801155"><ele>334.0</ele><time>2026-04-29T10:35:50.099Z</time></trkpt><trkpt lat="40.25505249729754" lon="8.584206595452741"><ele>334.3333333333333</ele><time>2026-04-29T10:35:51.099Z</time></trkpt><trkpt lat="40.255205006106195" lon="8.584051637538728"><ele>334.6666666666667</ele><time>2026-04-29T10:35:52.099Z</time></trkpt><trkpt lat="40.25533949341692" lon="8.58387704568823"><ele>335.0</ele><time>2026-04-29T10:35:53.099Z</time></trkpt><trkpt lat="40.25543266400483" lon="8.58366409553661"><ele>335.0</ele><time>2026-04-29T10:35:54.099Z</time></trkpt><trkpt lat="40.25548817613167" lon="8.583423767699555"><ele>335.0</ele><time>2026-04-29T10:35:55.099Z</time></trkpt><trkpt lat="40.25553394082731" lon="8.583179633411275"><ele>335.0</ele><time>2026-04-29T10:35:56.099Z</time></trkpt><trkpt lat="40.25561193033608" lon="8.582942156087617"><ele>336.6666666666667</ele><time>2026-04-29T10:35:57.099Z</time></trkpt><trkpt lat="40.25573113637457" lon="8.582722457336006"><ele>338.3333333333333</ele><time>2026-04-29T10:35:58.099Z</time></trkpt><trkpt lat="40.255868970352374" lon="8.582529038406491"><ele>340.0</ele><time>2026-04-29T10:35:59.099Z</time></trkpt><trkpt lat="40.25600017290665" lon="8.582350458651014"><ele>340.0</ele><time>2026-04-29T10:36:00.099Z</time></trkpt><trkpt lat="40.256135586434915" lon="8.582185992490764"><ele>340.0</ele><time>2026-04-29T10:36:01.099Z</time></trkpt><trkpt lat="40.25629128010996" lon="8.582075204571337"><ele>340.0</ele><time>2026-04-29T10:36:02.099Z</time></trkpt><trkpt lat="40.25646977862541" lon="8.58198970754155"><ele>338.66666666666663</ele><time>2026-04-29T10:36:03.099Z</time></trkpt><trkpt lat="40.25664085972699" lon="8.581928423723298"><ele>337.3333333333333</ele><time>2026-04-29T10:36:04.099Z</time></trkpt><trkpt lat="40.256804851753685" lon="8.581911418203326"><ele>336.0</ele><time>2026-04-29T10:36:05.099Z</time></trkpt><trkpt lat="40.25697488132033" lon="8.581940548950428"><ele>336.0</ele><time>2026-04-29T10:36:06.099Z</time></trkpt><trkpt lat="40.257145561937165" lon="8.581993676481316"><ele>336.0</ele><time>2026-04-29T10:36:07.099Z</time></trkpt><trkpt lat="40.25732841280468" lon="8.582048826823256"><ele>336.0</ele><time>2026-04-29T10:36:08.099Z</time></trkpt><trkpt lat="40.257520395319744" lon="8.582103106549255"><ele>336.0</ele><time>2026-04-29T10:36:09.099Z</time></trkpt><trkpt lat="40.25771361167235" lon="8.582166688693395"><ele>336.0</ele><time>2026-04-29T10:36:10.099Z</time></trkpt><trkpt lat="40.25790382419865" lon="8.58222926392088"><ele>336.0</ele><time>2026-04-29T10:36:11.099Z</time></trkpt><trkpt lat="40.25809463459038" lon="8.582294201930049"><ele>334.0</ele><time>2026-04-29T10:36:12.099Z</time></trkpt><trkpt lat="40.25827275074761" lon="8.582400532848405"><ele>332.0</ele><time>2026-04-29T10:36:13.099Z</time></trkpt><trkpt lat="40.25844061568298" lon="8.582542457542507"><ele>330.0</ele><time>2026-04-29T10:36:14.099Z</time></trkpt><trkpt lat="40.25861126379816" lon="8.582677239275968"><ele>330.0</ele><time>2026-04-29T10:36:15.099Z</time></trkpt><trkpt lat="40.25878151516556" lon="8.582813728632603"><ele>330.0</ele><time>2026-04-29T10:36:16.099Z</time></trkpt><trkpt lat="40.258950292189134" lon="8.5829502844333"><ele>330.0</ele><time>2026-04-29T10:36:17.099Z</time></trkpt><trkpt lat="40.25912223042142" lon="8.583094934770285"><ele>329.0</ele><time>2026-04-29T10:36:18.099Z</time></trkpt><trkpt lat="40.25928302186317" lon="8.583225836594577"><ele>328.0</ele><time>2026-04-29T10:36:19.099Z</time></trkpt><trkpt lat="40.25944043417256" lon="8.58334976879874"><ele>327.0</ele><time>2026-04-29T10:36:20.099Z</time></trkpt><trkpt lat="40.25959634207102" lon="8.583434080535751"><ele>327.0</ele><time>2026-04-29T10:36:21.099Z</time></trkpt><trkpt lat="40.259768201213504" lon="8.583455058466052"><ele>327.0</ele><time>2026-04-29T10:36:22.099Z</time></trkpt><trkpt lat="40.25996097552308" lon="8.583436752799958"><ele>327.0</ele><time>2026-04-29T10:36:23.099Z</time></trkpt><trkpt lat="40.26015581394327" lon="8.583368892132281"><ele>325.3333333333333</ele><time>2026-04-29T10:36:24.099Z</time></trkpt><trkpt lat="40.26033162430277" lon="8.583246856440857"><ele>323.66666666666663</ele><time>2026-04-29T10:36:25.099Z</time></trkpt><trkpt lat="40.26049683384511" lon="8.583088008278176"><ele>322.0</ele><time>2026-04-29T10:36:26.099Z</time></trkpt><trkpt lat="40.260664460065456" lon="8.582933905245762"><ele>322.0</ele><time>2026-04-29T10:36:27.099Z</time></trkpt><trkpt lat="40.26081995176385" lon="8.582784367141125"><ele>322.0</ele><time>2026-04-29T10:36:28.099Z</time></trkpt><trkpt lat="40.260947078689654" lon="8.582608226118584"><ele>322.0</ele><time>2026-04-29T10:36:29.099Z</time></trkpt><trkpt lat="40.261045181564455" lon="8.582405927207324"><ele>322.0</ele><time>2026-04-29T10:36:30.099Z</time></trkpt><trkpt lat="40.261129434485945" lon="8.582197935656836"><ele>322.0</ele><time>2026-04-29T10:36:31.099Z</time></trkpt><trkpt lat="40.26121801661349" lon="8.581998923971767"><ele>322.0</ele><time>2026-04-29T10:36:32.099Z</time></trkpt><trkpt lat="40.26130574817731" lon="8.58182514194321"><ele>322.0</ele><time>2026-04-29T10:36:33.099Z</time></trkpt><trkpt lat="40.26137628677318" lon="8.58166272782224"><ele>322.0</ele><time>2026-04-29T10:36:34.099Z</time></trkpt><trkpt lat="40.26141740952964" lon="8.581492786286733"><ele>322.0</ele><time>2026-04-29T10:36:35.099Z</time></trkpt><trkpt lat="40.26142442475734" lon="8.581325281473765"><ele>322.0</ele><time>2026-04-29T10:36:36.099Z</time></trkpt><trkpt lat="40.261390906509476" lon="8.581159999394787"><ele>322.0</ele><time>2026-04-29T10:36:37.099Z</time></trkpt><trkpt lat="40.26135636319829" lon="8.580998398337176"><ele>322.0</ele><time>2026-04-29T10:36:38.099Z</time></trkpt><trkpt lat="40.26131852674852" lon="8.580841886774047"><ele>322.0</ele><time>2026-04-29T10:36:39.099Z</time></trkpt><trkpt lat="40.261279996133474" lon="8.580690245466403"><ele>322.0</ele><time>2026-04-29T10:36:40.099Z</time></trkpt><trkpt lat="40.26123106029478" lon="8.580543342443997"><ele>322.0</ele><time>2026-04-29T10:36:41.099Z</time></trkpt><trkpt lat="40.261188718676465" lon="8.580397302560781"><ele>322.0</ele><time>2026-04-29T10:36:42.099Z</time></trkpt><trkpt lat="40.261149342355374" lon="8.580249079842037"><ele>322.0</ele><time>2026-04-29T10:36:43.099Z</time></trkpt><trkpt lat="40.26111525222605" lon="8.580099884736626"><ele>322.0</ele><time>2026-04-29T10:36:44.099Z</time></trkpt><trkpt lat="40.26108539681349" lon="8.579957156512238"><ele>323.25</ele><time>2026-04-29T10:36:45.099Z</time></trkpt><trkpt lat="40.261043016446465" lon="8.579814693551036"><ele>324.5</ele><time>2026-04-29T10:36:46.099Z</time></trkpt><trkpt lat="40.26100935645283" lon="8.579666740707053"><ele>325.75</ele><time>2026-04-29T10:36:47.099Z</time></trkpt><trkpt lat="40.2609777602584" lon="8.579520170640594"><ele>327.0</ele><time>2026-04-29T10:36:48.099Z</time></trkpt><trkpt lat="40.26094244258178" lon="8.579379657951883"><ele>327.8</ele><time>2026-04-29T10:36:49.099Z</time></trkpt><trkpt lat="40.2609070095811" lon="8.579240673759283"><ele>328.6</ele><time>2026-04-29T10:36:50.099Z</time></trkpt><trkpt lat="40.260869551359775" lon="8.579106012703969"><ele>329.40000000000003</ele><time>2026-04-29T10:36:51.099Z</time></trkpt><trkpt lat="40.260836901744874" lon="8.578968472263698"><ele>330.20000000000005</ele><time>2026-04-29T10:36:52.099Z</time></trkpt><trkpt lat="40.260815609458724" lon="8.578835327471475"><ele>331.0</ele><time>2026-04-29T10:36:53.099Z</time></trkpt><trkpt lat="40.26080107601224" lon="8.578712162797482"><ele>331.4</ele><time>2026-04-29T10:36:54.099Z</time></trkpt><trkpt lat="40.26080685445698" lon="8.578594131082921"><ele>331.8</ele><time>2026-04-29T10:36:55.099Z</time></trkpt><trkpt lat="40.26083779942013" lon="8.578469701820694"><ele>332.2</ele><time>2026-04-29T10:36:56.099Z</time></trkpt><trkpt lat="40.2608742258272" lon="8.578356195447869"><ele>332.59999999999997</ele><time>2026-04-29T10:36:57.099Z</time></trkpt><trkpt lat="40.26091419935192" lon="8.578252533166172"><ele>333.0</ele><time>2026-04-29T10:36:58.099Z</time></trkpt><trkpt lat="40.26094525751054" lon="8.578151753547067"><ele>333.0</ele><time>2026-04-29T10:36:59.099Z</time></trkpt><trkpt lat="40.26098580828031" lon="8.578067364039862"><ele>333.0</ele><time>2026-04-29T10:37:00.099Z</time></trkpt><trkpt lat="40.261028917597216" lon="8.57797447444791"><ele>333.0</ele><time>2026-04-29T10:37:01.099Z</time></trkpt><trkpt lat="40.2610604548257" lon="8.57787181334246"><ele>333.0</ele><time>2026-04-29T10:37:02.099Z</time></trkpt><trkpt lat="40.261088814759155" lon="8.577772176588937"><ele>333.0</ele><time>2026-04-29T10:37:03.099Z</time></trkpt><trkpt lat="40.261118072552385" lon="8.577672325727159"><ele>333.0</ele><time>2026-04-29T10:37:04.099Z</time></trkpt><trkpt lat="40.261148700174616" lon="8.577576581388145"><ele>331.8333333333333</ele><time>2026-04-29T10:37:05.099Z</time></trkpt><trkpt lat="40.26118044260706" lon="8.577483269239421"><ele>330.6666666666667</ele><time>2026-04-29T10:37:06.099Z</time></trkpt><trkpt lat="40.261213300297854" lon="8.577386956968558"><ele>329.5</ele><time>2026-04-29T10:37:07.099Z</time></trkpt><trkpt lat="40.261248090040645" lon="8.577282924469428"><ele>328.33333333333337</ele><time>2026-04-29T10:37:08.099Z</time></trkpt><trkpt lat="40.26128325569746" lon="8.577189102864812"><ele>327.1666666666667</ele><time>2026-04-29T10:37:09.099Z</time></trkpt><trkpt lat="40.26131239897984" lon="8.5771042582813"><ele>326.0</ele><time>2026-04-29T10:37:10.099Z</time></trkpt><trkpt lat="40.26134723931298" lon="8.577030443652415"><ele>326.8571428571429</ele><time>2026-04-29T10:37:11.099Z</time></trkpt><trkpt lat="40.2613798001717" lon="8.576959747363187"><ele>327.71428571428567</ele><time>2026-04-29T10:37:12.099Z</time></trkpt><trkpt lat="40.26141213055207" lon="8.576878972161804"><ele>328.57142857142856</ele><time>2026-04-29T10:37:13.099Z</time></trkpt><trkpt lat="40.261447654194484" lon="8.576804758834028"><ele>329.42857142857144</ele><time>2026-04-29T10:37:14.099Z</time></trkpt><trkpt lat="40.261453204945" lon="8.576706037924874"><ele>330.28571428571433</ele><time>2026-04-29T10:37:15.099Z</time></trkpt><trkpt lat="40.26144485369955" lon="8.576610514142782"><ele>331.1428571428571</ele><time>2026-04-29T10:37:16.099Z</time></trkpt><trkpt lat="40.26142238045794" lon="8.576511557396664"><ele>332.0</ele><time>2026-04-29T10:37:17.099Z</time></trkpt><trkpt lat="40.26139669921568" lon="8.576414290456418"><ele>329.83333333333337</ele><time>2026-04-29T10:37:18.099Z</time></trkpt><trkpt lat="40.26136083585609" lon="8.576323956323595"><ele>327.6666666666667</ele><time>2026-04-29T10:37:19.099Z</time></trkpt><trkpt lat="40.261322737079524" lon="8.576232896552538"><ele>325.5</ele><time>2026-04-29T10:37:20.099Z</time></trkpt><trkpt lat="40.26129463071616" lon="8.576141749764574"><ele>323.3333333333333</ele><time>2026-04-29T10:37:21.099Z</time></trkpt><trkpt lat="40.26125957169717" lon="8.576043977530679"><ele>321.16666666666663</ele><time>2026-04-29T10:37:22.099Z</time></trkpt><trkpt lat="40.261231809204396" lon="8.575951543950593"><ele>319.0</ele><time>2026-04-29T10:37:23.099Z</time></trkpt><trkpt lat="40.26120941395739" lon="8.575846828656438"><ele>318.5</ele><time>2026-04-29T10:37:24.099Z</time></trkpt><trkpt lat="40.26120045902646" lon="8.575743135739966"><ele>318.0</ele><time>2026-04-29T10:37:25.099Z</time></trkpt><trkpt lat="40.26119262353874" lon="8.575631449171494"><ele>317.5</ele><time>2026-04-29T10:37:26.099Z</time></trkpt><trkpt lat="40.261201993207386" lon="8.575516525470622"><ele>317.0</ele><time>2026-04-29T10:37:27.099Z</time></trkpt><trkpt lat="40.26123649760666" lon="8.575400496478666"><ele>316.5</ele><time>2026-04-29T10:37:28.099Z</time></trkpt><trkpt lat="40.26130444438553" lon="8.57531322978625"><ele>316.0</ele><time>2026-04-29T10:37:29.099Z</time></trkpt><trkpt lat="40.26140010968533" lon="8.57524962497228"><ele>316.0</ele><time>2026-04-29T10:37:30.099Z</time></trkpt><trkpt lat="40.26148913051167" lon="8.575174360807054"><ele>316.0</ele><time>2026-04-29T10:37:31.099Z</time></trkpt><trkpt lat="40.26157845085145" lon="8.575089010620715"><ele>316.0</ele><time>2026-04-29T10:37:32.099Z</time></trkpt><trkpt lat="40.26168317644114" lon="8.575020369897462"><ele>316.0</ele><time>2026-04-29T10:37:33.099Z</time></trkpt><trkpt lat="40.26179328435469" lon="8.5749609675126"><ele>316.0</ele><time>2026-04-29T10:37:34.099Z</time></trkpt><trkpt lat="40.261908941675856" lon="8.574912919991306"><ele>316.0</ele><time>2026-04-29T10:37:35.1Z</time></trkpt><trkpt lat="40.26203089708851" lon="8.57487912789785"><ele>316.0</ele><time>2026-04-29T10:37:36.101Z</time></trkpt><trkpt lat="40.2621468519455" lon="8.574822070422721"><ele>316.0</ele><time>2026-04-29T10:37:37.101Z</time></trkpt><trkpt lat="40.26224447317644" lon="8.574748253128172"><ele>316.25</ele><time>2026-04-29T10:37:38.101Z</time></trkpt><trkpt lat="40.26230457275603" lon="8.574627210939122"><ele>316.5</ele><time>2026-04-29T10:37:39.1Z</time></trkpt><trkpt lat="40.26231313480889" lon="8.574456537268613"><ele>316.75</ele><time>2026-04-29T10:37:40.1Z</time></trkpt><trkpt lat="40.262289501797795" lon="8.574296730714558"><ele>317.0</ele><time>2026-04-29T10:37:41.101Z</time></trkpt><trkpt lat="40.262236286450296" lon="8.574172020993778"><ele>315.0</ele><time>2026-04-29T10:37:42.1Z</time></trkpt><trkpt lat="40.26214208754039" lon="8.57406021527486"><ele>313.0</ele><time>2026-04-29T10:37:43.1Z</time></trkpt><trkpt lat="40.26202305435466" lon="8.573984134884222"><ele>311.0</ele><time>2026-04-29T10:37:44.101Z</time></trkpt><trkpt lat="40.26190785256696" lon="8.573924942268684"><ele>309.0</ele><time>2026-04-29T10:37:45.1Z</time></trkpt><trkpt lat="40.26178170640829" lon="8.573846901554782"><ele>309.0</ele><time>2026-04-29T10:37:46.1Z</time></trkpt><trkpt lat="40.26166104831405" lon="8.573748437516386"><ele>309.0</ele><time>2026-04-29T10:37:47.101Z</time></trkpt><trkpt lat="40.261549436337766" lon="8.573625688764592"><ele>309.0</ele><time>2026-04-29T10:37:48.1Z</time></trkpt><trkpt lat="40.261448302503915" lon="8.57349171039375"><ele>309.0</ele><time>2026-04-29T10:37:49.1Z</time></trkpt><trkpt lat="40.26136959676656" lon="8.573319850635531"><ele>308.3333333333333</ele><time>2026-04-29T10:37:50.1Z</time></trkpt><trkpt lat="40.26131814605401" lon="8.573139900725877"><ele>307.66666666666663</ele><time>2026-04-29T10:37:51.1Z</time></trkpt><trkpt lat="40.26127458425747" lon="8.572940093910198"><ele>307.0</ele><time>2026-04-29T10:37:52.1Z</time></trkpt><trkpt lat="40.26126034081901" lon="8.572734523895928"><ele>307.0</ele><time>2026-04-29T10:37:53.1Z</time></trkpt><trkpt lat="40.26127084506299" lon="8.572519934153155"><ele>307.0</ele><time>2026-04-29T10:37:54.1Z</time></trkpt><trkpt lat="40.26130816426982" lon="8.572305807708014"><ele>307.0</ele><time>2026-04-29T10:37:55.1Z</time></trkpt><trkpt lat="40.26136868422034" lon="8.57209026506758"><ele>307.0</ele><time>2026-04-29T10:37:56.1Z</time></trkpt><trkpt lat="40.26143746379951" lon="8.571868119654235"><ele>307.0</ele><time>2026-04-29T10:37:57.1Z</time></trkpt><trkpt lat="40.261506273950744" lon="8.571637011590605"><ele>307.0</ele><time>2026-04-29T10:37:58.1Z</time></trkpt><trkpt lat="40.26158372492794" lon="8.571395686468543"><ele>311.0</ele><time>2026-04-29T10:37:59.1Z</time></trkpt><trkpt lat="40.26166418024996" lon="8.571158745514591"><ele>315.0</ele><time>2026-04-29T10:38:00.1Z</time></trkpt><trkpt lat="40.26174045841802" lon="8.570933810844286"><ele>319.0</ele><time>2026-04-29T10:38:01.1Z</time></trkpt><trkpt lat="40.261804259940426" lon="8.570722826607419"><ele>319.0</ele><time>2026-04-29T10:38:02.1Z</time></trkpt><trkpt lat="40.261844308500024" lon="8.570509659387987"><ele>319.0</ele><time>2026-04-29T10:38:03.1Z</time></trkpt><trkpt lat="40.261830694541715" lon="8.570308335562503"><ele>319.0</ele><time>2026-04-29T10:38:04.1Z</time></trkpt><trkpt lat="40.26175159965839" lon="8.570114948066935"><ele>319.0</ele><time>2026-04-29T10:38:05.1Z</time></trkpt><trkpt lat="40.26164735923117" lon="8.569913972991062"><ele>319.0</ele><time>2026-04-29T10:38:06.1Z</time></trkpt><trkpt lat="40.2615485484927" lon="8.569690554301891"><ele>319.0</ele><time>2026-04-29T10:38:07.1Z</time></trkpt><trkpt lat="40.26144708530887" lon="8.569460304165274"><ele>316.3333333333333</ele><time>2026-04-29T10:38:08.1Z</time></trkpt><trkpt lat="40.26134722981219" lon="8.569213523395034"><ele>313.6666666666667</ele><time>2026-04-29T10:38:09.1Z</time></trkpt><trkpt lat="40.261242081411446" lon="8.568963466075354"><ele>311.0</ele><time>2026-04-29T10:38:10.1Z</time></trkpt><trkpt lat="40.26117778287809" lon="8.5687053281773"><ele>313.6666666666667</ele><time>2026-04-29T10:38:11.1Z</time></trkpt><trkpt lat="40.26106960654419" lon="8.568454706737302"><ele>316.3333333333333</ele><time>2026-04-29T10:38:12.1Z</time></trkpt><trkpt lat="40.26096004112262" lon="8.568205100861158"><ele>319.0</ele><time>2026-04-29T10:38:13.1Z</time></trkpt><trkpt lat="40.26085536007563" lon="8.567966331765959"><ele>321.3333333333333</ele><time>2026-04-29T10:38:14.1Z</time></trkpt><trkpt lat="40.26075602079875" lon="8.567752163909791"><ele>323.6666666666667</ele><time>2026-04-29T10:38:15.1Z</time></trkpt><trkpt lat="40.26066751594757" lon="8.567555138121007"><ele>326.0</ele><time>2026-04-29T10:38:16.1Z</time></trkpt><trkpt lat="40.26060379525025" lon="8.567364004112894"><ele>321.33333333333337</ele><time>2026-04-29T10:38:17.1Z</time></trkpt><trkpt lat="40.26057586225832" lon="8.56716392607155"><ele>316.6666666666667</ele><time>2026-04-29T10:38:18.1Z</time></trkpt><trkpt lat="40.26057755767765" lon="8.566946629438691"><ele>312.0</ele><time>2026-04-29T10:38:19.1Z</time></trkpt><trkpt lat="40.26061022629064" lon="8.566733265578742"><ele>313.0</ele><time>2026-04-29T10:38:20.1Z</time></trkpt><trkpt lat="40.260670461545" lon="8.566532863056016"><ele>314.0</ele><time>2026-04-29T10:38:21.1Z</time></trkpt><trkpt lat="40.26076205217478" lon="8.566352975982525"><ele>315.0</ele><time>2026-04-29T10:38:22.1Z</time></trkpt><trkpt lat="40.260885082351855" lon="8.566193156702203"><ele>315.0</ele><time>2026-04-29T10:38:23.1Z</time></trkpt><trkpt lat="40.261031968570514" lon="8.566057938919274"><ele>315.0</ele><time>2026-04-29T10:38:24.1Z</time></trkpt><trkpt lat="40.26120061371635" lon="8.565938946055493"><ele>315.0</ele><time>2026-04-29T10:38:25.1Z</time></trkpt><trkpt lat="40.26137896571403" lon="8.565826017781026"><ele>318.0</ele><time>2026-04-29T10:38:26.1Z</time></trkpt><trkpt lat="40.26155554795275" lon="8.565700575699571"><ele>321.0</ele><time>2026-04-29T10:38:27.1Z</time></trkpt><trkpt lat="40.26173190433077" lon="8.565564407304494"><ele>324.0</ele><time>2026-04-29T10:38:28.1Z</time></trkpt><trkpt lat="40.26191482461529" lon="8.565430724170545"><ele>323.3333333333333</ele><time>2026-04-29T10:38:29.1Z</time></trkpt><trkpt lat="40.26209498990013" lon="8.56530071161801"><ele>322.66666666666663</ele><time>2026-04-29T10:38:30.1Z</time></trkpt><trkpt lat="40.262270607230775" lon="8.565167826520705"><ele>322.0</ele><time>2026-04-29T10:38:31.1Z</time></trkpt><trkpt lat="40.26244697541894" lon="8.56505003023502"><ele>322.0</ele><time>2026-04-29T10:38:32.1Z</time></trkpt><trkpt lat="40.26261183762719" lon="8.564944349970128"><ele>322.0</ele><time>2026-04-29T10:38:33.1Z</time></trkpt><trkpt lat="40.26279674184671" lon="8.564865121083832"><ele>322.0</ele><time>2026-04-29T10:38:34.1Z</time></trkpt><trkpt lat="40.26295786655411" lon="8.564790005779555"><ele>322.3333333333333</ele><time>2026-04-29T10:38:35.1Z</time></trkpt><trkpt lat="40.2631373401955" lon="8.564749149453748"><ele>322.6666666666667</ele><time>2026-04-29T10:38:36.1Z</time></trkpt><trkpt lat="40.2633312212361" lon="8.56473544437715"><ele>323.0</ele><time>2026-04-29T10:38:37.1Z</time></trkpt><trkpt lat="40.263532564815215" lon="8.564720477001659"><ele>323.0</ele><time>2026-04-29T10:38:38.1Z</time></trkpt><trkpt lat="40.263734532554565" lon="8.56470588452198"><ele>323.0</ele><time>2026-04-29T10:38:39.1Z</time></trkpt><trkpt lat="40.263945621391144" lon="8.564684465137878"><ele>323.0</ele><time>2026-04-29T10:38:40.1Z</time></trkpt><trkpt lat="40.264156341419714" lon="8.564662382604762"><ele>323.0</ele><time>2026-04-29T10:38:41.1Z</time></trkpt><trkpt lat="40.2643679062137" lon="8.564644563951802"><ele>323.0</ele><time>2026-04-29T10:38:42.1Z</time></trkpt><trkpt lat="40.26456856404457" lon="8.564625237926247"><ele>323.0</ele><time>2026-04-29T10:38:43.1Z</time></trkpt><trkpt lat="40.26475308141367" lon="8.56460648104962"><ele>323.0</ele><time>2026-04-29T10:38:44.1Z</time></trkpt><trkpt lat="40.26490477744105" lon="8.56458562060425"><ele>323.0</ele><time>2026-04-29T10:38:45.1Z</time></trkpt><trkpt lat="40.26502227540558" lon="8.56456540911404"><ele>323.0</ele><time>2026-04-29T10:38:46.1Z</time></trkpt><trkpt lat="40.26511475568063" lon="8.564523086743295"><ele>323.0</ele><time>2026-04-29T10:38:47.1Z</time></trkpt><trkpt lat="40.26518465696983" lon="8.56443893126983"><ele>323.0</ele><time>2026-04-29T10:38:48.1Z</time></trkpt><trkpt lat="40.26523889449529" lon="8.564295558451718"><ele>323.0</ele><time>2026-04-29T10:38:49.1Z</time></trkpt><trkpt lat="40.26527112180322" lon="8.564124201047806"><ele>323.0</ele><time>2026-04-29T10:38:50.1Z</time></trkpt><trkpt lat="40.26530037846302" lon="8.563932484627138"><ele>323.0</ele><time>2026-04-29T10:38:51.1Z</time></trkpt><trkpt lat="40.26532400302156" lon="8.563704165606156"><ele>323.33333333333337</ele><time>2026-04-29T10:38:52.1Z</time></trkpt><trkpt lat="40.26534409526834" lon="8.56347632707833"><ele>323.6666666666667</ele><time>2026-04-29T10:38:53.1Z</time></trkpt><trkpt lat="40.265370584965495" lon="8.56323365585255"><ele>324.0</ele><time>2026-04-29T10:38:54.1Z</time></trkpt><trkpt lat="40.26540257386329" lon="8.562974636181021"><ele>325.0</ele><time>2026-04-29T10:38:55.1Z</time></trkpt><trkpt lat="40.265430890694404" lon="8.562724104767513"><ele>326.0</ele><time>2026-04-29T10:38:56.1Z</time></trkpt><trkpt lat="40.265459569876086" lon="8.562471176228607"><ele>327.0</ele><time>2026-04-29T10:38:57.1Z</time></trkpt><trkpt lat="40.265492817553735" lon="8.56222063497258"><ele>327.6666666666667</ele><time>2026-04-29T10:38:58.1Z</time></trkpt><trkpt lat="40.26552116849124" lon="8.561974556451435"><ele>328.33333333333337</ele><time>2026-04-29T10:38:59.1Z</time></trkpt><trkpt lat="40.2655495323729" lon="8.561745611128803"><ele>329.0</ele><time>2026-04-29T10:39:00.1Z</time></trkpt><trkpt lat="40.26555093326957" lon="8.561532987286428"><ele>329.0</ele><time>2026-04-29T10:39:01.1Z</time></trkpt><trkpt lat="40.26551202729267" lon="8.561310587024014"><ele>329.0</ele><time>2026-04-29T10:39:02.1Z</time></trkpt><trkpt lat="40.26546052172376" lon="8.561076318497104"><ele>329.0</ele><time>2026-04-29T10:39:03.1Z</time></trkpt><trkpt lat="40.26540960967421" lon="8.560824145581718"><ele>329.6666666666667</ele><time>2026-04-29T10:39:04.1Z</time></trkpt><trkpt lat="40.265365184301764" lon="8.560573498259721"><ele>330.3333333333333</ele><time>2026-04-29T10:39:05.1Z</time></trkpt><trkpt lat="40.2653279085048" lon="8.56031272396908"><ele>331.0</ele><time>2026-04-29T10:39:06.1Z</time></trkpt><trkpt lat="40.26530205874655" lon="8.560052984493623"><ele>331.3333333333333</ele><time>2026-04-29T10:39:07.1Z</time></trkpt><trkpt lat="40.26528787667297" lon="8.559801231395014"><ele>331.6666666666667</ele><time>2026-04-29T10:39:08.1Z</time></trkpt><trkpt lat="40.2652861863183" lon="8.559562587069031"><ele>332.0</ele><time>2026-04-29T10:39:09.1Z</time></trkpt><trkpt lat="40.265303779889344" lon="8.55931502268081"><ele>332.33333333333337</ele><time>2026-04-29T10:39:10.1Z</time></trkpt><trkpt lat="40.26533740037495" lon="8.559072876470028"><ele>332.6666666666667</ele><time>2026-04-29T10:39:11.1Z</time></trkpt><trkpt lat="40.26536884528752" lon="8.558849321468871"><ele>333.0</ele><time>2026-04-29T10:39:12.1Z</time></trkpt><trkpt lat="40.2653908655216" lon="8.5586519896059"><ele>333.25</ele><time>2026-04-29T10:39:13.1Z</time></trkpt><trkpt lat="40.26541036745133" lon="8.55846435031403"><ele>333.5</ele><time>2026-04-29T10:39:14.1Z</time></trkpt><trkpt lat="40.26543684067181" lon="8.558293044888952"><ele>333.75</ele><time>2026-04-29T10:39:15.1Z</time></trkpt><trkpt lat="40.2654638514509" lon="8.558129246928232"><ele>334.0</ele><time>2026-04-29T10:39:16.1Z</time></trkpt><trkpt lat="40.26550135774588" lon="8.557977637454963"><ele>334.0</ele><time>2026-04-29T10:39:17.1Z</time></trkpt><trkpt lat="40.2655350673801" lon="8.557831920055289"><ele>334.0</ele><time>2026-04-29T10:39:18.1Z</time></trkpt><trkpt lat="40.26556507187924" lon="8.557692912869722"><ele>334.0</ele><time>2026-04-29T10:39:19.1Z</time></trkpt><trkpt lat="40.26559719838173" lon="8.557553481470748"><ele>334.0</ele><time>2026-04-29T10:39:20.1Z</time></trkpt><trkpt lat="40.265632661679746" lon="8.557414099362076"><ele>334.2</ele><time>2026-04-29T10:39:21.1Z</time></trkpt><trkpt lat="40.2656644487315" lon="8.557273878976295"><ele>334.4</ele><time>2026-04-29T10:39:22.1Z</time></trkpt><trkpt lat="40.26569419834536" lon="8.55713601830593"><ele>334.6</ele><time>2026-04-29T10:39:23.1Z</time></trkpt><trkpt lat="40.26572319125419" lon="8.557005294532024"><ele>334.8</ele><time>2026-04-29T10:39:24.1Z</time></trkpt><trkpt lat="40.26575518615696" lon="8.556872578633936"><ele>335.0</ele><time>2026-04-29T10:39:25.1Z</time></trkpt><trkpt lat="40.26578727415711" lon="8.556737667230209"><ele>334.5</ele><time>2026-04-29T10:39:26.1Z</time></trkpt><trkpt lat="40.26581318224445" lon="8.556597309076603"><ele>334.0</ele><time>2026-04-29T10:39:27.1Z</time></trkpt><trkpt lat="40.26584438312441" lon="8.556456328666966"><ele>333.5</ele><time>2026-04-29T10:39:28.1Z</time></trkpt><trkpt lat="40.26588139094273" lon="8.556314006208238"><ele>333.0</ele><time>2026-04-29T10:39:29.1Z</time></trkpt><trkpt lat="40.26591856330036" lon="8.556170665693335"><ele>332.5</ele><time>2026-04-29T10:39:30.1Z</time></trkpt><trkpt lat="40.265950741990075" lon="8.556024624638994"><ele>332.0</ele><time>2026-04-29T10:39:31.1Z</time></trkpt><trkpt lat="40.26598312457553" lon="8.555885584093676"><ele>331.5</ele><time>2026-04-29T10:39:32.1Z</time></trkpt><trkpt lat="40.26601686742151" lon="8.555743473296486"><ele>331.0</ele><time>2026-04-29T10:39:33.1Z</time></trkpt><trkpt lat="40.266048799176055" lon="8.555600542011398"><ele>331.0</ele><time>2026-04-29T10:39:34.1Z</time></trkpt><trkpt lat="40.26607835692161" lon="8.555456480286749"><ele>331.0</ele><time>2026-04-29T10:39:35.1Z</time></trkpt><trkpt lat="40.26610992036405" lon="8.555316531531725"><ele>331.0</ele><time>2026-04-29T10:39:36.1Z</time></trkpt><trkpt lat="40.26614175766035" lon="8.555179061740287"><ele>331.0</ele><time>2026-04-29T10:39:37.1Z</time></trkpt><trkpt lat="40.26617360976815" lon="8.555043238844629"><ele>331.0</ele><time>2026-04-29T10:39:38.1Z</time></trkpt><trkpt lat="40.26620299220216" lon="8.554905306887303"><ele>330.4</ele><time>2026-04-29T10:39:39.1Z</time></trkpt><trkpt lat="40.26623316574412" lon="8.554772312591204"><ele>329.8</ele><time>2026-04-29T10:39:40.1Z</time></trkpt><trkpt lat="40.266263838279336" lon="8.554634899900927"><ele>329.2</ele><time>2026-04-29T10:39:41.101Z</time></trkpt><trkpt lat="40.26629308889492" lon="8.554499949426036"><ele>328.59999999999997</ele><time>2026-04-29T10:39:42.101Z</time></trkpt><trkpt lat="40.266323434878224" lon="8.554367829095126"><ele>328.0</ele><time>2026-04-29T10:39:43.101Z</time></trkpt><trkpt lat="40.26635301253767" lon="8.554236971294419"><ele>328.0</ele><time>2026-04-29T10:39:44.101Z</time></trkpt><trkpt lat="40.26638238894129" lon="8.55410624132838"><ele>328.0</ele><time>2026-04-29T10:39:45.101Z</time></trkpt><trkpt lat="40.26641179347409" lon="8.553972947115962"><ele>328.0</ele><time>2026-04-29T10:39:46.101Z</time></trkpt><trkpt lat="40.266440717367175" lon="8.553839516606823"><ele>328.0</ele><time>2026-04-29T10:39:47.101Z</time></trkpt><trkpt lat="40.26647404256033" lon="8.55370036109559"><ele>328.0</ele><time>2026-04-29T10:39:48.101Z</time></trkpt><trkpt lat="40.266504513030256" lon="8.553557771002602"><ele>328.0</ele><time>2026-04-29T10:39:49.101Z</time></trkpt><trkpt lat="40.266537244045196" lon="8.553414918818358"><ele>328.0</ele><time>2026-04-29T10:39:50.101Z</time></trkpt><trkpt lat="40.26656577326252" lon="8.553275463794721"><ele>328.0</ele><time>2026-04-29T10:39:51.101Z</time></trkpt><trkpt lat="40.26659136728826" lon="8.553145592285597"><ele>328.0</ele><time>2026-04-29T10:39:52.101Z</time></trkpt><trkpt lat="40.266620206507156" lon="8.55301671768029"><ele>328.0</ele><time>2026-04-29T10:39:53.101Z</time></trkpt><trkpt lat="40.266651404784795" lon="8.55288507032885"><ele>327.59999999999997</ele><time>2026-04-29T10:39:54.102Z</time></trkpt><trkpt lat="40.26667871065412" lon="8.552757864112316"><ele>327.2</ele><time>2026-04-29T10:39:55.102Z</time></trkpt><trkpt lat="40.266709046849265" lon="8.552627448190394"><ele>326.8</ele><time>2026-04-29T10:39:56.102Z</time></trkpt><trkpt lat="40.26673592811039" lon="8.552495513031474"><ele>326.4</ele><time>2026-04-29T10:39:57.102Z</time></trkpt><trkpt lat="40.266763876413464" lon="8.552362365417222"><ele>326.0</ele><time>2026-04-29T10:39:58.102Z</time></trkpt><trkpt lat="40.266797044348024" lon="8.55222634095512"><ele>326.0</ele><time>2026-04-29T10:39:59.102Z</time></trkpt><trkpt lat="40.26682613131941" lon="8.552101833691598"><ele>326.0</ele><time>2026-04-29T10:40:00.102Z</time></trkpt><trkpt lat="40.266849741757596" lon="8.551989670380642"><ele>326.0</ele><time>2026-04-29T10:40:01.102Z</time></trkpt><trkpt lat="40.2668721797378" lon="8.551891081826254"><ele>326.0</ele><time>2026-04-29T10:40:02.102Z</time></trkpt><trkpt lat="40.26689552077663" lon="8.551785390569004"><ele>326.0</ele><time>2026-04-29T10:40:03.102Z</time></trkpt><trkpt lat="40.26691811784744" lon="8.551683906939298"><ele>326.0</ele><time>2026-04-29T10:40:04.102Z</time></trkpt><trkpt lat="40.26694191317493" lon="8.551577712909344"><ele>325.8</ele><time>2026-04-29T10:40:05.102Z</time></trkpt><trkpt lat="40.26696372123609" lon="8.551467248872543"><ele>325.6</ele><time>2026-04-29T10:40:06.102Z</time></trkpt><trkpt lat="40.26698628953842" lon="8.551355147460972"><ele>325.4</ele><time>2026-04-29T10:40:07.102Z</time></trkpt><trkpt lat="40.26701148935635" lon="8.551240359172033"><ele>325.2</ele><time>2026-04-29T10:40:08.102Z</time></trkpt><trkpt lat="40.26703429871928" lon="8.551117847307275"><ele>325.0</ele><time>2026-04-29T10:40:09.102Z</time></trkpt><trkpt lat="40.26706387907538" lon="8.550996543860496"><ele>325.0</ele><time>2026-04-29T10:40:10.102Z</time></trkpt><trkpt lat="40.267087996872675" lon="8.550883885625987"><ele>325.0</ele><time>2026-04-29T10:40:11.102Z</time></trkpt><trkpt lat="40.26711192515722" lon="8.55078318171216"><ele>325.0</ele><time>2026-04-29T10:40:12.102Z</time></trkpt><trkpt lat="40.26713264493777" lon="8.550681791623004"><ele>325.0</ele><time>2026-04-29T10:40:13.102Z</time></trkpt><trkpt lat="40.267152969092955" lon="8.550592113374071"><ele>325.0</ele><time>2026-04-29T10:40:14.102Z</time></trkpt><trkpt lat="40.26718101013866" lon="8.55044716432411"><ele>325.0</ele><time>2026-04-29T10:40:16.102Z</time></trkpt><trkpt lat="40.26721420604632" lon="8.550325163775009"><ele>325.0</ele><time>2026-04-29T10:40:18.102Z</time></trkpt><trkpt lat="40.267244589486864" lon="8.550239818739039"><ele>325.0</ele><time>2026-04-29T10:40:20.102Z</time></trkpt><trkpt lat="40.26727738902271" lon="8.550160342099515"><ele>325.0</ele><time>2026-04-29T10:40:24.102Z</time></trkpt><trkpt lat="40.26733420017808" lon="8.550046017723066"><ele>325.0</ele><time>2026-04-29T10:40:27.102Z</time></trkpt><trkpt lat="40.26737805959964" lon="8.54994263513278"><ele>325.0</ele><time>2026-04-29T10:40:29.102Z</time></trkpt><trkpt lat="40.267417141324394" lon="8.549803587797925"><ele>325.0</ele><time>2026-04-29T10:40:31.102Z</time></trkpt><trkpt lat="40.26744486947133" lon="8.549726071898174"><ele>325.4285714285714</ele><time>2026-04-29T10:40:32.102Z</time></trkpt><trkpt lat="40.26747690664345" lon="8.549645242949586"><ele>325.8571428571429</ele><time>2026-04-29T10:40:33.102Z</time></trkpt><trkpt lat="40.26750736424095" lon="8.54956589806681"><ele>326.2857142857143</ele><time>2026-04-29T10:40:34.102Z</time></trkpt><trkpt lat="40.26753820983536" lon="8.549487064620086"><ele>326.71428571428567</ele><time>2026-04-29T10:40:35.102Z</time></trkpt><trkpt lat="40.267570789384735" lon="8.5494060417852"><ele>327.1428571428571</ele><time>2026-04-29T10:40:36.102Z</time></trkpt><trkpt lat="40.26760017891568" lon="8.54932105911618"><ele>327.57142857142856</ele><time>2026-04-29T10:40:37.102Z</time></trkpt><trkpt lat="40.267633191332415" lon="8.549245278791147"><ele>328.0</ele><time>2026-04-29T10:40:38.102Z</time></trkpt><trkpt lat="40.267663886359585" lon="8.549161079930713"><ele>327.99999999999994</ele><time>2026-04-29T10:40:39.102Z</time></trkpt><trkpt lat="40.267696835485374" lon="8.549078892365552"><ele>328.0</ele><time>2026-04-29T10:40:40.102Z</time></trkpt><trkpt lat="40.267730812445016" lon="8.548992191128464"><ele>328.0</ele><time>2026-04-29T10:40:41.102Z</time></trkpt><trkpt lat="40.26777108921065" lon="8.548921421287478"><ele>328.0</ele><time>2026-04-29T10:40:42.102Z</time></trkpt><trkpt lat="40.26781588550669" lon="8.548853954302611"><ele>328.0</ele><time>2026-04-29T10:40:43.102Z</time></trkpt><trkpt lat="40.267860878046676" lon="8.548793406795"><ele>327.99999999999994</ele><time>2026-04-29T10:40:44.102Z</time></trkpt><trkpt lat="40.26791102559429" lon="8.548733618559158"><ele>328.0</ele><time>2026-04-29T10:40:45.102Z</time></trkpt><trkpt lat="40.26795700952868" lon="8.548664866201365"><ele>328.16666666666663</ele><time>2026-04-29T10:40:46.102Z</time></trkpt><trkpt lat="40.267995731143394" lon="8.548585924191995"><ele>328.3333333333333</ele><time>2026-04-29T10:40:47.102Z</time></trkpt><trkpt lat="40.26803487027471" lon="8.548498230886686"><ele>328.5</ele><time>2026-04-29T10:40:48.102Z</time></trkpt><trkpt lat="40.26806118896848" lon="8.548412152656148"><ele>328.6666666666667</ele><time>2026-04-29T10:40:49.102Z</time></trkpt><trkpt lat="40.26808500870144" lon="8.548322943117133"><ele>328.83333333333337</ele><time>2026-04-29T10:40:50.102Z</time></trkpt><trkpt lat="40.26810911352996" lon="8.548233072477176"><ele>329.0</ele><time>2026-04-29T10:40:51.102Z</time></trkpt><trkpt lat="40.26814643769426" lon="8.548103007720616"><ele>329.0</ele><time>2026-04-29T10:40:53.102Z</time></trkpt><trkpt lat="40.268179979378964" lon="8.548027983822818"><ele>329.0</ele><time>2026-04-29T10:40:55.102Z</time></trkpt><trkpt lat="40.268220094434994" lon="8.547947321508586"><ele>329.0</ele><time>2026-04-29T10:41:07.102Z</time></trkpt><trkpt lat="40.26825519274421" lon="8.54787691040555"><ele>329.0</ele><time>2026-04-29T10:41:09.102Z</time></trkpt><trkpt lat="40.2683388063882" lon="8.547892564195728"><ele>329.0</ele><time>2026-04-29T10:41:11.102Z</time></trkpt><trkpt lat="40.2684010171937" lon="8.54794364714922"><ele>329.0</ele><time>2026-04-29T10:41:12.102Z</time></trkpt><trkpt lat="40.26846703756959" lon="8.547965817185002"><ele>329.0</ele><time>2026-04-29T10:41:13.102Z</time></trkpt><trkpt lat="40.26853989308119" lon="8.547989128043652"><ele>329.0</ele><time>2026-04-29T10:41:14.102Z</time></trkpt><trkpt lat="40.26861228092416" lon="8.548024467030338"><ele>329.0</ele><time>2026-04-29T10:41:15.102Z</time></trkpt><trkpt lat="40.26867735703248" lon="8.54805047359602"><ele>329.0</ele><time>2026-04-29T10:41:16.102Z</time></trkpt><trkpt lat="40.26874749509554" lon="8.548069662548643"><ele>329.0</ele><time>2026-04-29T10:41:17.102Z</time></trkpt><trkpt lat="40.26882411136105" lon="8.548084879282005"><ele>329.0</ele><time>2026-04-29T10:41:18.102Z</time></trkpt><trkpt lat="40.26890043784151" lon="8.548105701843914"><ele>329.0</ele><time>2026-04-29T10:41:19.102Z</time></trkpt><trkpt lat="40.26897492753192" lon="8.548134523262243"><ele>329.1666666666667</ele><time>2026-04-29T10:41:20.102Z</time></trkpt><trkpt lat="40.26904920841258" lon="8.548165488785942"><ele>329.33333333333337</ele><time>2026-04-29T10:41:21.102Z</time></trkpt><trkpt lat="40.269123382122835" lon="8.548199445886251"><ele>329.5</ele><time>2026-04-29T10:41:22.102Z</time></trkpt><trkpt lat="40.26919320349311" lon="8.548249347161127"><ele>329.6666666666667</ele><time>2026-04-29T10:41:23.102Z</time></trkpt><trkpt lat="40.26926199407846" lon="8.548300610765716"><ele>329.8333333333333</ele><time>2026-04-29T10:41:24.102Z</time></trkpt><trkpt lat="40.26932915220139" lon="8.548352616299775"><ele>330.0</ele><time>2026-04-29T10:41:25.102Z</time></trkpt><trkpt lat="40.26939394528169" lon="8.548416824335487"><ele>330.0</ele><time>2026-04-29T10:41:26.102Z</time></trkpt><trkpt lat="40.26947558537823" lon="8.54845945942461"><ele>330.0</ele><time>2026-04-29T10:41:27.102Z</time></trkpt><trkpt lat="40.26955623595691" lon="8.5485130492005"><ele>330.0</ele><time>2026-04-29T10:41:28.102Z</time></trkpt><trkpt lat="40.26963894097955" lon="8.54855876217775"><ele>330.0</ele><time>2026-04-29T10:41:29.102Z</time></trkpt><trkpt lat="40.26971828624392" lon="8.548606763490556"><ele>330.0</ele><time>2026-04-29T10:41:30.102Z</time></trkpt><trkpt lat="40.26979909487392" lon="8.548656337102322"><ele>330.0</ele><time>2026-04-29T10:41:31.102Z</time></trkpt><trkpt lat="40.269879791740046" lon="8.548697817168533"><ele>330.2</ele><time>2026-04-29T10:41:32.102Z</time></trkpt><trkpt lat="40.26995457176337" lon="8.54874542543755"><ele>330.4</ele><time>2026-04-29T10:41:33.102Z</time></trkpt><trkpt lat="40.27011335053037" lon="8.548842424230093"><ele>330.6</ele><time>2026-04-29T10:41:35.102Z</time></trkpt><trkpt lat="40.2701975418878" lon="8.548890240197734"><ele>330.8</ele><time>2026-04-29T10:41:36.102Z</time></trkpt><trkpt lat="40.27027997449846" lon="8.54894891169855"><ele>331.0</ele><time>2026-04-29T10:41:37.102Z</time></trkpt><trkpt lat="40.27036877879648" lon="8.54899074876981"><ele>331.0</ele><time>2026-04-29T10:41:38.102Z</time></trkpt><trkpt lat="40.27045802685598" lon="8.549040404484392"><ele>331.0</ele><time>2026-04-29T10:41:39.102Z</time></trkpt><trkpt lat="40.270544065514606" lon="8.549093664630783"><ele>331.0</ele><time>2026-04-29T10:41:40.102Z</time></trkpt><trkpt lat="40.270632984503294" lon="8.54915544121742"><ele>331.0</ele><time>2026-04-29T10:41:41.102Z</time></trkpt><trkpt lat="40.27072432224421" lon="8.549217231024247"><ele>331.0</ele><time>2026-04-29T10:41:42.102Z</time></trkpt><trkpt lat="40.27082038627432" lon="8.549276008263844"><ele>330.5</ele><time>2026-04-29T10:41:43.102Z</time></trkpt><trkpt lat="40.270919258855535" lon="8.549344998053444"><ele>330.0</ele><time>2026-04-29T10:41:44.102Z</time></trkpt><trkpt lat="40.271028235262484" lon="8.549406649099875"><ele>329.5</ele><time>2026-04-29T10:41:45.102Z</time></trkpt><trkpt lat="40.27113333139057" lon="8.549456601164241"><ele>329.0</ele><time>2026-04-29T10:41:46.102Z</time></trkpt><trkpt lat="40.27125227581954" lon="8.549490329164806"><ele>329.0</ele><time>2026-04-29T10:41:47.102Z</time></trkpt><trkpt lat="40.27137778063288" lon="8.549528697031674"><ele>329.0</ele><time>2026-04-29T10:41:48.102Z</time></trkpt><trkpt lat="40.27149688773283" lon="8.54955904202347"><ele>329.0</ele><time>2026-04-29T10:41:49.102Z</time></trkpt><trkpt lat="40.27161479594135" lon="8.549579565749006"><ele>329.0</ele><time>2026-04-29T10:41:50.102Z</time></trkpt><trkpt lat="40.27173981742534" lon="8.549611506915017"><ele>328.75</ele><time>2026-04-29T10:41:51.102Z</time></trkpt><trkpt lat="40.2718620415009" lon="8.54964691674593"><ele>328.5</ele><time>2026-04-29T10:41:52.102Z</time></trkpt><trkpt lat="40.2719845027039" lon="8.549703782048326"><ele>328.25</ele><time>2026-04-29T10:41:53.102Z</time></trkpt><trkpt lat="40.272105176307285" lon="8.549759059527382"><ele>328.0</ele><time>2026-04-29T10:41:54.102Z</time></trkpt><trkpt lat="40.27221919650197" lon="8.549827489158515"><ele>326.25</ele><time>2026-04-29T10:41:55.102Z</time></trkpt><trkpt lat="40.27232971244879" lon="8.549913006453075"><ele>324.5</ele><time>2026-04-29T10:41:56.102Z</time></trkpt><trkpt lat="40.272435746774" lon="8.550027747703961"><ele>322.75</ele><time>2026-04-29T10:41:57.102Z</time></trkpt><trkpt lat="40.27254580942511" lon="8.550152867120863"><ele>321.0</ele><time>2026-04-29T10:41:58.102Z</time></trkpt><trkpt lat="40.27266316280613" lon="8.550283672542939"><ele>322.0</ele><time>2026-04-29T10:41:59.102Z</time></trkpt><trkpt lat="40.27279275574923" lon="8.55040082014806"><ele>323.0</ele><time>2026-04-29T10:42:00.102Z</time></trkpt><trkpt lat="40.27293846286979" lon="8.550490834387455"><ele>324.0</ele><time>2026-04-29T10:42:01.102Z</time></trkpt><trkpt lat="40.273095431281185" lon="8.550563317420423"><ele>322.0</ele><time>2026-04-29T10:42:02.102Z</time></trkpt><trkpt lat="40.27326101418111" lon="8.550608792826235"><ele>320.0</ele><time>2026-04-29T10:42:03.102Z</time></trkpt><trkpt lat="40.27343979840052" lon="8.550620852197236"><ele>318.0</ele><time>2026-04-29T10:42:04.102Z</time></trkpt><trkpt lat="40.2736203743012" lon="8.550600696466214"><ele>318.0</ele><time>2026-04-29T10:42:05.102Z</time></trkpt><trkpt lat="40.2738070925503" lon="8.550568664972115"><ele>318.0</ele><time>2026-04-29T10:42:06.102Z</time></trkpt><trkpt lat="40.27399970180082" lon="8.55053571444992"><ele>318.0</ele><time>2026-04-29T10:42:07.102Z</time></trkpt><trkpt lat="40.27419664447806" lon="8.55050188820084"><ele>318.0</ele><time>2026-04-29T10:42:08.102Z</time></trkpt><trkpt lat="40.274389849264054" lon="8.55047069616296"><ele>318.0</ele><time>2026-04-29T10:42:09.102Z</time></trkpt><trkpt lat="40.27458060623011" lon="8.550437594984833"><ele>318.0</ele><time>2026-04-29T10:42:10.102Z</time></trkpt><trkpt lat="40.27477132569417" lon="8.55040561905633"><ele>319.3333333333333</ele><time>2026-04-29T10:42:11.102Z</time></trkpt><trkpt lat="40.27496193037525" lon="8.55037516290464"><ele>320.66666666666663</ele><time>2026-04-29T10:42:12.102Z</time></trkpt><trkpt lat="40.2751530330379" lon="8.55034242739439"><ele>322.0</ele><time>2026-04-29T10:42:13.102Z</time></trkpt><trkpt lat="40.2753488537527" lon="8.55031166642186"><ele>322.0</ele><time>2026-04-29T10:42:14.102Z</time></trkpt><trkpt lat="40.27554106013783" lon="8.550277342574562"><ele>322.0</ele><time>2026-04-29T10:42:15.102Z</time></trkpt><trkpt lat="40.275734476095" lon="8.55024319325156"><ele>322.0</ele><time>2026-04-29T10:42:16.102Z</time></trkpt><trkpt lat="40.275922399473714" lon="8.5502079710655"><ele>322.66666666666663</ele><time>2026-04-29T10:42:17.102Z</time></trkpt><trkpt lat="40.27610943041003" lon="8.550177234151583"><ele>323.3333333333333</ele><time>2026-04-29T10:42:18.102Z</time></trkpt><trkpt lat="40.27629353731158" lon="8.550144482978672"><ele>324.0</ele><time>2026-04-29T10:42:19.102Z</time></trkpt><trkpt lat="40.27646680025038" lon="8.550120811598388"><ele>325.25</ele><time>2026-04-29T10:42:20.101Z</time></trkpt><trkpt lat="40.27662638113575" lon="8.550096896597452"><ele>326.5</ele><time>2026-04-29T10:42:21.101Z</time></trkpt><trkpt lat="40.27677416866453" lon="8.550070354807215"><ele>327.75</ele><time>2026-04-29T10:42:22.101Z</time></trkpt><trkpt lat="40.27691062420381" lon="8.550048914981753"><ele>329.0</ele><time>2026-04-29T10:42:23.101Z</time></trkpt><trkpt lat="40.27703324354658" lon="8.550051574541406"><ele>329.0</ele><time>2026-04-29T10:42:24.101Z</time></trkpt><trkpt lat="40.27713483793556" lon="8.550081816514762"><ele>329.0</ele><time>2026-04-29T10:42:25.101Z</time></trkpt><trkpt lat="40.277210561038736" lon="8.550102767164024"><ele>329.0</ele><time>2026-04-29T10:42:26.101Z</time></trkpt><trkpt lat="40.277277977026436" lon="8.55007659842326"><ele>329.0</ele><time>2026-04-29T10:42:27.101Z</time></trkpt><trkpt lat="40.277357323689436" lon="8.550023421236542"><ele>329.0</ele><time>2026-04-29T10:42:28.101Z</time></trkpt><trkpt lat="40.27744719979191" lon="8.549972064508802"><ele>329.0</ele><time>2026-04-29T10:42:29.101Z</time></trkpt><trkpt lat="40.27754798566706" lon="8.54993271716597"><ele>329.25</ele><time>2026-04-29T10:42:30.101Z</time></trkpt><trkpt lat="40.27765525180388" lon="8.5499137203418"><ele>329.5</ele><time>2026-04-29T10:42:31.101Z</time></trkpt><trkpt lat="40.27777002720837" lon="8.54990487108148"><ele>329.75</ele><time>2026-04-29T10:42:32.101Z</time></trkpt><trkpt lat="40.277886067834885" lon="8.549894148013404"><ele>330.0</ele><time>2026-04-29T10:42:33.101Z</time></trkpt><trkpt lat="40.27800123987233" lon="8.549865478175954"><ele>330.75</ele><time>2026-04-29T10:42:34.101Z</time></trkpt><trkpt lat="40.27812295652887" lon="8.549848493154535"><ele>331.5</ele><time>2026-04-29T10:42:35.101Z</time></trkpt><trkpt lat="40.278242767955604" lon="8.549833130334992"><ele>332.25</ele><time>2026-04-29T10:42:36.101Z</time></trkpt><trkpt lat="40.27835627508966" lon="8.549815110202445"><ele>333.0</ele><time>2026-04-29T10:42:37.101Z</time></trkpt><trkpt lat="40.27847858044993" lon="8.549784036291465"><ele>333.0</ele><time>2026-04-29T10:42:38.101Z</time></trkpt><trkpt lat="40.27859614400017" lon="8.549756987673424"><ele>333.0</ele><time>2026-04-29T10:42:39.101Z</time></trkpt><trkpt lat="40.278714559501324" lon="8.549738845478002"><ele>333.0</ele><time>2026-04-29T10:42:40.101Z</time></trkpt><trkpt lat="40.27883539748756" lon="8.54971404611055"><ele>333.0</ele><time>2026-04-29T10:42:41.101Z</time></trkpt><trkpt lat="40.27895315509908" lon="8.549692777091845"><ele>334.0</ele><time>2026-04-29T10:42:42.101Z</time></trkpt><trkpt lat="40.2790735929712" lon="8.549671057136166"><ele>335.0</ele><time>2026-04-29T10:42:43.101Z</time></trkpt><trkpt lat="40.27919076778238" lon="8.54964300746956"><ele>336.0</ele><time>2026-04-29T10:42:44.101Z</time></trkpt><trkpt lat="40.279296606417674" lon="8.549625126201832"><ele>337.0</ele><time>2026-04-29T10:42:45.101Z</time></trkpt><trkpt lat="40.279416746655386" lon="8.549600173056636"><ele>337.0</ele><time>2026-04-29T10:42:46.101Z</time></trkpt><trkpt lat="40.27952838941098" lon="8.549577063103033"><ele>337.0</ele><time>2026-04-29T10:42:47.101Z</time></trkpt><trkpt lat="40.27964586432708" lon="8.54955006257506"><ele>337.0</ele><time>2026-04-29T10:42:48.101Z</time></trkpt><trkpt lat="40.27975558295648" lon="8.549521004018736"><ele>337.0</ele><time>2026-04-29T10:42:49.101Z</time></trkpt><trkpt lat="40.27986276564848" lon="8.549498305799355"><ele>337.20000000000005</ele><time>2026-04-29T10:42:50.101Z</time></trkpt><trkpt lat="40.27996088716534" lon="8.549483684889827"><ele>337.4</ele><time>2026-04-29T10:42:51.101Z</time></trkpt><trkpt lat="40.28004911983876" lon="8.549465589930033"><ele>337.6</ele><time>2026-04-29T10:42:52.101Z</time></trkpt><trkpt lat="40.28012679576235" lon="8.549446481046441"><ele>337.79999999999995</ele><time>2026-04-29T10:42:53.101Z</time></trkpt><trkpt lat="40.2801949775386" lon="8.549429818628163"><ele>338.0</ele><time>2026-04-29T10:42:54.101Z</time></trkpt><trkpt lat="40.28031742498289" lon="8.549395909593716"><ele>338.0</ele><time>2026-04-29T10:42:56.101Z</time></trkpt><trkpt lat="40.2803813695157" lon="8.549386999813368"><ele>338.0</ele><time>2026-04-29T10:42:57.101Z</time></trkpt><trkpt lat="40.28050340121254" lon="8.549359452374363"><ele>338.0</ele><time>2026-04-29T10:42:59.101Z</time></trkpt><trkpt lat="40.28057563918146" lon="8.5493455059046"><ele>338.0</ele><time>2026-04-29T10:43:00.101Z</time></trkpt><trkpt lat="40.2806430894149" lon="8.549330504199341"><ele>338.0</ele><time>2026-04-29T10:43:01.101Z</time></trkpt><trkpt lat="40.28070529264387" lon="8.549312176703552"><ele>338.0</ele><time>2026-04-29T10:43:02.101Z</time></trkpt><trkpt lat="40.280804345375486" lon="8.549282990067093"><ele>338.33333333333337</ele><time>2026-04-29T10:43:04.101Z</time></trkpt><trkpt lat="40.28088178064776" lon="8.549263413348086"><ele>338.6666666666667</ele><time>2026-04-29T10:43:06.101Z</time></trkpt><trkpt lat="40.280945506215915" lon="8.549250100709319"><ele>339.0</ele><time>2026-04-29T10:43:10.101Z</time></trkpt><trkpt lat="40.28101054336927" lon="8.549240363775892"><ele>339.3333333333333</ele><time>2026-04-29T10:43:15.101Z</time></trkpt><trkpt lat="40.28112947293143" lon="8.549207186960539"><ele>339.66666666666663</ele><time>2026-04-29T10:43:17.101Z</time></trkpt><trkpt lat="40.281208337459056" lon="8.549180338602044"><ele>340.0</ele><time>2026-04-29T10:43:18.101Z</time></trkpt><trkpt lat="40.28129476056116" lon="8.549175327082992"><ele>340.0</ele><time>2026-04-29T10:43:19.101Z</time></trkpt><trkpt lat="40.28137726794795" lon="8.54915687642267"><ele>340.0</ele><time>2026-04-29T10:43:20.101Z</time></trkpt><trkpt lat="40.281468523367415" lon="8.549145674635733"><ele>340.0</ele><time>2026-04-29T10:43:21.101Z</time></trkpt><trkpt lat="40.281568644395904" lon="8.549158053064927"><ele>340.0</ele><time>2026-04-29T10:43:22.101Z</time></trkpt><trkpt lat="40.28166012587627" lon="8.549209495256092"><ele>340.0</ele><time>2026-04-29T10:43:23.101Z</time></trkpt><trkpt lat="40.2817356766472" lon="8.549302905209721"><ele>341.0</ele><time>2026-04-29T10:43:24.101Z</time></trkpt><trkpt lat="40.28179944578732" lon="8.5494154175704"><ele>342.0</ele><time>2026-04-29T10:43:25.101Z</time></trkpt><trkpt lat="40.28185520084093" lon="8.549541672411946"><ele>343.0</ele><time>2026-04-29T10:43:26.101Z</time></trkpt><trkpt lat="40.281916679125956" lon="8.54967592923506"><ele>344.0</ele><time>2026-04-29T10:43:27.101Z</time></trkpt><trkpt lat="40.281980962810294" lon="8.54980980620183"><ele>344.5</ele><time>2026-04-29T10:43:28.101Z</time></trkpt><trkpt lat="40.28204296733117" lon="8.549947301316989"><ele>345.0</ele><time>2026-04-29T10:43:29.101Z</time></trkpt><trkpt lat="40.28210399427417" lon="8.55008788498711"><ele>345.5</ele><time>2026-04-29T10:43:30.101Z</time></trkpt><trkpt lat="40.28217544635069" lon="8.550228433903827"><ele>346.0</ele><time>2026-04-29T10:43:31.101Z</time></trkpt><trkpt lat="40.28224594440813" lon="8.550368757907554"><ele>346.5</ele><time>2026-04-29T10:43:32.101Z</time></trkpt><trkpt lat="40.282308723746866" lon="8.550520285808764"><ele>347.0</ele><time>2026-04-29T10:43:33.101Z</time></trkpt><trkpt lat="40.282377129547314" lon="8.550662356712595"><ele>347.5</ele><time>2026-04-29T10:43:34.101Z</time></trkpt><trkpt lat="40.28244917403348" lon="8.55080339519821"><ele>348.0</ele><time>2026-04-29T10:43:35.101Z</time></trkpt><trkpt lat="40.282515709346804" lon="8.550947668472968"><ele>348.0</ele><time>2026-04-29T10:43:36.101Z</time></trkpt><trkpt lat="40.282582423889245" lon="8.551089960403182"><ele>348.0</ele><time>2026-04-29T10:43:37.101Z</time></trkpt><trkpt lat="40.2826499057607" lon="8.551234020381354"><ele>348.0</ele><time>2026-04-29T10:43:38.101Z</time></trkpt><trkpt lat="40.28271596076593" lon="8.551384562067396"><ele>348.0</ele><time>2026-04-29T10:43:39.101Z</time></trkpt><trkpt lat="40.28278292464996" lon="8.551530782923265"><ele>348.0</ele><time>2026-04-29T10:43:40.101Z</time></trkpt><trkpt lat="40.28285420860675" lon="8.551670885516911"><ele>348.0</ele><time>2026-04-29T10:43:41.101Z</time></trkpt><trkpt lat="40.28293022298585" lon="8.55180613385799"><ele>348.0</ele><time>2026-04-29T10:43:42.101Z</time></trkpt><trkpt lat="40.28299350846831" lon="8.551951406600375"><ele>348.0</ele><time>2026-04-29T10:43:43.101Z</time></trkpt><trkpt lat="40.28304975753054" lon="8.552091558913654"><ele>347.79999999999995</ele><time>2026-04-29T10:43:44.101Z</time></trkpt><trkpt lat="40.28311058873848" lon="8.55222990985233"><ele>347.6</ele><time>2026-04-29T10:43:45.101Z</time></trkpt><trkpt lat="40.28316775514043" lon="8.552352193113341"><ele>347.4</ele><time>2026-04-29T10:43:46.101Z</time></trkpt><trkpt lat="40.28321813684837" lon="8.552458498142443"><ele>347.20000000000005</ele><time>2026-04-29T10:43:47.101Z</time></trkpt><trkpt lat="40.283258224992124" lon="8.552566186257645"><ele>347.0</ele><time>2026-04-29T10:43:48.101Z</time></trkpt><trkpt lat="40.28327982364202" lon="8.55266724333263"><ele>347.0</ele><time>2026-04-29T10:43:49.101Z</time></trkpt><trkpt lat="40.28329432097358" lon="8.552796416604416"><ele>347.0</ele><time>2026-04-29T10:43:51.101Z</time></trkpt><trkpt lat="40.283315089147685" lon="8.552904041063186"><ele>347.0</ele><time>2026-04-29T10:43:53.103Z</time></trkpt><trkpt lat="40.28335008258173" lon="8.552983836042563"><ele>347.0</ele><time>2026-04-29T10:43:54.103Z</time></trkpt><trkpt lat="40.28340837962514" lon="8.553069789988633"><ele>347.0</ele><time>2026-04-29T10:43:55.103Z</time></trkpt><trkpt lat="40.28348720064016" lon="8.553143843905112"><ele>347.0</ele><time>2026-04-29T10:43:56.103Z</time></trkpt><trkpt lat="40.28356804835737" lon="8.553230792801195"><ele>346.75</ele><time>2026-04-29T10:43:57.103Z</time></trkpt><trkpt lat="40.28363181788885" lon="8.553335146075103"><ele>346.5</ele><time>2026-04-29T10:43:58.103Z</time></trkpt><trkpt lat="40.283699759711354" lon="8.553462215892665"><ele>346.25</ele><time>2026-04-29T10:43:59.103Z</time></trkpt><trkpt lat="40.2837672368067" lon="8.55359910719845"><ele>346.0</ele><time>2026-04-29T10:44:00.103Z</time></trkpt><trkpt lat="40.28383841190764" lon="8.553746555742688"><ele>346.0</ele><time>2026-04-29T10:44:01.102Z</time></trkpt><trkpt lat="40.283911281642204" lon="8.553906424061923"><ele>346.0</ele><time>2026-04-29T10:44:02.103Z</time></trkpt><trkpt lat="40.28398867960453" lon="8.554079039191135"><ele>346.0</ele><time>2026-04-29T10:44:03.103Z</time></trkpt><trkpt lat="40.28406456850902" lon="8.554238730829328"><ele>346.0</ele><time>2026-04-29T10:44:04.103Z</time></trkpt><trkpt lat="40.28414045597908" lon="8.554395841200009"><ele>346.75</ele><time>2026-04-29T10:44:05.103Z</time></trkpt><trkpt lat="40.28421383914101" lon="8.554552672164517"><ele>347.5</ele><time>2026-04-29T10:44:06.103Z</time></trkpt><trkpt lat="40.28428644392133" lon="8.5547091737267"><ele>348.25</ele><time>2026-04-29T10:44:07.103Z</time></trkpt><trkpt lat="40.28436081747099" lon="8.55486627287111"><ele>349.0</ele><time>2026-04-29T10:44:08.103Z</time></trkpt><trkpt lat="40.28442988731739" lon="8.555029551332325"><ele>349.0</ele><time>2026-04-29T10:44:09.103Z</time></trkpt><trkpt lat="40.28448228357766" lon="8.555195470370952"><ele>349.0</ele><time>2026-04-29T10:44:10.103Z</time></trkpt><trkpt lat="40.28452361944656" lon="8.555370830950805"><ele>349.0</ele><time>2026-04-29T10:44:11.103Z</time></trkpt><trkpt lat="40.28455443241023" lon="8.555552648625515"><ele>349.0</ele><time>2026-04-29T10:44:12.103Z</time></trkpt><trkpt lat="40.28456727256353" lon="8.555734606901595"><ele>349.0</ele><time>2026-04-29T10:44:13.103Z</time></trkpt><trkpt lat="40.28458165996513" lon="8.555907041510272"><ele>349.0</ele><time>2026-04-29T10:44:14.103Z</time></trkpt><trkpt lat="40.28459944137681" lon="8.556066981325655"><ele>349.0</ele><time>2026-04-29T10:44:15.103Z</time></trkpt><trkpt lat="40.28462198861917" lon="8.556221868399351"><ele>349.0</ele><time>2026-04-29T10:44:16.103Z</time></trkpt><trkpt lat="40.28464380228774" lon="8.556372843017527"><ele>349.0</ele><time>2026-04-29T10:44:17.103Z</time></trkpt><trkpt lat="40.284679485307734" lon="8.556516321664306"><ele>349.0</ele><time>2026-04-29T10:44:18.103Z</time></trkpt><trkpt lat="40.2847257032337" lon="8.55666046907135"><ele>349.0</ele><time>2026-04-29T10:44:19.103Z</time></trkpt><trkpt lat="40.28478580274395" lon="8.556791336439574"><ele>349.0</ele><time>2026-04-29T10:44:20.103Z</time></trkpt><trkpt lat="40.284846121340784" lon="8.556917028498473"><ele>348.79999999999995</ele><time>2026-04-29T10:44:21.103Z</time></trkpt><trkpt lat="40.28490462240937" lon="8.55703198956639"><ele>348.59999999999997</ele><time>2026-04-29T10:44:22.103Z</time></trkpt><trkpt lat="40.284965036248295" lon="8.557135761057395"><ele>348.4</ele><time>2026-04-29T10:44:23.103Z</time></trkpt><trkpt lat="40.28502758846267" lon="8.55723757130097"><ele>348.2</ele><time>2026-04-29T10:44:24.103Z</time></trkpt><trkpt lat="40.28508641698716" lon="8.557342881786417"><ele>348.0</ele><time>2026-04-29T10:44:25.103Z</time></trkpt><trkpt lat="40.28514840726717" lon="8.557444852736708"><ele>348.0</ele><time>2026-04-29T10:44:26.103Z</time></trkpt><trkpt lat="40.285203901976075" lon="8.557547341422692"><ele>348.0</ele><time>2026-04-29T10:44:27.103Z</time></trkpt><trkpt lat="40.28526117278084" lon="8.557644317817507"><ele>348.0</ele><time>2026-04-29T10:44:28.103Z</time></trkpt><trkpt lat="40.28532031981839" lon="8.557747435602941"><ele>348.0</ele><time>2026-04-29T10:44:29.103Z</time></trkpt><trkpt lat="40.28537998700503" lon="8.55785134826279"><ele>348.0</ele><time>2026-04-29T10:44:30.103Z</time></trkpt><trkpt lat="40.28544138141475" lon="8.557963696288182"><ele>348.0</ele><time>2026-04-29T10:44:31.103Z</time></trkpt><trkpt lat="40.285508732670046" lon="8.558078567239141"><ele>348.0</ele><time>2026-04-29T10:44:32.103Z</time></trkpt><trkpt lat="40.285580941506964" lon="8.558197242653137"><ele>348.0</ele><time>2026-04-29T10:44:33.103Z</time></trkpt><trkpt lat="40.28565437115504" lon="8.55832564482614"><ele>348.0</ele><time>2026-04-29T10:44:34.103Z</time></trkpt><trkpt lat="40.28573280022221" lon="8.558468214067979"><ele>347.5</ele><time>2026-04-29T10:44:35.103Z</time></trkpt><trkpt lat="40.28581669372622" lon="8.558616369261104"><ele>347.0</ele><time>2026-04-29T10:44:36.103Z</time></trkpt><trkpt lat="40.285906955970376" lon="8.558764047657702"><ele>346.5</ele><time>2026-04-29T10:44:37.103Z</time></trkpt><trkpt lat="40.28599874196734" lon="8.558925360982974"><ele>346.0</ele><time>2026-04-29T10:44:38.103Z</time></trkpt><trkpt lat="40.2860994434496" lon="8.55910512511718"><ele>346.0</ele><time>2026-04-29T10:44:39.103Z</time></trkpt><trkpt lat="40.2862074784717" lon="8.559298561123207"><ele>346.0</ele><time>2026-04-29T10:44:40.103Z</time></trkpt><trkpt lat="40.28632231841705" lon="8.559500803669739"><ele>346.0</ele><time>2026-04-29T10:44:41.103Z</time></trkpt><trkpt lat="40.28644428950603" lon="8.55971786960359"><ele>346.0</ele><time>2026-04-29T10:44:42.103Z</time></trkpt><trkpt lat="40.28657348753004" lon="8.559944951371238"><ele>346.0</ele><time>2026-04-29T10:44:43.103Z</time></trkpt><trkpt lat="40.28671106827734" lon="8.560182645255418"><ele>346.0</ele><time>2026-04-29T10:44:44.103Z</time></trkpt><trkpt lat="40.286854638816216" lon="8.560424260419035"><ele>346.5</ele><time>2026-04-29T10:44:45.103Z</time></trkpt><trkpt lat="40.28699883587906" lon="8.560665367488133"><ele>347.0</ele><time>2026-04-29T10:44:46.103Z</time></trkpt><trkpt lat="40.28715321051401" lon="8.560907506954507"><ele>346.5</ele><time>2026-04-29T10:44:47.103Z</time></trkpt><trkpt lat="40.28731505960761" lon="8.561156428546925"><ele>346.0</ele><time>2026-04-29T10:44:48.103Z</time></trkpt><trkpt lat="40.287480359988976" lon="8.561407241281186"><ele>346.0</ele><time>2026-04-29T10:44:49.103Z</time></trkpt><trkpt lat="40.28764504488549" lon="8.561660535756209"><ele>346.0</ele><time>2026-04-29T10:44:50.103Z</time></trkpt><trkpt lat="40.28781247817005" lon="8.561917397001364"><ele>346.0</ele><time>2026-04-29T10:44:51.103Z</time></trkpt><trkpt lat="40.28797561759643" lon="8.562170671638198"><ele>346.0</ele><time>2026-04-29T10:44:52.103Z</time></trkpt><trkpt lat="40.28813583208532" lon="8.56242144957031"><ele>346.0</ele><time>2026-04-29T10:44:53.103Z</time></trkpt><trkpt lat="40.28829742454785" lon="8.562674377777446"><ele>346.0</ele><time>2026-04-29T10:44:54.103Z</time></trkpt><trkpt lat="40.28845737263351" lon="8.562916937207566"><ele>346.0</ele><time>2026-04-29T10:44:55.103Z</time></trkpt><trkpt lat="40.28861650274865" lon="8.563161143739636"><ele>346.0</ele><time>2026-04-29T10:44:56.103Z</time></trkpt><trkpt lat="40.288773488673634" lon="8.563399156098708"><ele>346.0</ele><time>2026-04-29T10:44:57.103Z</time></trkpt><trkpt lat="40.28891642306436" lon="8.563613407923174"><ele>346.0</ele><time>2026-04-29T10:44:58.103Z</time></trkpt><trkpt lat="40.2890440365758" lon="8.56381045060603"><ele>346.0</ele><time>2026-04-29T10:44:59.103Z</time></trkpt><trkpt lat="40.28914608798195" lon="8.56400804254213"><ele>345.3333333333333</ele><time>2026-04-29T10:45:00.103Z</time></trkpt><trkpt lat="40.289179700319785" lon="8.564223615931624"><ele>344.6666666666667</ele><time>2026-04-29T10:45:01.103Z</time></trkpt><trkpt lat="40.28915702350063" lon="8.564461452822608"><ele>344.0</ele><time>2026-04-29T10:45:02.103Z</time></trkpt><trkpt lat="40.2891053963031" lon="8.564714163908063"><ele>343.0</ele><time>2026-04-29T10:45:03.103Z</time></trkpt><trkpt lat="40.28905751790891" lon="8.564992880298153"><ele>342.0</ele><time>2026-04-29T10:45:04.103Z</time></trkpt><trkpt lat="40.28900488214579" lon="8.565284362438328"><ele>341.0</ele><time>2026-04-29T10:45:05.103Z</time></trkpt><trkpt lat="40.28895434808263" lon="8.565556109978635"><ele>342.6666666666667</ele><time>2026-04-29T10:45:06.103Z</time></trkpt><trkpt lat="40.28891364503819" lon="8.565806583789115"><ele>344.3333333333333</ele><time>2026-04-29T10:45:07.103Z</time></trkpt><trkpt lat="40.288878796094465" lon="8.56601440436804"><ele>346.0</ele><time>2026-04-29T10:45:08.103Z</time></trkpt><trkpt lat="40.288879098389856" lon="8.56617890969343"><ele>345.0</ele><time>2026-04-29T10:45:09.103Z</time></trkpt><trkpt lat="40.28894138882471" lon="8.566310563512893"><ele>344.0</ele><time>2026-04-29T10:45:10.103Z</time></trkpt><trkpt lat="40.28907208337225" lon="8.566398334899425"><ele>343.0</ele><time>2026-04-29T10:45:11.103Z</time></trkpt><trkpt lat="40.28922472859889" lon="8.566494986354162"><ele>342.0</ele><time>2026-04-29T10:45:12.103Z</time></trkpt><trkpt lat="40.289348537484514" lon="8.566580764709956"><ele>342.0</ele><time>2026-04-29T10:45:13.103Z</time></trkpt><trkpt lat="40.28948099994317" lon="8.566558073801609"><ele>342.0</ele><time>2026-04-29T10:45:14.103Z</time></trkpt><trkpt lat="40.289611259034146" lon="8.566447958869228"><ele>342.0</ele><time>2026-04-29T10:45:15.103Z</time></trkpt><trkpt lat="40.28976832725683" lon="8.56633579070592"><ele>343.3333333333333</ele><time>2026-04-29T10:45:16.103Z</time></trkpt><trkpt lat="40.28996280549831" lon="8.566336842371935"><ele>344.66666666666663</ele><time>2026-04-29T10:45:17.103Z</time></trkpt><trkpt lat="40.29015432171982" lon="8.566365850762937"><ele>346.0</ele><time>2026-04-29T10:45:18.103Z</time></trkpt><trkpt lat="40.29036652420832" lon="8.566395545143275"><ele>346.0</ele><time>2026-04-29T10:45:19.103Z</time></trkpt><trkpt lat="40.290584321174535" lon="8.566418876769763"><ele>346.0</ele><time>2026-04-29T10:45:20.103Z</time></trkpt><trkpt lat="40.29079942309522" lon="8.566444462196435"><ele>346.0</ele><time>2026-04-29T10:45:21.103Z</time></trkpt><trkpt lat="40.290993180339186" lon="8.566463825792404"><ele>346.66666666666663</ele><time>2026-04-29T10:45:22.103Z</time></trkpt><trkpt lat="40.291161953297724" lon="8.56648442092182"><ele>347.3333333333333</ele><time>2026-04-29T10:45:23.103Z</time></trkpt><trkpt lat="40.291304477172716" lon="8.566563978636703"><ele>348.0</ele><time>2026-04-29T10:45:24.103Z</time></trkpt><trkpt lat="40.29141981811762" lon="8.566750508284859"><ele>349.0</ele><time>2026-04-29T10:45:25.103Z</time></trkpt><trkpt lat="40.29149042377233" lon="8.566981414703791"><ele>350.0</ele><time>2026-04-29T10:45:26.103Z</time></trkpt><trkpt lat="40.29156177716832" lon="8.567237636007828"><ele>351.0</ele><time>2026-04-29T10:45:27.103Z</time></trkpt><trkpt lat="40.29163857795856" lon="8.56749558387322"><ele>351.6666666666667</ele><time>2026-04-29T10:45:28.103Z</time></trkpt><trkpt lat="40.29172257563112" lon="8.567751633246145"><ele>352.33333333333337</ele><time>2026-04-29T10:45:29.103Z</time></trkpt><trkpt lat="40.29181141982552" lon="8.568016192808843"><ele>353.0</ele><time>2026-04-29T10:45:30.103Z</time></trkpt><trkpt lat="40.291903140282336" lon="8.568286947467245"><ele>353.5</ele><time>2026-04-29T10:45:31.103Z</time></trkpt><trkpt lat="40.29199147579471" lon="8.56856845622014"><ele>354.0</ele><time>2026-04-29T10:45:32.103Z</time></trkpt><trkpt lat="40.29207845976905" lon="8.568856902688207"><ele>354.0</ele><time>2026-04-29T10:45:33.103Z</time></trkpt><trkpt lat="40.29216635564115" lon="8.569140841262865"><ele>354.0</ele><time>2026-04-29T10:45:34.103Z</time></trkpt><trkpt lat="40.292253739503316" lon="8.569419345105906"><ele>356.5</ele><time>2026-04-29T10:45:35.103Z</time></trkpt><trkpt lat="40.29234905128955" lon="8.569688458021984"><ele>359.0</ele><time>2026-04-29T10:45:36.103Z</time></trkpt><trkpt lat="40.292457845745254" lon="8.569950261264555"><ele>359.0</ele><time>2026-04-29T10:45:37.103Z</time></trkpt><trkpt lat="40.29258256142228" lon="8.570200061094098"><ele>359.0</ele><time>2026-04-29T10:45:38.103Z</time></trkpt><trkpt lat="40.29272730523784" lon="8.57043726202086"><ele>358.0</ele><time>2026-04-29T10:45:39.103Z</time></trkpt><trkpt lat="40.292883916175136" lon="8.570663904018824"><ele>357.0</ele><time>2026-04-29T10:45:40.103Z</time></trkpt><trkpt lat="40.293050834105834" lon="8.570890964860924"><ele>357.5</ele><time>2026-04-29T10:45:41.103Z</time></trkpt><trkpt lat="40.29321987875481" lon="8.57112125525072"><ele>358.0</ele><time>2026-04-29T10:45:42.103Z</time></trkpt><trkpt lat="40.29338837585421" lon="8.571355513803168"><ele>358.5</ele><time>2026-04-29T10:45:43.103Z</time></trkpt><trkpt lat="40.29355525703861" lon="8.571587349320158"><ele>359.0</ele><time>2026-04-29T10:45:44.103Z</time></trkpt><trkpt lat="40.29372165961025" lon="8.571826700470195"><ele>360.0</ele><time>2026-04-29T10:45:45.103Z</time></trkpt><trkpt lat="40.293889846139315" lon="8.572068245682212"><ele>361.0</ele><time>2026-04-29T10:45:46.103Z</time></trkpt><trkpt lat="40.29405877446991" lon="8.572300783430212"><ele>361.0</ele><time>2026-04-29T10:45:47.103Z</time></trkpt><trkpt lat="40.294227237641515" lon="8.572533886533792"><ele>361.0</ele><time>2026-04-29T10:45:48.103Z</time></trkpt><trkpt lat="40.294399683447594" lon="8.572770835125889"><ele>361.5</ele><time>2026-04-29T10:45:49.103Z</time></trkpt><trkpt lat="40.29456407503097" lon="8.573009261855018"><ele>362.0</ele><time>2026-04-29T10:45:50.103Z</time></trkpt><trkpt lat="40.294729005779864" lon="8.573246695374563"><ele>362.5</ele><time>2026-04-29T10:45:51.103Z</time></trkpt><trkpt lat="40.29489770244653" lon="8.573481074474563"><ele>363.0</ele><time>2026-04-29T10:45:52.103Z</time></trkpt><trkpt lat="40.29507085286038" lon="8.573719162774044"><ele>364.0</ele><time>2026-04-29T10:45:53.103Z</time></trkpt><trkpt lat="40.29524282443035" lon="8.573956572258902"><ele>365.0</ele><time>2026-04-29T10:45:54.103Z</time></trkpt><trkpt lat="40.29541044662307" lon="8.574201626697404"><ele>365.0</ele><time>2026-04-29T10:45:55.103Z</time></trkpt><trkpt lat="40.2955855833081" lon="8.574448122594198"><ele>365.0</ele><time>2026-04-29T10:45:56.103Z</time></trkpt><trkpt lat="40.295758939973005" lon="8.574685311088146"><ele>364.5</ele><time>2026-04-29T10:45:57.103Z</time></trkpt><trkpt lat="40.29594206722893" lon="8.57491939423024"><ele>364.0</ele><time>2026-04-29T10:45:58.103Z</time></trkpt><trkpt lat="40.29613553346928" lon="8.57514171893927"><ele>365.0</ele><time>2026-04-29T10:45:59.103Z</time></trkpt><trkpt lat="40.29634393179043" lon="8.57535717939477"><ele>366.0</ele><time>2026-04-29T10:46:00.103Z</time></trkpt><trkpt lat="40.29655672879442" lon="8.575557509728299"><ele>366.0</ele><time>2026-04-29T10:46:01.103Z</time></trkpt><trkpt lat="40.296776316906545" lon="8.575764501130806"><ele>366.0</ele><time>2026-04-29T10:46:02.103Z</time></trkpt><trkpt lat="40.296990422776204" lon="8.575970993413396"><ele>366.0</ele><time>2026-04-29T10:46:03.103Z</time></trkpt><trkpt lat="40.29720025708019" lon="8.576177597136988"><ele>366.0</ele><time>2026-04-29T10:46:04.104Z</time></trkpt><trkpt lat="40.29740756003815" lon="8.576381459176124"><ele>365.5</ele><time>2026-04-29T10:46:05.103Z</time></trkpt><trkpt lat="40.297618991126214" lon="8.576580356417658"><ele>365.0</ele><time>2026-04-29T10:46:06.103Z</time></trkpt><trkpt lat="40.29783669607163" lon="8.576781886230785"><ele>365.0</ele><time>2026-04-29T10:46:07.104Z</time></trkpt><trkpt lat="40.29805246074032" lon="8.576992050089704"><ele>365.0</ele><time>2026-04-29T10:46:08.103Z</time></trkpt><trkpt lat="40.29826737979482" lon="8.57719465146199"><ele>363.5</ele><time>2026-04-29T10:46:09.103Z</time></trkpt><trkpt lat="40.29848770074272" lon="8.577394321207867"><ele>362.0</ele><time>2026-04-29T10:46:10.103Z</time></trkpt><trkpt lat="40.29870238063998" lon="8.577598493826626"><ele>362.0</ele><time>2026-04-29T10:46:11.103Z</time></trkpt><trkpt lat="40.29891495230069" lon="8.577803888592475"><ele>362.0</ele><time>2026-04-29T10:46:12.103Z</time></trkpt><trkpt lat="40.29912272501878" lon="8.578007096763894"><ele>364.0</ele><time>2026-04-29T10:46:13.103Z</time></trkpt><trkpt lat="40.299327591600786" lon="8.57820959768005"><ele>366.0</ele><time>2026-04-29T10:46:14.103Z</time></trkpt><trkpt lat="40.29953338717065" lon="8.578410359460023"><ele>366.0</ele><time>2026-04-29T10:46:15.103Z</time></trkpt><trkpt lat="40.299743277330684" lon="8.57861164103086"><ele>366.0</ele><time>2026-04-29T10:46:16.103Z</time></trkpt><trkpt lat="40.29994824953092" lon="8.578815466416115"><ele>367.5</ele><time>2026-04-29T10:46:17.103Z</time></trkpt><trkpt lat="40.30014928837086" lon="8.57901768454164"><ele>369.0</ele><time>2026-04-29T10:46:18.103Z</time></trkpt><trkpt lat="40.30034013009367" lon="8.57922568143268"><ele>369.0</ele><time>2026-04-29T10:46:19.103Z</time></trkpt><trkpt lat="40.300527755555905" lon="8.579454130951687"><ele>369.0</ele><time>2026-04-29T10:46:20.103Z</time></trkpt><trkpt lat="40.30071476673139" lon="8.579672903352845"><ele>368.0</ele><time>2026-04-29T10:46:21.103Z</time></trkpt><trkpt lat="40.30090037267364" lon="8.579895932540188"><ele>367.0</ele><time>2026-04-29T10:46:22.103Z</time></trkpt><trkpt lat="40.30108624180574" lon="8.58011416711418"><ele>367.0</ele><time>2026-04-29T10:46:23.103Z</time></trkpt><trkpt lat="40.30127008321692" lon="8.580325686290475"><ele>367.0</ele><time>2026-04-29T10:46:24.103Z</time></trkpt><trkpt lat="40.30145150524662" lon="8.580542015434322"><ele>364.0</ele><time>2026-04-29T10:46:25.103Z</time></trkpt><trkpt lat="40.301633876225964" lon="8.58076002850361"><ele>361.0</ele><time>2026-04-29T10:46:26.103Z</time></trkpt><trkpt lat="40.301809573191704" lon="8.580969261962645"><ele>361.0</ele><time>2026-04-29T10:46:27.103Z</time></trkpt><trkpt lat="40.30198025417979" lon="8.58116763668354"><ele>361.0</ele><time>2026-04-29T10:46:28.103Z</time></trkpt><trkpt lat="40.302145848303915" lon="8.581369087407236"><ele>358.66666666666663</ele><time>2026-04-29T10:46:29.103Z</time></trkpt><trkpt lat="40.30229192271018" lon="8.5815618083028"><ele>356.3333333333333</ele><time>2026-04-29T10:46:30.103Z</time></trkpt><trkpt lat="40.30241999713666" lon="8.581730092360557"><ele>354.0</ele><time>2026-04-29T10:46:31.103Z</time></trkpt><trkpt lat="40.30253327663334" lon="8.581880395189199"><ele>354.5</ele><time>2026-04-29T10:46:32.103Z</time></trkpt><trkpt lat="40.302610438485566" lon="8.582037291458366"><ele>355.0</ele><time>2026-04-29T10:46:33.103Z</time></trkpt><trkpt lat="40.302611036873714" lon="8.582216735341756"><ele>355.5</ele><time>2026-04-29T10:46:34.103Z</time></trkpt><trkpt lat="40.30255134201425" lon="8.582363251188536"><ele>356.0</ele><time>2026-04-29T10:46:35.103Z</time></trkpt><trkpt lat="40.30250759219573" lon="8.582494304444957"><ele>356.0</ele><time>2026-04-29T10:46:36.103Z</time></trkpt><trkpt lat="40.30251404037865" lon="8.582638790265083"><ele>356.0</ele><time>2026-04-29T10:46:37.103Z</time></trkpt><trkpt lat="40.30258597964968" lon="8.582758236446665"><ele>356.0</ele><time>2026-04-29T10:46:38.103Z</time></trkpt><trkpt lat="40.3027178680473" lon="8.582831308971619"><ele>356.0</ele><time>2026-04-29T10:46:39.103Z</time></trkpt><trkpt lat="40.3028920701607" lon="8.58289765846959"><ele>357.33333333333337</ele><time>2026-04-29T10:46:40.103Z</time></trkpt><trkpt lat="40.30307680048779" lon="8.582984171170043"><ele>358.6666666666667</ele><time>2026-04-29T10:46:41.103Z</time></trkpt><trkpt lat="40.30325649660912" lon="8.583045647186323"><ele>360.0</ele><time>2026-04-29T10:46:42.103Z</time></trkpt><trkpt lat="40.30344302074858" lon="8.583021150191584"><ele>360.0</ele><time>2026-04-29T10:46:43.103Z</time></trkpt><trkpt lat="40.30362961285243" lon="8.582917414418032"><ele>360.0</ele><time>2026-04-29T10:46:44.103Z</time></trkpt><trkpt lat="40.303788956856636" lon="8.58275027333774"><ele>360.0</ele><time>2026-04-29T10:46:45.103Z</time></trkpt><trkpt lat="40.303916777769956" lon="8.582546645407099"><ele>360.3333333333333</ele><time>2026-04-29T10:46:46.103Z</time></trkpt><trkpt lat="40.30403572454416" lon="8.582365095882418"><ele>360.66666666666663</ele><time>2026-04-29T10:46:47.103Z</time></trkpt><trkpt lat="40.30415841944048" lon="8.58220260637608"><ele>361.0</ele><time>2026-04-29T10:46:48.103Z</time></trkpt><trkpt lat="40.30428611296501" lon="8.582033284375077"><ele>361.0</ele><time>2026-04-29T10:46:49.103Z</time></trkpt><trkpt lat="40.30443562563493" lon="8.581885481591385"><ele>361.0</ele><time>2026-04-29T10:46:50.103Z</time></trkpt><trkpt lat="40.304614633225256" lon="8.58176359694671"><ele>361.0</ele><time>2026-04-29T10:46:51.103Z</time></trkpt><trkpt lat="40.30481110753254" lon="8.581653701776439"><ele>361.0</ele><time>2026-04-29T10:46:52.103Z</time></trkpt><trkpt lat="40.30501961387909" lon="8.58157365487696"><ele>361.0</ele><time>2026-04-29T10:46:53.103Z</time></trkpt><trkpt lat="40.305230071201706" lon="8.581540193491124"><ele>361.0</ele><time>2026-04-29T10:46:54.103Z</time></trkpt><trkpt lat="40.30543970157726" lon="8.581529964656452"><ele>360.3333333333333</ele><time>2026-04-29T10:46:55.103Z</time></trkpt><trkpt lat="40.30565558010494" lon="8.581518621409232"><ele>359.6666666666667</ele><time>2026-04-29T10:46:56.103Z</time></trkpt><trkpt lat="40.30586820075296" lon="8.581501644630382"><ele>359.0</ele><time>2026-04-29T10:46:57.103Z</time></trkpt><trkpt lat="40.3060865910715" lon="8.581475253451185"><ele>359.0</ele><time>2026-04-29T10:46:58.103Z</time></trkpt><trkpt lat="40.30631557737313" lon="8.581474186499076"><ele>359.0</ele><time>2026-04-29T10:46:59.103Z</time></trkpt><trkpt lat="40.306554320334975" lon="8.581473788622876"><ele>357.5</ele><time>2026-04-29T10:47:00.103Z</time></trkpt><trkpt lat="40.30679614914097" lon="8.58146470841588"><ele>356.0</ele><time>2026-04-29T10:47:01.103Z</time></trkpt><trkpt lat="40.30704398803402" lon="8.581449720886749"><ele>355.0</ele><time>2026-04-29T10:47:02.103Z</time></trkpt><trkpt lat="40.30730436990955" lon="8.581427453816106"><ele>354.0</ele><time>2026-04-29T10:47:03.103Z</time></trkpt><trkpt lat="40.307568789635454" lon="8.58140121711751"><ele>354.0</ele><time>2026-04-29T10:47:04.103Z</time></trkpt><trkpt lat="40.30783933806203" lon="8.581385256230236"><ele>354.0</ele><time>2026-04-29T10:47:05.103Z</time></trkpt><trkpt lat="40.30811653630163" lon="8.581374754147811"><ele>353.0</ele><time>2026-04-29T10:47:06.103Z</time></trkpt><trkpt lat="40.308396145731145" lon="8.581374931996173"><ele>352.0</ele><time>2026-04-29T10:47:07.103Z</time></trkpt><trkpt lat="40.30867406694603" lon="8.581363792289688"><ele>352.0</ele><time>2026-04-29T10:47:08.103Z</time></trkpt><trkpt lat="40.308953276203205" lon="8.581350159528029"><ele>352.0</ele><time>2026-04-29T10:47:09.103Z</time></trkpt><trkpt lat="40.30922745683161" lon="8.581336623223715"><ele>352.0</ele><time>2026-04-29T10:47:10.103Z</time></trkpt><trkpt lat="40.30949480507207" lon="8.581318554993468"><ele>352.0</ele><time>2026-04-29T10:47:11.103Z</time></trkpt><trkpt lat="40.309759196195955" lon="8.581284784056237"><ele>351.0</ele><time>2026-04-29T10:47:12.103Z</time></trkpt><trkpt lat="40.310022151238414" lon="8.581234746170708"><ele>350.0</ele><time>2026-04-29T10:47:13.103Z</time></trkpt><trkpt lat="40.310277659269744" lon="8.581176594841288"><ele>349.5</ele><time>2026-04-29T10:47:14.103Z</time></trkpt><trkpt lat="40.310518312690135" lon="8.581113486855022"><ele>349.0</ele><time>2026-04-29T10:47:15.103Z</time></trkpt><trkpt lat="40.310743625754924" lon="8.581015628524803"><ele>348.0</ele><time>2026-04-29T10:47:16.103Z</time></trkpt><trkpt lat="40.31095696483203" lon="8.580851561781477"><ele>347.0</ele><time>2026-04-29T10:47:17.103Z</time></trkpt><trkpt lat="40.31116197599999" lon="8.580654525785873"><ele>347.0</ele><time>2026-04-29T10:47:18.103Z</time></trkpt><trkpt lat="40.31136827792888" lon="8.580443930195703"><ele>347.0</ele><time>2026-04-29T10:47:19.103Z</time></trkpt><trkpt lat="40.31157998070319" lon="8.580233087544574"><ele>345.5</ele><time>2026-04-29T10:47:20.103Z</time></trkpt><trkpt lat="40.311798534272896" lon="8.580021456032158"><ele>344.0</ele><time>2026-04-29T10:47:21.103Z</time></trkpt><trkpt lat="40.31200953127476" lon="8.579815403505139"><ele>344.0</ele><time>2026-04-29T10:47:22.103Z</time></trkpt><trkpt lat="40.31221024232158" lon="8.579609170733558"><ele>344.0</ele><time>2026-04-29T10:47:23.103Z</time></trkpt><trkpt lat="40.31241737933174" lon="8.579408943283935"><ele>342.5</ele><time>2026-04-29T10:47:24.103Z</time></trkpt><trkpt lat="40.312622439398154" lon="8.579203773815532"><ele>341.0</ele><time>2026-04-29T10:47:25.103Z</time></trkpt><trkpt lat="40.31282285879274" lon="8.579005293534738"><ele>341.0</ele><time>2026-04-29T10:47:26.103Z</time></trkpt><trkpt lat="40.31302127887985" lon="8.578810963049413"><ele>341.0</ele><time>2026-04-29T10:47:27.103Z</time></trkpt><trkpt lat="40.313231771111006" lon="8.578608934884105"><ele>340.0</ele><time>2026-04-29T10:47:28.103Z</time></trkpt><trkpt lat="40.31344354958685" lon="8.578401406191029"><ele>339.0</ele><time>2026-04-29T10:47:29.103Z</time></trkpt><trkpt lat="40.313657942739106" lon="8.578189450660485"><ele>339.0</ele><time>2026-04-29T10:47:30.103Z</time></trkpt><trkpt lat="40.3138736141051" lon="8.577971519301212"><ele>339.0</ele><time>2026-04-29T10:47:31.103Z</time></trkpt><trkpt lat="40.31408943650307" lon="8.57775470865565"><ele>338.5</ele><time>2026-04-29T10:47:32.103Z</time></trkpt><trkpt lat="40.314305181893" lon="8.577544845798894"><ele>338.0</ele><time>2026-04-29T10:47:33.103Z</time></trkpt><trkpt lat="40.31452156282829" lon="8.57733455161808"><ele>338.0</ele><time>2026-04-29T10:47:34.103Z</time></trkpt><trkpt lat="40.314728677496475" lon="8.577125428701585"><ele>338.0</ele><time>2026-04-29T10:47:35.103Z</time></trkpt><trkpt lat="40.31492131358335" lon="8.576929898504293"><ele>335.6666666666667</ele><time>2026-04-29T10:47:36.103Z</time></trkpt><trkpt lat="40.31509738199913" lon="8.57675556485997"><ele>333.3333333333333</ele><time>2026-04-29T10:47:37.103Z</time></trkpt><trkpt lat="40.31525953777649" lon="8.5766245428394"><ele>331.0</ele><time>2026-04-29T10:47:38.103Z</time></trkpt><trkpt lat="40.31543111164617" lon="8.576583474824844"><ele>331.0</ele><time>2026-04-29T10:47:39.103Z</time></trkpt><trkpt lat="40.315619140416736" lon="8.576705519498356"><ele>331.0</ele><time>2026-04-29T10:47:40.103Z</time></trkpt><trkpt lat="40.31580388702587" lon="8.57688253540858"><ele>331.0</ele><time>2026-04-29T10:47:41.103Z</time></trkpt><trkpt lat="40.315992215711816" lon="8.577051400848505"><ele>331.5</ele><time>2026-04-29T10:47:42.103Z</time></trkpt><trkpt lat="40.316190209762645" lon="8.577194544343147"><ele>332.0</ele><time>2026-04-29T10:47:43.103Z</time></trkpt><trkpt lat="40.31639424594556" lon="8.577336388955928"><ele>331.5</ele><time>2026-04-29T10:47:44.103Z</time></trkpt><trkpt lat="40.31659883429662" lon="8.577488316655058"><ele>331.0</ele><time>2026-04-29T10:47:45.103Z</time></trkpt><trkpt lat="40.31680464288601" lon="8.577645570246059"><ele>331.0</ele><time>2026-04-29T10:47:46.103Z</time></trkpt><trkpt lat="40.31701153166708" lon="8.577804491642107"><ele>331.0</ele><time>2026-04-29T10:47:47.103Z</time></trkpt><trkpt lat="40.31722133129846" lon="8.577961593945881"><ele>330.0</ele><time>2026-04-29T10:47:48.103Z</time></trkpt><trkpt lat="40.31743547139076" lon="8.578119008969576"><ele>329.0</ele><time>2026-04-29T10:47:49.103Z</time></trkpt><trkpt lat="40.31765548531943" lon="8.578284747966983"><ele>329.0</ele><time>2026-04-29T10:47:50.103Z</time></trkpt><trkpt lat="40.31787465882044" lon="8.578450354027785"><ele>329.0</ele><time>2026-04-29T10:47:51.103Z</time></trkpt><trkpt lat="40.31809379875616" lon="8.57861355908977"><ele>329.0</ele><time>2026-04-29T10:47:52.103Z</time></trkpt><trkpt lat="40.31831429397385" lon="8.578777910155583"><ele>329.0</ele><time>2026-04-29T10:47:53.103Z</time></trkpt><trkpt lat="40.31853316515822" lon="8.578943073153905"><ele>329.0</ele><time>2026-04-29T10:47:54.103Z</time></trkpt><trkpt lat="40.31875152626999" lon="8.579107880012097"><ele>329.0</ele><time>2026-04-29T10:47:55.103Z</time></trkpt><trkpt lat="40.31897338607829" lon="8.579272678967097"><ele>329.0</ele><time>2026-04-29T10:47:56.103Z</time></trkpt><trkpt lat="40.319198129367265" lon="8.579440635761197"><ele>329.0</ele><time>2026-04-29T10:47:57.103Z</time></trkpt><trkpt lat="40.319421936461595" lon="8.579609317794638"><ele>329.5</ele><time>2026-04-29T10:47:58.103Z</time></trkpt><trkpt lat="40.31964686713329" lon="8.579773769422975"><ele>330.0</ele><time>2026-04-29T10:47:59.103Z</time></trkpt><trkpt lat="40.31987585174834" lon="8.579941762874022"><ele>330.0</ele><time>2026-04-29T10:48:00.103Z</time></trkpt><trkpt lat="40.32010159560806" lon="8.580095549388922"><ele>330.0</ele><time>2026-04-29T10:48:01.103Z</time></trkpt><trkpt lat="40.32033540662871" lon="8.58023164584345"><ele>329.5</ele><time>2026-04-29T10:48:02.103Z</time></trkpt><trkpt lat="40.320580982661944" lon="8.5803599750627"><ele>329.0</ele><time>2026-04-29T10:48:03.103Z</time></trkpt><trkpt lat="40.320830595999865" lon="8.58047678315522"><ele>329.0</ele><time>2026-04-29T10:48:04.105Z</time></trkpt><trkpt lat="40.321086984104305" lon="8.58059030028404"><ele>329.0</ele><time>2026-04-29T10:48:05.104Z</time></trkpt><trkpt lat="40.321338321746175" lon="8.580700162302485"><ele>328.0</ele><time>2026-04-29T10:48:06.104Z</time></trkpt><trkpt lat="40.321595714459164" lon="8.580813036080437"><ele>327.0</ele><time>2026-04-29T10:48:07.104Z</time></trkpt><trkpt lat="40.32185026058044" lon="8.580928011513631"><ele>327.0</ele><time>2026-04-29T10:48:08.104Z</time></trkpt><trkpt lat="40.32210193218399" lon="8.581043791053519"><ele>327.0</ele><time>2026-04-29T10:48:09.104Z</time></trkpt><trkpt lat="40.322354720737394" lon="8.581160271451974"><ele>327.5</ele><time>2026-04-29T10:48:10.104Z</time></trkpt><trkpt lat="40.32260795203186" lon="8.581272305573307"><ele>328.0</ele><time>2026-04-29T10:48:11.104Z</time></trkpt><trkpt lat="40.32285907052414" lon="8.58138294478614"><ele>327.5</ele><time>2026-04-29T10:48:12.104Z</time></trkpt><trkpt lat="40.323112995747906" lon="8.581491285184724"><ele>327.0</ele><time>2026-04-29T10:48:13.104Z</time></trkpt><trkpt lat="40.323369531391414" lon="8.58160320621561"><ele>327.0</ele><time>2026-04-29T10:48:14.104Z</time></trkpt><trkpt lat="40.323623501491035" lon="8.581719453256381"><ele>327.0</ele><time>2026-04-29T10:48:15.104Z</time></trkpt><trkpt lat="40.3238757653308" lon="8.581839018673428"><ele>328.0</ele><time>2026-04-29T10:48:16.104Z</time></trkpt><trkpt lat="40.32413141648837" lon="8.581947053794998"><ele>329.0</ele><time>2026-04-29T10:48:17.105Z</time></trkpt><trkpt lat="40.32439159484491" lon="8.582057823922632"><ele>329.0</ele><time>2026-04-29T10:48:18.105Z</time></trkpt><trkpt lat="40.324645565606914" lon="8.582169965574344"><ele>329.0</ele><time>2026-04-29T10:48:19.105Z</time></trkpt><trkpt lat="40.32489748287669" lon="8.582286138416597"><ele>331.0</ele><time>2026-04-29T10:48:20.105Z</time></trkpt><trkpt lat="40.325145960603194" lon="8.582397977738204"><ele>333.0</ele><time>2026-04-29T10:48:21.105Z</time></trkpt><trkpt lat="40.32539510376243" lon="8.582512571550769"><ele>334.5</ele><time>2026-04-29T10:48:22.105Z</time></trkpt><trkpt lat="40.32564615026005" lon="8.582623038930793"><ele>336.0</ele><time>2026-04-29T10:48:23.105Z</time></trkpt><trkpt lat="40.32589995862934" lon="8.582736791065155"><ele>336.0</ele><time>2026-04-29T10:48:24.105Z</time></trkpt><trkpt lat="40.32615676444193" lon="8.582851069735419"><ele>336.0</ele><time>2026-04-29T10:48:25.105Z</time></trkpt><trkpt lat="40.32641572069595" lon="8.582966701706058"><ele>336.0</ele><time>2026-04-29T10:48:26.105Z</time></trkpt><trkpt lat="40.32667691956778" lon="8.583084824606495"><ele>336.0</ele><time>2026-04-29T10:48:27.105Z</time></trkpt><trkpt lat="40.32693424286853" lon="8.58320238365408"><ele>336.0</ele><time>2026-04-29T10:48:28.105Z</time></trkpt><trkpt lat="40.32719400604429" lon="8.583320002421411"><ele>336.0</ele><time>2026-04-29T10:48:29.105Z</time></trkpt><trkpt lat="40.32745154870557" lon="8.58343881949938"><ele>335.5</ele><time>2026-04-29T10:48:30.105Z</time></trkpt><trkpt lat="40.3277087744567" lon="8.583554149130656"><ele>335.0</ele><time>2026-04-29T10:48:31.105Z</time></trkpt><trkpt lat="40.32796150899333" lon="8.583668425878024"><ele>335.5</ele><time>2026-04-29T10:48:32.105Z</time></trkpt><trkpt lat="40.32821432027725" lon="8.583784794634203"><ele>336.0</ele><time>2026-04-29T10:48:33.105Z</time></trkpt><trkpt lat="40.328467550046526" lon="8.583898170214995"><ele>336.0</ele><time>2026-04-29T10:48:34.105Z</time></trkpt><trkpt lat="40.32872033933945" lon="8.584010580666437"><ele>336.0</ele><time>2026-04-29T10:48:35.105Z</time></trkpt><trkpt lat="40.32897144239083" lon="8.584121087925785"><ele>335.5</ele><time>2026-04-29T10:48:36.105Z</time></trkpt><trkpt lat="40.329225750806785" lon="8.584230391260727"><ele>335.0</ele><time>2026-04-29T10:48:37.105Z</time></trkpt><trkpt lat="40.32948485337498" lon="8.584349989791484"><ele>334.5</ele><time>2026-04-29T10:48:38.105Z</time></trkpt><trkpt lat="40.32974584334136" lon="8.584469169261217"><ele>334.0</ele><time>2026-04-29T10:48:39.105Z</time></trkpt><trkpt lat="40.33000351172888" lon="8.584585064543013"><ele>335.0</ele><time>2026-04-29T10:48:40.105Z</time></trkpt><trkpt lat="40.330256988370316" lon="8.584694320928735"><ele>336.0</ele><time>2026-04-29T10:48:41.105Z</time></trkpt><trkpt lat="40.3305094865282" lon="8.584807436479117"><ele>336.5</ele><time>2026-04-29T10:48:42.105Z</time></trkpt><trkpt lat="40.33075377851274" lon="8.584917129151142"><ele>337.0</ele><time>2026-04-29T10:48:43.105Z</time></trkpt><trkpt lat="40.33097552881645" lon="8.585021508633687"><ele>337.0</ele><time>2026-04-29T10:48:44.105Z</time></trkpt><trkpt lat="40.33118895041151" lon="8.58511927161395"><ele>337.0</ele><time>2026-04-29T10:48:45.105Z</time></trkpt><trkpt lat="40.33139082500313" lon="8.58520489896327"><ele>337.0</ele><time>2026-04-29T10:48:46.105Z</time></trkpt><trkpt lat="40.331576173917135" lon="8.585286589748232"><ele>336.66666666666663</ele><time>2026-04-29T10:48:47.105Z</time></trkpt><trkpt lat="40.33175077266001" lon="8.585360357424715"><ele>336.3333333333333</ele><time>2026-04-29T10:48:48.105Z</time></trkpt><trkpt lat="40.331917208347996" lon="8.585353697337542"><ele>336.0</ele><time>2026-04-29T10:48:49.105Z</time></trkpt><trkpt lat="40.33207979384488" lon="8.58526465774621"><ele>335.6666666666667</ele><time>2026-04-29T10:48:50.105Z</time></trkpt><trkpt lat="40.33225539010557" lon="8.585170058803405"><ele>335.33333333333337</ele><time>2026-04-29T10:48:51.105Z</time></trkpt><trkpt lat="40.332450172073436" lon="8.58512148354511"><ele>335.0</ele><time>2026-04-29T10:48:52.105Z</time></trkpt><trkpt lat="40.332647298598374" lon="8.585125940356674"><ele>335.0</ele><time>2026-04-29T10:48:53.105Z</time></trkpt><trkpt lat="40.332845614840046" lon="8.585136402773934"><ele>335.0</ele><time>2026-04-29T10:48:54.105Z</time></trkpt><trkpt lat="40.33305123119996" lon="8.58513006291054"><ele>335.0</ele><time>2026-04-29T10:48:55.105Z</time></trkpt><trkpt lat="40.333263462918936" lon="8.585113502381315"><ele>334.0</ele><time>2026-04-29T10:48:56.105Z</time></trkpt><trkpt lat="40.33346715264481" lon="8.58509036491442"><ele>333.0</ele><time>2026-04-29T10:48:57.105Z</time></trkpt><trkpt lat="40.3336487943496" lon="8.58506627504793"><ele>332.0</ele><time>2026-04-29T10:48:58.105Z</time></trkpt><trkpt lat="40.33380678717766" lon="8.585067859405708"><ele>331.6666666666667</ele><time>2026-04-29T10:48:59.105Z</time></trkpt><trkpt lat="40.33394996596624" lon="8.585160791232513"><ele>331.3333333333333</ele><time>2026-04-29T10:49:00.105Z</time></trkpt><trkpt lat="40.33406043966788" lon="8.585354137833807"><ele>331.0</ele><time>2026-04-29T10:49:01.105Z</time></trkpt><trkpt lat="40.33415831505094" lon="8.585587700300284"><ele>330.0</ele><time>2026-04-29T10:49:02.105Z</time></trkpt><trkpt lat="40.334259980786804" lon="8.585784626619569"><ele>329.0</ele><time>2026-04-29T10:49:03.105Z</time></trkpt><trkpt lat="40.33439410015233" lon="8.585944276376564"><ele>328.0</ele><time>2026-04-29T10:49:04.105Z</time></trkpt><trkpt lat="40.33456431899274" lon="8.586057400080552"><ele>328.0</ele><time>2026-04-29T10:49:05.105Z</time></trkpt><trkpt lat="40.33476160324923" lon="8.586140089339082"><ele>328.0</ele><time>2026-04-29T10:49:06.105Z</time></trkpt><trkpt lat="40.33493302344861" lon="8.586303478385936"><ele>328.0</ele><time>2026-04-29T10:49:07.105Z</time></trkpt><trkpt lat="40.335065647040146" lon="8.586517301262248"><ele>328.0</ele><time>2026-04-29T10:49:08.105Z</time></trkpt><trkpt lat="40.33517217343409" lon="8.586754412876637"><ele>328.0</ele><time>2026-04-29T10:49:09.105Z</time></trkpt><trkpt lat="40.33529566854965" lon="8.586985595344732"><ele>328.0</ele><time>2026-04-29T10:49:10.105Z</time></trkpt><trkpt lat="40.335452175049646" lon="8.587179527425874"><ele>327.0</ele><time>2026-04-29T10:49:11.105Z</time></trkpt><trkpt lat="40.33563701859971" lon="8.587339997044495"><ele>326.0</ele><time>2026-04-29T10:49:12.105Z</time></trkpt><trkpt lat="40.335826417216" lon="8.5874893897897"><ele>325.0</ele><time>2026-04-29T10:49:13.105Z</time></trkpt><trkpt lat="40.33599779875832" lon="8.587635915034022"><ele>325.0</ele><time>2026-04-29T10:49:14.105Z</time></trkpt><trkpt lat="40.33614476667558" lon="8.587760037126436"><ele>325.0</ele><time>2026-04-29T10:49:15.105Z</time></trkpt><trkpt lat="40.33626317040601" lon="8.58787512151883"><ele>325.0</ele><time>2026-04-29T10:49:16.105Z</time></trkpt><trkpt lat="40.33633462716303" lon="8.588024844695262"><ele>322.66666666666663</ele><time>2026-04-29T10:49:17.105Z</time></trkpt><trkpt lat="40.336341025384215" lon="8.588205786503345"><ele>320.3333333333333</ele><time>2026-04-29T10:49:18.105Z</time></trkpt><trkpt lat="40.336274098429534" lon="8.588380521714797"><ele>318.0</ele><time>2026-04-29T10:49:19.105Z</time></trkpt><trkpt lat="40.33615504078123" lon="8.588568716762909"><ele>316.0</ele><time>2026-04-29T10:49:20.105Z</time></trkpt><trkpt lat="40.336046274661676" lon="8.588779578935318"><ele>314.0</ele><time>2026-04-29T10:49:21.105Z</time></trkpt><trkpt lat="40.33595261878296" lon="8.588961635329913"><ele>312.0</ele><time>2026-04-29T10:49:22.105Z</time></trkpt><trkpt lat="40.335858673098144" lon="8.589108218978662"><ele>312.0</ele><time>2026-04-29T10:49:23.105Z</time></trkpt><trkpt lat="40.33569888383871" lon="8.58918812951999"><ele>312.0</ele><time>2026-04-29T10:49:24.105Z</time></trkpt><trkpt lat="40.33552996059385" lon="8.58916408173234"><ele>312.0</ele><time>2026-04-29T10:49:25.105Z</time></trkpt><trkpt lat="40.33540678190129" lon="8.589050683849413"><ele>310.0</ele><time>2026-04-29T10:49:26.105Z</time></trkpt><trkpt lat="40.33534241028084" lon="8.588860602099807"><ele>308.0</ele><time>2026-04-29T10:49:27.105Z</time></trkpt><trkpt lat="40.335282933764226" lon="8.588652103328645"><ele>306.0</ele><time>2026-04-29T10:49:28.105Z</time></trkpt><trkpt lat="40.33517746134891" lon="8.588443165865563"><ele>306.0</ele><time>2026-04-29T10:49:29.105Z</time></trkpt><trkpt lat="40.33503708894268" lon="8.588268692187935"><ele>306.0</ele><time>2026-04-29T10:49:30.105Z</time></trkpt><trkpt lat="40.33487337902746" lon="8.588109764991568"><ele>306.0</ele><time>2026-04-29T10:49:31.105Z</time></trkpt><trkpt lat="40.3346948616331" lon="8.587943799279456"><ele>305.0</ele><time>2026-04-29T10:49:32.105Z</time></trkpt><trkpt lat="40.33453238988933" lon="8.587763737773232"><ele>304.0</ele><time>2026-04-29T10:49:33.105Z</time></trkpt><trkpt lat="40.334404556454125" lon="8.587582690687592"><ele>303.0</ele><time>2026-04-29T10:49:34.105Z</time></trkpt><trkpt lat="40.33427868656327" lon="8.587409302525252"><ele>303.0</ele><time>2026-04-29T10:49:35.105Z</time></trkpt><trkpt lat="40.33414084071019" lon="8.587302272527676"><ele>303.0</ele><time>2026-04-29T10:49:36.105Z</time></trkpt><trkpt lat="40.33397235313041" lon="8.587258953741932"><ele>303.0</ele><time>2026-04-29T10:49:37.105Z</time></trkpt><trkpt lat="40.33378536980914" lon="8.587245482103954"><ele>300.6666666666667</ele><time>2026-04-29T10:49:38.105Z</time></trkpt><trkpt lat="40.333603193692795" lon="8.587267694987995"><ele>298.33333333333337</ele><time>2026-04-29T10:49:39.105Z</time></trkpt><trkpt lat="40.33343085230673" lon="8.587303247477413"><ele>296.0</ele><time>2026-04-29T10:49:40.105Z</time></trkpt><trkpt lat="40.33328978853863" lon="8.587343334201938"><ele>296.0</ele><time>2026-04-29T10:49:41.105Z</time></trkpt><trkpt lat="40.33317733282796" lon="8.587442565433285"><ele>296.0</ele><time>2026-04-29T10:49:42.105Z</time></trkpt><trkpt lat="40.3331171433843" lon="8.587603263526372"><ele>296.0</ele><time>2026-04-29T10:49:43.105Z</time></trkpt><trkpt lat="40.33311904747721" lon="8.587803898871377"><ele>296.0</ele><time>2026-04-29T10:49:44.105Z</time></trkpt><trkpt lat="40.33318724836434" lon="8.587995164019059"><ele>295.0</ele><time>2026-04-29T10:49:45.105Z</time></trkpt><trkpt lat="40.33330174089232" lon="8.588116572461605"><ele>294.0</ele><time>2026-04-29T10:49:46.105Z</time></trkpt><trkpt lat="40.33345019754363" lon="8.58818397135316"><ele>293.0</ele><time>2026-04-29T10:49:47.105Z</time></trkpt><trkpt lat="40.33352643567726" lon="8.58830989630851"><ele>292.0</ele><time>2026-04-29T10:49:48.105Z</time></trkpt><trkpt lat="40.33353659700755" lon="8.588515983222559"><ele>291.3333333333333</ele><time>2026-04-29T10:49:49.105Z</time></trkpt><trkpt lat="40.33348178040093" lon="8.588747555962533"><ele>290.6666666666667</ele><time>2026-04-29T10:49:50.105Z</time></trkpt><trkpt lat="40.333398914188685" lon="8.58898336588522"><ele>290.0</ele><time>2026-04-29T10:49:51.105Z</time></trkpt><trkpt lat="40.333363695176736" lon="8.589223688537274"><ele>290.0</ele><time>2026-04-29T10:49:52.105Z</time></trkpt><trkpt lat="40.33337886574926" lon="8.589477209704606"><ele>290.0</ele><time>2026-04-29T10:49:53.105Z</time></trkpt><trkpt lat="40.33336659207906" lon="8.589688961501103"><ele>290.0</ele><time>2026-04-29T10:49:54.105Z</time></trkpt><trkpt lat="40.333255609398556" lon="8.589838524435853"><ele>292.33333333333337</ele><time>2026-04-29T10:49:55.105Z</time></trkpt><trkpt lat="40.333088421753196" lon="8.589911699393927"><ele>294.6666666666667</ele><time>2026-04-29T10:49:56.105Z</time></trkpt><trkpt lat="40.332913370078664" lon="8.589979160335616"><ele>297.0</ele><time>2026-04-29T10:49:57.105Z</time></trkpt><trkpt lat="40.33279300418685" lon="8.59011684189496"><ele>297.0</ele><time>2026-04-29T10:49:58.105Z</time></trkpt><trkpt lat="40.332655821050835" lon="8.590279720830408"><ele>297.0</ele><time>2026-04-29T10:49:59.105Z</time></trkpt><trkpt lat="40.33253734285559" lon="8.590463278054598"><ele>297.0</ele><time>2026-04-29T10:50:00.105Z</time></trkpt><trkpt lat="40.33241449579753" lon="8.590655249233112"><ele>299.0</ele><time>2026-04-29T10:50:01.105Z</time></trkpt><trkpt lat="40.332285094770384" lon="8.590853575282598"><ele>301.0</ele><time>2026-04-29T10:50:02.105Z</time></trkpt><trkpt lat="40.33216027812339" lon="8.591045745965554"><ele>303.0</ele><time>2026-04-29T10:50:03.105Z</time></trkpt><trkpt lat="40.332075393110145" lon="8.591262284159077"><ele>297.3333333333333</ele><time>2026-04-29T10:50:04.105Z</time></trkpt><trkpt lat="40.33204106381471" lon="8.591515347892035"><ele>291.66666666666663</ele><time>2026-04-29T10:50:05.105Z</time></trkpt><trkpt lat="40.33203319621495" lon="8.59177641007988"><ele>286.0</ele><time>2026-04-29T10:50:06.105Z</time></trkpt><trkpt lat="40.332021958915504" lon="8.59203991154249"><ele>278.3333333333333</ele><time>2026-04-29T10:50:07.105Z</time></trkpt><trkpt lat="40.331986423724096" lon="8.5922772267613"><ele>270.6666666666667</ele><time>2026-04-29T10:50:08.104Z</time></trkpt><trkpt lat="40.33190385339191" lon="8.59247211028115"><ele>263.0</ele><time>2026-04-29T10:50:09.104Z</time></trkpt><trkpt lat="40.33177731441346" lon="8.592635383947604"><ele>263.0</ele><time>2026-04-29T10:50:10.105Z</time></trkpt><trkpt lat="40.33162627791082" lon="8.592779142340754"><ele>263.0</ele><time>2026-04-29T10:50:11.105Z</time></trkpt><trkpt lat="40.33147123227587" lon="8.592880006635628"><ele>263.0</ele><time>2026-04-29T10:50:12.105Z</time></trkpt><trkpt lat="40.33133638231323" lon="8.592953199844949"><ele>265.2</ele><time>2026-04-29T10:50:13.106Z</time></trkpt><trkpt lat="40.33123422180527" lon="8.593025155307318"><ele>267.4</ele><time>2026-04-29T10:50:14.105Z</time></trkpt><trkpt lat="40.33120169489142" lon="8.593151478175065"><ele>269.59999999999997</ele><time>2026-04-29T10:50:15.105Z</time></trkpt><trkpt lat="40.331240111519286" lon="8.593249519615142"><ele>271.8</ele><time>2026-04-29T10:50:16.106Z</time></trkpt><trkpt lat="40.33136267283151" lon="8.593333053834867"><ele>274.0</ele><time>2026-04-29T10:50:17.105Z</time></trkpt><trkpt lat="40.33150138036681" lon="8.593430391858025"><ele>265.0</ele><time>2026-04-29T10:50:18.105Z</time></trkpt><trkpt lat="40.33161677045301" lon="8.593586297533935"><ele>256.0</ele><time>2026-04-29T10:50:19.105Z</time></trkpt><trkpt lat="40.33169246666434" lon="8.593784915292401"><ele>247.0</ele><time>2026-04-29T10:50:20.105Z</time></trkpt><trkpt lat="40.331727553293675" lon="8.594032487616188"><ele>246.0</ele><time>2026-04-29T10:50:21.105Z</time></trkpt><trkpt lat="40.33172358384851" lon="8.594293682370798"><ele>245.0</ele><time>2026-04-29T10:50:22.105Z</time></trkpt><trkpt lat="40.331666047926326" lon="8.594533601852296"><ele>244.0</ele><time>2026-04-29T10:50:23.106Z</time></trkpt><trkpt lat="40.33156538957059" lon="8.594771686644844"><ele>241.66666666666666</ele><time>2026-04-29T10:50:24.106Z</time></trkpt><trkpt lat="40.33150029112216" lon="8.595018582719549"><ele>239.33333333333331</ele><time>2026-04-29T10:50:25.106Z</time></trkpt><trkpt lat="40.331473644505394" lon="8.595279292809803"><ele>237.0</ele><time>2026-04-29T10:50:26.106Z</time></trkpt><trkpt lat="40.331469726336735" lon="8.59554191025808"><ele>235.66666666666669</ele><time>2026-04-29T10:50:27.106Z</time></trkpt><trkpt lat="40.33151872242421" lon="8.595805237850943"><ele>234.33333333333334</ele><time>2026-04-29T10:50:28.106Z</time></trkpt><trkpt lat="40.33159215195239" lon="8.596061502501083"><ele>233.0</ele><time>2026-04-29T10:50:29.106Z</time></trkpt><trkpt lat="40.33164027898856" lon="8.596323357860392"><ele>233.0</ele><time>2026-04-29T10:50:30.106Z</time></trkpt><trkpt lat="40.33165062380795" lon="8.596571505112761"><ele>233.0</ele><time>2026-04-29T10:50:31.106Z</time></trkpt><trkpt lat="40.33165129561008" lon="8.596806474400333"><ele>233.0</ele><time>2026-04-29T10:50:32.106Z</time></trkpt><trkpt lat="40.33165288602974" lon="8.597004668603228"><ele>234.5</ele><time>2026-04-29T10:50:33.106Z</time></trkpt><trkpt lat="40.33168639864017" lon="8.597157108685227"><ele>236.0</ele><time>2026-04-29T10:50:34.106Z</time></trkpt><trkpt lat="40.33176839404132" lon="8.597249394752884"><ele>237.5</ele><time>2026-04-29T10:50:35.106Z</time></trkpt><trkpt lat="40.33188178926419" lon="8.597276418613225"><ele>239.0</ele><time>2026-04-29T10:50:36.106Z</time></trkpt><trkpt lat="40.33201555391515" lon="8.597203167462071"><ele>239.0</ele><time>2026-04-29T10:50:37.106Z</time></trkpt><trkpt lat="40.33211829672805" lon="8.597044406175058"><ele>239.0</ele><time>2026-04-29T10:50:38.106Z</time></trkpt><trkpt lat="40.33222038546209" lon="8.596846483811738"><ele>239.0</ele><time>2026-04-29T10:50:39.106Z</time></trkpt><trkpt lat="40.33232444958118" lon="8.596649740672046"><ele>239.0</ele><time>2026-04-29T10:50:40.106Z</time></trkpt><trkpt lat="40.33243811245983" lon="8.59646042011294"><ele>239.0</ele><time>2026-04-29T10:50:41.106Z</time></trkpt><trkpt lat="40.33255788850399" lon="8.596255510730147"><ele>239.0</ele><time>2026-04-29T10:50:42.106Z</time></trkpt><trkpt lat="40.33267357353165" lon="8.596042998937474"><ele>239.0</ele><time>2026-04-29T10:50:43.106Z</time></trkpt><trkpt lat="40.33276915447933" lon="8.59582652994277"><ele>239.0</ele><time>2026-04-29T10:50:44.106Z</time></trkpt><trkpt lat="40.3328625347145" lon="8.595592838548118"><ele>239.0</ele><time>2026-04-29T10:50:45.106Z</time></trkpt><trkpt lat="40.33296717751136" lon="8.595356834887296"><ele>245.0</ele><time>2026-04-29T10:50:46.106Z</time></trkpt><trkpt lat="40.3330848368554" lon="8.595133497247032"><ele>251.0</ele><time>2026-04-29T10:50:47.106Z</time></trkpt><trkpt lat="40.33323039248008" lon="8.594925766639546"><ele>257.0</ele><time>2026-04-29T10:50:48.106Z</time></trkpt><trkpt lat="40.333397881739536" lon="8.594741351481748"><ele>257.0</ele><time>2026-04-29T10:50:49.106Z</time></trkpt><trkpt lat="40.3335508988695" lon="8.59457004679087"><ele>257.0</ele><time>2026-04-29T10:50:50.106Z</time></trkpt><trkpt lat="40.33369413324077" lon="8.59438404088982"><ele>257.0</ele><time>2026-04-29T10:50:51.106Z</time></trkpt><trkpt lat="40.33381043690212" lon="8.594195743857053"><ele>257.0</ele><time>2026-04-29T10:50:52.106Z</time></trkpt><trkpt lat="40.333908935242135" lon="8.594034090854416"><ele>257.0</ele><time>2026-04-29T10:50:53.106Z</time></trkpt><trkpt lat="40.33399817249032" lon="8.593911127287578"><ele>257.0</ele><time>2026-04-29T10:50:54.106Z</time></trkpt><trkpt lat="40.33410036248113" lon="8.593839810537604"><ele>257.0</ele><time>2026-04-29T10:50:55.106Z</time></trkpt><trkpt lat="40.33422026341714" lon="8.593874316573473"><ele>257.0</ele><time>2026-04-29T10:50:56.106Z</time></trkpt><trkpt lat="40.33433862168343" lon="8.59400634591191"><ele>257.0</ele><time>2026-04-29T10:50:57.106Z</time></trkpt><trkpt lat="40.33444688610231" lon="8.594197838284138"><ele>257.0</ele><time>2026-04-29T10:50:58.106Z</time></trkpt><trkpt lat="40.33454165792376" lon="8.594393230299488"><ele>257.6666666666667</ele><time>2026-04-29T10:50:59.106Z</time></trkpt><trkpt lat="40.33464534897466" lon="8.594591196331594"><ele>258.3333333333333</ele><time>2026-04-29T10:51:00.106Z</time></trkpt><trkpt lat="40.334756501224895" lon="8.594802470992441"><ele>259.0</ele><time>2026-04-29T10:51:01.106Z</time></trkpt><trkpt lat="40.33487119509941" lon="8.595014797707595"><ele>259.0</ele><time>2026-04-29T10:51:02.106Z</time></trkpt><trkpt lat="40.33498807086427" lon="8.595224862248553"><ele>259.0</ele><time>2026-04-29T10:51:03.106Z</time></trkpt><trkpt lat="40.33510329591538" lon="8.595443390434427"><ele>259.0</ele><time>2026-04-29T10:51:04.106Z</time></trkpt><trkpt lat="40.335176810255845" lon="8.595690506394009"><ele>264.0</ele><time>2026-04-29T10:51:05.106Z</time></trkpt><trkpt lat="40.33520992385929" lon="8.595953811954312"><ele>269.0</ele><time>2026-04-29T10:51:06.106Z</time></trkpt><trkpt lat="40.3351929632857" lon="8.596231483880103"><ele>274.0</ele><time>2026-04-29T10:51:07.106Z</time></trkpt><trkpt lat="40.335149654667646" lon="8.596508678287318"><ele>275.0</ele><time>2026-04-29T10:51:08.106Z</time></trkpt><trkpt lat="40.335101558185734" lon="8.596783488004217"><ele>276.0</ele><time>2026-04-29T10:51:09.106Z</time></trkpt><trkpt lat="40.33505841763831" lon="8.5970285336926"><ele>277.0</ele><time>2026-04-29T10:51:10.106Z</time></trkpt><trkpt lat="40.335039156538336" lon="8.597234603660835"><ele>277.0</ele><time>2026-04-29T10:51:11.105Z</time></trkpt><trkpt lat="40.33508122502463" lon="8.597408190315887"><ele>277.0</ele><time>2026-04-29T10:51:12.105Z</time></trkpt><trkpt lat="40.33518395803854" lon="8.597548253210295"><ele>277.0</ele><time>2026-04-29T10:51:13.105Z</time></trkpt><trkpt lat="40.33530794263704" lon="8.597644869633859"><ele>277.0</ele><time>2026-04-29T10:51:14.105Z</time></trkpt><trkpt lat="40.335463563662685" lon="8.597712436333724"><ele>279.66666666666663</ele><time>2026-04-29T10:51:15.105Z</time></trkpt><trkpt lat="40.33564301266361" lon="8.597778999491164"><ele>282.3333333333333</ele><time>2026-04-29T10:51:16.105Z</time></trkpt><trkpt lat="40.33582434434253" lon="8.59784813281775"><ele>285.0</ele><time>2026-04-29T10:51:17.105Z</time></trkpt><trkpt lat="40.33603767945545" lon="8.597857881639491"><ele>281.3333333333333</ele><time>2026-04-29T10:51:18.105Z</time></trkpt><trkpt lat="40.33623850955207" lon="8.597801132296723"><ele>277.66666666666663</ele><time>2026-04-29T10:51:19.105Z</time></trkpt><trkpt lat="40.33643365293109" lon="8.59769214984867"><ele>274.0</ele><time>2026-04-29T10:51:20.105Z</time></trkpt><trkpt lat="40.33662182609863" lon="8.597564412272208"><ele>274.0</ele><time>2026-04-29T10:51:21.105Z</time></trkpt><trkpt lat="40.33679058944834" lon="8.597496168285547"><ele>274.0</ele><time>2026-04-29T10:51:22.105Z</time></trkpt><trkpt lat="40.3369655509749" lon="8.597502194022734"><ele>274.0</ele><time>2026-04-29T10:51:23.105Z</time></trkpt><trkpt lat="40.33714640802806" lon="8.597601585745238"><ele>275.66666666666663</ele><time>2026-04-29T10:51:24.105Z</time></trkpt><trkpt lat="40.33731481450834" lon="8.59777592798706"><ele>277.3333333333333</ele><time>2026-04-29T10:51:25.105Z</time></trkpt><trkpt lat="40.337466406692215" lon="8.597936738680183"><ele>279.0</ele><time>2026-04-29T10:51:26.105Z</time></trkpt><trkpt lat="40.337609635902055" lon="8.598057990653365"><ele>279.0</ele><time>2026-04-29T10:51:27.105Z</time></trkpt><trkpt lat="40.33775351594573" lon="8.598085855137995"><ele>279.0</ele><time>2026-04-29T10:51:28.105Z</time></trkpt><trkpt lat="40.337889736564094" lon="8.598042126417592"><ele>279.0</ele><time>2026-04-29T10:51:29.105Z</time></trkpt><trkpt lat="40.33799442531134" lon="8.597926058434629"><ele>279.0</ele><time>2026-04-29T10:51:30.105Z</time></trkpt><trkpt lat="40.33804545396609" lon="8.597754876471065"><ele>279.0</ele><time>2026-04-29T10:51:31.105Z</time></trkpt><trkpt lat="40.33803028550769" lon="8.597546258837124"><ele>279.0</ele><time>2026-04-29T10:51:32.105Z</time></trkpt><trkpt lat="40.337963481240465" lon="8.59730596412882"><ele>279.0</ele><time>2026-04-29T10:51:33.105Z</time></trkpt><trkpt lat="40.337872482095186" lon="8.597050860656566"><ele>279.0</ele><time>2026-04-29T10:51:34.105Z</time></trkpt><trkpt lat="40.33778685353156" lon="8.596805578186432"><ele>279.0</ele><time>2026-04-29T10:51:35.105Z</time></trkpt><trkpt lat="40.337717542481535" lon="8.596580007437996"><ele>279.0</ele><time>2026-04-29T10:51:36.105Z</time></trkpt><trkpt lat="40.33768246554379" lon="8.59635653932816"><ele>279.0</ele><time>2026-04-29T10:51:37.105Z</time></trkpt><trkpt lat="40.337701782125116" lon="8.59613385145827"><ele>279.0</ele><time>2026-04-29T10:51:38.105Z</time></trkpt><trkpt lat="40.33777591186807" lon="8.59592145686935"><ele>279.0</ele><time>2026-04-29T10:51:39.105Z</time></trkpt><trkpt lat="40.33791016648289" lon="8.595752315212737"><ele>286.0</ele><time>2026-04-29T10:51:40.105Z</time></trkpt><trkpt lat="40.33809097111164" lon="8.595662918766987"><ele>293.0</ele><time>2026-04-29T10:51:41.105Z</time></trkpt><trkpt lat="40.33830031867499" lon="8.595651683989612"><ele>300.0</ele><time>2026-04-29T10:51:42.105Z</time></trkpt><trkpt lat="40.33851577147653" lon="8.595642265572424"><ele>300.0</ele><time>2026-04-29T10:51:43.105Z</time></trkpt><trkpt lat="40.338730050658576" lon="8.595631981514636"><ele>300.0</ele><time>2026-04-29T10:51:44.105Z</time></trkpt><trkpt lat="40.33894307828944" lon="8.595614894032499"><ele>300.0</ele><time>2026-04-29T10:51:45.105Z</time></trkpt><trkpt lat="40.339158707927794" lon="8.595607470252288"><ele>300.0</ele><time>2026-04-29T10:51:46.105Z</time></trkpt><trkpt lat="40.33936465478104" lon="8.595669151079484"><ele>300.0</ele><time>2026-04-29T10:51:47.105Z</time></trkpt><trkpt lat="40.33955530179855" lon="8.59580859907357"><ele>300.0</ele><time>2026-04-29T10:51:48.105Z</time></trkpt><trkpt lat="40.33972481742584" lon="8.595992658142396"><ele>306.5</ele><time>2026-04-29T10:51:49.105Z</time></trkpt><trkpt lat="40.33987500183375" lon="8.596208874019338"><ele>313.0</ele><time>2026-04-29T10:51:50.105Z</time></trkpt><trkpt lat="40.340027423940505" lon="8.596434396698603"><ele>313.0</ele><time>2026-04-29T10:51:51.105Z</time></trkpt><trkpt lat="40.34020499849501" lon="8.596610944179496"><ele>313.0</ele><time>2026-04-29T10:51:52.105Z</time></trkpt><trkpt lat="40.34040146606845" lon="8.59673284337235"><ele>313.0</ele><time>2026-04-29T10:51:53.105Z</time></trkpt><trkpt lat="40.34061351144269" lon="8.596821860013664"><ele>312.66666666666663</ele><time>2026-04-29T10:51:54.105Z</time></trkpt><trkpt lat="40.34082157719847" lon="8.59687088141501"><ele>312.3333333333333</ele><time>2026-04-29T10:51:55.105Z</time></trkpt><trkpt lat="40.34103531041197" lon="8.596935945267736"><ele>312.0</ele><time>2026-04-29T10:51:56.105Z</time></trkpt><trkpt lat="40.34123506003124" lon="8.597076819227517"><ele>315.5</ele><time>2026-04-29T10:51:57.105Z</time></trkpt><trkpt lat="40.34141114943157" lon="8.597274000169968"><ele>319.0</ele><time>2026-04-29T10:51:58.105Z</time></trkpt><trkpt lat="40.34157996951007" lon="8.597485828522649"><ele>319.0</ele><time>2026-04-29T10:51:59.105Z</time></trkpt><trkpt lat="40.341756631473736" lon="8.597699004227694"><ele>319.0</ele><time>2026-04-29T10:52:00.105Z</time></trkpt><trkpt lat="40.34192138877305" lon="8.597891023773622"><ele>322.66666666666663</ele><time>2026-04-29T10:52:01.105Z</time></trkpt><trkpt lat="40.34208591844545" lon="8.598040868111593"><ele>326.3333333333333</ele><time>2026-04-29T10:52:02.105Z</time></trkpt><trkpt lat="40.3422862669487" lon="8.598159683518656"><ele>330.0</ele><time>2026-04-29T10:52:03.105Z</time></trkpt><trkpt lat="40.342485013904714" lon="8.598234651086438"><ele>330.0</ele><time>2026-04-29T10:52:04.105Z</time></trkpt><trkpt lat="40.34270717955543" lon="8.59827548001021"><ele>330.0</ele><time>2026-04-29T10:52:05.105Z</time></trkpt><trkpt lat="40.342932984375594" lon="8.598314172770092"><ele>330.0</ele><time>2026-04-29T10:52:06.105Z</time></trkpt><trkpt lat="40.343160107811734" lon="8.598359809735427"><ele>330.0</ele><time>2026-04-29T10:52:07.105Z</time></trkpt><trkpt lat="40.343387451877724" lon="8.598405155225784"><ele>330.0</ele><time>2026-04-29T10:52:08.105Z</time></trkpt><trkpt lat="40.3436149943768" lon="8.598451799464915"><ele>330.0</ele><time>2026-04-29T10:52:09.105Z</time></trkpt><trkpt lat="40.343839905873246" lon="8.598511127219306"><ele>327.5</ele><time>2026-04-29T10:52:10.105Z</time></trkpt><trkpt lat="40.34405639041553" lon="8.598610957976733"><ele>325.0</ele><time>2026-04-29T10:52:11.105Z</time></trkpt><trkpt lat="40.34425650755827" lon="8.598755413109352"><ele>325.0</ele><time>2026-04-29T10:52:12.105Z</time></trkpt><trkpt lat="40.344436240514455" lon="8.59894776781517"><ele>325.0</ele><time>2026-04-29T10:52:13.105Z</time></trkpt><trkpt lat="40.34459711327415" lon="8.599173540675498"><ele>319.0</ele><time>2026-04-29T10:52:14.105Z</time></trkpt><trkpt lat="40.34475352381978" lon="8.599404679969782"><ele>313.0</ele><time>2026-04-29T10:52:15.105Z</time></trkpt><trkpt lat="40.34491017455756" lon="8.599625603488464"><ele>312.0</ele><time>2026-04-29T10:52:16.106Z</time></trkpt><trkpt lat="40.34507041680133" lon="8.599851066717116"><ele>311.0</ele><time>2026-04-29T10:52:17.106Z</time></trkpt><trkpt lat="40.345232273564726" lon="8.600087025053309"><ele>311.0</ele><time>2026-04-29T10:52:18.106Z</time></trkpt><trkpt lat="40.34539959068029" lon="8.600327945609472"><ele>311.0</ele><time>2026-04-29T10:52:19.106Z</time></trkpt><trkpt lat="40.34556643715561" lon="8.600561401254502"><ele>304.0</ele><time>2026-04-29T10:52:20.106Z</time></trkpt><trkpt lat="40.34573672412615" lon="8.600796535855103"><ele>297.0</ele><time>2026-04-29T10:52:21.106Z</time></trkpt><trkpt lat="40.34590495674641" lon="8.601031866098817"><ele>302.5</ele><time>2026-04-29T10:52:22.106Z</time></trkpt><trkpt lat="40.346062953751314" lon="8.60127507355547"><ele>308.0</ele><time>2026-04-29T10:52:23.106Z</time></trkpt><trkpt lat="40.346195736228786" lon="8.601533425559463"><ele>308.0</ele><time>2026-04-29T10:52:24.106Z</time></trkpt><trkpt lat="40.34630912262161" lon="8.601809086893006"><ele>308.0</ele><time>2026-04-29T10:52:25.106Z</time></trkpt><trkpt lat="40.34639926749866" lon="8.602110293033467"><ele>297.5</ele><time>2026-04-29T10:52:26.106Z</time></trkpt><trkpt lat="40.34648277093704" lon="8.602423974479644"><ele>287.0</ele><time>2026-04-29T10:52:27.106Z</time></trkpt><trkpt lat="40.346550294892445" lon="8.602733639252136"><ele>289.0</ele><time>2026-04-29T10:52:28.106Z</time></trkpt><trkpt lat="40.34662138950301" lon="8.603034596374943"><ele>291.0</ele><time>2026-04-29T10:52:29.106Z</time></trkpt><trkpt lat="40.34669721224711" lon="8.603327720046932"><ele>291.0</ele><time>2026-04-29T10:52:30.106Z</time></trkpt><trkpt lat="40.34676903783708" lon="8.603609810080036"><ele>291.0</ele><time>2026-04-29T10:52:31.106Z</time></trkpt><trkpt lat="40.34685239241092" lon="8.603876442454542"><ele>291.0</ele><time>2026-04-29T10:52:32.106Z</time></trkpt><trkpt lat="40.34697349159421" lon="8.6041104697582"><ele>291.0</ele><time>2026-04-29T10:52:33.106Z</time></trkpt><trkpt lat="40.34713964179531" lon="8.60431984055403"><ele>291.0</ele><time>2026-04-29T10:52:34.106Z</time></trkpt><trkpt lat="40.347335587761485" lon="8.6045050279552"><ele>288.0</ele><time>2026-04-29T10:52:35.106Z</time></trkpt><trkpt lat="40.34755219293441" lon="8.604667141554568"><ele>285.0</ele><time>2026-04-29T10:52:36.106Z</time></trkpt><trkpt lat="40.347759240772575" lon="8.60484568563667"><ele>285.0</ele><time>2026-04-29T10:52:37.106Z</time></trkpt><trkpt lat="40.347959040761" lon="8.6050382239321"><ele>285.0</ele><time>2026-04-29T10:52:38.106Z</time></trkpt><trkpt lat="40.34814321358256" lon="8.605216271286073"><ele>284.3333333333333</ele><time>2026-04-29T10:52:39.106Z</time></trkpt><trkpt lat="40.34831860134461" lon="8.60539593268301"><ele>283.66666666666663</ele><time>2026-04-29T10:52:40.106Z</time></trkpt><trkpt lat="40.34846810073425" lon="8.60560637397788"><ele>283.0</ele><time>2026-04-29T10:52:41.106Z</time></trkpt><trkpt lat="40.348593468051014" lon="8.605858306093024"><ele>283.0</ele><time>2026-04-29T10:52:42.106Z</time></trkpt><trkpt lat="40.348684612601396" lon="8.606149803944804"><ele>283.0</ele><time>2026-04-29T10:52:43.106Z</time></trkpt><trkpt lat="40.34875304089662" lon="8.606449034070295"><ele>284.5</ele><time>2026-04-29T10:52:44.106Z</time></trkpt><trkpt lat="40.34881710119645" lon="8.606753426228913"><ele>286.0</ele><time>2026-04-29T10:52:45.106Z</time></trkpt><trkpt lat="40.348880732049196" lon="8.607052842208326"><ele>279.0</ele><time>2026-04-29T10:52:46.106Z</time></trkpt><trkpt lat="40.348948338685794" lon="8.607353264142942"><ele>272.0</ele><time>2026-04-29T10:52:47.106Z</time></trkpt><trkpt lat="40.349016360043166" lon="8.607644731048259"><ele>270.0</ele><time>2026-04-29T10:52:48.106Z</time></trkpt><trkpt lat="40.3490782363333" lon="8.60794947999811"><ele>268.0</ele><time>2026-04-29T10:52:49.106Z</time></trkpt><trkpt lat="40.34914593717791" lon="8.608251858848286"><ele>268.0</ele><time>2026-04-29T10:52:50.106Z</time></trkpt><trkpt lat="40.34921669328202" lon="8.608552881657882"><ele>268.0</ele><time>2026-04-29T10:52:51.106Z</time></trkpt><trkpt lat="40.349285482553505" lon="8.608855236245281"><ele>268.0</ele><time>2026-04-29T10:52:52.106Z</time></trkpt><trkpt lat="40.34934328875186" lon="8.60916464718798"><ele>268.0</ele><time>2026-04-29T10:52:53.106Z</time></trkpt><trkpt lat="40.34937846862726" lon="8.609474515998953"><ele>264.5</ele><time>2026-04-29T10:52:54.106Z</time></trkpt><trkpt lat="40.34938639423871" lon="8.609788867125076"><ele>261.0</ele><time>2026-04-29T10:52:55.106Z</time></trkpt><trkpt lat="40.349375837165226" lon="8.610101021882551"><ele>258.5</ele><time>2026-04-29T10:52:56.106Z</time></trkpt><trkpt lat="40.349350793921204" lon="8.610417202193533"><ele>256.0</ele><time>2026-04-29T10:52:57.106Z</time></trkpt><trkpt lat="40.349321005799204" lon="8.610729294794481"><ele>256.0</ele><time>2026-04-29T10:52:58.106Z</time></trkpt><trkpt lat="40.34928654780314" lon="8.611036199429106"><ele>256.0</ele><time>2026-04-29T10:52:59.106Z</time></trkpt><trkpt lat="40.34924822865689" lon="8.611344956429331"><ele>251.5</ele><time>2026-04-29T10:53:00.106Z</time></trkpt><trkpt lat="40.3492164874875" lon="8.611654272241328"><ele>247.0</ele><time>2026-04-29T10:53:01.106Z</time></trkpt><trkpt lat="40.3491853254487" lon="8.611962222440996"><ele>244.0</ele><time>2026-04-29T10:53:02.106Z</time></trkpt><trkpt lat="40.34915731640794" lon="8.612270704292143"><ele>241.0</ele><time>2026-04-29T10:53:03.106Z</time></trkpt><trkpt lat="40.34913354492894" lon="8.612578906375367"><ele>238.5</ele><time>2026-04-29T10:53:04.106Z</time></trkpt><trkpt lat="40.34910662109374" lon="8.612889060466973"><ele>236.0</ele><time>2026-04-29T10:53:05.106Z</time></trkpt><trkpt lat="40.34908465673042" lon="8.613187141927865"><ele>236.0</ele><time>2026-04-29T10:53:06.106Z</time></trkpt><trkpt lat="40.34909615402184" lon="8.613463754438902"><ele>236.0</ele><time>2026-04-29T10:53:07.106Z</time></trkpt><trkpt lat="40.34915319928466" lon="8.613732236838194"><ele>236.0</ele><time>2026-04-29T10:53:08.106Z</time></trkpt><trkpt lat="40.34926424096608" lon="8.613995427421013"><ele>235.0</ele><time>2026-04-29T10:53:09.106Z</time></trkpt><trkpt lat="40.34940729846401" lon="8.614231560425688"><ele>234.0</ele><time>2026-04-29T10:53:10.106Z</time></trkpt><trkpt lat="40.349574616601146" lon="8.61444265606512"><ele>233.5</ele><time>2026-04-29T10:53:11.106Z</time></trkpt><trkpt lat="40.34978074735269" lon="8.614634424836659"><ele>233.0</ele><time>2026-04-29T10:53:12.106Z</time></trkpt><trkpt lat="40.34999083381865" lon="8.614824066538562"><ele>233.0</ele><time>2026-04-29T10:53:13.106Z</time></trkpt><trkpt lat="40.35019917102991" lon="8.615032218887155"><ele>233.0</ele><time>2026-04-29T10:53:14.106Z</time></trkpt><trkpt lat="40.35040499738956" lon="8.615260294906644"><ele>233.5</ele><time>2026-04-29T10:53:15.106Z</time></trkpt><trkpt lat="40.35061009896479" lon="8.615490959596327"><ele>234.0</ele><time>2026-04-29T10:53:16.106Z</time></trkpt><trkpt lat="40.35081378187066" lon="8.615713207744127"><ele>234.0</ele><time>2026-04-29T10:53:17.106Z</time></trkpt><trkpt lat="40.35102081342478" lon="8.615935784485115"><ele>234.0</ele><time>2026-04-29T10:53:18.106Z</time></trkpt><trkpt lat="40.35123476968178" lon="8.616151644166996"><ele>234.5</ele><time>2026-04-29T10:53:19.106Z</time></trkpt><trkpt lat="40.35144259247037" lon="8.616372056651311"><ele>235.0</ele><time>2026-04-29T10:53:20.106Z</time></trkpt><trkpt lat="40.35164016145907" lon="8.616587221524577"><ele>235.0</ele><time>2026-04-29T10:53:21.106Z</time></trkpt><trkpt lat="40.35183217866993" lon="8.61679331215073"><ele>235.0</ele><time>2026-04-29T10:53:22.106Z</time></trkpt><trkpt lat="40.352032657712385" lon="8.616985416067518"><ele>237.66666666666666</ele><time>2026-04-29T10:53:23.106Z</time></trkpt><trkpt lat="40.352232382996256" lon="8.617124621652701"><ele>240.33333333333331</ele><time>2026-04-29T10:53:24.106Z</time></trkpt><trkpt lat="40.3524436908581" lon="8.617209940229392"><ele>243.0</ele><time>2026-04-29T10:53:25.106Z</time></trkpt><trkpt lat="40.35265874159254" lon="8.617227016453748"><ele>243.0</ele><time>2026-04-29T10:53:26.106Z</time></trkpt><trkpt lat="40.35287815379316" lon="8.617187562710416"><ele>243.0</ele><time>2026-04-29T10:53:27.106Z</time></trkpt><trkpt lat="40.35309110397436" lon="8.617112269233866"><ele>243.0</ele><time>2026-04-29T10:53:28.106Z</time></trkpt><trkpt lat="40.353301335131846" lon="8.616989981588917"><ele>244.0</ele><time>2026-04-29T10:53:29.106Z</time></trkpt><trkpt lat="40.35350484286366" lon="8.616853663391627"><ele>245.0</ele><time>2026-04-29T10:53:30.106Z</time></trkpt><trkpt lat="40.353712253827005" lon="8.616724272706476"><ele>248.0</ele><time>2026-04-29T10:53:31.106Z</time></trkpt><trkpt lat="40.353917005523265" lon="8.616608345205767"><ele>251.0</ele><time>2026-04-29T10:53:32.106Z</time></trkpt><trkpt lat="40.354120372749826" lon="8.61651263036423"><ele>254.0</ele><time>2026-04-29T10:53:33.106Z</time></trkpt><trkpt lat="40.354333622874265" lon="8.61646225629779"><ele>254.0</ele><time>2026-04-29T10:53:34.106Z</time></trkpt><trkpt lat="40.354559614548435" lon="8.61647503751287"><ele>254.0</ele><time>2026-04-29T10:53:35.106Z</time></trkpt><trkpt lat="40.354789802526014" lon="8.61652744405914"><ele>256.0</ele><time>2026-04-29T10:53:36.106Z</time></trkpt><trkpt lat="40.355023087451066" lon="8.61660913769028"><ele>258.0</ele><time>2026-04-29T10:53:37.106Z</time></trkpt><trkpt lat="40.35525806492981" lon="8.616706947220722"><ele>258.0</ele><time>2026-04-29T10:53:38.106Z</time></trkpt><trkpt lat="40.35548971145869" lon="8.616802772739153"><ele>258.0</ele><time>2026-04-29T10:53:39.106Z</time></trkpt><trkpt lat="40.35569522177679" lon="8.616913893248885"><ele>262.6666666666667</ele><time>2026-04-29T10:53:40.106Z</time></trkpt><trkpt lat="40.35586693905658" lon="8.617056493677598"><ele>267.33333333333337</ele><time>2026-04-29T10:53:41.106Z</time></trkpt><trkpt lat="40.35600580871441" lon="8.617262742520477"><ele>272.0</ele><time>2026-04-29T10:53:42.106Z</time></trkpt><trkpt lat="40.35611806104153" lon="8.617507295459044"><ele>272.0</ele><time>2026-04-29T10:53:43.106Z</time></trkpt><trkpt lat="40.356197288288755" lon="8.617777959326835"><ele>272.0</ele><time>2026-04-29T10:53:44.106Z</time></trkpt><trkpt lat="40.356242692754314" lon="8.618065647662345"><ele>272.0</ele><time>2026-04-29T10:53:45.106Z</time></trkpt><trkpt lat="40.35624794155324" lon="8.618373744289086"><ele>277.5</ele><time>2026-04-29T10:53:46.106Z</time></trkpt><trkpt lat="40.35627312629306" lon="8.618675445232942"><ele>283.0</ele><time>2026-04-29T10:53:47.106Z</time></trkpt><trkpt lat="40.356309762134195" lon="8.618978323509909"><ele>283.0</ele><time>2026-04-29T10:53:48.106Z</time></trkpt><trkpt lat="40.35636120866104" lon="8.619274795673485"><ele>283.0</ele><time>2026-04-29T10:53:49.106Z</time></trkpt><trkpt lat="40.3564297188513" lon="8.619553494898152"><ele>283.0</ele><time>2026-04-29T10:53:50.106Z</time></trkpt><trkpt lat="40.35653054480901" lon="8.619797687253818"><ele>283.0</ele><time>2026-04-29T10:53:51.106Z</time></trkpt><trkpt lat="40.35665592672199" lon="8.62001892554828"><ele>283.0</ele><time>2026-04-29T10:53:52.106Z</time></trkpt><trkpt lat="40.35682201737186" lon="8.620204917672147"><ele>282.5</ele><time>2026-04-29T10:53:53.106Z</time></trkpt><trkpt lat="40.35700604220012" lon="8.620372175396787"><ele>282.0</ele><time>2026-04-29T10:53:54.106Z</time></trkpt><trkpt lat="40.35718325417989" lon="8.6205655594212"><ele>282.5</ele><time>2026-04-29T10:53:55.106Z</time></trkpt><trkpt lat="40.35736152459888" lon="8.620778907342899"><ele>283.0</ele><time>2026-04-29T10:53:56.106Z</time></trkpt><trkpt lat="40.35753707765025" lon="8.620993829355115"><ele>280.0</ele><time>2026-04-29T10:53:57.106Z</time></trkpt><trkpt lat="40.35771479902341" lon="8.621200420332787"><ele>277.0</ele><time>2026-04-29T10:53:58.105Z</time></trkpt><trkpt lat="40.357889660339275" lon="8.621400248377585"><ele>284.0</ele><time>2026-04-29T10:53:59.105Z</time></trkpt><trkpt lat="40.358063137144704" lon="8.621605341845656"><ele>291.0</ele><time>2026-04-29T10:54:00.105Z</time></trkpt><trkpt lat="40.3582377981903" lon="8.621816256194482"><ele>288.5</ele><time>2026-04-29T10:54:01.105Z</time></trkpt><trkpt lat="40.35842440214323" lon="8.622031018668016"><ele>286.0</ele><time>2026-04-29T10:54:02.105Z</time></trkpt><trkpt lat="40.358610907045296" lon="8.62225345720832"><ele>286.0</ele><time>2026-04-29T10:54:03.105Z</time></trkpt><trkpt lat="40.358795786148335" lon="8.622470546581622"><ele>286.0</ele><time>2026-04-29T10:54:04.105Z</time></trkpt><trkpt lat="40.3589741103733" lon="8.62268303447899"><ele>289.0</ele><time>2026-04-29T10:54:05.105Z</time></trkpt><trkpt lat="40.35915062709283" lon="8.6228993458808"><ele>292.0</ele><time>2026-04-29T10:54:06.105Z</time></trkpt><trkpt lat="40.35930062872729" lon="8.623136403403445"><ele>292.0</ele><time>2026-04-29T10:54:07.105Z</time></trkpt><trkpt lat="40.35943559807653" lon="8.6233984334026"><ele>292.0</ele><time>2026-04-29T10:54:08.105Z</time></trkpt><trkpt lat="40.359547739425714" lon="8.623678434689896"><ele>293.5</ele><time>2026-04-29T10:54:09.105Z</time></trkpt><trkpt lat="40.35964403187053" lon="8.623974625909693"><ele>295.0</ele><time>2026-04-29T10:54:10.105Z</time></trkpt><trkpt lat="40.35970607701598" lon="8.624288719583781"><ele>297.0</ele><time>2026-04-29T10:54:11.105Z</time></trkpt><trkpt lat="40.35974612195378" lon="8.624607152243232"><ele>299.0</ele><time>2026-04-29T10:54:12.105Z</time></trkpt><trkpt lat="40.359776125984325" lon="8.624923130732698"><ele>299.0</ele><time>2026-04-29T10:54:13.105Z</time></trkpt><trkpt lat="40.35981245946015" lon="8.625233496040543"><ele>299.0</ele><time>2026-04-29T10:54:14.105Z</time></trkpt><trkpt lat="40.359856039560626" lon="8.62554743792076"><ele>300.0</ele><time>2026-04-29T10:54:15.105Z</time></trkpt><trkpt lat="40.359898883757154" lon="8.625853431794756"><ele>301.0</ele><time>2026-04-29T10:54:16.105Z</time></trkpt><trkpt lat="40.35994168106094" lon="8.62615774870297"><ele>302.5</ele><time>2026-04-29T10:54:17.105Z</time></trkpt><trkpt lat="40.35998350771388" lon="8.626458693709651"><ele>304.0</ele><time>2026-04-29T10:54:18.105Z</time></trkpt><trkpt lat="40.36003924939898" lon="8.626754996139343"><ele>304.66666666666663</ele><time>2026-04-29T10:54:19.105Z</time></trkpt><trkpt lat="40.360127970221406" lon="8.627020872124623"><ele>305.3333333333333</ele><time>2026-04-29T10:54:20.105Z</time></trkpt><trkpt lat="40.360259194209725" lon="8.627250985676724"><ele>306.0</ele><time>2026-04-29T10:54:21.105Z</time></trkpt><trkpt lat="40.3604156396335" lon="8.627454767460163"><ele>308.0</ele><time>2026-04-29T10:54:22.107Z</time></trkpt><trkpt lat="40.36061100739835" lon="8.627623039106734"><ele>310.0</ele><time>2026-04-29T10:54:23.107Z</time></trkpt><trkpt lat="40.3608250951593" lon="8.627736921135565"><ele>310.0</ele><time>2026-04-29T10:54:24.107Z</time></trkpt><trkpt lat="40.36105030084008" lon="8.627791512029916"><ele>310.0</ele><time>2026-04-29T10:54:25.107Z</time></trkpt><trkpt lat="40.361282914629896" lon="8.627800697464739"><ele>312.0</ele><time>2026-04-29T10:54:26.106Z</time></trkpt><trkpt lat="40.36151524830822" lon="8.62774739002262"><ele>314.0</ele><time>2026-04-29T10:54:27.106Z</time></trkpt><trkpt lat="40.36174083112369" lon="8.62769279199824"><ele>314.0</ele><time>2026-04-29T10:54:28.107Z</time></trkpt><trkpt lat="40.36198590641328" lon="8.627686345443415"><ele>314.0</ele><time>2026-04-29T10:54:29.107Z</time></trkpt><trkpt lat="40.36222453975171" lon="8.627736766076362"><ele>316.5</ele><time>2026-04-29T10:54:30.107Z</time></trkpt><trkpt lat="40.36246023658354" lon="8.6278271656145"><ele>319.0</ele><time>2026-04-29T10:54:31.107Z</time></trkpt><trkpt lat="40.36268317689158" lon="8.627955268380106"><ele>319.0</ele><time>2026-04-29T10:54:32.107Z</time></trkpt><trkpt lat="40.3628928085827" lon="8.628119748360483"><ele>319.0</ele><time>2026-04-29T10:54:33.107Z</time></trkpt><trkpt lat="40.36308437125716" lon="8.628323255505514"><ele>322.0</ele><time>2026-04-29T10:54:34.107Z</time></trkpt><trkpt lat="40.36325312981652" lon="8.628555080560275"><ele>325.0</ele><time>2026-04-29T10:54:35.107Z</time></trkpt><trkpt lat="40.36340271304072" lon="8.628810968087157"><ele>325.5</ele><time>2026-04-29T10:54:36.107Z</time></trkpt><trkpt lat="40.363531660701284" lon="8.629083359038093"><ele>326.0</ele><time>2026-04-29T10:54:37.107Z</time></trkpt><trkpt lat="40.36366010404986" lon="8.629350993749979"><ele>327.0</ele><time>2026-04-29T10:54:38.107Z</time></trkpt><trkpt lat="40.36379671946738" lon="8.629612978878729"><ele>328.0</ele><time>2026-04-29T10:54:39.107Z</time></trkpt><trkpt lat="40.36393548182626" lon="8.629870483708192"><ele>329.5</ele><time>2026-04-29T10:54:40.107Z</time></trkpt><trkpt lat="40.36406822543868" lon="8.630126432813425"><ele>331.0</ele><time>2026-04-29T10:54:41.107Z</time></trkpt><trkpt lat="40.364202738454296" lon="8.630387713324422"><ele>331.5</ele><time>2026-04-29T10:54:42.107Z</time></trkpt><trkpt lat="40.36433265253621" lon="8.630641486957414"><ele>332.0</ele><time>2026-04-29T10:54:43.107Z</time></trkpt><trkpt lat="40.36447894036953" lon="8.630868165700958"><ele>332.0</ele><time>2026-04-29T10:54:44.107Z</time></trkpt><trkpt lat="40.36464886180973" lon="8.63105125158574"><ele>332.0</ele><time>2026-04-29T10:54:45.107Z</time></trkpt><trkpt lat="40.36483991743561" lon="8.631198626191695"><ele>332.0</ele><time>2026-04-29T10:54:46.107Z</time></trkpt><trkpt lat="40.36504285859548" lon="8.631345253441776"><ele>332.5</ele><time>2026-04-29T10:54:47.107Z</time></trkpt><trkpt lat="40.36525651679737" lon="8.631475215304983"><ele>333.0</ele><time>2026-04-29T10:54:48.107Z</time></trkpt><trkpt lat="40.365459642926325" lon="8.63158712157347"><ele>331.6666666666667</ele><time>2026-04-29T10:54:49.107Z</time></trkpt><trkpt lat="40.365668360257665" lon="8.631670725560818"><ele>330.33333333333337</ele><time>2026-04-29T10:54:50.107Z</time></trkpt><trkpt lat="40.36589692819499" lon="8.631705110374574"><ele>329.0</ele><time>2026-04-29T10:54:51.107Z</time></trkpt><trkpt lat="40.366125558473826" lon="8.631698748674308"><ele>329.0</ele><time>2026-04-29T10:54:52.107Z</time></trkpt><trkpt lat="40.36635835972066" lon="8.631699966350627"><ele>329.0</ele><time>2026-04-29T10:54:53.107Z</time></trkpt><trkpt lat="40.3665799219401" lon="8.631708597043042"><ele>327.0</ele><time>2026-04-29T10:54:54.107Z</time></trkpt><trkpt lat="40.366787879524836" lon="8.631725349333564"><ele>325.0</ele><time>2026-04-29T10:54:55.107Z</time></trkpt><trkpt lat="40.36697902621335" lon="8.631739782449523"><ele>323.0</ele><time>2026-04-29T10:54:56.107Z</time></trkpt><trkpt lat="40.367142183427156" lon="8.63175570982952"><ele>320.6666666666667</ele><time>2026-04-29T10:54:57.107Z</time></trkpt><trkpt lat="40.36727975026777" lon="8.63180750109841"><ele>318.3333333333333</ele><time>2026-04-29T10:54:58.107Z</time></trkpt><trkpt lat="40.36739543800328" lon="8.631936335637297"><ele>316.0</ele><time>2026-04-29T10:54:59.107Z</time></trkpt><trkpt lat="40.36747200552864" lon="8.63214071879255"><ele>316.0</ele><time>2026-04-29T10:55:00.107Z</time></trkpt><trkpt lat="40.367506601398524" lon="8.63235900376407"><ele>316.0</ele><time>2026-04-29T10:55:01.107Z</time></trkpt><trkpt lat="40.36754398986384" lon="8.632536970982489"><ele>316.0</ele><time>2026-04-29T10:55:02.107Z</time></trkpt><trkpt lat="40.367657751665234" lon="8.632690472354861"><ele>313.3333333333333</ele><time>2026-04-29T10:55:03.107Z</time></trkpt><trkpt lat="40.36781411877368" lon="8.632841079429847"><ele>310.6666666666667</ele><time>2026-04-29T10:55:04.107Z</time></trkpt><trkpt lat="40.36798773690848" lon="8.63300001393536"><ele>308.0</ele><time>2026-04-29T10:55:05.107Z</time></trkpt><trkpt lat="40.36818988984941" lon="8.633139148675236"><ele>308.0</ele><time>2026-04-29T10:55:06.107Z</time></trkpt><trkpt lat="40.3683973111873" lon="8.633255417404825"><ele>308.0</ele><time>2026-04-29T10:55:07.107Z</time></trkpt><trkpt lat="40.36859275328856" lon="8.633366042193618"><ele>308.0</ele><time>2026-04-29T10:55:08.107Z</time></trkpt><trkpt lat="40.36877671411349" lon="8.633469425224122"><ele>305.6666666666667</ele><time>2026-04-29T10:55:09.107Z</time></trkpt><trkpt lat="40.36893955906068" lon="8.633557578840936"><ele>303.3333333333333</ele><time>2026-04-29T10:55:10.107Z</time></trkpt><trkpt lat="40.369074919530725" lon="8.633661259103894"><ele>301.0</ele><time>2026-04-29T10:55:11.107Z</time></trkpt><trkpt lat="40.36917717676557" lon="8.633800711160028"><ele>301.0</ele><time>2026-04-29T10:55:12.107Z</time></trkpt><trkpt lat="40.369227967082594" lon="8.633997337726607"><ele>301.0</ele><time>2026-04-29T10:55:13.107Z</time></trkpt><trkpt lat="40.36922398025163" lon="8.634217603563455"><ele>301.0</ele><time>2026-04-29T10:55:14.107Z</time></trkpt><trkpt lat="40.369143851430664" lon="8.634416556393779"><ele>302.66666666666663</ele><time>2026-04-29T10:55:15.107Z</time></trkpt><trkpt lat="40.36901135833244" lon="8.634581475946096"><ele>304.3333333333333</ele><time>2026-04-29T10:55:16.107Z</time></trkpt><trkpt lat="40.368868188130584" lon="8.634741739722074"><ele>306.0</ele><time>2026-04-29T10:55:17.107Z</time></trkpt><trkpt lat="40.36877042595816" lon="8.634907385056936"><ele>306.0</ele><time>2026-04-29T10:55:18.107Z</time></trkpt><trkpt lat="40.36873230796155" lon="8.63509805375024"><ele>306.0</ele><time>2026-04-29T10:55:19.107Z</time></trkpt><trkpt lat="40.36876911015389" lon="8.635289610601227"><ele>306.0</ele><time>2026-04-29T10:55:20.107Z</time></trkpt><trkpt lat="40.368870942134635" lon="8.635475314198978"><ele>302.0</ele><time>2026-04-29T10:55:21.107Z</time></trkpt><trkpt lat="40.36900094686027" lon="8.635661754536288"><ele>298.0</ele><time>2026-04-29T10:55:22.107Z</time></trkpt><trkpt lat="40.36908994081246" lon="8.635896641226454"><ele>294.0</ele><time>2026-04-29T10:55:23.107Z</time></trkpt><trkpt lat="40.36912891250335" lon="8.63616141075671"><ele>294.0</ele><time>2026-04-29T10:55:24.107Z</time></trkpt><trkpt lat="40.36913898675142" lon="8.63645370717381"><ele>294.0</ele><time>2026-04-29T10:55:25.107Z</time></trkpt><trkpt lat="40.369140808779576" lon="8.63672870860772"><ele>294.0</ele><time>2026-04-29T10:55:26.107Z</time></trkpt><trkpt lat="40.36914607738493" lon="8.636970405832662"><ele>293.75</ele><time>2026-04-29T10:55:27.107Z</time></trkpt><trkpt lat="40.36916659671701" lon="8.637168476603943"><ele>293.5</ele><time>2026-04-29T10:55:28.107Z</time></trkpt><trkpt lat="40.369234557383" lon="8.63731426286595"><ele>293.25</ele><time>2026-04-29T10:55:29.107Z</time></trkpt><trkpt lat="40.369352114567675" lon="8.637380259267305"><ele>293.0</ele><time>2026-04-29T10:55:30.107Z</time></trkpt><trkpt lat="40.369518228274465" lon="8.637396382949557"><ele>291.33333333333337</ele><time>2026-04-29T10:55:31.107Z</time></trkpt><trkpt lat="40.36969606680042" lon="8.63740309211002"><ele>289.6666666666667</ele><time>2026-04-29T10:55:32.107Z</time></trkpt><trkpt lat="40.369847906897796" lon="8.637362053366916"><ele>288.0</ele><time>2026-04-29T10:55:33.107Z</time></trkpt><trkpt lat="40.36997025456347" lon="8.637232786173195"><ele>288.0</ele><time>2026-04-29T10:55:34.107Z</time></trkpt><trkpt lat="40.370063814977755" lon="8.637033192284447"><ele>288.0</ele><time>2026-04-29T10:55:35.107Z</time></trkpt><trkpt lat="40.37015544875483" lon="8.636800642001276"><ele>288.0</ele><time>2026-04-29T10:55:36.107Z</time></trkpt><trkpt lat="40.370259889787874" lon="8.636552151012665"><ele>287.3333333333333</ele><time>2026-04-29T10:55:37.107Z</time></trkpt><trkpt lat="40.37037495934592" lon="8.636326309446817"><ele>286.66666666666663</ele><time>2026-04-29T10:55:38.107Z</time></trkpt><trkpt lat="40.370522673169575" lon="8.636165665288532"><ele>286.0</ele><time>2026-04-29T10:55:39.107Z</time></trkpt><trkpt lat="40.37071252464934" lon="8.636060208724354"><ele>287.3333333333333</ele><time>2026-04-29T10:55:40.107Z</time></trkpt><trkpt lat="40.3709214525699" lon="8.63600226037363"><ele>288.6666666666667</ele><time>2026-04-29T10:55:41.107Z</time></trkpt><trkpt lat="40.37114129142773" lon="8.635975220522589"><ele>290.0</ele><time>2026-04-29T10:55:42.107Z</time></trkpt><trkpt lat="40.37136370708609" lon="8.635926523591786"><ele>294.0</ele><time>2026-04-29T10:55:43.107Z</time></trkpt><trkpt lat="40.37156360362903" lon="8.635833853513006"><ele>298.0</ele><time>2026-04-29T10:55:44.107Z</time></trkpt><trkpt lat="40.371741144200605" lon="8.635687440300986"><ele>302.0</ele><time>2026-04-29T10:55:45.107Z</time></trkpt><trkpt lat="40.3718863485612" lon="8.635487882193265"><ele>299.0</ele><time>2026-04-29T10:55:46.107Z</time></trkpt><trkpt lat="40.371995700909494" lon="8.635259308461617"><ele>296.0</ele><time>2026-04-29T10:55:47.107Z</time></trkpt><trkpt lat="40.37208092973051" lon="8.635005758933323"><ele>293.0</ele><time>2026-04-29T10:55:48.107Z</time></trkpt><trkpt lat="40.37214073157263" lon="8.634731669016409"><ele>292.5</ele><time>2026-04-29T10:55:49.107Z</time></trkpt><trkpt lat="40.37217065837814" lon="8.634430566434578"><ele>292.0</ele><time>2026-04-29T10:55:50.107Z</time></trkpt><trkpt lat="40.37218001413818" lon="8.634133125432708"><ele>292.0</ele><time>2026-04-29T10:55:51.107Z</time></trkpt><trkpt lat="40.372183413046024" lon="8.633834850712013"><ele>292.0</ele><time>2026-04-29T10:55:52.107Z</time></trkpt><trkpt lat="40.372161753748934" lon="8.633541183865406"><ele>296.5</ele><time>2026-04-29T10:55:53.107Z</time></trkpt><trkpt lat="40.37208707668855" lon="8.633253090782997"><ele>301.0</ele><time>2026-04-29T10:55:54.107Z</time></trkpt><trkpt lat="40.37198434574206" lon="8.632971086117674"><ele>305.3333333333333</ele><time>2026-04-29T10:55:55.107Z</time></trkpt><trkpt lat="40.37187903733277" lon="8.632702541005857"><ele>309.6666666666667</ele><time>2026-04-29T10:55:56.107Z</time></trkpt><trkpt lat="40.37178443637517" lon="8.632465305902109"><ele>314.0</ele><time>2026-04-29T10:55:57.107Z</time></trkpt><trkpt lat="40.371740940301386" lon="8.632215262456674"><ele>315.0</ele><time>2026-04-29T10:55:58.107Z</time></trkpt><trkpt lat="40.37175207403319" lon="8.631956871976616"><ele>316.0</ele><time>2026-04-29T10:55:59.107Z</time></trkpt><trkpt lat="40.37182035208724" lon="8.631694526621288"><ele>317.0</ele><time>2026-04-29T10:56:00.107Z</time></trkpt><trkpt lat="40.37195283337492" lon="8.631467030102401"><ele>317.0</ele><time>2026-04-29T10:56:01.107Z</time></trkpt><trkpt lat="40.37216257349458" lon="8.63131657463721"><ele>317.0</ele><time>2026-04-29T10:56:02.107Z</time></trkpt><trkpt lat="40.37238423319716" lon="8.631209702972289"><ele>315.5</ele><time>2026-04-29T10:56:03.107Z</time></trkpt><trkpt lat="40.372599737796776" lon="8.631087219688142"><ele>314.0</ele><time>2026-04-29T10:56:04.107Z</time></trkpt><trkpt lat="40.372803993365864" lon="8.63093981713831"><ele>314.0</ele><time>2026-04-29T10:56:05.107Z</time></trkpt><trkpt lat="40.37301081091759" lon="8.630781859208197"><ele>314.0</ele><time>2026-04-29T10:56:06.107Z</time></trkpt><trkpt lat="40.37321461606683" lon="8.63060573725187"><ele>314.5</ele><time>2026-04-29T10:56:07.107Z</time></trkpt><trkpt lat="40.37340384356928" lon="8.630402814735529"><ele>315.0</ele><time>2026-04-29T10:56:08.107Z</time></trkpt><trkpt lat="40.373588663216395" lon="8.630181051063683"><ele>315.0</ele><time>2026-04-29T10:56:09.107Z</time></trkpt><trkpt lat="40.37376742162179" lon="8.629974836079947"><ele>315.0</ele><time>2026-04-29T10:56:10.107Z</time></trkpt><trkpt lat="40.37392977096236" lon="8.629790305170522"><ele>322.3333333333333</ele><time>2026-04-29T10:56:11.107Z</time></trkpt><trkpt lat="40.37406553582576" lon="8.629653965040067"><ele>329.66666666666663</ele><time>2026-04-29T10:56:12.107Z</time></trkpt><trkpt lat="40.37421347663982" lon="8.629591134285551"><ele>337.0</ele><time>2026-04-29T10:56:13.107Z</time></trkpt><trkpt lat="40.37436298901483" lon="8.629591380641541"><ele>337.0</ele><time>2026-04-29T10:56:14.107Z</time></trkpt><trkpt lat="40.37450290080087" lon="8.629659622715057"><ele>337.0</ele><time>2026-04-29T10:56:15.107Z</time></trkpt><trkpt lat="40.37461282099124" lon="8.629788092717453"><ele>337.0</ele><time>2026-04-29T10:56:16.107Z</time></trkpt><trkpt lat="40.37468659656583" lon="8.629945321929911"><ele>337.0</ele><time>2026-04-29T10:56:17.107Z</time></trkpt><trkpt lat="40.37471450621683" lon="8.630131698898492"><ele>336.75</ele><time>2026-04-29T10:56:18.107Z</time></trkpt><trkpt lat="40.37470794808592" lon="8.630299882358871"><ele>336.5</ele><time>2026-04-29T10:56:19.107Z</time></trkpt><trkpt lat="40.37470989265627" lon="8.630479785181155"><ele>336.25</ele><time>2026-04-29T10:56:20.107Z</time></trkpt><trkpt lat="40.37471805773262" lon="8.630666144133484"><ele>336.0</ele><time>2026-04-29T10:56:21.107Z</time></trkpt><trkpt lat="40.3747129651435" lon="8.63086063898715"><ele>336.0</ele><time>2026-04-29T10:56:22.107Z</time></trkpt><trkpt lat="40.37469803578725" lon="8.63106075745238"><ele>336.0</ele><time>2026-04-29T10:56:23.107Z</time></trkpt><trkpt lat="40.37469484420102" lon="8.631274844822016"><ele>336.0</ele><time>2026-04-29T10:56:24.107Z</time></trkpt><trkpt lat="40.37469903886529" lon="8.631499492748924"><ele>336.3333333333333</ele><time>2026-04-29T10:56:25.107Z</time></trkpt><trkpt lat="40.374704172861655" lon="8.631733671253764"><ele>336.66666666666663</ele><time>2026-04-29T10:56:26.107Z</time></trkpt><trkpt lat="40.374710916256134" lon="8.631975033701668"><ele>337.0</ele><time>2026-04-29T10:56:27.107Z</time></trkpt><trkpt lat="40.37471090715481" lon="8.63222675795681"><ele>337.66666666666663</ele><time>2026-04-29T10:56:28.108Z</time></trkpt><trkpt lat="40.37470591005422" lon="8.632474226967823"><ele>338.3333333333333</ele><time>2026-04-29T10:56:29.108Z</time></trkpt><trkpt lat="40.37470495480843" lon="8.63271465939797"><ele>339.0</ele><time>2026-04-29T10:56:30.108Z</time></trkpt><trkpt lat="40.374698973642744" lon="8.6329514358834"><ele>341.3333333333333</ele><time>2026-04-29T10:56:31.107Z</time></trkpt><trkpt lat="40.3747023138586" lon="8.633183241220266"><ele>343.66666666666663</ele><time>2026-04-29T10:56:32.108Z</time></trkpt><trkpt lat="40.37472592514947" lon="8.633406136479126"><ele>346.0</ele><time>2026-04-29T10:56:33.108Z</time></trkpt><trkpt lat="40.374768557208164" lon="8.633626643970105"><ele>347.66666666666663</ele><time>2026-04-29T10:56:34.107Z</time></trkpt><trkpt lat="40.374822509437045" lon="8.633846827411142"><ele>349.3333333333333</ele><time>2026-04-29T10:56:35.107Z</time></trkpt><trkpt lat="40.37487575829902" lon="8.634066971102632"><ele>351.0</ele><time>2026-04-29T10:56:36.107Z</time></trkpt><trkpt lat="40.37492638970708" lon="8.634292824952373"><ele>353.6666666666667</ele><time>2026-04-29T10:56:37.108Z</time></trkpt><trkpt lat="40.37497453973595" lon="8.634520499126232"><ele>356.33333333333337</ele><time>2026-04-29T10:56:38.108Z</time></trkpt><trkpt lat="40.37502558164169" lon="8.634750753145957"><ele>359.0</ele><time>2026-04-29T10:56:39.108Z</time></trkpt><trkpt lat="40.37508249891195" lon="8.634985015953314"><ele>359.0</ele><time>2026-04-29T10:56:40.108Z</time></trkpt><trkpt lat="40.375139699764446" lon="8.635220890298813"><ele>359.0</ele><time>2026-04-29T10:56:41.107Z</time></trkpt><trkpt lat="40.37519221215691" lon="8.635465345015122"><ele>359.0</ele><time>2026-04-29T10:56:42.107Z</time></trkpt><trkpt lat="40.375238270023054" lon="8.63570786048383"><ele>361.0</ele><time>2026-04-29T10:56:43.107Z</time></trkpt><trkpt lat="40.375288302586206" lon="8.635940264309077"><ele>363.0</ele><time>2026-04-29T10:56:44.107Z</time></trkpt><trkpt lat="40.375344156363745" lon="8.636164821813912"><ele>365.0</ele><time>2026-04-29T10:56:45.107Z</time></trkpt><trkpt lat="40.37539701023313" lon="8.636390804327343"><ele>366.33333333333337</ele><time>2026-04-29T10:56:46.107Z</time></trkpt><trkpt lat="40.37544762722688" lon="8.636610147659537"><ele>367.6666666666667</ele><time>2026-04-29T10:56:47.107Z</time></trkpt><trkpt lat="40.3754989905841" lon="8.636825063428985"><ele>369.0</ele><time>2026-04-29T10:56:48.107Z</time></trkpt><trkpt lat="40.37555248835846" lon="8.637032171112484"><ele>366.3333333333333</ele><time>2026-04-29T10:56:49.107Z</time></trkpt><trkpt lat="40.375609400433454" lon="8.637237251672556"><ele>363.66666666666663</ele><time>2026-04-29T10:56:50.107Z</time></trkpt><trkpt lat="40.37566181326052" lon="8.637436302965403"><ele>361.0</ele><time>2026-04-29T10:56:51.107Z</time></trkpt><trkpt lat="40.37570808844701" lon="8.637638281653278"><ele>364.0</ele><time>2026-04-29T10:56:52.107Z</time></trkpt><trkpt lat="40.37575203333803" lon="8.637840881750524"><ele>367.0</ele><time>2026-04-29T10:56:53.107Z</time></trkpt><trkpt lat="40.375806392911464" lon="8.638036456851015"><ele>370.0</ele><time>2026-04-29T10:56:54.107Z</time></trkpt><trkpt lat="40.37588422215356" lon="8.6382160230205"><ele>370.0</ele><time>2026-04-29T10:56:55.107Z</time></trkpt><trkpt lat="40.37596780022919" lon="8.638393522277394"><ele>370.0</ele><time>2026-04-29T10:56:56.107Z</time></trkpt><trkpt lat="40.3760618612442" lon="8.638560251368249"><ele>370.0</ele><time>2026-04-29T10:56:57.107Z</time></trkpt><trkpt lat="40.37617098003239" lon="8.638709108317132"><ele>370.3333333333333</ele><time>2026-04-29T10:56:58.107Z</time></trkpt><trkpt lat="40.376291117025005" lon="8.638847693721106"><ele>370.6666666666667</ele><time>2026-04-29T10:56:59.107Z</time></trkpt><trkpt lat="40.37641883064594" lon="8.638965960460524"><ele>371.0</ele><time>2026-04-29T10:57:00.107Z</time></trkpt><trkpt lat="40.37655175046703" lon="8.639071243863912"><ele>371.0</ele><time>2026-04-29T10:57:01.107Z</time></trkpt><trkpt lat="40.37669366488014" lon="8.63915633446774"><ele>371.0</ele><time>2026-04-29T10:57:02.107Z</time></trkpt><trkpt lat="40.376844976613285" lon="8.639228704737846"><ele>371.0</ele><time>2026-04-29T10:57:03.107Z</time></trkpt><trkpt lat="40.37699903769571" lon="8.639283135748665"><ele>371.0</ele><time>2026-04-29T10:57:04.107Z</time></trkpt><trkpt lat="40.37716202678872" lon="8.639319817420754"><ele>371.0</ele><time>2026-04-29T10:57:05.107Z</time></trkpt><trkpt lat="40.37732502083589" lon="8.639336410515352"><ele>371.0</ele><time>2026-04-29T10:57:06.107Z</time></trkpt><trkpt lat="40.37748589519474" lon="8.639328685016904"><ele>368.33333333333337</ele><time>2026-04-29T10:57:07.107Z</time></trkpt><trkpt lat="40.377645997159426" lon="8.63930157688662"><ele>365.6666666666667</ele><time>2026-04-29T10:57:08.107Z</time></trkpt><trkpt lat="40.37781464621683" lon="8.639254585874234"><ele>363.0</ele><time>2026-04-29T10:57:09.107Z</time></trkpt><trkpt lat="40.37797654623233" lon="8.639183774567007"><ele>365.6666666666667</ele><time>2026-04-29T10:57:10.107Z</time></trkpt><trkpt lat="40.37813267170891" lon="8.639094214718178"><ele>368.33333333333337</ele><time>2026-04-29T10:57:11.107Z</time></trkpt><trkpt lat="40.378292325963535" lon="8.638984235739867"><ele>371.0</ele><time>2026-04-29T10:57:12.107Z</time></trkpt><trkpt lat="40.37844283448508" lon="8.638849676036445"><ele>371.0</ele><time>2026-04-29T10:57:13.107Z</time></trkpt><trkpt lat="40.37857663256581" lon="8.638694281884884"><ele>371.0</ele><time>2026-04-29T10:57:14.107Z</time></trkpt><trkpt lat="40.37869442114228" lon="8.638522433307152"><ele>371.0</ele><time>2026-04-29T10:57:15.107Z</time></trkpt><trkpt lat="40.37880461014795" lon="8.638338642372453"><ele>371.33333333333337</ele><time>2026-04-29T10:57:16.107Z</time></trkpt><trkpt lat="40.378912295289986" lon="8.638147418483966"><ele>371.6666666666667</ele><time>2026-04-29T10:57:17.107Z</time></trkpt><trkpt lat="40.37902737761516" lon="8.637960932626935"><ele>372.0</ele><time>2026-04-29T10:57:18.107Z</time></trkpt><trkpt lat="40.379139275482075" lon="8.637774105814824"><ele>372.0</ele><time>2026-04-29T10:57:19.107Z</time></trkpt><trkpt lat="40.379240159859535" lon="8.637589257520427"><ele>372.0</ele><time>2026-04-29T10:57:20.107Z</time></trkpt><trkpt lat="40.37934403867584" lon="8.637397742043111"><ele>372.0</ele><time>2026-04-29T10:57:21.107Z</time></trkpt><trkpt lat="40.37945006435301" lon="8.63719945601542"><ele>372.0</ele><time>2026-04-29T10:57:22.107Z</time></trkpt><trkpt lat="40.37956069035707" lon="8.637002944348984"><ele>372.0</ele><time>2026-04-29T10:57:23.107Z</time></trkpt><trkpt lat="40.37967710059979" lon="8.636816127095752"><ele>372.0</ele><time>2026-04-29T10:57:24.107Z</time></trkpt><trkpt lat="40.37980305865007" lon="8.636628187013587"><ele>372.6666666666667</ele><time>2026-04-29T10:57:25.107Z</time></trkpt><trkpt lat="40.379938772176615" lon="8.636442501574408"><ele>373.33333333333337</ele><time>2026-04-29T10:57:26.107Z</time></trkpt><trkpt lat="40.38008558837417" lon="8.636264028925348"><ele>374.0</ele><time>2026-04-29T10:57:27.107Z</time></trkpt><trkpt lat="40.38023871351116" lon="8.636091488653834"><ele>374.0</ele><time>2026-04-29T10:57:28.107Z</time></trkpt><trkpt lat="40.38038597705825" lon="8.635903889172084"><ele>374.0</ele><time>2026-04-29T10:57:29.107Z</time></trkpt><trkpt lat="40.38053653311018" lon="8.635711944518448"><ele>374.0</ele><time>2026-04-29T10:57:30.107Z</time></trkpt><trkpt lat="40.380695964228096" lon="8.635520162632247"><ele>374.6666666666667</ele><time>2026-04-29T10:57:31.107Z</time></trkpt><trkpt lat="40.38086386400742" lon="8.63533064841401"><ele>375.3333333333333</ele><time>2026-04-29T10:57:32.107Z</time></trkpt><trkpt lat="40.38103159744718" lon="8.635139735290224"><ele>376.0</ele><time>2026-04-29T10:57:33.107Z</time></trkpt><trkpt lat="40.38119923186264" lon="8.634946130202751"><ele>374.5</ele><time>2026-04-29T10:57:34.107Z</time></trkpt><trkpt lat="40.381372840162044" lon="8.634754256652313"><ele>373.0</ele><time>2026-04-29T10:57:35.107Z</time></trkpt><trkpt lat="40.38155107940693" lon="8.634563995422383"><ele>371.0</ele><time>2026-04-29T10:57:36.107Z</time></trkpt><trkpt lat="40.38172813200501" lon="8.634371414715892"><ele>369.0</ele><time>2026-04-29T10:57:37.107Z</time></trkpt><trkpt lat="40.38190343949534" lon="8.634172385070471"><ele>369.0</ele><time>2026-04-29T10:57:38.107Z</time></trkpt><trkpt lat="40.38207807951752" lon="8.633972206684057"><ele>369.0</ele><time>2026-04-29T10:57:39.107Z</time></trkpt><trkpt lat="40.38225546835297" lon="8.633774319241438"><ele>367.5</ele><time>2026-04-29T10:57:40.107Z</time></trkpt><trkpt lat="40.38243986537994" lon="8.633589360772469"><ele>366.0</ele><time>2026-04-29T10:57:41.107Z</time></trkpt><trkpt lat="40.382638493556534" lon="8.633429407729261"><ele>366.0</ele><time>2026-04-29T10:57:42.107Z</time></trkpt><trkpt lat="40.38285037402239" lon="8.633298916197083"><ele>366.0</ele><time>2026-04-29T10:57:43.107Z</time></trkpt><trkpt lat="40.38307550554366" lon="8.633199782509468"><ele>363.0</ele><time>2026-04-29T10:57:44.107Z</time></trkpt><trkpt lat="40.383304236498304" lon="8.633121905301964"><ele>360.0</ele><time>2026-04-29T10:57:45.107Z</time></trkpt><trkpt lat="40.38353538197808" lon="8.633050228510347"><ele>360.0</ele><time>2026-04-29T10:57:46.107Z</time></trkpt><trkpt lat="40.38376901442684" lon="8.632974739076738"><ele>360.0</ele><time>2026-04-29T10:57:47.107Z</time></trkpt><trkpt lat="40.384002952562895" lon="8.632898078663318"><ele>357.5</ele><time>2026-04-29T10:57:48.107Z</time></trkpt><trkpt lat="40.384232620644575" lon="8.63282603204545"><ele>355.0</ele><time>2026-04-29T10:57:49.107Z</time></trkpt><trkpt lat="40.38446403574635" lon="8.632752919237978"><ele>352.5</ele><time>2026-04-29T10:57:50.107Z</time></trkpt><trkpt lat="40.384696771105325" lon="8.632674240563796"><ele>350.0</ele><time>2026-04-29T10:57:51.107Z</time></trkpt><trkpt lat="40.384917877434795" lon="8.632606158769617"><ele>350.0</ele><time>2026-04-29T10:57:52.107Z</time></trkpt><trkpt lat="40.38513792135004" lon="8.632534605262403"><ele>350.0</ele><time>2026-04-29T10:57:53.107Z</time></trkpt><trkpt lat="40.3853547832762" lon="8.632454779850486"><ele>349.33333333333337</ele><time>2026-04-29T10:57:54.107Z</time></trkpt><trkpt lat="40.38557001621673" lon="8.632382547721038"><ele>348.6666666666667</ele><time>2026-04-29T10:57:55.107Z</time></trkpt><trkpt lat="40.385784746512634" lon="8.632316999475396"><ele>348.0</ele><time>2026-04-29T10:57:56.107Z</time></trkpt><trkpt lat="40.385995863932486" lon="8.632229062441171"><ele>348.0</ele><time>2026-04-29T10:57:57.107Z</time></trkpt><trkpt lat="40.38618880620599" lon="8.63211601201002"><ele>348.0</ele><time>2026-04-29T10:57:58.107Z</time></trkpt><trkpt lat="40.38635349068313" lon="8.631973277369411"><ele>348.0</ele><time>2026-04-29T10:57:59.107Z</time></trkpt><trkpt lat="40.38651089676835" lon="8.631820125280298"><ele>348.6666666666667</ele><time>2026-04-29T10:58:00.107Z</time></trkpt><trkpt lat="40.386674930196676" lon="8.631706798789173"><ele>349.33333333333337</ele><time>2026-04-29T10:58:01.107Z</time></trkpt><trkpt lat="40.38686115943938" lon="8.631631900697586"><ele>350.0</ele><time>2026-04-29T10:58:02.107Z</time></trkpt><trkpt lat="40.38706012189732" lon="8.631594616221218"><ele>349.33333333333337</ele><time>2026-04-29T10:58:03.107Z</time></trkpt><trkpt lat="40.38726827528608" lon="8.631580984175645"><ele>348.6666666666667</ele><time>2026-04-29T10:58:04.107Z</time></trkpt><trkpt lat="40.38748230002124" lon="8.631586526505323"><ele>348.0</ele><time>2026-04-29T10:58:05.107Z</time></trkpt><trkpt lat="40.387698055435436" lon="8.631612354271343"><ele>348.0</ele><time>2026-04-29T10:58:06.107Z</time></trkpt><trkpt lat="40.387907589842634" lon="8.631666092392045"><ele>348.0</ele><time>2026-04-29T10:58:07.107Z</time></trkpt><trkpt lat="40.388094686725104" lon="8.631729851938392"><ele>348.0</ele><time>2026-04-29T10:58:08.107Z</time></trkpt><trkpt lat="40.3882563316584" lon="8.631804291386262"><ele>348.25</ele><time>2026-04-29T10:58:09.107Z</time></trkpt><trkpt lat="40.38839721704888" lon="8.631893791748388"><ele>348.5</ele><time>2026-04-29T10:58:10.107Z</time></trkpt><trkpt lat="40.388502007660016" lon="8.631981414657693"><ele>348.75</ele><time>2026-04-29T10:58:11.107Z</time></trkpt><trkpt lat="40.388584179078755" lon="8.632029345524268"><ele>349.0</ele><time>2026-04-29T10:58:12.107Z</time></trkpt><trkpt lat="40.38875265696918" lon="8.632026573669531"><ele>349.0</ele><time>2026-04-29T10:58:14.107Z</time></trkpt><trkpt lat="40.388834561131155" lon="8.632008461499634"><ele>349.0</ele><time>2026-04-29T10:58:15.107Z</time></trkpt><trkpt lat="40.38891515532096" lon="8.632002396758248"><ele>349.0</ele><time>2026-04-29T10:58:16.107Z</time></trkpt><trkpt lat="40.38899301259639" lon="8.632003628933877"><ele>349.0</ele><time>2026-04-29T10:58:17.107Z</time></trkpt><trkpt lat="40.389073257558515" lon="8.632019593468916"><ele>349.0</ele><time>2026-04-29T10:58:18.107Z</time></trkpt><trkpt lat="40.389152932998044" lon="8.632067454650958"><ele>349.0</ele><time>2026-04-29T10:58:19.107Z</time></trkpt><trkpt lat="40.38921772134682" lon="8.632153982009168"><ele>347.6</ele><time>2026-04-29T10:58:20.107Z</time></trkpt><trkpt lat="40.389274288105234" lon="8.632250620175627"><ele>346.2</ele><time>2026-04-29T10:58:21.107Z</time></trkpt><trkpt lat="40.389331588255274" lon="8.632352647819912"><ele>344.8</ele><time>2026-04-29T10:58:22.107Z</time></trkpt><trkpt lat="40.389393128284134" lon="8.632466062737578"><ele>343.40000000000003</ele><time>2026-04-29T10:58:23.107Z</time></trkpt><trkpt lat="40.389462460062695" lon="8.6325828744213"><ele>342.0</ele><time>2026-04-29T10:58:24.107Z</time></trkpt><trkpt lat="40.38954821765804" lon="8.632693187640907"><ele>342.0</ele><time>2026-04-29T10:58:25.107Z</time></trkpt><trkpt lat="40.38965337526959" lon="8.63278040175506"><ele>342.0</ele><time>2026-04-29T10:58:26.107Z</time></trkpt><trkpt lat="40.38978226158113" lon="8.632802834818968"><ele>342.0</ele><time>2026-04-29T10:58:27.107Z</time></trkpt><trkpt lat="40.38991687303984" lon="8.632772794124879"><ele>342.0</ele><time>2026-04-29T10:58:28.107Z</time></trkpt><trkpt lat="40.39005839573538" lon="8.632771296181966"><ele>341.25</ele><time>2026-04-29T10:58:29.107Z</time></trkpt><trkpt lat="40.39018686550777" lon="8.632850867892898"><ele>340.5</ele><time>2026-04-29T10:58:30.107Z</time></trkpt><trkpt lat="40.39029655788642" lon="8.632981833950474"><ele>339.75</ele><time>2026-04-29T10:58:31.107Z</time></trkpt><trkpt lat="40.39040749199234" lon="8.633121593147491"><ele>339.0</ele><time>2026-04-29T10:58:32.107Z</time></trkpt><trkpt lat="40.390525889442884" lon="8.63324063019103"><ele>338.5</ele><time>2026-04-29T10:58:33.107Z</time></trkpt><trkpt lat="40.39065693713099" lon="8.633340809487297"><ele>338.0</ele><time>2026-04-29T10:58:34.108Z</time></trkpt><trkpt lat="40.390772352679825" lon="8.633449593844349"><ele>337.5</ele><time>2026-04-29T10:58:35.109Z</time></trkpt><trkpt lat="40.390877461759004" lon="8.633572997914623"><ele>337.0</ele><time>2026-04-29T10:58:36.109Z</time></trkpt><trkpt lat="40.39097064834509" lon="8.63371256698553"><ele>337.0</ele><time>2026-04-29T10:58:37.108Z</time></trkpt><trkpt lat="40.39106294825787" lon="8.633870288360201"><ele>337.0</ele><time>2026-04-29T10:58:38.109Z</time></trkpt><trkpt lat="40.391166360582474" lon="8.634032126359065"><ele>337.0</ele><time>2026-04-29T10:58:39.109Z</time></trkpt><trkpt lat="40.39128074178405" lon="8.63419317097983"><ele>336.66666666666663</ele><time>2026-04-29T10:58:40.109Z</time></trkpt><trkpt lat="40.39140217974879" lon="8.634364117991641"><ele>336.3333333333333</ele><time>2026-04-29T10:58:41.109Z</time></trkpt><trkpt lat="40.391523358529376" lon="8.634547733396976"><ele>336.0</ele><time>2026-04-29T10:58:42.109Z</time></trkpt><trkpt lat="40.39163353297758" lon="8.634718257353208"><ele>336.0</ele><time>2026-04-29T10:58:43.109Z</time></trkpt><trkpt lat="40.39176572957111" lon="8.634886877049412"><ele>336.0</ele><time>2026-04-29T10:58:44.108Z</time></trkpt><trkpt lat="40.391915448059244" lon="8.635044594942055"><ele>336.0</ele><time>2026-04-29T10:58:45.108Z</time></trkpt><trkpt lat="40.39206945082698" lon="8.635207621407508"><ele>337.3333333333333</ele><time>2026-04-29T10:58:46.109Z</time></trkpt><trkpt lat="40.392229074374484" lon="8.635360505920286"><ele>338.66666666666663</ele><time>2026-04-29T10:58:47.108Z</time></trkpt><trkpt lat="40.392404079841505" lon="8.635508864384384"><ele>340.0</ele><time>2026-04-29T10:58:48.108Z</time></trkpt><trkpt lat="40.392584335256785" lon="8.635641957836032"><ele>340.0</ele><time>2026-04-29T10:58:49.108Z</time></trkpt><trkpt lat="40.39277008300618" lon="8.635760907961053"><ele>340.0</ele><time>2026-04-29T10:58:50.108Z</time></trkpt><trkpt lat="40.39296187734206" lon="8.635845936285067"><ele>340.0</ele><time>2026-04-29T10:58:51.108Z</time></trkpt><trkpt lat="40.393171376835575" lon="8.635911087489095"><ele>338.66666666666663</ele><time>2026-04-29T10:58:52.108Z</time></trkpt><trkpt lat="40.3933907854514" lon="8.635949291166908"><ele>337.3333333333333</ele><time>2026-04-29T10:58:53.108Z</time></trkpt><trkpt lat="40.39361540975802" lon="8.635981270630664"><ele>336.0</ele><time>2026-04-29T10:58:54.108Z</time></trkpt><trkpt lat="40.39383703655941" lon="8.635993295080338"><ele>333.0</ele><time>2026-04-29T10:58:55.108Z</time></trkpt><trkpt lat="40.394063487759674" lon="8.635974248113216"><ele>330.0</ele><time>2026-04-29T10:58:56.108Z</time></trkpt><trkpt lat="40.39429539940262" lon="8.635926502879375"><ele>330.0</ele><time>2026-04-29T10:58:57.108Z</time></trkpt><trkpt lat="40.39453699818838" lon="8.63587611940183"><ele>330.0</ele><time>2026-04-29T10:58:58.108Z</time></trkpt><trkpt lat="40.394777187770686" lon="8.635834948868181"><ele>327.0</ele><time>2026-04-29T10:58:59.108Z</time></trkpt><trkpt lat="40.39501307635445" lon="8.635791092284297"><ele>324.0</ele><time>2026-04-29T10:59:00.108Z</time></trkpt><trkpt lat="40.395247363189974" lon="8.635749292639355"><ele>324.0</ele><time>2026-04-29T10:59:01.108Z</time></trkpt><trkpt lat="40.39548140374185" lon="8.635723316692028"><ele>324.0</ele><time>2026-04-29T10:59:02.108Z</time></trkpt><trkpt lat="40.39571189853256" lon="8.635717781318318"><ele>321.5</ele><time>2026-04-29T10:59:03.108Z</time></trkpt><trkpt lat="40.39594229427123" lon="8.635719426072145"><ele>319.0</ele><time>2026-04-29T10:59:04.108Z</time></trkpt><trkpt lat="40.396173498333546" lon="8.635718851041423"><ele>317.0</ele><time>2026-04-29T10:59:05.108Z</time></trkpt><trkpt lat="40.39641351816713" lon="8.635715602669407"><ele>315.0</ele><time>2026-04-29T10:59:06.108Z</time></trkpt><trkpt lat="40.396876170241754" lon="8.635720228051436"><ele>315.0</ele><time>2026-04-29T10:59:08.108Z</time></trkpt><trkpt lat="40.39710211942373" lon="8.635725352143272"><ele>315.0</ele><time>2026-04-29T10:59:09.108Z</time></trkpt><trkpt lat="40.39732459493416" lon="8.635727339444284"><ele>315.0</ele><time>2026-04-29T10:59:10.108Z</time></trkpt><trkpt lat="40.39754573768574" lon="8.635732206180492"><ele>314.0</ele><time>2026-04-29T10:59:11.108Z</time></trkpt><trkpt lat="40.39776616393847" lon="8.635725912381844"><ele>313.0</ele><time>2026-04-29T10:59:12.108Z</time></trkpt><trkpt lat="40.39797733418283" lon="8.635697117144687"><ele>312.0</ele><time>2026-04-29T10:59:13.108Z</time></trkpt><trkpt lat="40.398159685004764" lon="8.635631522632988"><ele>310.25</ele><time>2026-04-29T10:59:14.108Z</time></trkpt><trkpt lat="40.39831440186252" lon="8.63556076911556"><ele>308.5</ele><time>2026-04-29T10:59:15.108Z</time></trkpt><trkpt lat="40.39845151827925" lon="8.635494364583522"><ele>306.75</ele><time>2026-04-29T10:59:16.108Z</time></trkpt><trkpt lat="40.39858200308285" lon="8.635453499082152"><ele>305.0</ele><time>2026-04-29T10:59:17.108Z</time></trkpt><trkpt lat="40.398844646567206" lon="8.635472125961602"><ele>302.0</ele><time>2026-04-29T10:59:19.108Z</time></trkpt><trkpt lat="40.39900167598064" lon="8.635493410368353"><ele>299.0</ele><time>2026-04-29T10:59:20.108Z</time></trkpt><trkpt lat="40.39917487174898" lon="8.635468991529049"><ele>296.0</ele><time>2026-04-29T10:59:21.108Z</time></trkpt><trkpt lat="40.399357649316165" lon="8.63544630760206"><ele>296.0</ele><time>2026-04-29T10:59:22.108Z</time></trkpt><trkpt lat="40.39952069138928" lon="8.63546276169061"><ele>296.0</ele><time>2026-04-29T10:59:23.108Z</time></trkpt><trkpt lat="40.399678855480474" lon="8.6355894347093"><ele>296.0</ele><time>2026-04-29T10:59:24.108Z</time></trkpt><trkpt lat="40.39980427396108" lon="8.635780561282328"><ele>291.6666666666667</ele><time>2026-04-29T10:59:25.108Z</time></trkpt><trkpt lat="40.399891348999276" lon="8.636008368910801"><ele>287.3333333333333</ele><time>2026-04-29T10:59:26.108Z</time></trkpt><trkpt lat="40.39997371891395" lon="8.636256865658504"><ele>283.0</ele><time>2026-04-29T10:59:27.108Z</time></trkpt><trkpt lat="40.40004930803445" lon="8.63650339533932"><ele>283.0</ele><time>2026-04-29T10:59:28.108Z</time></trkpt><trkpt lat="40.400129195168866" lon="8.636708559747241"><ele>283.0</ele><time>2026-04-29T10:59:29.108Z</time></trkpt><trkpt lat="40.400234889810996" lon="8.636851234227402"><ele>283.0</ele><time>2026-04-29T10:59:30.108Z</time></trkpt><trkpt lat="40.40036874127652" lon="8.636924856792826"><ele>283.0</ele><time>2026-04-29T10:59:31.108Z</time></trkpt><trkpt lat="40.400527767007695" lon="8.636911838667206"><ele>283.0</ele><time>2026-04-29T10:59:32.108Z</time></trkpt><trkpt lat="40.40067636850414" lon="8.636814331952916"><ele>283.0</ele><time>2026-04-29T10:59:33.108Z</time></trkpt><trkpt lat="40.40077434649355" lon="8.636639757624494"><ele>283.0</ele><time>2026-04-29T10:59:34.108Z</time></trkpt><trkpt lat="40.40080649089197" lon="8.636424862359679"><ele>283.0</ele><time>2026-04-29T10:59:35.108Z</time></trkpt><trkpt lat="40.4007722648783" lon="8.636171791900505"><ele>283.0</ele><time>2026-04-29T10:59:36.108Z</time></trkpt><trkpt lat="40.400731217755684" lon="8.635903665809177"><ele>281.3333333333333</ele><time>2026-04-29T10:59:37.108Z</time></trkpt><trkpt lat="40.400721649101605" lon="8.635646184233847"><ele>279.6666666666667</ele><time>2026-04-29T10:59:38.108Z</time></trkpt><trkpt lat="40.400772704897754" lon="8.635401152765048"><ele>278.0</ele><time>2026-04-29T10:59:39.108Z</time></trkpt><trkpt lat="40.400880659997824" lon="8.635193096458188"><ele>275.33333333333337</ele><time>2026-04-29T10:59:40.108Z</time></trkpt><trkpt lat="40.401061369051504" lon="8.635027346441355"><ele>272.6666666666667</ele><time>2026-04-29T10:59:41.108Z</time></trkpt><trkpt lat="40.40125261303" lon="8.634863956715177"><ele>270.0</ele><time>2026-04-29T10:59:42.108Z</time></trkpt><trkpt lat="40.401446172366875" lon="8.634716389150789"><ele>270.0</ele><time>2026-04-29T10:59:43.108Z</time></trkpt><trkpt lat="40.4016232582876" lon="8.634612286783238"><ele>270.0</ele><time>2026-04-29T10:59:44.108Z</time></trkpt><trkpt lat="40.40179816344805" lon="8.63458003311276"><ele>270.0</ele><time>2026-04-29T10:59:45.108Z</time></trkpt><trkpt lat="40.40198350437892" lon="8.634654988669116"><ele>267.6666666666667</ele><time>2026-04-29T10:59:46.108Z</time></trkpt><trkpt lat="40.402183737395575" lon="8.634762758663726"><ele>265.33333333333337</ele><time>2026-04-29T10:59:47.108Z</time></trkpt><trkpt lat="40.402389119032094" lon="8.634883062454803"><ele>263.0</ele><time>2026-04-29T10:59:48.108Z</time></trkpt><trkpt lat="40.40260506559268" lon="8.635023689603248"><ele>263.0</ele><time>2026-04-29T10:59:49.108Z</time></trkpt><trkpt lat="40.40279145061321" lon="8.635214708536497"><ele>263.0</ele><time>2026-04-29T10:59:50.108Z</time></trkpt><trkpt lat="40.402942817434" lon="8.635463949415628"><ele>260.0</ele><time>2026-04-29T10:59:51.108Z</time></trkpt><trkpt lat="40.403065948544466" lon="8.635732012496087"><ele>257.0</ele><time>2026-04-29T10:59:52.108Z</time></trkpt><trkpt lat="40.40317550768275" lon="8.635982342128857"><ele>259.33333333333337</ele><time>2026-04-29T10:59:53.108Z</time></trkpt><trkpt lat="40.40327694946089" lon="8.636183291062085"><ele>261.6666666666667</ele><time>2026-04-29T10:59:54.108Z</time></trkpt><trkpt lat="40.40340053880629" lon="8.636318342136093"><ele>264.0</ele><time>2026-04-29T10:59:55.108Z</time></trkpt><trkpt lat="40.403557925728066" lon="8.636354123920304"><ele>264.0</ele><time>2026-04-29T10:59:56.108Z</time></trkpt><trkpt lat="40.403719671604314" lon="8.636304254314233"><ele>264.0</ele><time>2026-04-29T10:59:57.108Z</time></trkpt><trkpt lat="40.4038571633875" lon="8.63617906402665"><ele>264.0</ele><time>2026-04-29T10:59:58.108Z</time></trkpt><trkpt lat="40.40393871398846" lon="8.635976967394427"><ele>263.0</ele><time>2026-04-29T10:59:59.108Z</time></trkpt><trkpt lat="40.4039589797752" lon="8.635725839319264"><ele>262.0</ele><time>2026-04-29T11:00:00.108Z</time></trkpt><trkpt lat="40.40394216785943" lon="8.635441840585216"><ele>261.0</ele><time>2026-04-29T11:00:01.108Z</time></trkpt><trkpt lat="40.40394143460313" lon="8.635128114234341"><ele>259.5</ele><time>2026-04-29T11:00:02.108Z</time></trkpt><trkpt lat="40.40396254557298" lon="8.634822850061806"><ele>258.0</ele><time>2026-04-29T11:00:03.108Z</time></trkpt><trkpt lat="40.40403176404501" lon="8.634528926056207"><ele>255.0</ele><time>2026-04-29T11:00:04.108Z</time></trkpt><trkpt lat="40.40414405870492" lon="8.634266291523936"><ele>252.0</ele><time>2026-04-29T11:00:05.108Z</time></trkpt><trkpt lat="40.404287730237215" lon="8.634029200222825"><ele>252.0</ele><time>2026-04-29T11:00:06.108Z</time></trkpt><trkpt lat="40.40442450571589" lon="8.633786253188399"><ele>252.0</ele><time>2026-04-29T11:00:07.108Z</time></trkpt><trkpt lat="40.40451183362064" lon="8.633507121685321"><ele>247.5</ele><time>2026-04-29T11:00:08.108Z</time></trkpt><trkpt lat="40.40453662335915" lon="8.633195776375917"><ele>243.0</ele><time>2026-04-29T11:00:09.108Z</time></trkpt><trkpt lat="40.40453552483908" lon="8.632875380682108"><ele>241.5</ele><time>2026-04-29T11:00:10.108Z</time></trkpt><trkpt lat="40.40452254383347" lon="8.632567572312952"><ele>240.0</ele><time>2026-04-29T11:00:11.108Z</time></trkpt><trkpt lat="40.404481337678604" lon="8.632290626010112"><ele>240.0</ele><time>2026-04-29T11:00:12.108Z</time></trkpt><trkpt lat="40.40436926207234" lon="8.632054809693836"><ele>240.0</ele><time>2026-04-29T11:00:13.108Z</time></trkpt><trkpt lat="40.40419423206936" lon="8.631860302380252"><ele>240.0</ele><time>2026-04-29T11:00:14.108Z</time></trkpt><trkpt lat="40.40401368828417" lon="8.63166227614137"><ele>241.5</ele><time>2026-04-29T11:00:15.108Z</time></trkpt><trkpt lat="40.403843239243514" lon="8.631447091029786"><ele>243.0</ele><time>2026-04-29T11:00:16.108Z</time></trkpt><trkpt lat="40.403719032970066" lon="8.631193069661336"><ele>234.0</ele><time>2026-04-29T11:00:17.108Z</time></trkpt><trkpt lat="40.40364971466873" lon="8.630911191347195"><ele>225.0</ele><time>2026-04-29T11:00:18.108Z</time></trkpt><trkpt lat="40.403643324898965" lon="8.630607242892701"><ele>224.0</ele><time>2026-04-29T11:00:19.108Z</time></trkpt><trkpt lat="40.403685683156894" lon="8.630303707103973"><ele>223.0</ele><time>2026-04-29T11:00:20.108Z</time></trkpt><trkpt lat="40.40379060738137" lon="8.63002464154318"><ele>230.0</ele><time>2026-04-29T11:00:21.108Z</time></trkpt><trkpt lat="40.403939643368204" lon="8.629784776335283"><ele>237.0</ele><time>2026-04-29T11:00:22.108Z</time></trkpt><trkpt lat="40.40408324784137" lon="8.629555745503259"><ele>232.5</ele><time>2026-04-29T11:00:23.108Z</time></trkpt><trkpt lat="40.40416916571768" lon="8.629286768667203"><ele>228.0</ele><time>2026-04-29T11:00:24.108Z</time></trkpt><trkpt lat="40.40421215772235" lon="8.628982435786812"><ele>228.0</ele><time>2026-04-29T11:00:25.108Z</time></trkpt><trkpt lat="40.40423468932854" lon="8.628663007811351"><ele>228.0</ele><time>2026-04-29T11:00:26.108Z</time></trkpt><trkpt lat="40.4042560798636" lon="8.62835177152521"><ele>225.0</ele><time>2026-04-29T11:00:27.108Z</time></trkpt><trkpt lat="40.404287445104835" lon="8.628071254116978"><ele>222.0</ele><time>2026-04-29T11:00:28.108Z</time></trkpt><trkpt lat="40.40435315704615" lon="8.62783750121916"><ele>219.0</ele><time>2026-04-29T11:00:29.108Z</time></trkpt><trkpt lat="40.40448711814396" lon="8.62766844496822"><ele>217.66666666666669</ele><time>2026-04-29T11:00:30.108Z</time></trkpt><trkpt lat="40.404680554666236" lon="8.627560883692494"><ele>216.33333333333334</ele><time>2026-04-29T11:00:31.108Z</time></trkpt><trkpt lat="40.404915164432225" lon="8.627521543294508"><ele>215.0</ele><time>2026-04-29T11:00:32.108Z</time></trkpt><trkpt lat="40.405171091736946" lon="8.627516313820715"><ele>215.0</ele><time>2026-04-29T11:00:33.108Z</time></trkpt><trkpt lat="40.40543249298268" lon="8.627509238420352"><ele>215.0</ele><time>2026-04-29T11:00:34.108Z</time></trkpt><trkpt lat="40.40568831906499" lon="8.627483694541056"><ele>213.5</ele><time>2026-04-29T11:00:35.108Z</time></trkpt><trkpt lat="40.40594151437621" lon="8.627456513625402"><ele>212.0</ele><time>2026-04-29T11:00:36.108Z</time></trkpt><trkpt lat="40.40619167436339" lon="8.627436562203743"><ele>208.5</ele><time>2026-04-29T11:00:37.108Z</time></trkpt><trkpt lat="40.40642725441272" lon="8.627418082448512"><ele>205.0</ele><time>2026-04-29T11:00:38.108Z</time></trkpt><trkpt lat="40.40664722413309" lon="8.627403646670123"><ele>205.0</ele><time>2026-04-29T11:00:39.108Z</time></trkpt><trkpt lat="40.40686437030924" lon="8.627418353665497"><ele>205.0</ele><time>2026-04-29T11:00:40.11Z</time></trkpt><trkpt lat="40.40709296949679" lon="8.627456369831872"><ele>205.0</ele><time>2026-04-29T11:00:41.11Z</time></trkpt><trkpt lat="40.40732595174934" lon="8.627521094267188"><ele>205.5</ele><time>2026-04-29T11:00:42.11Z</time></trkpt><trkpt lat="40.4075566179864" lon="8.627618403561426"><ele>206.0</ele><time>2026-04-29T11:00:43.109Z</time></trkpt><trkpt lat="40.407778385265765" lon="8.627757902421743"><ele>206.5</ele><time>2026-04-29T11:00:44.109Z</time></trkpt><trkpt lat="40.40798814768308" lon="8.627929933950586"><ele>207.0</ele><time>2026-04-29T11:00:45.109Z</time></trkpt><trkpt lat="40.40818374588422" lon="8.628123678563382"><ele>207.0</ele><time>2026-04-29T11:00:46.109Z</time></trkpt><trkpt lat="40.4083499472818" lon="8.628328705277822"><ele>207.0</ele><time>2026-04-29T11:00:47.11Z</time></trkpt><trkpt lat="40.40846144435672" lon="8.628584487726052"><ele>209.5</ele><time>2026-04-29T11:00:48.11Z</time></trkpt><trkpt lat="40.40852500438608" lon="8.628881375942678"><ele>212.0</ele><time>2026-04-29T11:00:49.11Z</time></trkpt><trkpt lat="40.40855946599329" lon="8.629202693959199"><ele>215.0</ele><time>2026-04-29T11:00:50.11Z</time></trkpt><trkpt lat="40.408580371606895" lon="8.6295260967676"><ele>218.0</ele><time>2026-04-29T11:00:51.11Z</time></trkpt><trkpt lat="40.40862012565494" lon="8.629825085795671"><ele>218.0</ele><time>2026-04-29T11:00:52.109Z</time></trkpt><trkpt lat="40.408662822085866" lon="8.63009046714534"><ele>218.0</ele><time>2026-04-29T11:00:53.11Z</time></trkpt><trkpt lat="40.40872228466554" lon="8.63031514858595"><ele>218.0</ele><time>2026-04-29T11:00:54.11Z</time></trkpt><trkpt lat="40.408841529242025" lon="8.630491208476577"><ele>212.5</ele><time>2026-04-29T11:00:55.11Z</time></trkpt><trkpt lat="40.40903931706194" lon="8.630601516375645"><ele>207.0</ele><time>2026-04-29T11:00:56.11Z</time></trkpt><trkpt lat="40.4092690715866" lon="8.630731559945652"><ele>207.0</ele><time>2026-04-29T11:00:57.11Z</time></trkpt><trkpt lat="40.409471682817426" lon="8.630891509688569"><ele>207.0</ele><time>2026-04-29T11:00:58.11Z</time></trkpt><trkpt lat="40.40967754096831" lon="8.631056006106434"><ele>214.0</ele><time>2026-04-29T11:00:59.11Z</time></trkpt><trkpt lat="40.409884390038634" lon="8.631219553774555"><ele>221.0</ele><time>2026-04-29T11:01:00.11Z</time></trkpt><trkpt lat="40.41010402153228" lon="8.631369129176312"><ele>221.0</ele><time>2026-04-29T11:01:01.11Z</time></trkpt><trkpt lat="40.41033008873829" lon="8.631530810983586"><ele>221.0</ele><time>2026-04-29T11:01:02.11Z</time></trkpt><trkpt lat="40.4105563149383" lon="8.631684052213686"><ele>223.5</ele><time>2026-04-29T11:01:03.11Z</time></trkpt><trkpt lat="40.41078304107733" lon="8.631826457186353"><ele>226.0</ele><time>2026-04-29T11:01:04.11Z</time></trkpt><trkpt lat="40.41100799026394" lon="8.631992095693619"><ele>226.0</ele><time>2026-04-29T11:01:05.11Z</time></trkpt><trkpt lat="40.411220586158784" lon="8.632173480998816"><ele>226.0</ele><time>2026-04-29T11:01:06.11Z</time></trkpt><trkpt lat="40.411427663886" lon="8.63237349311714"><ele>223.0</ele><time>2026-04-29T11:01:07.11Z</time></trkpt><trkpt lat="40.41163613294167" lon="8.632574490751965"><ele>220.0</ele><time>2026-04-29T11:01:08.11Z</time></trkpt><trkpt lat="40.41185003074857" lon="8.632774297922852"><ele>224.0</ele><time>2026-04-29T11:01:09.11Z</time></trkpt><trkpt lat="40.41205920815057" lon="8.632976177527388"><ele>228.0</ele><time>2026-04-29T11:01:10.11Z</time></trkpt><trkpt lat="40.412260780839524" lon="8.633167646016929"><ele>228.0</ele><time>2026-04-29T11:01:11.11Z</time></trkpt><trkpt lat="40.412458687076466" lon="8.633359355523393"><ele>228.0</ele><time>2026-04-29T11:01:12.11Z</time></trkpt><trkpt lat="40.4126559429069" lon="8.633550057421406"><ele>228.5</ele><time>2026-04-29T11:01:13.11Z</time></trkpt><trkpt lat="40.41285137554773" lon="8.633745409373923"><ele>229.0</ele><time>2026-04-29T11:01:14.11Z</time></trkpt><trkpt lat="40.41305007538898" lon="8.633936294499568"><ele>229.0</ele><time>2026-04-29T11:01:15.11Z</time></trkpt><trkpt lat="40.41324855687159" lon="8.634128246899396"><ele>229.0</ele><time>2026-04-29T11:01:16.11Z</time></trkpt><trkpt lat="40.4134302372938" lon="8.634301511556615"><ele>229.0</ele><time>2026-04-29T11:01:17.11Z</time></trkpt><trkpt lat="40.41360951941363" lon="8.634448604077638"><ele>229.0</ele><time>2026-04-29T11:01:18.11Z</time></trkpt><trkpt lat="40.41381805287551" lon="8.634532393487584"><ele>229.0</ele><time>2026-04-29T11:01:19.11Z</time></trkpt><trkpt lat="40.41403732358289" lon="8.634547113209482"><ele>229.0</ele><time>2026-04-29T11:01:20.11Z</time></trkpt><trkpt lat="40.41424490232934" lon="8.634493532755421"><ele>229.0</ele><time>2026-04-29T11:01:21.11Z</time></trkpt><trkpt lat="40.41445133239696" lon="8.634378338972812"><ele>229.0</ele><time>2026-04-29T11:01:22.11Z</time></trkpt><trkpt lat="40.414642504320334" lon="8.63423018036566"><ele>232.33333333333331</ele><time>2026-04-29T11:01:23.11Z</time></trkpt><trkpt lat="40.414794489364446" lon="8.63406469359911"><ele>235.66666666666669</ele><time>2026-04-29T11:01:24.11Z</time></trkpt><trkpt lat="40.414896451473076" lon="8.633848991371751"><ele>239.0</ele><time>2026-04-29T11:01:25.11Z</time></trkpt><trkpt lat="40.4149357648709" lon="8.633598268490935"><ele>239.0</ele><time>2026-04-29T11:01:26.11Z</time></trkpt><trkpt lat="40.41489143571641" lon="8.633322297554768"><ele>239.0</ele><time>2026-04-29T11:01:27.11Z</time></trkpt><trkpt lat="40.41478179149626" lon="8.633045687677747"><ele>240.0</ele><time>2026-04-29T11:01:28.11Z</time></trkpt><trkpt lat="40.41460083346477" lon="8.632798591441672"><ele>241.0</ele><time>2026-04-29T11:01:29.11Z</time></trkpt><trkpt lat="40.41442500026729" lon="8.632553809830382"><ele>241.0</ele><time>2026-04-29T11:01:30.11Z</time></trkpt><trkpt lat="40.41428589551284" lon="8.632336007277702"><ele>241.0</ele><time>2026-04-29T11:01:31.11Z</time></trkpt><trkpt lat="40.41417602701327" lon="8.63212772337318"><ele>241.0</ele><time>2026-04-29T11:01:32.11Z</time></trkpt><trkpt lat="40.414116213623366" lon="8.63189683599467"><ele>243.0</ele><time>2026-04-29T11:01:33.11Z</time></trkpt><trkpt lat="40.41412144153088" lon="8.631640186129898"><ele>245.0</ele><time>2026-04-29T11:01:34.11Z</time></trkpt><trkpt lat="40.41417489982008" lon="8.631400464463209"><ele>247.0</ele><time>2026-04-29T11:01:35.11Z</time></trkpt><trkpt lat="40.41427637934564" lon="8.631165644431084"><ele>247.66666666666666</ele><time>2026-04-29T11:01:36.11Z</time></trkpt><trkpt lat="40.41437625838381" lon="8.630911310848594"><ele>248.33333333333331</ele><time>2026-04-29T11:01:37.11Z</time></trkpt><trkpt lat="40.41443067483526" lon="8.630635646926114"><ele>249.0</ele><time>2026-04-29T11:01:38.11Z</time></trkpt><trkpt lat="40.414469522209515" lon="8.630333933090208"><ele>251.5</ele><time>2026-04-29T11:01:39.11Z</time></trkpt><trkpt lat="40.41450381605404" lon="8.630028361045303"><ele>254.0</ele><time>2026-04-29T11:01:40.11Z</time></trkpt><trkpt lat="40.41454224828003" lon="8.629723061326752"><ele>257.5</ele><time>2026-04-29T11:01:41.11Z</time></trkpt><trkpt lat="40.41457661289883" lon="8.629407884815457"><ele>261.0</ele><time>2026-04-29T11:01:42.11Z</time></trkpt><trkpt lat="40.4146158735237" lon="8.629093742278476"><ele>261.0</ele><time>2026-04-29T11:01:43.11Z</time></trkpt><trkpt lat="40.41465359105967" lon="8.628786900667807"><ele>261.0</ele><time>2026-04-29T11:01:44.11Z</time></trkpt><trkpt lat="40.414684017032315" lon="8.62850529872037"><ele>262.0</ele><time>2026-04-29T11:01:45.11Z</time></trkpt><trkpt lat="40.414726622602835" lon="8.628230767579916"><ele>263.0</ele><time>2026-04-29T11:01:46.11Z</time></trkpt><trkpt lat="40.4148161006711" lon="8.627976229237843"><ele>264.0</ele><time>2026-04-29T11:01:47.11Z</time></trkpt><trkpt lat="40.41495004072395" lon="8.627735438558652"><ele>264.0</ele><time>2026-04-29T11:01:48.11Z</time></trkpt><trkpt lat="40.415109495247194" lon="8.62751653604325"><ele>264.0</ele><time>2026-04-29T11:01:49.11Z</time></trkpt><trkpt lat="40.41527706598291" lon="8.62731510112082"><ele>264.0</ele><time>2026-04-29T11:01:50.11Z</time></trkpt><trkpt lat="40.41541726320693" lon="8.627121808127802"><ele>264.0</ele><time>2026-04-29T11:01:51.11Z</time></trkpt><trkpt lat="40.41550889828146" lon="8.626871722779033"><ele>264.0</ele><time>2026-04-29T11:01:52.11Z</time></trkpt><trkpt lat="40.41554976890736" lon="8.626580033969235"><ele>263.0</ele><time>2026-04-29T11:01:53.11Z</time></trkpt><trkpt lat="40.41550951882664" lon="8.626288584441014"><ele>262.0</ele><time>2026-04-29T11:01:54.11Z</time></trkpt><trkpt lat="40.41542889880899" lon="8.625988372731856"><ele>262.0</ele><time>2026-04-29T11:01:55.11Z</time></trkpt><trkpt lat="40.41534848802586" lon="8.625678945425948"><ele>262.0</ele><time>2026-04-29T11:01:56.11Z</time></trkpt><trkpt lat="40.415287492811544" lon="8.625373444819449"><ele>263.5</ele><time>2026-04-29T11:01:57.11Z</time></trkpt><trkpt lat="40.41523259672183" lon="8.625070819762241"><ele>265.0</ele><time>2026-04-29T11:01:58.11Z</time></trkpt><trkpt lat="40.415181869190086" lon="8.62478428438148"><ele>265.0</ele><time>2026-04-29T11:01:59.11Z</time></trkpt><trkpt lat="40.415157966286756" lon="8.624515717218715"><ele>265.0</ele><time>2026-04-29T11:02:00.11Z</time></trkpt><trkpt lat="40.41520083196728" lon="8.624245406484814"><ele>265.0</ele><time>2026-04-29T11:02:01.11Z</time></trkpt><trkpt lat="40.415298035251" lon="8.623976887130679"><ele>264.5</ele><time>2026-04-29T11:02:02.11Z</time></trkpt><trkpt lat="40.41543641935469" lon="8.62374911444682"><ele>264.0</ele><time>2026-04-29T11:02:03.11Z</time></trkpt><trkpt lat="40.41561067841328" lon="8.623541790029043"><ele>267.0</ele><time>2026-04-29T11:02:04.11Z</time></trkpt><trkpt lat="40.4158098879038" lon="8.623371575144509"><ele>270.0</ele><time>2026-04-29T11:02:05.11Z</time></trkpt><trkpt lat="40.41603359844418" lon="8.623245208169937"><ele>270.0</ele><time>2026-04-29T11:02:06.11Z</time></trkpt><trkpt lat="40.416269080982254" lon="8.623155073130654"><ele>270.0</ele><time>2026-04-29T11:02:07.11Z</time></trkpt><trkpt lat="40.41650524411909" lon="8.623071798754308"><ele>272.0</ele><time>2026-04-29T11:02:08.11Z</time></trkpt><trkpt lat="40.416728870391466" lon="8.623008781436525"><ele>274.0</ele><time>2026-04-29T11:02:09.11Z</time></trkpt><trkpt lat="40.416937033485794" lon="8.622998975845022"><ele>276.0</ele><time>2026-04-29T11:02:10.11Z</time></trkpt><trkpt lat="40.41713880902069" lon="8.623070449001123"><ele>273.0</ele><time>2026-04-29T11:02:11.11Z</time></trkpt><trkpt lat="40.41732667713412" lon="8.623220377325516"><ele>270.0</ele><time>2026-04-29T11:02:12.11Z</time></trkpt><trkpt lat="40.417504788419436" lon="8.623438912118727"><ele>274.5</ele><time>2026-04-29T11:02:13.11Z</time></trkpt><trkpt lat="40.417658237673656" lon="8.623691531997906"><ele>279.0</ele><time>2026-04-29T11:02:14.11Z</time></trkpt><trkpt lat="40.41780062343538" lon="8.623932073939873"><ele>279.0</ele><time>2026-04-29T11:02:15.11Z</time></trkpt><trkpt lat="40.41794434012401" lon="8.624120326753188"><ele>279.0</ele><time>2026-04-29T11:02:16.11Z</time></trkpt><trkpt lat="40.4181097730607" lon="8.624237641111325"><ele>279.0</ele><time>2026-04-29T11:02:17.109Z</time></trkpt><trkpt lat="40.418308960016944" lon="8.62425588578339"><ele>280.3333333333333</ele><time>2026-04-29T11:02:18.109Z</time></trkpt><trkpt lat="40.4185155786327" lon="8.6241920176266"><ele>281.66666666666663</ele><time>2026-04-29T11:02:19.109Z</time></trkpt><trkpt lat="40.418714929145835" lon="8.62403148713979"><ele>283.0</ele><time>2026-04-29T11:02:20.109Z</time></trkpt><trkpt lat="40.41890655248266" lon="8.623803164224986"><ele>279.0</ele><time>2026-04-29T11:02:21.109Z</time></trkpt><trkpt lat="40.419079434551286" lon="8.623564270973777"><ele>275.0</ele><time>2026-04-29T11:02:22.109Z</time></trkpt><trkpt lat="40.419243773777985" lon="8.62332257980451"><ele>275.0</ele><time>2026-04-29T11:02:23.109Z</time></trkpt><trkpt lat="40.41943037953317" lon="8.623108511738629"><ele>275.0</ele><time>2026-04-29T11:02:24.109Z</time></trkpt><trkpt lat="40.41965020023257" lon="8.622961241539356"><ele>273.0</ele><time>2026-04-29T11:02:25.109Z</time></trkpt><trkpt lat="40.41988245270977" lon="8.622858823682138"><ele>271.0</ele><time>2026-04-29T11:02:26.109Z</time></trkpt><trkpt lat="40.420102039360025" lon="8.622790926757979"><ele>271.0</ele><time>2026-04-29T11:02:27.109Z</time></trkpt><trkpt lat="40.420311600662274" lon="8.622806844660856"><ele>271.0</ele><time>2026-04-29T11:02:28.109Z</time></trkpt><trkpt lat="40.420521452710375" lon="8.622914587823958"><ele>271.0</ele><time>2026-04-29T11:02:29.109Z</time></trkpt><trkpt lat="40.42073430187561" lon="8.623090412901373"><ele>276.0</ele><time>2026-04-29T11:02:30.109Z</time></trkpt><trkpt lat="40.42095982379525" lon="8.623236952804893"><ele>281.0</ele><time>2026-04-29T11:02:31.109Z</time></trkpt><trkpt lat="40.42120329807155" lon="8.623319712642594"><ele>282.0</ele><time>2026-04-29T11:02:32.109Z</time></trkpt><trkpt lat="40.421457462395495" lon="8.623349992441597"><ele>283.0</ele><time>2026-04-29T11:02:33.109Z</time></trkpt><trkpt lat="40.421722892039774" lon="8.62332215464198"><ele>283.0</ele><time>2026-04-29T11:02:34.109Z</time></trkpt><trkpt lat="40.42199312647998" lon="8.623246960492757"><ele>283.0</ele><time>2026-04-29T11:02:35.109Z</time></trkpt><trkpt lat="40.422267483221496" lon="8.623146717654338"><ele>283.0</ele><time>2026-04-29T11:02:36.109Z</time></trkpt><trkpt lat="40.42254117622648" lon="8.62304636759457"><ele>283.0</ele><time>2026-04-29T11:02:37.109Z</time></trkpt><trkpt lat="40.42281086924201" lon="8.622957342764723"><ele>284.5</ele><time>2026-04-29T11:02:38.109Z</time></trkpt><trkpt lat="40.423082551944844" lon="8.622885969036828"><ele>286.0</ele><time>2026-04-29T11:02:39.109Z</time></trkpt><trkpt lat="40.42334546301325" lon="8.622810652444809"><ele>284.5</ele><time>2026-04-29T11:02:40.109Z</time></trkpt><trkpt lat="40.42360337436742" lon="8.622740080340565"><ele>283.0</ele><time>2026-04-29T11:02:41.109Z</time></trkpt><trkpt lat="40.423856562466526" lon="8.622686837204665"><ele>283.0</ele><time>2026-04-29T11:02:42.109Z</time></trkpt><trkpt lat="40.424108085964036" lon="8.622668231140363"><ele>283.0</ele><time>2026-04-29T11:02:43.109Z</time></trkpt><trkpt lat="40.42436247698116" lon="8.62268132629694"><ele>283.0</ele><time>2026-04-29T11:02:44.109Z</time></trkpt><trkpt lat="40.424619291395864" lon="8.62271878363282"><ele>283.0</ele><time>2026-04-29T11:02:45.111Z</time></trkpt><trkpt lat="40.424872185146356" lon="8.62275934830185"><ele>283.66666666666663</ele><time>2026-04-29T11:02:46.11Z</time></trkpt><trkpt lat="40.42510145438616" lon="8.622770004815282"><ele>284.3333333333333</ele><time>2026-04-29T11:02:47.11Z</time></trkpt><trkpt lat="40.42530252454015" lon="8.622668339379171"><ele>285.0</ele><time>2026-04-29T11:02:48.111Z</time></trkpt><trkpt lat="40.425493161279775" lon="8.622494515878216"><ele>286.5</ele><time>2026-04-29T11:02:49.11Z</time></trkpt><trkpt lat="40.42567491798736" lon="8.622261348156233"><ele>288.0</ele><time>2026-04-29T11:02:50.11Z</time></trkpt><trkpt lat="40.425858345142885" lon="8.62207077084908"><ele>288.0</ele><time>2026-04-29T11:02:51.11Z</time></trkpt><trkpt lat="40.42604198291352" lon="8.621987218258237"><ele>288.0</ele><time>2026-04-29T11:02:52.11Z</time></trkpt><trkpt lat="40.42623358271732" lon="8.621983100288146"><ele>288.0</ele><time>2026-04-29T11:02:53.11Z</time></trkpt><trkpt lat="40.42644374281896" lon="8.622038532592093"><ele>288.0</ele><time>2026-04-29T11:02:54.111Z</time></trkpt><trkpt lat="40.426676027628574" lon="8.62213004615518"><ele>288.0</ele><time>2026-04-29T11:02:55.11Z</time></trkpt><trkpt lat="40.42693787882741" lon="8.622210831718494"><ele>284.5</ele><time>2026-04-29T11:02:56.11Z</time></trkpt><trkpt lat="40.42720022220115" lon="8.622290331756622"><ele>281.0</ele><time>2026-04-29T11:02:57.11Z</time></trkpt><trkpt lat="40.427444388435866" lon="8.62234389863392"><ele>281.0</ele><time>2026-04-29T11:02:58.11Z</time></trkpt><trkpt lat="40.42767601545224" lon="8.62234082545333"><ele>281.0</ele><time>2026-04-29T11:02:59.11Z</time></trkpt><trkpt lat="40.42787008532679" lon="8.622225485015182"><ele>281.0</ele><time>2026-04-29T11:03:00.11Z</time></trkpt><trkpt lat="40.4280613409449" lon="8.622042352564403"><ele>280.0</ele><time>2026-04-29T11:03:01.11Z</time></trkpt><trkpt lat="40.42823266869809" lon="8.621794741476185"><ele>279.0</ele><time>2026-04-29T11:03:02.11Z</time></trkpt><trkpt lat="40.42839103316894" lon="8.621552029432536"><ele>279.0</ele><time>2026-04-29T11:03:03.11Z</time></trkpt><trkpt lat="40.4285684065835" lon="8.621400500560382"><ele>279.0</ele><time>2026-04-29T11:03:04.11Z</time></trkpt><trkpt lat="40.428768656578406" lon="8.621356281453371"><ele>279.0</ele><time>2026-04-29T11:03:05.11Z</time></trkpt><trkpt lat="40.42899771957412" lon="8.621419648994927"><ele>275.0</ele><time>2026-04-29T11:03:06.11Z</time></trkpt><trkpt lat="40.429246927098255" lon="8.621558614678952"><ele>271.0</ele><time>2026-04-29T11:03:07.11Z</time></trkpt><trkpt lat="40.429493374168906" lon="8.621697069873834"><ele>271.0</ele><time>2026-04-29T11:03:08.11Z</time></trkpt><trkpt lat="40.429737338624676" lon="8.621807984601421"><ele>271.0</ele><time>2026-04-29T11:03:09.11Z</time></trkpt><trkpt lat="40.429971606373215" lon="8.621898512268412"><ele>271.0</ele><time>2026-04-29T11:03:10.11Z</time></trkpt><trkpt lat="40.43019005935782" lon="8.621976496365772"><ele>271.0</ele><time>2026-04-29T11:03:11.11Z</time></trkpt><trkpt lat="40.430401304399524" lon="8.621996968664465"><ele>271.0</ele><time>2026-04-29T11:03:12.11Z</time></trkpt><trkpt lat="40.43061886701381" lon="8.621940008631041"><ele>268.0</ele><time>2026-04-29T11:03:13.11Z</time></trkpt><trkpt lat="40.43081837275946" lon="8.621795672838045"><ele>265.0</ele><time>2026-04-29T11:03:14.11Z</time></trkpt><trkpt lat="40.431008831960945" lon="8.621601377076113"><ele>265.0</ele><time>2026-04-29T11:03:15.11Z</time></trkpt><trkpt lat="40.43119455563608" lon="8.62135414346119"><ele>265.0</ele><time>2026-04-29T11:03:16.11Z</time></trkpt><trkpt lat="40.43138391286704" lon="8.621128441306888"><ele>261.5</ele><time>2026-04-29T11:03:17.11Z</time></trkpt><trkpt lat="40.4315786353689" lon="8.620918006996463"><ele>258.0</ele><time>2026-04-29T11:03:18.11Z</time></trkpt><trkpt lat="40.43178437290557" lon="8.620745451991443"><ele>258.0</ele><time>2026-04-29T11:03:19.11Z</time></trkpt><trkpt lat="40.432002113807975" lon="8.620646579568065"><ele>258.0</ele><time>2026-04-29T11:03:20.11Z</time></trkpt><trkpt lat="40.43222268958597" lon="8.620597457983369"><ele>256.3333333333333</ele><time>2026-04-29T11:03:21.11Z</time></trkpt><trkpt lat="40.43243021114697" lon="8.62052770632689"><ele>254.66666666666666</ele><time>2026-04-29T11:03:22.11Z</time></trkpt><trkpt lat="40.43260664705311" lon="8.620370536132212"><ele>253.0</ele><time>2026-04-29T11:03:23.11Z</time></trkpt><trkpt lat="40.43275057963386" lon="8.620130984736416"><ele>253.0</ele><time>2026-04-29T11:03:24.11Z</time></trkpt><trkpt lat="40.43289050865217" lon="8.619848830841024"><ele>253.0</ele><time>2026-04-29T11:03:25.11Z</time></trkpt><trkpt lat="40.43305547392423" lon="8.619593770526535"><ele>249.0</ele><time>2026-04-29T11:03:26.11Z</time></trkpt><trkpt lat="40.433235446525835" lon="8.61935399816122"><ele>245.0</ele><time>2026-04-29T11:03:27.11Z</time></trkpt><trkpt lat="40.4334385051659" lon="8.6191317952325"><ele>245.0</ele><time>2026-04-29T11:03:28.11Z</time></trkpt><trkpt lat="40.43366012334273" lon="8.618940922311591"><ele>245.0</ele><time>2026-04-29T11:03:29.11Z</time></trkpt><trkpt lat="40.43389332631031" lon="8.618771627157141"><ele>241.0</ele><time>2026-04-29T11:03:30.11Z</time></trkpt><trkpt lat="40.43412705801462" lon="8.61860514113087"><ele>237.0</ele><time>2026-04-29T11:03:31.11Z</time></trkpt><trkpt lat="40.43434600982968" lon="8.618417568478122"><ele>237.0</ele><time>2026-04-29T11:03:32.11Z</time></trkpt><trkpt lat="40.434533757193165" lon="8.618187706047312"><ele>237.0</ele><time>2026-04-29T11:03:33.11Z</time></trkpt><trkpt lat="40.43468505575229" lon="8.617914630911326"><ele>231.5</ele><time>2026-04-29T11:03:34.11Z</time></trkpt><trkpt lat="40.434813845147964" lon="8.617630602794119"><ele>226.0</ele><time>2026-04-29T11:03:35.11Z</time></trkpt><trkpt lat="40.43494683955241" lon="8.617346625066547"><ele>226.0</ele><time>2026-04-29T11:03:36.11Z</time></trkpt><trkpt lat="40.435084496104714" lon="8.617075789741785"><ele>226.0</ele><time>2026-04-29T11:03:37.11Z</time></trkpt><trkpt lat="40.43522451534402" lon="8.616803347195322"><ele>228.0</ele><time>2026-04-29T11:03:38.11Z</time></trkpt><trkpt lat="40.435359197040086" lon="8.616535512653735"><ele>230.0</ele><time>2026-04-29T11:03:39.11Z</time></trkpt><trkpt lat="40.43548760598477" lon="8.616281871681089"><ele>228.0</ele><time>2026-04-29T11:03:40.11Z</time></trkpt><trkpt lat="40.43560687379028" lon="8.616044508347246"><ele>226.0</ele><time>2026-04-29T11:03:41.11Z</time></trkpt><trkpt lat="40.43572022281675" lon="8.615815666983822"><ele>224.0</ele><time>2026-04-29T11:03:42.11Z</time></trkpt><trkpt lat="40.43579463907398" lon="8.615586327245223"><ele>224.0</ele><time>2026-04-29T11:03:43.11Z</time></trkpt><trkpt lat="40.435804549070234" lon="8.615326397018784"><ele>224.0</ele><time>2026-04-29T11:03:44.11Z</time></trkpt><trkpt lat="40.43573856234607" lon="8.615068370165513"><ele>224.0</ele><time>2026-04-29T11:03:45.11Z</time></trkpt><trkpt lat="40.43561461232864" lon="8.6148223398924"><ele>223.66666666666669</ele><time>2026-04-29T11:03:46.11Z</time></trkpt><trkpt lat="40.43548780039306" lon="8.614585675770682"><ele>223.33333333333331</ele><time>2026-04-29T11:03:47.11Z</time></trkpt><trkpt lat="40.43541224180334" lon="8.614372564303014"><ele>223.0</ele><time>2026-04-29T11:03:48.11Z</time></trkpt><trkpt lat="40.4353952958322" lon="8.614173385959008"><ele>223.0</ele><time>2026-04-29T11:03:49.11Z</time></trkpt><trkpt lat="40.43545404635998" lon="8.613976004426293"><ele>223.0</ele><time>2026-04-29T11:03:50.11Z</time></trkpt><trkpt lat="40.435601492583785" lon="8.613798839715114"><ele>223.0</ele><time>2026-04-29T11:03:51.11Z</time></trkpt><trkpt lat="40.435808299882176" lon="8.613651273922274"><ele>218.5</ele><time>2026-04-29T11:03:52.11Z</time></trkpt><trkpt lat="40.43602958045575" lon="8.613504801375926"><ele>214.0</ele><time>2026-04-29T11:03:53.11Z</time></trkpt><trkpt lat="40.436226247197176" lon="8.613361675278956"><ele>210.66666666666666</ele><time>2026-04-29T11:03:54.11Z</time></trkpt><trkpt lat="40.436385114744326" lon="8.613199708751392"><ele>207.33333333333331</ele><time>2026-04-29T11:03:55.11Z</time></trkpt><trkpt lat="40.436493108220745" lon="8.612977664014096"><ele>204.0</ele><time>2026-04-29T11:03:56.11Z</time></trkpt><trkpt lat="40.43653068328051" lon="8.612710182091568"><ele>201.0</ele><time>2026-04-29T11:03:57.11Z</time></trkpt><trkpt lat="40.43647188761939" lon="8.612432848034599"><ele>198.0</ele><time>2026-04-29T11:03:58.11Z</time></trkpt><trkpt lat="40.43635994778791" lon="8.612151869791298"><ele>201.5</ele><time>2026-04-29T11:03:59.11Z</time></trkpt><trkpt lat="40.43624807073587" lon="8.611873764190433"><ele>205.0</ele><time>2026-04-29T11:04:00.11Z</time></trkpt><trkpt lat="40.436120116336205" lon="8.611622183065762"><ele>205.0</ele><time>2026-04-29T11:04:01.11Z</time></trkpt><trkpt lat="40.43597222629116" lon="8.611395322094596"><ele>205.0</ele><time>2026-04-29T11:04:02.11Z</time></trkpt><trkpt lat="40.43581175937867" lon="8.611185843272454"><ele>205.66666666666666</ele><time>2026-04-29T11:04:03.11Z</time></trkpt><trkpt lat="40.4356496990887" lon="8.61098190718361"><ele>206.33333333333331</ele><time>2026-04-29T11:04:04.11Z</time></trkpt><trkpt lat="40.43548959661527" lon="8.610776250827206"><ele>207.0</ele><time>2026-04-29T11:04:05.11Z</time></trkpt><trkpt lat="40.435335458512604" lon="8.610573483467027"><ele>207.0</ele><time>2026-04-29T11:04:06.11Z</time></trkpt><trkpt lat="40.4351877410819" lon="8.610385645940733"><ele>207.0</ele><time>2026-04-29T11:04:07.11Z</time></trkpt><trkpt lat="40.43504810416087" lon="8.610209046081444"><ele>207.0</ele><time>2026-04-29T11:04:08.11Z</time></trkpt><trkpt lat="40.43495181294298" lon="8.610031485128445"><ele>206.0</ele><time>2026-04-29T11:04:09.11Z</time></trkpt><trkpt lat="40.43492592999664" lon="8.609833193447352"><ele>205.0</ele><time>2026-04-29T11:04:10.11Z</time></trkpt><trkpt lat="40.434947689755916" lon="8.60963590516607"><ele>204.0</ele><time>2026-04-29T11:04:11.11Z</time></trkpt><trkpt lat="40.43503950146756" lon="8.609479963924576"><ele>204.0</ele><time>2026-04-29T11:04:12.11Z</time></trkpt><trkpt lat="40.43518043984692" lon="8.609417093236129"><ele>204.0</ele><time>2026-04-29T11:04:13.11Z</time></trkpt><trkpt lat="40.43536153819702" lon="8.609415030184858"><ele>204.0</ele><time>2026-04-29T11:04:14.11Z</time></trkpt><trkpt lat="40.435572854051465" lon="8.609442356542857"><ele>203.33333333333331</ele><time>2026-04-29T11:04:15.11Z</time></trkpt><trkpt lat="40.43579824119789" lon="8.609479845676383"><ele>202.66666666666666</ele><time>2026-04-29T11:04:16.11Z</time></trkpt><trkpt lat="40.436018143562876" lon="8.609496836166553"><ele>202.0</ele><time>2026-04-29T11:04:17.11Z</time></trkpt><trkpt lat="40.43624195778712" lon="8.60951304844791"><ele>199.0</ele><time>2026-04-29T11:04:18.11Z</time></trkpt><trkpt lat="40.4364640909055" lon="8.609529204925353"><ele>196.0</ele><time>2026-04-29T11:04:19.11Z</time></trkpt><trkpt lat="40.43668133047467" lon="8.609499256928725"><ele>193.0</ele><time>2026-04-29T11:04:20.11Z</time></trkpt><trkpt lat="40.43690743016443" lon="8.609444344228823"><ele>193.0</ele><time>2026-04-29T11:04:21.11Z</time></trkpt><trkpt lat="40.43704707978492" lon="8.609259743101308"><ele>193.0</ele><time>2026-04-29T11:04:22.11Z</time></trkpt><trkpt lat="40.43723762284715" lon="8.60905093171471"><ele>193.0</ele><time>2026-04-29T11:04:23.11Z</time></trkpt><trkpt lat="40.43742073045245" lon="8.608869538145838"><ele>188.0</ele><time>2026-04-29T11:04:24.11Z</time></trkpt><trkpt lat="40.43757384710338" lon="8.608643376609798"><ele>183.0</ele><time>2026-04-29T11:04:25.11Z</time></trkpt><trkpt lat="40.437658932677834" lon="8.608364912886497"><ele>183.0</ele><time>2026-04-29T11:04:26.11Z</time></trkpt><trkpt lat="40.43771455491366" lon="8.6080586506021"><ele>183.0</ele><time>2026-04-29T11:04:27.11Z</time></trkpt><trkpt lat="40.43775736596806" lon="8.607756396571283"><ele>183.0</ele><time>2026-04-29T11:04:28.11Z</time></trkpt><trkpt lat="40.43780954226439" lon="8.607455755508424"><ele>183.0</ele><time>2026-04-29T11:04:29.11Z</time></trkpt><trkpt lat="40.437876141989626" lon="8.607143868211592"><ele>184.0</ele><time>2026-04-29T11:04:30.11Z</time></trkpt><trkpt lat="40.437948854966294" lon="8.6068300416098"><ele>185.0</ele><time>2026-04-29T11:04:31.11Z</time></trkpt><trkpt lat="40.43801526568486" lon="8.606520978982047"><ele>177.0</ele><time>2026-04-29T11:04:32.11Z</time></trkpt><trkpt lat="40.43810101122678" lon="8.606207175623073"><ele>169.0</ele><time>2026-04-29T11:04:33.11Z</time></trkpt><trkpt lat="40.438194438740254" lon="8.605953832818914"><ele>169.0</ele><time>2026-04-29T11:04:34.11Z</time></trkpt><trkpt lat="40.438327455912585" lon="8.605684419715292"><ele>169.0</ele><time>2026-04-29T11:04:35.11Z</time></trkpt><trkpt lat="40.43849682713215" lon="8.605442982891363"><ele>168.0</ele><time>2026-04-29T11:04:36.11Z</time></trkpt><trkpt lat="40.43869745500126" lon="8.605248508693727"><ele>167.0</ele><time>2026-04-29T11:04:37.11Z</time></trkpt><trkpt lat="40.43890812890695" lon="8.605057373717761"><ele>167.0</ele><time>2026-04-29T11:04:38.11Z</time></trkpt><trkpt lat="40.439112146283186" lon="8.60485028052834"><ele>167.0</ele><time>2026-04-29T11:04:39.11Z</time></trkpt><trkpt lat="40.43930678303513" lon="8.604638888245676"><ele>165.0</ele><time>2026-04-29T11:04:40.11Z</time></trkpt><trkpt lat="40.43949388548483" lon="8.604411627792986"><ele>163.0</ele><time>2026-04-29T11:04:41.11Z</time></trkpt><trkpt lat="40.4396753528987" lon="8.604169476724426"><ele>163.0</ele><time>2026-04-29T11:04:42.11Z</time></trkpt><trkpt lat="40.439846844716335" lon="8.60391516327324"><ele>163.0</ele><time>2026-04-29T11:04:43.11Z</time></trkpt><trkpt lat="40.44002825704078" lon="8.603679491522332"><ele>164.0</ele><time>2026-04-29T11:04:44.11Z</time></trkpt><trkpt lat="40.44021669866122" lon="8.603476948983023"><ele>165.0</ele><time>2026-04-29T11:04:45.11Z</time></trkpt><trkpt lat="40.44043514287026" lon="8.60332091856702"><ele>161.5</ele><time>2026-04-29T11:04:46.11Z</time></trkpt><trkpt lat="40.44067366979804" lon="8.603207564243647"><ele>158.0</ele><time>2026-04-29T11:04:47.11Z</time></trkpt><trkpt lat="40.44091921090902" lon="8.603105227614826"><ele>158.0</ele><time>2026-04-29T11:04:48.11Z</time></trkpt><trkpt lat="40.44115911503509" lon="8.60298327240912"><ele>158.0</ele><time>2026-04-29T11:04:49.11Z</time></trkpt><trkpt lat="40.44139732984018" lon="8.602855438097261"><ele>162.5</ele><time>2026-04-29T11:04:50.11Z</time></trkpt><trkpt lat="40.44164121661952" lon="8.602725323936088"><ele>167.0</ele><time>2026-04-29T11:04:51.112Z</time></trkpt><trkpt lat="40.441887191078166" lon="8.602595362547728"><ele>167.0</ele><time>2026-04-29T11:04:52.111Z</time></trkpt><trkpt lat="40.442129029036685" lon="8.602466448186595"><ele>167.0</ele><time>2026-04-29T11:04:53.111Z</time></trkpt><trkpt lat="40.4423676753605" lon="8.602338358927074"><ele>169.0</ele><time>2026-04-29T11:04:54.111Z</time></trkpt><trkpt lat="40.442603980816" lon="8.602208236296846"><ele>171.0</ele><time>2026-04-29T11:04:55.111Z</time></trkpt><trkpt lat="40.44284209040292" lon="8.602081385885386"><ele>173.5</ele><time>2026-04-29T11:04:56.111Z</time></trkpt><trkpt lat="40.44307926337042" lon="8.601960341278625"><ele>176.0</ele><time>2026-04-29T11:04:57.111Z</time></trkpt><trkpt lat="40.443319301436205" lon="8.601838344561774"><ele>176.0</ele><time>2026-04-29T11:04:58.111Z</time></trkpt><trkpt lat="40.44355506100007" lon="8.601715614431557"><ele>176.0</ele><time>2026-04-29T11:04:59.111Z</time></trkpt><trkpt lat="40.44379078265665" lon="8.601592200837615"><ele>178.0</ele><time>2026-04-29T11:05:00.111Z</time></trkpt><trkpt lat="40.44402839725279" lon="8.601469929553412"><ele>180.0</ele><time>2026-04-29T11:05:01.111Z</time></trkpt><trkpt lat="40.44426704638325" lon="8.601350263410147"><ele>180.0</ele><time>2026-04-29T11:05:02.111Z</time></trkpt><trkpt lat="40.44450984610206" lon="8.601229312681719"><ele>180.0</ele><time>2026-04-29T11:05:03.112Z</time></trkpt><trkpt lat="40.44474701628966" lon="8.60110263733026"><ele>184.5</ele><time>2026-04-29T11:05:04.111Z</time></trkpt><trkpt lat="40.44496732631085" lon="8.60095888731577"><ele>189.0</ele><time>2026-04-29T11:05:05.111Z</time></trkpt><trkpt lat="40.445151038435924" lon="8.600764706836578"><ele>189.0</ele><time>2026-04-29T11:05:06.111Z</time></trkpt><trkpt lat="40.44530128594945" lon="8.60052923013847"><ele>189.0</ele><time>2026-04-29T11:05:07.111Z</time></trkpt><trkpt lat="40.44542512888842" lon="8.600251880196902"><ele>192.0</ele><time>2026-04-29T11:05:08.111Z</time></trkpt><trkpt lat="40.44554209238341" lon="8.599959055430435"><ele>195.0</ele><time>2026-04-29T11:05:09.111Z</time></trkpt><trkpt lat="40.44567707234086" lon="8.599709079526706"><ele>195.0</ele><time>2026-04-29T11:05:10.111Z</time></trkpt><trkpt lat="40.44583501289472" lon="8.599554745375736"><ele>195.0</ele><time>2026-04-29T11:05:11.111Z</time></trkpt><trkpt lat="40.446026300589104" lon="8.59949217104655"><ele>195.0</ele><time>2026-04-29T11:05:12.111Z</time></trkpt><trkpt lat="40.446250028312946" lon="8.59947935607304"><ele>194.0</ele><time>2026-04-29T11:05:13.111Z</time></trkpt><trkpt lat="40.44649475788026" lon="8.599538983471252"><ele>193.0</ele><time>2026-04-29T11:05:14.111Z</time></trkpt><trkpt lat="40.44671046967548" lon="8.599598782187934"><ele>193.0</ele><time>2026-04-29T11:05:15.111Z</time></trkpt><trkpt lat="40.44689284057102" lon="8.599567814697195"><ele>193.0</ele><time>2026-04-29T11:05:16.111Z</time></trkpt><trkpt lat="40.44706344122949" lon="8.59943726352945"><ele>193.0</ele><time>2026-04-29T11:05:17.111Z</time></trkpt><trkpt lat="40.447190281190814" lon="8.599211043329234"><ele>193.5</ele><time>2026-04-29T11:05:18.111Z</time></trkpt><trkpt lat="40.44727012053973" lon="8.59891493023343"><ele>194.0</ele><time>2026-04-29T11:05:19.111Z</time></trkpt><trkpt lat="40.447331750968" lon="8.598601367980562"><ele>189.0</ele><time>2026-04-29T11:05:20.111Z</time></trkpt><trkpt lat="40.447414890561234" lon="8.598304769939794"><ele>184.0</ele><time>2026-04-29T11:05:21.111Z</time></trkpt><trkpt lat="40.44751539087677" lon="8.598006780185889"><ele>181.5</ele><time>2026-04-29T11:05:22.111Z</time></trkpt><trkpt lat="40.44761475495044" lon="8.597698152139174"><ele>179.0</ele><time>2026-04-29T11:05:23.111Z</time></trkpt><trkpt lat="40.44771616016605" lon="8.597390723168248"><ele>179.0</ele><time>2026-04-29T11:05:24.111Z</time></trkpt><trkpt lat="40.44780970311163" lon="8.597102487094732"><ele>179.0</ele><time>2026-04-29T11:05:25.111Z</time></trkpt><trkpt lat="40.447920492210244" lon="8.596839100061214"><ele>183.0</ele><time>2026-04-29T11:05:26.111Z</time></trkpt><trkpt lat="40.44807157831706" lon="8.596600638489065"><ele>187.0</ele><time>2026-04-29T11:05:27.111Z</time></trkpt><trkpt lat="40.448266872048194" lon="8.59639101553327"><ele>187.0</ele><time>2026-04-29T11:05:28.111Z</time></trkpt><trkpt lat="40.44848735541739" lon="8.596212523886877"><ele>187.0</ele><time>2026-04-29T11:05:29.111Z</time></trkpt><trkpt lat="40.44871630955443" lon="8.596047615026635"><ele>184.5</ele><time>2026-04-29T11:05:30.111Z</time></trkpt><trkpt lat="40.44894635066793" lon="8.595871877248696"><ele>182.0</ele><time>2026-04-29T11:05:31.111Z</time></trkpt><trkpt lat="40.44917379524066" lon="8.595682112858416"><ele>182.0</ele><time>2026-04-29T11:05:32.111Z</time></trkpt><trkpt lat="40.449401073833485" lon="8.595484251675549"><ele>182.0</ele><time>2026-04-29T11:05:33.111Z</time></trkpt><trkpt lat="40.44962516895099" lon="8.59529346701039"><ele>180.5</ele><time>2026-04-29T11:05:34.111Z</time></trkpt><trkpt lat="40.44984890439238" lon="8.59511282098938"><ele>179.0</ele><time>2026-04-29T11:05:35.111Z</time></trkpt><trkpt lat="40.45006284001434" lon="8.59493901823156"><ele>179.0</ele><time>2026-04-29T11:05:36.111Z</time></trkpt><trkpt lat="40.45026040949748" lon="8.594775392185868"><ele>179.0</ele><time>2026-04-29T11:05:37.111Z</time></trkpt><trkpt lat="40.45044676909545" lon="8.594633157621207"><ele>179.0</ele><time>2026-04-29T11:05:38.111Z</time></trkpt><trkpt lat="40.45062160548847" lon="8.594514589272915"><ele>175.66666666666666</ele><time>2026-04-29T11:05:39.111Z</time></trkpt><trkpt lat="40.45079797720971" lon="8.59440274758036"><ele>172.33333333333334</ele><time>2026-04-29T11:05:40.111Z</time></trkpt><trkpt lat="40.45097011657786" lon="8.594309739626254"><ele>169.0</ele><time>2026-04-29T11:05:41.111Z</time></trkpt><trkpt lat="40.45114004589156" lon="8.594233724611698"><ele>170.33333333333334</ele><time>2026-04-29T11:05:42.111Z</time></trkpt><trkpt lat="40.45130693552334" lon="8.594173652083901"><ele>171.66666666666666</ele><time>2026-04-29T11:05:43.111Z</time></trkpt><trkpt lat="40.45149972312866" lon="8.59410304264037"><ele>173.0</ele><time>2026-04-29T11:05:44.111Z</time></trkpt><trkpt lat="40.45172940330232" lon="8.594042331181079"><ele>173.0</ele><time>2026-04-29T11:05:45.111Z</time></trkpt><trkpt lat="40.45196858977619" lon="8.593959989317568"><ele>173.0</ele><time>2026-04-29T11:05:46.111Z</time></trkpt><trkpt lat="40.452187438658264" lon="8.593844257834634"><ele>173.0</ele><time>2026-04-29T11:05:47.111Z</time></trkpt><trkpt lat="40.45239625843802" lon="8.593762670854781"><ele>173.0</ele><time>2026-04-29T11:05:48.111Z</time></trkpt><trkpt lat="40.452630900991615" lon="8.593775305451782"><ele>173.0</ele><time>2026-04-29T11:05:49.111Z</time></trkpt><trkpt lat="40.452869769110954" lon="8.593882678031076"><ele>173.0</ele><time>2026-04-29T11:05:50.111Z</time></trkpt><trkpt lat="40.453074270761185" lon="8.593971255473647"><ele>170.0</ele><time>2026-04-29T11:05:51.111Z</time></trkpt><trkpt lat="40.453271768922924" lon="8.594000873050348"><ele>167.0</ele><time>2026-04-29T11:05:52.111Z</time></trkpt><trkpt lat="40.45346879986012" lon="8.593910124014759"><ele>164.0</ele><time>2026-04-29T11:05:53.111Z</time></trkpt><trkpt lat="40.45365070712067" lon="8.5937479922988"><ele>164.5</ele><time>2026-04-29T11:05:54.111Z</time></trkpt><trkpt lat="40.45379242521737" lon="8.593515157043205"><ele>165.0</ele><time>2026-04-29T11:05:55.111Z</time></trkpt><trkpt lat="40.453898659587104" lon="8.593217563173567"><ele>165.0</ele><time>2026-04-29T11:05:56.111Z</time></trkpt><trkpt lat="40.45399121132629" lon="8.592919734552526"><ele>165.0</ele><time>2026-04-29T11:05:57.111Z</time></trkpt><trkpt lat="40.45410917841014" lon="8.592656385702421"><ele>163.66666666666666</ele><time>2026-04-29T11:05:58.111Z</time></trkpt><trkpt lat="40.45423243817046" lon="8.592414638124467"><ele>162.33333333333331</ele><time>2026-04-29T11:05:59.111Z</time></trkpt><trkpt lat="40.45437603833987" lon="8.592194039473389"><ele>161.0</ele><time>2026-04-29T11:06:00.111Z</time></trkpt><trkpt lat="40.45454913345467" lon="8.592025412242265"><ele>159.5</ele><time>2026-04-29T11:06:01.111Z</time></trkpt><trkpt lat="40.454752563145" lon="8.591908428041735"><ele>158.0</ele><time>2026-04-29T11:06:02.111Z</time></trkpt><trkpt lat="40.4549768775408" lon="8.591854807119494"><ele>158.0</ele><time>2026-04-29T11:06:03.111Z</time></trkpt><trkpt lat="40.455212531159624" lon="8.59187430778866"><ele>158.0</ele><time>2026-04-29T11:06:04.111Z</time></trkpt><trkpt lat="40.455446146379785" lon="8.591935963499198"><ele>172.0</ele><time>2026-04-29T11:06:05.111Z</time></trkpt><trkpt lat="40.45567914964876" lon="8.59202156461918"><ele>186.0</ele><time>2026-04-29T11:06:06.111Z</time></trkpt><trkpt lat="40.45590388769741" lon="8.592072904622295"><ele>186.0</ele><time>2026-04-29T11:06:07.111Z</time></trkpt><trkpt lat="40.45611564074009" lon="8.592086096446648"><ele>186.0</ele><time>2026-04-29T11:06:08.111Z</time></trkpt><trkpt lat="40.456325012885955" lon="8.592064060163965"><ele>186.0</ele><time>2026-04-29T11:06:09.111Z</time></trkpt><trkpt lat="40.45651998767601" lon="8.591961872445031"><ele>179.0</ele><time>2026-04-29T11:06:10.111Z</time></trkpt><trkpt lat="40.45668966604393" lon="8.591796332762422"><ele>172.0</ele><time>2026-04-29T11:06:11.111Z</time></trkpt><trkpt lat="40.45685146101461" lon="8.591569114997329"><ele>165.0</ele><time>2026-04-29T11:06:12.111Z</time></trkpt><trkpt lat="40.45704150164913" lon="8.591370046595904"><ele>162.5</ele><time>2026-04-29T11:06:13.111Z</time></trkpt><trkpt lat="40.45724386533437" lon="8.59118709468467"><ele>160.0</ele><time>2026-04-29T11:06:14.111Z</time></trkpt><trkpt lat="40.45745012225476" lon="8.591051341079613"><ele>160.0</ele><time>2026-04-29T11:06:15.111Z</time></trkpt><trkpt lat="40.457673116840695" lon="8.591025940841872"><ele>160.0</ele><time>2026-04-29T11:06:16.111Z</time></trkpt><trkpt lat="40.457900460674594" lon="8.59110652679077"><ele>170.5</ele><time>2026-04-29T11:06:17.111Z</time></trkpt><trkpt lat="40.45811799408008" lon="8.591260618115541"><ele>181.0</ele><time>2026-04-29T11:06:18.111Z</time></trkpt><trkpt lat="40.45832514366186" lon="8.591437761551735"><ele>181.0</ele><time>2026-04-29T11:06:19.111Z</time></trkpt><trkpt lat="40.45856351686324" lon="8.591503413543656"><ele>181.0</ele><time>2026-04-29T11:06:20.111Z</time></trkpt><trkpt lat="40.45881444778379" lon="8.591472452917097"><ele>185.0</ele><time>2026-04-29T11:06:21.111Z</time></trkpt><trkpt lat="40.45905867415418" lon="8.59135022856832"><ele>189.0</ele><time>2026-04-29T11:06:22.111Z</time></trkpt><trkpt lat="40.45929503399733" lon="8.591224784402048"><ele>178.0</ele><time>2026-04-29T11:06:23.111Z</time></trkpt><trkpt lat="40.459533909952455" lon="8.591097572408055"><ele>167.0</ele><time>2026-04-29T11:06:24.111Z</time></trkpt><trkpt lat="40.45974511223019" lon="8.59093147470984"><ele>167.0</ele><time>2026-04-29T11:06:25.111Z</time></trkpt><trkpt lat="40.45992389148211" lon="8.59072407671636"><ele>167.0</ele><time>2026-04-29T11:06:26.111Z</time></trkpt><trkpt lat="40.460041713384705" lon="8.590410854226393"><ele>165.0</ele><time>2026-04-29T11:06:27.111Z</time></trkpt><trkpt lat="40.46011638798206" lon="8.59007958445597"><ele>163.0</ele><time>2026-04-29T11:06:28.111Z</time></trkpt><trkpt lat="40.46019373310119" lon="8.589770397135098"><ele>162.5</ele><time>2026-04-29T11:06:29.111Z</time></trkpt><trkpt lat="40.460292804438424" lon="8.589467335344892"><ele>162.0</ele><time>2026-04-29T11:06:30.111Z</time></trkpt><trkpt lat="40.460399378107" lon="8.58917799050596"><ele>164.5</ele><time>2026-04-29T11:06:31.111Z</time></trkpt><trkpt lat="40.460530764456" lon="8.588931095063502"><ele>167.0</ele><time>2026-04-29T11:06:32.111Z</time></trkpt><trkpt lat="40.46071772518413" lon="8.588772759337719"><ele>167.0</ele><time>2026-04-29T11:06:33.111Z</time></trkpt><trkpt lat="40.46095457968984" lon="8.588704521631088"><ele>167.0</ele><time>2026-04-29T11:06:34.111Z</time></trkpt><trkpt lat="40.46120698516595" lon="8.588700971086027"><ele>165.5</ele><time>2026-04-29T11:06:35.111Z</time></trkpt><trkpt lat="40.46142949145036" lon="8.588786522061994"><ele>164.0</ele><time>2026-04-29T11:06:36.111Z</time></trkpt><trkpt lat="40.461612898717334" lon="8.588962666187854"><ele>164.0</ele><time>2026-04-29T11:06:37.111Z</time></trkpt><trkpt lat="40.46178354868868" lon="8.589226331224536"><ele>164.0</ele><time>2026-04-29T11:06:38.111Z</time></trkpt><trkpt lat="40.46194058990642" lon="8.589466253664632"><ele>168.0</ele><time>2026-04-29T11:06:39.111Z</time></trkpt><trkpt lat="40.46210132226951" lon="8.589675527557564"><ele>172.0</ele><time>2026-04-29T11:06:40.111Z</time></trkpt><trkpt lat="40.46226106891902" lon="8.589825390100737"><ele>176.0</ele><time>2026-04-29T11:06:41.111Z</time></trkpt><trkpt lat="40.46242373523271" lon="8.589906258609314"><ele>176.0</ele><time>2026-04-29T11:06:42.111Z</time></trkpt><trkpt lat="40.46261211846112" lon="8.589867543562843"><ele>176.0</ele><time>2026-04-29T11:06:43.111Z</time></trkpt><trkpt lat="40.46278445130046" lon="8.589786573070398"><ele>176.0</ele><time>2026-04-29T11:06:44.111Z</time></trkpt><trkpt lat="40.46289627395094" lon="8.589620190377099"><ele>177.20000000000002</ele><time>2026-04-29T11:06:45.111Z</time></trkpt><trkpt lat="40.46297853316736" lon="8.589525831828341"><ele>178.4</ele><time>2026-04-29T11:06:46.111Z</time></trkpt><trkpt lat="40.46292862859525" lon="8.589442086306981"><ele>179.6</ele><time>2026-04-29T11:07:47.112Z</time></trkpt><trkpt lat="40.462994209030875" lon="8.589297910142822"><ele>180.8</ele><time>2026-04-29T11:07:49.112Z</time></trkpt><trkpt lat="40.4630577697384" lon="8.589197661238623"><ele>182.0</ele><time>2026-04-29T11:07:50.112Z</time></trkpt><trkpt lat="40.46313622734059" lon="8.589081637140975"><ele>182.0</ele><time>2026-04-29T11:07:51.112Z</time></trkpt><trkpt lat="40.463213958692016" lon="8.588953361284421"><ele>182.0</ele><time>2026-04-29T11:07:52.112Z</time></trkpt><trkpt lat="40.463283511279116" lon="8.588809167134729"><ele>182.0</ele><time>2026-04-29T11:07:53.112Z</time></trkpt><trkpt lat="40.46335351893294" lon="8.588641129598166"><ele>182.0</ele><time>2026-04-29T11:07:54.112Z</time></trkpt><trkpt lat="40.463407378625185" lon="8.58843441277918"><ele>177.66666666666666</ele><time>2026-04-29T11:07:55.112Z</time></trkpt><trkpt lat="40.46346147989491" lon="8.588222700558969"><ele>173.33333333333334</ele><time>2026-04-29T11:07:56.112Z</time></trkpt><trkpt lat="40.46349152401151" lon="8.588012591341279"><ele>169.0</ele><time>2026-04-29T11:07:57.112Z</time></trkpt><trkpt lat="40.46352350085726" lon="8.58779506671903"><ele>167.66666666666669</ele><time>2026-04-29T11:07:58.112Z</time></trkpt><trkpt lat="40.46356074746307" lon="8.587558284832225"><ele>166.33333333333334</ele><time>2026-04-29T11:07:59.112Z</time></trkpt><trkpt lat="40.46359907687154" lon="8.587313599688223"><ele>165.0</ele><time>2026-04-29T11:08:00.112Z</time></trkpt><trkpt lat="40.46362354604601" lon="8.58706075830527"><ele>164.0</ele><time>2026-04-29T11:08:01.112Z</time></trkpt><trkpt lat="40.463622644738464" lon="8.586802771668898"><ele>163.0</ele><time>2026-04-29T11:08:02.112Z</time></trkpt><trkpt lat="40.46359059510207" lon="8.586535792142103"><ele>162.0</ele><time>2026-04-29T11:08:03.112Z</time></trkpt><trkpt lat="40.463573655174216" lon="8.58626236216402"><ele>162.33333333333334</ele><time>2026-04-29T11:08:04.112Z</time></trkpt><trkpt lat="40.46355424552221" lon="8.5859791867116"><ele>162.66666666666669</ele><time>2026-04-29T11:08:05.112Z</time></trkpt><trkpt lat="40.4635378350429" lon="8.58569445476933"><ele>163.0</ele><time>2026-04-29T11:08:06.112Z</time></trkpt><trkpt lat="40.46351998126753" lon="8.585410875700362"><ele>164.0</ele><time>2026-04-29T11:08:07.112Z</time></trkpt><trkpt lat="40.46350255948242" lon="8.585120998699672"><ele>165.0</ele><time>2026-04-29T11:08:08.112Z</time></trkpt><trkpt lat="40.46349292805509" lon="8.584832667514059"><ele>166.0</ele><time>2026-04-29T11:08:09.112Z</time></trkpt><trkpt lat="40.46349605140464" lon="8.584536081424666"><ele>167.5</ele><time>2026-04-29T11:08:10.112Z</time></trkpt><trkpt lat="40.463516369140834" lon="8.584242276191457"><ele>169.0</ele><time>2026-04-29T11:08:11.112Z</time></trkpt><trkpt lat="40.463546189358055" lon="8.583944779803742"><ele>168.0</ele><time>2026-04-29T11:08:12.112Z</time></trkpt><trkpt lat="40.46358063526551" lon="8.583648306656917"><ele>167.0</ele><time>2026-04-29T11:08:13.112Z</time></trkpt><trkpt lat="40.46361540687675" lon="8.583349940771761"><ele>167.0</ele><time>2026-04-29T11:08:14.112Z</time></trkpt><trkpt lat="40.46366006461273" lon="8.583052772793485"><ele>167.0</ele><time>2026-04-29T11:08:15.112Z</time></trkpt><trkpt lat="40.46374075649487" lon="8.582770526311453"><ele>176.5</ele><time>2026-04-29T11:08:16.112Z</time></trkpt><trkpt lat="40.46384425852438" lon="8.582495258960819"><ele>186.0</ele><time>2026-04-29T11:08:17.112Z</time></trkpt><trkpt lat="40.46395587544165" lon="8.582231382938312"><ele>183.5</ele><time>2026-04-29T11:08:18.112Z</time></trkpt><trkpt lat="40.464061163800984" lon="8.581958694632055"><ele>181.0</ele><time>2026-04-29T11:08:19.112Z</time></trkpt><trkpt lat="40.46415974330108" lon="8.581677705584585"><ele>181.0</ele><time>2026-04-29T11:08:20.112Z</time></trkpt><trkpt lat="40.46427557913793" lon="8.581403068165857"><ele>181.0</ele><time>2026-04-29T11:08:21.112Z</time></trkpt><trkpt lat="40.4644154786255" lon="8.581146669057215"><ele>176.5</ele><time>2026-04-29T11:08:22.112Z</time></trkpt><trkpt lat="40.46457027002141" lon="8.58090127400267"><ele>172.0</ele><time>2026-04-29T11:08:23.112Z</time></trkpt><trkpt lat="40.46473093274346" lon="8.580667455388612"><ele>178.0</ele><time>2026-04-29T11:08:24.112Z</time></trkpt><trkpt lat="40.4648822665924" lon="8.580429666909929"><ele>184.0</ele><time>2026-04-29T11:08:25.112Z</time></trkpt><trkpt lat="40.46501149937795" lon="8.580169030521493"><ele>184.0</ele><time>2026-04-29T11:08:26.112Z</time></trkpt><trkpt lat="40.46512322454625" lon="8.579894064437484"><ele>184.0</ele><time>2026-04-29T11:08:27.112Z</time></trkpt><trkpt lat="40.465219741146186" lon="8.579610569631313"><ele>179.0</ele><time>2026-04-29T11:08:28.112Z</time></trkpt><trkpt lat="40.46534955527292" lon="8.579345846994647"><ele>174.0</ele><time>2026-04-29T11:08:29.112Z</time></trkpt><trkpt lat="40.46551367440588" lon="8.57911913051342"><ele>186.0</ele><time>2026-04-29T11:08:30.112Z</time></trkpt><trkpt lat="40.465701596504644" lon="8.578915940402865"><ele>198.0</ele><time>2026-04-29T11:08:31.112Z</time></trkpt><trkpt lat="40.4659006825957" lon="8.578734820975015"><ele>202.5</ele><time>2026-04-29T11:08:32.112Z</time></trkpt><trkpt lat="40.46609718191526" lon="8.578551037039547"><ele>207.0</ele><time>2026-04-29T11:08:33.112Z</time></trkpt><trkpt lat="40.466290773504284" lon="8.578351375942532"><ele>207.0</ele><time>2026-04-29T11:08:34.112Z</time></trkpt><trkpt lat="40.466470380434885" lon="8.578137859176634"><ele>207.0</ele><time>2026-04-29T11:08:35.112Z</time></trkpt><trkpt lat="40.46662193957605" lon="8.577881148963503"><ele>200.5</ele><time>2026-04-29T11:08:36.112Z</time></trkpt><trkpt lat="40.46677423884818" lon="8.57762164160536"><ele>194.0</ele><time>2026-04-29T11:08:37.112Z</time></trkpt><trkpt lat="40.46692506270416" lon="8.577356232972527"><ele>194.0</ele><time>2026-04-29T11:08:38.112Z</time></trkpt><trkpt lat="40.467075325523005" lon="8.577098696123722"><ele>194.0</ele><time>2026-04-29T11:08:39.112Z</time></trkpt><trkpt lat="40.467216538052334" lon="8.576849234462236"><ele>198.0</ele><time>2026-04-29T11:08:40.112Z</time></trkpt><trkpt lat="40.46733935430768" lon="8.576594655801543"><ele>202.0</ele><time>2026-04-29T11:08:41.112Z</time></trkpt><trkpt lat="40.467439196742596" lon="8.576336450533924"><ele>201.0</ele><time>2026-04-29T11:08:42.112Z</time></trkpt><trkpt lat="40.467526044715314" lon="8.576076334160064"><ele>200.0</ele><time>2026-04-29T11:08:43.112Z</time></trkpt><trkpt lat="40.4676017273715" lon="8.575807243694475"><ele>199.0</ele><time>2026-04-29T11:08:44.112Z</time></trkpt><trkpt lat="40.46766500805349" lon="8.575517160276528"><ele>200.0</ele><time>2026-04-29T11:08:45.112Z</time></trkpt><trkpt lat="40.46773352772657" lon="8.575216197403517"><ele>201.0</ele><time>2026-04-29T11:08:46.112Z</time></trkpt><trkpt lat="40.46780816193929" lon="8.574909829385069"><ele>201.0</ele><time>2026-04-29T11:08:47.112Z</time></trkpt><trkpt lat="40.46788349794187" lon="8.574605146404238"><ele>201.0</ele><time>2026-04-29T11:08:48.112Z</time></trkpt><trkpt lat="40.467954955201854" lon="8.574321065024286"><ele>195.0</ele><time>2026-04-29T11:08:49.112Z</time></trkpt><trkpt lat="40.46801552337552" lon="8.574065362087898"><ele>189.0</ele><time>2026-04-29T11:08:50.112Z</time></trkpt><trkpt lat="40.46805055473455" lon="8.573845379610077"><ele>183.0</ele><time>2026-04-29T11:08:51.112Z</time></trkpt><trkpt lat="40.46803531243357" lon="8.573644698168497"><ele>184.66666666666666</ele><time>2026-04-29T11:08:52.112Z</time></trkpt><trkpt lat="40.4679423095918" lon="8.573462563440074"><ele>186.33333333333331</ele><time>2026-04-29T11:08:53.112Z</time></trkpt><trkpt lat="40.46780128578329" lon="8.573293870045093"><ele>188.0</ele><time>2026-04-29T11:08:54.112Z</time></trkpt><trkpt lat="40.46761249915214" lon="8.573167042132813"><ele>188.0</ele><time>2026-04-29T11:08:55.112Z</time></trkpt><trkpt lat="40.46738435990102" lon="8.57306920547617"><ele>188.0</ele><time>2026-04-29T11:08:56.112Z</time></trkpt><trkpt lat="40.467145875955694" lon="8.57297774699117"><ele>183.5</ele><time>2026-04-29T11:08:57.112Z</time></trkpt><trkpt lat="40.466923320865746" lon="8.572873262263752"><ele>179.0</ele><time>2026-04-29T11:08:58.112Z</time></trkpt><trkpt lat="40.466710308235136" lon="8.57279113400909"><ele>179.0</ele><time>2026-04-29T11:08:59.112Z</time></trkpt><trkpt lat="40.46653098058647" lon="8.572731460703295"><ele>179.0</ele><time>2026-04-29T11:09:00.112Z</time></trkpt><trkpt lat="40.46640034608767" lon="8.572656662841895"><ele>179.0</ele><time>2026-04-29T11:09:01.112Z</time></trkpt><trkpt lat="40.466338580089015" lon="8.57253660594236"><ele>179.0</ele><time>2026-04-29T11:09:02.112Z</time></trkpt><trkpt lat="40.46634496701606" lon="8.572350760035647"><ele>179.0</ele><time>2026-04-29T11:09:03.113Z</time></trkpt><trkpt lat="40.46639233625005" lon="8.572123908892207"><ele>179.0</ele><time>2026-04-29T11:09:04.113Z</time></trkpt><trkpt lat="40.46648240206276" lon="8.571955801867684"><ele>179.0</ele><time>2026-04-29T11:09:05.113Z</time></trkpt><trkpt lat="40.46662031431162" lon="8.571865912478414"><ele>184.66666666666666</ele><time>2026-04-29T11:09:06.113Z</time></trkpt><trkpt lat="40.46679683428115" lon="8.571857767216416"><ele>190.33333333333331</ele><time>2026-04-29T11:09:07.113Z</time></trkpt><trkpt lat="40.4670278605823" lon="8.571898616287037"><ele>196.0</ele><time>2026-04-29T11:09:08.113Z</time></trkpt><trkpt lat="40.46728688302543" lon="8.571950873571899"><ele>197.0</ele><time>2026-04-29T11:09:09.113Z</time></trkpt><trkpt lat="40.46772761928086" lon="8.571987388506177"><ele>198.0</ele><time>2026-04-29T11:09:11.112Z</time></trkpt><trkpt lat="40.46792328303794" lon="8.571874842238303"><ele>193.0</ele><time>2026-04-29T11:09:12.112Z</time></trkpt><trkpt lat="40.46811835407484" lon="8.571675143107386"><ele>188.0</ele><time>2026-04-29T11:09:13.113Z</time></trkpt><trkpt lat="40.46825038403814" lon="8.571465627888719"><ele>188.0</ele><time>2026-04-29T11:09:14.113Z</time></trkpt><trkpt lat="40.46833086438704" lon="8.571210826090725"><ele>188.0</ele><time>2026-04-29T11:09:15.113Z</time></trkpt><trkpt lat="40.468364097073085" lon="8.570916566624556"><ele>188.0</ele><time>2026-04-29T11:09:16.113Z</time></trkpt><trkpt lat="40.468383494323255" lon="8.570600911612026"><ele>196.0</ele><time>2026-04-29T11:09:17.113Z</time></trkpt><trkpt lat="40.46839798867701" lon="8.57027979489015"><ele>204.0</ele><time>2026-04-29T11:09:18.113Z</time></trkpt><trkpt lat="40.46842863196686" lon="8.569965057981989"><ele>204.0</ele><time>2026-04-29T11:09:19.113Z</time></trkpt><trkpt lat="40.468459468725726" lon="8.569651307482701"><ele>204.0</ele><time>2026-04-29T11:09:20.113Z</time></trkpt><trkpt lat="40.468489422314704" lon="8.569342163205816"><ele>208.0</ele><time>2026-04-29T11:09:21.113Z</time></trkpt><trkpt lat="40.46851657337989" lon="8.569033823357799"><ele>212.0</ele><time>2026-04-29T11:09:22.113Z</time></trkpt><trkpt lat="40.46854994186115" lon="8.568718916931411"><ele>216.0</ele><time>2026-04-29T11:09:23.113Z</time></trkpt><trkpt lat="40.46857251296439" lon="8.56840625789816"><ele>220.0</ele><time>2026-04-29T11:09:24.113Z</time></trkpt><trkpt lat="40.46856909101686" lon="8.56809757829717"><ele>219.0</ele><time>2026-04-29T11:09:25.113Z</time></trkpt><trkpt lat="40.46851511920921" lon="8.567801224956288"><ele>218.0</ele><time>2026-04-29T11:09:26.113Z</time></trkpt><trkpt lat="40.46842537358392" lon="8.567512427245159"><ele>218.0</ele><time>2026-04-29T11:09:27.113Z</time></trkpt><trkpt lat="40.46831283139108" lon="8.56723048173467"><ele>218.0</ele><time>2026-04-29T11:09:28.113Z</time></trkpt><trkpt lat="40.46821435013203" lon="8.566941437327804"><ele>215.5</ele><time>2026-04-29T11:09:29.113Z</time></trkpt><trkpt lat="40.46815065735414" lon="8.566639357191834"><ele>213.0</ele><time>2026-04-29T11:09:30.113Z</time></trkpt><trkpt lat="40.468122243205585" lon="8.56633352683361"><ele>215.0</ele><time>2026-04-29T11:09:31.113Z</time></trkpt><trkpt lat="40.46812341161903" lon="8.566016553431831"><ele>217.0</ele><time>2026-04-29T11:09:32.113Z</time></trkpt><trkpt lat="40.46813934223142" lon="8.565697266047406"><ele>217.0</ele><time>2026-04-29T11:09:33.113Z</time></trkpt><trkpt lat="40.468146178648894" lon="8.565387644251233"><ele>217.0</ele><time>2026-04-29T11:09:34.113Z</time></trkpt><trkpt lat="40.46815178909735" lon="8.565075142186078"><ele>220.5</ele><time>2026-04-29T11:09:35.113Z</time></trkpt><trkpt lat="40.46816124586317" lon="8.564753442579585"><ele>224.0</ele><time>2026-04-29T11:09:36.113Z</time></trkpt><trkpt lat="40.46816446704169" lon="8.564432085555932"><ele>227.5</ele><time>2026-04-29T11:09:37.113Z</time></trkpt><trkpt lat="40.468174419385996" lon="8.564109434449916"><ele>231.0</ele><time>2026-04-29T11:09:38.113Z</time></trkpt><trkpt lat="40.46818328950298" lon="8.563788993012217"><ele>231.5</ele><time>2026-04-29T11:09:39.113Z</time></trkpt><trkpt lat="40.46819047964569" lon="8.563467431390198"><ele>232.0</ele><time>2026-04-29T11:09:40.113Z</time></trkpt><trkpt lat="40.468195802685585" lon="8.56314209246116"><ele>235.5</ele><time>2026-04-29T11:09:41.113Z</time></trkpt><trkpt lat="40.468202823518716" lon="8.562819840426386"><ele>239.0</ele><time>2026-04-29T11:09:42.113Z</time></trkpt><trkpt lat="40.46821528429646" lon="8.562499357290633"><ele>239.0</ele><time>2026-04-29T11:09:43.113Z</time></trkpt><trkpt lat="40.46823466143967" lon="8.56217864950868"><ele>239.0</ele><time>2026-04-29T11:09:44.113Z</time></trkpt><trkpt lat="40.46827051156701" lon="8.561863175947991"><ele>242.0</ele><time>2026-04-29T11:09:45.113Z</time></trkpt><trkpt lat="40.46832127753149" lon="8.561549361626257"><ele>245.0</ele><time>2026-04-29T11:09:46.113Z</time></trkpt><trkpt lat="40.46838773372666" lon="8.561259499537043"><ele>248.5</ele><time>2026-04-29T11:09:47.113Z</time></trkpt><trkpt lat="40.46846328367781" lon="8.560967712289008"><ele>252.0</ele><time>2026-04-29T11:09:48.113Z</time></trkpt><trkpt lat="40.468547798828105" lon="8.560677588318123"><ele>252.0</ele><time>2026-04-29T11:09:49.113Z</time></trkpt><trkpt lat="40.468643834653776" lon="8.560396985296263"><ele>252.0</ele><time>2026-04-29T11:09:50.113Z</time></trkpt><trkpt lat="40.46874589121491" lon="8.560127911071824"><ele>254.0</ele><time>2026-04-29T11:09:51.113Z</time></trkpt><trkpt lat="40.468854769241624" lon="8.559847680171705"><ele>256.0</ele><time>2026-04-29T11:09:52.113Z</time></trkpt><trkpt lat="40.468957364775555" lon="8.559549682981265"><ele>253.5</ele><time>2026-04-29T11:09:53.113Z</time></trkpt><trkpt lat="40.46905586739502" lon="8.559252979839501"><ele>251.0</ele><time>2026-04-29T11:09:54.113Z</time></trkpt><trkpt lat="40.46916279569136" lon="8.558950408575738"><ele>246.5</ele><time>2026-04-29T11:09:55.113Z</time></trkpt><trkpt lat="40.4692554532256" lon="8.558637395401776"><ele>242.0</ele><time>2026-04-29T11:09:56.113Z</time></trkpt><trkpt lat="40.469318657384534" lon="8.5583146554995"><ele>242.0</ele><time>2026-04-29T11:09:57.113Z</time></trkpt><trkpt lat="40.46934209540548" lon="8.557991018004804"><ele>242.0</ele><time>2026-04-29T11:09:58.113Z</time></trkpt><trkpt lat="40.4693456343177" lon="8.557657906212583"><ele>240.5</ele><time>2026-04-29T11:09:59.113Z</time></trkpt><trkpt lat="40.469311577135066" lon="8.557322150526177"><ele>239.0</ele><time>2026-04-29T11:10:00.113Z</time></trkpt><trkpt lat="40.46926626218194" lon="8.556994844212127"><ele>239.0</ele><time>2026-04-29T11:10:01.113Z</time></trkpt><trkpt lat="40.46919588386128" lon="8.556667295776887"><ele>239.0</ele><time>2026-04-29T11:10:02.113Z</time></trkpt><trkpt lat="40.46910122764497" lon="8.556354936983045"><ele>238.0</ele><time>2026-04-29T11:10:03.113Z</time></trkpt><trkpt lat="40.468981101892105" lon="8.55605982041132"><ele>237.0</ele><time>2026-04-29T11:10:04.113Z</time></trkpt><trkpt lat="40.468841574515785" lon="8.555793556864709"><ele>241.33333333333331</ele><time>2026-04-29T11:10:05.113Z</time></trkpt><trkpt lat="40.46869326266159" lon="8.555567370209943"><ele>245.66666666666666</ele><time>2026-04-29T11:10:06.113Z</time></trkpt><trkpt lat="40.468554496023806" lon="8.555360349969133"><ele>250.0</ele><time>2026-04-29T11:10:07.113Z</time></trkpt><trkpt lat="40.4684240057079" lon="8.555175628170655"><ele>250.0</ele><time>2026-04-29T11:10:08.113Z</time></trkpt><trkpt lat="40.468301760908474" lon="8.555006278615515"><ele>250.0</ele><time>2026-04-29T11:10:09.113Z</time></trkpt><trkpt lat="40.46818555638276" lon="8.554848501329687"><ele>250.0</ele><time>2026-04-29T11:10:10.113Z</time></trkpt><trkpt lat="40.468084387207924" lon="8.55470226688404"><ele>250.0</ele><time>2026-04-29T11:10:11.113Z</time></trkpt><trkpt lat="40.467996154664945" lon="8.554570141695098"><ele>250.0</ele><time>2026-04-29T11:10:12.113Z</time></trkpt><trkpt lat="40.46791338409521" lon="8.554459686485947"><ele>250.0</ele><time>2026-04-29T11:10:13.113Z</time></trkpt><trkpt lat="40.467842122065306" lon="8.554358269699119"><ele>250.0</ele><time>2026-04-29T11:10:14.113Z</time></trkpt><trkpt lat="40.467787331434835" lon="8.554263262668643"><ele>250.0</ele><time>2026-04-29T11:10:15.113Z</time></trkpt><trkpt lat="40.46773866056975" lon="8.554194766828681"><ele>248.0</ele><time>2026-04-29T11:10:16.113Z</time></trkpt><trkpt lat="40.467693931760344" lon="8.554075176114946"><ele>246.0</ele><time>2026-04-29T11:10:31.112Z</time></trkpt><trkpt lat="40.467649114535924" lon="8.553980290202306"><ele>244.0</ele><time>2026-04-29T11:10:32.112Z</time></trkpt><trkpt lat="40.46757714813359" lon="8.55387959551559"><ele>242.0</ele><time>2026-04-29T11:10:33.112Z</time></trkpt><trkpt lat="40.46750585664688" lon="8.553750678042041"><ele>240.0</ele><time>2026-04-29T11:10:34.112Z</time></trkpt><trkpt lat="40.46743250918807" lon="8.55360353036293"><ele>235.0</ele><time>2026-04-29T11:10:35.112Z</time></trkpt><trkpt lat="40.4673470618846" lon="8.553436236887142"><ele>230.0</ele><time>2026-04-29T11:10:36.112Z</time></trkpt><trkpt lat="40.467250981527954" lon="8.553262392769895"><ele>225.0</ele><time>2026-04-29T11:10:37.112Z</time></trkpt><trkpt lat="40.46714979622036" lon="8.553080780493902"><ele>225.66666666666669</ele><time>2026-04-29T11:10:38.112Z</time></trkpt><trkpt lat="40.467049149867876" lon="8.552888601896878"><ele>226.33333333333334</ele><time>2026-04-29T11:10:39.112Z</time></trkpt><trkpt lat="40.466947916809936" lon="8.552683960611331"><ele>227.0</ele><time>2026-04-29T11:10:40.112Z</time></trkpt><trkpt lat="40.46684253216637" lon="8.5524615428404"><ele>229.66666666666669</ele><time>2026-04-29T11:10:41.112Z</time></trkpt><trkpt lat="40.46675838347772" lon="8.552245258393866"><ele>232.33333333333331</ele><time>2026-04-29T11:10:42.112Z</time></trkpt><trkpt lat="40.466689007617894" lon="8.552018818789591"><ele>235.0</ele><time>2026-04-29T11:10:43.112Z</time></trkpt><trkpt lat="40.4666323645325" lon="8.551767132043445"><ele>236.66666666666666</ele><time>2026-04-29T11:10:44.112Z</time></trkpt><trkpt lat="40.46659769880976" lon="8.551500803448217"><ele>238.33333333333331</ele><time>2026-04-29T11:10:45.112Z</time></trkpt><trkpt lat="40.46659463732069" lon="8.551211414355448"><ele>240.0</ele><time>2026-04-29T11:10:46.112Z</time></trkpt><trkpt lat="40.466614636484834" lon="8.550928469481095"><ele>240.0</ele><time>2026-04-29T11:10:47.112Z</time></trkpt><trkpt lat="40.4666530192281" lon="8.550638615008731"><ele>240.0</ele><time>2026-04-29T11:10:48.112Z</time></trkpt><trkpt lat="40.46668244724533" lon="8.55034338240464"><ele>239.66666666666669</ele><time>2026-04-29T11:10:49.112Z</time></trkpt><trkpt lat="40.46670548951412" lon="8.550053339658467"><ele>239.33333333333334</ele><time>2026-04-29T11:10:50.112Z</time></trkpt><trkpt lat="40.466723080975406" lon="8.549767738418467"><ele>239.0</ele><time>2026-04-29T11:10:51.112Z</time></trkpt><trkpt lat="40.46674221317192" lon="8.54947059472323"><ele>239.0</ele><time>2026-04-29T11:10:52.112Z</time></trkpt><trkpt lat="40.4667594231797" lon="8.549180076289906"><ele>239.0</ele><time>2026-04-29T11:10:53.112Z</time></trkpt><trkpt lat="40.46678968945402" lon="8.548879602372498"><ele>239.5</ele><time>2026-04-29T11:10:54.112Z</time></trkpt><trkpt lat="40.46680629092179" lon="8.54856961787707"><ele>240.0</ele><time>2026-04-29T11:10:55.112Z</time></trkpt><trkpt lat="40.46680042320304" lon="8.548278551435994"><ele>240.0</ele><time>2026-04-29T11:10:56.112Z</time></trkpt><trkpt lat="40.46676110533355" lon="8.547983090555334"><ele>240.0</ele><time>2026-04-29T11:10:57.112Z</time></trkpt><trkpt lat="40.466691184460124" lon="8.547696129438034"><ele>237.66666666666669</ele><time>2026-04-29T11:10:58.112Z</time></trkpt><trkpt lat="40.46660157370755" lon="8.54742381285892"><ele>235.33333333333334</ele><time>2026-04-29T11:10:59.112Z</time></trkpt><trkpt lat="40.46649013958707" lon="8.547169086093211"><ele>233.0</ele><time>2026-04-29T11:11:00.112Z</time></trkpt><trkpt lat="40.46637056196055" lon="8.546922436666108"><ele>233.66666666666669</ele><time>2026-04-29T11:11:01.112Z</time></trkpt><trkpt lat="40.466253038692315" lon="8.546671229377063"><ele>234.33333333333331</ele><time>2026-04-29T11:11:02.112Z</time></trkpt><trkpt lat="40.466140916438086" lon="8.546422737870175"><ele>235.0</ele><time>2026-04-29T11:11:03.112Z</time></trkpt><trkpt lat="40.46604364150752" lon="8.546185878261763"><ele>235.0</ele><time>2026-04-29T11:11:04.112Z</time></trkpt><trkpt lat="40.46596324424869" lon="8.545996694395763"><ele>235.0</ele><time>2026-04-29T11:11:05.112Z</time></trkpt><trkpt lat="40.46590494433403" lon="8.545845531518207"><ele>235.0</ele><time>2026-04-29T11:11:06.112Z</time></trkpt><trkpt lat="40.465871129916046" lon="8.54573252446844"><ele>235.0</ele><time>2026-04-29T11:11:07.112Z</time></trkpt><trkpt lat="40.46585528450339" lon="8.545638697877607"><ele>235.0</ele><time>2026-04-29T11:11:09.114Z</time></trkpt><trkpt lat="40.46582356451316" lon="8.545475989483812"><ele>235.0</ele><time>2026-04-29T11:11:40.113Z</time></trkpt><trkpt lat="40.465806948986824" lon="8.545351609853213"><ele>235.0</ele><time>2026-04-29T11:11:41.113Z</time></trkpt><trkpt lat="40.46578588244393" lon="8.545214339362799"><ele>235.0</ele><time>2026-04-29T11:11:42.113Z</time></trkpt><trkpt lat="40.46577152811309" lon="8.545069303336662"><ele>235.0</ele><time>2026-04-29T11:11:43.113Z</time></trkpt><trkpt lat="40.46575953272847" lon="8.544908923517701"><ele>231.75</ele><time>2026-04-29T11:11:44.113Z</time></trkpt><trkpt lat="40.4657423532844" lon="8.544739595705284"><ele>228.5</ele><time>2026-04-29T11:11:45.113Z</time></trkpt><trkpt lat="40.46572312360171" lon="8.544562914651472"><ele>225.25</ele><time>2026-04-29T11:11:46.113Z</time></trkpt><trkpt lat="40.46570924895563" lon="8.544386286771836"><ele>222.0</ele><time>2026-04-29T11:11:47.113Z</time></trkpt><trkpt lat="40.46569252684709" lon="8.544207324477416"><ele>222.0</ele><time>2026-04-29T11:11:48.113Z</time></trkpt><trkpt lat="40.46566879189982" lon="8.544023489742433"><ele>222.0</ele><time>2026-04-29T11:11:49.113Z</time></trkpt><trkpt lat="40.465651446150034" lon="8.543843928651532"><ele>222.0</ele><time>2026-04-29T11:11:50.113Z</time></trkpt><trkpt lat="40.46563672649162" lon="8.54365914183662"><ele>222.0</ele><time>2026-04-29T11:11:51.113Z</time></trkpt><trkpt lat="40.46562213261064" lon="8.54347142084507"><ele>226.75</ele><time>2026-04-29T11:11:52.113Z</time></trkpt><trkpt lat="40.465607484589405" lon="8.543281707294478"><ele>231.5</ele><time>2026-04-29T11:11:53.113Z</time></trkpt><trkpt lat="40.46559369647529" lon="8.543087260402574"><ele>236.25</ele><time>2026-04-29T11:11:54.113Z</time></trkpt><trkpt lat="40.46559121634212" lon="8.542884103044264"><ele>241.0</ele><time>2026-04-29T11:11:55.113Z</time></trkpt><trkpt lat="40.465587992677754" lon="8.542678089924147"><ele>240.66666666666666</ele><time>2026-04-29T11:11:56.113Z</time></trkpt><trkpt lat="40.4655863156253" lon="8.54246777103186"><ele>240.33333333333331</ele><time>2026-04-29T11:11:57.113Z</time></trkpt><trkpt lat="40.46559996816217" lon="8.542251029222218"><ele>240.0</ele><time>2026-04-29T11:11:58.113Z</time></trkpt><trkpt lat="40.465623061427365" lon="8.542024116532708"><ele>240.0</ele><time>2026-04-29T11:11:59.113Z</time></trkpt><trkpt lat="40.465659044150875" lon="8.541799222801185"><ele>240.0</ele><time>2026-04-29T11:12:00.113Z</time></trkpt><trkpt lat="40.46571730202088" lon="8.541574611983823"><ele>240.0</ele><time>2026-04-29T11:12:01.113Z</time></trkpt><trkpt lat="40.465785681239446" lon="8.541338770790258"><ele>238.0</ele><time>2026-04-29T11:12:02.113Z</time></trkpt><trkpt lat="40.4658547570682" lon="8.541097669827414"><ele>236.0</ele><time>2026-04-29T11:12:03.113Z</time></trkpt><trkpt lat="40.46592924855003" lon="8.540858000372328"><ele>234.0</ele><time>2026-04-29T11:12:04.113Z</time></trkpt><trkpt lat="40.466007595391865" lon="8.540607994101885"><ele>234.0</ele><time>2026-04-29T11:12:05.113Z</time></trkpt><trkpt lat="40.46609495354743" lon="8.540357331215022"><ele>234.0</ele><time>2026-04-29T11:12:06.113Z</time></trkpt><trkpt lat="40.466194245491934" lon="8.540103424982144"><ele>234.0</ele><time>2026-04-29T11:12:07.113Z</time></trkpt><trkpt lat="40.46630149070957" lon="8.539850630303397"><ele>233.33333333333331</ele><time>2026-04-29T11:12:08.113Z</time></trkpt><trkpt lat="40.46641533235663" lon="8.539604000079906"><ele>232.66666666666666</ele><time>2026-04-29T11:12:09.113Z</time></trkpt><trkpt lat="40.466538341460335" lon="8.539361067495658"><ele>232.0</ele><time>2026-04-29T11:12:10.113Z</time></trkpt><trkpt lat="40.46666248250436" lon="8.539111625068733"><ele>232.0</ele><time>2026-04-29T11:12:11.113Z</time></trkpt><trkpt lat="40.466788788802084" lon="8.538859676827327"><ele>232.0</ele><time>2026-04-29T11:12:12.113Z</time></trkpt><trkpt lat="40.46691400652964" lon="8.538608121646268"><ele>230.5</ele><time>2026-04-29T11:12:13.113Z</time></trkpt><trkpt lat="40.46703749903193" lon="8.538355323976024"><ele>229.0</ele><time>2026-04-29T11:12:14.113Z</time></trkpt><trkpt lat="40.46716368716957" lon="8.53810078144494"><ele>233.0</ele><time>2026-04-29T11:12:15.113Z</time></trkpt><trkpt lat="40.46728951362101" lon="8.537845669124952"><ele>237.0</ele><time>2026-04-29T11:12:16.113Z</time></trkpt><trkpt lat="40.46741662229981" lon="8.537586892789678"><ele>237.0</ele><time>2026-04-29T11:12:17.113Z</time></trkpt><trkpt lat="40.467542709227004" lon="8.537328055389416"><ele>237.0</ele><time>2026-04-29T11:12:18.113Z</time></trkpt><trkpt lat="40.467668628336426" lon="8.537070885847848"><ele>239.0</ele><time>2026-04-29T11:12:19.113Z</time></trkpt><trkpt lat="40.467793200016494" lon="8.536811621283604"><ele>241.0</ele><time>2026-04-29T11:12:20.113Z</time></trkpt><trkpt lat="40.46792110978022" lon="8.536552522169222"><ele>241.5</ele><time>2026-04-29T11:12:21.113Z</time></trkpt><trkpt lat="40.468050160237816" lon="8.536305637221112"><ele>242.0</ele><time>2026-04-29T11:12:22.113Z</time></trkpt><trkpt lat="40.468195181647545" lon="8.536072824681828"><ele>242.0</ele><time>2026-04-29T11:12:23.113Z</time></trkpt><trkpt lat="40.46835798538981" lon="8.535862372177998"><ele>242.0</ele><time>2026-04-29T11:12:24.113Z</time></trkpt><trkpt lat="40.4685356066293" lon="8.535673718049154"><ele>242.0</ele><time>2026-04-29T11:12:25.113Z</time></trkpt><trkpt lat="40.46872262184074" lon="8.53553030301341"><ele>242.0</ele><time>2026-04-29T11:12:26.113Z</time></trkpt><trkpt lat="40.46892432720435" lon="8.535430098103554"><ele>242.0</ele><time>2026-04-29T11:12:27.113Z</time></trkpt><trkpt lat="40.46913430556859" lon="8.535362587254191"><ele>240.0</ele><time>2026-04-29T11:12:28.113Z</time></trkpt><trkpt lat="40.46935804100219" lon="8.535327549100847"><ele>238.0</ele><time>2026-04-29T11:12:29.113Z</time></trkpt><trkpt lat="40.46959222234023" lon="8.535303252355561"><ele>239.0</ele><time>2026-04-29T11:12:30.113Z</time></trkpt><trkpt lat="40.469830514366194" lon="8.535286641148026"><ele>240.0</ele><time>2026-04-29T11:12:31.113Z</time></trkpt><trkpt lat="40.47005761024743" lon="8.535258973915905"><ele>240.0</ele><time>2026-04-29T11:12:32.113Z</time></trkpt><trkpt lat="40.470284667842456" lon="8.535233247979376"><ele>240.0</ele><time>2026-04-29T11:12:33.113Z</time></trkpt><trkpt lat="40.47051006426637" lon="8.53520931875361"><ele>238.0</ele><time>2026-04-29T11:12:34.113Z</time></trkpt><trkpt lat="40.470738051133125" lon="8.535181480176774"><ele>236.0</ele><time>2026-04-29T11:12:35.113Z</time></trkpt><trkpt lat="40.47096262796749" lon="8.535107552809984"><ele>236.0</ele><time>2026-04-29T11:12:36.113Z</time></trkpt><trkpt lat="40.471179826463086" lon="8.534992625029437"><ele>236.0</ele><time>2026-04-29T11:12:37.113Z</time></trkpt><trkpt lat="40.47139356758284" lon="8.534856730161163"><ele>243.0</ele><time>2026-04-29T11:12:38.113Z</time></trkpt><trkpt lat="40.47160365374506" lon="8.534714347391402"><ele>250.0</ele><time>2026-04-29T11:12:39.113Z</time></trkpt><trkpt lat="40.471817925775305" lon="8.534566687490157"><ele>244.5</ele><time>2026-04-29T11:12:40.113Z</time></trkpt><trkpt lat="40.47203012939325" lon="8.534417646587952"><ele>239.0</ele><time>2026-04-29T11:12:41.113Z</time></trkpt><trkpt lat="40.47225028697001" lon="8.534262450268029"><ele>239.0</ele><time>2026-04-29T11:12:42.113Z</time></trkpt><trkpt lat="40.47247196003597" lon="8.534110478078912"><ele>239.0</ele><time>2026-04-29T11:12:43.113Z</time></trkpt><trkpt lat="40.47268990155194" lon="8.533953454055705"><ele>239.0</ele><time>2026-04-29T11:12:44.113Z</time></trkpt><trkpt lat="40.47288555430062" lon="8.53379142259016"><ele>239.0</ele><time>2026-04-29T11:12:45.113Z</time></trkpt><trkpt lat="40.473054897358324" lon="8.533625554128294"><ele>239.0</ele><time>2026-04-29T11:12:46.113Z</time></trkpt><trkpt lat="40.47320697353518" lon="8.53346534587351"><ele>236.66666666666669</ele><time>2026-04-29T11:12:47.113Z</time></trkpt><trkpt lat="40.47333884863163" lon="8.533315596521247"><ele>234.33333333333331</ele><time>2026-04-29T11:12:48.113Z</time></trkpt><trkpt lat="40.47346412968672" lon="8.533175937004804"><ele>232.0</ele><time>2026-04-29T11:12:49.113Z</time></trkpt><trkpt lat="40.473574112140355" lon="8.53304410309531"><ele>232.0</ele><time>2026-04-29T11:12:50.113Z</time></trkpt><trkpt lat="40.47367050612599" lon="8.532920441742784"><ele>232.0</ele><time>2026-04-29T11:12:51.113Z</time></trkpt><trkpt lat="40.47375932433378" lon="8.53281890356268"><ele>232.0</ele><time>2026-04-29T11:12:52.113Z</time></trkpt><trkpt lat="40.473828211140656" lon="8.532728275753447"><ele>232.0</ele><time>2026-04-29T11:12:53.113Z</time></trkpt><trkpt lat="40.473857570329216" lon="8.532627933244001"><ele>232.0</ele><time>2026-04-29T11:13:59.114Z</time></trkpt><trkpt lat="40.473925611742516" lon="8.532564079252998"><ele>232.0</ele><time>2026-04-29T11:14:00.114Z</time></trkpt><trkpt lat="40.474004556075606" lon="8.532472610779081"><ele>232.0</ele><time>2026-04-29T11:14:01.114Z</time></trkpt><trkpt lat="40.47409720201414" lon="8.532355975902625"><ele>232.0</ele><time>2026-04-29T11:14:02.114Z</time></trkpt><trkpt lat="40.4741882015196" lon="8.532241933695182"><ele>232.0</ele><time>2026-04-29T11:14:03.114Z</time></trkpt><trkpt lat="40.474298041692734" lon="8.532112145239608"><ele>225.66666666666666</ele><time>2026-04-29T11:14:04.113Z</time></trkpt><trkpt lat="40.47441578426421" lon="8.53197181414723"><ele>219.33333333333331</ele><time>2026-04-29T11:14:05.113Z</time></trkpt><trkpt lat="40.47454572408556" lon="8.531826536169515"><ele>213.0</ele><time>2026-04-29T11:14:06.113Z</time></trkpt><trkpt lat="40.474673858275374" lon="8.531683728762182"><ele>212.33333333333331</ele><time>2026-04-29T11:14:07.113Z</time></trkpt><trkpt lat="40.474805706404815" lon="8.531536617497808"><ele>211.66666666666666</ele><time>2026-04-29T11:14:08.113Z</time></trkpt><trkpt lat="40.47493210515725" lon="8.531377772600026"><ele>211.0</ele><time>2026-04-29T11:14:09.113Z</time></trkpt><trkpt lat="40.475065210224045" lon="8.5312161047691"><ele>209.0</ele><time>2026-04-29T11:14:10.113Z</time></trkpt><trkpt lat="40.47520250521559" lon="8.531051144995581"><ele>207.0</ele><time>2026-04-29T11:14:11.113Z</time></trkpt><trkpt lat="40.47534616650208" lon="8.530876600534903"><ele>205.0</ele><time>2026-04-29T11:14:12.113Z</time></trkpt><trkpt lat="40.47549043678367" lon="8.530698032642405"><ele>205.0</ele><time>2026-04-29T11:14:13.113Z</time></trkpt><trkpt lat="40.475638212979085" lon="8.530520045559149"><ele>205.0</ele><time>2026-04-29T11:14:14.113Z</time></trkpt><trkpt lat="40.47578641111551" lon="8.530337551339382"><ele>205.0</ele><time>2026-04-29T11:14:15.113Z</time></trkpt><trkpt lat="40.475938646355395" lon="8.530152696606532"><ele>207.66666666666666</ele><time>2026-04-29T11:14:16.113Z</time></trkpt><trkpt lat="40.47609427446969" lon="8.529967480402647"><ele>210.33333333333331</ele><time>2026-04-29T11:14:17.113Z</time></trkpt><trkpt lat="40.47625497540934" lon="8.529787302709426"><ele>213.0</ele><time>2026-04-29T11:14:18.113Z</time></trkpt><trkpt lat="40.47642781553824" lon="8.529619131729644"><ele>221.33333333333331</ele><time>2026-04-29T11:14:19.113Z</time></trkpt><trkpt lat="40.47662356946001" lon="8.529479224608393"><ele>229.66666666666666</ele><time>2026-04-29T11:14:20.113Z</time></trkpt><trkpt lat="40.47683380924304" lon="8.52938453332892"><ele>238.0</ele><time>2026-04-29T11:14:21.113Z</time></trkpt><trkpt lat="40.47705109241348" lon="8.529307142503185"><ele>240.0</ele><time>2026-04-29T11:14:22.113Z</time></trkpt><trkpt lat="40.4772730781317" lon="8.529266307168227"><ele>242.0</ele><time>2026-04-29T11:14:23.113Z</time></trkpt><trkpt lat="40.477498900784504" lon="8.52925057111677"><ele>242.0</ele><time>2026-04-29T11:14:24.113Z</time></trkpt><trkpt lat="40.47772690348674" lon="8.529252855566822"><ele>242.0</ele><time>2026-04-29T11:14:25.113Z</time></trkpt><trkpt lat="40.477960381142644" lon="8.529258392965946"><ele>243.0</ele><time>2026-04-29T11:14:26.113Z</time></trkpt><trkpt lat="40.47819419033531" lon="8.529250649349281"><ele>244.0</ele><time>2026-04-29T11:14:27.113Z</time></trkpt><trkpt lat="40.47843014906789" lon="8.529206975811803"><ele>244.0</ele><time>2026-04-29T11:14:28.113Z</time></trkpt><trkpt lat="40.47866877463819" lon="8.529128605927701"><ele>244.0</ele><time>2026-04-29T11:14:29.113Z</time></trkpt><trkpt lat="40.47889545161065" lon="8.529019230435036"><ele>245.5</ele><time>2026-04-29T11:14:30.113Z</time></trkpt><trkpt lat="40.4791124630988" lon="8.52887237745845"><ele>247.0</ele><time>2026-04-29T11:14:31.113Z</time></trkpt><trkpt lat="40.47931019314336" lon="8.528683213523868"><ele>247.0</ele><time>2026-04-29T11:14:32.113Z</time></trkpt><trkpt lat="40.47950923092764" lon="8.5284826460651"><ele>247.0</ele><time>2026-04-29T11:14:33.113Z</time></trkpt><trkpt lat="40.47971117444976" lon="8.528276777969248"><ele>244.5</ele><time>2026-04-29T11:14:34.113Z</time></trkpt><trkpt lat="40.479909673884" lon="8.52806980563992"><ele>242.0</ele><time>2026-04-29T11:14:35.113Z</time></trkpt><trkpt lat="40.48011116942443" lon="8.527863042867322"><ele>242.0</ele><time>2026-04-29T11:14:36.113Z</time></trkpt><trkpt lat="40.48030753778867" lon="8.527647771164485"><ele>242.0</ele><time>2026-04-29T11:14:37.113Z</time></trkpt><trkpt lat="40.48050049125738" lon="8.527417463347335"><ele>237.5</ele><time>2026-04-29T11:14:38.113Z</time></trkpt><trkpt lat="40.48067727632347" lon="8.527156860011926"><ele>233.0</ele><time>2026-04-29T11:14:39.113Z</time></trkpt><trkpt lat="40.48086268881091" lon="8.526892508449798"><ele>233.0</ele><time>2026-04-29T11:14:40.113Z</time></trkpt><trkpt lat="40.481053552460175" lon="8.526633545309785"><ele>233.0</ele><time>2026-04-29T11:14:41.113Z</time></trkpt><trkpt lat="40.48124507532644" lon="8.526374620788241"><ele>233.5</ele><time>2026-04-29T11:14:42.113Z</time></trkpt><trkpt lat="40.48143904573551" lon="8.526113452258452"><ele>234.0</ele><time>2026-04-29T11:14:43.113Z</time></trkpt><trkpt lat="40.481632112047514" lon="8.525842445605191"><ele>234.0</ele><time>2026-04-29T11:14:44.113Z</time></trkpt><trkpt lat="40.481825159929684" lon="8.525572012810384"><ele>234.0</ele><time>2026-04-29T11:14:45.113Z</time></trkpt><trkpt lat="40.48201912695293" lon="8.525309265288833"><ele>236.0</ele><time>2026-04-29T11:14:46.113Z</time></trkpt><trkpt lat="40.482211351420816" lon="8.525050718744682"><ele>238.0</ele><time>2026-04-29T11:14:47.113Z</time></trkpt><trkpt lat="40.482397725904725" lon="8.524789301511557"><ele>242.0</ele><time>2026-04-29T11:14:48.113Z</time></trkpt><trkpt lat="40.482568777566144" lon="8.524505323883668"><ele>246.0</ele><time>2026-04-29T11:14:49.113Z</time></trkpt><trkpt lat="40.48270220812096" lon="8.524212087781605"><ele>246.0</ele><time>2026-04-29T11:14:50.113Z</time></trkpt><trkpt lat="40.48280093655858" lon="8.52388272526296"><ele>246.0</ele><time>2026-04-29T11:14:51.113Z</time></trkpt><trkpt lat="40.48286852849309" lon="8.523538505036596"><ele>248.5</ele><time>2026-04-29T11:14:52.113Z</time></trkpt><trkpt lat="40.482914898620166" lon="8.523191899704404"><ele>251.0</ele><time>2026-04-29T11:14:53.113Z</time></trkpt><trkpt lat="40.48296283979958" lon="8.522849339337311"><ele>251.0</ele><time>2026-04-29T11:14:54.113Z</time></trkpt><trkpt lat="40.483020767382975" lon="8.522507061986037"><ele>251.0</ele><time>2026-04-29T11:14:55.113Z</time></trkpt><trkpt lat="40.483079365353575" lon="8.522161955253448"><ele>255.0</ele><time>2026-04-29T11:14:56.113Z</time></trkpt><trkpt lat="40.4831351859955" lon="8.521824289440222"><ele>259.0</ele><time>2026-04-29T11:14:57.113Z</time></trkpt><trkpt lat="40.48318644805679" lon="8.521497553851905"><ele>260.66666666666663</ele><time>2026-04-29T11:14:58.113Z</time></trkpt><trkpt lat="40.48324548809437" lon="8.521203867844031"><ele>262.3333333333333</ele><time>2026-04-29T11:14:59.113Z</time></trkpt><trkpt lat="40.483331171899295" lon="8.520964519195731"><ele>264.0</ele><time>2026-04-29T11:15:00.113Z</time></trkpt><trkpt lat="40.483473445688034" lon="8.520760838841566"><ele>264.0</ele><time>2026-04-29T11:15:01.113Z</time></trkpt><trkpt lat="40.483660581433504" lon="8.520573095645268"><ele>264.0</ele><time>2026-04-29T11:15:02.113Z</time></trkpt><trkpt lat="40.4838620547627" lon="8.520383939614755"><ele>266.5</ele><time>2026-04-29T11:15:03.113Z</time></trkpt><trkpt lat="40.48405609124996" lon="8.520182257525047"><ele>269.0</ele><time>2026-04-29T11:15:04.113Z</time></trkpt><trkpt lat="40.48424587275903" lon="8.519992909780452"><ele>269.0</ele><time>2026-04-29T11:15:05.113Z</time></trkpt><trkpt lat="40.48445486833521" lon="8.51985704392699"><ele>269.0</ele><time>2026-04-29T11:15:06.113Z</time></trkpt><trkpt lat="40.48468354513467" lon="8.519758123342076"><ele>268.0</ele><time>2026-04-29T11:15:07.113Z</time></trkpt><trkpt lat="40.484930119702135" lon="8.519672651632984"><ele>267.0</ele><time>2026-04-29T11:15:08.113Z</time></trkpt><trkpt lat="40.485181023803776" lon="8.51956441447112"><ele>270.0</ele><time>2026-04-29T11:15:09.113Z</time></trkpt><trkpt lat="40.48542135743374" lon="8.519432688767765"><ele>273.0</ele><time>2026-04-29T11:15:10.113Z</time></trkpt><trkpt lat="40.485649256205555" lon="8.519268958692713"><ele>273.0</ele><time>2026-04-29T11:15:11.113Z</time></trkpt><trkpt lat="40.48586553351761" lon="8.519079739814272"><ele>273.0</ele><time>2026-04-29T11:15:12.113Z</time></trkpt><trkpt lat="40.48608082248575" lon="8.518885911980435"><ele>276.0</ele><time>2026-04-29T11:15:13.113Z</time></trkpt><trkpt lat="40.486299732235366" lon="8.518700736441396"><ele>279.0</ele><time>2026-04-29T11:15:14.113Z</time></trkpt><trkpt lat="40.486518865490886" lon="8.518520594981535"><ele>279.0</ele><time>2026-04-29T11:15:15.113Z</time></trkpt><trkpt lat="40.48673478075806" lon="8.518331329492803"><ele>279.0</ele><time>2026-04-29T11:15:16.113Z</time></trkpt><trkpt lat="40.4869508093495" lon="8.518139773449288"><ele>279.0</ele><time>2026-04-29T11:15:17.113Z</time></trkpt><trkpt lat="40.48716010083747" lon="8.51796936928599"><ele>279.0</ele><time>2026-04-29T11:15:18.113Z</time></trkpt><trkpt lat="40.48735682741886" lon="8.517795400858347"><ele>281.0</ele><time>2026-04-29T11:15:19.113Z</time></trkpt><trkpt lat="40.48751150073024" lon="8.517565140952017"><ele>283.0</ele><time>2026-04-29T11:15:20.113Z</time></trkpt><trkpt lat="40.48765024298405" lon="8.517286570942632"><ele>282.0</ele><time>2026-04-29T11:15:21.115Z</time></trkpt><trkpt lat="40.487794182180494" lon="8.517008394108332"><ele>281.0</ele><time>2026-04-29T11:15:22.114Z</time></trkpt><trkpt lat="40.487950068354564" lon="8.51672745033905"><ele>281.0</ele><time>2026-04-29T11:15:23.114Z</time></trkpt><trkpt lat="40.4881115644129" lon="8.516447343197736"><ele>281.0</ele><time>2026-04-29T11:15:24.115Z</time></trkpt><trkpt lat="40.488269987598684" lon="8.516159077064524"><ele>286.0</ele><time>2026-04-29T11:15:25.115Z</time></trkpt><trkpt lat="40.488428138261455" lon="8.515871689492553"><ele>291.0</ele><time>2026-04-29T11:15:26.115Z</time></trkpt><trkpt lat="40.48858555360301" lon="8.515590185055679"><ele>292.5</ele><time>2026-04-29T11:15:27.115Z</time></trkpt><trkpt lat="40.48873995956732" lon="8.51529918213185"><ele>294.0</ele><time>2026-04-29T11:15:28.115Z</time></trkpt><trkpt lat="40.48886516271508" lon="8.51502362614491"><ele>294.0</ele><time>2026-04-29T11:15:29.115Z</time></trkpt><trkpt lat="40.488940000482046" lon="8.514771754119804"><ele>294.0</ele><time>2026-04-29T11:15:30.115Z</time></trkpt><trkpt lat="40.48896268370631" lon="8.514505568892108"><ele>294.0</ele><time>2026-04-29T11:15:31.114Z</time></trkpt><trkpt lat="40.48891181203" lon="8.514215233581"><ele>295.0</ele><time>2026-04-29T11:15:32.114Z</time></trkpt><trkpt lat="40.488796258874345" lon="8.513925551459847"><ele>296.0</ele><time>2026-04-29T11:15:33.114Z</time></trkpt><trkpt lat="40.48867480390106" lon="8.513632511874881"><ele>296.0</ele><time>2026-04-29T11:15:34.114Z</time></trkpt><trkpt lat="40.488556302504506" lon="8.513343466751893"><ele>296.0</ele><time>2026-04-29T11:15:35.114Z</time></trkpt><trkpt lat="40.48845098806894" lon="8.513079151015194"><ele>296.0</ele><time>2026-04-29T11:15:36.114Z</time></trkpt><trkpt lat="40.48839128132351" lon="8.512831829008972"><ele>296.0</ele><time>2026-04-29T11:15:37.114Z</time></trkpt><trkpt lat="40.48839913629497" lon="8.512570170946233"><ele>296.0</ele><time>2026-04-29T11:15:38.114Z</time></trkpt><trkpt lat="40.48847928874138" lon="8.512314603747997"><ele>298.0</ele><time>2026-04-29T11:15:39.114Z</time></trkpt><trkpt lat="40.488621168395255" lon="8.512070351601112"><ele>300.0</ele><time>2026-04-29T11:15:40.114Z</time></trkpt><trkpt lat="40.48878592525949" lon="8.511830774711896"><ele>300.0</ele><time>2026-04-29T11:15:41.114Z</time></trkpt><trkpt lat="40.488935858464224" lon="8.511602588617434"><ele>300.0</ele><time>2026-04-29T11:15:42.114Z</time></trkpt><trkpt lat="40.48909286437414" lon="8.511435286235308"><ele>300.0</ele><time>2026-04-29T11:15:43.114Z</time></trkpt><trkpt lat="40.48929342781817" lon="8.51136398250322"><ele>300.0</ele><time>2026-04-29T11:15:44.114Z</time></trkpt><trkpt lat="40.489516973427044" lon="8.51138635668141"><ele>300.0</ele><time>2026-04-29T11:15:45.114Z</time></trkpt><trkpt lat="40.48975026326014" lon="8.511459742597925"><ele>301.0</ele><time>2026-04-29T11:15:46.114Z</time></trkpt><trkpt lat="40.48997539780579" lon="8.511523538578084"><ele>302.0</ele><time>2026-04-29T11:15:47.114Z</time></trkpt><trkpt lat="40.49018357985608" lon="8.511528732175753"><ele>303.0</ele><time>2026-04-29T11:15:48.114Z</time></trkpt><trkpt lat="40.490378398831105" lon="8.511418792107955"><ele>307.0</ele><time>2026-04-29T11:15:49.114Z</time></trkpt><trkpt lat="40.49055769263753" lon="8.511220687606544"><ele>311.0</ele><time>2026-04-29T11:15:50.114Z</time></trkpt><trkpt lat="40.490760389936035" lon="8.511048199270222"><ele>311.0</ele><time>2026-04-29T11:15:51.114Z</time></trkpt><trkpt lat="40.49100025927695" lon="8.510923755684436"><ele>311.0</ele><time>2026-04-29T11:15:52.114Z</time></trkpt><trkpt lat="40.491245146382894" lon="8.510825524894871"><ele>313.0</ele><time>2026-04-29T11:15:53.114Z</time></trkpt><trkpt lat="40.491488383900105" lon="8.510715191380143"><ele>315.0</ele><time>2026-04-29T11:15:54.114Z</time></trkpt><trkpt lat="40.49173090978857" lon="8.510597772088238"><ele>315.0</ele><time>2026-04-29T11:15:55.114Z</time></trkpt><trkpt lat="40.49197485276932" lon="8.510488683710209"><ele>315.0</ele><time>2026-04-29T11:15:56.114Z</time></trkpt><trkpt lat="40.49222194755403" lon="8.510378933182155"><ele>319.5</ele><time>2026-04-29T11:15:57.114Z</time></trkpt><trkpt lat="40.49246783238497" lon="8.510267053374953"><ele>324.0</ele><time>2026-04-29T11:15:58.114Z</time></trkpt><trkpt lat="40.49270814412166" lon="8.510165614623387"><ele>325.0</ele><time>2026-04-29T11:15:59.114Z</time></trkpt><trkpt lat="40.49295661981598" lon="8.51011997425794"><ele>326.0</ele><time>2026-04-29T11:16:00.114Z</time></trkpt><trkpt lat="40.4932102986144" lon="8.510121593896748"><ele>326.0</ele><time>2026-04-29T11:16:01.114Z</time></trkpt><trkpt lat="40.49346824433003" lon="8.510145969182815"><ele>326.0</ele><time>2026-04-29T11:16:02.114Z</time></trkpt><trkpt lat="40.49372229418525" lon="8.510169702351046"><ele>327.0</ele><time>2026-04-29T11:16:03.114Z</time></trkpt><trkpt lat="40.49396070746228" lon="8.510184326757274"><ele>328.0</ele><time>2026-04-29T11:16:04.114Z</time></trkpt><trkpt lat="40.49416197503642" lon="8.510133293374059"><ele>329.0</ele><time>2026-04-29T11:16:05.114Z</time></trkpt><trkpt lat="40.494332438945705" lon="8.509972295146003"><ele>329.0</ele><time>2026-04-29T11:16:06.114Z</time></trkpt><trkpt lat="40.4944676309963" lon="8.509745940840782"><ele>329.0</ele><time>2026-04-29T11:16:07.114Z</time></trkpt><trkpt lat="40.49455138538489" lon="8.5094522725835"><ele>326.0</ele><time>2026-04-29T11:16:08.114Z</time></trkpt><trkpt lat="40.494610111768026" lon="8.509138907654666"><ele>323.0</ele><time>2026-04-29T11:16:09.114Z</time></trkpt><trkpt lat="40.49468816971835" lon="8.508857733966519"><ele>325.6666666666667</ele><time>2026-04-29T11:16:10.114Z</time></trkpt><trkpt lat="40.49482233665035" lon="8.508674982627943"><ele>328.3333333333333</ele><time>2026-04-29T11:16:11.114Z</time></trkpt><trkpt lat="40.49501576808313" lon="8.508563581200434"><ele>331.0</ele><time>2026-04-29T11:16:12.114Z</time></trkpt><trkpt lat="40.4952443210643" lon="8.508543116714897"><ele>332.5</ele><time>2026-04-29T11:16:13.114Z</time></trkpt><trkpt lat="40.4954933909818" lon="8.508588852407167"><ele>334.0</ele><time>2026-04-29T11:16:14.114Z</time></trkpt><trkpt lat="40.49573970213184" lon="8.508629234827524"><ele>334.0</ele><time>2026-04-29T11:16:15.114Z</time></trkpt><trkpt lat="40.49594860443804" lon="8.508642072341557"><ele>334.0</ele><time>2026-04-29T11:16:16.114Z</time></trkpt><trkpt lat="40.49612011403794" lon="8.508566895304499"><ele>334.0</ele><time>2026-04-29T11:16:17.114Z</time></trkpt><trkpt lat="40.49625955227547" lon="8.508410480927129"><ele>333.66666666666663</ele><time>2026-04-29T11:16:18.114Z</time></trkpt><trkpt lat="40.496338537268784" lon="8.508191451237076"><ele>333.3333333333333</ele><time>2026-04-29T11:16:19.114Z</time></trkpt><trkpt lat="40.49634759978291" lon="8.507916140463472"><ele>333.0</ele><time>2026-04-29T11:16:20.114Z</time></trkpt><trkpt lat="40.496325816673725" lon="8.507605557246707"><ele>333.0</ele><time>2026-04-29T11:16:21.114Z</time></trkpt><trkpt lat="40.49625368299074" lon="8.507290554338582"><ele>333.0</ele><time>2026-04-29T11:16:22.114Z</time></trkpt><trkpt lat="40.496130831988914" lon="8.506995049829218"><ele>340.5</ele><time>2026-04-29T11:16:23.114Z</time></trkpt><trkpt lat="40.49601240033268" lon="8.50671055586617"><ele>348.0</ele><time>2026-04-29T11:16:24.114Z</time></trkpt><trkpt lat="40.49593602287564" lon="8.506446160839937"><ele>348.6666666666667</ele><time>2026-04-29T11:16:25.114Z</time></trkpt><trkpt lat="40.49590182547528" lon="8.506167852257475"><ele>349.33333333333337</ele><time>2026-04-29T11:16:26.114Z</time></trkpt><trkpt lat="40.49591773355756" lon="8.50587786521618"><ele>350.0</ele><time>2026-04-29T11:16:27.114Z</time></trkpt><trkpt lat="40.495981739721444" lon="8.505652410165547"><ele>350.0</ele><time>2026-04-29T11:16:28.114Z</time></trkpt><trkpt lat="40.496101200285636" lon="8.50548869754596"><ele>350.0</ele><time>2026-04-29T11:16:29.114Z</time></trkpt><trkpt lat="40.49626409412977" lon="8.50541668399361"><ele>350.0</ele><time>2026-04-29T11:16:30.114Z</time></trkpt><trkpt lat="40.49645094750989" lon="8.505460288431003"><ele>350.33333333333337</ele><time>2026-04-29T11:16:31.114Z</time></trkpt><trkpt lat="40.49662423478792" lon="8.505596811870133"><ele>350.6666666666667</ele><time>2026-04-29T11:16:32.114Z</time></trkpt><trkpt lat="40.496810209056285" lon="8.505740542345471"><ele>351.0</ele><time>2026-04-29T11:16:33.114Z</time></trkpt><trkpt lat="40.49698200810838" lon="8.50583111617415"><ele>351.3333333333333</ele><time>2026-04-29T11:16:34.114Z</time></trkpt><trkpt lat="40.497163710668396" lon="8.505836250492267"><ele>351.66666666666663</ele><time>2026-04-29T11:16:35.114Z</time></trkpt><trkpt lat="40.497339042622855" lon="8.50573725869961"><ele>352.0</ele><time>2026-04-29T11:16:36.114Z</time></trkpt><trkpt lat="40.49749163641712" lon="8.505530460616637"><ele>355.0</ele><time>2026-04-29T11:16:37.114Z</time></trkpt><trkpt lat="40.49759745261422" lon="8.505265611144399"><ele>358.0</ele><time>2026-04-29T11:16:38.114Z</time></trkpt><trkpt lat="40.497648236856314" lon="8.504971745470588"><ele>358.0</ele><time>2026-04-29T11:16:39.114Z</time></trkpt><trkpt lat="40.49763366817716" lon="8.504650735537862"><ele>358.0</ele><time>2026-04-29T11:16:40.114Z</time></trkpt><trkpt lat="40.497586863345425" lon="8.504331235242754"><ele>360.0</ele><time>2026-04-29T11:16:41.114Z</time></trkpt><trkpt lat="40.49753527332363" lon="8.504006477058146"><ele>362.0</ele><time>2026-04-29T11:16:42.114Z</time></trkpt><trkpt lat="40.4974830295473" lon="8.503701960422061"><ele>362.5</ele><time>2026-04-29T11:16:43.114Z</time></trkpt><trkpt lat="40.49743081073881" lon="8.503396361084999"><ele>363.0</ele><time>2026-04-29T11:16:44.114Z</time></trkpt><trkpt lat="40.49737446631717" lon="8.503089130493832"><ele>361.5</ele><time>2026-04-29T11:16:45.114Z</time></trkpt><trkpt lat="40.49731902765258" lon="8.502780391191616"><ele>360.0</ele><time>2026-04-29T11:16:46.114Z</time></trkpt><trkpt lat="40.49726172351769" lon="8.50247670988345"><ele>360.0</ele><time>2026-04-29T11:16:47.114Z</time></trkpt><trkpt lat="40.497202755194266" lon="8.50217538604075"><ele>360.0</ele><time>2026-04-29T11:16:48.114Z</time></trkpt><trkpt lat="40.49713030108097" lon="8.501878401003946"><ele>371.0</ele><time>2026-04-29T11:16:49.114Z</time></trkpt><trkpt lat="40.4970540143356" lon="8.501583211588036"><ele>382.0</ele><time>2026-04-29T11:16:50.114Z</time></trkpt><trkpt lat="40.49697653768106" lon="8.501289160308541"><ele>380.5</ele><time>2026-04-29T11:16:51.114Z</time></trkpt><trkpt lat="40.496899462823016" lon="8.50100154983669"><ele>379.0</ele><time>2026-04-29T11:16:52.114Z</time></trkpt><trkpt lat="40.49681652356547" lon="8.50070388029089"><ele>376.5</ele><time>2026-04-29T11:16:53.114Z</time></trkpt><trkpt lat="40.49672724507614" lon="8.500401483657333"><ele>374.0</ele><time>2026-04-29T11:16:54.114Z</time></trkpt><trkpt lat="40.49664010501521" lon="8.500090262376013"><ele>374.0</ele><time>2026-04-29T11:16:55.114Z</time></trkpt><trkpt lat="40.496559805525955" lon="8.49977983026718"><ele>374.0</ele><time>2026-04-29T11:16:56.114Z</time></trkpt><trkpt lat="40.49648199901459" lon="8.499461655160419"><ele>373.5</ele><time>2026-04-29T11:16:57.114Z</time></trkpt><trkpt lat="40.49641250247885" lon="8.499134996384504"><ele>373.0</ele><time>2026-04-29T11:16:58.114Z</time></trkpt><trkpt lat="40.49634663681172" lon="8.498809883598545"><ele>372.0</ele><time>2026-04-29T11:16:59.114Z</time></trkpt><trkpt lat="40.49628524571889" lon="8.498482569402176"><ele>371.0</ele><time>2026-04-29T11:17:00.114Z</time></trkpt><trkpt lat="40.496221333061754" lon="8.498160070424237"><ele>383.5</ele><time>2026-04-29T11:17:01.114Z</time></trkpt><trkpt lat="40.49615899977185" lon="8.497841432704433"><ele>396.0</ele><time>2026-04-29T11:17:02.114Z</time></trkpt><trkpt lat="40.49610747188546" lon="8.49752725682448"><ele>396.0</ele><time>2026-04-29T11:17:03.114Z</time></trkpt><trkpt lat="40.49603931468741" lon="8.497234193404918"><ele>396.0</ele><time>2026-04-29T11:17:04.114Z</time></trkpt><trkpt lat="40.49594401468181" lon="8.496956082411238"><ele>393.0</ele><time>2026-04-29T11:17:05.114Z</time></trkpt><trkpt lat="40.49580585332412" lon="8.496705448635778"><ele>390.0</ele><time>2026-04-29T11:17:06.114Z</time></trkpt><trkpt lat="40.49563722171105" lon="8.496470723847072"><ele>387.5</ele><time>2026-04-29T11:17:07.114Z</time></trkpt><trkpt lat="40.49546775486174" lon="8.496245578840377"><ele>385.0</ele><time>2026-04-29T11:17:08.114Z</time></trkpt><trkpt lat="40.4953257772324" lon="8.49600704793594"><ele>391.0</ele><time>2026-04-29T11:17:09.114Z</time></trkpt><trkpt lat="40.495227499218565" lon="8.495731378295572"><ele>397.0</ele><time>2026-04-29T11:17:10.114Z</time></trkpt><trkpt lat="40.49518060256068" lon="8.49543283232908"><ele>397.0</ele><time>2026-04-29T11:17:11.114Z</time></trkpt><trkpt lat="40.49515197071249" lon="8.495125004200471"><ele>397.0</ele><time>2026-04-29T11:17:12.114Z</time></trkpt><trkpt lat="40.49510504566224" lon="8.494821935474322"><ele>395.0</ele><time>2026-04-29T11:17:13.114Z</time></trkpt><trkpt lat="40.4950035095439" lon="8.494543617283039"><ele>393.0</ele><time>2026-04-29T11:17:14.114Z</time></trkpt><trkpt lat="40.494862731989514" lon="8.494292798907303"><ele>393.0</ele><time>2026-04-29T11:17:15.114Z</time></trkpt><trkpt lat="40.494705031831444" lon="8.494058425227163"><ele>393.0</ele><time>2026-04-29T11:17:16.114Z</time></trkpt><trkpt lat="40.49455020581128" lon="8.49381431552041"><ele>395.0</ele><time>2026-04-29T11:17:17.114Z</time></trkpt><trkpt lat="40.49439377702747" lon="8.493565410571058"><ele>397.0</ele><time>2026-04-29T11:17:18.114Z</time></trkpt><trkpt lat="40.494243035350706" lon="8.493316508783028"><ele>397.0</ele><time>2026-04-29T11:17:19.114Z</time></trkpt><trkpt lat="40.494090554282565" lon="8.493067158283184"><ele>397.0</ele><time>2026-04-29T11:17:20.114Z</time></trkpt><trkpt lat="40.493924724191764" lon="8.492839201529915"><ele>398.0</ele><time>2026-04-29T11:17:21.114Z</time></trkpt><trkpt lat="40.493736212405146" lon="8.492619192684831"><ele>399.0</ele><time>2026-04-29T11:17:22.114Z</time></trkpt><trkpt lat="40.4935530995879" lon="8.492411058974822"><ele>399.0</ele><time>2026-04-29T11:17:23.114Z</time></trkpt><trkpt lat="40.493378882106605" lon="8.492224020495241"><ele>399.0</ele><time>2026-04-29T11:17:24.114Z</time></trkpt><trkpt lat="40.49324031600353" lon="8.492037162277757"><ele>399.0</ele><time>2026-04-29T11:17:25.114Z</time></trkpt><trkpt lat="40.49316001658622" lon="8.491808388655565"><ele>399.0</ele><time>2026-04-29T11:17:26.114Z</time></trkpt><trkpt lat="40.49312009813185" lon="8.491544004507569"><ele>399.0</ele><time>2026-04-29T11:17:27.115Z</time></trkpt><trkpt lat="40.49315392834639" lon="8.491290926314015"><ele>399.0</ele><time>2026-04-29T11:17:28.115Z</time></trkpt><trkpt lat="40.4932717898262" lon="8.491088873313519"><ele>399.0</ele><time>2026-04-29T11:17:29.115Z</time></trkpt><trkpt lat="40.493457631039156" lon="8.49093481556818"><ele>399.0</ele><time>2026-04-29T11:17:30.115Z</time></trkpt><trkpt lat="40.49365958361915" lon="8.490778527898499"><ele>400.0</ele><time>2026-04-29T11:17:31.114Z</time></trkpt><trkpt lat="40.49383707531582" lon="8.490616045815496"><ele>401.0</ele><time>2026-04-29T11:17:32.114Z</time></trkpt><trkpt lat="40.49394283712837" lon="8.490418935294274"><ele>402.0</ele><time>2026-04-29T11:17:33.115Z</time></trkpt><trkpt lat="40.49398650198919" lon="8.490166785993985"><ele>402.0</ele><time>2026-04-29T11:17:34.115Z</time></trkpt><trkpt lat="40.49397555069003" lon="8.489880843913804"><ele>402.0</ele><time>2026-04-29T11:17:35.115Z</time></trkpt><trkpt lat="40.49394174658181" lon="8.489588400405296"><ele>402.0</ele><time>2026-04-29T11:17:36.115Z</time></trkpt><trkpt lat="40.49394084305505" lon="8.489333778592018"><ele>405.0</ele><time>2026-04-29T11:17:37.115Z</time></trkpt><trkpt lat="40.49401513757878" lon="8.48914262715216"><ele>408.0</ele><time>2026-04-29T11:17:38.115Z</time></trkpt><trkpt lat="40.494152249552506" lon="8.489009943019845"><ele>411.0</ele><time>2026-04-29T11:17:39.114Z</time></trkpt><trkpt lat="40.49433620602429" lon="8.488964292906655"><ele>411.0</ele><time>2026-04-29T11:17:40.115Z</time></trkpt><trkpt lat="40.49454386930266" lon="8.488991352566543"><ele>411.0</ele><time>2026-04-29T11:17:41.115Z</time></trkpt><trkpt lat="40.494766539107935" lon="8.489061503512378"><ele>411.0</ele><time>2026-04-29T11:17:42.115Z</time></trkpt><trkpt lat="40.49498882712676" lon="8.48906274913197"><ele>414.0</ele><time>2026-04-29T11:17:43.115Z</time></trkpt><trkpt lat="40.49521404259844" lon="8.488992308146228"><ele>417.0</ele><time>2026-04-29T11:17:44.115Z</time></trkpt><trkpt lat="40.49543967754314" lon="8.488887402655191"><ele>418.0</ele><time>2026-04-29T11:17:45.115Z</time></trkpt><trkpt lat="40.49564442639886" lon="8.488799384678202"><ele>419.0</ele><time>2026-04-29T11:17:46.115Z</time></trkpt><trkpt lat="40.495816043612095" lon="8.488805223277025"><ele>420.0</ele><time>2026-04-29T11:17:47.115Z</time></trkpt><trkpt lat="40.49597712004741" lon="8.488918897920676"><ele>420.0</ele><time>2026-04-29T11:17:48.115Z</time></trkpt><trkpt lat="40.496120330271566" lon="8.489102767556682"><ele>420.0</ele><time>2026-04-29T11:17:49.115Z</time></trkpt><trkpt lat="40.49629599977929" lon="8.489253193361531"><ele>420.0</ele><time>2026-04-29T11:17:50.115Z</time></trkpt><trkpt lat="40.496492588301955" lon="8.489327212334908"><ele>423.33333333333337</ele><time>2026-04-29T11:17:51.115Z</time></trkpt><trkpt lat="40.496662415259635" lon="8.489329050928939"><ele>426.6666666666667</ele><time>2026-04-29T11:17:52.115Z</time></trkpt><trkpt lat="40.496804148502655" lon="8.489223721023809"><ele>430.0</ele><time>2026-04-29T11:17:53.115Z</time></trkpt><trkpt lat="40.49693272782201" lon="8.489028800158597"><ele>429.33333333333337</ele><time>2026-04-29T11:17:54.115Z</time></trkpt><trkpt lat="40.49708854239348" lon="8.488845394862834"><ele>428.66666666666663</ele><time>2026-04-29T11:17:55.115Z</time></trkpt><trkpt lat="40.4972776116513" lon="8.488793412297165"><ele>428.0</ele><time>2026-04-29T11:17:56.115Z</time></trkpt><trkpt lat="40.497494160470495" lon="8.48882691940593"><ele>428.0</ele><time>2026-04-29T11:17:57.115Z</time></trkpt><trkpt lat="40.49768059404982" lon="8.488844455395226"><ele>428.0</ele><time>2026-04-29T11:17:58.115Z</time></trkpt><trkpt lat="40.49781979534483" lon="8.488772922935034"><ele>428.0</ele><time>2026-04-29T11:17:59.115Z</time></trkpt><trkpt lat="40.49790432065299" lon="8.488615777619344"><ele>427.3333333333333</ele><time>2026-04-29T11:18:00.115Z</time></trkpt><trkpt lat="40.49791954561644" lon="8.488419124678904"><ele>426.66666666666663</ele><time>2026-04-29T11:18:01.115Z</time></trkpt><trkpt lat="40.49784926540676" lon="8.48823392787939"><ele>426.0</ele><time>2026-04-29T11:18:02.115Z</time></trkpt><trkpt lat="40.49770607275307" lon="8.488085099418631"><ele>430.66666666666663</ele><time>2026-04-29T11:18:03.115Z</time></trkpt><trkpt lat="40.49752527877371" lon="8.487929562513239"><ele>435.3333333333333</ele><time>2026-04-29T11:18:04.115Z</time></trkpt><trkpt lat="40.497367640078664" lon="8.487704764574753"><ele>440.0</ele><time>2026-04-29T11:18:05.115Z</time></trkpt><trkpt lat="40.497239943570264" lon="8.487441394991375"><ele>440.0</ele><time>2026-04-29T11:18:06.115Z</time></trkpt><trkpt lat="40.4971230634086" lon="8.487165298072293"><ele>440.0</ele><time>2026-04-29T11:18:07.115Z</time></trkpt><trkpt lat="40.49700850310838" lon="8.486897320482043"><ele>443.3333333333333</ele><time>2026-04-29T11:18:08.115Z</time></trkpt><trkpt lat="40.49690670556549" lon="8.486666603064108"><ele>446.66666666666663</ele><time>2026-04-29T11:18:09.115Z</time></trkpt><trkpt lat="40.49684151539842" lon="8.48646263618182"><ele>450.0</ele><time>2026-04-29T11:18:10.115Z</time></trkpt><trkpt lat="40.49684725734661" lon="8.486251214323214"><ele>452.0</ele><time>2026-04-29T11:18:11.115Z</time></trkpt><trkpt lat="40.496916678645" lon="8.4860453352526"><ele>454.0</ele><time>2026-04-29T11:18:12.115Z</time></trkpt><trkpt lat="40.49701876242716" lon="8.48584454832104"><ele>456.0</ele><time>2026-04-29T11:18:13.115Z</time></trkpt><trkpt lat="40.49704979103708" lon="8.485640759224397"><ele>460.33333333333337</ele><time>2026-04-29T11:18:14.115Z</time></trkpt><trkpt lat="40.49699454971314" lon="8.485427136541091"><ele>464.6666666666667</ele><time>2026-04-29T11:18:15.115Z</time></trkpt><trkpt lat="40.496859837957935" lon="8.485248547489174"><ele>469.0</ele><time>2026-04-29T11:18:16.115Z</time></trkpt><trkpt lat="40.4966639104091" lon="8.485119602992038"><ele>469.0</ele><time>2026-04-29T11:18:17.115Z</time></trkpt><trkpt lat="40.496455348307755" lon="8.484986545663542"><ele>469.0</ele><time>2026-04-29T11:18:18.115Z</time></trkpt><trkpt lat="40.49624472181401" lon="8.484876323662082"><ele>467.33333333333337</ele><time>2026-04-29T11:18:19.115Z</time></trkpt><trkpt lat="40.49604097097895" lon="8.484814611585067"><ele>465.66666666666663</ele><time>2026-04-29T11:18:20.115Z</time></trkpt><trkpt lat="40.49587859039753" lon="8.484769341552106"><ele>464.0</ele><time>2026-04-29T11:18:21.115Z</time></trkpt><trkpt lat="40.495772260794425" lon="8.484674629911131"><ele>468.75</ele><time>2026-04-29T11:18:22.115Z</time></trkpt><trkpt lat="40.49573719501279" lon="8.484532623838202"><ele>473.5</ele><time>2026-04-29T11:18:23.115Z</time></trkpt><trkpt lat="40.49579134510868" lon="8.484404049006598"><ele>478.25</ele><time>2026-04-29T11:18:24.115Z</time></trkpt><trkpt lat="40.49590895110129" lon="8.48433572866882"><ele>483.0</ele><time>2026-04-29T11:18:25.115Z</time></trkpt><trkpt lat="40.49606871176098" lon="8.484377165572846"><ele>483.0</ele><time>2026-04-29T11:18:26.115Z</time></trkpt><trkpt lat="40.49624558979359" lon="8.484472468387347"><ele>483.0</ele><time>2026-04-29T11:18:27.115Z</time></trkpt><trkpt lat="40.49645452683195" lon="8.48453395017801"><ele>483.0</ele><time>2026-04-29T11:18:28.115Z</time></trkpt><trkpt lat="40.49667061950172" lon="8.484557451318016"><ele>481.0</ele><time>2026-04-29T11:18:29.115Z</time></trkpt><trkpt lat="40.4968720547778" lon="8.484537335006435"><ele>479.0</ele><time>2026-04-29T11:18:30.115Z</time></trkpt><trkpt lat="40.49705194798135" lon="8.484414873693721"><ele>477.0</ele><time>2026-04-29T11:18:31.115Z</time></trkpt><trkpt lat="40.497211058745684" lon="8.48421982280301"><ele>477.0</ele><time>2026-04-29T11:18:32.115Z</time></trkpt><trkpt lat="40.4973460646402" lon="8.483993975566564"><ele>477.0</ele><time>2026-04-29T11:18:33.115Z</time></trkpt><trkpt lat="40.49745717646395" lon="8.483718532044298"><ele>483.0</ele><time>2026-04-29T11:18:34.115Z</time></trkpt><trkpt lat="40.49754055520698" lon="8.483415470154553"><ele>489.0</ele><time>2026-04-29T11:18:35.115Z</time></trkpt><trkpt lat="40.49759158219945" lon="8.483099004493473"><ele>494.5</ele><time>2026-04-29T11:18:36.115Z</time></trkpt><trkpt lat="40.49763069316127" lon="8.482778330049467"><ele>500.0</ele><time>2026-04-29T11:18:37.115Z</time></trkpt><trkpt lat="40.49764178258131" lon="8.482469776589564"><ele>500.0</ele><time>2026-04-29T11:18:38.115Z</time></trkpt><trkpt lat="40.497608595090156" lon="8.482175010896785"><ele>500.0</ele><time>2026-04-29T11:18:39.115Z</time></trkpt><trkpt lat="40.497539092919986" lon="8.48190651658357"><ele>500.0</ele><time>2026-04-29T11:18:40.115Z</time></trkpt><trkpt lat="40.49749836451466" lon="8.481656727601246"><ele>500.3333333333333</ele><time>2026-04-29T11:18:41.115Z</time></trkpt><trkpt lat="40.49751914386963" lon="8.481397699608936"><ele>500.66666666666663</ele><time>2026-04-29T11:18:42.115Z</time></trkpt><trkpt lat="40.497578342447014" lon="8.481145551958699"><ele>501.0</ele><time>2026-04-29T11:18:43.115Z</time></trkpt><trkpt lat="40.497679764662536" lon="8.480912112232389"><ele>499.66666666666663</ele><time>2026-04-29T11:18:44.115Z</time></trkpt><trkpt lat="40.497840927319004" lon="8.480719949594851"><ele>498.3333333333333</ele><time>2026-04-29T11:18:45.115Z</time></trkpt><trkpt lat="40.498034523655036" lon="8.480562627932697"><ele>497.0</ele><time>2026-04-29T11:18:46.115Z</time></trkpt><trkpt lat="40.49823952095588" lon="8.480429929958001"><ele>510.0</ele><time>2026-04-29T11:18:47.115Z</time></trkpt><trkpt lat="40.49844060411795" lon="8.480288622265272"><ele>523.0</ele><time>2026-04-29T11:18:48.115Z</time></trkpt><trkpt lat="40.498635154395885" lon="8.480148759577084"><ele>518.5</ele><time>2026-04-29T11:18:49.115Z</time></trkpt><trkpt lat="40.498846094465556" lon="8.480026617757748"><ele>514.0</ele><time>2026-04-29T11:18:50.115Z</time></trkpt><trkpt lat="40.4990590372352" lon="8.479948095019818"><ele>514.0</ele><time>2026-04-29T11:18:51.115Z</time></trkpt><trkpt lat="40.499254107163246" lon="8.479882830287377"><ele>514.0</ele><time>2026-04-29T11:18:52.115Z</time></trkpt><trkpt lat="40.499424717009695" lon="8.479832056701177"><ele>514.0</ele><time>2026-04-29T11:18:53.115Z</time></trkpt><trkpt lat="40.49957855155534" lon="8.47978045964243"><ele>512.75</ele><time>2026-04-29T11:18:54.115Z</time></trkpt><trkpt lat="40.49970797420666" lon="8.479722488831733"><ele>511.5</ele><time>2026-04-29T11:18:55.115Z</time></trkpt><trkpt lat="40.49982566808865" lon="8.479650133877431"><ele>510.25</ele><time>2026-04-29T11:18:56.115Z</time></trkpt><trkpt lat="40.49992713689663" lon="8.479557900694235"><ele>509.0</ele><time>2026-04-29T11:18:57.115Z</time></trkpt><trkpt lat="40.5000201911149" lon="8.479458190806195"><ele>511.79999999999995</ele><time>2026-04-29T11:18:58.115Z</time></trkpt><trkpt lat="40.50010148558396" lon="8.47935758722629"><ele>514.5999999999999</ele><time>2026-04-29T11:18:59.115Z</time></trkpt><trkpt lat="40.50017905974668" lon="8.479257942410962"><ele>517.4</ele><time>2026-04-29T11:19:00.115Z</time></trkpt><trkpt lat="40.50025657828352" lon="8.479165309334267"><ele>520.1999999999999</ele><time>2026-04-29T11:19:01.115Z</time></trkpt><trkpt lat="40.50033371457177" lon="8.479083839605972"><ele>523.0</ele><time>2026-04-29T11:19:02.115Z</time></trkpt><trkpt lat="40.50040226659379" lon="8.47901035902974"><ele>521.8333333333334</ele><time>2026-04-29T11:19:03.115Z</time></trkpt><trkpt lat="40.500449640025124" lon="8.478931881633773"><ele>520.6666666666667</ele><time>2026-04-29T11:19:04.115Z</time></trkpt><trkpt lat="40.500455525999485" lon="8.478847231063344"><ele>519.5</ele><time>2026-04-29T11:19:05.115Z</time></trkpt><trkpt lat="40.50040023055681" lon="8.47876134391935"><ele>518.3333333333334</ele><time>2026-04-29T11:19:07.115Z</time></trkpt><trkpt lat="40.50033745717088" lon="8.478739026222735"><ele>517.1666666666666</ele><time>2026-04-29T11:19:09.115Z</time></trkpt><trkpt lat="40.50027352703631" lon="8.478721279471575"><ele>516.0</ele><time>2026-04-29T11:19:11.115Z</time></trkpt><trkpt lat="40.500160481310445" lon="8.478691728736187"><ele>519.6</ele><time>2026-04-29T11:19:13.115Z</time></trkpt><trkpt lat="40.500031639716354" lon="8.47865455326733"><ele>523.2</ele><time>2026-04-29T11:19:15.115Z</time></trkpt><trkpt lat="40.499959784092596" lon="8.478628516930549"><ele>526.8</ele><time>2026-04-29T11:19:16.115Z</time></trkpt><trkpt lat="40.499882385430425" lon="8.478611895654947"><ele>530.4</ele><time>2026-04-29T11:19:17.115Z</time></trkpt><trkpt lat="40.499805945826445" lon="8.478605616735825"><ele>534.0</ele><time>2026-04-29T11:19:18.115Z</time></trkpt><trkpt lat="40.49971893291337" lon="8.478629849698052"><ele>534.0</ele><time>2026-04-29T11:19:19.115Z</time></trkpt><trkpt lat="40.499632775848305" lon="8.478673871123044"><ele>534.0</ele><time>2026-04-29T11:19:20.115Z</time></trkpt><trkpt lat="40.49954254128227" lon="8.478724259357103"><ele>534.0</ele><time>2026-04-29T11:19:21.115Z</time></trkpt><trkpt lat="40.499453204965576" lon="8.478770927928993"><ele>534.0</ele><time>2026-04-29T11:19:22.115Z</time></trkpt><trkpt lat="40.4993654704132" lon="8.478820688235642"><ele>534.0</ele><time>2026-04-29T11:19:23.115Z</time></trkpt><trkpt lat="40.49926920919904" lon="8.478873928793153"><ele>533.6</ele><time>2026-04-29T11:19:24.115Z</time></trkpt><trkpt lat="40.49917317026703" lon="8.478921473062048"><ele>533.2</ele><time>2026-04-29T11:19:25.115Z</time></trkpt><trkpt lat="40.49908932081214" lon="8.478956657546627"><ele>532.8000000000001</ele><time>2026-04-29T11:19:26.115Z</time></trkpt><trkpt lat="40.499006464905435" lon="8.478990754226295"><ele>532.4</ele><time>2026-04-29T11:19:27.115Z</time></trkpt><trkpt lat="40.49891777490402" lon="8.479026460120748"><ele>532.0</ele><time>2026-04-29T11:19:28.115Z</time></trkpt><trkpt lat="40.498823828743696" lon="8.479049673113277"><ele>534.0</ele><time>2026-04-29T11:19:29.115Z</time></trkpt><trkpt lat="40.49872569319391" lon="8.479062966208296"><ele>536.0</ele><time>2026-04-29T11:19:30.115Z</time></trkpt><trkpt lat="40.4986280466012" lon="8.479060387634258"><ele>538.0</ele><time>2026-04-29T11:19:31.115Z</time></trkpt><trkpt lat="40.49852466139674" lon="8.479048654104474"><ele>540.0</ele><time>2026-04-29T11:19:32.115Z</time></trkpt><trkpt lat="40.498422322170924" lon="8.479040547303375"><ele>542.0</ele><time>2026-04-29T11:19:33.116Z</time></trkpt><trkpt lat="40.49832043393638" lon="8.479036339279796"><ele>542.0</ele><time>2026-04-29T11:19:34.115Z</time></trkpt><trkpt lat="40.49822508668667" lon="8.479033765617364"><ele>542.0</ele><time>2026-04-29T11:19:35.115Z</time></trkpt><trkpt lat="40.49812961406064" lon="8.479025977378889"><ele>542.0</ele><time>2026-04-29T11:19:36.115Z</time></trkpt><trkpt lat="40.49803697744665" lon="8.479015798476429"><ele>542.0</ele><time>2026-04-29T11:19:37.115Z</time></trkpt><trkpt lat="40.49794573861255" lon="8.479009290810131"><ele>542.0</ele><time>2026-04-29T11:19:38.115Z</time></trkpt><trkpt lat="40.49785590797622" lon="8.47899422205916"><ele>542.6</ele><time>2026-04-29T11:19:39.116Z</time></trkpt><trkpt lat="40.49776398513006" lon="8.47897279766222"><ele>543.2</ele><time>2026-04-29T11:19:40.115Z</time></trkpt><trkpt lat="40.49766367441747" lon="8.478945809031275"><ele>543.8</ele><time>2026-04-29T11:19:41.115Z</time></trkpt><trkpt lat="40.4975569438787" lon="8.478907212087046"><ele>544.4</ele><time>2026-04-29T11:19:42.116Z</time></trkpt><trkpt lat="40.4974455213264" lon="8.478859553419799"><ele>545.0</ele><time>2026-04-29T11:19:43.116Z</time></trkpt><trkpt lat="40.49733201252628" lon="8.478796055260887"><ele>545.75</ele><time>2026-04-29T11:19:44.116Z</time></trkpt><trkpt lat="40.497235915778234" lon="8.478703018921188"><ele>546.5</ele><time>2026-04-29T11:19:45.116Z</time></trkpt><trkpt lat="40.49714196892813" lon="8.478600020479135"><ele>547.25</ele><time>2026-04-29T11:19:46.115Z</time></trkpt><trkpt lat="40.497045245139844" lon="8.478497283058054"><ele>548.0</ele><time>2026-04-29T11:19:47.115Z</time></trkpt><trkpt lat="40.496955009371916" lon="8.478384369207756"><ele>548.0</ele><time>2026-04-29T11:19:48.115Z</time></trkpt><trkpt lat="40.496870958011364" lon="8.478269336104455"><ele>548.0</ele><time>2026-04-29T11:19:49.115Z</time></trkpt><trkpt lat="40.49678803604963" lon="8.478149858977233"><ele>548.0</ele><time>2026-04-29T11:19:50.115Z</time></trkpt><trkpt lat="40.49671803322395" lon="8.47802358451684"><ele>548.0</ele><time>2026-04-29T11:19:51.115Z</time></trkpt><trkpt lat="40.49665825587202" lon="8.477887238411826"><ele>549.25</ele><time>2026-04-29T11:19:52.115Z</time></trkpt><trkpt lat="40.49660312104255" lon="8.477744720489053"><ele>550.5</ele><time>2026-04-29T11:19:53.115Z</time></trkpt><trkpt lat="40.49654137620624" lon="8.477604805284578"><ele>551.75</ele><time>2026-04-29T11:19:54.115Z</time></trkpt><trkpt lat="40.49647527390851" lon="8.47747188404144"><ele>553.0</ele><time>2026-04-29T11:19:55.115Z</time></trkpt><trkpt lat="40.496398817808746" lon="8.477354609245328"><ele>553.0</ele><time>2026-04-29T11:19:56.115Z</time></trkpt><trkpt lat="40.496305864558764" lon="8.477261976986828"><ele>553.0</ele><time>2026-04-29T11:19:57.115Z</time></trkpt><trkpt lat="40.496197840724186" lon="8.477197884472407"><ele>553.0</ele><time>2026-04-29T11:19:58.115Z</time></trkpt><trkpt lat="40.496083453936876" lon="8.477157484972311"><ele>553.0</ele><time>2026-04-29T11:19:59.115Z</time></trkpt><trkpt lat="40.49596139333911" lon="8.477162022502814"><ele>554.0</ele><time>2026-04-29T11:20:00.115Z</time></trkpt><trkpt lat="40.49584399021836" lon="8.477197167730267"><ele>555.0</ele><time>2026-04-29T11:20:01.115Z</time></trkpt><trkpt lat="40.49572791399461" lon="8.477264044228356"><ele>556.0</ele><time>2026-04-29T11:20:02.115Z</time></trkpt><trkpt lat="40.49561908478749" lon="8.47734509504229"><ele>557.0</ele><time>2026-04-29T11:20:03.115Z</time></trkpt><trkpt lat="40.49551795690096" lon="8.477448206323787"><ele>557.0</ele><time>2026-04-29T11:20:04.115Z</time></trkpt><trkpt lat="40.49542795484542" lon="8.477565003200176"><ele>557.0</ele><time>2026-04-29T11:20:05.115Z</time></trkpt><trkpt lat="40.49534425843753" lon="8.477685125181779"><ele>557.0</ele><time>2026-04-29T11:20:06.115Z</time></trkpt><trkpt lat="40.49527316425818" lon="8.477784459594485"><ele>557.0</ele><time>2026-04-29T11:20:07.115Z</time></trkpt><trkpt lat="40.49519219909714" lon="8.477849615622178"><ele>557.0</ele><time>2026-04-29T11:20:08.115Z</time></trkpt><trkpt lat="40.4951092128783" lon="8.477845651599385"><ele>560.0</ele><time>2026-04-29T11:20:09.115Z</time></trkpt><trkpt lat="40.49504213231282" lon="8.477781637523698"><ele>563.0</ele><time>2026-04-29T11:20:10.115Z</time></trkpt><trkpt lat="40.495012716591326" lon="8.477681378292646"><ele>566.0</ele><time>2026-04-29T11:20:11.115Z</time></trkpt><trkpt lat="40.49504033595117" lon="8.477568775405837"><ele>569.0</ele><time>2026-04-29T11:20:12.115Z</time></trkpt><trkpt lat="40.49511186254838" lon="8.477463265987463"><ele>572.0</ele><time>2026-04-29T11:20:13.115Z</time></trkpt><trkpt lat="40.4951975918902" lon="8.477364951168846"><ele>572.0</ele><time>2026-04-29T11:20:14.115Z</time></trkpt><trkpt lat="40.49527893206781" lon="8.477255664761906"><ele>572.0</ele><time>2026-04-29T11:20:15.115Z</time></trkpt><trkpt lat="40.49536897810997" lon="8.477136728733004"><ele>572.0</ele><time>2026-04-29T11:20:16.115Z</time></trkpt><trkpt lat="40.49546105394888" lon="8.477011711588945"><ele>572.0</ele><time>2026-04-29T11:20:17.115Z</time></trkpt><trkpt lat="40.495550879510276" lon="8.476873543968317"><ele>572.5</ele><time>2026-04-29T11:20:18.115Z</time></trkpt><trkpt lat="40.495635091769444" lon="8.47673048049948"><ele>573.0</ele><time>2026-04-29T11:20:19.115Z</time></trkpt><trkpt lat="40.49571650928604" lon="8.47658797693733"><ele>573.5</ele><time>2026-04-29T11:20:20.115Z</time></trkpt><trkpt lat="40.49579357270902" lon="8.476434299659951"><ele>574.0</ele><time>2026-04-29T11:20:21.115Z</time></trkpt><trkpt lat="40.4958628882489" lon="8.476280035343558"><ele>578.25</ele><time>2026-04-29T11:20:22.115Z</time></trkpt><trkpt lat="40.49592719686227" lon="8.476122569528247"><ele>582.5</ele><time>2026-04-29T11:20:23.115Z</time></trkpt><trkpt lat="40.49597455061809" lon="8.475961510107245"><ele>586.75</ele><time>2026-04-29T11:20:24.115Z</time></trkpt><trkpt lat="40.49600929640986" lon="8.475791953242117"><ele>591.0</ele><time>2026-04-29T11:20:25.115Z</time></trkpt><trkpt lat="40.49603990117694" lon="8.475620075038245"><ele>591.0</ele><time>2026-04-29T11:20:26.115Z</time></trkpt><trkpt lat="40.49607475866098" lon="8.475455056733738"><ele>591.0</ele><time>2026-04-29T11:20:27.115Z</time></trkpt><trkpt lat="40.49611505134269" lon="8.47529322294952"><ele>591.0</ele><time>2026-04-29T11:20:28.115Z</time></trkpt><trkpt lat="40.4961693982618" lon="8.475122445964162"><ele>591.0</ele><time>2026-04-29T11:20:29.115Z</time></trkpt><trkpt lat="40.49622349544396" lon="8.474961564661964"><ele>591.5</ele><time>2026-04-29T11:20:30.115Z</time></trkpt><trkpt lat="40.496283629890925" lon="8.474795130195362"><ele>592.0</ele><time>2026-04-29T11:20:31.115Z</time></trkpt><trkpt lat="40.49634874349094" lon="8.47464429480106"><ele>592.5</ele><time>2026-04-29T11:20:32.115Z</time></trkpt><trkpt lat="40.4964127486322" lon="8.47451126870507"><ele>593.0</ele><time>2026-04-29T11:20:33.115Z</time></trkpt><trkpt lat="40.496467732248234" lon="8.474393893806562"><ele>593.0</ele><time>2026-04-29T11:20:34.115Z</time></trkpt><trkpt lat="40.49651762244896" lon="8.47429180177324"><ele>593.0</ele><time>2026-04-29T11:20:35.115Z</time></trkpt><trkpt lat="40.4965649557259" lon="8.474199206551015"><ele>593.0</ele><time>2026-04-29T11:20:36.115Z</time></trkpt><trkpt lat="40.496608688072044" lon="8.474128270445362"><ele>593.0</ele><time>2026-04-29T11:20:37.115Z</time></trkpt><trkpt lat="40.49664847822041" lon="8.474060516866208"><ele>593.0</ele><time>2026-04-29T11:20:38.115Z</time></trkpt><trkpt lat="40.49671316548145" lon="8.473956900932988"><ele>593.0</ele><time>2026-04-29T11:20:40.115Z</time></trkpt><trkpt lat="40.4967875170607" lon="8.473923175226822"><ele>593.0</ele><time>2026-04-29T11:20:42.115Z</time></trkpt><trkpt lat="40.496852143619364" lon="8.473902463484622"><ele>593.0</ele><time>2026-04-29T11:20:44.115Z</time></trkpt><trkpt lat="40.49691923226342" lon="8.473875277018523"><ele>593.0</ele><time>2026-04-29T11:21:01.115Z</time></trkpt><trkpt lat="40.49704170845021" lon="8.473874953820323"><ele>593.0</ele><time>2026-04-29T11:21:03.115Z</time></trkpt><trkpt lat="40.497111916192424" lon="8.473891358113177"><ele>593.0</ele><time>2026-04-29T11:21:04.115Z</time></trkpt><trkpt lat="40.49718722221843" lon="8.473914579984738"><ele>593.0</ele><time>2026-04-29T11:21:05.115Z</time></trkpt><trkpt lat="40.497265737625845" lon="8.473942592717504"><ele>593.1666666666666</ele><time>2026-04-29T11:21:06.115Z</time></trkpt><trkpt lat="40.497350173521056" lon="8.47396919695165"><ele>593.3333333333333</ele><time>2026-04-29T11:21:07.115Z</time></trkpt><trkpt lat="40.49743423516322" lon="8.473992567753863"><ele>593.5</ele><time>2026-04-29T11:21:08.115Z</time></trkpt><trkpt lat="40.49751583018328" lon="8.47401679817621"><ele>593.6666666666666</ele><time>2026-04-29T11:21:09.115Z</time></trkpt><trkpt lat="40.49760209238202" lon="8.47405102994902"><ele>593.8333333333334</ele><time>2026-04-29T11:21:10.115Z</time></trkpt><trkpt lat="40.49767639957068" lon="8.474083735117762"><ele>594.0</ele><time>2026-04-29T11:21:11.115Z</time></trkpt><trkpt lat="40.49773412236692" lon="8.47414435013314"><ele>594.0</ele><time>2026-04-29T11:21:12.115Z</time></trkpt><trkpt lat="40.497777435787704" lon="8.474226505416349"><ele>594.0</ele><time>2026-04-29T11:21:13.115Z</time></trkpt><trkpt lat="40.49782929518181" lon="8.474301526644444"><ele>594.0</ele><time>2026-04-29T11:21:14.115Z</time></trkpt><trkpt lat="40.497891277382436" lon="8.474366002244594"><ele>594.0</ele><time>2026-04-29T11:21:15.115Z</time></trkpt><trkpt lat="40.49795543759811" lon="8.474434931961996"><ele>594.0</ele><time>2026-04-29T11:21:16.115Z</time></trkpt><trkpt lat="40.49801842309248" lon="8.47450491575773"><ele>594.0</ele><time>2026-04-29T11:21:17.115Z</time></trkpt><trkpt lat="40.498087439674215" lon="8.474575540555463"><ele>593.0</ele><time>2026-04-29T11:21:18.115Z</time></trkpt><trkpt lat="40.49815946846871" lon="8.474643817255071"><ele>592.0</ele><time>2026-04-29T11:21:19.115Z</time></trkpt><trkpt lat="40.49822800773457" lon="8.474721462086196"><ele>591.0</ele><time>2026-04-29T11:21:20.115Z</time></trkpt><trkpt lat="40.49829322853248" lon="8.474799118680835"><ele>590.0</ele><time>2026-04-29T11:21:21.115Z</time></trkpt><trkpt lat="40.498357790951914" lon="8.474871000708045"><ele>589.0</ele><time>2026-04-29T11:21:22.115Z</time></trkpt><trkpt lat="40.49841793304356" lon="8.474942108339624"><ele>588.0</ele><time>2026-04-29T11:21:23.115Z</time></trkpt><trkpt lat="40.49847802597302" lon="8.475008585849265"><ele>588.0</ele><time>2026-04-29T11:21:24.115Z</time></trkpt><trkpt lat="40.498542312273706" lon="8.475073203070439"><ele>588.0</ele><time>2026-04-29T11:21:25.115Z</time></trkpt><trkpt lat="40.498604075040625" lon="8.475145116485901"><ele>588.0</ele><time>2026-04-29T11:21:26.115Z</time></trkpt><trkpt lat="40.498667321905266" lon="8.475208470994158"><ele>588.0</ele><time>2026-04-29T11:21:27.115Z</time></trkpt><trkpt lat="40.49874224653952" lon="8.475252338737672"><ele>588.0</ele><time>2026-04-29T11:21:28.115Z</time></trkpt><trkpt lat="40.49882480072041" lon="8.475270798955162"><ele>588.0</ele><time>2026-04-29T11:21:29.115Z</time></trkpt><trkpt lat="40.49890773694242" lon="8.475270465980172"><ele>587.5</ele><time>2026-04-29T11:21:30.115Z</time></trkpt><trkpt lat="40.498990332757515" lon="8.475261609702814"><ele>587.0</ele><time>2026-04-29T11:21:31.115Z</time></trkpt><trkpt lat="40.499074824134574" lon="8.475245964509893"><ele>586.5</ele><time>2026-04-29T11:21:32.115Z</time></trkpt><trkpt lat="40.49915952927759" lon="8.475228961675656"><ele>586.0</ele><time>2026-04-29T11:21:33.115Z</time></trkpt><trkpt lat="40.499249514697254" lon="8.475216793467652"><ele>585.5</ele><time>2026-04-29T11:21:34.115Z</time></trkpt><trkpt lat="40.49933722577514" lon="8.475202295807334"><ele>585.0</ele><time>2026-04-29T11:21:35.115Z</time></trkpt><trkpt lat="40.499420245038806" lon="8.475195270073796"><ele>585.0</ele><time>2026-04-29T11:21:36.115Z</time></trkpt><trkpt lat="40.49950230521542" lon="8.475180366215799"><ele>585.0</ele><time>2026-04-29T11:21:37.115Z</time></trkpt><trkpt lat="40.4995855895724" lon="8.47515404276674"><ele>585.0</ele><time>2026-04-29T11:21:38.115Z</time></trkpt><trkpt lat="40.49965933988738" lon="8.475126041812002"><ele>585.0</ele><time>2026-04-29T11:21:39.116Z</time></trkpt><trkpt lat="40.499726579473624" lon="8.47507009796882"><ele>585.0</ele><time>2026-04-29T11:21:40.116Z</time></trkpt><trkpt lat="40.4997820406618" lon="8.474995870243145"><ele>585.0</ele><time>2026-04-29T11:21:41.116Z</time></trkpt><trkpt lat="40.49983470291218" lon="8.474918322933107"><ele>584.3333333333334</ele><time>2026-04-29T11:21:42.116Z</time></trkpt><trkpt lat="40.499903377475775" lon="8.474860581645059"><ele>583.6666666666666</ele><time>2026-04-29T11:21:43.116Z</time></trkpt><trkpt lat="40.49995929149606" lon="8.474784650160057"><ele>583.0</ele><time>2026-04-29T11:21:44.116Z</time></trkpt><trkpt lat="40.49999986223426" lon="8.474692683375531"><ele>582.3333333333333</ele><time>2026-04-29T11:21:45.116Z</time></trkpt><trkpt lat="40.500039238142755" lon="8.474595984631415"><ele>581.6666666666666</ele><time>2026-04-29T11:21:46.115Z</time></trkpt><trkpt lat="40.500089120535776" lon="8.474505655230594"><ele>581.0</ele><time>2026-04-29T11:21:47.115Z</time></trkpt><trkpt lat="40.500139323742395" lon="8.474417299374196"><ele>581.0</ele><time>2026-04-29T11:21:48.116Z</time></trkpt><trkpt lat="40.50018804309771" lon="8.47431988227441"><ele>581.0</ele><time>2026-04-29T11:21:49.115Z</time></trkpt><trkpt lat="40.50023838159661" lon="8.474224335857423"><ele>581.0</ele><time>2026-04-29T11:21:50.115Z</time></trkpt><trkpt lat="40.50027927752738" lon="8.47412282693125"><ele>581.0</ele><time>2026-04-29T11:21:51.116Z</time></trkpt><trkpt lat="40.500318603258854" lon="8.474017076956596"><ele>581.0</ele><time>2026-04-29T11:21:52.115Z</time></trkpt><trkpt lat="40.500360883633654" lon="8.473913375061315"><ele>581.0</ele><time>2026-04-29T11:21:53.115Z</time></trkpt><trkpt lat="40.50040479528178" lon="8.473815219881937"><ele>578.3333333333333</ele><time>2026-04-29T11:21:54.115Z</time></trkpt><trkpt lat="40.50045045030025" lon="8.473713094689508"><ele>575.6666666666666</ele><time>2026-04-29T11:21:55.115Z</time></trkpt><trkpt lat="40.50049747099462" lon="8.473604473424935"><ele>573.0</ele><time>2026-04-29T11:21:56.115Z</time></trkpt><trkpt lat="40.500537023369006" lon="8.47350308232529"><ele>570.3333333333334</ele><time>2026-04-29T11:21:57.115Z</time></trkpt><trkpt lat="40.50057664095269" lon="8.473410073406129"><ele>567.6666666666667</ele><time>2026-04-29T11:21:58.115Z</time></trkpt><trkpt lat="40.5006190917578" lon="8.473324693646017"><ele>565.0</ele><time>2026-04-29T11:21:59.115Z</time></trkpt><trkpt lat="40.500663991647755" lon="8.473239532379138"><ele>564.9999999999999</ele><time>2026-04-29T11:22:00.115Z</time></trkpt><trkpt lat="40.50070727458237" lon="8.473160038457229"><ele>565.0</ele><time>2026-04-29T11:22:01.115Z</time></trkpt><trkpt lat="40.500747907132684" lon="8.473082607930051"><ele>565.0</ele><time>2026-04-29T11:22:02.115Z</time></trkpt><trkpt lat="40.50077797984577" lon="8.473006009339437"><ele>565.0</ele><time>2026-04-29T11:22:03.115Z</time></trkpt><trkpt lat="40.50080494117263" lon="8.472931193729506"><ele>565.0</ele><time>2026-04-29T11:22:04.115Z</time></trkpt><trkpt lat="40.50084342097459" lon="8.472865289733255"><ele>564.9999999999999</ele><time>2026-04-29T11:22:05.115Z</time></trkpt><trkpt lat="40.50088650945227" lon="8.472789255598736"><ele>565.0</ele><time>2026-04-29T11:22:07.115Z</time></trkpt><trkpt lat="40.50093757764587" lon="8.472693564665303"><ele>566.3333333333334</ele><time>2026-04-29T11:22:12.115Z</time></trkpt><trkpt lat="40.50099372944917" lon="8.472549099323114"><ele>567.6666666666667</ele><time>2026-04-29T11:22:14.115Z</time></trkpt><trkpt lat="40.5010227876477" lon="8.472463721586198"><ele>569.0</ele><time>2026-04-29T11:22:15.115Z</time></trkpt><trkpt lat="40.50105480213326" lon="8.472373596178473"><ele>570.3333333333334</ele><time>2026-04-29T11:22:16.115Z</time></trkpt><trkpt lat="40.50108450611971" lon="8.472284579422958"><ele>571.6666666666666</ele><time>2026-04-29T11:22:17.115Z</time></trkpt><trkpt lat="40.50111244899653" lon="8.472206788349595"><ele>573.0</ele><time>2026-04-29T11:22:18.115Z</time></trkpt><trkpt lat="40.50115879717302" lon="8.472132347952888"><ele>572.5</ele><time>2026-04-29T11:22:19.115Z</time></trkpt><trkpt lat="40.50120564727334" lon="8.472046562522959"><ele>572.0</ele><time>2026-04-29T11:22:20.115Z</time></trkpt><trkpt lat="40.50125985076612" lon="8.471969396995275"><ele>571.5</ele><time>2026-04-29T11:22:21.115Z</time></trkpt><trkpt lat="40.50132587058197" lon="8.471890828285236"><ele>571.0</ele><time>2026-04-29T11:22:22.115Z</time></trkpt><trkpt lat="40.50139026784602" lon="8.471821127346757"><ele>570.5</ele><time>2026-04-29T11:22:23.115Z</time></trkpt><trkpt lat="40.50145392396381" lon="8.471736507835383"><ele>570.0</ele><time>2026-04-29T11:22:24.115Z</time></trkpt><trkpt lat="40.501522140505514" lon="8.471646609072614"><ele>570.0</ele><time>2026-04-29T11:22:25.115Z</time></trkpt><trkpt lat="40.50158714339962" lon="8.471557191862665"><ele>570.0</ele><time>2026-04-29T11:22:26.115Z</time></trkpt><trkpt lat="40.501648063065936" lon="8.47147912310058"><ele>570.0</ele><time>2026-04-29T11:22:27.115Z</time></trkpt><trkpt lat="40.50170082806968" lon="8.47139419188561"><ele>570.0</ele><time>2026-04-29T11:22:28.115Z</time></trkpt><trkpt lat="40.50175809102711" lon="8.471348048997458"><ele>570.0</ele><time>2026-04-29T11:22:29.115Z</time></trkpt><trkpt lat="40.50182368862777" lon="8.471302152787407"><ele>570.0</ele><time>2026-04-29T11:22:30.115Z</time></trkpt><trkpt lat="40.50188837572536" lon="8.471262004182229"><ele>570.4285714285714</ele><time>2026-04-29T11:22:31.115Z</time></trkpt><trkpt lat="40.50195767577798" lon="8.471213552681824"><ele>570.8571428571429</ele><time>2026-04-29T11:22:32.115Z</time></trkpt><trkpt lat="40.50202271220151" lon="8.471164162107145"><ele>571.2857142857143</ele><time>2026-04-29T11:22:33.115Z</time></trkpt><trkpt lat="40.50207558225297" lon="8.471108111455711"><ele>571.7142857142858</ele><time>2026-04-29T11:22:34.115Z</time></trkpt><trkpt lat="40.50213448750124" lon="8.471065819478168"><ele>572.1428571428572</ele><time>2026-04-29T11:22:35.115Z</time></trkpt><trkpt lat="40.50220085091639" lon="8.47104162358263"><ele>572.5714285714286</ele><time>2026-04-29T11:22:36.115Z</time></trkpt><trkpt lat="40.50227595935575" lon="8.471019564774252"><ele>573.0</ele><time>2026-04-29T11:22:37.115Z</time></trkpt><trkpt lat="40.50235607314224" lon="8.471023156215999"><ele>573.0</ele><time>2026-04-29T11:22:38.115Z</time></trkpt><trkpt lat="40.50243253860096" lon="8.471022207908081"><ele>573.0</ele><time>2026-04-29T11:22:39.115Z</time></trkpt><trkpt lat="40.5025026746321" lon="8.471002496418716"><ele>573.0</ele><time>2026-04-29T11:22:40.115Z</time></trkpt><trkpt lat="40.50258581809445" lon="8.470894113050573"><ele>573.0</ele><time>2026-04-29T11:22:42.115Z</time></trkpt><trkpt lat="40.502629413841476" lon="8.470799024876161"><ele>573.0</ele><time>2026-04-29T11:22:43.115Z</time></trkpt><trkpt lat="40.50267444651643" lon="8.47072652282141"><ele>573.0</ele><time>2026-04-29T11:22:44.115Z</time></trkpt><trkpt lat="40.50272275939806" lon="8.47065712678442"><ele>573.0</ele><time>2026-04-29T11:22:45.115Z</time></trkpt><trkpt lat="40.50280856965184" lon="8.47055835573069"><ele>573.0</ele><time>2026-04-29T11:22:47.115Z</time></trkpt><trkpt lat="40.502922994918066" lon="8.470553515024216"><ele>573.0</ele><time>2026-04-29T11:22:49.115Z</time></trkpt><trkpt lat="40.502984497582375" lon="8.47053537223367"><ele>573.0</ele><time>2026-04-29T11:22:50.115Z</time></trkpt><trkpt lat="40.503108498901014" lon="8.470501641352813"><ele>573.0</ele><time>2026-04-29T11:22:52.115Z</time></trkpt><trkpt lat="40.50317476410759" lon="8.470486686755505"><ele>572.2857142857143</ele><time>2026-04-29T11:22:53.115Z</time></trkpt><trkpt lat="40.50324596432644" lon="8.47047381391854"><ele>571.5714285714287</ele><time>2026-04-29T11:22:54.115Z</time></trkpt><trkpt lat="40.503322878537176" lon="8.470447811821527"><ele>570.8571428571429</ele><time>2026-04-29T11:22:55.115Z</time></trkpt><trkpt lat="40.50338990587778" lon="8.470420992403827"><ele>570.1428571428571</ele><time>2026-04-29T11:22:56.115Z</time></trkpt><trkpt lat="40.50345402861541" lon="8.470382004671633"><ele>569.4285714285713</ele><time>2026-04-29T11:22:57.115Z</time></trkpt><trkpt lat="40.50351826554103" lon="8.470342077153488"><ele>568.7142857142857</ele><time>2026-04-29T11:22:58.115Z</time></trkpt><trkpt lat="40.503580407162794" lon="8.47030031950497"><ele>568.0</ele><time>2026-04-29T11:22:59.115Z</time></trkpt><trkpt lat="40.503656790232505" lon="8.470253939687549"><ele>569.5</ele><time>2026-04-29T11:23:00.115Z</time></trkpt><trkpt lat="40.5037167737233" lon="8.47022159144989"><ele>571.0</ele><time>2026-04-29T11:23:01.115Z</time></trkpt><trkpt lat="40.50378547024372" lon="8.470179472360071"><ele>572.5</ele><time>2026-04-29T11:23:02.115Z</time></trkpt><trkpt lat="40.50383494156729" lon="8.470115765415335"><ele>574.0</ele><time>2026-04-29T11:23:03.115Z</time></trkpt><trkpt lat="40.503899626141504" lon="8.470071956199648"><ele>575.5</ele><time>2026-04-29T11:23:04.115Z</time></trkpt><trkpt lat="40.50397171499401" lon="8.470037610622029"><ele>577.0</ele><time>2026-04-29T11:23:05.115Z</time></trkpt><trkpt lat="40.50407663309013" lon="8.469950710816596"><ele>577.0</ele><time>2026-04-29T11:23:07.115Z</time></trkpt><trkpt lat="40.504145756566494" lon="8.469893347939944"><ele>577.0</ele><time>2026-04-29T11:23:08.115Z</time></trkpt><trkpt lat="40.504207434901176" lon="8.469828430954387"><ele>577.0</ele><time>2026-04-29T11:23:09.115Z</time></trkpt><trkpt lat="40.504271272128406" lon="8.469761580163556"><ele>577.0</ele><time>2026-04-29T11:23:10.115Z</time></trkpt><trkpt lat="40.504317791096426" lon="8.46966085399625"><ele>577.0</ele><time>2026-04-29T11:23:11.115Z</time></trkpt><trkpt lat="40.50437280021943" lon="8.469580511407258"><ele>577.0</ele><time>2026-04-29T11:23:12.115Z</time></trkpt><trkpt lat="40.50441054098096" lon="8.469514064786512"><ele>577.0</ele><time>2026-04-29T11:23:13.115Z</time></trkpt><trkpt lat="40.504466488306264" lon="8.469457788022913"><ele>577.0</ele><time>2026-04-29T11:23:14.115Z</time></trkpt><trkpt lat="40.504523821198624" lon="8.469394579871766"><ele>577.0</ele><time>2026-04-29T11:23:15.115Z</time></trkpt><trkpt lat="40.50457869585943" lon="8.469324719692175"><ele>577.0</ele><time>2026-04-29T11:23:16.115Z</time></trkpt><trkpt lat="40.50461776098587" lon="8.469255641411152"><ele>577.0</ele><time>2026-04-29T11:23:17.115Z</time></trkpt><trkpt lat="40.50465983231541" lon="8.469185423567211"><ele>577.0</ele><time>2026-04-29T11:23:18.115Z</time></trkpt><trkpt lat="40.504706369869055" lon="8.469107145856412"><ele>577.0</ele><time>2026-04-29T11:23:19.115Z</time></trkpt><trkpt lat="40.50475068862484" lon="8.469021194505507"><ele>577.0</ele><time>2026-04-29T11:23:20.115Z</time></trkpt><trkpt lat="40.504784331945544" lon="8.468941658058261"><ele>577.0</ele><time>2026-04-29T11:23:21.115Z</time></trkpt><trkpt lat="40.50484352319029" lon="8.46880822956273"><ele>577.0</ele><time>2026-04-29T11:23:23.115Z</time></trkpt><trkpt lat="40.504909999399025" lon="8.468662206701907"><ele>577.0</ele><time>2026-04-29T11:23:25.115Z</time></trkpt><trkpt lat="40.504971546524104" lon="8.468530584003629"><ele>577.0</ele><time>2026-04-29T11:23:27.115Z</time></trkpt><trkpt lat="40.50498532751263" lon="8.468401908146088"><ele>578.4</ele><time>2026-04-29T11:23:29.115Z</time></trkpt><trkpt lat="40.50490440408951" lon="8.468357960850534"><ele>579.8000000000001</ele><time>2026-04-29T11:23:31.115Z</time></trkpt><trkpt lat="40.50485446390442" lon="8.468465207538648"><ele>581.2</ele><time>2026-04-29T11:23:33.115Z</time></trkpt><trkpt lat="40.50489677824846" lon="8.468600785079758"><ele>582.6</ele><time>2026-04-29T11:23:35.115Z</time></trkpt><trkpt lat="40.50493285876096" lon="8.46871285992946"><ele>584.0</ele><time>2026-04-29T11:23:37.115Z</time></trkpt><trkpt lat="40.50503641709675" lon="8.468765999112001"><ele>584.0</ele><time>2026-04-29T11:23:39.115Z</time></trkpt><trkpt lat="40.505154364395004" lon="8.46877251076515"><ele>584.0</ele><time>2026-04-29T11:23:41.115Z</time></trkpt><trkpt lat="40.505225217294246" lon="8.468758502211852"><ele>584.0</ele><time>2026-04-29T11:23:42.115Z</time></trkpt><trkpt lat="40.50529509546061" lon="8.468710916300791"><ele>584.0</ele><time>2026-04-29T11:23:43.115Z</time></trkpt><trkpt lat="40.50535164411178" lon="8.468635797116521"><ele>584.0</ele><time>2026-04-29T11:23:44.115Z</time></trkpt><trkpt lat="40.505390037447405" lon="8.468539068585718"><ele>584.0</ele><time>2026-04-29T11:23:45.116Z</time></trkpt><trkpt lat="40.505427897326285" lon="8.468438284449261"><ele>581.1666666666666</ele><time>2026-04-29T11:23:46.116Z</time></trkpt><trkpt lat="40.505473199169664" lon="8.468342409880828"><ele>578.3333333333333</ele><time>2026-04-29T11:23:47.116Z</time></trkpt><trkpt lat="40.50552354080772" lon="8.468257491437601"><ele>575.5</ele><time>2026-04-29T11:23:48.117Z</time></trkpt><trkpt lat="40.50557796310647" lon="8.468185704083288"><ele>572.6666666666666</ele><time>2026-04-29T11:23:49.116Z</time></trkpt><trkpt lat="40.505647390753175" lon="8.468141410999495"><ele>569.8333333333334</ele><time>2026-04-29T11:23:50.116Z</time></trkpt><trkpt lat="40.50573054245881" lon="8.468140230289126"><ele>567.0</ele><time>2026-04-29T11:23:51.117Z</time></trkpt><trkpt lat="40.505806359724055" lon="8.468175463974417"><ele>567.0</ele><time>2026-04-29T11:23:52.115Z</time></trkpt><trkpt lat="40.50587150792504" lon="8.468243397546626"><ele>567.0</ele><time>2026-04-29T11:23:53.115Z</time></trkpt><trkpt lat="40.50591192270941" lon="8.468341181780488"><ele>567.0</ele><time>2026-04-29T11:23:54.116Z</time></trkpt><trkpt lat="40.505923431739454" lon="8.468449615275475"><ele>567.0</ele><time>2026-04-29T11:23:55.116Z</time></trkpt><trkpt lat="40.50589741949027" lon="8.468556893084765"><ele>567.0</ele><time>2026-04-29T11:23:56.116Z</time></trkpt><trkpt lat="40.5058507898663" lon="8.468656470376118"><ele>567.0</ele><time>2026-04-29T11:23:57.116Z</time></trkpt><trkpt lat="40.5058013117506" lon="8.468753528826594"><ele>564.3333333333334</ele><time>2026-04-29T11:23:58.116Z</time></trkpt><trkpt lat="40.50575508897096" lon="8.468852553943954"><ele>561.6666666666666</ele><time>2026-04-29T11:23:59.116Z</time></trkpt><trkpt lat="40.50571182422597" lon="8.468951895240682"><ele>559.0</ele><time>2026-04-29T11:24:00.116Z</time></trkpt><trkpt lat="40.50567418984441" lon="8.469051076052459"><ele>556.3333333333333</ele><time>2026-04-29T11:24:01.116Z</time></trkpt><trkpt lat="40.50564429683184" lon="8.4691400929621"><ele>553.6666666666666</ele><time>2026-04-29T11:24:02.116Z</time></trkpt><trkpt lat="40.50560007981783" lon="8.4692677655627"><ele>551.0</ele><time>2026-04-29T11:24:04.116Z</time></trkpt><trkpt lat="40.50556170174346" lon="8.469336803688625"><ele>551.0</ele><time>2026-04-29T11:24:06.116Z</time></trkpt><trkpt lat="40.50566379000474" lon="8.469408787577743"><ele>551.0</ele><time>2026-04-29T11:33:57.118Z</time></trkpt><trkpt lat="40.505696851248814" lon="8.469264487239899"><ele>551.0</ele><time>2026-04-29T11:33:59.118Z</time></trkpt><trkpt lat="40.50570991138417" lon="8.469180576337374"><ele>551.0</ele><time>2026-04-29T11:34:00.118Z</time></trkpt><trkpt lat="40.50574930176758" lon="8.4690326780714"><ele>551.0</ele><time>2026-04-29T11:34:02.118Z</time></trkpt><trkpt lat="40.505808219676204" lon="8.468890641993557"><ele>554.2</ele><time>2026-04-29T11:34:04.118Z</time></trkpt><trkpt lat="40.505876634783455" lon="8.46877566666798"><ele>557.4000000000001</ele><time>2026-04-29T11:34:06.118Z</time></trkpt><trkpt lat="40.50593632480922" lon="8.468661931806206"><ele>560.6</ele><time>2026-04-29T11:34:08.118Z</time></trkpt><trkpt lat="40.505968191187506" lon="8.468526735159502"><ele>563.8000000000001</ele><time>2026-04-29T11:34:10.118Z</time></trkpt><trkpt lat="40.505970728102184" lon="8.468440378092769"><ele>567.0</ele><time>2026-04-29T11:34:11.118Z</time></trkpt><trkpt lat="40.50596387052252" lon="8.468346174344418"><ele>567.0</ele><time>2026-04-29T11:34:12.118Z</time></trkpt><trkpt lat="40.505937198705546" lon="8.46824858358788"><ele>567.0</ele><time>2026-04-29T11:34:13.118Z</time></trkpt><trkpt lat="40.505883019514044" lon="8.468168635838328"><ele>567.0</ele><time>2026-04-29T11:34:14.118Z</time></trkpt><trkpt lat="40.50578273387987" lon="8.468122785678831"><ele>567.0</ele><time>2026-04-29T11:34:15.119Z</time></trkpt><trkpt lat="40.505700683964804" lon="8.46810691410092"><ele>567.0</ele><time>2026-04-29T11:34:16.119Z</time></trkpt><trkpt lat="40.505610186459805" lon="8.468142390767"><ele>567.0</ele><time>2026-04-29T11:34:17.119Z</time></trkpt><trkpt lat="40.505533567240825" lon="8.468218810303187"><ele>567.0</ele><time>2026-04-29T11:34:18.12Z</time></trkpt><trkpt lat="40.50547962212832" lon="8.468327351553105"><ele>567.0</ele><time>2026-04-29T11:34:19.12Z</time></trkpt><trkpt lat="40.505437677944386" lon="8.468442746834159"><ele>567.0</ele><time>2026-04-29T11:34:20.12Z</time></trkpt><trkpt lat="40.50538823641914" lon="8.468564278374236"><ele>567.0</ele><time>2026-04-29T11:34:21.119Z</time></trkpt><trkpt lat="40.5053294214174" lon="8.468660167673237"><ele>567.0</ele><time>2026-04-29T11:34:22.12Z</time></trkpt><trkpt lat="40.50525235989722" lon="8.468736224550604"><ele>570.4</ele><time>2026-04-29T11:34:23.12Z</time></trkpt><trkpt lat="40.50516431440422" lon="8.468763878575267"><ele>573.8000000000001</ele><time>2026-04-29T11:34:24.12Z</time></trkpt><trkpt lat="40.50507315579693" lon="8.468763251819315"><ele>577.2</ele><time>2026-04-29T11:34:25.119Z</time></trkpt><trkpt lat="40.50500308482879" lon="8.468729336963463"><ele>580.6</ele><time>2026-04-29T11:34:26.119Z</time></trkpt><trkpt lat="40.504946095362264" lon="8.468646453016177"><ele>584.0</ele><time>2026-04-29T11:34:29.119Z</time></trkpt><trkpt lat="40.50501290173118" lon="8.4684890100178"><ele>584.0</ele><time>2026-04-29T11:34:31.119Z</time></trkpt><trkpt lat="40.505050863431684" lon="8.468411472563195"><ele>584.0</ele><time>2026-04-29T11:34:32.119Z</time></trkpt><trkpt lat="40.50508202130014" lon="8.468328019426517"><ele>584.0</ele><time>2026-04-29T11:34:33.119Z</time></trkpt><trkpt lat="40.505114097048754" lon="8.468243402266294"><ele>584.0</ele><time>2026-04-29T11:34:34.119Z</time></trkpt><trkpt lat="40.50515414283422" lon="8.468143870230724"><ele>584.0</ele><time>2026-04-29T11:34:36.119Z</time></trkpt><trkpt lat="40.50518167353321" lon="8.468039919111709"><ele>584.0</ele><time>2026-04-29T11:34:39.119Z</time></trkpt><trkpt lat="40.50522111756677" lon="8.467950754744807"><ele>584.0</ele><time>2026-04-29T11:34:41.119Z</time></trkpt><trkpt lat="40.50515754929438" lon="8.467869689059448"><ele>584.0</ele><time>2026-04-29T11:37:13.12Z</time></trkpt><trkpt lat="40.50516718814099" lon="8.467772348184909"><ele>584.0</ele><time>2026-04-29T11:37:20.12Z</time></trkpt><trkpt lat="40.505134274732384" lon="8.46789668932179"><ele>584.0</ele><time>2026-04-29T11:37:25.12Z</time></trkpt><trkpt lat="40.50508527543815" lon="8.468045993767262"><ele>584.0</ele><time>2026-04-29T11:37:27.12Z</time></trkpt><trkpt lat="40.505054787041516" lon="8.46811952636375"><ele>584.0</ele><time>2026-04-29T11:37:28.12Z</time></trkpt><trkpt lat="40.50500873230551" lon="8.468268037606164"><ele>584.0</ele><time>2026-04-29T11:37:30.12Z</time></trkpt><trkpt lat="40.504946028334125" lon="8.468391370576116"><ele>584.0</ele><time>2026-04-29T11:37:32.12Z</time></trkpt><trkpt lat="40.50484815777968" lon="8.468372281686035"><ele>584.0</ele><time>2026-04-29T11:37:34.12Z</time></trkpt><trkpt lat="40.504785247707716" lon="8.46837792783977"><ele>584.0</ele><time>2026-04-29T11:37:35.12Z</time></trkpt><trkpt lat="40.50471567595867" lon="8.468432856325624"><ele>584.0</ele><time>2026-04-29T11:37:36.12Z</time></trkpt><trkpt lat="40.50466621899012" lon="8.468512008327476"><ele>584.0</ele><time>2026-04-29T11:37:37.12Z</time></trkpt><trkpt lat="40.50462344165599" lon="8.468605361807619"><ele>584.0</ele><time>2026-04-29T11:37:38.12Z</time></trkpt><trkpt lat="40.50456192967266" lon="8.4686937833954"><ele>584.0</ele><time>2026-04-29T11:37:39.12Z</time></trkpt><trkpt lat="40.50448214378483" lon="8.468767945742423"><ele>584.0</ele><time>2026-04-29T11:37:40.12Z</time></trkpt><trkpt lat="40.50439187687531" lon="8.468831127823128"><ele>584.6</ele><time>2026-04-29T11:37:41.12Z</time></trkpt><trkpt lat="40.50429764829365" lon="8.468877108869629"><ele>585.2</ele><time>2026-04-29T11:37:42.12Z</time></trkpt><trkpt lat="40.50419618522031" lon="8.468916214208063"><ele>585.8000000000001</ele><time>2026-04-29T11:37:43.12Z</time></trkpt><trkpt lat="40.50409575784956" lon="8.468956760085328"><ele>586.4</ele><time>2026-04-29T11:37:44.12Z</time></trkpt><trkpt lat="40.50400262122844" lon="8.468989727429609"><ele>587.0</ele><time>2026-04-29T11:37:45.12Z</time></trkpt><trkpt lat="40.503917953228274" lon="8.469002261010342"><ele>587.0</ele><time>2026-04-29T11:37:46.12Z</time></trkpt><trkpt lat="40.50383646455582" lon="8.46898483508815"><ele>587.0</ele><time>2026-04-29T11:37:47.12Z</time></trkpt><trkpt lat="40.503750889549785" lon="8.468930135062916"><ele>587.0</ele><time>2026-04-29T11:37:48.12Z</time></trkpt><trkpt lat="40.50367845818209" lon="8.468841582815779"><ele>587.0</ele><time>2026-04-29T11:37:49.12Z</time></trkpt><trkpt lat="40.50359864083421" lon="8.468748827734851"><ele>587.0</ele><time>2026-04-29T11:37:50.12Z</time></trkpt><trkpt lat="40.503504582120144" lon="8.468663173611715"><ele>591.0</ele><time>2026-04-29T11:37:51.12Z</time></trkpt><trkpt lat="40.50339168707735" lon="8.46860645712746"><ele>595.0</ele><time>2026-04-29T11:37:52.12Z</time></trkpt><trkpt lat="40.50328445036376" lon="8.468570181618999"><ele>599.0</ele><time>2026-04-29T11:37:53.12Z</time></trkpt><trkpt lat="40.503185037775026" lon="8.46856876653307"><ele>603.0</ele><time>2026-04-29T11:37:54.12Z</time></trkpt><trkpt lat="40.50307663903133" lon="8.46858612268219"><ele>607.0</ele><time>2026-04-29T11:37:55.12Z</time></trkpt><trkpt lat="40.50295525692777" lon="8.468602704008356"><ele>607.75</ele><time>2026-04-29T11:37:56.12Z</time></trkpt><trkpt lat="40.50282206464895" lon="8.468619929534094"><ele>608.5</ele><time>2026-04-29T11:37:57.12Z</time></trkpt><trkpt lat="40.50267863228901" lon="8.468636617960243"><ele>609.25</ele><time>2026-04-29T11:37:58.12Z</time></trkpt><trkpt lat="40.502519540590455" lon="8.468664399531784"><ele>610.0</ele><time>2026-04-29T11:37:59.12Z</time></trkpt><trkpt lat="40.50235552862999" lon="8.468695695567762"><ele>610.0</ele><time>2026-04-29T11:38:00.12Z</time></trkpt><trkpt lat="40.502192641148575" lon="8.468722046718959"><ele>610.0</ele><time>2026-04-29T11:38:01.12Z</time></trkpt><trkpt lat="40.50202623053708" lon="8.468749742746873"><ele>610.0</ele><time>2026-04-29T11:38:02.12Z</time></trkpt><trkpt lat="40.50185266871648" lon="8.468783077527984"><ele>608.0</ele><time>2026-04-29T11:38:03.12Z</time></trkpt><trkpt lat="40.501679589781794" lon="8.468832288010296"><ele>606.0</ele><time>2026-04-29T11:38:04.12Z</time></trkpt><trkpt lat="40.50151612078258" lon="8.468916436646486"><ele>604.0</ele><time>2026-04-29T11:38:05.12Z</time></trkpt><trkpt lat="40.501360590439205" lon="8.469033706522485"><ele>609.6666666666667</ele><time>2026-04-29T11:38:06.12Z</time></trkpt><trkpt lat="40.50122165266277" lon="8.469193015943441"><ele>615.3333333333334</ele><time>2026-04-29T11:38:07.12Z</time></trkpt><trkpt lat="40.501100852249884" lon="8.469373822009414"><ele>621.0</ele><time>2026-04-29T11:38:08.12Z</time></trkpt><trkpt lat="40.50098118115043" lon="8.469562268073881"><ele>617.0</ele><time>2026-04-29T11:38:09.12Z</time></trkpt><trkpt lat="40.50086316017562" lon="8.469752484234254"><ele>613.0</ele><time>2026-04-29T11:38:10.12Z</time></trkpt><trkpt lat="40.50073757582755" lon="8.469948248189413"><ele>609.0</ele><time>2026-04-29T11:38:11.12Z</time></trkpt><trkpt lat="40.50061556151175" lon="8.470154358410971"><ele>609.0</ele><time>2026-04-29T11:38:12.12Z</time></trkpt><trkpt lat="40.500499327747036" lon="8.470376627004331"><ele>609.0</ele><time>2026-04-29T11:38:13.12Z</time></trkpt><trkpt lat="40.50038140895778" lon="8.47059713237561"><ele>609.0</ele><time>2026-04-29T11:38:14.12Z</time></trkpt><trkpt lat="40.50025666409817" lon="8.470809958785178"><ele>610.6666666666666</ele><time>2026-04-29T11:38:15.12Z</time></trkpt><trkpt lat="40.50014198569009" lon="8.471018534815492"><ele>612.3333333333333</ele><time>2026-04-29T11:38:16.12Z</time></trkpt><trkpt lat="40.50004276164505" lon="8.471242787229507"><ele>614.0</ele><time>2026-04-29T11:38:17.12Z</time></trkpt><trkpt lat="40.49996578452222" lon="8.471484905550877"><ele>610.3333333333333</ele><time>2026-04-29T11:38:18.12Z</time></trkpt><trkpt lat="40.499896442802566" lon="8.471740104414726"><ele>606.6666666666666</ele><time>2026-04-29T11:38:19.12Z</time></trkpt><trkpt lat="40.4998355989544" lon="8.472000342470118"><ele>603.0</ele><time>2026-04-29T11:38:20.12Z</time></trkpt><trkpt lat="40.49977962309237" lon="8.472259187879397"><ele>599.6666666666666</ele><time>2026-04-29T11:38:21.12Z</time></trkpt><trkpt lat="40.499722269375404" lon="8.472519203531087"><ele>596.3333333333333</ele><time>2026-04-29T11:38:22.12Z</time></trkpt><trkpt lat="40.49966042747367" lon="8.472774436492958"><ele>593.0</ele><time>2026-04-29T11:38:23.12Z</time></trkpt><trkpt lat="40.49960615297828" lon="8.473029191502684"><ele>597.6666666666666</ele><time>2026-04-29T11:38:24.12Z</time></trkpt><trkpt lat="40.49954779757514" lon="8.473263854344003"><ele>602.3333333333334</ele><time>2026-04-29T11:38:25.12Z</time></trkpt><trkpt lat="40.49945756707134" lon="8.473475456705026"><ele>607.0</ele><time>2026-04-29T11:38:26.12Z</time></trkpt><trkpt lat="40.499342916324046" lon="8.47366901549368"><ele>603.0</ele><time>2026-04-29T11:38:27.12Z</time></trkpt><trkpt lat="40.499214044637334" lon="8.473845658794547"><ele>599.0</ele><time>2026-04-29T11:38:28.119Z</time></trkpt><trkpt lat="40.499085761441606" lon="8.474006999747486"><ele>595.0</ele><time>2026-04-29T11:38:29.119Z</time></trkpt><trkpt lat="40.4989770825878" lon="8.474152682038788"><ele>595.0</ele><time>2026-04-29T11:38:30.12Z</time></trkpt><trkpt lat="40.498877739439216" lon="8.474257243293454"><ele>595.0</ele><time>2026-04-29T11:38:31.12Z</time></trkpt><trkpt lat="40.49876686740376" lon="8.474309766325248"><ele>595.0</ele><time>2026-04-29T11:38:32.12Z</time></trkpt><trkpt lat="40.498644817973485" lon="8.474324766884648"><ele>595.0</ele><time>2026-04-29T11:38:33.119Z</time></trkpt><trkpt lat="40.49850754540155" lon="8.474304689300979"><ele>596.0</ele><time>2026-04-29T11:38:34.119Z</time></trkpt><trkpt lat="40.49836106480419" lon="8.474252470494358"><ele>597.0</ele><time>2026-04-29T11:38:35.119Z</time></trkpt><trkpt lat="40.498205378855026" lon="8.474186813225849"><ele>598.0</ele><time>2026-04-29T11:38:36.12Z</time></trkpt><trkpt lat="40.49804525319976" lon="8.474129677901983"><ele>596.6666666666667</ele><time>2026-04-29T11:38:37.12Z</time></trkpt><trkpt lat="40.49787292891814" lon="8.47407395771003"><ele>595.3333333333334</ele><time>2026-04-29T11:38:38.12Z</time></trkpt><trkpt lat="40.49768794237355" lon="8.474018882242959"><ele>594.0</ele><time>2026-04-29T11:38:39.12Z</time></trkpt><trkpt lat="40.4975015975842" lon="8.473970971798337"><ele>594.0</ele><time>2026-04-29T11:38:40.12Z</time></trkpt><trkpt lat="40.497313652928085" lon="8.473921003039829"><ele>594.0</ele><time>2026-04-29T11:38:41.12Z</time></trkpt><trkpt lat="40.497138826923155" lon="8.473870591592723"><ele>594.0</ele><time>2026-04-29T11:38:42.12Z</time></trkpt><trkpt lat="40.49695940057956" lon="8.473821758091638"><ele>596.0</ele><time>2026-04-29T11:38:43.12Z</time></trkpt><trkpt lat="40.496771110639855" lon="8.473768888063205"><ele>598.0</ele><time>2026-04-29T11:38:44.12Z</time></trkpt><trkpt lat="40.496577039671216" lon="8.473721642733343"><ele>600.0</ele><time>2026-04-29T11:38:45.12Z</time></trkpt><trkpt lat="40.496196831671995" lon="8.473618356524916"><ele>600.0</ele><time>2026-04-29T11:38:47.12Z</time></trkpt><trkpt lat="40.4960313774454" lon="8.473541857029415"><ele>600.0</ele><time>2026-04-29T11:38:48.12Z</time></trkpt><trkpt lat="40.49589669426803" lon="8.473415865841122"><ele>600.0</ele><time>2026-04-29T11:38:49.12Z</time></trkpt><trkpt lat="40.49577555454739" lon="8.47325754248785"><ele>600.0</ele><time>2026-04-29T11:38:50.12Z</time></trkpt><trkpt lat="40.49565685034288" lon="8.473073662420592"><ele>600.0</ele><time>2026-04-29T11:38:51.12Z</time></trkpt><trkpt lat="40.495534478142986" lon="8.47287250026656"><ele>600.0</ele><time>2026-04-29T11:38:52.12Z</time></trkpt><trkpt lat="40.4953972195761" lon="8.47266365319212"><ele>597.6666666666666</ele><time>2026-04-29T11:38:53.12Z</time></trkpt><trkpt lat="40.49526586181154" lon="8.472449750505909"><ele>595.3333333333333</ele><time>2026-04-29T11:38:54.12Z</time></trkpt><trkpt lat="40.495145955609814" lon="8.472240697469774"><ele>593.0</ele><time>2026-04-29T11:38:55.12Z</time></trkpt><trkpt lat="40.49501717835151" lon="8.47202198855881"><ele>593.0</ele><time>2026-04-29T11:38:56.12Z</time></trkpt><trkpt lat="40.49488336536535" lon="8.471798663759506"><ele>593.0</ele><time>2026-04-29T11:38:57.12Z</time></trkpt><trkpt lat="40.4947446627157" lon="8.471575278022437"><ele>593.0</ele><time>2026-04-29T11:38:58.12Z</time></trkpt><trkpt lat="40.4946077289338" lon="8.471344985930717"><ele>592.6666666666666</ele><time>2026-04-29T11:38:59.12Z</time></trkpt><trkpt lat="40.49446165685739" lon="8.47112177740079"><ele>592.3333333333334</ele><time>2026-04-29T11:39:00.12Z</time></trkpt><trkpt lat="40.49430184288529" lon="8.470917968381"><ele>592.0</ele><time>2026-04-29T11:39:01.12Z</time></trkpt><trkpt lat="40.494135889703784" lon="8.470720512682853"><ele>592.0</ele><time>2026-04-29T11:39:02.12Z</time></trkpt><trkpt lat="40.493965548504825" lon="8.47053272065522"><ele>592.0</ele><time>2026-04-29T11:39:03.12Z</time></trkpt><trkpt lat="40.493797559753204" lon="8.47034730927117"><ele>592.0</ele><time>2026-04-29T11:39:04.12Z</time></trkpt><trkpt lat="40.49363575470229" lon="8.470154132161145"><ele>592.3333333333334</ele><time>2026-04-29T11:39:05.12Z</time></trkpt><trkpt lat="40.493476617270666" lon="8.469962751675713"><ele>592.6666666666666</ele><time>2026-04-29T11:39:06.12Z</time></trkpt><trkpt lat="40.493315481143036" lon="8.469772842402014"><ele>593.0</ele><time>2026-04-29T11:39:07.12Z</time></trkpt><trkpt lat="40.493154290423966" lon="8.469585606501767"><ele>593.3333333333333</ele><time>2026-04-29T11:39:08.12Z</time></trkpt><trkpt lat="40.4929817640123" lon="8.469419690932568"><ele>593.6666666666666</ele><time>2026-04-29T11:39:09.12Z</time></trkpt><trkpt lat="40.492792594579356" lon="8.469290650592617"><ele>594.0</ele><time>2026-04-29T11:39:10.12Z</time></trkpt><trkpt lat="40.49259226408487" lon="8.469192327857385"><ele>594.0</ele><time>2026-04-29T11:39:11.12Z</time></trkpt><trkpt lat="40.49238156154713" lon="8.469118947692541"><ele>594.0</ele><time>2026-04-29T11:39:12.12Z</time></trkpt><trkpt lat="40.49216748567936" lon="8.469046304729329"><ele>594.0</ele><time>2026-04-29T11:39:13.12Z</time></trkpt><trkpt lat="40.49195314700516" lon="8.468957544146052"><ele>590.0</ele><time>2026-04-29T11:39:14.12Z</time></trkpt><trkpt lat="40.49173286775452" lon="8.468861851242037"><ele>586.0</ele><time>2026-04-29T11:39:15.12Z</time></trkpt><trkpt lat="40.491509132980056" lon="8.468779384862774"><ele>588.0</ele><time>2026-04-29T11:39:16.12Z</time></trkpt><trkpt lat="40.491287581024025" lon="8.468695915979241"><ele>590.0</ele><time>2026-04-29T11:39:17.12Z</time></trkpt><trkpt lat="40.49106656662951" lon="8.468608511826421"><ele>590.0</ele><time>2026-04-29T11:39:18.12Z</time></trkpt><trkpt lat="40.49084343974419" lon="8.468526181214134"><ele>590.0</ele><time>2026-04-29T11:39:19.12Z</time></trkpt><trkpt lat="40.49062233231813" lon="8.468453886562594"><ele>586.0</ele><time>2026-04-29T11:39:20.12Z</time></trkpt><trkpt lat="40.490397670596636" lon="8.468401276499089"><ele>582.0</ele><time>2026-04-29T11:39:21.12Z</time></trkpt><trkpt lat="40.49017184491498" lon="8.468366501526383"><ele>582.0</ele><time>2026-04-29T11:39:22.12Z</time></trkpt><trkpt lat="40.48993774508316" lon="8.468345670249438"><ele>582.0</ele><time>2026-04-29T11:39:23.12Z</time></trkpt><trkpt lat="40.48971099392922" lon="8.468322725746944"><ele>579.3333333333334</ele><time>2026-04-29T11:39:24.12Z</time></trkpt><trkpt lat="40.48948752692343" lon="8.468302821148592"><ele>576.6666666666667</ele><time>2026-04-29T11:39:25.12Z</time></trkpt><trkpt lat="40.48927351619304" lon="8.468271531063415"><ele>574.0</ele><time>2026-04-29T11:39:26.12Z</time></trkpt><trkpt lat="40.48908843978507" lon="8.468205958387204"><ele>574.0</ele><time>2026-04-29T11:39:27.12Z</time></trkpt><trkpt lat="40.48894177983665" lon="8.468077430539847"><ele>574.0</ele><time>2026-04-29T11:39:28.12Z</time></trkpt><trkpt lat="40.48882725271074" lon="8.467895858844647"><ele>574.0</ele><time>2026-04-29T11:39:29.12Z</time></trkpt><trkpt lat="40.488712658472046" lon="8.467704681915976"><ele>574.0</ele><time>2026-04-29T11:39:30.12Z</time></trkpt><trkpt lat="40.48859554862663" lon="8.46751562927777"><ele>574.0</ele><time>2026-04-29T11:39:31.12Z</time></trkpt><trkpt lat="40.4884647767909" lon="8.467318455771151"><ele>574.0</ele><time>2026-04-29T11:39:32.12Z</time></trkpt><trkpt lat="40.48833013650231" lon="8.46711817807853"><ele>575.6666666666667</ele><time>2026-04-29T11:39:33.12Z</time></trkpt><trkpt lat="40.48819610890025" lon="8.466907949908341"><ele>577.3333333333334</ele><time>2026-04-29T11:39:34.12Z</time></trkpt><trkpt lat="40.48804453212676" lon="8.466715457220088"><ele>579.0</ele><time>2026-04-29T11:39:35.12Z</time></trkpt><trkpt lat="40.48787222561623" lon="8.466571602582162"><ele>579.0</ele><time>2026-04-29T11:39:36.12Z</time></trkpt><trkpt lat="40.48768574472333" lon="8.466478178421792"><ele>579.0</ele><time>2026-04-29T11:39:37.12Z</time></trkpt><trkpt lat="40.487487267014565" lon="8.466419131857503"><ele>579.0</ele><time>2026-04-29T11:39:38.12Z</time></trkpt><trkpt lat="40.48728237166496" lon="8.466369101432386"><ele>578.3333333333334</ele><time>2026-04-29T11:39:39.12Z</time></trkpt><trkpt lat="40.487077752140735" lon="8.466315928109015"><ele>577.6666666666667</ele><time>2026-04-29T11:39:40.12Z</time></trkpt><trkpt lat="40.48687773835968" lon="8.466254001939467"><ele>577.0</ele><time>2026-04-29T11:39:41.12Z</time></trkpt><trkpt lat="40.486695242169965" lon="8.466166871583154"><ele>579.3333333333334</ele><time>2026-04-29T11:39:42.12Z</time></trkpt><trkpt lat="40.48654809635942" lon="8.466039430245193"><ele>581.6666666666666</ele><time>2026-04-29T11:39:43.12Z</time></trkpt><trkpt lat="40.48643898399357" lon="8.465862527622441"><ele>584.0</ele><time>2026-04-29T11:39:44.12Z</time></trkpt><trkpt lat="40.48635976079426" lon="8.465643681534415"><ele>583.6666666666666</ele><time>2026-04-29T11:39:45.12Z</time></trkpt><trkpt lat="40.48628875254033" lon="8.465406492650413"><ele>583.3333333333334</ele><time>2026-04-29T11:39:46.12Z</time></trkpt><trkpt lat="40.48620377717527" lon="8.465162392232774"><ele>583.0</ele><time>2026-04-29T11:39:47.12Z</time></trkpt><trkpt lat="40.48608926985544" lon="8.464938815982777"><ele>583.0</ele><time>2026-04-29T11:39:48.12Z</time></trkpt><trkpt lat="40.4859538270114" lon="8.464737152647514"><ele>583.0</ele><time>2026-04-29T11:39:49.12Z</time></trkpt><trkpt lat="40.485801269852644" lon="8.464562132575207"><ele>583.0</ele><time>2026-04-29T11:39:50.12Z</time></trkpt><trkpt lat="40.48562429700282" lon="8.464414675741311"><ele>585.6666666666667</ele><time>2026-04-29T11:39:51.12Z</time></trkpt><trkpt lat="40.485434649897954" lon="8.464286198448995"><ele>588.3333333333334</ele><time>2026-04-29T11:39:52.12Z</time></trkpt><trkpt lat="40.4852424288703" lon="8.464156831261615"><ele>591.0</ele><time>2026-04-29T11:39:53.12Z</time></trkpt><trkpt lat="40.48506942102077" lon="8.464027089548548"><ele>591.0</ele><time>2026-04-29T11:39:54.12Z</time></trkpt><trkpt lat="40.4849318312125" lon="8.463875887965767"><ele>591.0</ele><time>2026-04-29T11:39:55.12Z</time></trkpt><trkpt lat="40.4848045939699" lon="8.463686417713793"><ele>591.0</ele><time>2026-04-29T11:39:56.12Z</time></trkpt><trkpt lat="40.484674490819785" lon="8.46348417002651"><ele>591.0</ele><time>2026-04-29T11:39:57.12Z</time></trkpt><trkpt lat="40.48455374653469" lon="8.463272364780003"><ele>591.0</ele><time>2026-04-29T11:39:58.12Z</time></trkpt><trkpt lat="40.48442421825037" lon="8.46306595159453"><ele>591.0</ele><time>2026-04-29T11:39:59.12Z</time></trkpt><trkpt lat="40.48429742734246" lon="8.462836554460111"><ele>594.0</ele><time>2026-04-29T11:40:00.12Z</time></trkpt><trkpt lat="40.48416033099622" lon="8.462623829643972"><ele>597.0</ele><time>2026-04-29T11:40:01.12Z</time></trkpt><trkpt lat="40.484041466741026" lon="8.462403840731874"><ele>600.0</ele><time>2026-04-29T11:40:02.12Z</time></trkpt><trkpt lat="40.48393875018664" lon="8.462165268244322"><ele>601.3333333333334</ele><time>2026-04-29T11:40:03.12Z</time></trkpt><trkpt lat="40.48386606873558" lon="8.461934467802866"><ele>602.6666666666667</ele><time>2026-04-29T11:40:04.12Z</time></trkpt><trkpt lat="40.48384155836871" lon="8.461658558895367"><ele>604.0</ele><time>2026-04-29T11:40:05.12Z</time></trkpt><trkpt lat="40.48387119141491" lon="8.461309996443983"><ele>604.0</ele><time>2026-04-29T11:40:06.12Z</time></trkpt><trkpt lat="40.48389211907461" lon="8.461012983217868"><ele>604.0</ele><time>2026-04-29T11:40:07.12Z</time></trkpt><trkpt lat="40.483927998073675" lon="8.460741282323024"><ele>604.0</ele><time>2026-04-29T11:40:08.12Z</time></trkpt><trkpt lat="40.484001175015116" lon="8.46048151081066"><ele>601.3333333333334</ele><time>2026-04-29T11:40:09.12Z</time></trkpt><trkpt lat="40.484095917673045" lon="8.46023201844811"><ele>598.6666666666666</ele><time>2026-04-29T11:40:10.12Z</time></trkpt><trkpt lat="40.48417823169475" lon="8.459976076614407"><ele>596.0</ele><time>2026-04-29T11:40:11.12Z</time></trkpt><trkpt lat="40.484235766095544" lon="8.459708864145536"><ele>595.3333333333333</ele><time>2026-04-29T11:40:12.12Z</time></trkpt><trkpt lat="40.484257774939536" lon="8.459429353191467"><ele>594.6666666666666</ele><time>2026-04-29T11:40:13.12Z</time></trkpt><trkpt lat="40.48426169767196" lon="8.45913962338139"><ele>594.0</ele><time>2026-04-29T11:40:14.12Z</time></trkpt><trkpt lat="40.48425543700962" lon="8.458849065901102"><ele>595.0</ele><time>2026-04-29T11:40:15.12Z</time></trkpt><trkpt lat="40.484221417966964" lon="8.458563296036582"><ele>596.0</ele><time>2026-04-29T11:40:16.12Z</time></trkpt><trkpt lat="40.484151345809984" lon="8.458290381398978"><ele>597.0</ele><time>2026-04-29T11:40:17.12Z</time></trkpt><trkpt lat="40.48407214723578" lon="8.458026689773574"><ele>599.3333333333334</ele><time>2026-04-29T11:40:18.12Z</time></trkpt><trkpt lat="40.48399577544895" lon="8.457760200277834"><ele>601.6666666666667</ele><time>2026-04-29T11:40:19.12Z</time></trkpt><trkpt lat="40.483914804208936" lon="8.457496367352409"><ele>604.0</ele><time>2026-04-29T11:40:20.12Z</time></trkpt><trkpt lat="40.48383055581603" lon="8.457232601436477"><ele>604.3333333333334</ele><time>2026-04-29T11:40:21.12Z</time></trkpt><trkpt lat="40.48373683060319" lon="8.456970355096258"><ele>604.6666666666666</ele><time>2026-04-29T11:40:22.12Z</time></trkpt><trkpt lat="40.48362650469133" lon="8.456716821775688"><ele>605.0</ele><time>2026-04-29T11:40:23.12Z</time></trkpt><trkpt lat="40.48350857153358" lon="8.45647297242358"><ele>606.0</ele><time>2026-04-29T11:40:24.12Z</time></trkpt><trkpt lat="40.48338845539855" lon="8.456222841400939"><ele>607.0</ele><time>2026-04-29T11:40:25.12Z</time></trkpt><trkpt lat="40.483258903403105" lon="8.455970884409906"><ele>607.0</ele><time>2026-04-29T11:40:26.12Z</time></trkpt><trkpt lat="40.48312884440977" lon="8.455709519126472"><ele>607.0</ele><time>2026-04-29T11:40:27.12Z</time></trkpt><trkpt lat="40.483000605379225" lon="8.455456197321695"><ele>604.0</ele><time>2026-04-29T11:40:28.12Z</time></trkpt><trkpt lat="40.4828797427993" lon="8.455219985091924"><ele>601.0</ele><time>2026-04-29T11:40:29.12Z</time></trkpt><trkpt lat="40.4827629523033" lon="8.454998577126156"><ele>598.0</ele><time>2026-04-29T11:40:30.12Z</time></trkpt><trkpt lat="40.48262689409709" lon="8.454807658347654"><ele>598.0</ele><time>2026-04-29T11:40:31.12Z</time></trkpt><trkpt lat="40.48245683756458" lon="8.454650031493793"><ele>598.0</ele><time>2026-04-29T11:40:32.12Z</time></trkpt><trkpt lat="40.48226265477273" lon="8.454524884197044"><ele>598.0</ele><time>2026-04-29T11:40:33.12Z</time></trkpt><trkpt lat="40.482053791898736" lon="8.454434478870073"><ele>600.6666666666667</ele><time>2026-04-29T11:40:34.12Z</time></trkpt><trkpt lat="40.48183730250864" lon="8.454394325502792"><ele>603.3333333333334</ele><time>2026-04-29T11:40:35.12Z</time></trkpt><trkpt lat="40.48162006606742" lon="8.454400953238643"><ele>606.0</ele><time>2026-04-29T11:40:36.119Z</time></trkpt><trkpt lat="40.481401094941056" lon="8.454447268989435"><ele>608.5</ele><time>2026-04-29T11:40:37.12Z</time></trkpt><trkpt lat="40.48118549381716" lon="8.454537255437382"><ele>611.0</ele><time>2026-04-29T11:40:38.12Z</time></trkpt><trkpt lat="40.48097785316385" lon="8.454648026385458"><ele>606.6666666666666</ele><time>2026-04-29T11:40:39.12Z</time></trkpt><trkpt lat="40.48078712719365" lon="8.454773163409934"><ele>602.3333333333334</ele><time>2026-04-29T11:40:40.119Z</time></trkpt><trkpt lat="40.48062171246282" lon="8.454910834150299"><ele>598.0</ele><time>2026-04-29T11:40:41.119Z</time></trkpt><trkpt lat="40.48048675473539" lon="8.455098895188863"><ele>599.0</ele><time>2026-04-29T11:40:42.12Z</time></trkpt><trkpt lat="40.48036892850267" lon="8.45533241202309"><ele>600.0</ele><time>2026-04-29T11:40:43.12Z</time></trkpt><trkpt lat="40.48025046728758" lon="8.455566546904503"><ele>601.0</ele><time>2026-04-29T11:40:44.12Z</time></trkpt><trkpt lat="40.480119456899835" lon="8.455770945851992"><ele>601.0</ele><time>2026-04-29T11:40:45.12Z</time></trkpt><trkpt lat="40.47997377478221" lon="8.455928989449745"><ele>601.0</ele><time>2026-04-29T11:40:46.119Z</time></trkpt><trkpt lat="40.47980564177836" lon="8.45602533243157"><ele>601.0</ele><time>2026-04-29T11:40:47.119Z</time></trkpt><trkpt lat="40.47960513464019" lon="8.456068131495153"><ele>601.6666666666667</ele><time>2026-04-29T11:40:48.119Z</time></trkpt><trkpt lat="40.47940453769353" lon="8.45607685045867"><ele>602.3333333333334</ele><time>2026-04-29T11:40:49.119Z</time></trkpt><trkpt lat="40.4791907037818" lon="8.45607163897957"><ele>603.0</ele><time>2026-04-29T11:40:50.119Z</time></trkpt><trkpt lat="40.47897243073731" lon="8.456060284712368"><ele>602.6666666666666</ele><time>2026-04-29T11:40:51.119Z</time></trkpt><trkpt lat="40.47875887645005" lon="8.456029927045805"><ele>602.3333333333333</ele><time>2026-04-29T11:40:52.119Z</time></trkpt><trkpt lat="40.47854614218392" lon="8.455974086062259"><ele>602.0</ele><time>2026-04-29T11:40:53.119Z</time></trkpt><trkpt lat="40.47834552905725" lon="8.455864302581809"><ele>602.0</ele><time>2026-04-29T11:40:54.119Z</time></trkpt><trkpt lat="40.47816227059763" lon="8.455717365379073"><ele>602.0</ele><time>2026-04-29T11:40:55.119Z</time></trkpt><trkpt lat="40.477987013622915" lon="8.455547070762163"><ele>602.0</ele><time>2026-04-29T11:40:56.119Z</time></trkpt><trkpt lat="40.47781061680985" lon="8.45536632595637"><ele>602.5</ele><time>2026-04-29T11:40:57.119Z</time></trkpt><trkpt lat="40.47763458095966" lon="8.455182093727696"><ele>603.0</ele><time>2026-04-29T11:40:58.119Z</time></trkpt><trkpt lat="40.477456326634396" lon="8.454996058993306"><ele>603.0</ele><time>2026-04-29T11:40:59.119Z</time></trkpt><trkpt lat="40.47727419808162" lon="8.454811677658128"><ele>603.0</ele><time>2026-04-29T11:41:00.119Z</time></trkpt><trkpt lat="40.477098567105415" lon="8.454624428666364"><ele>603.0</ele><time>2026-04-29T11:41:01.119Z</time></trkpt><trkpt lat="40.47691983883868" lon="8.45443632307115"><ele>603.0</ele><time>2026-04-29T11:41:02.119Z</time></trkpt><trkpt lat="40.476741818890424" lon="8.454236256404782"><ele>603.0</ele><time>2026-04-29T11:41:03.119Z</time></trkpt><trkpt lat="40.47657299881306" lon="8.45401987318356"><ele>603.0</ele><time>2026-04-29T11:41:04.119Z</time></trkpt><trkpt lat="40.47640393552575" lon="8.453800879919962"><ele>601.5</ele><time>2026-04-29T11:41:05.119Z</time></trkpt><trkpt lat="40.47622236544726" lon="8.453599917541485"><ele>600.0</ele><time>2026-04-29T11:41:06.119Z</time></trkpt><trkpt lat="40.47602968606568" lon="8.453433769697646"><ele>600.0</ele><time>2026-04-29T11:41:07.119Z</time></trkpt><trkpt lat="40.475834623879585" lon="8.453285831416483"><ele>600.0</ele><time>2026-04-29T11:41:08.119Z</time></trkpt><trkpt lat="40.475635421902254" lon="8.453150410213272"><ele>600.0</ele><time>2026-04-29T11:41:09.119Z</time></trkpt><trkpt lat="40.47542962332097" lon="8.453023254834477"><ele>600.5</ele><time>2026-04-29T11:41:10.119Z</time></trkpt><trkpt lat="40.475226905435065" lon="8.452883525772684"><ele>601.0</ele><time>2026-04-29T11:41:11.119Z</time></trkpt><trkpt lat="40.475031683000715" lon="8.452730824645775"><ele>601.0</ele><time>2026-04-29T11:41:12.119Z</time></trkpt><trkpt lat="40.474853542707194" lon="8.452547103811435"><ele>601.0</ele><time>2026-04-29T11:41:13.119Z</time></trkpt><trkpt lat="40.47469653152838" lon="8.45233321618227"><ele>600.5</ele><time>2026-04-29T11:41:14.119Z</time></trkpt><trkpt lat="40.47453809562401" lon="8.4521113137916"><ele>600.0</ele><time>2026-04-29T11:41:15.119Z</time></trkpt><trkpt lat="40.47437252800868" lon="8.451894442354487"><ele>600.0</ele><time>2026-04-29T11:41:16.119Z</time></trkpt><trkpt lat="40.47420904923183" lon="8.451677920469166"><ele>600.0</ele><time>2026-04-29T11:41:17.119Z</time></trkpt><trkpt lat="40.47404481041057" lon="8.451456092774592"><ele>598.0</ele><time>2026-04-29T11:41:18.119Z</time></trkpt><trkpt lat="40.4738794376549" lon="8.451241952282711"><ele>596.0</ele><time>2026-04-29T11:41:19.119Z</time></trkpt><trkpt lat="40.47372734782299" lon="8.45103600060754"><ele>596.0</ele><time>2026-04-29T11:41:20.119Z</time></trkpt><trkpt lat="40.47358846640938" lon="8.450851117713293"><ele>596.0</ele><time>2026-04-29T11:41:21.119Z</time></trkpt><trkpt lat="40.47347637304988" lon="8.450686830030026"><ele>596.0</ele><time>2026-04-29T11:41:22.119Z</time></trkpt><trkpt lat="40.473406311545055" lon="8.450515330407734"><ele>595.6666666666666</ele><time>2026-04-29T11:41:23.119Z</time></trkpt><trkpt lat="40.47338229788018" lon="8.450322150607423"><ele>595.3333333333334</ele><time>2026-04-29T11:41:24.119Z</time></trkpt><trkpt lat="40.473410382644225" lon="8.450119278223323"><ele>595.0</ele><time>2026-04-29T11:41:25.119Z</time></trkpt><trkpt lat="40.47348803020522" lon="8.449900870186774"><ele>595.0</ele><time>2026-04-29T11:41:26.119Z</time></trkpt><trkpt lat="40.47360029244821" lon="8.449711947726316"><ele>595.0</ele><time>2026-04-29T11:41:27.119Z</time></trkpt><trkpt lat="40.47372830439841" lon="8.449539290337079"><ele>595.0</ele><time>2026-04-29T11:41:28.119Z</time></trkpt><trkpt lat="40.473854866437605" lon="8.449345800566816"><ele>598.0</ele><time>2026-04-29T11:41:29.119Z</time></trkpt><trkpt lat="40.47398920262219" lon="8.449149016062922"><ele>601.0</ele><time>2026-04-29T11:41:30.119Z</time></trkpt><trkpt lat="40.4741111000327" lon="8.448966650459774"><ele>604.0</ele><time>2026-04-29T11:41:31.119Z</time></trkpt><trkpt lat="40.47419416338356" lon="8.448800889600706"><ele>603.0</ele><time>2026-04-29T11:41:32.119Z</time></trkpt><trkpt lat="40.47422351932825" lon="8.448627892252691"><ele>602.0</ele><time>2026-04-29T11:41:33.119Z</time></trkpt><trkpt lat="40.474179402099864" lon="8.448466484038198"><ele>601.0</ele><time>2026-04-29T11:41:34.119Z</time></trkpt><trkpt lat="40.4740456218623" lon="8.448344324063441"><ele>600.0</ele><time>2026-04-29T11:41:35.119Z</time></trkpt><trkpt lat="40.47388111235024" lon="8.448309204954837"><ele>601.3333333333334</ele><time>2026-04-29T11:41:36.119Z</time></trkpt><trkpt lat="40.47370310464303" lon="8.448347839311536"><ele>602.6666666666667</ele><time>2026-04-29T11:41:37.119Z</time></trkpt><trkpt lat="40.473508765481725" lon="8.44840386724251"><ele>604.0</ele><time>2026-04-29T11:41:38.119Z</time></trkpt><trkpt lat="40.4733256050187" lon="8.448435620463215"><ele>604.0</ele><time>2026-04-29T11:41:39.119Z</time></trkpt><trkpt lat="40.473140339008296" lon="8.448477771676327"><ele>604.0</ele><time>2026-04-29T11:41:40.119Z</time></trkpt><trkpt lat="40.4729670983425" lon="8.448566234791583"><ele>604.0</ele><time>2026-04-29T11:41:41.119Z</time></trkpt><trkpt lat="40.47279949622085" lon="8.448692171369181"><ele>603.3333333333334</ele><time>2026-04-29T11:41:42.119Z</time></trkpt><trkpt lat="40.47262595637899" lon="8.448820283087498"><ele>602.6666666666666</ele><time>2026-04-29T11:41:43.119Z</time></trkpt><trkpt lat="40.47246758413495" lon="8.4489246834104"><ele>602.0</ele><time>2026-04-29T11:41:44.119Z</time></trkpt><trkpt lat="40.47230581244183" lon="8.44898321524535"><ele>602.0</ele><time>2026-04-29T11:41:45.119Z</time></trkpt><trkpt lat="40.47214398152596" lon="8.448955095323836"><ele>602.0</ele><time>2026-04-29T11:41:46.119Z</time></trkpt><trkpt lat="40.47198125505365" lon="8.448872154611266"><ele>602.0</ele><time>2026-04-29T11:41:47.119Z</time></trkpt><trkpt lat="40.47181926213665" lon="8.448757441113916"><ele>605.0</ele><time>2026-04-29T11:41:48.119Z</time></trkpt><trkpt lat="40.47164148529626" lon="8.448628299124895"><ele>608.0</ele><time>2026-04-29T11:41:49.119Z</time></trkpt><trkpt lat="40.471458738301195" lon="8.44849297903698"><ele>611.0</ele><time>2026-04-29T11:41:50.119Z</time></trkpt><trkpt lat="40.47127881923304" lon="8.448361192600302"><ele>608.0</ele><time>2026-04-29T11:41:51.119Z</time></trkpt><trkpt lat="40.471088591222035" lon="8.448228962012502"><ele>605.0</ele><time>2026-04-29T11:41:52.119Z</time></trkpt><trkpt lat="40.470906497050855" lon="8.448080597544163"><ele>602.0</ele><time>2026-04-29T11:41:53.119Z</time></trkpt><trkpt lat="40.470739417713695" lon="8.447926697866373"><ele>603.6666666666666</ele><time>2026-04-29T11:41:54.119Z</time></trkpt><trkpt lat="40.47059220977623" lon="8.44775290822321"><ele>605.3333333333334</ele><time>2026-04-29T11:41:55.119Z</time></trkpt><trkpt lat="40.470468364323764" lon="8.447543998856386"><ele>607.0</ele><time>2026-04-29T11:41:56.119Z</time></trkpt><trkpt lat="40.47035723619332" lon="8.447313253339818"><ele>610.0</ele><time>2026-04-29T11:41:57.119Z</time></trkpt><trkpt lat="40.47026408631569" lon="8.447059214439543"><ele>613.0</ele><time>2026-04-29T11:41:58.119Z</time></trkpt><trkpt lat="40.470186323631744" lon="8.44680161413691"><ele>616.0</ele><time>2026-04-29T11:41:59.119Z</time></trkpt><trkpt lat="40.470123616968365" lon="8.44653089987609"><ele>620.3333333333334</ele><time>2026-04-29T11:42:00.119Z</time></trkpt><trkpt lat="40.47005842829875" lon="8.446253340637046"><ele>624.6666666666666</ele><time>2026-04-29T11:42:01.119Z</time></trkpt><trkpt lat="40.46996053730457" lon="8.44601070879259"><ele>629.0</ele><time>2026-04-29T11:42:02.119Z</time></trkpt><trkpt lat="40.46980442082895" lon="8.44579526052143"><ele>629.0</ele><time>2026-04-29T11:42:03.119Z</time></trkpt><trkpt lat="40.469630669948245" lon="8.445599241586999"><ele>629.0</ele><time>2026-04-29T11:42:04.119Z</time></trkpt><trkpt lat="40.46945594818945" lon="8.445409302771909"><ele>631.0</ele><time>2026-04-29T11:42:05.119Z</time></trkpt><trkpt lat="40.46928174933241" lon="8.44521021149992"><ele>633.0</ele><time>2026-04-29T11:42:06.119Z</time></trkpt><trkpt lat="40.46910805214428" lon="8.445011451951297"><ele>633.0</ele><time>2026-04-29T11:42:07.119Z</time></trkpt><trkpt lat="40.46892943660161" lon="8.444813360188936"><ele>633.0</ele><time>2026-04-29T11:42:08.119Z</time></trkpt><trkpt lat="40.46875383907346" lon="8.444619656917292"><ele>635.0</ele><time>2026-04-29T11:42:09.119Z</time></trkpt><trkpt lat="40.46858245899039" lon="8.444425932074354"><ele>637.0</ele><time>2026-04-29T11:42:10.119Z</time></trkpt><trkpt lat="40.46840134923814" lon="8.444246962769656"><ele>637.0</ele><time>2026-04-29T11:42:11.119Z</time></trkpt><trkpt lat="40.468207557808164" lon="8.444100708359425"><ele>637.0</ele><time>2026-04-29T11:42:12.119Z</time></trkpt><trkpt lat="40.468004034421355" lon="8.44398382399244"><ele>637.0</ele><time>2026-04-29T11:42:13.119Z</time></trkpt><trkpt lat="40.467798552583986" lon="8.443873042802236"><ele>640.0</ele><time>2026-04-29T11:42:14.119Z</time></trkpt><trkpt lat="40.4676085181471" lon="8.44374883832914"><ele>643.0</ele><time>2026-04-29T11:42:15.119Z</time></trkpt><trkpt lat="40.46744792709584" lon="8.443585156430936"><ele>646.0</ele><time>2026-04-29T11:42:16.119Z</time></trkpt><trkpt lat="40.46730314925157" lon="8.44338072731612"><ele>646.0</ele><time>2026-04-29T11:42:17.119Z</time></trkpt><trkpt lat="40.46715225779737" lon="8.44316899607248"><ele>646.0</ele><time>2026-04-29T11:42:18.119Z</time></trkpt><trkpt lat="40.466990482463565" lon="8.442955091621194"><ele>649.0</ele><time>2026-04-29T11:42:19.119Z</time></trkpt><trkpt lat="40.466835973305926" lon="8.442738941890816"><ele>652.0</ele><time>2026-04-29T11:42:20.119Z</time></trkpt><trkpt lat="40.46667861789351" lon="8.442527476888532"><ele>652.0</ele><time>2026-04-29T11:42:21.119Z</time></trkpt><trkpt lat="40.46652556985566" lon="8.442316299451374"><ele>652.0</ele><time>2026-04-29T11:42:22.119Z</time></trkpt><trkpt lat="40.46637715769976" lon="8.44210418385499"><ele>652.0</ele><time>2026-04-29T11:42:23.119Z</time></trkpt><trkpt lat="40.46621700030786" lon="8.441908256393145"><ele>653.3333333333334</ele><time>2026-04-29T11:42:24.119Z</time></trkpt><trkpt lat="40.46603667238011" lon="8.441743220331645"><ele>654.6666666666666</ele><time>2026-04-29T11:42:25.119Z</time></trkpt><trkpt lat="40.46584047054439" lon="8.441600862252475"><ele>656.0</ele><time>2026-04-29T11:42:26.119Z</time></trkpt><trkpt lat="40.46563830534856" lon="8.441463534907504"><ele>657.5</ele><time>2026-04-29T11:42:27.119Z</time></trkpt><trkpt lat="40.46543333211757" lon="8.441320380169701"><ele>659.0</ele><time>2026-04-29T11:42:28.119Z</time></trkpt><trkpt lat="40.46522415042569" lon="8.441179679454665"><ele>655.0</ele><time>2026-04-29T11:42:29.119Z</time></trkpt><trkpt lat="40.465008656142366" lon="8.441056796671141"><ele>651.0</ele><time>2026-04-29T11:42:30.119Z</time></trkpt><trkpt lat="40.464783065454505" lon="8.440957835281447"><ele>649.5</ele><time>2026-04-29T11:42:31.119Z</time></trkpt><trkpt lat="40.46455154980161" lon="8.440882985892108"><ele>648.0</ele><time>2026-04-29T11:42:32.119Z</time></trkpt><trkpt lat="40.4643230156059" lon="8.440824617111502"><ele>648.0</ele><time>2026-04-29T11:42:33.119Z</time></trkpt><trkpt lat="40.4640954728368" lon="8.440770964678814"><ele>648.0</ele><time>2026-04-29T11:42:34.119Z</time></trkpt><trkpt lat="40.46387519784988" lon="8.440720427090785"><ele>648.0</ele><time>2026-04-29T11:42:35.119Z</time></trkpt><trkpt lat="40.46366073190902" lon="8.440667466130503"><ele>648.0</ele><time>2026-04-29T11:42:36.119Z</time></trkpt><trkpt lat="40.46345183480505" lon="8.440612012276276"><ele>648.0</ele><time>2026-04-29T11:42:37.119Z</time></trkpt><trkpt lat="40.463239559492315" lon="8.440560469693212"><ele>648.0</ele><time>2026-04-29T11:42:38.119Z</time></trkpt><trkpt lat="40.46301877786641" lon="8.440511360808223"><ele>648.0</ele><time>2026-04-29T11:42:39.12Z</time></trkpt><trkpt lat="40.462789954979144" lon="8.440489314510366"><ele>648.0</ele><time>2026-04-29T11:42:40.12Z</time></trkpt><trkpt lat="40.46256243035941" lon="8.440489425474743"><ele>648.0</ele><time>2026-04-29T11:42:41.12Z</time></trkpt><trkpt lat="40.462331005331734" lon="8.440501904545314"><ele>645.0</ele><time>2026-04-29T11:42:42.12Z</time></trkpt><trkpt lat="40.462092651128096" lon="8.440507630593748"><ele>642.0</ele><time>2026-04-29T11:42:43.12Z</time></trkpt><trkpt lat="40.46185803632984" lon="8.440524753428617"><ele>642.0</ele><time>2026-04-29T11:42:44.12Z</time></trkpt><trkpt lat="40.461640087312915" lon="8.440579967313122"><ele>642.0</ele><time>2026-04-29T11:42:45.12Z</time></trkpt><trkpt lat="40.461438168723845" lon="8.44065820250818"><ele>642.0</ele><time>2026-04-29T11:42:46.12Z</time></trkpt><trkpt lat="40.46124408489873" lon="8.440732439292916"><ele>639.3333333333334</ele><time>2026-04-29T11:42:47.12Z</time></trkpt><trkpt lat="40.461055801962466" lon="8.440798571074843"><ele>636.6666666666667</ele><time>2026-04-29T11:42:48.121Z</time></trkpt><trkpt lat="40.46087201913229" lon="8.440826318341559"><ele>634.0</ele><time>2026-04-29T11:42:49.12Z</time></trkpt><trkpt lat="40.46068879575911" lon="8.440806993077656"><ele>634.0</ele><time>2026-04-29T11:42:50.12Z</time></trkpt><trkpt lat="40.46051267923184" lon="8.440729087351404"><ele>634.0</ele><time>2026-04-29T11:42:51.12Z</time></trkpt><trkpt lat="40.46033827357379" lon="8.440609311230292"><ele>634.0</ele><time>2026-04-29T11:42:52.12Z</time></trkpt><trkpt lat="40.46015019808242" lon="8.440513059963248"><ele>634.0</ele><time>2026-04-29T11:42:53.12Z</time></trkpt><trkpt lat="40.45995291174852" lon="8.440469726105395"><ele>634.0</ele><time>2026-04-29T11:42:54.12Z</time></trkpt><trkpt lat="40.45974319159526" lon="8.440424682431413"><ele>634.0</ele><time>2026-04-29T11:42:55.12Z</time></trkpt><trkpt lat="40.4595276945559" lon="8.44035170583697"><ele>634.0</ele><time>2026-04-29T11:42:56.12Z</time></trkpt><trkpt lat="40.4593096731121" lon="8.440288716645963"><ele>634.0</ele><time>2026-04-29T11:42:57.12Z</time></trkpt><trkpt lat="40.45909085427264" lon="8.44022923678976"><ele>634.0</ele><time>2026-04-29T11:42:58.12Z</time></trkpt><trkpt lat="40.4588784289406" lon="8.440146559782171"><ele>636.0</ele><time>2026-04-29T11:42:59.12Z</time></trkpt><trkpt lat="40.458686874926684" lon="8.440003803367985"><ele>638.0</ele><time>2026-04-29T11:43:00.12Z</time></trkpt><trkpt lat="40.45847524646601" lon="8.43993392770911"><ele>640.0</ele><time>2026-04-29T11:43:01.12Z</time></trkpt><trkpt lat="40.45838359990638" lon="8.439603693065354"><ele>639.3333333333334</ele><time>2026-04-29T11:43:02.12Z</time></trkpt><trkpt lat="40.45825734625295" lon="8.439358651609545"><ele>638.6666666666666</ele><time>2026-04-29T11:43:03.12Z</time></trkpt><trkpt lat="40.45811175252308" lon="8.439134843933985"><ele>638.0</ele><time>2026-04-29T11:43:04.12Z</time></trkpt><trkpt lat="40.45795001004892" lon="8.438916390119212"><ele>631.5</ele><time>2026-04-29T11:43:05.12Z</time></trkpt><trkpt lat="40.45778953571882" lon="8.438702402179885"><ele>625.0</ele><time>2026-04-29T11:43:06.12Z</time></trkpt><trkpt lat="40.45762322344028" lon="8.438490774425082"><ele>625.0</ele><time>2026-04-29T11:43:07.12Z</time></trkpt><trkpt lat="40.45745436293034" lon="8.43828327249165"><ele>625.0</ele><time>2026-04-29T11:43:08.12Z</time></trkpt><trkpt lat="40.45728351343406" lon="8.438083564524275"><ele>623.5</ele><time>2026-04-29T11:43:09.12Z</time></trkpt><trkpt lat="40.45711145104727" lon="8.437890310546814"><ele>622.0</ele><time>2026-04-29T11:43:10.12Z</time></trkpt><trkpt lat="40.45693558261118" lon="8.437697189066421"><ele>622.0</ele><time>2026-04-29T11:43:11.12Z</time></trkpt><trkpt lat="40.456751104389284" lon="8.437519235160153"><ele>622.0</ele><time>2026-04-29T11:43:12.12Z</time></trkpt><trkpt lat="40.4565535994016" lon="8.437359077952118"><ele>622.0</ele><time>2026-04-29T11:43:13.12Z</time></trkpt><trkpt lat="40.45634682690769" lon="8.437228528719213"><ele>622.0</ele><time>2026-04-29T11:43:14.12Z</time></trkpt><trkpt lat="40.456134506519085" lon="8.437106547268373"><ele>617.5</ele><time>2026-04-29T11:43:15.12Z</time></trkpt><trkpt lat="40.45591636739874" lon="8.437001495626713"><ele>613.0</ele><time>2026-04-29T11:43:16.12Z</time></trkpt><trkpt lat="40.455695050828965" lon="8.436903349424925"><ele>613.0</ele><time>2026-04-29T11:43:17.12Z</time></trkpt><trkpt lat="40.45547345587408" lon="8.436816429468585"><ele>613.0</ele><time>2026-04-29T11:43:18.12Z</time></trkpt><trkpt lat="40.45524742520061" lon="8.43672171431445"><ele>616.0</ele><time>2026-04-29T11:43:19.12Z</time></trkpt><trkpt lat="40.4550242595156" lon="8.436626001275947"><ele>619.0</ele><time>2026-04-29T11:43:20.12Z</time></trkpt><trkpt lat="40.4548026647881" lon="8.436532155491902"><ele>620.5</ele><time>2026-04-29T11:43:21.12Z</time></trkpt><trkpt lat="40.454581983241745" lon="8.43645149851336"><ele>622.0</ele><time>2026-04-29T11:43:22.12Z</time></trkpt><trkpt lat="40.454359594168864" lon="8.436403317081613"><ele>622.0</ele><time>2026-04-29T11:43:23.12Z</time></trkpt><trkpt lat="40.4541374856272" lon="8.43638218960384"><ele>622.0</ele><time>2026-04-29T11:43:24.12Z</time></trkpt><trkpt lat="40.45391719314394" lon="8.436396248056107"><ele>622.0</ele><time>2026-04-29T11:43:25.12Z</time></trkpt><trkpt lat="40.45370005745152" lon="8.43644257642508"><ele>619.5</ele><time>2026-04-29T11:43:26.12Z</time></trkpt><trkpt lat="40.45347855800391" lon="8.436526138324668"><ele>617.0</ele><time>2026-04-29T11:43:27.12Z</time></trkpt><trkpt lat="40.453263937439054" lon="8.436639425341342"><ele>617.0</ele><time>2026-04-29T11:43:28.12Z</time></trkpt><trkpt lat="40.45306265601185" lon="8.436755154788878"><ele>617.0</ele><time>2026-04-29T11:43:29.12Z</time></trkpt><trkpt lat="40.45287799448003" lon="8.436861492958945"><ele>617.0</ele><time>2026-04-29T11:43:30.12Z</time></trkpt><trkpt lat="40.45272003061649" lon="8.437001061380961"><ele>617.0</ele><time>2026-04-29T11:43:31.12Z</time></trkpt><trkpt lat="40.452595492692964" lon="8.437196675204813"><ele>617.0</ele><time>2026-04-29T11:43:32.12Z</time></trkpt><trkpt lat="40.45247368464904" lon="8.437427623056044"><ele>617.0</ele><time>2026-04-29T11:43:33.12Z</time></trkpt><trkpt lat="40.45235092400048" lon="8.437663290012898"><ele>617.0</ele><time>2026-04-29T11:43:34.12Z</time></trkpt><trkpt lat="40.452217855166204" lon="8.437903758493537"><ele>617.0</ele><time>2026-04-29T11:43:35.12Z</time></trkpt><trkpt lat="40.452085451144946" lon="8.438155326506203"><ele>612.5</ele><time>2026-04-29T11:43:36.12Z</time></trkpt><trkpt lat="40.451958979588184" lon="8.43842206214603"><ele>608.0</ele><time>2026-04-29T11:43:37.12Z</time></trkpt><trkpt lat="40.45184793800391" lon="8.438704595490247"><ele>611.0</ele><time>2026-04-29T11:43:38.12Z</time></trkpt><trkpt lat="40.45173121937136" lon="8.438990623857007"><ele>614.0</ele><time>2026-04-29T11:43:39.12Z</time></trkpt><trkpt lat="40.45160811971498" lon="8.439274341196633"><ele>614.0</ele><time>2026-04-29T11:43:40.12Z</time></trkpt><trkpt lat="40.451488039008204" lon="8.439554644719442"><ele>614.0</ele><time>2026-04-29T11:43:41.12Z</time></trkpt><trkpt lat="40.451367876670744" lon="8.439834431970741"><ele>612.0</ele><time>2026-04-29T11:43:42.12Z</time></trkpt><trkpt lat="40.451242965927506" lon="8.440100202394635"><ele>610.0</ele><time>2026-04-29T11:43:43.12Z</time></trkpt><trkpt lat="40.45110871836963" lon="8.440349032160205"><ele>610.6666666666667</ele><time>2026-04-29T11:43:44.12Z</time></trkpt><trkpt lat="40.450956937894226" lon="8.440569616350999"><ele>611.3333333333334</ele><time>2026-04-29T11:43:45.12Z</time></trkpt><trkpt lat="40.45078806711477" lon="8.440758604536972"><ele>612.0</ele><time>2026-04-29T11:43:46.12Z</time></trkpt><trkpt lat="40.45060711612007" lon="8.44091643650341"><ele>611.6666666666666</ele><time>2026-04-29T11:43:47.12Z</time></trkpt><trkpt lat="40.45040623748223" lon="8.441017865068575"><ele>611.3333333333333</ele><time>2026-04-29T11:43:48.12Z</time></trkpt><trkpt lat="40.45020142602085" lon="8.441053283004942"><ele>611.0</ele><time>2026-04-29T11:43:49.12Z</time></trkpt><trkpt lat="40.44998327467415" lon="8.441036478799017"><ele>611.0</ele><time>2026-04-29T11:43:50.12Z</time></trkpt><trkpt lat="40.44976610802764" lon="8.44098365221453"><ele>611.0</ele><time>2026-04-29T11:43:51.12Z</time></trkpt><trkpt lat="40.44955709469275" lon="8.440888035030515"><ele>611.0</ele><time>2026-04-29T11:43:52.12Z</time></trkpt><trkpt lat="40.44936063273734" lon="8.440740740426174"><ele>611.5</ele><time>2026-04-29T11:43:53.12Z</time></trkpt><trkpt lat="40.449170472842034" lon="8.440560381811377"><ele>612.0</ele><time>2026-04-29T11:43:54.12Z</time></trkpt><trkpt lat="40.44897114706003" lon="8.44037761942803"><ele>612.0</ele><time>2026-04-29T11:43:55.12Z</time></trkpt><trkpt lat="40.448766043526014" lon="8.44019566062278"><ele>612.0</ele><time>2026-04-29T11:43:56.12Z</time></trkpt><trkpt lat="40.44855808509414" lon="8.440015546228901"><ele>612.0</ele><time>2026-04-29T11:43:57.12Z</time></trkpt><trkpt lat="40.44836429454589" lon="8.439844917850477"><ele>612.0</ele><time>2026-04-29T11:43:58.12Z</time></trkpt><trkpt lat="40.44816167487159" lon="8.439666622317903"><ele>611.5</ele><time>2026-04-29T11:43:59.12Z</time></trkpt><trkpt lat="40.44794807914223" lon="8.439520131916833"><ele>611.0</ele><time>2026-04-29T11:44:00.12Z</time></trkpt><trkpt lat="40.447723103410745" lon="8.439403797879502"><ele>611.0</ele><time>2026-04-29T11:44:01.12Z</time></trkpt><trkpt lat="40.44750117577349" lon="8.439295540760257"><ele>611.0</ele><time>2026-04-29T11:44:02.12Z</time></trkpt><trkpt lat="40.447290207862785" lon="8.439209064891704"><ele>611.5</ele><time>2026-04-29T11:44:03.12Z</time></trkpt><trkpt lat="40.44706978515181" lon="8.439161466736003"><ele>612.0</ele><time>2026-04-29T11:44:04.12Z</time></trkpt><trkpt lat="40.446838362946025" lon="8.439159887442528"><ele>612.0</ele><time>2026-04-29T11:44:05.12Z</time></trkpt><trkpt lat="40.446602817239196" lon="8.439160730478209"><ele>612.0</ele><time>2026-04-29T11:44:06.12Z</time></trkpt><trkpt lat="40.4463628281237" lon="8.439136515703366"><ele>612.5</ele><time>2026-04-29T11:44:07.12Z</time></trkpt><trkpt lat="40.44612339534827" lon="8.439075468072536"><ele>613.0</ele><time>2026-04-29T11:44:08.12Z</time></trkpt><trkpt lat="40.44588588259796" lon="8.438972883166423"><ele>613.0</ele><time>2026-04-29T11:44:09.12Z</time></trkpt><trkpt lat="40.445658774907436" lon="8.43883604396557"><ele>613.0</ele><time>2026-04-29T11:44:10.12Z</time></trkpt><trkpt lat="40.4454361421492" lon="8.438676854925196"><ele>612.0</ele><time>2026-04-29T11:44:11.12Z</time></trkpt><trkpt lat="40.44521195356514" lon="8.438516644015618"><ele>611.0</ele><time>2026-04-29T11:44:12.12Z</time></trkpt><trkpt lat="40.44498470619338" lon="8.438355946683135"><ele>611.0</ele><time>2026-04-29T11:44:13.12Z</time></trkpt><trkpt lat="40.444761060864465" lon="8.438194072777984"><ele>611.0</ele><time>2026-04-29T11:44:14.12Z</time></trkpt><trkpt lat="40.44454050056516" lon="8.438021977498359"><ele>611.5</ele><time>2026-04-29T11:44:15.12Z</time></trkpt><trkpt lat="40.44432254972992" lon="8.437837674954768"><ele>612.0</ele><time>2026-04-29T11:44:16.12Z</time></trkpt><trkpt lat="40.44410892176276" lon="8.437649186241709"><ele>612.0</ele><time>2026-04-29T11:44:17.12Z</time></trkpt><trkpt lat="40.44389671160548" lon="8.437460671284633"><ele>612.0</ele><time>2026-04-29T11:44:18.12Z</time></trkpt><trkpt lat="40.443683739509574" lon="8.437273286743766"><ele>611.0</ele><time>2026-04-29T11:44:19.12Z</time></trkpt><trkpt lat="40.443475194069684" lon="8.437086417662274"><ele>610.0</ele><time>2026-04-29T11:44:20.12Z</time></trkpt><trkpt lat="40.44325839926767" lon="8.436926013290751"><ele>610.0</ele><time>2026-04-29T11:44:21.12Z</time></trkpt><trkpt lat="40.4430355004001" lon="8.436787321450364"><ele>610.0</ele><time>2026-04-29T11:44:22.12Z</time></trkpt><trkpt lat="40.442826593838085" lon="8.436662204888666"><ele>611.6666666666667</ele><time>2026-04-29T11:44:23.12Z</time></trkpt><trkpt lat="40.44262875692316" lon="8.43654321076011"><ele>613.3333333333334</ele><time>2026-04-29T11:44:24.12Z</time></trkpt><trkpt lat="40.442440607999174" lon="8.436454817367801"><ele>615.0</ele><time>2026-04-29T11:44:25.12Z</time></trkpt><trkpt lat="40.442241316903534" lon="8.436422987245482"><ele>614.6666666666666</ele><time>2026-04-29T11:44:26.12Z</time></trkpt><trkpt lat="40.44202821686807" lon="8.436433161793705"><ele>614.3333333333333</ele><time>2026-04-29T11:44:27.12Z</time></trkpt><trkpt lat="40.441807405074705" lon="8.436470178768102"><ele>614.0</ele><time>2026-04-29T11:44:28.12Z</time></trkpt><trkpt lat="40.4415768939096" lon="8.436518604935772"><ele>614.0</ele><time>2026-04-29T11:44:29.12Z</time></trkpt><trkpt lat="40.441340854385935" lon="8.43656546872151"><ele>614.0</ele><time>2026-04-29T11:44:30.12Z</time></trkpt><trkpt lat="40.44111960925346" lon="8.436608922456356"><ele>611.3333333333333</ele><time>2026-04-29T11:44:31.12Z</time></trkpt><trkpt lat="40.44090390596419" lon="8.436638892022364"><ele>608.6666666666666</ele><time>2026-04-29T11:44:32.12Z</time></trkpt><trkpt lat="40.44069137711239" lon="8.436630870437671"><ele>606.0</ele><time>2026-04-29T11:44:33.12Z</time></trkpt><trkpt lat="40.44047145510053" lon="8.43658082579289"><ele>602.6666666666666</ele><time>2026-04-29T11:44:34.12Z</time></trkpt><trkpt lat="40.44026456051263" lon="8.436530155251457"><ele>599.3333333333333</ele><time>2026-04-29T11:44:35.12Z</time></trkpt><trkpt lat="40.440068348460066" lon="8.436481355635888"><ele>596.0</ele><time>2026-04-29T11:44:36.12Z</time></trkpt><trkpt lat="40.43988146771672" lon="8.436438061428516"><ele>596.0</ele><time>2026-04-29T11:44:37.12Z</time></trkpt><trkpt lat="40.43970126136182" lon="8.436383710782108"><ele>596.0</ele><time>2026-04-29T11:44:38.12Z</time></trkpt><trkpt lat="40.439515097285636" lon="8.436298862098317"><ele>596.0</ele><time>2026-04-29T11:44:39.12Z</time></trkpt><trkpt lat="40.439328939965954" lon="8.436159988579435"><ele>596.0</ele><time>2026-04-29T11:44:40.12Z</time></trkpt><trkpt lat="40.439138489012194" lon="8.436000409843158"><ele>596.0</ele><time>2026-04-29T11:44:41.12Z</time></trkpt><trkpt lat="40.43892343729742" lon="8.435868682573261"><ele>589.0</ele><time>2026-04-29T11:44:42.12Z</time></trkpt><trkpt lat="40.438720288086955" lon="8.43572920158224"><ele>582.0</ele><time>2026-04-29T11:44:43.12Z</time></trkpt><trkpt lat="40.43851444995428" lon="8.43559834768595"><ele>583.6666666666666</ele><time>2026-04-29T11:44:44.12Z</time></trkpt><trkpt lat="40.43831319826548" lon="8.435464900974035"><ele>585.3333333333333</ele><time>2026-04-29T11:44:45.121Z</time></trkpt><trkpt lat="40.4381328497121" lon="8.435324801681856"><ele>587.0</ele><time>2026-04-29T11:44:46.121Z</time></trkpt><trkpt lat="40.437964772119095" lon="8.435199507825443"><ele>587.0</ele><time>2026-04-29T11:44:47.121Z</time></trkpt><trkpt lat="40.43780522377247" lon="8.43511130742081"><ele>587.0</ele><time>2026-04-29T11:44:48.121Z</time></trkpt><trkpt lat="40.437641852479175" lon="8.435089788146938"><ele>587.0</ele><time>2026-04-29T11:44:49.121Z</time></trkpt><trkpt lat="40.43747290816009" lon="8.435164765013617"><ele>587.0</ele><time>2026-04-29T11:44:50.121Z</time></trkpt><trkpt lat="40.43730471928016" lon="8.43532867485208"><ele>587.0</ele><time>2026-04-29T11:44:51.121Z</time></trkpt><trkpt lat="40.437167762308846" lon="8.435563525504868"><ele>587.0</ele><time>2026-04-29T11:44:52.121Z</time></trkpt><trkpt lat="40.437020133960736" lon="8.435812305654194"><ele>588.5</ele><time>2026-04-29T11:44:53.121Z</time></trkpt><trkpt lat="40.436868062950424" lon="8.43606235485412"><ele>590.0</ele><time>2026-04-29T11:44:54.121Z</time></trkpt><trkpt lat="40.4367224450313" lon="8.436288438046065"><ele>586.6666666666666</ele><time>2026-04-29T11:44:55.121Z</time></trkpt><trkpt lat="40.43657982205351" lon="8.436516576982475"><ele>583.3333333333334</ele><time>2026-04-29T11:44:56.121Z</time></trkpt><trkpt lat="40.4364736382435" lon="8.436753563543151"><ele>580.0</ele><time>2026-04-29T11:44:57.12Z</time></trkpt><trkpt lat="40.43639051259872" lon="8.436990948063597"><ele>578.3333333333334</ele><time>2026-04-29T11:44:58.121Z</time></trkpt><trkpt lat="40.436308939547715" lon="8.43733259123231"><ele>576.6666666666666</ele><time>2026-04-29T11:44:59.121Z</time></trkpt><trkpt lat="40.436274822663336" lon="8.437531528142454"><ele>575.0</ele><time>2026-04-29T11:45:00.121Z</time></trkpt><trkpt lat="40.43624937121787" lon="8.437723344963555"><ele>582.0</ele><time>2026-04-29T11:45:01.121Z</time></trkpt><trkpt lat="40.436226905523625" lon="8.437990172181342"><ele>589.0</ele><time>2026-04-29T11:45:02.121Z</time></trkpt><trkpt lat="40.43619918678546" lon="8.438276893129496"><ele>596.0</ele><time>2026-04-29T11:45:03.121Z</time></trkpt><trkpt lat="40.43617450145216" lon="8.438565518366957"><ele>595.0</ele><time>2026-04-29T11:45:04.121Z</time></trkpt><trkpt lat="40.43616330806087" lon="8.43886270919166"><ele>594.0</ele><time>2026-04-29T11:45:05.121Z</time></trkpt><trkpt lat="40.436180256467445" lon="8.439164275391756"><ele>594.0</ele><time>2026-04-29T11:45:06.121Z</time></trkpt><trkpt lat="40.4362122534806" lon="8.439446374374"><ele>594.0</ele><time>2026-04-29T11:45:07.121Z</time></trkpt><trkpt lat="40.43624397528722" lon="8.43970041565264"><ele>594.0</ele><time>2026-04-29T11:45:08.121Z</time></trkpt><trkpt lat="40.43624318823974" lon="8.43995275119199"><ele>593.6666666666666</ele><time>2026-04-29T11:45:09.121Z</time></trkpt><trkpt lat="40.43620655421343" lon="8.440217051287947"><ele>593.3333333333333</ele><time>2026-04-29T11:45:10.121Z</time></trkpt><trkpt lat="40.4361514739617" lon="8.44049810258315"><ele>593.0</ele><time>2026-04-29T11:45:11.121Z</time></trkpt><trkpt lat="40.436094516527206" lon="8.44078295794356"><ele>592.6666666666666</ele><time>2026-04-29T11:45:12.121Z</time></trkpt><trkpt lat="40.43603765608303" lon="8.441061768344598"><ele>592.3333333333334</ele><time>2026-04-29T11:45:13.121Z</time></trkpt><trkpt lat="40.43597951363532" lon="8.441337584415688"><ele>592.0</ele><time>2026-04-29T11:45:14.121Z</time></trkpt><trkpt lat="40.43591144619644" lon="8.441607870990502"><ele>589.6666666666667</ele><time>2026-04-29T11:45:15.121Z</time></trkpt><trkpt lat="40.435821146468406" lon="8.441863452265366"><ele>587.3333333333334</ele><time>2026-04-29T11:45:16.121Z</time></trkpt><trkpt lat="40.43571723238313" lon="8.442091476168978"><ele>585.0</ele><time>2026-04-29T11:45:17.121Z</time></trkpt><trkpt lat="40.43561094741963" lon="8.442278770443574"><ele>585.3333333333334</ele><time>2026-04-29T11:45:18.121Z</time></trkpt><trkpt lat="40.43549052028005" lon="8.442416414342308"><ele>585.6666666666667</ele><time>2026-04-29T11:45:19.121Z</time></trkpt><trkpt lat="40.435333655164996" lon="8.442497033385386"><ele>586.0</ele><time>2026-04-29T11:45:20.121Z</time></trkpt><trkpt lat="40.435161334847855" lon="8.442550229907981"><ele>586.0</ele><time>2026-04-29T11:45:21.121Z</time></trkpt><trkpt lat="40.4349721999957" lon="8.442610876722766"><ele>586.0</ele><time>2026-04-29T11:45:22.121Z</time></trkpt><trkpt lat="40.43477636252528" lon="8.442674037900552"><ele>586.0</ele><time>2026-04-29T11:45:23.121Z</time></trkpt><trkpt lat="40.434567678323" lon="8.44274858443691"><ele>585.3333333333334</ele><time>2026-04-29T11:45:24.121Z</time></trkpt><trkpt lat="40.43435916523767" lon="8.44282143671196"><ele>584.6666666666666</ele><time>2026-04-29T11:45:25.121Z</time></trkpt><trkpt lat="40.43415056441293" lon="8.442892088692751"><ele>584.0</ele><time>2026-04-29T11:45:26.121Z</time></trkpt><trkpt lat="40.433944001928346" lon="8.442938778310552"><ele>582.6666666666666</ele><time>2026-04-29T11:45:27.121Z</time></trkpt><trkpt lat="40.43373369499874" lon="8.442932765983583"><ele>581.3333333333334</ele><time>2026-04-29T11:45:28.121Z</time></trkpt><trkpt lat="40.433526417284696" lon="8.442923821169597"><ele>580.0</ele><time>2026-04-29T11:45:29.121Z</time></trkpt><trkpt lat="40.43330402372606" lon="8.44290353244592"><ele>580.0</ele><time>2026-04-29T11:45:30.121Z</time></trkpt><trkpt lat="40.43307234865353" lon="8.442880223625801"><ele>580.0</ele><time>2026-04-29T11:45:31.121Z</time></trkpt><trkpt lat="40.432839902746686" lon="8.442811777526236"><ele>578.0</ele><time>2026-04-29T11:45:32.121Z</time></trkpt><trkpt lat="40.432604991307166" lon="8.442722438860867"><ele>576.0</ele><time>2026-04-29T11:45:33.121Z</time></trkpt><trkpt lat="40.43236487110646" lon="8.442628768691868"><ele>572.0</ele><time>2026-04-29T11:45:34.121Z</time></trkpt><trkpt lat="40.43212890904065" lon="8.442520182591492"><ele>568.0</ele><time>2026-04-29T11:45:35.121Z</time></trkpt><trkpt lat="40.43189741474389" lon="8.442401850402877"><ele>568.0</ele><time>2026-04-29T11:45:36.121Z</time></trkpt><trkpt lat="40.431672162061616" lon="8.44227385298303"><ele>568.0</ele><time>2026-04-29T11:45:37.121Z</time></trkpt><trkpt lat="40.43145043702827" lon="8.442153526420359"><ele>568.5</ele><time>2026-04-29T11:45:38.121Z</time></trkpt><trkpt lat="40.4312281756103" lon="8.442025887988233"><ele>569.0</ele><time>2026-04-29T11:45:39.121Z</time></trkpt><trkpt lat="40.43100872938064" lon="8.441898613282447"><ele>569.0</ele><time>2026-04-29T11:45:40.121Z</time></trkpt><trkpt lat="40.43078519419042" lon="8.441777451806747"><ele>569.0</ele><time>2026-04-29T11:45:41.121Z</time></trkpt><trkpt lat="40.430573632646265" lon="8.441664227104418"><ele>565.0</ele><time>2026-04-29T11:45:42.121Z</time></trkpt><trkpt lat="40.43038284165257" lon="8.441557653100979"><ele>561.0</ele><time>2026-04-29T11:45:43.121Z</time></trkpt><trkpt lat="40.430209080670146" lon="8.441457965311391"><ele>557.0</ele><time>2026-04-29T11:45:44.121Z</time></trkpt><trkpt lat="40.4300690482431" lon="8.44133356714417"><ele>559.6666666666666</ele><time>2026-04-29T11:45:45.121Z</time></trkpt><trkpt lat="40.42996506889539" lon="8.441156927050105"><ele>562.3333333333334</ele><time>2026-04-29T11:45:46.121Z</time></trkpt><trkpt lat="40.429881566240766" lon="8.440949322099938"><ele>565.0</ele><time>2026-04-29T11:45:47.121Z</time></trkpt><trkpt lat="40.4298014516588" lon="8.440756615984638"><ele>565.0</ele><time>2026-04-29T11:45:48.121Z</time></trkpt><trkpt lat="40.42970716254566" lon="8.440609574485554"><ele>565.0</ele><time>2026-04-29T11:45:49.121Z</time></trkpt><trkpt lat="40.42958129664881" lon="8.440542431132018"><ele>565.0</ele><time>2026-04-29T11:45:50.121Z</time></trkpt><trkpt lat="40.42943490728045" lon="8.44056679515138"><ele>565.0</ele><time>2026-04-29T11:45:51.121Z</time></trkpt><trkpt lat="40.42931441051892" lon="8.440680498850883"><ele>564.6666666666667</ele><time>2026-04-29T11:45:52.121Z</time></trkpt><trkpt lat="40.429241356230875" lon="8.440862754027771"><ele>564.3333333333334</ele><time>2026-04-29T11:45:53.121Z</time></trkpt><trkpt lat="40.42918484551654" lon="8.441102161017207"><ele>564.0</ele><time>2026-04-29T11:45:54.121Z</time></trkpt><trkpt lat="40.42915083340397" lon="8.441362814093436"><ele>562.0</ele><time>2026-04-29T11:45:55.121Z</time></trkpt><trkpt lat="40.42911828501127" lon="8.44161471279073"><ele>560.0</ele><time>2026-04-29T11:45:56.121Z</time></trkpt><trkpt lat="40.42907403899858" lon="8.441874058602167"><ele>558.0</ele><time>2026-04-29T11:45:57.121Z</time></trkpt><trkpt lat="40.42903341258365" lon="8.442141411404503"><ele>556.0</ele><time>2026-04-29T11:45:58.121Z</time></trkpt><trkpt lat="40.42899307592614" lon="8.442423281862261"><ele>554.0</ele><time>2026-04-29T11:45:59.121Z</time></trkpt><trkpt lat="40.42894835358959" lon="8.44270659993809"><ele>552.0</ele><time>2026-04-29T11:46:00.121Z</time></trkpt><trkpt lat="40.42891046600979" lon="8.442972182487877"><ele>551.6666666666666</ele><time>2026-04-29T11:46:01.121Z</time></trkpt><trkpt lat="40.42887246254239" lon="8.44321592926936"><ele>551.3333333333333</ele><time>2026-04-29T11:46:02.121Z</time></trkpt><trkpt lat="40.428836914566766" lon="8.443450147795359"><ele>551.0</ele><time>2026-04-29T11:46:03.121Z</time></trkpt><trkpt lat="40.42879568129924" lon="8.443662567820466"><ele>553.0</ele><time>2026-04-29T11:46:04.121Z</time></trkpt><trkpt lat="40.42871988654315" lon="8.443847374637386"><ele>555.0</ele><time>2026-04-29T11:46:05.121Z</time></trkpt><trkpt lat="40.42860667676618" lon="8.44399045705769"><ele>557.0</ele><time>2026-04-29T11:46:06.121Z</time></trkpt><trkpt lat="40.42846047492931" lon="8.444067716681573"><ele>557.0</ele><time>2026-04-29T11:46:07.121Z</time></trkpt><trkpt lat="40.42830257579706" lon="8.444080419114245"><ele>557.0</ele><time>2026-04-29T11:46:08.121Z</time></trkpt><trkpt lat="40.42813522503188" lon="8.444022581674888"><ele>557.0</ele><time>2026-04-29T11:46:09.121Z</time></trkpt><trkpt lat="40.42797944595678" lon="8.44390065752391"><ele>557.0</ele><time>2026-04-29T11:46:10.121Z</time></trkpt><trkpt lat="40.42782102666839" lon="8.44375600682151"><ele>557.0</ele><time>2026-04-29T11:46:11.121Z</time></trkpt><trkpt lat="40.427650555430326" lon="8.443608841484945"><ele>557.0</ele><time>2026-04-29T11:46:12.121Z</time></trkpt><trkpt lat="40.42747087336792" lon="8.44345945473762"><ele>557.0</ele><time>2026-04-29T11:46:13.121Z</time></trkpt><trkpt lat="40.42728536585193" lon="8.443301490994102"><ele>557.0</ele><time>2026-04-29T11:46:14.121Z</time></trkpt><trkpt lat="40.427090909491" lon="8.443132727427109"><ele>557.0</ele><time>2026-04-29T11:46:15.121Z</time></trkpt><trkpt lat="40.42689125161149" lon="8.442959815714635"><ele>557.0</ele><time>2026-04-29T11:46:16.121Z</time></trkpt><trkpt lat="40.4266794694257" lon="8.442786491947865"><ele>557.0</ele><time>2026-04-29T11:46:17.121Z</time></trkpt><trkpt lat="40.42646887096221" lon="8.44260840941997"><ele>557.0</ele><time>2026-04-29T11:46:18.121Z</time></trkpt><trkpt lat="40.42626171106584" lon="8.442430048110747"><ele>555.0</ele><time>2026-04-29T11:46:19.121Z</time></trkpt><trkpt lat="40.42605338916719" lon="8.442247460791288"><ele>553.0</ele><time>2026-04-29T11:46:20.121Z</time></trkpt><trkpt lat="40.42584965084541" lon="8.442067759687228"><ele>553.0</ele><time>2026-04-29T11:46:21.121Z</time></trkpt><trkpt lat="40.42564664926315" lon="8.441894153573623"><ele>553.0</ele><time>2026-04-29T11:46:22.121Z</time></trkpt><trkpt lat="40.425450007428005" lon="8.441720685190546"><ele>547.0</ele><time>2026-04-29T11:46:23.121Z</time></trkpt><trkpt lat="40.425250974655896" lon="8.441544234018988"><ele>541.0</ele><time>2026-04-29T11:46:24.121Z</time></trkpt><trkpt lat="40.425050110547794" lon="8.441362269377807"><ele>548.0</ele><time>2026-04-29T11:46:25.121Z</time></trkpt><trkpt lat="40.424851205762096" lon="8.441191844745196"><ele>555.0</ele><time>2026-04-29T11:46:26.121Z</time></trkpt><trkpt lat="40.424656363368555" lon="8.441024828340533"><ele>552.0</ele><time>2026-04-29T11:46:27.121Z</time></trkpt><trkpt lat="40.42446269236074" lon="8.44086216825389"><ele>549.0</ele><time>2026-04-29T11:46:28.121Z</time></trkpt><trkpt lat="40.424279491077534" lon="8.440726881510395"><ele>546.0</ele><time>2026-04-29T11:46:29.121Z</time></trkpt><trkpt lat="40.424098835237196" lon="8.440638424664426"><ele>546.0</ele><time>2026-04-29T11:46:30.121Z</time></trkpt><trkpt lat="40.42390849927512" lon="8.440617599569988"><ele>546.0</ele><time>2026-04-29T11:46:31.121Z</time></trkpt><trkpt lat="40.42369574368063" lon="8.440586379357342"><ele>546.0</ele><time>2026-04-29T11:46:32.121Z</time></trkpt><trkpt lat="40.423483552285035" lon="8.440683336484645"><ele>545.6666666666666</ele><time>2026-04-29T11:46:33.121Z</time></trkpt><trkpt lat="40.42327226408508" lon="8.440792412543763"><ele>545.3333333333333</ele><time>2026-04-29T11:46:34.121Z</time></trkpt><trkpt lat="40.42306909505155" lon="8.44088953369632"><ele>545.0</ele><time>2026-04-29T11:46:35.121Z</time></trkpt><trkpt lat="40.42288384174583" lon="8.440966055553664"><ele>544.3333333333333</ele><time>2026-04-29T11:46:36.121Z</time></trkpt><trkpt lat="40.42269106294228" lon="8.440957206754794"><ele>543.6666666666666</ele><time>2026-04-29T11:46:37.121Z</time></trkpt><trkpt lat="40.422499458980084" lon="8.44086381337164"><ele>543.0</ele><time>2026-04-29T11:46:38.121Z</time></trkpt><trkpt lat="40.422312592710476" lon="8.440728286951448"><ele>543.5</ele><time>2026-04-29T11:46:39.121Z</time></trkpt><trkpt lat="40.422115332104255" lon="8.44058826239288"><ele>544.0</ele><time>2026-04-29T11:46:40.121Z</time></trkpt><trkpt lat="40.42191049856986" lon="8.440441246552242"><ele>544.0</ele><time>2026-04-29T11:46:41.121Z</time></trkpt><trkpt lat="40.42170980490714" lon="8.440294084824432"><ele>544.0</ele><time>2026-04-29T11:46:42.121Z</time></trkpt><trkpt lat="40.42150752309914" lon="8.440154372663978"><ele>540.6666666666667</ele><time>2026-04-29T11:46:43.121Z</time></trkpt><trkpt lat="40.42130787079277" lon="8.440021598096315"><ele>537.3333333333334</ele><time>2026-04-29T11:46:44.121Z</time></trkpt><trkpt lat="40.42111871401458" lon="8.439886784977718"><ele>534.0</ele><time>2026-04-29T11:46:45.121Z</time></trkpt><trkpt lat="40.42093630409624" lon="8.439781935579195"><ele>534.0</ele><time>2026-04-29T11:46:46.121Z</time></trkpt><trkpt lat="40.42073167783587" lon="8.43973776523598"><ele>534.0</ele><time>2026-04-29T11:46:47.121Z</time></trkpt><trkpt lat="40.42051654702923" lon="8.439727384674384"><ele>534.0</ele><time>2026-04-29T11:46:48.121Z</time></trkpt><trkpt lat="40.420296425837684" lon="8.439699738647699"><ele>533.3333333333334</ele><time>2026-04-29T11:46:49.121Z</time></trkpt><trkpt lat="40.42010099711074" lon="8.439683856865063"><ele>532.6666666666667</ele><time>2026-04-29T11:46:50.121Z</time></trkpt><trkpt lat="40.41991492384855" lon="8.439694331588335"><ele>532.0</ele><time>2026-04-29T11:46:51.123Z</time></trkpt><trkpt lat="40.41974392265327" lon="8.439802347521422"><ele>531.0</ele><time>2026-04-29T11:46:52.121Z</time></trkpt><trkpt lat="40.41957770460219" lon="8.439982920658656"><ele>530.0</ele><time>2026-04-29T11:46:53.121Z</time></trkpt><trkpt lat="40.419424996385054" lon="8.440211694385495"><ele>529.0</ele><time>2026-04-29T11:46:54.122Z</time></trkpt><trkpt lat="40.419272773963485" lon="8.440508983812444"><ele>525.5</ele><time>2026-04-29T11:46:55.122Z</time></trkpt><trkpt lat="40.41909588936902" lon="8.440721375359908"><ele>522.0</ele><time>2026-04-29T11:46:56.122Z</time></trkpt><trkpt lat="40.41891088533644" lon="8.440933970981433"><ele>518.0</ele><time>2026-04-29T11:46:57.122Z</time></trkpt><trkpt lat="40.418722385286785" lon="8.441156809677697"><ele>514.0</ele><time>2026-04-29T11:46:58.122Z</time></trkpt><trkpt lat="40.418531704206536" lon="8.441384524110017"><ele>510.5</ele><time>2026-04-29T11:46:59.122Z</time></trkpt><trkpt lat="40.4183406956859" lon="8.441615037436083"><ele>507.0</ele><time>2026-04-29T11:47:00.122Z</time></trkpt><trkpt lat="40.41815515612116" lon="8.441838261537663"><ele>503.0</ele><time>2026-04-29T11:47:01.122Z</time></trkpt><trkpt lat="40.41797188795504" lon="8.442054997041383"><ele>499.0</ele><time>2026-04-29T11:47:02.122Z</time></trkpt><trkpt lat="40.4177941494038" lon="8.442270190028482"><ele>497.5</ele><time>2026-04-29T11:47:03.122Z</time></trkpt><trkpt lat="40.41761811946728" lon="8.442482391249039"><ele>496.0</ele><time>2026-04-29T11:47:04.123Z</time></trkpt><trkpt lat="40.41744453344158" lon="8.442681333006398"><ele>496.0</ele><time>2026-04-29T11:47:05.123Z</time></trkpt><trkpt lat="40.417272097659065" lon="8.44288201022515"><ele>496.0</ele><time>2026-04-29T11:47:06.123Z</time></trkpt><trkpt lat="40.41710406556843" lon="8.443086468211085"><ele>489.5</ele><time>2026-04-29T11:47:07.123Z</time></trkpt><trkpt lat="40.41693392108623" lon="8.44328568427045"><ele>483.0</ele><time>2026-04-29T11:47:08.123Z</time></trkpt><trkpt lat="40.41676153720367" lon="8.443481967701068"><ele>483.0</ele><time>2026-04-29T11:47:09.123Z</time></trkpt><trkpt lat="40.416591888630286" lon="8.443675706599112"><ele>483.0</ele><time>2026-04-29T11:47:10.123Z</time></trkpt><trkpt lat="40.4164373348018" lon="8.443864266373843"><ele>483.0</ele><time>2026-04-29T11:47:11.123Z</time></trkpt><trkpt lat="40.416314374573005" lon="8.44405592886939"><ele>484.0</ele><time>2026-04-29T11:47:12.123Z</time></trkpt><trkpt lat="40.41625362057045" lon="8.4442769327503"><ele>485.0</ele><time>2026-04-29T11:47:13.123Z</time></trkpt><trkpt lat="40.416253041382106" lon="8.444538779620153"><ele>486.0</ele><time>2026-04-29T11:47:14.123Z</time></trkpt><trkpt lat="40.41629807126339" lon="8.444812694624696"><ele>482.5</ele><time>2026-04-29T11:47:15.123Z</time></trkpt><trkpt lat="40.41640013967949" lon="8.4450760456599"><ele>479.0</ele><time>2026-04-29T11:47:16.123Z</time></trkpt><trkpt lat="40.41653701604052" lon="8.445323039914957"><ele>480.5</ele><time>2026-04-29T11:47:17.123Z</time></trkpt><trkpt lat="40.41667759900898" lon="8.445570441557932"><ele>482.0</ele><time>2026-04-29T11:47:18.123Z</time></trkpt><trkpt lat="40.41680860460351" lon="8.44583911847322"><ele>482.0</ele><time>2026-04-29T11:47:19.123Z</time></trkpt><trkpt lat="40.416936579008606" lon="8.446117230793012"><ele>482.0</ele><time>2026-04-29T11:47:20.123Z</time></trkpt><trkpt lat="40.41706363962244" lon="8.446407457272176"><ele>481.0</ele><time>2026-04-29T11:47:21.123Z</time></trkpt><trkpt lat="40.417193550058556" lon="8.446693446445055"><ele>480.0</ele><time>2026-04-29T11:47:22.123Z</time></trkpt><trkpt lat="40.4173261950193" lon="8.446991813715195"><ele>481.5</ele><time>2026-04-29T11:47:23.123Z</time></trkpt><trkpt lat="40.41745093499907" lon="8.447296457760329"><ele>483.0</ele><time>2026-04-29T11:47:24.123Z</time></trkpt><trkpt lat="40.41755636412369" lon="8.447621747152807"><ele>483.0</ele><time>2026-04-29T11:47:25.123Z</time></trkpt><trkpt lat="40.41764282648512" lon="8.44795069396041"><ele>483.0</ele><time>2026-04-29T11:47:26.123Z</time></trkpt><trkpt lat="40.4177304142512" lon="8.44827648126098"><ele>487.5</ele><time>2026-04-29T11:47:27.123Z</time></trkpt><trkpt lat="40.417819767738195" lon="8.448594620947132"><ele>492.0</ele><time>2026-04-29T11:47:28.123Z</time></trkpt><trkpt lat="40.41791299785954" lon="8.44889792107948"><ele>480.0</ele><time>2026-04-29T11:47:29.123Z</time></trkpt><trkpt lat="40.41799620629803" lon="8.449185002375074"><ele>468.0</ele><time>2026-04-29T11:47:30.123Z</time></trkpt><trkpt lat="40.41807122794168" lon="8.449454216350057"><ele>470.33333333333337</ele><time>2026-04-29T11:47:31.123Z</time></trkpt><trkpt lat="40.41811654990123" lon="8.449716140860883"><ele>472.6666666666667</ele><time>2026-04-29T11:47:32.123Z</time></trkpt><trkpt lat="40.41811326858954" lon="8.449975870963417"><ele>475.0</ele><time>2026-04-29T11:47:33.123Z</time></trkpt><trkpt lat="40.41806028627884" lon="8.450254499916856"><ele>478.6666666666667</ele><time>2026-04-29T11:47:34.123Z</time></trkpt><trkpt lat="40.417981725419104" lon="8.450521414471662"><ele>482.33333333333337</ele><time>2026-04-29T11:47:35.123Z</time></trkpt><trkpt lat="40.417911925342125" lon="8.450740874165158"><ele>486.0</ele><time>2026-04-29T11:47:36.123Z</time></trkpt><trkpt lat="40.417813066376326" lon="8.450909173002337"><ele>486.0</ele><time>2026-04-29T11:47:37.123Z</time></trkpt><trkpt lat="40.41766579150493" lon="8.45101925356579"><ele>486.0</ele><time>2026-04-29T11:47:38.123Z</time></trkpt><trkpt lat="40.41747997006534" lon="8.451068484220597"><ele>486.0</ele><time>2026-04-29T11:47:39.123Z</time></trkpt><trkpt lat="40.41727783150711" lon="8.451059011218506"><ele>484.66666666666663</ele><time>2026-04-29T11:47:40.123Z</time></trkpt><trkpt lat="40.41706950099261" lon="8.450990912700007"><ele>483.3333333333333</ele><time>2026-04-29T11:47:41.123Z</time></trkpt><trkpt lat="40.41684956665337" lon="8.450918565334565"><ele>482.0</ele><time>2026-04-29T11:47:42.123Z</time></trkpt><trkpt lat="40.41662329546982" lon="8.450863119211892"><ele>482.0</ele><time>2026-04-29T11:47:43.123Z</time></trkpt><trkpt lat="40.41638941935382" lon="8.450803853678398"><ele>482.0</ele><time>2026-04-29T11:47:44.123Z</time></trkpt><trkpt lat="40.41615502401759" lon="8.450735499556089"><ele>478.5</ele><time>2026-04-29T11:47:45.123Z</time></trkpt><trkpt lat="40.4159154470278" lon="8.450673410850431"><ele>475.0</ele><time>2026-04-29T11:47:46.122Z</time></trkpt><trkpt lat="40.415680353513345" lon="8.450596883088018"><ele>475.33333333333337</ele><time>2026-04-29T11:47:47.122Z</time></trkpt><trkpt lat="40.415466764264245" lon="8.45054305335802"><ele>475.66666666666663</ele><time>2026-04-29T11:47:48.122Z</time></trkpt><trkpt lat="40.41526375323566" lon="8.450542134577045"><ele>476.0</ele><time>2026-04-29T11:47:49.122Z</time></trkpt><trkpt lat="40.41506296561734" lon="8.450625108775244"><ele>476.0</ele><time>2026-04-29T11:47:50.122Z</time></trkpt><trkpt lat="40.41486674137347" lon="8.450761349345102"><ele>476.0</ele><time>2026-04-29T11:47:51.122Z</time></trkpt><trkpt lat="40.41466534189581" lon="8.450909573581546"><ele>478.0</ele><time>2026-04-29T11:47:52.122Z</time></trkpt><trkpt lat="40.414444010102" lon="8.451034631520633"><ele>480.0</ele><time>2026-04-29T11:47:53.122Z</time></trkpt><trkpt lat="40.41421744716796" lon="8.451108250157187"><ele>480.0</ele><time>2026-04-29T11:47:54.122Z</time></trkpt><trkpt lat="40.41398244379247" lon="8.451159142311322"><ele>480.0</ele><time>2026-04-29T11:47:55.122Z</time></trkpt><trkpt lat="40.4137564706143" lon="8.45120021284799"><ele>481.5</ele><time>2026-04-29T11:47:56.122Z</time></trkpt><trkpt lat="40.413523048133406" lon="8.451261293577113"><ele>483.0</ele><time>2026-04-29T11:47:57.122Z</time></trkpt><trkpt lat="40.413286436136865" lon="8.451308499395534"><ele>474.5</ele><time>2026-04-29T11:47:58.122Z</time></trkpt><trkpt lat="40.41304928761983" lon="8.451349169516853"><ele>466.0</ele><time>2026-04-29T11:47:59.122Z</time></trkpt><trkpt lat="40.412810683842245" lon="8.451396986657217"><ele>466.0</ele><time>2026-04-29T11:48:00.122Z</time></trkpt><trkpt lat="40.41257240237" lon="8.451436755992415"><ele>466.0</ele><time>2026-04-29T11:48:01.122Z</time></trkpt><trkpt lat="40.41233231012051" lon="8.4514923976286"><ele>466.0</ele><time>2026-04-29T11:48:02.122Z</time></trkpt><trkpt lat="40.412093863675004" lon="8.451548889372102"><ele>466.0</ele><time>2026-04-29T11:48:03.122Z</time></trkpt><trkpt lat="40.41185505374211" lon="8.4515999920559"><ele>466.0</ele><time>2026-04-29T11:48:04.122Z</time></trkpt><trkpt lat="40.41161142129066" lon="8.451642464957843"><ele>466.0</ele><time>2026-04-29T11:48:05.122Z</time></trkpt><trkpt lat="40.41136363900069" lon="8.451682490690313"><ele>465.0</ele><time>2026-04-29T11:48:06.122Z</time></trkpt><trkpt lat="40.41111510251634" lon="8.451723370910793"><ele>464.0</ele><time>2026-04-29T11:48:07.122Z</time></trkpt><trkpt lat="40.4108652764687" lon="8.451769238849469"><ele>464.0</ele><time>2026-04-29T11:48:08.122Z</time></trkpt><trkpt lat="40.41061501912296" lon="8.451811995779785"><ele>464.0</ele><time>2026-04-29T11:48:09.122Z</time></trkpt><trkpt lat="40.410353843727925" lon="8.451860809337521"><ele>460.0</ele><time>2026-04-29T11:48:10.122Z</time></trkpt><trkpt lat="40.410093599977124" lon="8.45190927488575"><ele>456.0</ele><time>2026-04-29T11:48:11.122Z</time></trkpt><trkpt lat="40.409833429829476" lon="8.451950551241179"><ele>454.0</ele><time>2026-04-29T11:48:12.122Z</time></trkpt><trkpt lat="40.40958487837987" lon="8.451991096587303"><ele>452.0</ele><time>2026-04-29T11:48:13.122Z</time></trkpt><trkpt lat="40.409350261994554" lon="8.452026684002997"><ele>452.0</ele><time>2026-04-29T11:48:14.122Z</time></trkpt><trkpt lat="40.409132089751324" lon="8.45206463428255"><ele>452.0</ele><time>2026-04-29T11:48:15.122Z</time></trkpt><trkpt lat="40.40893638303473" lon="8.452141384020907"><ele>452.0</ele><time>2026-04-29T11:48:16.122Z</time></trkpt><trkpt lat="40.40875256936028" lon="8.452292305114797"><ele>449.5</ele><time>2026-04-29T11:48:17.122Z</time></trkpt><trkpt lat="40.40858084351794" lon="8.452509023507174"><ele>447.0</ele><time>2026-04-29T11:48:18.122Z</time></trkpt><trkpt lat="40.40839843283232" lon="8.45271243358644"><ele>447.0</ele><time>2026-04-29T11:48:19.122Z</time></trkpt><trkpt lat="40.408197976843375" lon="8.45289542210805"><ele>447.0</ele><time>2026-04-29T11:48:20.122Z</time></trkpt><trkpt lat="40.40799690792663" lon="8.453070455147902"><ele>446.0</ele><time>2026-04-29T11:48:21.122Z</time></trkpt><trkpt lat="40.40781598577499" lon="8.453240932608269"><ele>445.0</ele><time>2026-04-29T11:48:22.122Z</time></trkpt><trkpt lat="40.40762737781248" lon="8.45338356553549"><ele>444.0</ele><time>2026-04-29T11:48:23.122Z</time></trkpt><trkpt lat="40.40741777081661" lon="8.453450196826843"><ele>444.0</ele><time>2026-04-29T11:48:24.122Z</time></trkpt><trkpt lat="40.40717938961389" lon="8.453462328384296"><ele>444.0</ele><time>2026-04-29T11:48:25.122Z</time></trkpt><trkpt lat="40.40693429285629" lon="8.453488654756915"><ele>440.5</ele><time>2026-04-29T11:48:26.122Z</time></trkpt><trkpt lat="40.40668975974077" lon="8.453534213609935"><ele>437.0</ele><time>2026-04-29T11:48:27.122Z</time></trkpt><trkpt lat="40.40644722759062" lon="8.453582326010412"><ele>435.0</ele><time>2026-04-29T11:48:28.122Z</time></trkpt><trkpt lat="40.4062121287021" lon="8.45361924769013"><ele>433.0</ele><time>2026-04-29T11:48:29.122Z</time></trkpt><trkpt lat="40.40600487477487" lon="8.453661415530151"><ele>431.0</ele><time>2026-04-29T11:48:30.122Z</time></trkpt><trkpt lat="40.40583062035136" lon="8.45369224311515"><ele>431.0</ele><time>2026-04-29T11:48:31.122Z</time></trkpt><trkpt lat="40.40568530578504" lon="8.453760833670021"><ele>431.0</ele><time>2026-04-29T11:48:32.122Z</time></trkpt><trkpt lat="40.4055705260178" lon="8.453899259978504"><ele>431.0</ele><time>2026-04-29T11:48:33.122Z</time></trkpt><trkpt lat="40.40550426944722" lon="8.454107894476158"><ele>431.0</ele><time>2026-04-29T11:48:34.122Z</time></trkpt><trkpt lat="40.40549259959005" lon="8.454330021833513"><ele>431.0</ele><time>2026-04-29T11:48:35.122Z</time></trkpt><trkpt lat="40.405527154158435" lon="8.454531955998416"><ele>431.0</ele><time>2026-04-29T11:48:36.122Z</time></trkpt><trkpt lat="40.40560832904792" lon="8.454722615997046"><ele>431.0</ele><time>2026-04-29T11:48:37.122Z</time></trkpt><trkpt lat="40.405734426818775" lon="8.454876905291941"><ele>431.0</ele><time>2026-04-29T11:48:38.122Z</time></trkpt><trkpt lat="40.40592152337765" lon="8.454974164020399"><ele>431.0</ele><time>2026-04-29T11:48:39.122Z</time></trkpt><trkpt lat="40.40613856459726" lon="8.455049523155685"><ele>427.0</ele><time>2026-04-29T11:48:40.122Z</time></trkpt><trkpt lat="40.406350284104896" lon="8.455149891585911"><ele>423.0</ele><time>2026-04-29T11:48:41.122Z</time></trkpt><trkpt lat="40.406570329873276" lon="8.455270904074554"><ele>423.0</ele><time>2026-04-29T11:48:42.122Z</time></trkpt><trkpt lat="40.40678270209724" lon="8.455420772023889"><ele>423.0</ele><time>2026-04-29T11:48:43.122Z</time></trkpt><trkpt lat="40.406994565317405" lon="8.455595916297"><ele>420.0</ele><time>2026-04-29T11:48:44.122Z</time></trkpt><trkpt lat="40.40721039322225" lon="8.455778143643771"><ele>417.0</ele><time>2026-04-29T11:48:45.122Z</time></trkpt><trkpt lat="40.407427511934976" lon="8.455950844973971"><ele>417.0</ele><time>2026-04-29T11:48:46.122Z</time></trkpt><trkpt lat="40.40764814042089" lon="8.456111945155763"><ele>417.0</ele><time>2026-04-29T11:48:47.122Z</time></trkpt><trkpt lat="40.40788589834803" lon="8.456227691393877"><ele>420.5</ele><time>2026-04-29T11:48:48.122Z</time></trkpt><trkpt lat="40.408130416603925" lon="8.456289892754794"><ele>424.0</ele><time>2026-04-29T11:48:49.122Z</time></trkpt><trkpt lat="40.40837411688306" lon="8.456356802075236"><ele>424.0</ele><time>2026-04-29T11:48:50.122Z</time></trkpt><trkpt lat="40.40860527755098" lon="8.456446533114539"><ele>424.0</ele><time>2026-04-29T11:48:51.122Z</time></trkpt><trkpt lat="40.4088193521531" lon="8.456529529465078"><ele>420.6666666666667</ele><time>2026-04-29T11:48:52.122Z</time></trkpt><trkpt lat="40.40901372964516" lon="8.456617425916237"><ele>417.33333333333337</ele><time>2026-04-29T11:48:53.122Z</time></trkpt><trkpt lat="40.409177513624" lon="8.456755004755262"><ele>414.0</ele><time>2026-04-29T11:48:54.122Z</time></trkpt><trkpt lat="40.40931887534337" lon="8.456963835495744"><ele>419.5</ele><time>2026-04-29T11:48:55.122Z</time></trkpt><trkpt lat="40.40944258697359" lon="8.457222852008316"><ele>425.0</ele><time>2026-04-29T11:48:56.122Z</time></trkpt><trkpt lat="40.40956255020291" lon="8.457490986738582"><ele>425.0</ele><time>2026-04-29T11:48:57.123Z</time></trkpt><trkpt lat="40.40963417609192" lon="8.457754560070825"><ele>425.0</ele><time>2026-04-29T11:48:58.123Z</time></trkpt><trkpt lat="40.409645961246646" lon="8.45803104545772"><ele>425.0</ele><time>2026-04-29T11:48:59.123Z</time></trkpt><trkpt lat="40.409609678799704" lon="8.458326101039733"><ele>424.0</ele><time>2026-04-29T11:49:00.123Z</time></trkpt><trkpt lat="40.409530777739946" lon="8.458622198139368"><ele>423.0</ele><time>2026-04-29T11:49:01.123Z</time></trkpt><trkpt lat="40.409419074550655" lon="8.4589154751002"><ele>417.5</ele><time>2026-04-29T11:49:02.123Z</time></trkpt><trkpt lat="40.40930201633036" lon="8.459214839344043"><ele>412.0</ele><time>2026-04-29T11:49:03.124Z</time></trkpt><trkpt lat="40.409198958866746" lon="8.459529387264345"><ele>409.0</ele><time>2026-04-29T11:49:04.123Z</time></trkpt><trkpt lat="40.40909177101937" lon="8.45985857412337"><ele>406.0</ele><time>2026-04-29T11:49:05.123Z</time></trkpt><trkpt lat="40.4089786146239" lon="8.460184709344974"><ele>406.5</ele><time>2026-04-29T11:49:06.124Z</time></trkpt><trkpt lat="40.4088720288003" lon="8.460514284278494"><ele>407.0</ele><time>2026-04-29T11:49:07.124Z</time></trkpt><trkpt lat="40.408769854383166" lon="8.460835092745564"><ele>407.0</ele><time>2026-04-29T11:49:08.124Z</time></trkpt><trkpt lat="40.408668829241584" lon="8.461151908969565"><ele>407.0</ele><time>2026-04-29T11:49:09.123Z</time></trkpt><trkpt lat="40.40856838123989" lon="8.461456214965896"><ele>406.5</ele><time>2026-04-29T11:49:10.123Z</time></trkpt><trkpt lat="40.40847187807263" lon="8.461751273254386"><ele>406.0</ele><time>2026-04-29T11:49:11.123Z</time></trkpt><trkpt lat="40.40837782154862" lon="8.462049645596624"><ele>406.0</ele><time>2026-04-29T11:49:12.123Z</time></trkpt><trkpt lat="40.40828537843644" lon="8.462339334987995"><ele>406.0</ele><time>2026-04-29T11:49:13.123Z</time></trkpt><trkpt lat="40.408191499485056" lon="8.46261134807825"><ele>406.0</ele><time>2026-04-29T11:49:14.123Z</time></trkpt><trkpt lat="40.40807742983047" lon="8.462864541993715"><ele>406.0</ele><time>2026-04-29T11:49:15.123Z</time></trkpt><trkpt lat="40.407951049532386" lon="8.463108305234208"><ele>406.0</ele><time>2026-04-29T11:49:16.123Z</time></trkpt><trkpt lat="40.40782252072956" lon="8.463349963409106"><ele>406.5</ele><time>2026-04-29T11:49:17.123Z</time></trkpt><trkpt lat="40.407688953587886" lon="8.463594342018498"><ele>407.0</ele><time>2026-04-29T11:49:18.123Z</time></trkpt><trkpt lat="40.4075495963729" lon="8.463847946660273"><ele>404.0</ele><time>2026-04-29T11:49:19.123Z</time></trkpt><trkpt lat="40.40741598061547" lon="8.464104152165747"><ele>401.0</ele><time>2026-04-29T11:49:20.123Z</time></trkpt><trkpt lat="40.407287722205716" lon="8.464355259449917"><ele>401.0</ele><time>2026-04-29T11:49:21.123Z</time></trkpt><trkpt lat="40.40716434967804" lon="8.46458650859528"><ele>401.0</ele><time>2026-04-29T11:49:22.123Z</time></trkpt><trkpt lat="40.40704681751636" lon="8.464804325730956"><ele>401.0</ele><time>2026-04-29T11:49:23.123Z</time></trkpt><trkpt lat="40.40691405010271" lon="8.465004184441987"><ele>403.0</ele><time>2026-04-29T11:49:24.123Z</time></trkpt><trkpt lat="40.40675897275206" lon="8.465180358264378"><ele>405.0</ele><time>2026-04-29T11:49:25.123Z</time></trkpt><trkpt lat="40.40657465532541" lon="8.46531783174565"><ele>407.0</ele><time>2026-04-29T11:49:26.123Z</time></trkpt><trkpt lat="40.406382570616884" lon="8.4654434513395"><ele>406.66666666666663</ele><time>2026-04-29T11:49:27.123Z</time></trkpt><trkpt lat="40.40620967428143" lon="8.465569475322644"><ele>406.33333333333337</ele><time>2026-04-29T11:49:28.123Z</time></trkpt><trkpt lat="40.406048642495634" lon="8.465660980575707"><ele>406.0</ele><time>2026-04-29T11:49:29.123Z</time></trkpt><trkpt lat="40.405880849067216" lon="8.46568954526553"><ele>406.0</ele><time>2026-04-29T11:49:30.123Z</time></trkpt><trkpt lat="40.40569632336762" lon="8.465648287615297"><ele>406.0</ele><time>2026-04-29T11:49:31.123Z</time></trkpt><trkpt lat="40.40549724724262" lon="8.465581719783003"><ele>406.0</ele><time>2026-04-29T11:49:32.123Z</time></trkpt><trkpt lat="40.40529429885206" lon="8.465516957768436"><ele>408.0</ele><time>2026-04-29T11:49:33.123Z</time></trkpt><trkpt lat="40.405091313024094" lon="8.465459375273317"><ele>410.0</ele><time>2026-04-29T11:49:34.123Z</time></trkpt><trkpt lat="40.404881855659916" lon="8.465394009543786"><ele>412.0</ele><time>2026-04-29T11:49:35.123Z</time></trkpt><trkpt lat="40.404683340852586" lon="8.465335250819486"><ele>411.6666666666667</ele><time>2026-04-29T11:49:36.123Z</time></trkpt><trkpt lat="40.40449347455579" lon="8.465285928318137"><ele>411.33333333333337</ele><time>2026-04-29T11:49:37.123Z</time></trkpt><trkpt lat="40.40431778921477" lon="8.465250571319503"><ele>411.0</ele><time>2026-04-29T11:49:38.123Z</time></trkpt><trkpt lat="40.40415579107261" lon="8.465282091843086"><ele>411.0</ele><time>2026-04-29T11:49:39.123Z</time></trkpt><trkpt lat="40.403996245518925" lon="8.465373577847824"><ele>411.0</ele><time>2026-04-29T11:49:40.123Z</time></trkpt><trkpt lat="40.403851139007934" lon="8.465559249428743"><ele>411.0</ele><time>2026-04-29T11:49:41.123Z</time></trkpt><trkpt lat="40.403668221558696" lon="8.465695877771894"><ele>404.33333333333337</ele><time>2026-04-29T11:49:42.123Z</time></trkpt><trkpt lat="40.40346285594257" lon="8.46580393544378"><ele>397.6666666666667</ele><time>2026-04-29T11:49:43.123Z</time></trkpt><trkpt lat="40.40326087381777" lon="8.46588337313535"><ele>391.0</ele><time>2026-04-29T11:49:44.123Z</time></trkpt><trkpt lat="40.40305383146009" lon="8.465974547325024"><ele>393.0</ele><time>2026-04-29T11:49:45.123Z</time></trkpt><trkpt lat="40.40285075119991" lon="8.46606035712959"><ele>395.0</ele><time>2026-04-29T11:49:46.123Z</time></trkpt><trkpt lat="40.40264826527869" lon="8.466146541421008"><ele>397.0</ele><time>2026-04-29T11:49:47.123Z</time></trkpt><trkpt lat="40.40243339984282" lon="8.466207494467064"><ele>397.0</ele><time>2026-04-29T11:49:48.123Z</time></trkpt><trkpt lat="40.40222120877798" lon="8.466249698414291"><ele>397.0</ele><time>2026-04-29T11:49:49.123Z</time></trkpt><trkpt lat="40.401998391615514" lon="8.466255322692584"><ele>397.0</ele><time>2026-04-29T11:49:50.123Z</time></trkpt><trkpt lat="40.401770895312076" lon="8.466258323877216"><ele>397.6666666666667</ele><time>2026-04-29T11:49:51.123Z</time></trkpt><trkpt lat="40.40154606352878" lon="8.466258421077006"><ele>398.33333333333337</ele><time>2026-04-29T11:49:52.123Z</time></trkpt><trkpt lat="40.40132396688328" lon="8.466253620903995"><ele>399.0</ele><time>2026-04-29T11:49:53.123Z</time></trkpt><trkpt lat="40.40111369693449" lon="8.466211568160853"><ele>395.33333333333337</ele><time>2026-04-29T11:49:54.123Z</time></trkpt><trkpt lat="40.400906416109756" lon="8.466165075703747"><ele>391.6666666666667</ele><time>2026-04-29T11:49:55.123Z</time></trkpt><trkpt lat="40.40072036835942" lon="8.466116977778315"><ele>388.0</ele><time>2026-04-29T11:49:56.123Z</time></trkpt><trkpt lat="40.400557548280126" lon="8.466017339792229"><ele>380.0</ele><time>2026-04-29T11:49:57.123Z</time></trkpt><trkpt lat="40.40042562566838" lon="8.465852618763249"><ele>372.0</ele><time>2026-04-29T11:49:58.123Z</time></trkpt><trkpt lat="40.400281975231074" lon="8.465650301648859"><ele>364.0</ele><time>2026-04-29T11:49:59.123Z</time></trkpt><trkpt lat="40.40017951824306" lon="8.465457947767595"><ele>368.66666666666663</ele><time>2026-04-29T11:50:00.123Z</time></trkpt><trkpt lat="40.40008312337786" lon="8.465280837546329"><ele>373.3333333333333</ele><time>2026-04-29T11:50:01.123Z</time></trkpt><trkpt lat="40.39999565151465" lon="8.465092752383931"><ele>378.0</ele><time>2026-04-29T11:50:02.123Z</time></trkpt><trkpt lat="40.399868236171486" lon="8.46496786118118"><ele>378.0</ele><time>2026-04-29T11:50:03.123Z</time></trkpt><trkpt lat="40.3997073937476" lon="8.464907174115696"><ele>378.0</ele><time>2026-04-29T11:50:04.123Z</time></trkpt><trkpt lat="40.39961275181225" lon="8.46501903082715"><ele>378.0</ele><time>2026-04-29T11:50:05.123Z</time></trkpt><trkpt lat="40.39948759563695" lon="8.465020593421642"><ele>378.0</ele><time>2026-04-29T11:50:06.123Z</time></trkpt><trkpt lat="40.399363449297304" lon="8.465178955731648"><ele>376.0</ele><time>2026-04-29T11:50:07.123Z</time></trkpt><trkpt lat="40.39921456624978" lon="8.465346732585592"><ele>374.0</ele><time>2026-04-29T11:50:08.123Z</time></trkpt><trkpt lat="40.39904897178882" lon="8.465487745387296"><ele>372.0</ele><time>2026-04-29T11:50:09.123Z</time></trkpt><trkpt lat="40.39887232306217" lon="8.465582116676051"><ele>368.6666666666667</ele><time>2026-04-29T11:50:10.123Z</time></trkpt><trkpt lat="40.39867464417219" lon="8.465625874038388"><ele>365.33333333333337</ele><time>2026-04-29T11:50:11.123Z</time></trkpt><trkpt lat="40.39850817029029" lon="8.465676400494635"><ele>362.0</ele><time>2026-04-29T11:50:12.123Z</time></trkpt><trkpt lat="40.398369995043055" lon="8.465751380218423"><ele>362.0</ele><time>2026-04-29T11:50:13.123Z</time></trkpt><trkpt lat="40.39826487912999" lon="8.465854726109592"><ele>362.0</ele><time>2026-04-29T11:50:14.123Z</time></trkpt><trkpt lat="40.39823671312655" lon="8.466008411942786"><ele>362.0</ele><time>2026-04-29T11:50:15.123Z</time></trkpt><trkpt lat="40.398260228962215" lon="8.466191641479316"><ele>362.0</ele><time>2026-04-29T11:50:16.123Z</time></trkpt><trkpt lat="40.39833232774441" lon="8.466440357712424"><ele>359.33333333333337</ele><time>2026-04-29T11:50:17.123Z</time></trkpt><trkpt lat="40.39837909620749" lon="8.466703346395757"><ele>356.6666666666667</ele><time>2026-04-29T11:50:18.123Z</time></trkpt><trkpt lat="40.39842563709462" lon="8.466958863054092"><ele>354.0</ele><time>2026-04-29T11:50:19.123Z</time></trkpt><trkpt lat="40.39847619270102" lon="8.46722910752682"><ele>354.0</ele><time>2026-04-29T11:50:20.123Z</time></trkpt><trkpt lat="40.39853414184982" lon="8.46751425192847"><ele>354.0</ele><time>2026-04-29T11:50:21.123Z</time></trkpt><trkpt lat="40.39858251388157" lon="8.46779454989081"><ele>354.0</ele><time>2026-04-29T11:50:22.123Z</time></trkpt><trkpt lat="40.398631258435756" lon="8.468088078303763"><ele>353.3333333333333</ele><time>2026-04-29T11:50:23.123Z</time></trkpt><trkpt lat="40.39866593613139" lon="8.468374157235193"><ele>352.66666666666663</ele><time>2026-04-29T11:50:24.123Z</time></trkpt><trkpt lat="40.39868518428711" lon="8.468651185506763"><ele>352.0</ele><time>2026-04-29T11:50:25.123Z</time></trkpt><trkpt lat="40.39869990332145" lon="8.468934494095027"><ele>350.0</ele><time>2026-04-29T11:50:26.123Z</time></trkpt><trkpt lat="40.398689393032434" lon="8.469218051393296"><ele>348.0</ele><time>2026-04-29T11:50:27.123Z</time></trkpt><trkpt lat="40.39865400687107" lon="8.469503591478666"><ele>346.0</ele><time>2026-04-29T11:50:28.123Z</time></trkpt><trkpt lat="40.39860072137705" lon="8.46977993081164"><ele>340.0</ele><time>2026-04-29T11:50:29.123Z</time></trkpt><trkpt lat="40.39851936340711" lon="8.47005574827617"><ele>334.0</ele><time>2026-04-29T11:50:30.123Z</time></trkpt><trkpt lat="40.398408151897655" lon="8.470319759844504"><ele>328.0</ele><time>2026-04-29T11:50:31.123Z</time></trkpt><trkpt lat="40.398295156714795" lon="8.4705788040868"><ele>322.0</ele><time>2026-04-29T11:50:32.123Z</time></trkpt><trkpt lat="40.39817692169483" lon="8.470832497341936"><ele>322.0</ele><time>2026-04-29T11:50:33.123Z</time></trkpt><trkpt lat="40.39806084301665" lon="8.471071418883394"><ele>322.0</ele><time>2026-04-29T11:50:34.123Z</time></trkpt><trkpt lat="40.39792865750099" lon="8.471285945123377"><ele>322.0</ele><time>2026-04-29T11:50:35.123Z</time></trkpt><trkpt lat="40.39778400713633" lon="8.471480214645421"><ele>321.0</ele><time>2026-04-29T11:50:36.123Z</time></trkpt><trkpt lat="40.39762002736391" lon="8.471634743052192"><ele>320.0</ele><time>2026-04-29T11:50:37.123Z</time></trkpt><trkpt lat="40.39742815999861" lon="8.47174431143183"><ele>319.0</ele><time>2026-04-29T11:50:38.123Z</time></trkpt><trkpt lat="40.39722289553855" lon="8.471837247483208"><ele>318.0</ele><time>2026-04-29T11:50:39.123Z</time></trkpt><trkpt lat="40.39701211128107" lon="8.47188732614502"><ele>317.0</ele><time>2026-04-29T11:50:40.123Z</time></trkpt><trkpt lat="40.3967861532157" lon="8.47188242465923"><ele>316.0</ele><time>2026-04-29T11:50:41.123Z</time></trkpt><trkpt lat="40.39655853651057" lon="8.471871508940854"><ele>312.5</ele><time>2026-04-29T11:50:42.123Z</time></trkpt><trkpt lat="40.39629403290294" lon="8.47178968221237"><ele>309.0</ele><time>2026-04-29T11:50:43.123Z</time></trkpt><trkpt lat="40.39607418146726" lon="8.471764732075611"><ele>309.0</ele><time>2026-04-29T11:50:44.123Z</time></trkpt><trkpt lat="40.395879002749545" lon="8.471744247856257"><ele>309.0</ele><time>2026-04-29T11:50:45.123Z</time></trkpt><trkpt lat="40.39571307542727" lon="8.471746625440314"><ele>309.0</ele><time>2026-04-29T11:50:46.123Z</time></trkpt><trkpt lat="40.3955742389118" lon="8.471823206991699"><ele>307.0</ele><time>2026-04-29T11:50:47.123Z</time></trkpt><trkpt lat="40.395455805132336" lon="8.472004287151526"><ele>305.0</ele><time>2026-04-29T11:50:48.123Z</time></trkpt><trkpt lat="40.395395911932766" lon="8.472261296515132"><ele>303.0</ele><time>2026-04-29T11:50:49.123Z</time></trkpt><trkpt lat="40.39536936206101" lon="8.472560572345573"><ele>301.3333333333333</ele><time>2026-04-29T11:50:50.123Z</time></trkpt><trkpt lat="40.395384662553155" lon="8.472859130865576"><ele>299.66666666666663</ele><time>2026-04-29T11:50:51.123Z</time></trkpt><trkpt lat="40.395398098230174" lon="8.473135088938983"><ele>298.0</ele><time>2026-04-29T11:50:52.123Z</time></trkpt><trkpt lat="40.39539341382021" lon="8.473409220609089"><ele>297.3333333333333</ele><time>2026-04-29T11:50:53.123Z</time></trkpt><trkpt lat="40.395373533220216" lon="8.473683286797247"><ele>296.6666666666667</ele><time>2026-04-29T11:50:54.123Z</time></trkpt><trkpt lat="40.395348304004024" lon="8.473930869107084"><ele>296.0</ele><time>2026-04-29T11:50:55.123Z</time></trkpt><trkpt lat="40.39527801954375" lon="8.474139716314282"><ele>296.0</ele><time>2026-04-29T11:50:56.123Z</time></trkpt><trkpt lat="40.395150809311204" lon="8.47431406345251"><ele>296.0</ele><time>2026-04-29T11:50:57.123Z</time></trkpt><trkpt lat="40.39498185430632" lon="8.47446542275641"><ele>296.0</ele><time>2026-04-29T11:50:58.123Z</time></trkpt><trkpt lat="40.39478995464807" lon="8.474626477348808"><ele>295.6666666666667</ele><time>2026-04-29T11:50:59.123Z</time></trkpt><trkpt lat="40.39461258249171" lon="8.474800528639951"><ele>295.3333333333333</ele><time>2026-04-29T11:51:00.123Z</time></trkpt><trkpt lat="40.394446507211406" lon="8.47498259501826"><ele>295.0</ele><time>2026-04-29T11:51:01.123Z</time></trkpt><trkpt lat="40.39426234301639" lon="8.475178934132925"><ele>295.0</ele><time>2026-04-29T11:51:02.124Z</time></trkpt><trkpt lat="40.3940810195128" lon="8.475374499592677"><ele>295.0</ele><time>2026-04-29T11:51:03.124Z</time></trkpt><trkpt lat="40.39388948042899" lon="8.475576227267853"><ele>297.5</ele><time>2026-04-29T11:51:04.124Z</time></trkpt><trkpt lat="40.39369240953549" lon="8.475778848869869"><ele>300.0</ele><time>2026-04-29T11:51:05.125Z</time></trkpt><trkpt lat="40.393498967652526" lon="8.475983374087411"><ele>300.0</ele><time>2026-04-29T11:51:06.124Z</time></trkpt><trkpt lat="40.39330277458411" lon="8.476189771485021"><ele>300.0</ele><time>2026-04-29T11:51:07.124Z</time></trkpt><trkpt lat="40.3931159961372" lon="8.476399520772926"><ele>301.5</ele><time>2026-04-29T11:51:08.125Z</time></trkpt><trkpt lat="40.3929313522244" lon="8.476597214473184"><ele>303.0</ele><time>2026-04-29T11:51:09.125Z</time></trkpt><trkpt lat="40.39274857381672" lon="8.476776033769065"><ele>303.0</ele><time>2026-04-29T11:51:10.125Z</time></trkpt><trkpt lat="40.392572259138255" lon="8.476963122032267"><ele>303.0</ele><time>2026-04-29T11:51:11.125Z</time></trkpt><trkpt lat="40.39241487383287" lon="8.47715661952595"><ele>303.0</ele><time>2026-04-29T11:51:12.124Z</time></trkpt><trkpt lat="40.392276926011256" lon="8.47738929179029"><ele>304.5</ele><time>2026-04-29T11:51:13.124Z</time></trkpt><trkpt lat="40.39215396678255" lon="8.477645793556238"><ele>306.0</ele><time>2026-04-29T11:51:14.125Z</time></trkpt><trkpt lat="40.39203368866626" lon="8.477914543782546"><ele>304.5</ele><time>2026-04-29T11:51:15.124Z</time></trkpt><trkpt lat="40.391913778960095" lon="8.478197333451039"><ele>303.0</ele><time>2026-04-29T11:51:16.124Z</time></trkpt><trkpt lat="40.39178040711836" lon="8.47847527414842"><ele>303.0</ele><time>2026-04-29T11:51:17.124Z</time></trkpt><trkpt lat="40.39163624624457" lon="8.478758908195191"><ele>303.0</ele><time>2026-04-29T11:51:18.124Z</time></trkpt><trkpt lat="40.391502808951046" lon="8.479040519998538"><ele>303.0</ele><time>2026-04-29T11:51:19.124Z</time></trkpt><trkpt lat="40.39136484842181" lon="8.479320493911521"><ele>303.0</ele><time>2026-04-29T11:51:20.124Z</time></trkpt><trkpt lat="40.391235168841824" lon="8.479603485005615"><ele>300.0</ele><time>2026-04-29T11:51:21.124Z</time></trkpt><trkpt lat="40.39110325121785" lon="8.47988448838268"><ele>297.0</ele><time>2026-04-29T11:51:22.124Z</time></trkpt><trkpt lat="40.3909611859494" lon="8.480155726748034"><ele>297.0</ele><time>2026-04-29T11:51:23.124Z</time></trkpt><trkpt lat="40.39082547364834" lon="8.480430336359003"><ele>297.0</ele><time>2026-04-29T11:51:24.124Z</time></trkpt><trkpt lat="40.39069363962444" lon="8.480696046355664"><ele>297.0</ele><time>2026-04-29T11:51:25.124Z</time></trkpt><trkpt lat="40.390569294322674" lon="8.480946028975433"><ele>297.0</ele><time>2026-04-29T11:51:26.124Z</time></trkpt><trkpt lat="40.39046250452756" lon="8.481179343479722"><ele>297.0</ele><time>2026-04-29T11:51:27.124Z</time></trkpt><trkpt lat="40.39039465479771" lon="8.481417319491824"><ele>295.6666666666667</ele><time>2026-04-29T11:51:28.124Z</time></trkpt><trkpt lat="40.39036155510876" lon="8.481696668342847"><ele>294.33333333333337</ele><time>2026-04-29T11:51:29.124Z</time></trkpt><trkpt lat="40.39036153018481" lon="8.481993347837363"><ele>293.0</ele><time>2026-04-29T11:51:30.124Z</time></trkpt><trkpt lat="40.39037222257807" lon="8.482251284400677"><ele>293.0</ele><time>2026-04-29T11:51:31.124Z</time></trkpt><trkpt lat="40.39041535175783" lon="8.482465508906781"><ele>293.0</ele><time>2026-04-29T11:51:32.124Z</time></trkpt><trkpt lat="40.390506509949645" lon="8.48263931165695"><ele>293.0</ele><time>2026-04-29T11:51:33.124Z</time></trkpt><trkpt lat="40.390669758416955" lon="8.482769408808993"><ele>293.0</ele><time>2026-04-29T11:51:34.124Z</time></trkpt><trkpt lat="40.39083200344721" lon="8.48289265270787"><ele>293.0</ele><time>2026-04-29T11:51:35.124Z</time></trkpt><trkpt lat="40.39093501721262" lon="8.483081121216939"><ele>293.0</ele><time>2026-04-29T11:51:36.124Z</time></trkpt><trkpt lat="40.390974227918065" lon="8.483312910054618"><ele>291.6666666666667</ele><time>2026-04-29T11:51:37.124Z</time></trkpt><trkpt lat="40.39093616179925" lon="8.4835446113775"><ele>290.3333333333333</ele><time>2026-04-29T11:51:38.124Z</time></trkpt><trkpt lat="40.390833118551456" lon="8.483768839605547"><ele>289.0</ele><time>2026-04-29T11:51:39.124Z</time></trkpt><trkpt lat="40.390700822398905" lon="8.483996047293484"><ele>287.66666666666663</ele><time>2026-04-29T11:51:40.124Z</time></trkpt><trkpt lat="40.390566802377265" lon="8.484234194025495"><ele>286.3333333333333</ele><time>2026-04-29T11:51:41.124Z</time></trkpt><trkpt lat="40.39042275797578" lon="8.484435747272533"><ele>285.0</ele><time>2026-04-29T11:51:42.124Z</time></trkpt><trkpt lat="40.39025831552864" lon="8.484566188085672"><ele>284.0</ele><time>2026-04-29T11:51:43.124Z</time></trkpt><trkpt lat="40.39007641919186" lon="8.484642374136463"><ele>283.0</ele><time>2026-04-29T11:51:44.124Z</time></trkpt><trkpt lat="40.389908761907094" lon="8.484720836969387"><ele>282.0</ele><time>2026-04-29T11:51:45.124Z</time></trkpt><trkpt lat="40.389787668626916" lon="8.484846125840404"><ele>282.0</ele><time>2026-04-29T11:51:46.124Z</time></trkpt><trkpt lat="40.389715992438724" lon="8.485042099501195"><ele>282.0</ele><time>2026-04-29T11:51:47.124Z</time></trkpt><trkpt lat="40.38969839872176" lon="8.485288143707047"><ele>282.0</ele><time>2026-04-29T11:51:48.124Z</time></trkpt><trkpt lat="40.38975131157269" lon="8.485532778874724"><ele>283.0</ele><time>2026-04-29T11:51:49.124Z</time></trkpt><trkpt lat="40.38986434056468" lon="8.485766338653022"><ele>284.0</ele><time>2026-04-29T11:51:50.124Z</time></trkpt><trkpt lat="40.389980551431066" lon="8.486026331136587"><ele>285.0</ele><time>2026-04-29T11:51:51.124Z</time></trkpt><trkpt lat="40.39007151115932" lon="8.486293144408132"><ele>286.3333333333333</ele><time>2026-04-29T11:51:52.124Z</time></trkpt><trkpt lat="40.39014831176275" lon="8.486542474683025"><ele>287.66666666666663</ele><time>2026-04-29T11:51:53.124Z</time></trkpt><trkpt lat="40.39021343759348" lon="8.486770301437778"><ele>289.0</ele><time>2026-04-29T11:51:54.124Z</time></trkpt><trkpt lat="40.39024567093995" lon="8.486982055761436"><ele>289.0</ele><time>2026-04-29T11:51:55.124Z</time></trkpt><trkpt lat="40.39021565491512" lon="8.487210541612628"><ele>289.0</ele><time>2026-04-29T11:51:56.124Z</time></trkpt><trkpt lat="40.39014391762384" lon="8.487456848822706"><ele>289.0</ele><time>2026-04-29T11:51:57.124Z</time></trkpt><trkpt lat="40.39003945750679" lon="8.487707353110501"><ele>288.66666666666663</ele><time>2026-04-29T11:51:58.124Z</time></trkpt><trkpt lat="40.38993334738227" lon="8.487968252472074"><ele>288.3333333333333</ele><time>2026-04-29T11:51:59.124Z</time></trkpt><trkpt lat="40.3898334915792" lon="8.488225608875156"><ele>288.0</ele><time>2026-04-29T11:52:00.124Z</time></trkpt><trkpt lat="40.38973469633832" lon="8.488487192912801"><ele>289.0</ele><time>2026-04-29T11:52:01.124Z</time></trkpt><trkpt lat="40.38963679335166" lon="8.488753498352464"><ele>290.0</ele><time>2026-04-29T11:52:02.124Z</time></trkpt><trkpt lat="40.38953585415884" lon="8.488995179994552"><ele>291.0</ele><time>2026-04-29T11:52:03.124Z</time></trkpt><trkpt lat="40.38940644106501" lon="8.489182920281339"><ele>291.0</ele><time>2026-04-29T11:52:04.124Z</time></trkpt><trkpt lat="40.389238275575934" lon="8.489339277813334"><ele>291.0</ele><time>2026-04-29T11:52:05.124Z</time></trkpt><trkpt lat="40.38904944977218" lon="8.489495464632666"><ele>291.0</ele><time>2026-04-29T11:52:06.124Z</time></trkpt><trkpt lat="40.38887445699515" lon="8.489648349873463"><ele>290.25</ele><time>2026-04-29T11:52:07.124Z</time></trkpt><trkpt lat="40.38872455848669" lon="8.489788011158838"><ele>289.5</ele><time>2026-04-29T11:52:08.124Z</time></trkpt><trkpt lat="40.388602507053186" lon="8.489876206059003"><ele>288.75</ele><time>2026-04-29T11:52:09.124Z</time></trkpt><trkpt lat="40.388483060589465" lon="8.489891893169865"><ele>288.0</ele><time>2026-04-29T11:52:10.124Z</time></trkpt><trkpt lat="40.38835350722959" lon="8.48982212745756"><ele>288.0</ele><time>2026-04-29T11:52:11.124Z</time></trkpt><trkpt lat="40.38822191217194" lon="8.489681990106414"><ele>288.0</ele><time>2026-04-29T11:52:12.124Z</time></trkpt><trkpt lat="40.38809965644898" lon="8.489493760536941"><ele>288.0</ele><time>2026-04-29T11:52:13.124Z</time></trkpt><trkpt lat="40.387964478251156" lon="8.489381239751959"><ele>287.3333333333333</ele><time>2026-04-29T11:52:14.124Z</time></trkpt><trkpt lat="40.38781236471013" lon="8.489340300405772"><ele>286.66666666666663</ele><time>2026-04-29T11:52:15.124Z</time></trkpt><trkpt lat="40.387626406991146" lon="8.489378860730284"><ele>286.0</ele><time>2026-04-29T11:52:16.124Z</time></trkpt><trkpt lat="40.387465256047385" lon="8.48943774529337"><ele>286.0</ele><time>2026-04-29T11:52:17.124Z</time></trkpt><trkpt lat="40.387347168184185" lon="8.489543710927187"><ele>286.0</ele><time>2026-04-29T11:52:18.124Z</time></trkpt><trkpt lat="40.38725544691485" lon="8.489718860334195"><ele>286.0</ele><time>2026-04-29T11:52:19.124Z</time></trkpt><trkpt lat="40.38719262162993" lon="8.489957447051529"><ele>283.0</ele><time>2026-04-29T11:52:20.124Z</time></trkpt><trkpt lat="40.38711429047221" lon="8.490208883347323"><ele>280.0</ele><time>2026-04-29T11:52:21.124Z</time></trkpt><trkpt lat="40.38701776332156" lon="8.490468032305692"><ele>277.0</ele><time>2026-04-29T11:52:22.124Z</time></trkpt><trkpt lat="40.386912596170205" lon="8.490720022585272"><ele>276.66666666666663</ele><time>2026-04-29T11:52:23.124Z</time></trkpt><trkpt lat="40.38680707672881" lon="8.490968564112741"><ele>276.3333333333333</ele><time>2026-04-29T11:52:24.124Z</time></trkpt><trkpt lat="40.3867095014276" lon="8.491211089420158"><ele>276.0</ele><time>2026-04-29T11:52:25.124Z</time></trkpt><trkpt lat="40.38662031137847" lon="8.491447090194225"><ele>274.6666666666667</ele><time>2026-04-29T11:52:26.124Z</time></trkpt><trkpt lat="40.38653287844314" lon="8.491645480449145"><ele>273.33333333333337</ele><time>2026-04-29T11:52:27.124Z</time></trkpt><trkpt lat="40.3864354688282" lon="8.491794430940962"><ele>272.0</ele><time>2026-04-29T11:52:28.124Z</time></trkpt><trkpt lat="40.386313061371546" lon="8.49189474380175"><ele>271.33333333333337</ele><time>2026-04-29T11:52:29.124Z</time></trkpt><trkpt lat="40.38615215276854" lon="8.491915577366491"><ele>270.6666666666667</ele><time>2026-04-29T11:52:30.124Z</time></trkpt><trkpt lat="40.38597607170213" lon="8.49181791864902"><ele>270.0</ele><time>2026-04-29T11:52:31.124Z</time></trkpt><trkpt lat="40.38581814236363" lon="8.491660817962584"><ele>270.0</ele><time>2026-04-29T11:52:32.124Z</time></trkpt><trkpt lat="40.38567971091266" lon="8.49146211994345"><ele>270.0</ele><time>2026-04-29T11:52:33.124Z</time></trkpt><trkpt lat="40.385536505093995" lon="8.491339723106048"><ele>270.0</ele><time>2026-04-29T11:52:34.124Z</time></trkpt><trkpt lat="40.3853857498531" lon="8.4913219343133"><ele>270.3333333333333</ele><time>2026-04-29T11:52:35.124Z</time></trkpt><trkpt lat="40.38522061015399" lon="8.491405465085125"><ele>270.66666666666663</ele><time>2026-04-29T11:52:36.124Z</time></trkpt><trkpt lat="40.385036420033295" lon="8.491550822161042"><ele>271.0</ele><time>2026-04-29T11:52:37.124Z</time></trkpt><trkpt lat="40.384845878697675" lon="8.49167895478053"><ele>271.66666666666663</ele><time>2026-04-29T11:52:38.124Z</time></trkpt><trkpt lat="40.38464519334598" lon="8.491789933674303"><ele>272.3333333333333</ele><time>2026-04-29T11:52:39.124Z</time></trkpt><trkpt lat="40.38443163214911" lon="8.491900812135887"><ele>273.0</ele><time>2026-04-29T11:52:40.124Z</time></trkpt><trkpt lat="40.38421363205899" lon="8.492014616065376"><ele>273.5</ele><time>2026-04-29T11:52:41.124Z</time></trkpt><trkpt lat="40.38400469382291" lon="8.492139043695754"><ele>274.0</ele><time>2026-04-29T11:52:42.124Z</time></trkpt><trkpt lat="40.383807135163096" lon="8.492288622014664"><ele>274.0</ele><time>2026-04-29T11:52:43.124Z</time></trkpt><trkpt lat="40.38362369983846" lon="8.492482545960184"><ele>274.0</ele><time>2026-04-29T11:52:44.124Z</time></trkpt><trkpt lat="40.38345196523962" lon="8.492699616180916"><ele>274.0</ele><time>2026-04-29T11:52:45.124Z</time></trkpt><trkpt lat="40.383276695172896" lon="8.492910072543143"><ele>274.0</ele><time>2026-04-29T11:52:46.124Z</time></trkpt><trkpt lat="40.38308901046499" lon="8.493113379986658"><ele>274.5</ele><time>2026-04-29T11:52:47.124Z</time></trkpt><trkpt lat="40.38289698004815" lon="8.493317503000478"><ele>275.0</ele><time>2026-04-29T11:52:48.124Z</time></trkpt><trkpt lat="40.38271166026499" lon="8.49351869283956"><ele>275.0</ele><time>2026-04-29T11:52:49.124Z</time></trkpt><trkpt lat="40.382540197670615" lon="8.493699822266137"><ele>275.0</ele><time>2026-04-29T11:52:50.124Z</time></trkpt><trkpt lat="40.382390233105546" lon="8.493868995944464"><ele>275.0</ele><time>2026-04-29T11:52:51.124Z</time></trkpt><trkpt lat="40.382268047279304" lon="8.494055085272418"><ele>275.33333333333337</ele><time>2026-04-29T11:52:52.124Z</time></trkpt><trkpt lat="40.38218415283186" lon="8.49430520746101"><ele>275.6666666666667</ele><time>2026-04-29T11:52:53.124Z</time></trkpt><trkpt lat="40.382114133692376" lon="8.49455515687277"><ele>276.0</ele><time>2026-04-29T11:52:54.124Z</time></trkpt><trkpt lat="40.382061920259375" lon="8.494786752725714"><ele>276.0</ele><time>2026-04-29T11:52:55.124Z</time></trkpt><trkpt lat="40.38203756301076" lon="8.495015815210053"><ele>276.0</ele><time>2026-04-29T11:52:56.124Z</time></trkpt><trkpt lat="40.38206771088133" lon="8.495252833231639"><ele>276.0</ele><time>2026-04-29T11:52:57.124Z</time></trkpt><trkpt lat="40.38211529934429" lon="8.495499138400858"><ele>276.0</ele><time>2026-04-29T11:52:58.124Z</time></trkpt><trkpt lat="40.38216548361802" lon="8.495763172693566"><ele>276.0</ele><time>2026-04-29T11:52:59.124Z</time></trkpt><trkpt lat="40.38220880637946" lon="8.496041637590384"><ele>276.0</ele><time>2026-04-29T11:53:00.124Z</time></trkpt><trkpt lat="40.38222224343982" lon="8.496326980136407"><ele>277.3333333333333</ele><time>2026-04-29T11:53:01.124Z</time></trkpt><trkpt lat="40.38220919565397" lon="8.496615307335155"><ele>278.66666666666663</ele><time>2026-04-29T11:53:02.124Z</time></trkpt><trkpt lat="40.38217539157685" lon="8.496890600533527"><ele>280.0</ele><time>2026-04-29T11:53:03.124Z</time></trkpt><trkpt lat="40.38213777732543" lon="8.497142213275053"><ele>281.66666666666663</ele><time>2026-04-29T11:53:04.124Z</time></trkpt><trkpt lat="40.382121447241225" lon="8.49737378772843"><ele>283.3333333333333</ele><time>2026-04-29T11:53:05.124Z</time></trkpt><trkpt lat="40.38215047208112" lon="8.497602860555745"><ele>285.0</ele><time>2026-04-29T11:53:06.124Z</time></trkpt><trkpt lat="40.38221462595702" lon="8.497833351792572"><ele>288.3333333333333</ele><time>2026-04-29T11:53:07.124Z</time></trkpt><trkpt lat="40.38230649795389" lon="8.498062021652762"><ele>291.66666666666663</ele><time>2026-04-29T11:53:08.125Z</time></trkpt><trkpt lat="40.38241848010698" lon="8.498292642757681"><ele>295.0</ele><time>2026-04-29T11:53:09.125Z</time></trkpt><trkpt lat="40.382555928937656" lon="8.49851613377577"><ele>295.0</ele><time>2026-04-29T11:53:10.125Z</time></trkpt><trkpt lat="40.3827020450936" lon="8.498734553262498"><ele>295.0</ele><time>2026-04-29T11:53:11.125Z</time></trkpt><trkpt lat="40.38284788026274" lon="8.498934701268983"><ele>295.0</ele><time>2026-04-29T11:53:12.126Z</time></trkpt><trkpt lat="40.38300271069765" lon="8.499101253570766"><ele>297.0</ele><time>2026-04-29T11:53:13.126Z</time></trkpt><trkpt lat="40.38318535974602" lon="8.499228968803335"><ele>299.0</ele><time>2026-04-29T11:53:14.126Z</time></trkpt><trkpt lat="40.38338613097043" lon="8.499335472773042"><ele>301.0</ele><time>2026-04-29T11:53:15.125Z</time></trkpt><trkpt lat="40.383576833079935" lon="8.499416927626383"><ele>301.0</ele><time>2026-04-29T11:53:16.125Z</time></trkpt><trkpt lat="40.38374811463264" lon="8.49947962631922"><ele>301.0</ele><time>2026-04-29T11:53:17.126Z</time></trkpt><trkpt lat="40.38390895922388" lon="8.499525027116706"><ele>301.0</ele><time>2026-04-29T11:53:18.126Z</time></trkpt><trkpt lat="40.38406795890117" lon="8.499529795086362"><ele>300.75</ele><time>2026-04-29T11:53:19.126Z</time></trkpt><trkpt lat="40.384202057494946" lon="8.49956450969074"><ele>300.5</ele><time>2026-04-29T11:53:20.125Z</time></trkpt><trkpt lat="40.38430250315357" lon="8.499670782418434"><ele>300.25</ele><time>2026-04-29T11:53:21.126Z</time></trkpt><trkpt lat="40.38439787618711" lon="8.499833938903643"><ele>300.0</ele><time>2026-04-29T11:53:22.126Z</time></trkpt><trkpt lat="40.38450580852658" lon="8.500016289040168"><ele>302.6666666666667</ele><time>2026-04-29T11:53:23.126Z</time></trkpt><trkpt lat="40.38460764137662" lon="8.500198674202014"><ele>305.33333333333337</ele><time>2026-04-29T11:53:24.126Z</time></trkpt><trkpt lat="40.38467047355658" lon="8.50036984204505"><ele>308.0</ele><time>2026-04-29T11:53:25.126Z</time></trkpt><trkpt lat="40.38469500118252" lon="8.500558837236431"><ele>308.0</ele><time>2026-04-29T11:53:26.126Z</time></trkpt><trkpt lat="40.384684464520795" lon="8.500763122326328"><ele>308.0</ele><time>2026-04-29T11:53:27.126Z</time></trkpt><trkpt lat="40.384652726559445" lon="8.50098896082656"><ele>308.0</ele><time>2026-04-29T11:53:28.126Z</time></trkpt><trkpt lat="40.38463660992005" lon="8.501238141913541"><ele>308.6666666666667</ele><time>2026-04-29T11:53:29.126Z</time></trkpt><trkpt lat="40.38465248812947" lon="8.501492363342653"><ele>309.3333333333333</ele><time>2026-04-29T11:53:30.126Z</time></trkpt><trkpt lat="40.38468552384428" lon="8.501758343630923"><ele>310.0</ele><time>2026-04-29T11:53:31.126Z</time></trkpt><trkpt lat="40.38471344981536" lon="8.501992780130617"><ele>313.0</ele><time>2026-04-29T11:53:32.126Z</time></trkpt><trkpt lat="40.38476054355606" lon="8.502232740207337"><ele>316.0</ele><time>2026-04-29T11:53:33.126Z</time></trkpt><trkpt lat="40.38483321658531" lon="8.502444487541577"><ele>319.0</ele><time>2026-04-29T11:53:34.126Z</time></trkpt><trkpt lat="40.38493591369092" lon="8.502636902315704"><ele>319.0</ele><time>2026-04-29T11:53:35.126Z</time></trkpt><trkpt lat="40.38504025105054" lon="8.502790910699636"><ele>319.0</ele><time>2026-04-29T11:53:36.126Z</time></trkpt><trkpt lat="40.38512573803307" lon="8.502918328486016"><ele>319.0</ele><time>2026-04-29T11:53:37.126Z</time></trkpt><trkpt lat="40.385184753001745" lon="8.503018204103924"><ele>319.0</ele><time>2026-04-29T11:53:38.126Z</time></trkpt><trkpt lat="40.38521910425271" lon="8.503112350698085"><ele>319.0</ele><time>2026-04-29T11:53:39.126Z</time></trkpt><trkpt lat="40.385207971149285" lon="8.503204123122787"><ele>319.0</ele><time>2026-04-29T11:53:40.126Z</time></trkpt><trkpt lat="40.3851609895424" lon="8.503260968718218"><ele>319.0</ele><time>2026-04-29T11:53:41.126Z</time></trkpt><trkpt lat="40.38502592054409" lon="8.503190607212046"><ele>319.0</ele><time>2026-04-29T11:53:43.126Z</time></trkpt><trkpt lat="40.38496485963759" lon="8.503049198596381"><ele>319.0</ele><time>2026-04-29T11:53:44.126Z</time></trkpt><trkpt lat="40.38488184433775" lon="8.502901330005702"><ele>319.0</ele><time>2026-04-29T11:53:45.126Z</time></trkpt><trkpt lat="40.384776168234644" lon="8.502743074366105"><ele>319.0</ele><time>2026-04-29T11:53:46.126Z</time></trkpt><trkpt lat="40.38465549805535" lon="8.502573515761991"><ele>319.0</ele><time>2026-04-29T11:53:47.126Z</time></trkpt><trkpt lat="40.38452707780827" lon="8.502391431400333"><ele>321.66666666666663</ele><time>2026-04-29T11:53:48.126Z</time></trkpt><trkpt lat="40.384381191963" lon="8.502212200052037"><ele>324.3333333333333</ele><time>2026-04-29T11:53:49.126Z</time></trkpt><trkpt lat="40.38422374424515" lon="8.502030682570838"><ele>327.0</ele><time>2026-04-29T11:53:50.126Z</time></trkpt><trkpt lat="40.38406436895536" lon="8.501857160591912"><ele>327.0</ele><time>2026-04-29T11:53:51.126Z</time></trkpt><trkpt lat="40.38390083578818" lon="8.501709698461447"><ele>327.0</ele><time>2026-04-29T11:53:52.126Z</time></trkpt><trkpt lat="40.38372680379298" lon="8.501595344969827"><ele>327.0</ele><time>2026-04-29T11:53:53.126Z</time></trkpt><trkpt lat="40.38353554873443" lon="8.50151301302158"><ele>331.6666666666667</ele><time>2026-04-29T11:53:54.126Z</time></trkpt><trkpt lat="40.38333826990224" lon="8.501443348547365"><ele>336.33333333333337</ele><time>2026-04-29T11:53:55.126Z</time></trkpt><trkpt lat="40.38312981575062" lon="8.501385160802714"><ele>341.0</ele><time>2026-04-29T11:53:56.126Z</time></trkpt><trkpt lat="40.382918650874224" lon="8.501324894330732"><ele>339.33333333333337</ele><time>2026-04-29T11:53:57.126Z</time></trkpt><trkpt lat="40.38270584567549" lon="8.5012584915216"><ele>337.6666666666667</ele><time>2026-04-29T11:53:58.126Z</time></trkpt><trkpt lat="40.38248997960303" lon="8.501182362513255"><ele>336.0</ele><time>2026-04-29T11:53:59.126Z</time></trkpt><trkpt lat="40.382272530562716" lon="8.501097649423693"><ele>343.0</ele><time>2026-04-29T11:54:00.126Z</time></trkpt><trkpt lat="40.382055835951675" lon="8.50100732983377"><ele>350.0</ele><time>2026-04-29T11:54:01.126Z</time></trkpt><trkpt lat="40.38183783995515" lon="8.500906998426535"><ele>350.0</ele><time>2026-04-29T11:54:02.126Z</time></trkpt><trkpt lat="40.381620112264734" lon="8.5008079723746"><ele>350.0</ele><time>2026-04-29T11:54:03.126Z</time></trkpt><trkpt lat="40.38140106613245" lon="8.500722201383008"><ele>354.6666666666667</ele><time>2026-04-29T11:54:04.126Z</time></trkpt><trkpt lat="40.381187130874736" lon="8.50064937729606"><ele>359.3333333333333</ele><time>2026-04-29T11:54:05.126Z</time></trkpt><trkpt lat="40.38096733771312" lon="8.500584932354194"><ele>364.0</ele><time>2026-04-29T11:54:06.126Z</time></trkpt><trkpt lat="40.3807425071358" lon="8.500524488638268"><ele>364.0</ele><time>2026-04-29T11:54:07.126Z</time></trkpt><trkpt lat="40.380519580778504" lon="8.500464334256302"><ele>364.0</ele><time>2026-04-29T11:54:08.126Z</time></trkpt><trkpt lat="40.38028528289756" lon="8.500401647275027"><ele>362.3333333333333</ele><time>2026-04-29T11:54:09.126Z</time></trkpt><trkpt lat="40.38006805246444" lon="8.500308700720108"><ele>360.6666666666667</ele><time>2026-04-29T11:54:10.126Z</time></trkpt><trkpt lat="40.37985510602832" lon="8.500237970481706"><ele>359.0</ele><time>2026-04-29T11:54:11.126Z</time></trkpt><trkpt lat="40.37963682441653" lon="8.50018903813923"><ele>359.0</ele><time>2026-04-29T11:54:12.126Z</time></trkpt><trkpt lat="40.379420603660925" lon="8.500165300621672"><ele>359.0</ele><time>2026-04-29T11:54:13.126Z</time></trkpt><trkpt lat="40.379216531222895" lon="8.500147401452477"><ele>359.0</ele><time>2026-04-29T11:54:14.126Z</time></trkpt><trkpt lat="40.37902242504578" lon="8.500116927142514"><ele>364.33333333333337</ele><time>2026-04-29T11:54:15.126Z</time></trkpt><trkpt lat="40.37883861074004" lon="8.500055392024201"><ele>369.6666666666667</ele><time>2026-04-29T11:54:16.126Z</time></trkpt><trkpt lat="40.37865223492793" lon="8.49998632540243"><ele>375.0</ele><time>2026-04-29T11:54:17.126Z</time></trkpt><trkpt lat="40.37845966605855" lon="8.499911458568683"><ele>375.0</ele><time>2026-04-29T11:54:18.126Z</time></trkpt><trkpt lat="40.37826357863612" lon="8.499852493281441"><ele>375.0</ele><time>2026-04-29T11:54:19.126Z</time></trkpt><trkpt lat="40.378067078741104" lon="8.499791612822802"><ele>375.0</ele><time>2026-04-29T11:54:20.126Z</time></trkpt><trkpt lat="40.37786961053577" lon="8.499719925321276"><ele>372.6666666666667</ele><time>2026-04-29T11:54:21.126Z</time></trkpt><trkpt lat="40.37767361574777" lon="8.499637408703773"><ele>370.33333333333337</ele><time>2026-04-29T11:54:22.126Z</time></trkpt><trkpt lat="40.37747320464414" lon="8.499559242477115"><ele>368.0</ele><time>2026-04-29T11:54:23.126Z</time></trkpt><trkpt lat="40.37726944652654" lon="8.499481746038173"><ele>373.0</ele><time>2026-04-29T11:54:24.126Z</time></trkpt><trkpt lat="40.37707935238935" lon="8.499400956916567"><ele>378.0</ele><time>2026-04-29T11:54:25.126Z</time></trkpt><trkpt lat="40.37690256812406" lon="8.499317704902353"><ele>383.0</ele><time>2026-04-29T11:54:26.126Z</time></trkpt><trkpt lat="40.37673252599749" lon="8.499223541630103"><ele>383.0</ele><time>2026-04-29T11:54:27.126Z</time></trkpt><trkpt lat="40.37656472012115" lon="8.499128604310767"><ele>383.0</ele><time>2026-04-29T11:54:28.126Z</time></trkpt><trkpt lat="40.37640564982437" lon="8.499036872202728"><ele>383.0</ele><time>2026-04-29T11:54:29.126Z</time></trkpt><trkpt lat="40.37624877611494" lon="8.498963011931107"><ele>387.6666666666667</ele><time>2026-04-29T11:54:30.126Z</time></trkpt><trkpt lat="40.37608250856715" lon="8.498913714871046"><ele>392.33333333333337</ele><time>2026-04-29T11:54:31.125Z</time></trkpt><trkpt lat="40.375920344374975" lon="8.49888885350994"><ele>397.0</ele><time>2026-04-29T11:54:32.125Z</time></trkpt><trkpt lat="40.37575824070607" lon="8.498892510097395"><ele>397.0</ele><time>2026-04-29T11:54:33.125Z</time></trkpt><trkpt lat="40.37559911981579" lon="8.498934379415614"><ele>397.0</ele><time>2026-04-29T11:54:34.125Z</time></trkpt><trkpt lat="40.375448257268395" lon="8.498977347672678"><ele>397.0</ele><time>2026-04-29T11:54:35.125Z</time></trkpt><trkpt lat="40.37531384350585" lon="8.499026047859454"><ele>397.0</ele><time>2026-04-29T11:54:36.125Z</time></trkpt><trkpt lat="40.37519113605128" lon="8.499081692334183"><ele>397.0</ele><time>2026-04-29T11:54:37.125Z</time></trkpt><trkpt lat="40.3750929177252" lon="8.499161575974286"><ele>397.0</ele><time>2026-04-29T11:54:38.125Z</time></trkpt><trkpt lat="40.37500941750301" lon="8.499272565427846"><ele>397.0</ele><time>2026-04-29T11:54:39.125Z</time></trkpt><trkpt lat="40.37494129641364" lon="8.499382031048931"><ele>397.00000000000006</ele><time>2026-04-29T11:54:40.125Z</time></trkpt><trkpt lat="40.374898451154316" lon="8.499492279067024"><ele>397.0</ele><time>2026-04-29T11:54:41.125Z</time></trkpt><trkpt lat="40.374872972138014" lon="8.499601234474797"><ele>397.0</ele><time>2026-04-29T11:54:42.125Z</time></trkpt><trkpt lat="40.37485350822685" lon="8.499699281536786"><ele>397.0</ele><time>2026-04-29T11:54:43.125Z</time></trkpt><trkpt lat="40.37483899381447" lon="8.499788495046976"><ele>397.00000000000006</ele><time>2026-04-29T11:54:44.125Z</time></trkpt><trkpt lat="40.37480315767626" lon="8.499933060373012"><ele>397.0</ele><time>2026-04-29T11:54:46.125Z</time></trkpt><trkpt lat="40.374748301809454" lon="8.500055419495999"><ele>398.25</ele><time>2026-04-29T11:54:48.125Z</time></trkpt><trkpt lat="40.37467428787887" lon="8.500150999412833"><ele>399.5</ele><time>2026-04-29T11:54:50.125Z</time></trkpt><trkpt lat="40.37459659722032" lon="8.500256027054597"><ele>400.75</ele><time>2026-04-29T11:54:52.125Z</time></trkpt><trkpt lat="40.37449082597359" lon="8.500329534998112"><ele>402.0</ele><time>2026-04-29T11:54:54.125Z</time></trkpt><trkpt lat="40.37436474968526" lon="8.500309275446625"><ele>402.0</ele><time>2026-04-29T11:54:56.125Z</time></trkpt><trkpt lat="40.374292759010544" lon="8.500261925685919"><ele>402.0</ele><time>2026-04-29T11:54:57.125Z</time></trkpt><trkpt lat="40.374229890913924" lon="8.500224471408472"><ele>402.0</ele><time>2026-04-29T11:54:58.125Z</time></trkpt><trkpt lat="40.374190860741926" lon="8.500159366569678"><ele>402.0</ele><time>2026-04-29T11:54:59.125Z</time></trkpt><trkpt lat="40.37422698595461" lon="8.500004772841848"><ele>402.0</ele><time>2026-04-29T11:55:01.125Z</time></trkpt><trkpt lat="40.374255728627425" lon="8.499918593124324"><ele>402.0</ele><time>2026-04-29T11:55:02.125Z</time></trkpt><trkpt lat="40.37427002532267" lon="8.499830086904769"><ele>402.0</ele><time>2026-04-29T11:55:03.125Z</time></trkpt><trkpt lat="40.374290614569475" lon="8.49975028178062"><ele>402.0</ele><time>2026-04-29T11:55:04.125Z</time></trkpt><trkpt lat="40.37430622119318" lon="8.499647995830829"><ele>402.0</ele><time>2026-04-29T11:55:05.125Z</time></trkpt><trkpt lat="40.37431900323998" lon="8.499543054433717"><ele>402.0</ele><time>2026-04-29T11:55:06.125Z</time></trkpt><trkpt lat="40.374318803522485" lon="8.499433570928362"><ele>402.0</ele><time>2026-04-29T11:55:07.125Z</time></trkpt><trkpt lat="40.374325085860534" lon="8.49933169197299"><ele>402.0</ele><time>2026-04-29T11:55:08.125Z</time></trkpt><trkpt lat="40.374327208864344" lon="8.499233973246923"><ele>401.6</ele><time>2026-04-29T11:55:09.125Z</time></trkpt><trkpt lat="40.374309338559016" lon="8.499136828192933"><ele>401.20000000000005</ele><time>2026-04-29T11:55:10.125Z</time></trkpt><trkpt lat="40.374287444621196" lon="8.499024411761786"><ele>400.8</ele><time>2026-04-29T11:55:11.125Z</time></trkpt><trkpt lat="40.3742661050198" lon="8.498903350571029"><ele>400.4</ele><time>2026-04-29T11:55:12.125Z</time></trkpt><trkpt lat="40.374242958636444" lon="8.498781178331232"><ele>400.0</ele><time>2026-04-29T11:55:13.125Z</time></trkpt><trkpt lat="40.37422630964578" lon="8.498658780143858"><ele>399.50000000000006</ele><time>2026-04-29T11:55:14.127Z</time></trkpt><trkpt lat="40.374205441172926" lon="8.498542291296488"><ele>399.0</ele><time>2026-04-29T11:55:15.127Z</time></trkpt><trkpt lat="40.374176982273255" lon="8.498430692933429"><ele>398.5</ele><time>2026-04-29T11:55:16.127Z</time></trkpt><trkpt lat="40.374139965210006" lon="8.498330941894103"><ele>398.0</ele><time>2026-04-29T11:55:17.126Z</time></trkpt><trkpt lat="40.37409613572005" lon="8.49823202138464"><ele>397.50000000000006</ele><time>2026-04-29T11:55:18.127Z</time></trkpt><trkpt lat="40.374025493137104" lon="8.498164610673765"><ele>397.0</ele><time>2026-04-29T11:55:19.127Z</time></trkpt><trkpt lat="40.37395433092022" lon="8.498089881093055"><ele>397.0</ele><time>2026-04-29T11:55:20.126Z</time></trkpt><trkpt lat="40.373866452554886" lon="8.498020657902323"><ele>397.0</ele><time>2026-04-29T11:55:21.126Z</time></trkpt><trkpt lat="40.37377745047436" lon="8.497942275872509"><ele>397.0</ele><time>2026-04-29T11:55:22.126Z</time></trkpt><trkpt lat="40.373681943907165" lon="8.497853113302401"><ele>397.0</ele><time>2026-04-29T11:55:23.127Z</time></trkpt><trkpt lat="40.37358756698929" lon="8.497748033973615"><ele>400.5</ele><time>2026-04-29T11:55:24.127Z</time></trkpt><trkpt lat="40.373492042720976" lon="8.497636475491941"><ele>404.0</ele><time>2026-04-29T11:55:25.127Z</time></trkpt><trkpt lat="40.373394662494555" lon="8.497521972993448"><ele>407.5</ele><time>2026-04-29T11:55:26.127Z</time></trkpt><trkpt lat="40.373299155935044" lon="8.497416211486426"><ele>411.0</ele><time>2026-04-29T11:55:27.126Z</time></trkpt><trkpt lat="40.37319621738195" lon="8.497317400550886"><ele>411.0</ele><time>2026-04-29T11:55:28.126Z</time></trkpt><trkpt lat="40.37309374595796" lon="8.497211281147123"><ele>411.0</ele><time>2026-04-29T11:55:29.126Z</time></trkpt><trkpt lat="40.373004696267785" lon="8.497074859910226"><ele>411.0</ele><time>2026-04-29T11:55:30.126Z</time></trkpt><trkpt lat="40.37293481488071" lon="8.49692488356459"><ele>411.0</ele><time>2026-04-29T11:55:31.126Z</time></trkpt><trkpt lat="40.372869031721685" lon="8.496775176351658"><ele>411.75</ele><time>2026-04-29T11:55:32.126Z</time></trkpt><trkpt lat="40.3728013441951" lon="8.496627081691178"><ele>412.5</ele><time>2026-04-29T11:55:33.126Z</time></trkpt><trkpt lat="40.37273581235784" lon="8.49648418436797"><ele>413.25</ele><time>2026-04-29T11:55:34.126Z</time></trkpt><trkpt lat="40.37266223083608" lon="8.496343548093872"><ele>414.0</ele><time>2026-04-29T11:55:35.126Z</time></trkpt><trkpt lat="40.372585218076644" lon="8.496198596476084"><ele>414.0</ele><time>2026-04-29T11:55:36.126Z</time></trkpt><trkpt lat="40.37251620548755" lon="8.49604902201022"><ele>414.0</ele><time>2026-04-29T11:55:37.126Z</time></trkpt><trkpt lat="40.37245134255988" lon="8.495892043573058"><ele>414.0</ele><time>2026-04-29T11:55:38.126Z</time></trkpt><trkpt lat="40.37238809298825" lon="8.4957439423799"><ele>414.0</ele><time>2026-04-29T11:55:39.126Z</time></trkpt><trkpt lat="40.372320901757895" lon="8.495606919452042"><ele>414.0</ele><time>2026-04-29T11:55:40.126Z</time></trkpt><trkpt lat="40.37224462808645" lon="8.495475096888324"><ele>414.0</ele><time>2026-04-29T11:55:41.126Z</time></trkpt><trkpt lat="40.3721561550011" lon="8.49535455060547"><ele>414.0</ele><time>2026-04-29T11:55:42.126Z</time></trkpt><trkpt lat="40.372063882117004" lon="8.495234961757586"><ele>414.0</ele><time>2026-04-29T11:55:43.126Z</time></trkpt><trkpt lat="40.371977799875985" lon="8.495112229445896"><ele>416.5</ele><time>2026-04-29T11:55:44.126Z</time></trkpt><trkpt lat="40.37189510447922" lon="8.494981171331581"><ele>419.0</ele><time>2026-04-29T11:55:45.126Z</time></trkpt><trkpt lat="40.37181058228003" lon="8.494850089341911"><ele>421.5</ele><time>2026-04-29T11:55:46.126Z</time></trkpt><trkpt lat="40.37173523670437" lon="8.494719547459711"><ele>424.0</ele><time>2026-04-29T11:55:47.126Z</time></trkpt><trkpt lat="40.371659408341564" lon="8.494588865090448"><ele>423.25</ele><time>2026-04-29T11:55:48.126Z</time></trkpt><trkpt lat="40.37157929158336" lon="8.494468873777368"><ele>422.5</ele><time>2026-04-29T11:55:49.126Z</time></trkpt><trkpt lat="40.371493928597076" lon="8.49436168976038"><ele>421.75</ele><time>2026-04-29T11:55:50.126Z</time></trkpt><trkpt lat="40.37140192233498" lon="8.494264427592045"><ele>421.0</ele><time>2026-04-29T11:55:51.126Z</time></trkpt><trkpt lat="40.37130728149949" lon="8.494166128457266"><ele>423.0</ele><time>2026-04-29T11:55:52.126Z</time></trkpt><trkpt lat="40.37121462857936" lon="8.494071069702487"><ele>425.0</ele><time>2026-04-29T11:55:53.126Z</time></trkpt><trkpt lat="40.371126365809666" lon="8.493978816485432"><ele>427.0</ele><time>2026-04-29T11:55:54.126Z</time></trkpt><trkpt lat="40.37104929842398" lon="8.493869906273968"><ele>429.0</ele><time>2026-04-29T11:55:55.126Z</time></trkpt><trkpt lat="40.37099929701988" lon="8.493736322636051"><ele>429.0</ele><time>2026-04-29T11:55:56.126Z</time></trkpt><trkpt lat="40.37097364446916" lon="8.49358684927591"><ele>429.0</ele><time>2026-04-29T11:55:57.126Z</time></trkpt><trkpt lat="40.3709509758232" lon="8.493441136511303"><ele>429.0</ele><time>2026-04-29T11:55:58.126Z</time></trkpt><trkpt lat="40.37091558649341" lon="8.493301194665955"><ele>429.0</ele><time>2026-04-29T11:55:59.126Z</time></trkpt><trkpt lat="40.37085744212608" lon="8.493176582525715"><ele>429.0</ele><time>2026-04-29T11:56:00.126Z</time></trkpt><trkpt lat="40.37078490673031" lon="8.493065118938787"><ele>429.0</ele><time>2026-04-29T11:56:01.126Z</time></trkpt><trkpt lat="40.370702960910265" lon="8.49296711142667"><ele>429.0</ele><time>2026-04-29T11:56:02.126Z</time></trkpt><trkpt lat="40.37060445777903" lon="8.492880774927038"><ele>429.0</ele><time>2026-04-29T11:56:03.126Z</time></trkpt><trkpt lat="40.370487504564885" lon="8.492821663881413"><ele>430.6</ele><time>2026-04-29T11:56:04.126Z</time></trkpt><trkpt lat="40.37036720084826" lon="8.492776981524296"><ele>432.2</ele><time>2026-04-29T11:56:05.126Z</time></trkpt><trkpt lat="40.3702480892736" lon="8.492742226467215"><ele>433.80000000000007</ele><time>2026-04-29T11:56:06.126Z</time></trkpt><trkpt lat="40.37014491349441" lon="8.492705944575658"><ele>435.40000000000003</ele><time>2026-04-29T11:56:07.126Z</time></trkpt><trkpt lat="40.370059023751296" lon="8.492679325378385"><ele>437.0</ele><time>2026-04-29T11:56:08.126Z</time></trkpt><trkpt lat="40.36996628793698" lon="8.49265011434627"><ele>437.0</ele><time>2026-04-29T11:56:10.126Z</time></trkpt><trkpt lat="40.37002369180176" lon="8.492710519553375"><ele>437.0</ele><time>2026-04-29T11:56:26.126Z</time></trkpt><trkpt lat="40.37018569131022" lon="8.492768917705716"><ele>437.0</ele><time>2026-04-29T11:56:28.126Z</time></trkpt><trkpt lat="40.370308144563566" lon="8.492811378365179"><ele>437.0</ele><time>2026-04-29T11:56:29.126Z</time></trkpt><trkpt lat="40.370408340451704" lon="8.492841142409032"><ele>437.0</ele><time>2026-04-29T11:56:30.126Z</time></trkpt><trkpt lat="40.37051637595968" lon="8.492885494592171"><ele>437.0</ele><time>2026-04-29T11:56:31.126Z</time></trkpt><trkpt lat="40.370622525178" lon="8.492955389450538"><ele>437.0</ele><time>2026-04-29T11:56:32.126Z</time></trkpt><trkpt lat="40.37072185049088" lon="8.49305299553919"><ele>437.0</ele><time>2026-04-29T11:56:33.126Z</time></trkpt><trkpt lat="40.37081094819643" lon="8.493171712641132"><ele>436.5</ele><time>2026-04-29T11:56:34.126Z</time></trkpt><trkpt lat="40.37088472805931" lon="8.493312520176357"><ele>436.0</ele><time>2026-04-29T11:56:35.126Z</time></trkpt><trkpt lat="40.37093726642232" lon="8.493471933382356"><ele>435.5</ele><time>2026-04-29T11:56:36.126Z</time></trkpt><trkpt lat="40.37097009841306" lon="8.493630363598813"><ele>435.0</ele><time>2026-04-29T11:56:37.126Z</time></trkpt><trkpt lat="40.37100775889599" lon="8.493775089749539"><ele>435.0</ele><time>2026-04-29T11:56:38.126Z</time></trkpt><trkpt lat="40.37106707111316" lon="8.493907847154636"><ele>435.0</ele><time>2026-04-29T11:56:39.126Z</time></trkpt><trkpt lat="40.37115265780769" lon="8.494019512492182"><ele>435.0</ele><time>2026-04-29T11:56:40.126Z</time></trkpt><trkpt lat="40.37125013161114" lon="8.49412092594261"><ele>435.0</ele><time>2026-04-29T11:56:41.126Z</time></trkpt><trkpt lat="40.37135269466513" lon="8.494216258067084"><ele>432.25</ele><time>2026-04-29T11:56:42.126Z</time></trkpt><trkpt lat="40.37145347804084" lon="8.49431978648382"><ele>429.5</ele><time>2026-04-29T11:56:43.126Z</time></trkpt><trkpt lat="40.37154721721903" lon="8.494438500076162"><ele>426.75</ele><time>2026-04-29T11:56:44.126Z</time></trkpt><trkpt lat="40.37163019873999" lon="8.494570285836767"><ele>424.0</ele><time>2026-04-29T11:56:45.126Z</time></trkpt><trkpt lat="40.37171034052911" lon="8.494706009676277"><ele>424.0</ele><time>2026-04-29T11:56:46.126Z</time></trkpt><trkpt lat="40.37178984321585" lon="8.494841427970435"><ele>424.0</ele><time>2026-04-29T11:56:47.126Z</time></trkpt><trkpt lat="40.371870678660194" lon="8.494976708145577"><ele>424.0</ele><time>2026-04-29T11:56:48.126Z</time></trkpt><trkpt lat="40.37196283536781" lon="8.495111235316296"><ele>424.0</ele><time>2026-04-29T11:56:49.126Z</time></trkpt><trkpt lat="40.372056121944965" lon="8.495235840829492"><ele>424.0</ele><time>2026-04-29T11:56:50.126Z</time></trkpt><trkpt lat="40.37214443384871" lon="8.49536058256225"><ele>424.0</ele><time>2026-04-29T11:56:51.126Z</time></trkpt><trkpt lat="40.372230372304635" lon="8.495486594838317"><ele>424.0</ele><time>2026-04-29T11:56:52.126Z</time></trkpt><trkpt lat="40.372309989224604" lon="8.495609676756798"><ele>424.0</ele><time>2026-04-29T11:56:53.126Z</time></trkpt><trkpt lat="40.37237697597098" lon="8.495739460727894"><ele>423.2</ele><time>2026-04-29T11:56:54.126Z</time></trkpt><trkpt lat="40.37243159825361" lon="8.49587181543138"><ele>422.4</ele><time>2026-04-29T11:56:55.126Z</time></trkpt><trkpt lat="40.37248274508522" lon="8.495997300085493"><ele>421.6</ele><time>2026-04-29T11:56:56.126Z</time></trkpt><trkpt lat="40.37252833138152" lon="8.496101872470286"><ele>420.8</ele><time>2026-04-29T11:56:57.126Z</time></trkpt><trkpt lat="40.372571280393764" lon="8.496183092232128"><ele>420.0</ele><time>2026-04-29T11:56:58.126Z</time></trkpt><trkpt lat="40.37264886636176" lon="8.49630814097626"><ele>420.0</ele><time>2026-04-29T11:57:00.126Z</time></trkpt><trkpt lat="40.372691977211026" lon="8.496380752796567"><ele>420.0</ele><time>2026-04-29T11:57:01.126Z</time></trkpt><trkpt lat="40.3727330603426" lon="8.496453669140653"><ele>420.0</ele><time>2026-04-29T11:57:02.126Z</time></trkpt><trkpt lat="40.37277696742375" lon="8.496547135719105"><ele>420.0</ele><time>2026-04-29T11:57:04.126Z</time></trkpt><trkpt lat="40.37282352366319" lon="8.496651066866002"><ele>420.0</ele><time>2026-04-29T11:57:06.126Z</time></trkpt><trkpt lat="40.372856876392795" lon="8.496726346708476"><ele>420.0</ele><time>2026-04-29T11:57:07.126Z</time></trkpt><trkpt lat="40.372889477191016" lon="8.496813832937683"><ele>420.0</ele><time>2026-04-29T11:57:08.126Z</time></trkpt><trkpt lat="40.37292308282606" lon="8.496902716288014"><ele>420.0</ele><time>2026-04-29T11:57:09.126Z</time></trkpt><trkpt lat="40.37296474442416" lon="8.496994185534238"><ele>420.0</ele><time>2026-04-29T11:57:10.126Z</time></trkpt><trkpt lat="40.373019170535116" lon="8.497085408396334"><ele>420.0</ele><time>2026-04-29T11:57:11.126Z</time></trkpt><trkpt lat="40.373079149654124" lon="8.497173224232652"><ele>420.0</ele><time>2026-04-29T11:57:12.126Z</time></trkpt><trkpt lat="40.373148302767156" lon="8.497258310347696"><ele>420.0</ele><time>2026-04-29T11:57:13.126Z</time></trkpt><trkpt lat="40.373224759145195" lon="8.497349559720742"><ele>418.2</ele><time>2026-04-29T11:57:14.126Z</time></trkpt><trkpt lat="40.37331157731589" lon="8.497435630014428"><ele>416.4</ele><time>2026-04-29T11:57:15.126Z</time></trkpt><trkpt lat="40.37340055404989" lon="8.49752246237562"><ele>414.6</ele><time>2026-04-29T11:57:16.126Z</time></trkpt><trkpt lat="40.37348335003812" lon="8.497612829119994"><ele>412.8</ele><time>2026-04-29T11:57:17.126Z</time></trkpt><trkpt lat="40.373554181324714" lon="8.497716471899277"><ele>411.0</ele><time>2026-04-29T11:57:18.126Z</time></trkpt><trkpt lat="40.37361878710562" lon="8.497815967213183"><ele>411.0</ele><time>2026-04-29T11:57:19.126Z</time></trkpt><trkpt lat="40.373674569444255" lon="8.497916534879158"><ele>411.0</ele><time>2026-04-29T11:57:20.128Z</time></trkpt><trkpt lat="40.37372459128978" lon="8.498009702541314"><ele>411.0</ele><time>2026-04-29T11:57:21.128Z</time></trkpt><trkpt lat="40.37377937431545" lon="8.498092658166165"><ele>411.0</ele><time>2026-04-29T11:57:22.128Z</time></trkpt><trkpt lat="40.37384853547312" lon="8.498167563206056"><ele>411.0</ele><time>2026-04-29T11:57:23.128Z</time></trkpt><trkpt lat="40.373887337911896" lon="8.498272478250158"><ele>411.0</ele><time>2026-04-29T11:57:24.128Z</time></trkpt><trkpt lat="40.37390057346119" lon="8.498382346764387"><ele>408.8</ele><time>2026-04-29T11:57:25.128Z</time></trkpt><trkpt lat="40.37391085923668" lon="8.498516266382266"><ele>406.6</ele><time>2026-04-29T11:57:26.128Z</time></trkpt><trkpt lat="40.37397568252562" lon="8.498608984084571"><ele>404.4</ele><time>2026-04-29T11:57:27.127Z</time></trkpt><trkpt lat="40.37401392049958" lon="8.498717791511735"><ele>402.2</ele><time>2026-04-29T11:57:28.127Z</time></trkpt><trkpt lat="40.37403800699042" lon="8.498834044470556"><ele>400.0</ele><time>2026-04-29T11:57:29.128Z</time></trkpt><trkpt lat="40.37407704370444" lon="8.49896245848009"><ele>400.0</ele><time>2026-04-29T11:57:30.128Z</time></trkpt><trkpt lat="40.374139761684035" lon="8.4990998232262"><ele>400.0</ele><time>2026-04-29T11:57:31.128Z</time></trkpt><trkpt lat="40.37418615888204" lon="8.49922979890082"><ele>400.0</ele><time>2026-04-29T11:57:32.128Z</time></trkpt><trkpt lat="40.37421146177113" lon="8.499357957086115"><ele>400.0</ele><time>2026-04-29T11:57:33.128Z</time></trkpt><trkpt lat="40.37422829451943" lon="8.499470671971041"><ele>400.0</ele><time>2026-04-29T11:57:34.128Z</time></trkpt><trkpt lat="40.37423573077402" lon="8.499562906508178"><ele>400.33333333333337</ele><time>2026-04-29T11:57:35.128Z</time></trkpt><trkpt lat="40.37423838805503" lon="8.499649752280046"><ele>400.6666666666667</ele><time>2026-04-29T11:57:36.128Z</time></trkpt><trkpt lat="40.374230405997324" lon="8.499770620509745"><ele>401.0</ele><time>2026-04-29T11:57:38.128Z</time></trkpt><trkpt lat="40.37422013658441" lon="8.499864850808502"><ele>401.33333333333337</ele><time>2026-04-29T11:57:44.128Z</time></trkpt><trkpt lat="40.374178199859614" lon="8.499996703068009"><ele>401.6666666666667</ele><time>2026-04-29T11:57:46.128Z</time></trkpt><trkpt lat="40.37417529353091" lon="8.500080023212876"><ele>402.0</ele><time>2026-04-29T11:57:47.128Z</time></trkpt><trkpt lat="40.374164319917035" lon="8.500181443280768"><ele>402.0</ele><time>2026-04-29T11:57:49.128Z</time></trkpt><trkpt lat="40.374203395357455" lon="8.500254616458006"><ele>402.0</ele><time>2026-04-29T11:57:51.128Z</time></trkpt><trkpt lat="40.37430105614378" lon="8.500316269287811"><ele>402.0</ele><time>2026-04-29T11:57:53.128Z</time></trkpt><trkpt lat="40.37439241617589" lon="8.500366890470428"><ele>402.0</ele><time>2026-04-29T11:57:55.128Z</time></trkpt><trkpt lat="40.37452538140799" lon="8.500319839352485"><ele>402.0</ele><time>2026-04-29T11:57:57.128Z</time></trkpt><trkpt lat="40.3746182497777" lon="8.500220965102887"><ele>402.0</ele><time>2026-04-29T11:57:59.128Z</time></trkpt><trkpt lat="40.374666782547635" lon="8.50016323424361"><ele>402.0</ele><time>2026-04-29T11:58:00.128Z</time></trkpt><trkpt lat="40.37474423849542" lon="8.500046829303715"><ele>402.0</ele><time>2026-04-29T11:58:02.128Z</time></trkpt><trkpt lat="40.37478572874165" lon="8.499944490940713"><ele>402.0</ele><time>2026-04-29T11:58:04.128Z</time></trkpt><trkpt lat="40.37483093374138" lon="8.499867796646027"><ele>402.0</ele><time>2026-04-29T11:58:07.128Z</time></trkpt><trkpt lat="40.37489614865607" lon="8.499876788458282"><ele>402.0</ele><time>2026-04-29T11:58:09.128Z</time></trkpt><trkpt lat="40.37495927818106" lon="8.499921617362256"><ele>403.0</ele><time>2026-04-29T11:58:11.128Z</time></trkpt><trkpt lat="40.37502249256826" lon="8.499918571676963"><ele>403.0</ele><time>2026-04-29T11:58:15.128Z</time></trkpt><trkpt lat="40.37508696088027" lon="8.49992442385986"><ele>403.0</ele><time>2026-04-29T11:58:38.127Z</time></trkpt><trkpt lat="40.37503845601666" lon="8.499988034308977"><ele>403.0</ele><time>2026-04-29T11:58:53.127Z</time></trkpt></trkseg><trkseg><trkpt lat="40.3749304920834" lon="8.499924475832287"><ele>403.00000000000006</ele><time>2026-04-29T12:54:53.164Z</time></trkpt><trkpt lat="40.374876167928676" lon="8.499875123725902"><ele>403.0</ele><time>2026-04-29T12:54:57.164Z</time></trkpt><trkpt lat="40.37490970467004" lon="8.49979870371875"><ele>403.0</ele><time>2026-04-29T12:54:59.164Z</time></trkpt><trkpt lat="40.374932029940396" lon="8.499702369417943"><ele>403.0</ele><time>2026-04-29T12:55:01.164Z</time></trkpt><trkpt lat="40.37494713156217" lon="8.499563157394181"><ele>403.00000000000006</ele><time>2026-04-29T12:55:03.164Z</time></trkpt><trkpt lat="40.37498509692493" lon="8.499425986960416"><ele>403.0</ele><time>2026-04-29T12:55:05.164Z</time></trkpt><trkpt lat="40.375064125112694" lon="8.499303904508789"><ele>402.14285714285717</ele><time>2026-04-29T12:55:07.164Z</time></trkpt><trkpt lat="40.375108836499514" lon="8.499240770565207"><ele>401.2857142857143</ele><time>2026-04-29T12:55:08.164Z</time></trkpt><trkpt lat="40.375160238496804" lon="8.499187933447354"><ele>400.42857142857144</ele><time>2026-04-29T12:55:09.164Z</time></trkpt><trkpt lat="40.37521754744698" lon="8.499139335434885"><ele>399.57142857142856</ele><time>2026-04-29T12:55:10.164Z</time></trkpt><trkpt lat="40.37530498236524" lon="8.499111554574824"><ele>398.71428571428567</ele><time>2026-04-29T12:55:11.164Z</time></trkpt><trkpt lat="40.37536705051699" lon="8.499082402937672"><ele>397.85714285714283</ele><time>2026-04-29T12:55:12.164Z</time></trkpt><trkpt lat="40.37543604288625" lon="8.499054078461631"><ele>397.0</ele><time>2026-04-29T12:55:13.164Z</time></trkpt><trkpt lat="40.37549910431485" lon="8.499036832593902"><ele>397.0</ele><time>2026-04-29T12:55:14.164Z</time></trkpt><trkpt lat="40.375570981220385" lon="8.49901565502672"><ele>397.0</ele><time>2026-04-29T12:55:15.164Z</time></trkpt><trkpt lat="40.37563483447612" lon="8.498997427106625"><ele>397.0</ele><time>2026-04-29T12:55:16.164Z</time></trkpt><trkpt lat="40.37570693071057" lon="8.498982319840406"><ele>397.0</ele><time>2026-04-29T12:55:17.164Z</time></trkpt><trkpt lat="40.37577659819058" lon="8.498969691615008"><ele>397.0</ele><time>2026-04-29T12:55:18.164Z</time></trkpt><trkpt lat="40.37584004576949" lon="8.498948610691187"><ele>397.0</ele><time>2026-04-29T12:55:19.164Z</time></trkpt><trkpt lat="40.37590529092167" lon="8.498944210117756"><ele>397.0</ele><time>2026-04-29T12:55:20.164Z</time></trkpt><trkpt lat="40.375976449921865" lon="8.498944508655416"><ele>397.0</ele><time>2026-04-29T12:55:21.164Z</time></trkpt><trkpt lat="40.37604044245921" lon="8.498956011949712"><ele>397.0</ele><time>2026-04-29T12:55:22.164Z</time></trkpt><trkpt lat="40.37610680413067" lon="8.498976300950265"><ele>397.0</ele><time>2026-04-29T12:55:23.164Z</time></trkpt><trkpt lat="40.37616861717424" lon="8.498998290642168"><ele>397.0</ele><time>2026-04-29T12:55:24.164Z</time></trkpt><trkpt lat="40.37625150040523" lon="8.499030363225103"><ele>397.0</ele><time>2026-04-29T12:55:26.164Z</time></trkpt><trkpt lat="40.37632507852148" lon="8.499030505689658"><ele>397.0</ele><time>2026-04-29T12:55:29.164Z</time></trkpt><trkpt lat="40.37627516738172" lon="8.498964423415758"><ele>397.0</ele><time>2026-04-29T12:55:33.164Z</time></trkpt><trkpt lat="40.37615926612821" lon="8.49894303111308"><ele>397.0</ele><time>2026-04-29T12:55:35.164Z</time></trkpt><trkpt lat="40.37608169078035" lon="8.498922220846179"><ele>397.0</ele><time>2026-04-29T12:55:36.164Z</time></trkpt><trkpt lat="40.37599394737475" lon="8.498906032012924"><ele>397.0</ele><time>2026-04-29T12:55:37.164Z</time></trkpt><trkpt lat="40.37589959760919" lon="8.498895730048424"><ele>397.0</ele><time>2026-04-29T12:55:38.164Z</time></trkpt><trkpt lat="40.37580244453652" lon="8.498900663774256"><ele>397.0</ele><time>2026-04-29T12:55:39.164Z</time></trkpt><trkpt lat="40.37569944615059" lon="8.498922997066934"><ele>397.0</ele><time>2026-04-29T12:55:40.164Z</time></trkpt><trkpt lat="40.37559963957657" lon="8.498955062755195"><ele>397.0</ele><time>2026-04-29T12:55:41.164Z</time></trkpt><trkpt lat="40.37549742645893" lon="8.49898805941615"><ele>397.0</ele><time>2026-04-29T12:55:42.164Z</time></trkpt><trkpt lat="40.375398644804804" lon="8.499022618940733"><ele>397.0</ele><time>2026-04-29T12:55:43.164Z</time></trkpt><trkpt lat="40.37529294342787" lon="8.499062390289314"><ele>397.0</ele><time>2026-04-29T12:55:44.164Z</time></trkpt><trkpt lat="40.375197101873454" lon="8.499105322005468"><ele>397.0</ele><time>2026-04-29T12:55:45.164Z</time></trkpt><trkpt lat="40.37510308086457" lon="8.499174231817339"><ele>397.0</ele><time>2026-04-29T12:55:46.164Z</time></trkpt><trkpt lat="40.37503073063761" lon="8.499272845365454"><ele>397.0</ele><time>2026-04-29T12:55:47.164Z</time></trkpt><trkpt lat="40.3749669235964" lon="8.499381576923035"><ele>397.0</ele><time>2026-04-29T12:55:48.164Z</time></trkpt><trkpt lat="40.37491752493381" lon="8.499493386915383"><ele>397.0</ele><time>2026-04-29T12:55:49.164Z</time></trkpt><trkpt lat="40.374873849076515" lon="8.499601484915829"><ele>398.00000000000006</ele><time>2026-04-29T12:55:50.164Z</time></trkpt><trkpt lat="40.37484965346048" lon="8.499721112085403"><ele>399.0</ele><time>2026-04-29T12:55:51.164Z</time></trkpt><trkpt lat="40.374830386701596" lon="8.4998392876575"><ele>400.0</ele><time>2026-04-29T12:55:52.164Z</time></trkpt><trkpt lat="40.37482287578601" lon="8.499925325538696"><ele>401.0</ele><time>2026-04-29T12:55:53.164Z</time></trkpt><trkpt lat="40.37481162359361" lon="8.500010134643212"><ele>402.00000000000006</ele><time>2026-04-29T12:55:54.164Z</time></trkpt><trkpt lat="40.37477183382547" lon="8.500084800149336"><ele>403.0</ele><time>2026-04-29T12:55:55.164Z</time></trkpt><trkpt lat="40.37471950710329" lon="8.500157684442158"><ele>402.83333333333337</ele><time>2026-04-29T12:55:58.164Z</time></trkpt><trkpt lat="40.37463355551249" lon="8.500254716337869"><ele>402.6666666666667</ele><time>2026-04-29T12:56:00.164Z</time></trkpt><trkpt lat="40.37458219706723" lon="8.500302686032498"><ele>402.5</ele><time>2026-04-29T12:56:01.164Z</time></trkpt><trkpt lat="40.374529806099446" lon="8.500372136440598"><ele>402.33333333333337</ele><time>2026-04-29T12:56:02.164Z</time></trkpt><trkpt lat="40.37444045465612" lon="8.500408747825949"><ele>402.1666666666667</ele><time>2026-04-29T12:56:03.164Z</time></trkpt><trkpt lat="40.374344612370294" lon="8.500359008526308"><ele>402.0</ele><time>2026-04-29T12:56:04.164Z</time></trkpt><trkpt lat="40.374276486340605" lon="8.500294407659164"><ele>402.0</ele><time>2026-04-29T12:56:05.164Z</time></trkpt><trkpt lat="40.374186211647874" lon="8.500162040136416"><ele>402.0</ele><time>2026-04-29T12:56:07.164Z</time></trkpt><trkpt lat="40.37420309608085" lon="8.500075552351534"><ele>402.0</ele><time>2026-04-29T12:56:08.164Z</time></trkpt><trkpt lat="40.37424257670507" lon="8.499978898174733"><ele>402.0</ele><time>2026-04-29T12:56:09.164Z</time></trkpt><trkpt lat="40.37427324694687" lon="8.499878872034653"><ele>402.0</ele><time>2026-04-29T12:56:10.164Z</time></trkpt><trkpt lat="40.374295334060626" lon="8.499774766029947"><ele>402.0</ele><time>2026-04-29T12:56:11.164Z</time></trkpt><trkpt lat="40.37430843593441" lon="8.499668386328423"><ele>402.0</ele><time>2026-04-29T12:56:12.164Z</time></trkpt><trkpt lat="40.37431477975532" lon="8.499544999757891"><ele>402.0</ele><time>2026-04-29T12:56:13.164Z</time></trkpt><trkpt lat="40.37431212304128" lon="8.499435443784462"><ele>402.0</ele><time>2026-04-29T12:56:14.164Z</time></trkpt><trkpt lat="40.37431820307172" lon="8.499332421334396"><ele>402.0</ele><time>2026-04-29T12:56:15.164Z</time></trkpt><trkpt lat="40.37430599181805" lon="8.499220519193056"><ele>402.0</ele><time>2026-04-29T12:56:16.164Z</time></trkpt><trkpt lat="40.37428054183681" lon="8.49910977407045"><ele>401.6</ele><time>2026-04-29T12:56:17.164Z</time></trkpt><trkpt lat="40.37425870336657" lon="8.49899320734516"><ele>401.20000000000005</ele><time>2026-04-29T12:56:18.164Z</time></trkpt><trkpt lat="40.3742330877594" lon="8.498880929113891"><ele>400.8</ele><time>2026-04-29T12:56:19.164Z</time></trkpt><trkpt lat="40.374216577869156" lon="8.498752815990596"><ele>400.4</ele><time>2026-04-29T12:56:20.164Z</time></trkpt><trkpt lat="40.37419548536045" lon="8.498620721008114"><ele>400.0</ele><time>2026-04-29T12:56:21.164Z</time></trkpt><trkpt lat="40.37417425172558" lon="8.498487717209704"><ele>399.4</ele><time>2026-04-29T12:56:22.164Z</time></trkpt><trkpt lat="40.37414370717588" lon="8.498355853168425"><ele>398.8</ele><time>2026-04-29T12:56:23.164Z</time></trkpt><trkpt lat="40.37408249498561" lon="8.498236186841774"><ele>398.20000000000005</ele><time>2026-04-29T12:56:24.164Z</time></trkpt><trkpt lat="40.37399275142035" lon="8.498144246195734"><ele>397.6</ele><time>2026-04-29T12:56:25.164Z</time></trkpt><trkpt lat="40.37388979582093" lon="8.498076353098558"><ele>397.0</ele><time>2026-04-29T12:56:26.164Z</time></trkpt><trkpt lat="40.37378123519231" lon="8.498003999111939"><ele>400.5</ele><time>2026-04-29T12:56:27.164Z</time></trkpt><trkpt lat="40.373684585343064" lon="8.497913785559371"><ele>404.0</ele><time>2026-04-29T12:56:28.164Z</time></trkpt><trkpt lat="40.37359714574154" lon="8.497801218880777"><ele>407.5</ele><time>2026-04-29T12:56:29.164Z</time></trkpt><trkpt lat="40.37351689334662" lon="8.49767595981642"><ele>411.0</ele><time>2026-04-29T12:56:30.164Z</time></trkpt><trkpt lat="40.373431189475895" lon="8.497553038394196"><ele>411.0</ele><time>2026-04-29T12:56:31.164Z</time></trkpt><trkpt lat="40.373327714202695" lon="8.497450006110023"><ele>411.0</ele><time>2026-04-29T12:56:32.164Z</time></trkpt><trkpt lat="40.37322162423764" lon="8.49734826517733"><ele>411.0</ele><time>2026-04-29T12:56:33.164Z</time></trkpt><trkpt lat="40.37311168143645" lon="8.497249590716061"><ele>411.0</ele><time>2026-04-29T12:56:34.164Z</time></trkpt><trkpt lat="40.373019190963596" lon="8.497120636728063"><ele>413.25</ele><time>2026-04-29T12:56:35.164Z</time></trkpt><trkpt lat="40.372940694023455" lon="8.496975323678264"><ele>415.5</ele><time>2026-04-29T12:56:36.164Z</time></trkpt><trkpt lat="40.37287763942933" lon="8.496813474138058"><ele>417.75</ele><time>2026-04-29T12:56:37.164Z</time></trkpt><trkpt lat="40.372817716361965" lon="8.4966585873217"><ele>420.0</ele><time>2026-04-29T12:56:38.164Z</time></trkpt><trkpt lat="40.37274960064082" lon="8.49650160777403"><ele>420.0</ele><time>2026-04-29T12:56:39.164Z</time></trkpt><trkpt lat="40.372670079037086" lon="8.496355040105339"><ele>420.0</ele><time>2026-04-29T12:56:40.164Z</time></trkpt><trkpt lat="40.372590482250644" lon="8.49620494573037"><ele>420.0</ele><time>2026-04-29T12:56:41.164Z</time></trkpt><trkpt lat="40.372516293031275" lon="8.496043562325342"><ele>420.0</ele><time>2026-04-29T12:56:42.164Z</time></trkpt><trkpt lat="40.37244973739909" lon="8.495881431182097"><ele>421.0</ele><time>2026-04-29T12:56:43.164Z</time></trkpt><trkpt lat="40.37238519767883" lon="8.495719625623114"><ele>422.0</ele><time>2026-04-29T12:56:44.164Z</time></trkpt><trkpt lat="40.37231010812786" lon="8.495566104684992"><ele>423.0</ele><time>2026-04-29T12:56:45.164Z</time></trkpt><trkpt lat="40.37221874683317" lon="8.495424733318805"><ele>424.0</ele><time>2026-04-29T12:56:46.164Z</time></trkpt><trkpt lat="40.37212110699047" lon="8.495301159297902"><ele>424.0</ele><time>2026-04-29T12:56:47.164Z</time></trkpt><trkpt lat="40.37201411658086" lon="8.495177497470952"><ele>424.0</ele><time>2026-04-29T12:56:48.164Z</time></trkpt><trkpt lat="40.371906925059214" lon="8.495035338378539"><ele>424.0</ele><time>2026-04-29T12:56:49.164Z</time></trkpt><trkpt lat="40.3718155874178" lon="8.494890018510253"><ele>424.0</ele><time>2026-04-29T12:56:50.164Z</time></trkpt><trkpt lat="40.371732643282535" lon="8.49472996958591"><ele>423.25</ele><time>2026-04-29T12:56:51.164Z</time></trkpt><trkpt lat="40.37165358604414" lon="8.494570330929657"><ele>422.5</ele><time>2026-04-29T12:56:52.164Z</time></trkpt><trkpt lat="40.37156406266389" lon="8.494425263513982"><ele>421.75</ele><time>2026-04-29T12:56:53.164Z</time></trkpt><trkpt lat="40.37145667477249" lon="8.494305113628101"><ele>421.0</ele><time>2026-04-29T12:56:54.164Z</time></trkpt><trkpt lat="40.371333693758686" lon="8.494197380171903"><ele>423.0</ele><time>2026-04-29T12:56:55.164Z</time></trkpt><trkpt lat="40.37121395642028" lon="8.494090428387022"><ele>425.0</ele><time>2026-04-29T12:56:56.164Z</time></trkpt><trkpt lat="40.371098167769894" lon="8.493969279146713"><ele>427.0</ele><time>2026-04-29T12:56:57.164Z</time></trkpt><trkpt lat="40.371005808090295" lon="8.493817814325412"><ele>429.0</ele><time>2026-04-29T12:56:58.164Z</time></trkpt><trkpt lat="40.37096112576695" lon="8.493642124797443"><ele>429.0</ele><time>2026-04-29T12:56:59.164Z</time></trkpt><trkpt lat="40.37093607828866" lon="8.49345506853912"><ele>429.0</ele><time>2026-04-29T12:57:00.164Z</time></trkpt><trkpt lat="40.37090410559607" lon="8.493272513581324"><ele>429.0</ele><time>2026-04-29T12:57:01.164Z</time></trkpt><trkpt lat="40.37082833273547" lon="8.493107397629535"><ele>429.0</ele><time>2026-04-29T12:57:02.164Z</time></trkpt><trkpt lat="40.370715137599774" lon="8.492975589323397"><ele>428.33333333333337</ele><time>2026-04-29T12:57:03.164Z</time></trkpt><trkpt lat="40.37058573553513" lon="8.492874443738472"><ele>427.6666666666667</ele><time>2026-04-29T12:57:04.164Z</time></trkpt><trkpt lat="40.370437497034445" lon="8.49280663202371"><ele>427.0</ele><time>2026-04-29T12:57:05.164Z</time></trkpt><trkpt lat="40.37027827697856" lon="8.492767195623024"><ele>430.33333333333337</ele><time>2026-04-29T12:57:06.164Z</time></trkpt><trkpt lat="40.37011504066897" lon="8.492742722621669"><ele>433.66666666666663</ele><time>2026-04-29T12:57:07.164Z</time></trkpt><trkpt lat="40.36995357316546" lon="8.492697236470388"><ele>437.0</ele><time>2026-04-29T12:57:08.164Z</time></trkpt><trkpt lat="40.36979005316328" lon="8.492641120210484"><ele>439.0</ele><time>2026-04-29T12:57:09.164Z</time></trkpt><trkpt lat="40.36962392684003" lon="8.492582096955768"><ele>441.0</ele><time>2026-04-29T12:57:10.164Z</time></trkpt><trkpt lat="40.36945735846776" lon="8.49252989753281"><ele>443.0</ele><time>2026-04-29T12:57:11.164Z</time></trkpt><trkpt lat="40.36928830378311" lon="8.492478309156496"><ele>443.0</ele><time>2026-04-29T12:57:12.164Z</time></trkpt><trkpt lat="40.36911384292975" lon="8.492423823276658"><ele>443.0</ele><time>2026-04-29T12:57:13.164Z</time></trkpt><trkpt lat="40.3689364006657" lon="8.492369663177758"><ele>443.0</ele><time>2026-04-29T12:57:14.164Z</time></trkpt><trkpt lat="40.36875784224892" lon="8.492318917149886"><ele>444.0</ele><time>2026-04-29T12:57:15.164Z</time></trkpt><trkpt lat="40.36857306565454" lon="8.492267507322753"><ele>445.0</ele><time>2026-04-29T12:57:16.164Z</time></trkpt><trkpt lat="40.36839064319953" lon="8.492210458365031"><ele>446.0</ele><time>2026-04-29T12:57:17.164Z</time></trkpt><trkpt lat="40.368213098101386" lon="8.492152492822374"><ele>445.66666666666663</ele><time>2026-04-29T12:57:18.164Z</time></trkpt><trkpt lat="40.368020049465564" lon="8.49210051122296"><ele>445.33333333333337</ele><time>2026-04-29T12:57:19.164Z</time></trkpt><trkpt lat="40.367830131793276" lon="8.492047681574201"><ele>445.0</ele><time>2026-04-29T12:57:20.164Z</time></trkpt><trkpt lat="40.3676392408678" lon="8.491984775546937"><ele>445.0</ele><time>2026-04-29T12:57:21.164Z</time></trkpt><trkpt lat="40.36744654404878" lon="8.49191988467242"><ele>445.0</ele><time>2026-04-29T12:57:22.164Z</time></trkpt><trkpt lat="40.367243080817616" lon="8.491863529762119"><ele>445.0</ele><time>2026-04-29T12:57:23.164Z</time></trkpt><trkpt lat="40.36704937321576" lon="8.491806623845738"><ele>447.33333333333337</ele><time>2026-04-29T12:57:24.164Z</time></trkpt><trkpt lat="40.36685274021094" lon="8.491744161858842"><ele>449.66666666666663</ele><time>2026-04-29T12:57:25.164Z</time></trkpt><trkpt lat="40.36665933408916" lon="8.491684008768155"><ele>452.0</ele><time>2026-04-29T12:57:26.164Z</time></trkpt><trkpt lat="40.36646850837005" lon="8.491627130219605"><ele>453.66666666666663</ele><time>2026-04-29T12:57:27.164Z</time></trkpt><trkpt lat="40.36628650196217" lon="8.491569350902507"><ele>455.33333333333337</ele><time>2026-04-29T12:57:28.164Z</time></trkpt><trkpt lat="40.36611792328571" lon="8.491494643843035"><ele>457.0</ele><time>2026-04-29T12:57:29.164Z</time></trkpt><trkpt lat="40.36595913599126" lon="8.49138832363722"><ele>457.0</ele><time>2026-04-29T12:57:30.164Z</time></trkpt><trkpt lat="40.36580503700945" lon="8.491258107899588"><ele>457.0</ele><time>2026-04-29T12:57:31.164Z</time></trkpt><trkpt lat="40.365655780122964" lon="8.491109064961034"><ele>457.0</ele><time>2026-04-29T12:57:32.164Z</time></trkpt><trkpt lat="40.36550567619809" lon="8.490954258823042"><ele>459.0</ele><time>2026-04-29T12:57:33.164Z</time></trkpt><trkpt lat="40.36534413076295" lon="8.490809022360896"><ele>461.0</ele><time>2026-04-29T12:57:34.164Z</time></trkpt><trkpt lat="40.365178032373976" lon="8.490672367131854"><ele>463.0</ele><time>2026-04-29T12:57:35.164Z</time></trkpt><trkpt lat="40.36500824659415" lon="8.490540566628903"><ele>464.33333333333337</ele><time>2026-04-29T12:57:36.164Z</time></trkpt><trkpt lat="40.36482956068325" lon="8.490408896108104"><ele>465.66666666666663</ele><time>2026-04-29T12:57:37.164Z</time></trkpt><trkpt lat="40.36465810065522" lon="8.490276108648706"><ele>467.0</ele><time>2026-04-29T12:57:38.164Z</time></trkpt><trkpt lat="40.364479456402776" lon="8.490137910172999"><ele>467.0</ele><time>2026-04-29T12:57:39.164Z</time></trkpt><trkpt lat="40.364300743884684" lon="8.490015992570353"><ele>467.0</ele><time>2026-04-29T12:57:40.164Z</time></trkpt><trkpt lat="40.36412029456229" lon="8.489896828515057"><ele>467.0</ele><time>2026-04-29T12:57:41.164Z</time></trkpt><trkpt lat="40.36394339333205" lon="8.489785276745614"><ele>464.3333333333333</ele><time>2026-04-29T12:57:42.164Z</time></trkpt><trkpt lat="40.36377299774811" lon="8.489686749286868"><ele>461.66666666666663</ele><time>2026-04-29T12:57:43.164Z</time></trkpt><trkpt lat="40.363608588439355" lon="8.489596072663304"><ele>459.0</ele><time>2026-04-29T12:57:44.164Z</time></trkpt><trkpt lat="40.36344097314479" lon="8.489538356680043"><ele>459.0</ele><time>2026-04-29T12:57:45.164Z</time></trkpt><trkpt lat="40.3632581585786" lon="8.489524784109259"><ele>459.0</ele><time>2026-04-29T12:57:46.164Z</time></trkpt><trkpt lat="40.36306611133519" lon="8.489531859900007"><ele>459.0</ele><time>2026-04-29T12:57:47.164Z</time></trkpt><trkpt lat="40.3628720927087" lon="8.489527552866296"><ele>461.33333333333337</ele><time>2026-04-29T12:57:48.164Z</time></trkpt><trkpt lat="40.36267691254605" lon="8.489525381158854"><ele>463.6666666666667</ele><time>2026-04-29T12:57:49.164Z</time></trkpt><trkpt lat="40.362480927577025" lon="8.489538547998002"><ele>466.0</ele><time>2026-04-29T12:57:50.164Z</time></trkpt><trkpt lat="40.362287744442725" lon="8.489590917483701"><ele>471.0</ele><time>2026-04-29T12:57:51.164Z</time></trkpt><trkpt lat="40.362092477504504" lon="8.489672046032393"><ele>476.0</ele><time>2026-04-29T12:57:52.164Z</time></trkpt><trkpt lat="40.361897184854264" lon="8.489761771847343"><ele>481.0</ele><time>2026-04-29T12:57:53.164Z</time></trkpt><trkpt lat="40.36169559965531" lon="8.489858009403223"><ele>481.0</ele><time>2026-04-29T12:57:54.164Z</time></trkpt><trkpt lat="40.36149957764692" lon="8.489944663405062"><ele>481.0</ele><time>2026-04-29T12:57:55.164Z</time></trkpt><trkpt lat="40.36130854806536" lon="8.490027426654688"><ele>481.0</ele><time>2026-04-29T12:57:56.164Z</time></trkpt><trkpt lat="40.361117012108245" lon="8.490108995198806"><ele>479.6666666666667</ele><time>2026-04-29T12:57:57.164Z</time></trkpt><trkpt lat="40.360924607349574" lon="8.490194383483932"><ele>478.33333333333337</ele><time>2026-04-29T12:57:58.164Z</time></trkpt><trkpt lat="40.360729804183016" lon="8.490277792183775"><ele>477.0</ele><time>2026-04-29T12:57:59.164Z</time></trkpt><trkpt lat="40.36053721026724" lon="8.490376221941803"><ele>478.0</ele><time>2026-04-29T12:58:00.164Z</time></trkpt><trkpt lat="40.360339590213236" lon="8.490471013211076"><ele>479.0</ele><time>2026-04-29T12:58:01.164Z</time></trkpt><trkpt lat="40.36013914295776" lon="8.490568047222691"><ele>480.0</ele><time>2026-04-29T12:58:02.164Z</time></trkpt><trkpt lat="40.359941936503354" lon="8.490663388097499"><ele>480.0</ele><time>2026-04-29T12:58:03.164Z</time></trkpt><trkpt lat="40.35974588247435" lon="8.49074958335457"><ele>480.0</ele><time>2026-04-29T12:58:04.164Z</time></trkpt><trkpt lat="40.35954992103595" lon="8.490808130224925"><ele>480.0</ele><time>2026-04-29T12:58:05.164Z</time></trkpt><trkpt lat="40.359362618811225" lon="8.490796287784361"><ele>480.0</ele><time>2026-04-29T12:58:06.164Z</time></trkpt><trkpt lat="40.35918179872484" lon="8.490711732620369"><ele>480.0</ele><time>2026-04-29T12:58:07.164Z</time></trkpt><trkpt lat="40.35901529373213" lon="8.490576064950329"><ele>480.0</ele><time>2026-04-29T12:58:08.164Z</time></trkpt><trkpt lat="40.35885285825801" lon="8.49042264576955"><ele>481.0</ele><time>2026-04-29T12:58:09.164Z</time></trkpt><trkpt lat="40.3586829314913" lon="8.490281582500494"><ele>482.0</ele><time>2026-04-29T12:58:10.164Z</time></trkpt><trkpt lat="40.3585101540391" lon="8.490150275835369"><ele>483.0</ele><time>2026-04-29T12:58:11.163Z</time></trkpt><trkpt lat="40.3583343466091" lon="8.490039933452591"><ele>483.0</ele><time>2026-04-29T12:58:12.164Z</time></trkpt><trkpt lat="40.35814355353161" lon="8.489979793941266"><ele>483.0</ele><time>2026-04-29T12:58:13.164Z</time></trkpt><trkpt lat="40.35794286025962" lon="8.489962571247009"><ele>483.0</ele><time>2026-04-29T12:58:14.164Z</time></trkpt><trkpt lat="40.35773333236414" lon="8.48996448032321"><ele>484.33333333333337</ele><time>2026-04-29T12:58:15.164Z</time></trkpt><trkpt lat="40.357523891201474" lon="8.489965986042359"><ele>485.6666666666667</ele><time>2026-04-29T12:58:16.164Z</time></trkpt><trkpt lat="40.35731535897591" lon="8.489962852248475"><ele>487.0</ele><time>2026-04-29T12:58:17.164Z</time></trkpt><trkpt lat="40.35711402194742" lon="8.48994364329489"><ele>489.0</ele><time>2026-04-29T12:58:18.164Z</time></trkpt><trkpt lat="40.35692022970017" lon="8.489887424765932"><ele>491.0</ele><time>2026-04-29T12:58:19.164Z</time></trkpt><trkpt lat="40.356741719298576" lon="8.489781418220337"><ele>493.0</ele><time>2026-04-29T12:58:20.164Z</time></trkpt><trkpt lat="40.356571344402845" lon="8.489659970665302"><ele>495.6666666666667</ele><time>2026-04-29T12:58:21.164Z</time></trkpt><trkpt lat="40.356391773835306" lon="8.489557323000724"><ele>498.33333333333337</ele><time>2026-04-29T12:58:22.164Z</time></trkpt><trkpt lat="40.356207172387236" lon="8.489478180882818"><ele>501.0</ele><time>2026-04-29T12:58:23.164Z</time></trkpt><trkpt lat="40.3560310341178" lon="8.489403898421315"><ele>503.0</ele><time>2026-04-29T12:58:24.163Z</time></trkpt><trkpt lat="40.35587100317953" lon="8.489343237924896"><ele>505.0</ele><time>2026-04-29T12:58:25.163Z</time></trkpt><trkpt lat="40.355706851219594" lon="8.489275381564669"><ele>507.0</ele><time>2026-04-29T12:58:26.163Z</time></trkpt><trkpt lat="40.35555995836823" lon="8.489155574576586"><ele>507.0</ele><time>2026-04-29T12:58:27.163Z</time></trkpt><trkpt lat="40.35543709711268" lon="8.48899299227832"><ele>507.0</ele><time>2026-04-29T12:58:28.163Z</time></trkpt><trkpt lat="40.35532280467721" lon="8.48883884026394"><ele>507.0</ele><time>2026-04-29T12:58:29.163Z</time></trkpt><trkpt lat="40.35518340374742" lon="8.488728083428125"><ele>510.0</ele><time>2026-04-29T12:58:30.163Z</time></trkpt><trkpt lat="40.355019770526866" lon="8.488675176333881"><ele>513.0</ele><time>2026-04-29T12:58:31.163Z</time></trkpt><trkpt lat="40.3548454739634" lon="8.488638577238694"><ele>516.0</ele><time>2026-04-29T12:58:32.163Z</time></trkpt><trkpt lat="40.354658772705314" lon="8.488631987404965"><ele>516.0</ele><time>2026-04-29T12:58:33.163Z</time></trkpt><trkpt lat="40.35445789164592" lon="8.488645278248308"><ele>516.0</ele><time>2026-04-29T12:58:34.163Z</time></trkpt><trkpt lat="40.35425249109912" lon="8.488684235841811"><ele>516.0</ele><time>2026-04-29T12:58:35.163Z</time></trkpt><trkpt lat="40.35405027500889" lon="8.488751350178289"><ele>516.6666666666666</ele><time>2026-04-29T12:58:36.163Z</time></trkpt><trkpt lat="40.35384548503681" lon="8.4888465009831"><ele>517.3333333333333</ele><time>2026-04-29T12:58:37.163Z</time></trkpt><trkpt lat="40.353640125682524" lon="8.488956508224437"><ele>518.0</ele><time>2026-04-29T12:58:38.163Z</time></trkpt><trkpt lat="40.353436166835415" lon="8.489068224770701"><ele>518.0</ele><time>2026-04-29T12:58:39.163Z</time></trkpt><trkpt lat="40.35323070981559" lon="8.48917642775276"><ele>518.0</ele><time>2026-04-29T12:58:40.163Z</time></trkpt><trkpt lat="40.35302954464128" lon="8.489279389125777"><ele>518.0</ele><time>2026-04-29T12:58:41.163Z</time></trkpt><trkpt lat="40.35285477141091" lon="8.48940906781832"><ele>518.6666666666666</ele><time>2026-04-29T12:58:42.163Z</time></trkpt><trkpt lat="40.35271803338311" lon="8.48958629351774"><ele>519.3333333333334</ele><time>2026-04-29T12:58:43.163Z</time></trkpt><trkpt lat="40.35259256405192" lon="8.489788403748832"><ele>520.0</ele><time>2026-04-29T12:58:44.163Z</time></trkpt><trkpt lat="40.352466631314805" lon="8.490000299349665"><ele>521.0</ele><time>2026-04-29T12:58:45.163Z</time></trkpt><trkpt lat="40.35233480327251" lon="8.4902205400074"><ele>522.0</ele><time>2026-04-29T12:58:46.163Z</time></trkpt><trkpt lat="40.3522012115455" lon="8.490434735399607"><ele>523.0</ele><time>2026-04-29T12:58:47.163Z</time></trkpt><trkpt lat="40.35205769951588" lon="8.490620200197013"><ele>521.0</ele><time>2026-04-29T12:58:48.163Z</time></trkpt><trkpt lat="40.351903274211665" lon="8.490783655600413"><ele>519.0</ele><time>2026-04-29T12:58:49.163Z</time></trkpt><trkpt lat="40.35174967989359" lon="8.490914740327142"><ele>517.0</ele><time>2026-04-29T12:58:50.163Z</time></trkpt><trkpt lat="40.351586313079395" lon="8.49099606299981"><ele>517.0</ele><time>2026-04-29T12:58:51.163Z</time></trkpt><trkpt lat="40.351396615140786" lon="8.491049004134352"><ele>517.0</ele><time>2026-04-29T12:58:52.163Z</time></trkpt><trkpt lat="40.35120648523375" lon="8.491134197594135"><ele>517.0</ele><time>2026-04-29T12:58:53.163Z</time></trkpt><trkpt lat="40.35102049871214" lon="8.491264126719747"><ele>515.0</ele><time>2026-04-29T12:58:54.163Z</time></trkpt><trkpt lat="40.35083790859369" lon="8.491416826563581"><ele>513.0</ele><time>2026-04-29T12:58:55.163Z</time></trkpt><trkpt lat="40.3506527983054" lon="8.49157294239671"><ele>511.0</ele><time>2026-04-29T12:58:56.163Z</time></trkpt><trkpt lat="40.35047400346613" lon="8.491732835072426"><ele>511.0</ele><time>2026-04-29T12:58:57.163Z</time></trkpt><trkpt lat="40.35028957633179" lon="8.491890082024533"><ele>511.0</ele><time>2026-04-29T12:58:58.163Z</time></trkpt><trkpt lat="40.35010399411479" lon="8.492047904854118"><ele>511.0</ele><time>2026-04-29T12:58:59.163Z</time></trkpt><trkpt lat="40.34991871429435" lon="8.492205444421833"><ele>510.33333333333337</ele><time>2026-04-29T12:59:00.163Z</time></trkpt><trkpt lat="40.349734896661495" lon="8.49236725284269"><ele>509.66666666666663</ele><time>2026-04-29T12:59:01.163Z</time></trkpt><trkpt lat="40.34955333842615" lon="8.492525400905581"><ele>509.0</ele><time>2026-04-29T12:59:02.163Z</time></trkpt><trkpt lat="40.34937107867436" lon="8.492678677559391"><ele>509.0</ele><time>2026-04-29T12:59:03.163Z</time></trkpt><trkpt lat="40.34920240805396" lon="8.492819659066159"><ele>509.0</ele><time>2026-04-29T12:59:04.163Z</time></trkpt><trkpt lat="40.349043215974355" lon="8.492946979293182"><ele>509.0</ele><time>2026-04-29T12:59:05.163Z</time></trkpt><trkpt lat="40.348905783164525" lon="8.493060458293208"><ele>506.5</ele><time>2026-04-29T12:59:06.163Z</time></trkpt><trkpt lat="40.348776973579305" lon="8.493131606766946"><ele>504.0</ele><time>2026-04-29T12:59:07.163Z</time></trkpt><trkpt lat="40.348640917506415" lon="8.493125244919675"><ele>501.5</ele><time>2026-04-29T12:59:08.163Z</time></trkpt><trkpt lat="40.348497663412196" lon="8.493051485572522"><ele>499.0</ele><time>2026-04-29T12:59:09.163Z</time></trkpt><trkpt lat="40.348358122454876" lon="8.492932630677956"><ele>500.0</ele><time>2026-04-29T12:59:10.163Z</time></trkpt><trkpt lat="40.34821748352271" lon="8.492811097563994"><ele>501.0</ele><time>2026-04-29T12:59:11.163Z</time></trkpt><trkpt lat="40.348070896261824" lon="8.492708070176372"><ele>502.0</ele><time>2026-04-29T12:59:12.163Z</time></trkpt><trkpt lat="40.347934583939974" lon="8.492642072359338"><ele>502.0</ele><time>2026-04-29T12:59:13.163Z</time></trkpt><trkpt lat="40.34780260950431" lon="8.492640870746074"><ele>502.0</ele><time>2026-04-29T12:59:14.163Z</time></trkpt><trkpt lat="40.347684309617094" lon="8.492715995248977"><ele>502.0</ele><time>2026-04-29T12:59:15.163Z</time></trkpt><trkpt lat="40.34758172228197" lon="8.492846355259148"><ele>502.0</ele><time>2026-04-29T12:59:16.163Z</time></trkpt><trkpt lat="40.34749629286115" lon="8.493002856232803"><ele>499.25</ele><time>2026-04-29T12:59:17.163Z</time></trkpt><trkpt lat="40.347407817031076" lon="8.493106305635449"><ele>496.5</ele><time>2026-04-29T12:59:18.163Z</time></trkpt><trkpt lat="40.34729046723712" lon="8.49312386367598"><ele>493.75</ele><time>2026-04-29T12:59:19.163Z</time></trkpt><trkpt lat="40.34716588680993" lon="8.493070850009685"><ele>491.0</ele><time>2026-04-29T12:59:20.163Z</time></trkpt><trkpt lat="40.34704344657269" lon="8.492965883331564"><ele>490.66666666666663</ele><time>2026-04-29T12:59:21.163Z</time></trkpt><trkpt lat="40.346921495986244" lon="8.492827326350731"><ele>490.33333333333337</ele><time>2026-04-29T12:59:22.163Z</time></trkpt><trkpt lat="40.346794780728274" lon="8.492682251047203"><ele>490.0</ele><time>2026-04-29T12:59:23.163Z</time></trkpt><trkpt lat="40.34665698661294" lon="8.492527689369915"><ele>490.0</ele><time>2026-04-29T12:59:24.163Z</time></trkpt><trkpt lat="40.34650225939534" lon="8.492387047528732"><ele>490.0</ele><time>2026-04-29T12:59:25.163Z</time></trkpt><trkpt lat="40.34633840303008" lon="8.492255459746527"><ele>490.0</ele><time>2026-04-29T12:59:26.163Z</time></trkpt><trkpt lat="40.34617781830003" lon="8.49212500150037"><ele>488.6666666666667</ele><time>2026-04-29T12:59:27.163Z</time></trkpt><trkpt lat="40.346026982258564" lon="8.492004923075115"><ele>487.33333333333337</ele><time>2026-04-29T12:59:28.163Z</time></trkpt><trkpt lat="40.34587963249475" lon="8.491935279559833"><ele>486.0</ele><time>2026-04-29T12:59:29.163Z</time></trkpt><trkpt lat="40.34572698079795" lon="8.491956394596142"><ele>486.0</ele><time>2026-04-29T12:59:30.163Z</time></trkpt><trkpt lat="40.34557873213054" lon="8.492052249197942"><ele>486.0</ele><time>2026-04-29T12:59:31.163Z</time></trkpt><trkpt lat="40.345436159542466" lon="8.49220549173269"><ele>486.0</ele><time>2026-04-29T12:59:32.163Z</time></trkpt><trkpt lat="40.34529235084705" lon="8.492371692595682"><ele>482.66666666666663</ele><time>2026-04-29T12:59:33.163Z</time></trkpt><trkpt lat="40.345147893256126" lon="8.492544071561518"><ele>479.3333333333333</ele><time>2026-04-29T12:59:34.163Z</time></trkpt><trkpt lat="40.34500010377262" lon="8.492725098113413"><ele>476.0</ele><time>2026-04-29T12:59:35.163Z</time></trkpt><trkpt lat="40.34484729889029" lon="8.492917099208137"><ele>474.66666666666663</ele><time>2026-04-29T12:59:36.163Z</time></trkpt><trkpt lat="40.34469615059195" lon="8.493118850484008"><ele>473.33333333333337</ele><time>2026-04-29T12:59:37.163Z</time></trkpt><trkpt lat="40.34455498577865" lon="8.493322790211602"><ele>472.0</ele><time>2026-04-29T12:59:38.163Z</time></trkpt><trkpt lat="40.34442760662639" lon="8.493543376042231"><ele>470.6666666666667</ele><time>2026-04-29T12:59:39.163Z</time></trkpt><trkpt lat="40.34430931536544" lon="8.493769298615133"><ele>469.33333333333337</ele><time>2026-04-29T12:59:40.163Z</time></trkpt><trkpt lat="40.344214187705084" lon="8.494011199400957"><ele>468.0</ele><time>2026-04-29T12:59:41.163Z</time></trkpt><trkpt lat="40.34414143310743" lon="8.494263076420571"><ele>468.0</ele><time>2026-04-29T12:59:42.163Z</time></trkpt><trkpt lat="40.3440836440605" lon="8.494520653357734"><ele>468.0</ele><time>2026-04-29T12:59:43.163Z</time></trkpt><trkpt lat="40.34402887977931" lon="8.494764310157475"><ele>468.0</ele><time>2026-04-29T12:59:44.163Z</time></trkpt><trkpt lat="40.34397632007965" lon="8.49499061072651"><ele>467.5</ele><time>2026-04-29T12:59:45.163Z</time></trkpt><trkpt lat="40.34392828218677" lon="8.495191228005027"><ele>467.0</ele><time>2026-04-29T12:59:46.163Z</time></trkpt><trkpt lat="40.34388100119254" lon="8.495363607485036"><ele>466.5</ele><time>2026-04-29T12:59:47.163Z</time></trkpt><trkpt lat="40.343820159495756" lon="8.495485955363945"><ele>466.0</ele><time>2026-04-29T12:59:48.163Z</time></trkpt><trkpt lat="40.34372634828179" lon="8.495535122433889"><ele>464.25</ele><time>2026-04-29T12:59:49.163Z</time></trkpt><trkpt lat="40.34361524953364" lon="8.495491605606878"><ele>462.5</ele><time>2026-04-29T12:59:50.163Z</time></trkpt><trkpt lat="40.34352927634525" lon="8.495372723013075"><ele>460.75</ele><time>2026-04-29T12:59:51.163Z</time></trkpt><trkpt lat="40.34350481058778" lon="8.49519473410021"><ele>459.0</ele><time>2026-04-29T12:59:52.163Z</time></trkpt><trkpt lat="40.343491130220904" lon="8.494977885727073"><ele>459.0</ele><time>2026-04-29T12:59:53.163Z</time></trkpt><trkpt lat="40.34346900105272" lon="8.494765505523874"><ele>459.0</ele><time>2026-04-29T12:59:54.163Z</time></trkpt><trkpt lat="40.34342573557272" lon="8.494546236347022"><ele>459.0</ele><time>2026-04-29T12:59:55.163Z</time></trkpt><trkpt lat="40.34336585033161" lon="8.49432036939957"><ele>459.0</ele><time>2026-04-29T12:59:56.163Z</time></trkpt><trkpt lat="40.34330798998269" lon="8.494092735234494"><ele>459.0</ele><time>2026-04-29T12:59:57.163Z</time></trkpt><trkpt lat="40.34325138068949" lon="8.493858495157843"><ele>459.0</ele><time>2026-04-29T12:59:58.163Z</time></trkpt><trkpt lat="40.34318676727953" lon="8.493608401386172"><ele>460.33333333333337</ele><time>2026-04-29T12:59:59.163Z</time></trkpt><trkpt lat="40.34312040479603" lon="8.493356845128181"><ele>461.6666666666667</ele><time>2026-04-29T13:00:00.163Z</time></trkpt><trkpt lat="40.34304795801462" lon="8.493112693778055"><ele>463.0</ele><time>2026-04-29T13:00:01.163Z</time></trkpt><trkpt lat="40.34296347853004" lon="8.492892477506093"><ele>458.33333333333337</ele><time>2026-04-29T13:00:02.163Z</time></trkpt><trkpt lat="40.34284862348711" lon="8.492714965917903"><ele>453.66666666666663</ele><time>2026-04-29T13:00:03.163Z</time></trkpt><trkpt lat="40.342709368785236" lon="8.49258358446603"><ele>449.0</ele><time>2026-04-29T13:00:04.163Z</time></trkpt><trkpt lat="40.34253351585973" lon="8.492513633220637"><ele>449.0</ele><time>2026-04-29T13:00:05.163Z</time></trkpt><trkpt lat="40.342339884435624" lon="8.49251699792579"><ele>449.0</ele><time>2026-04-29T13:00:06.163Z</time></trkpt><trkpt lat="40.342131736798315" lon="8.492574382342609"><ele>449.0</ele><time>2026-04-29T13:00:07.163Z</time></trkpt><trkpt lat="40.34192341941809" lon="8.492666101641287"><ele>448.66666666666663</ele><time>2026-04-29T13:00:08.163Z</time></trkpt><trkpt lat="40.34171974554947" lon="8.492788390080678"><ele>448.33333333333337</ele><time>2026-04-29T13:00:09.163Z</time></trkpt><trkpt lat="40.34152129487834" lon="8.492923519217843"><ele>448.0</ele><time>2026-04-29T13:00:10.163Z</time></trkpt><trkpt lat="40.34132115182446" lon="8.493062267848252"><ele>448.0</ele><time>2026-04-29T13:00:11.163Z</time></trkpt><trkpt lat="40.34111546626205" lon="8.493203465003452"><ele>448.0</ele><time>2026-04-29T13:00:12.163Z</time></trkpt><trkpt lat="40.340909050190504" lon="8.493342666240103"><ele>448.0</ele><time>2026-04-29T13:00:13.163Z</time></trkpt><trkpt lat="40.340713039062344" lon="8.49349050509209"><ele>448.0</ele><time>2026-04-29T13:00:14.163Z</time></trkpt><trkpt lat="40.3405382875161" lon="8.493670313194716"><ele>448.0</ele><time>2026-04-29T13:00:15.163Z</time></trkpt><trkpt lat="40.34037121329497" lon="8.493854314481624"><ele>447.33333333333337</ele><time>2026-04-29T13:00:16.163Z</time></trkpt><trkpt lat="40.34018705651676" lon="8.49401319543949"><ele>446.66666666666663</ele><time>2026-04-29T13:00:17.164Z</time></trkpt><trkpt lat="40.33999074534009" lon="8.494153496951592"><ele>446.0</ele><time>2026-04-29T13:00:18.164Z</time></trkpt><trkpt lat="40.33978797288401" lon="8.494292068607425"><ele>445.66666666666663</ele><time>2026-04-29T13:00:19.164Z</time></trkpt><trkpt lat="40.339589752557316" lon="8.494435741886695"><ele>445.33333333333337</ele><time>2026-04-29T13:00:20.164Z</time></trkpt><trkpt lat="40.33939180530933" lon="8.494562650807731"><ele>445.0</ele><time>2026-04-29T13:00:21.164Z</time></trkpt><trkpt lat="40.33918720866953" lon="8.494643439536627"><ele>445.0</ele><time>2026-04-29T13:00:22.164Z</time></trkpt><trkpt lat="40.33897983698865" lon="8.494691856606416"><ele>445.0</ele><time>2026-04-29T13:00:23.164Z</time></trkpt><trkpt lat="40.33876795598663" lon="8.49472710085817"><ele>445.0</ele><time>2026-04-29T13:00:24.164Z</time></trkpt><trkpt lat="40.338568139460264" lon="8.494754179052615"><ele>446.33333333333337</ele><time>2026-04-29T13:00:25.164Z</time></trkpt><trkpt lat="40.33838031937845" lon="8.494724703550364"><ele>447.66666666666663</ele><time>2026-04-29T13:00:26.164Z</time></trkpt><trkpt lat="40.33820342511573" lon="8.494635906092347"><ele>449.0</ele><time>2026-04-29T13:00:27.163Z</time></trkpt><trkpt lat="40.33803872457332" lon="8.494496563781114"><ele>449.0</ele><time>2026-04-29T13:00:28.163Z</time></trkpt><trkpt lat="40.33787975729863" lon="8.4943302300259"><ele>449.0</ele><time>2026-04-29T13:00:29.164Z</time></trkpt><trkpt lat="40.337719534107535" lon="8.494167149249874"><ele>449.0</ele><time>2026-04-29T13:00:30.164Z</time></trkpt><trkpt lat="40.33757319137095" lon="8.49402408079396"><ele>449.0</ele><time>2026-04-29T13:00:31.164Z</time></trkpt><trkpt lat="40.33742617676711" lon="8.493905537223839"><ele>449.0</ele><time>2026-04-29T13:00:32.164Z</time></trkpt><trkpt lat="40.3372520196364" lon="8.493836245702402"><ele>449.0</ele><time>2026-04-29T13:00:33.164Z</time></trkpt><trkpt lat="40.33706307487784" lon="8.493835323826977"><ele>450.3333333333333</ele><time>2026-04-29T13:00:34.164Z</time></trkpt><trkpt lat="40.33686698163755" lon="8.493868964457675"><ele>451.66666666666663</ele><time>2026-04-29T13:00:35.164Z</time></trkpt><trkpt lat="40.33667805531123" lon="8.493890962359943"><ele>453.0</ele><time>2026-04-29T13:00:36.164Z</time></trkpt><trkpt lat="40.33650232739474" lon="8.493837287609761"><ele>452.0</ele><time>2026-04-29T13:00:37.164Z</time></trkpt><trkpt lat="40.33636340932067" lon="8.493701533747185"><ele>451.0</ele><time>2026-04-29T13:00:38.164Z</time></trkpt><trkpt lat="40.33624566543496" lon="8.493503719487691"><ele>450.0</ele><time>2026-04-29T13:00:39.164Z</time></trkpt><trkpt lat="40.33612827964058" lon="8.493307445254073"><ele>450.0</ele><time>2026-04-29T13:00:40.164Z</time></trkpt><trkpt lat="40.33598823297924" lon="8.493166376403307"><ele>450.0</ele><time>2026-04-29T13:00:41.164Z</time></trkpt><trkpt lat="40.335829491894515" lon="8.49308134357419"><ele>450.0</ele><time>2026-04-29T13:00:42.164Z</time></trkpt><trkpt lat="40.33563688287219" lon="8.493002025341733"><ele>447.0</ele><time>2026-04-29T13:00:43.164Z</time></trkpt><trkpt lat="40.33544778720715" lon="8.49289586920896"><ele>444.0</ele><time>2026-04-29T13:00:44.164Z</time></trkpt><trkpt lat="40.335276728818364" lon="8.492736565626114"><ele>441.0</ele><time>2026-04-29T13:00:45.164Z</time></trkpt><trkpt lat="40.33513011943103" lon="8.492540645583523"><ele>441.0</ele><time>2026-04-29T13:00:46.164Z</time></trkpt><trkpt lat="40.33500293998251" lon="8.49232229668396"><ele>441.0</ele><time>2026-04-29T13:00:47.164Z</time></trkpt><trkpt lat="40.33489414723608" lon="8.492093366073878"><ele>441.0</ele><time>2026-04-29T13:00:48.164Z</time></trkpt><trkpt lat="40.334787209856444" lon="8.491879388405183"><ele>432.33333333333337</ele><time>2026-04-29T13:00:49.164Z</time></trkpt><trkpt lat="40.33468596273259" lon="8.491681040737802"><ele>423.6666666666667</ele><time>2026-04-29T13:00:50.164Z</time></trkpt><trkpt lat="40.33458490393569" lon="8.49149043316604"><ele>415.0</ele><time>2026-04-29T13:00:51.164Z</time></trkpt><trkpt lat="40.33450296541108" lon="8.491295943856763"><ele>418.5</ele><time>2026-04-29T13:00:52.164Z</time></trkpt><trkpt lat="40.33444839710723" lon="8.491109405760092"><ele>422.0</ele><time>2026-04-29T13:00:53.164Z</time></trkpt><trkpt lat="40.33440009786161" lon="8.490953153419856"><ele>425.5</ele><time>2026-04-29T13:00:54.164Z</time></trkpt><trkpt lat="40.334352700471904" lon="8.490841789342966"><ele>429.0</ele><time>2026-04-29T13:00:55.164Z</time></trkpt><trkpt lat="40.33427672425481" lon="8.490793902217389"><ele>429.0</ele><time>2026-04-29T13:00:56.164Z</time></trkpt><trkpt lat="40.334202254537125" lon="8.490844842092054"><ele>429.0</ele><time>2026-04-29T13:00:57.164Z</time></trkpt><trkpt lat="40.3341779226879" lon="8.490964236296254"><ele>429.0</ele><time>2026-04-29T13:00:58.164Z</time></trkpt><trkpt lat="40.3342149174383" lon="8.491123259396506"><ele>429.0</ele><time>2026-04-29T13:00:59.164Z</time></trkpt><trkpt lat="40.334290722868545" lon="8.491279685965777"><ele>429.0</ele><time>2026-04-29T13:01:00.164Z</time></trkpt><trkpt lat="40.334368821765125" lon="8.491440208224564"><ele>425.5</ele><time>2026-04-29T13:01:01.164Z</time></trkpt><trkpt lat="40.33443266127419" lon="8.491600917799872"><ele>422.0</ele><time>2026-04-29T13:01:02.164Z</time></trkpt><trkpt lat="40.33449077697791" lon="8.491783160234956"><ele>418.5</ele><time>2026-04-29T13:01:03.164Z</time></trkpt><trkpt lat="40.33454628612134" lon="8.491971480333909"><ele>415.0</ele><time>2026-04-29T13:01:04.164Z</time></trkpt><trkpt lat="40.33460020881854" lon="8.492151294928458"><ele>410.33333333333337</ele><time>2026-04-29T13:01:05.164Z</time></trkpt><trkpt lat="40.33464558657673" lon="8.492327911753284"><ele>405.66666666666663</ele><time>2026-04-29T13:01:06.164Z</time></trkpt><trkpt lat="40.334673367089756" lon="8.492526515103817"><ele>401.0</ele><time>2026-04-29T13:01:07.164Z</time></trkpt><trkpt lat="40.33467828756445" lon="8.492738109322472"><ele>398.0</ele><time>2026-04-29T13:01:08.164Z</time></trkpt><trkpt lat="40.33469866490663" lon="8.492952305233583"><ele>395.0</ele><time>2026-04-29T13:01:09.164Z</time></trkpt><trkpt lat="40.334723190546384" lon="8.493160011714401"><ele>392.0</ele><time>2026-04-29T13:01:10.164Z</time></trkpt><trkpt lat="40.33476241695123" lon="8.493356342150863"><ele>402.0</ele><time>2026-04-29T13:01:11.164Z</time></trkpt><trkpt lat="40.33476843931881" lon="8.493575281240195"><ele>412.0</ele><time>2026-04-29T13:01:12.164Z</time></trkpt><trkpt lat="40.3347700764464" lon="8.493805159086401"><ele>422.0</ele><time>2026-04-29T13:01:13.164Z</time></trkpt><trkpt lat="40.33476227495203" lon="8.49402895619759"><ele>422.0</ele><time>2026-04-29T13:01:14.164Z</time></trkpt><trkpt lat="40.33474213921771" lon="8.494249675510355"><ele>422.0</ele><time>2026-04-29T13:01:15.164Z</time></trkpt><trkpt lat="40.3346982176251" lon="8.494464469538023"><ele>422.0</ele><time>2026-04-29T13:01:16.164Z</time></trkpt><trkpt lat="40.33465054488332" lon="8.494678264881882"><ele>410.3333333333333</ele><time>2026-04-29T13:01:17.164Z</time></trkpt><trkpt lat="40.33459723044792" lon="8.494897745642744"><ele>398.66666666666663</ele><time>2026-04-29T13:01:18.164Z</time></trkpt><trkpt lat="40.33454360541205" lon="8.495114968575857"><ele>387.0</ele><time>2026-04-29T13:01:19.164Z</time></trkpt><trkpt lat="40.334489714221085" lon="8.495332663319454"><ele>389.66666666666663</ele><time>2026-04-29T13:01:20.164Z</time></trkpt><trkpt lat="40.33443777562276" lon="8.495550677680738"><ele>392.3333333333333</ele><time>2026-04-29T13:01:21.164Z</time></trkpt><trkpt lat="40.33438031877006" lon="8.495762879758317"><ele>395.0</ele><time>2026-04-29T13:01:22.164Z</time></trkpt><trkpt lat="40.33428805089782" lon="8.495952513012663"><ele>395.0</ele><time>2026-04-29T13:01:23.164Z</time></trkpt><trkpt lat="40.33417074892107" lon="8.496112181867767"><ele>395.0</ele><time>2026-04-29T13:01:24.164Z</time></trkpt><trkpt lat="40.3340396502037" lon="8.496302952605078"><ele>395.0</ele><time>2026-04-29T13:01:25.164Z</time></trkpt><trkpt lat="40.33389560336003" lon="8.49654546393305"><ele>386.0</ele><time>2026-04-29T13:01:26.164Z</time></trkpt><trkpt lat="40.33374944490134" lon="8.496795527366586"><ele>377.0</ele><time>2026-04-29T13:01:27.164Z</time></trkpt><trkpt lat="40.333615726610645" lon="8.497026731110044"><ele>382.33333333333337</ele><time>2026-04-29T13:01:28.164Z</time></trkpt><trkpt lat="40.33348830265965" lon="8.497266591311265"><ele>387.6666666666667</ele><time>2026-04-29T13:01:29.164Z</time></trkpt><trkpt lat="40.33334950576776" lon="8.497492610943407"><ele>393.0</ele><time>2026-04-29T13:01:30.164Z</time></trkpt><trkpt lat="40.33319078569592" lon="8.497705468787519"><ele>385.5</ele><time>2026-04-29T13:01:31.164Z</time></trkpt><trkpt lat="40.33301726918405" lon="8.497909113236194"><ele>378.0</ele><time>2026-04-29T13:01:32.164Z</time></trkpt><trkpt lat="40.332852554620885" lon="8.498106030037267"><ele>378.0</ele><time>2026-04-29T13:01:33.164Z</time></trkpt><trkpt lat="40.33270213871395" lon="8.498283093775465"><ele>378.0</ele><time>2026-04-29T13:01:34.164Z</time></trkpt><trkpt lat="40.33256221633038" lon="8.498436740691076"><ele>378.0</ele><time>2026-04-29T13:01:35.164Z</time></trkpt><trkpt lat="40.33243939004842" lon="8.49856292749211"><ele>378.0</ele><time>2026-04-29T13:01:36.164Z</time></trkpt><trkpt lat="40.332317777406196" lon="8.498666656395327"><ele>378.0</ele><time>2026-04-29T13:01:37.164Z</time></trkpt><trkpt lat="40.33218820129946" lon="8.49871590319513"><ele>378.0</ele><time>2026-04-29T13:01:38.164Z</time></trkpt><trkpt lat="40.33204809088396" lon="8.498711344557792"><ele>378.0</ele><time>2026-04-29T13:01:39.164Z</time></trkpt><trkpt lat="40.331909560624325" lon="8.498628703429066"><ele>375.0</ele><time>2026-04-29T13:01:40.164Z</time></trkpt><trkpt lat="40.331786738581165" lon="8.498467089787157"><ele>372.0</ele><time>2026-04-29T13:01:41.164Z</time></trkpt><trkpt lat="40.33168082154346" lon="8.49830223589789"><ele>369.0</ele><time>2026-04-29T13:01:42.164Z</time></trkpt><trkpt lat="40.33156104285859" lon="8.498242009108083"><ele>369.0</ele><time>2026-04-29T13:01:43.164Z</time></trkpt><trkpt lat="40.33143511106004" lon="8.498285157737056"><ele>369.0</ele><time>2026-04-29T13:01:44.164Z</time></trkpt><trkpt lat="40.331307870567755" lon="8.498415286766795"><ele>369.0</ele><time>2026-04-29T13:01:45.164Z</time></trkpt><trkpt lat="40.33117236029909" lon="8.498516161436385"><ele>369.0</ele><time>2026-04-29T13:01:46.164Z</time></trkpt><trkpt lat="40.331011154526955" lon="8.498605945912635"><ele>366.0</ele><time>2026-04-29T13:01:47.164Z</time></trkpt><trkpt lat="40.3308313984991" lon="8.498654920129274"><ele>363.0</ele><time>2026-04-29T13:01:48.164Z</time></trkpt><trkpt lat="40.33064839052575" lon="8.498645187943836"><ele>360.0</ele><time>2026-04-29T13:01:49.164Z</time></trkpt><trkpt lat="40.33044900523135" lon="8.498621128095031"><ele>357.6666666666667</ele><time>2026-04-29T13:01:50.164Z</time></trkpt><trkpt lat="40.33024735143193" lon="8.498621548354794"><ele>355.33333333333337</ele><time>2026-04-29T13:01:51.164Z</time></trkpt><trkpt lat="40.33004760260046" lon="8.498643902131436"><ele>353.0</ele><time>2026-04-29T13:01:52.164Z</time></trkpt><trkpt lat="40.32986555731742" lon="8.498648365066336"><ele>353.33333333333337</ele><time>2026-04-29T13:01:53.164Z</time></trkpt><trkpt lat="40.32970607011702" lon="8.4986260466362"><ele>353.6666666666667</ele><time>2026-04-29T13:01:54.164Z</time></trkpt><trkpt lat="40.32956532650238" lon="8.49852392325405"><ele>354.0</ele><time>2026-04-29T13:01:55.164Z</time></trkpt><trkpt lat="40.32942809495294" lon="8.498357280367955"><ele>354.0</ele><time>2026-04-29T13:01:56.164Z</time></trkpt><trkpt lat="40.32929517203226" lon="8.49816613949031"><ele>354.0</ele><time>2026-04-29T13:01:57.164Z</time></trkpt><trkpt lat="40.32915541303" lon="8.497980748145332"><ele>354.0</ele><time>2026-04-29T13:01:58.164Z</time></trkpt><trkpt lat="40.32902100267613" lon="8.497809386390342"><ele>352.0</ele><time>2026-04-29T13:01:59.164Z</time></trkpt><trkpt lat="40.32890006887473" lon="8.497660965220051"><ele>350.0</ele><time>2026-04-29T13:02:00.164Z</time></trkpt><trkpt lat="40.32875625932862" lon="8.497567744168592"><ele>348.0</ele><time>2026-04-29T13:02:01.164Z</time></trkpt><trkpt lat="40.32857758458059" lon="8.49752365082443"><ele>348.0</ele><time>2026-04-29T13:02:02.164Z</time></trkpt><trkpt lat="40.32838656441938" lon="8.497519996140209"><ele>348.0</ele><time>2026-04-29T13:02:03.164Z</time></trkpt><trkpt lat="40.32818657502427" lon="8.497527492330565"><ele>348.0</ele><time>2026-04-29T13:02:04.164Z</time></trkpt><trkpt lat="40.32798132812852" lon="8.497527875480106"><ele>347.6666666666667</ele><time>2026-04-29T13:02:05.164Z</time></trkpt><trkpt lat="40.32776938845737" lon="8.497512034775239"><ele>347.33333333333337</ele><time>2026-04-29T13:02:06.164Z</time></trkpt><trkpt lat="40.32755798769769" lon="8.497465559754295"><ele>347.0</ele><time>2026-04-29T13:02:07.164Z</time></trkpt><trkpt lat="40.32735796801689" lon="8.497386481413805"><ele>346.33333333333337</ele><time>2026-04-29T13:02:08.164Z</time></trkpt><trkpt lat="40.327178841472886" lon="8.497268249130165"><ele>345.6666666666667</ele><time>2026-04-29T13:02:09.164Z</time></trkpt><trkpt lat="40.3270235423088" lon="8.497097693720947"><ele>345.0</ele><time>2026-04-29T13:02:10.164Z</time></trkpt><trkpt lat="40.326871443575264" lon="8.496917146145183"><ele>345.0</ele><time>2026-04-29T13:02:11.164Z</time></trkpt><trkpt lat="40.32674098185589" lon="8.496739943647613"><ele>345.0</ele><time>2026-04-29T13:02:12.164Z</time></trkpt><trkpt lat="40.32664572946158" lon="8.496538451650716"><ele>345.0</ele><time>2026-04-29T13:02:13.164Z</time></trkpt><trkpt lat="40.32657047697527" lon="8.496358277852575"><ele>344.75</ele><time>2026-04-29T13:02:14.164Z</time></trkpt><trkpt lat="40.32647926165426" lon="8.4962275842571"><ele>344.5</ele><time>2026-04-29T13:02:15.164Z</time></trkpt><trkpt lat="40.32636449425078" lon="8.496165941930789"><ele>344.25</ele><time>2026-04-29T13:02:16.164Z</time></trkpt><trkpt lat="40.32622877947789" lon="8.496187146737102"><ele>344.0</ele><time>2026-04-29T13:02:17.164Z</time></trkpt><trkpt lat="40.32607093699089" lon="8.49630574608079"><ele>341.6666666666667</ele><time>2026-04-29T13:02:18.164Z</time></trkpt><trkpt lat="40.32590464579909" lon="8.496447211065094"><ele>339.3333333333333</ele><time>2026-04-29T13:02:19.164Z</time></trkpt><trkpt lat="40.32572927860711" lon="8.496570625342974"><ele>337.0</ele><time>2026-04-29T13:02:20.164Z</time></trkpt><trkpt lat="40.325542430649605" lon="8.496631605648842"><ele>336.3333333333333</ele><time>2026-04-29T13:02:21.164Z</time></trkpt><trkpt lat="40.32535053125826" lon="8.496645912631578"><ele>335.6666666666667</ele><time>2026-04-29T13:02:22.164Z</time></trkpt><trkpt lat="40.32515882987219" lon="8.49665252726058"><ele>335.0</ele><time>2026-04-29T13:02:23.165Z</time></trkpt><trkpt lat="40.32499257818376" lon="8.496671562641726"><ele>335.0</ele><time>2026-04-29T13:02:24.164Z</time></trkpt><trkpt lat="40.32485258421769" lon="8.496733119395834"><ele>335.0</ele><time>2026-04-29T13:02:25.164Z</time></trkpt><trkpt lat="40.32472493222496" lon="8.496862939820465"><ele>335.0</ele><time>2026-04-29T13:02:26.165Z</time></trkpt><trkpt lat="40.32461494200119" lon="8.497050691614803"><ele>333.0</ele><time>2026-04-29T13:02:27.164Z</time></trkpt><trkpt lat="40.324523807240055" lon="8.49727576393464"><ele>331.0</ele><time>2026-04-29T13:02:28.164Z</time></trkpt><trkpt lat="40.32443314978915" lon="8.497515117275931"><ele>329.0</ele><time>2026-04-29T13:02:29.164Z</time></trkpt><trkpt lat="40.32433559664353" lon="8.497749558658432"><ele>326.6666666666667</ele><time>2026-04-29T13:02:30.164Z</time></trkpt><trkpt lat="40.32420673324756" lon="8.497954176023915"><ele>324.3333333333333</ele><time>2026-04-29T13:02:31.164Z</time></trkpt><trkpt lat="40.32406198807794" lon="8.49815011466641"><ele>322.0</ele><time>2026-04-29T13:02:32.165Z</time></trkpt><trkpt lat="40.323917029819675" lon="8.498346958968696"><ele>321.3333333333333</ele><time>2026-04-29T13:02:33.164Z</time></trkpt><trkpt lat="40.32377368035921" lon="8.498551190024894"><ele>320.6666666666667</ele><time>2026-04-29T13:02:34.164Z</time></trkpt><trkpt lat="40.323628638276524" lon="8.498764185920324"><ele>320.0</ele><time>2026-04-29T13:02:35.165Z</time></trkpt><trkpt lat="40.32347910543212" lon="8.498972135673885"><ele>320.33333333333337</ele><time>2026-04-29T13:02:36.164Z</time></trkpt><trkpt lat="40.32333135041052" lon="8.499178781659309"><ele>320.6666666666667</ele><time>2026-04-29T13:02:37.164Z</time></trkpt><trkpt lat="40.32318213358311" lon="8.499383804220887"><ele>321.0</ele><time>2026-04-29T13:02:38.164Z</time></trkpt><trkpt lat="40.32303498733086" lon="8.499587913547987"><ele>321.0</ele><time>2026-04-29T13:02:39.164Z</time></trkpt><trkpt lat="40.322892009405194" lon="8.499797714172754"><ele>321.0</ele><time>2026-04-29T13:02:40.164Z</time></trkpt><trkpt lat="40.32276882555505" lon="8.500025084501335"><ele>321.0</ele><time>2026-04-29T13:02:41.164Z</time></trkpt><trkpt lat="40.322669030946045" lon="8.500268808271919"><ele>320.6666666666667</ele><time>2026-04-29T13:02:42.164Z</time></trkpt><trkpt lat="40.32259931813584" lon="8.50052609298118"><ele>320.33333333333337</ele><time>2026-04-29T13:02:43.164Z</time></trkpt><trkpt lat="40.32256007181543" lon="8.50079735759524"><ele>320.0</ele><time>2026-04-29T13:02:44.164Z</time></trkpt><trkpt lat="40.32255942940537" lon="8.501074137123762"><ele>320.6666666666667</ele><time>2026-04-29T13:02:45.164Z</time></trkpt><trkpt lat="40.32257773058698" lon="8.501346359812446"><ele>321.3333333333333</ele><time>2026-04-29T13:02:46.164Z</time></trkpt><trkpt lat="40.322602259373774" lon="8.501611263493245"><ele>322.0</ele><time>2026-04-29T13:02:47.164Z</time></trkpt><trkpt lat="40.32261728848947" lon="8.501860686594473"><ele>322.66666666666663</ele><time>2026-04-29T13:02:48.164Z</time></trkpt><trkpt lat="40.322610687288574" lon="8.502114282136626"><ele>323.3333333333333</ele><time>2026-04-29T13:02:49.164Z</time></trkpt><trkpt lat="40.3225545036616" lon="8.5023489059667"><ele>324.0</ele><time>2026-04-29T13:02:50.164Z</time></trkpt><trkpt lat="40.322483193996035" lon="8.502575081143926"><ele>324.0</ele><time>2026-04-29T13:02:51.164Z</time></trkpt><trkpt lat="40.32244357030141" lon="8.502816826331127"><ele>324.0</ele><time>2026-04-29T13:02:52.164Z</time></trkpt><trkpt lat="40.32244213998868" lon="8.503076775319721"><ele>324.0</ele><time>2026-04-29T13:02:53.164Z</time></trkpt><trkpt lat="40.32246324710702" lon="8.503340729378472"><ele>322.6666666666667</ele><time>2026-04-29T13:02:54.164Z</time></trkpt><trkpt lat="40.32248374696162" lon="8.503609427303166"><ele>321.33333333333337</ele><time>2026-04-29T13:02:55.164Z</time></trkpt><trkpt lat="40.32250463418368" lon="8.503860940985764"><ele>320.0</ele><time>2026-04-29T13:02:56.164Z</time></trkpt><trkpt lat="40.322520853080384" lon="8.50410378585968"><ele>317.6666666666667</ele><time>2026-04-29T13:02:57.164Z</time></trkpt><trkpt lat="40.3225206585376" lon="8.504355552496685"><ele>315.3333333333333</ele><time>2026-04-29T13:02:58.164Z</time></trkpt><trkpt lat="40.32249414468529" lon="8.504619173994808"><ele>313.0</ele><time>2026-04-29T13:02:59.164Z</time></trkpt><trkpt lat="40.322445833477964" lon="8.504891268516888"><ele>312.3333333333333</ele><time>2026-04-29T13:03:00.164Z</time></trkpt><trkpt lat="40.32241157531328" lon="8.505175894232563"><ele>311.6666666666667</ele><time>2026-04-29T13:03:01.164Z</time></trkpt><trkpt lat="40.322389887097756" lon="8.505462715341139"><ele>311.0</ele><time>2026-04-29T13:03:02.164Z</time></trkpt><trkpt lat="40.32237436354338" lon="8.505752690632827"><ele>309.0</ele><time>2026-04-29T13:03:03.164Z</time></trkpt><trkpt lat="40.322357747579126" lon="8.506045892085632"><ele>307.0</ele><time>2026-04-29T13:03:04.164Z</time></trkpt><trkpt lat="40.32233536902575" lon="8.50631908801665"><ele>305.0</ele><time>2026-04-29T13:03:05.164Z</time></trkpt><trkpt lat="40.32230512802379" lon="8.506578830433899"><ele>303.0</ele><time>2026-04-29T13:03:06.164Z</time></trkpt><trkpt lat="40.32226844178379" lon="8.506824557359664"><ele>301.0</ele><time>2026-04-29T13:03:07.164Z</time></trkpt><trkpt lat="40.32223041916405" lon="8.507063186271605"><ele>299.0</ele><time>2026-04-29T13:03:08.164Z</time></trkpt><trkpt lat="40.32220511000035" lon="8.507303524981825"><ele>295.33333333333337</ele><time>2026-04-29T13:03:09.164Z</time></trkpt><trkpt lat="40.322194869818766" lon="8.507538158827554"><ele>291.6666666666667</ele><time>2026-04-29T13:03:10.164Z</time></trkpt><trkpt lat="40.32221987821741" lon="8.507766886214522"><ele>288.0</ele><time>2026-04-29T13:03:11.164Z</time></trkpt><trkpt lat="40.32227771862325" lon="8.507980400010187"><ele>288.0</ele><time>2026-04-29T13:03:12.164Z</time></trkpt><trkpt lat="40.322370244450276" lon="8.50814980048649"><ele>288.0</ele><time>2026-04-29T13:03:13.164Z</time></trkpt><trkpt lat="40.322509107659435" lon="8.508285595387985"><ele>288.0</ele><time>2026-04-29T13:03:14.164Z</time></trkpt><trkpt lat="40.32267225175321" lon="8.50838889528489"><ele>288.0</ele><time>2026-04-29T13:03:15.164Z</time></trkpt><trkpt lat="40.3228202211598" lon="8.5084776622284"><ele>288.0</ele><time>2026-04-29T13:03:16.164Z</time></trkpt><trkpt lat="40.322907138898564" lon="8.508607718182057"><ele>288.0</ele><time>2026-04-29T13:03:17.164Z</time></trkpt><trkpt lat="40.3229149177451" lon="8.508790561411626"><ele>288.0</ele><time>2026-04-29T13:03:18.164Z</time></trkpt><trkpt lat="40.32288554984147" lon="8.509018396121105"><ele>287.6666666666667</ele><time>2026-04-29T13:03:19.164Z</time></trkpt><trkpt lat="40.32289069082596" lon="8.5092957913346"><ele>287.33333333333337</ele><time>2026-04-29T13:03:20.164Z</time></trkpt><trkpt lat="40.322906994632746" lon="8.509579189824812"><ele>287.0</ele><time>2026-04-29T13:03:21.164Z</time></trkpt><trkpt lat="40.322910987282285" lon="8.509823848489342"><ele>285.0</ele><time>2026-04-29T13:03:22.164Z</time></trkpt><trkpt lat="40.32291338234481" lon="8.510042873341362"><ele>283.0</ele><time>2026-04-29T13:03:23.164Z</time></trkpt><trkpt lat="40.32289750502515" lon="8.510223677110982"><ele>281.0</ele><time>2026-04-29T13:03:24.164Z</time></trkpt><trkpt lat="40.32282025751544" lon="8.510357675639135"><ele>279.0</ele><time>2026-04-29T13:03:25.164Z</time></trkpt><trkpt lat="40.322689694260774" lon="8.510405589095067"><ele>279.0</ele><time>2026-04-29T13:03:26.164Z</time></trkpt><trkpt lat="40.3225312850505" lon="8.510392658452847"><ele>279.0</ele><time>2026-04-29T13:03:27.164Z</time></trkpt><trkpt lat="40.322375491317025" lon="8.51034003531122"><ele>279.0</ele><time>2026-04-29T13:03:28.164Z</time></trkpt><trkpt lat="40.322246321785585" lon="8.51020946200599"><ele>272.6666666666667</ele><time>2026-04-29T13:03:29.164Z</time></trkpt><trkpt lat="40.322135199858096" lon="8.510029904231574"><ele>266.33333333333337</ele><time>2026-04-29T13:03:30.164Z</time></trkpt><trkpt lat="40.32203085295687" lon="8.509815143634045"><ele>260.0</ele><time>2026-04-29T13:03:31.164Z</time></trkpt><trkpt lat="40.32196608662025" lon="8.509581438176562"><ele>261.33333333333337</ele><time>2026-04-29T13:03:32.164Z</time></trkpt><trkpt lat="40.32190021672006" lon="8.509334868916483"><ele>262.6666666666667</ele><time>2026-04-29T13:03:33.164Z</time></trkpt><trkpt lat="40.3218317060852" lon="8.509080114449585"><ele>264.0</ele><time>2026-04-29T13:03:34.164Z</time></trkpt><trkpt lat="40.32176962758289" lon="8.508820481351028"><ele>265.3333333333333</ele><time>2026-04-29T13:03:35.164Z</time></trkpt><trkpt lat="40.321707621253275" lon="8.508558416886139"><ele>266.66666666666663</ele><time>2026-04-29T13:03:36.164Z</time></trkpt><trkpt lat="40.32164149620428" lon="8.508309277719086"><ele>268.0</ele><time>2026-04-29T13:03:37.164Z</time></trkpt><trkpt lat="40.321584809812016" lon="8.508077129266319"><ele>269.5</ele><time>2026-04-29T13:03:38.164Z</time></trkpt><trkpt lat="40.321530949774186" lon="8.507884901062472"><ele>271.0</ele><time>2026-04-29T13:03:39.164Z</time></trkpt><trkpt lat="40.32147984442188" lon="8.507735770767576"><ele>272.5</ele><time>2026-04-29T13:03:40.164Z</time></trkpt><trkpt lat="40.32140505754088" lon="8.507646038498374"><ele>274.0</ele><time>2026-04-29T13:03:41.164Z</time></trkpt><trkpt lat="40.32130486506573" lon="8.507655605417318"><ele>272.5</ele><time>2026-04-29T13:03:42.164Z</time></trkpt><trkpt lat="40.32123952977315" lon="8.507757132003382"><ele>271.0</ele><time>2026-04-29T13:03:43.164Z</time></trkpt><trkpt lat="40.321246568205474" lon="8.507909462454608"><ele>269.5</ele><time>2026-04-29T13:03:44.164Z</time></trkpt><trkpt lat="40.32132134744686" lon="8.50806538157249"><ele>268.0</ele><time>2026-04-29T13:03:45.164Z</time></trkpt><trkpt lat="40.3214233760919" lon="8.508259958798357"><ele>268.0</ele><time>2026-04-29T13:03:46.164Z</time></trkpt><trkpt lat="40.3214915335018" lon="8.508484266351063"><ele>268.0</ele><time>2026-04-29T13:03:47.164Z</time></trkpt><trkpt lat="40.32151794120221" lon="8.508734101909173"><ele>268.0</ele><time>2026-04-29T13:03:48.164Z</time></trkpt><trkpt lat="40.32152446153661" lon="8.508987042869315"><ele>266.66666666666663</ele><time>2026-04-29T13:03:49.164Z</time></trkpt><trkpt lat="40.32149903203517" lon="8.509235480506945"><ele>265.3333333333333</ele><time>2026-04-29T13:03:50.164Z</time></trkpt><trkpt lat="40.321452008704014" lon="8.509477134268737"><ele>264.0</ele><time>2026-04-29T13:03:51.164Z</time></trkpt><trkpt lat="40.32141412236684" lon="8.509703677954931"><ele>262.6666666666667</ele><time>2026-04-29T13:03:52.164Z</time></trkpt><trkpt lat="40.3214244162165" lon="8.509943226122557"><ele>261.33333333333337</ele><time>2026-04-29T13:03:53.164Z</time></trkpt><trkpt lat="40.321468892344605" lon="8.510206568219578"><ele>260.0</ele><time>2026-04-29T13:03:54.164Z</time></trkpt><trkpt lat="40.32153219755906" lon="8.510473488553949"><ele>257.0</ele><time>2026-04-29T13:03:55.164Z</time></trkpt><trkpt lat="40.32160505614408" lon="8.510716885265811"><ele>254.0</ele><time>2026-04-29T13:03:56.164Z</time></trkpt><trkpt lat="40.32168009315892" lon="8.510941946119067"><ele>251.0</ele><time>2026-04-29T13:03:57.164Z</time></trkpt><trkpt lat="40.321741884434495" lon="8.51113448020237"><ele>249.33333333333334</ele><time>2026-04-29T13:03:58.164Z</time></trkpt><trkpt lat="40.321759275138454" lon="8.51132617947851"><ele>247.66666666666669</ele><time>2026-04-29T13:03:59.164Z</time></trkpt><trkpt lat="40.32169987994604" lon="8.511508403457675"><ele>246.0</ele><time>2026-04-29T13:04:00.164Z</time></trkpt><trkpt lat="40.32157728264141" lon="8.511638351753914"><ele>246.0</ele><time>2026-04-29T13:04:01.164Z</time></trkpt><trkpt lat="40.32143194431662" lon="8.511675550318198"><ele>246.0</ele><time>2026-04-29T13:04:02.164Z</time></trkpt><trkpt lat="40.32125392464209" lon="8.511639918735979"><ele>246.0</ele><time>2026-04-29T13:04:03.164Z</time></trkpt><trkpt lat="40.3210622294698" lon="8.511595763467882"><ele>244.33333333333331</ele><time>2026-04-29T13:04:04.164Z</time></trkpt><trkpt lat="40.320867083278536" lon="8.511554263336292"><ele>242.66666666666666</ele><time>2026-04-29T13:04:05.164Z</time></trkpt><trkpt lat="40.320675572571" lon="8.51153041133785"><ele>241.0</ele><time>2026-04-29T13:04:06.164Z</time></trkpt><trkpt lat="40.32048012532221" lon="8.511536787995647"><ele>239.0</ele><time>2026-04-29T13:04:07.164Z</time></trkpt><trkpt lat="40.32029018602861" lon="8.511592286383145"><ele>237.0</ele><time>2026-04-29T13:04:08.164Z</time></trkpt><trkpt lat="40.32010667251359" lon="8.511701359916941"><ele>235.0</ele><time>2026-04-29T13:04:09.164Z</time></trkpt><trkpt lat="40.31993289221154" lon="8.51185146848773"><ele>235.0</ele><time>2026-04-29T13:04:10.164Z</time></trkpt><trkpt lat="40.31977188094399" lon="8.51204356452812"><ele>235.0</ele><time>2026-04-29T13:04:11.164Z</time></trkpt><trkpt lat="40.31962891896222" lon="8.512261225116864"><ele>235.0</ele><time>2026-04-29T13:04:12.164Z</time></trkpt><trkpt lat="40.319486199388564" lon="8.512473477457386"><ele>235.66666666666666</ele><time>2026-04-29T13:04:13.164Z</time></trkpt><trkpt lat="40.31934678437588" lon="8.512688991311306"><ele>236.33333333333331</ele><time>2026-04-29T13:04:14.164Z</time></trkpt><trkpt lat="40.31920085660342" lon="8.512896975795416"><ele>237.0</ele><time>2026-04-29T13:04:15.164Z</time></trkpt><trkpt lat="40.31904899851999" lon="8.513102799661679"><ele>232.33333333333331</ele><time>2026-04-29T13:04:16.164Z</time></trkpt><trkpt lat="40.31889701068639" lon="8.513306763343849"><ele>227.66666666666666</ele><time>2026-04-29T13:04:17.164Z</time></trkpt><trkpt lat="40.318741801006524" lon="8.513507742765873"><ele>223.0</ele><time>2026-04-29T13:04:18.164Z</time></trkpt><trkpt lat="40.318586742275016" lon="8.51369790975871"><ele>224.33333333333331</ele><time>2026-04-29T13:04:19.164Z</time></trkpt><trkpt lat="40.31842585696225" lon="8.513873344990241"><ele>225.66666666666669</ele><time>2026-04-29T13:04:20.164Z</time></trkpt><trkpt lat="40.31827314207084" lon="8.514020473387088"><ele>227.0</ele><time>2026-04-29T13:04:21.164Z</time></trkpt><trkpt lat="40.31810314550756" lon="8.514129841859665"><ele>223.66666666666669</ele><time>2026-04-29T13:04:22.164Z</time></trkpt><trkpt lat="40.31789925154056" lon="8.514183953575902"><ele>220.33333333333331</ele><time>2026-04-29T13:04:23.164Z</time></trkpt><trkpt lat="40.317687624316136" lon="8.514213234305362"><ele>217.0</ele><time>2026-04-29T13:04:24.164Z</time></trkpt><trkpt lat="40.31747811641893" lon="8.514239921387789"><ele>217.0</ele><time>2026-04-29T13:04:25.164Z</time></trkpt><trkpt lat="40.31726680432869" lon="8.514267326286681"><ele>217.0</ele><time>2026-04-29T13:04:26.164Z</time></trkpt><trkpt lat="40.31704829328085" lon="8.51429705210309"><ele>217.0</ele><time>2026-04-29T13:04:27.164Z</time></trkpt><trkpt lat="40.31683964672065" lon="8.514326428754451"><ele>212.0</ele><time>2026-04-29T13:04:28.164Z</time></trkpt><trkpt lat="40.31645669669642" lon="8.514361745032122"><ele>207.0</ele><time>2026-04-29T13:04:30.165Z</time></trkpt><trkpt lat="40.3162908457304" lon="8.514374913880728"><ele>207.5</ele><time>2026-04-29T13:04:31.165Z</time></trkpt><trkpt lat="40.31614756994245" lon="8.514390651093793"><ele>208.0</ele><time>2026-04-29T13:04:32.165Z</time></trkpt><trkpt lat="40.31602357663009" lon="8.514443920779504"><ele>208.5</ele><time>2026-04-29T13:04:33.165Z</time></trkpt><trkpt lat="40.31592257974932" lon="8.514565748753085"><ele>209.0</ele><time>2026-04-29T13:04:34.165Z</time></trkpt><trkpt lat="40.31582723385177" lon="8.514743619076924"><ele>209.0</ele><time>2026-04-29T13:04:35.165Z</time></trkpt><trkpt lat="40.315731738205855" lon="8.514943832817423"><ele>209.0</ele><time>2026-04-29T13:04:36.166Z</time></trkpt><trkpt lat="40.315625590892616" lon="8.515134311868904"><ele>209.0</ele><time>2026-04-29T13:04:37.165Z</time></trkpt><trkpt lat="40.315511552601066" lon="8.515340699887393"><ele>201.66666666666669</ele><time>2026-04-29T13:04:38.166Z</time></trkpt><trkpt lat="40.31540012390297" lon="8.515557710634983"><ele>194.33333333333334</ele><time>2026-04-29T13:04:39.165Z</time></trkpt><trkpt lat="40.31530173235562" lon="8.515775587972819"><ele>187.0</ele><time>2026-04-29T13:04:40.165Z</time></trkpt><trkpt lat="40.31521258871585" lon="8.515983323603406"><ele>187.0</ele><time>2026-04-29T13:04:41.165Z</time></trkpt><trkpt lat="40.315125062653586" lon="8.51617842566934"><ele>187.0</ele><time>2026-04-29T13:04:42.165Z</time></trkpt><trkpt lat="40.31504016727465" lon="8.516363147332418"><ele>187.0</ele><time>2026-04-29T13:04:43.165Z</time></trkpt><trkpt lat="40.314954478427595" lon="8.51653492983545"><ele>186.5</ele><time>2026-04-29T13:04:44.165Z</time></trkpt><trkpt lat="40.314864718799015" lon="8.516685938782778"><ele>186.0</ele><time>2026-04-29T13:04:45.165Z</time></trkpt><trkpt lat="40.31474261030565" lon="8.516796992083618"><ele>185.5</ele><time>2026-04-29T13:04:46.165Z</time></trkpt><trkpt lat="40.31460426081131" lon="8.516842603518398"><ele>185.0</ele><time>2026-04-29T13:04:47.165Z</time></trkpt><trkpt lat="40.31445801505923" lon="8.516823123679943"><ele>185.0</ele><time>2026-04-29T13:04:48.165Z</time></trkpt><trkpt lat="40.31430424396977" lon="8.516748448310986"><ele>185.0</ele><time>2026-04-29T13:04:49.165Z</time></trkpt><trkpt lat="40.31414842344002" lon="8.516640802451631"><ele>185.0</ele><time>2026-04-29T13:04:50.165Z</time></trkpt><trkpt lat="40.313993774384656" lon="8.516510515057922"><ele>185.66666666666666</ele><time>2026-04-29T13:04:51.165Z</time></trkpt><trkpt lat="40.31386079371905" lon="8.516365714249423"><ele>186.33333333333334</ele><time>2026-04-29T13:04:52.165Z</time></trkpt><trkpt lat="40.31376892597082" lon="8.516168659466102"><ele>187.0</ele><time>2026-04-29T13:04:53.165Z</time></trkpt><trkpt lat="40.31371346013283" lon="8.515929678719838"><ele>187.0</ele><time>2026-04-29T13:04:54.165Z</time></trkpt><trkpt lat="40.31371430087144" lon="8.515678889675257"><ele>187.0</ele><time>2026-04-29T13:04:55.165Z</time></trkpt><trkpt lat="40.31375099448625" lon="8.515431485066513"><ele>187.0</ele><time>2026-04-29T13:04:56.165Z</time></trkpt><trkpt lat="40.31375964378201" lon="8.515196983089515"><ele>182.33333333333334</ele><time>2026-04-29T13:04:57.165Z</time></trkpt><trkpt lat="40.31370110211544" lon="8.514954245362562"><ele>177.66666666666666</ele><time>2026-04-29T13:04:58.165Z</time></trkpt><trkpt lat="40.31360736439327" lon="8.514747417969287"><ele>173.0</ele><time>2026-04-29T13:04:59.165Z</time></trkpt><trkpt lat="40.31351923221528" lon="8.514519671164104"><ele>169.0</ele><time>2026-04-29T13:05:00.165Z</time></trkpt><trkpt lat="40.31339322793829" lon="8.514330600469282"><ele>165.0</ele><time>2026-04-29T13:05:01.165Z</time></trkpt><trkpt lat="40.31305543772997" lon="8.514495497784777"><ele>165.0</ele><time>2026-04-29T13:05:02.165Z</time></trkpt><trkpt lat="40.31288070427107" lon="8.514380960474144"><ele>165.0</ele><time>2026-04-29T13:05:03.165Z</time></trkpt><trkpt lat="40.31271437513407" lon="8.514265311406394"><ele>165.0</ele><time>2026-04-29T13:05:04.165Z</time></trkpt><trkpt lat="40.312560055064324" lon="8.514158533642936"><ele>165.0</ele><time>2026-04-29T13:05:05.165Z</time></trkpt><trkpt lat="40.31241463305796" lon="8.514056563856741"><ele>165.0</ele><time>2026-04-29T13:05:06.165Z</time></trkpt><trkpt lat="40.31228614956647" lon="8.513959902656639"><ele>165.0</ele><time>2026-04-29T13:05:07.165Z</time></trkpt><trkpt lat="40.31218757931101" lon="8.513861689451474"><ele>165.0</ele><time>2026-04-29T13:05:08.165Z</time></trkpt><trkpt lat="40.31212914782514" lon="8.513732635459307"><ele>162.25</ele><time>2026-04-29T13:05:09.165Z</time></trkpt><trkpt lat="40.31213269864861" lon="8.513577728056648"><ele>159.5</ele><time>2026-04-29T13:05:10.165Z</time></trkpt><trkpt lat="40.312196987227885" lon="8.513404309566642"><ele>156.75</ele><time>2026-04-29T13:05:11.165Z</time></trkpt><trkpt lat="40.312234971021134" lon="8.513209105565183"><ele>154.0</ele><time>2026-04-29T13:05:12.165Z</time></trkpt><trkpt lat="40.31226899836526" lon="8.512999106727039"><ele>153.33333333333334</ele><time>2026-04-29T13:05:13.165Z</time></trkpt><trkpt lat="40.31230840937655" lon="8.512784922657206"><ele>152.66666666666666</ele><time>2026-04-29T13:05:14.165Z</time></trkpt><trkpt lat="40.31233921202206" lon="8.512584853013273"><ele>152.0</ele><time>2026-04-29T13:05:15.165Z</time></trkpt><trkpt lat="40.31237015079022" lon="8.51238250403609"><ele>152.0</ele><time>2026-04-29T13:05:16.165Z</time></trkpt><trkpt lat="40.312358623560286" lon="8.512176926010493"><ele>152.0</ele><time>2026-04-29T13:05:17.165Z</time></trkpt><trkpt lat="40.312315385757955" lon="8.511974659325883"><ele>152.0</ele><time>2026-04-29T13:05:18.165Z</time></trkpt><trkpt lat="40.31223654538983" lon="8.511782378389029"><ele>156.66666666666666</ele><time>2026-04-29T13:05:19.165Z</time></trkpt><trkpt lat="40.312136403231094" lon="8.511612941466081"><ele>161.33333333333334</ele><time>2026-04-29T13:05:20.165Z</time></trkpt><trkpt lat="40.31201795323833" lon="8.511464762091697"><ele>166.0</ele><time>2026-04-29T13:05:21.165Z</time></trkpt><trkpt lat="40.31189568832229" lon="8.511326857822901"><ele>161.66666666666669</ele><time>2026-04-29T13:05:22.165Z</time></trkpt><trkpt lat="40.31179649910464" lon="8.511175495664236"><ele>157.33333333333334</ele><time>2026-04-29T13:05:23.165Z</time></trkpt><trkpt lat="40.31173112183512" lon="8.510993575108015"><ele>153.0</ele><time>2026-04-29T13:05:24.165Z</time></trkpt><trkpt lat="40.31168320143724" lon="8.510799785793541"><ele>153.0</ele><time>2026-04-29T13:05:25.165Z</time></trkpt><trkpt lat="40.31165281874421" lon="8.510652319317202"><ele>153.0</ele><time>2026-04-29T13:05:26.165Z</time></trkpt><trkpt lat="40.31163456500602" lon="8.510522021649036"><ele>153.0</ele><time>2026-04-29T13:05:27.165Z</time></trkpt><trkpt lat="40.31165060641403" lon="8.510396378156077"><ele>153.0</ele><time>2026-04-29T13:05:28.165Z</time></trkpt><trkpt lat="40.3117131524613" lon="8.510263239351104"><ele>153.0</ele><time>2026-04-29T13:05:29.165Z</time></trkpt><trkpt lat="40.31178686677309" lon="8.510134540352944"><ele>153.25</ele><time>2026-04-29T13:05:30.165Z</time></trkpt><trkpt lat="40.311849988020896" lon="8.510002141063627"><ele>153.5</ele><time>2026-04-29T13:05:31.165Z</time></trkpt><trkpt lat="40.311905316891576" lon="8.50986985421864"><ele>153.75</ele><time>2026-04-29T13:05:32.165Z</time></trkpt><trkpt lat="40.31197229600621" lon="8.509707983123421"><ele>154.0</ele><time>2026-04-29T13:05:33.165Z</time></trkpt><trkpt lat="40.31200144386286" lon="8.509509970194127"><ele>154.66666666666669</ele><time>2026-04-29T13:05:34.165Z</time></trkpt><trkpt lat="40.31198677131237" lon="8.509278055178273"><ele>155.33333333333334</ele><time>2026-04-29T13:05:35.165Z</time></trkpt><trkpt lat="40.311963385505734" lon="8.509040559894867"><ele>156.0</ele><time>2026-04-29T13:05:36.165Z</time></trkpt><trkpt lat="40.31195904609919" lon="8.508789100290718"><ele>155.33333333333334</ele><time>2026-04-29T13:05:37.165Z</time></trkpt><trkpt lat="40.31196216890516" lon="8.508531023483462"><ele>154.66666666666669</ele><time>2026-04-29T13:05:38.165Z</time></trkpt><trkpt lat="40.3119615111712" lon="8.508269048796462"><ele>154.0</ele><time>2026-04-29T13:05:39.165Z</time></trkpt><trkpt lat="40.31195141280028" lon="8.508000917231826"><ele>150.66666666666669</ele><time>2026-04-29T13:05:40.165Z</time></trkpt><trkpt lat="40.31191602633408" lon="8.507731901134818"><ele>147.33333333333334</ele><time>2026-04-29T13:05:41.165Z</time></trkpt><trkpt lat="40.31186332518577" lon="8.507459170250728"><ele>144.0</ele><time>2026-04-29T13:05:42.165Z</time></trkpt><trkpt lat="40.311806510370545" lon="8.507191629238372"><ele>142.66666666666666</ele><time>2026-04-29T13:05:43.165Z</time></trkpt><trkpt lat="40.31176633935274" lon="8.50692895643848"><ele>141.33333333333331</ele><time>2026-04-29T13:05:44.165Z</time></trkpt><trkpt lat="40.311751141990605" lon="8.506659107964534"><ele>140.0</ele><time>2026-04-29T13:05:45.165Z</time></trkpt><trkpt lat="40.311757935758735" lon="8.506396584280917"><ele>140.0</ele><time>2026-04-29T13:05:46.165Z</time></trkpt><trkpt lat="40.31176637822869" lon="8.50615451931479"><ele>140.0</ele><time>2026-04-29T13:05:47.165Z</time></trkpt><trkpt lat="40.31180702312819" lon="8.505931834147496"><ele>140.0</ele><time>2026-04-29T13:05:48.165Z</time></trkpt><trkpt lat="40.31189622539698" lon="8.50570896000857"><ele>140.0</ele><time>2026-04-29T13:05:49.165Z</time></trkpt><trkpt lat="40.31198431741788" lon="8.505476306170323"><ele>140.0</ele><time>2026-04-29T13:05:50.165Z</time></trkpt><trkpt lat="40.312032944554936" lon="8.505199475265881"><ele>140.0</ele><time>2026-04-29T13:05:51.165Z</time></trkpt><trkpt lat="40.31203805001028" lon="8.504915123165986"><ele>141.33333333333331</ele><time>2026-04-29T13:05:52.165Z</time></trkpt><trkpt lat="40.312035107163865" lon="8.50462250164749"><ele>142.66666666666666</ele><time>2026-04-29T13:05:53.165Z</time></trkpt><trkpt lat="40.31204668547167" lon="8.504330055077169"><ele>144.0</ele><time>2026-04-29T13:05:54.165Z</time></trkpt><trkpt lat="40.31206013233403" lon="8.504028570930302"><ele>145.5</ele><time>2026-04-29T13:05:55.165Z</time></trkpt><trkpt lat="40.31208370146178" lon="8.503725728679639"><ele>147.0</ele><time>2026-04-29T13:05:56.165Z</time></trkpt><trkpt lat="40.312104573261294" lon="8.503418653815471"><ele>147.0</ele><time>2026-04-29T13:05:57.165Z</time></trkpt><trkpt lat="40.31211697626906" lon="8.503114015943035"><ele>147.0</ele><time>2026-04-29T13:05:58.165Z</time></trkpt><trkpt lat="40.31212707915941" lon="8.502809280654223"><ele>144.33333333333334</ele><time>2026-04-29T13:05:59.165Z</time></trkpt><trkpt lat="40.3121448374821" lon="8.502519055884676"><ele>141.66666666666669</ele><time>2026-04-29T13:06:00.165Z</time></trkpt><trkpt lat="40.312161188463854" lon="8.502245994724014"><ele>139.0</ele><time>2026-04-29T13:06:01.165Z</time></trkpt><trkpt lat="40.31218281167978" lon="8.501991522981731"><ele>137.66666666666669</ele><time>2026-04-29T13:06:02.165Z</time></trkpt><trkpt lat="40.31218751032335" lon="8.501754200489307"><ele>136.33333333333334</ele><time>2026-04-29T13:06:03.165Z</time></trkpt><trkpt lat="40.31216192353704" lon="8.501505729477056"><ele>135.0</ele><time>2026-04-29T13:06:04.165Z</time></trkpt><trkpt lat="40.3120765374518" lon="8.50125910006403"><ele>131.0</ele><time>2026-04-29T13:06:05.165Z</time></trkpt><trkpt lat="40.31195491924133" lon="8.501020131169417"><ele>127.0</ele><time>2026-04-29T13:06:06.165Z</time></trkpt><trkpt lat="40.31184874837228" lon="8.50076558049583"><ele>123.0</ele><time>2026-04-29T13:06:07.165Z</time></trkpt><trkpt lat="40.31177760403454" lon="8.50051646821228"><ele>118.33333333333334</ele><time>2026-04-29T13:06:08.165Z</time></trkpt><trkpt lat="40.31172438477695" lon="8.500285628259851"><ele>113.66666666666667</ele><time>2026-04-29T13:06:09.165Z</time></trkpt><trkpt lat="40.31167048395195" lon="8.500076057727911"><ele>109.0</ele><time>2026-04-29T13:06:10.165Z</time></trkpt><trkpt lat="40.31158688855273" lon="8.499898999107435"><ele>109.0</ele><time>2026-04-29T13:06:11.165Z</time></trkpt><trkpt lat="40.31146946352009" lon="8.499776400739487"><ele>109.0</ele><time>2026-04-29T13:06:12.165Z</time></trkpt><trkpt lat="40.31135562139028" lon="8.499691362176847"><ele>109.0</ele><time>2026-04-29T13:06:13.165Z</time></trkpt><trkpt lat="40.3112581209408" lon="8.49963761702456"><ele>109.0</ele><time>2026-04-29T13:06:14.165Z</time></trkpt><trkpt lat="40.31115500733814" lon="8.499595163295856"><ele>106.5</ele><time>2026-04-29T13:06:15.165Z</time></trkpt><trkpt lat="40.311042243936356" lon="8.499560284773828"><ele>104.0</ele><time>2026-04-29T13:06:16.165Z</time></trkpt><trkpt lat="40.31093218919891" lon="8.499517992660472"><ele>101.5</ele><time>2026-04-29T13:06:17.165Z</time></trkpt><trkpt lat="40.31082303222784" lon="8.499452940315452"><ele>99.0</ele><time>2026-04-29T13:06:18.165Z</time></trkpt><trkpt lat="40.310708322643485" lon="8.499384828310497"><ele>99.0</ele><time>2026-04-29T13:06:19.165Z</time></trkpt><trkpt lat="40.31060813205804" lon="8.499330119184211"><ele>99.0</ele><time>2026-04-29T13:06:20.165Z</time></trkpt><trkpt lat="40.31051981725995" lon="8.499275505230575"><ele>99.0</ele><time>2026-04-29T13:06:21.165Z</time></trkpt><trkpt lat="40.31044711546751" lon="8.499231723671636"><ele>99.0</ele><time>2026-04-29T13:06:22.165Z</time></trkpt><trkpt lat="40.310388719155924" lon="8.49919733049414"><ele>99.0</ele><time>2026-04-29T13:06:23.165Z</time></trkpt><trkpt lat="40.310327016039274" lon="8.499160524592227"><ele>99.0</ele><time>2026-04-29T13:06:25.165Z</time></trkpt><trkpt lat="40.31024492351769" lon="8.499128112312384"><ele>101.5</ele><time>2026-04-29T13:08:28.165Z</time></trkpt><trkpt lat="40.3101641176855" lon="8.499079867290211"><ele>104.0</ele><time>2026-04-29T13:08:29.165Z</time></trkpt><trkpt lat="40.31006381267827" lon="8.49900720591343"><ele>106.5</ele><time>2026-04-29T13:08:30.165Z</time></trkpt><trkpt lat="40.30995496918264" lon="8.498917636399247"><ele>109.0</ele><time>2026-04-29T13:08:31.165Z</time></trkpt><trkpt lat="40.3098590099623" lon="8.498810336129972"><ele>105.25</ele><time>2026-04-29T13:08:32.165Z</time></trkpt><trkpt lat="40.3097650499659" lon="8.498675642453115"><ele>101.5</ele><time>2026-04-29T13:08:33.165Z</time></trkpt><trkpt lat="40.30967442430276" lon="8.498514276248725"><ele>97.75</ele><time>2026-04-29T13:08:34.165Z</time></trkpt><trkpt lat="40.309587192956414" lon="8.498367925287162"><ele>94.0</ele><time>2026-04-29T13:08:35.165Z</time></trkpt><trkpt lat="40.30949854462135" lon="8.498261859993839"><ele>94.0</ele><time>2026-04-29T13:08:36.165Z</time></trkpt><trkpt lat="40.309380411166515" lon="8.498227380881316"><ele>94.0</ele><time>2026-04-29T13:08:37.165Z</time></trkpt><trkpt lat="40.30924551868404" lon="8.498254275500571"><ele>94.0</ele><time>2026-04-29T13:08:38.165Z</time></trkpt><trkpt lat="40.30915179818309" lon="8.498345681321714"><ele>94.0</ele><time>2026-04-29T13:08:39.165Z</time></trkpt><trkpt lat="40.30907075497862" lon="8.498484730893875"><ele>94.0</ele><time>2026-04-29T13:08:40.165Z</time></trkpt><trkpt lat="40.308985796736614" lon="8.498663152151803"><ele>94.0</ele><time>2026-04-29T13:08:41.167Z</time></trkpt><trkpt lat="40.30891449190784" lon="8.498779160365853"><ele>94.0</ele><time>2026-04-29T13:08:42.167Z</time></trkpt><trkpt lat="40.30879252654072" lon="8.49892952274343"><ele>94.0</ele><time>2026-04-29T13:08:43.167Z</time></trkpt><trkpt lat="40.30863935717137" lon="8.499058947866487"><ele>93.0</ele><time>2026-04-29T13:08:44.166Z</time></trkpt><trkpt lat="40.30847134902993" lon="8.499167835962341"><ele>92.0</ele><time>2026-04-29T13:08:45.166Z</time></trkpt><trkpt lat="40.30830122787083" lon="8.49924172389519"><ele>91.0</ele><time>2026-04-29T13:08:46.166Z</time></trkpt><trkpt lat="40.30814059007923" lon="8.499288020314998"><ele>89.66666666666666</ele><time>2026-04-29T13:08:47.167Z</time></trkpt><trkpt lat="40.30800356912794" lon="8.499383345413305"><ele>88.33333333333333</ele><time>2026-04-29T13:08:48.167Z</time></trkpt><trkpt lat="40.30789069774561" lon="8.499543349833143"><ele>87.0</ele><time>2026-04-29T13:08:49.167Z</time></trkpt><trkpt lat="40.30780627766087" lon="8.499725028473662"><ele>87.0</ele><time>2026-04-29T13:08:50.167Z</time></trkpt><trkpt lat="40.30774240740628" lon="8.499940050224088"><ele>87.0</ele><time>2026-04-29T13:08:51.167Z</time></trkpt><trkpt lat="40.30767757802237" lon="8.500161810222664"><ele>87.0</ele><time>2026-04-29T13:08:52.167Z</time></trkpt><trkpt lat="40.30760191616898" lon="8.500367081226218"><ele>87.75</ele><time>2026-04-29T13:08:53.167Z</time></trkpt><trkpt lat="40.307533606997836" lon="8.500536440749872"><ele>88.5</ele><time>2026-04-29T13:08:54.166Z</time></trkpt><trkpt lat="40.30742734016923" lon="8.500658688074319"><ele>89.25</ele><time>2026-04-29T13:08:55.166Z</time></trkpt><trkpt lat="40.307290745667885" lon="8.500728732939889"><ele>90.0</ele><time>2026-04-29T13:08:56.166Z</time></trkpt><trkpt lat="40.30714666196461" lon="8.500765721395153"><ele>87.25</ele><time>2026-04-29T13:08:57.166Z</time></trkpt><trkpt lat="40.307023368722206" lon="8.500857995365077"><ele>84.5</ele><time>2026-04-29T13:08:58.166Z</time></trkpt><trkpt lat="40.30691191911774" lon="8.50098561478993"><ele>81.75</ele><time>2026-04-29T13:08:59.166Z</time></trkpt><trkpt lat="40.30681539302256" lon="8.501144631929678"><ele>79.0</ele><time>2026-04-29T13:09:00.166Z</time></trkpt><trkpt lat="40.306738092258655" lon="8.501292721657833"><ele>79.0</ele><time>2026-04-29T13:09:01.166Z</time></trkpt><trkpt lat="40.30665922624581" lon="8.501396652321043"><ele>79.0</ele><time>2026-04-29T13:09:02.166Z</time></trkpt><trkpt lat="40.306550795310855" lon="8.50141707155802"><ele>79.0</ele><time>2026-04-29T13:09:03.166Z</time></trkpt><trkpt lat="40.30642401069422" lon="8.501365365191358"><ele>79.0</ele><time>2026-04-29T13:09:04.166Z</time></trkpt><trkpt lat="40.306298671224155" lon="8.50126333230403"><ele>71.33333333333333</ele><time>2026-04-29T13:09:05.166Z</time></trkpt><trkpt lat="40.306173964789295" lon="8.501156213320025"><ele>63.66666666666667</ele><time>2026-04-29T13:09:06.166Z</time></trkpt><trkpt lat="40.30603386038462" lon="8.501081998099613"><ele>56.0</ele><time>2026-04-29T13:09:07.166Z</time></trkpt><trkpt lat="40.3058806458431" lon="8.501052574227245"><ele>56.0</ele><time>2026-04-29T13:09:08.166Z</time></trkpt><trkpt lat="40.30572864602333" lon="8.501054170637843"><ele>56.0</ele><time>2026-04-29T13:09:09.166Z</time></trkpt><trkpt lat="40.30556556591576" lon="8.501059677429229"><ele>56.0</ele><time>2026-04-29T13:09:10.166Z</time></trkpt><trkpt lat="40.305397874743484" lon="8.501063157862617"><ele>53.333333333333336</ele><time>2026-04-29T13:09:11.166Z</time></trkpt><trkpt lat="40.305225498694554" lon="8.50109882579303"><ele>50.66666666666667</ele><time>2026-04-29T13:09:12.166Z</time></trkpt><trkpt lat="40.30506061948755" lon="8.501146712600091"><ele>48.0</ele><time>2026-04-29T13:09:13.166Z</time></trkpt><trkpt lat="40.30490185898098" lon="8.50120415799635"><ele>49.0</ele><time>2026-04-29T13:09:14.166Z</time></trkpt><trkpt lat="40.3047540645006" lon="8.501274410601289"><ele>50.0</ele><time>2026-04-29T13:09:15.166Z</time></trkpt><trkpt lat="40.304617134814336" lon="8.501356397524278"><ele>51.0</ele><time>2026-04-29T13:09:16.166Z</time></trkpt><trkpt lat="40.30448307386976" lon="8.501440122320469"><ele>51.0</ele><time>2026-04-29T13:09:17.166Z</time></trkpt><trkpt lat="40.30434073833781" lon="8.501528091812322"><ele>51.0</ele><time>2026-04-29T13:09:18.166Z</time></trkpt><trkpt lat="40.304204354151004" lon="8.501604613822002"><ele>51.0</ele><time>2026-04-29T13:09:19.166Z</time></trkpt><trkpt lat="40.30406207464696" lon="8.501662971749349"><ele>51.0</ele><time>2026-04-29T13:09:20.166Z</time></trkpt><trkpt lat="40.30391408251624" lon="8.501694231829509"><ele>51.0</ele><time>2026-04-29T13:09:21.166Z</time></trkpt><trkpt lat="40.30375073301927" lon="8.501715355597913"><ele>51.0</ele><time>2026-04-29T13:09:22.166Z</time></trkpt><trkpt lat="40.30358234403606" lon="8.501747164275065"><ele>46.666666666666664</ele><time>2026-04-29T13:09:23.166Z</time></trkpt><trkpt lat="40.30341356096835" lon="8.501814263957797"><ele>42.33333333333333</ele><time>2026-04-29T13:09:24.166Z</time></trkpt><trkpt lat="40.303244721182736" lon="8.501911862307873"><ele>38.0</ele><time>2026-04-29T13:09:25.166Z</time></trkpt><trkpt lat="40.30307313228047" lon="8.502014634175312"><ele>40.0</ele><time>2026-04-29T13:09:26.166Z</time></trkpt><trkpt lat="40.302895123042866" lon="8.50209813538456"><ele>42.0</ele><time>2026-04-29T13:09:27.166Z</time></trkpt><trkpt lat="40.3027094733028" lon="8.502173334546523"><ele>44.0</ele><time>2026-04-29T13:09:28.166Z</time></trkpt><trkpt lat="40.302527709263714" lon="8.502243354040592"><ele>44.0</ele><time>2026-04-29T13:09:29.166Z</time></trkpt><trkpt lat="40.30235237482338" lon="8.50230380962251"><ele>44.0</ele><time>2026-04-29T13:09:30.166Z</time></trkpt><trkpt lat="40.30218272505618" lon="8.502346368142813"><ele>44.0</ele><time>2026-04-29T13:09:31.166Z</time></trkpt><trkpt lat="40.30201922920544" lon="8.502368435535878"><ele>39.0</ele><time>2026-04-29T13:09:32.166Z</time></trkpt><trkpt lat="40.30186239831931" lon="8.502385472065603"><ele>34.0</ele><time>2026-04-29T13:09:33.166Z</time></trkpt><trkpt lat="40.301713746402974" lon="8.502436533001102"><ele>29.0</ele><time>2026-04-29T13:09:34.166Z</time></trkpt><trkpt lat="40.30158166603782" lon="8.502503557169167"><ele>29.0</ele><time>2026-04-29T13:09:35.166Z</time></trkpt><trkpt lat="40.30147301131313" lon="8.502583510377233"><ele>29.0</ele><time>2026-04-29T13:09:36.166Z</time></trkpt><trkpt lat="40.30138398764146" lon="8.502654160253291"><ele>29.0</ele><time>2026-04-29T13:09:37.166Z</time></trkpt><trkpt lat="40.30131007077608" lon="8.502687490170718"><ele>29.0</ele><time>2026-04-29T13:09:38.166Z</time></trkpt><trkpt lat="40.30123713834196" lon="8.502654619415956"><ele>29.0</ele><time>2026-04-29T13:09:39.166Z</time></trkpt><trkpt lat="40.30120536385896" lon="8.502571421392382"><ele>29.0</ele><time>2026-04-29T13:09:40.166Z</time></trkpt><trkpt lat="40.301225506601675" lon="8.502459514707459"><ele>29.0</ele><time>2026-04-29T13:09:41.166Z</time></trkpt><trkpt lat="40.301295491180944" lon="8.502387113240566"><ele>29.0</ele><time>2026-04-29T13:09:42.166Z</time></trkpt><trkpt lat="40.3013808230755" lon="8.502337839430174"><ele>29.0</ele><time>2026-04-29T13:09:43.166Z</time></trkpt><trkpt lat="40.30148141945558" lon="8.502295816411245"><ele>29.0</ele><time>2026-04-29T13:09:44.166Z</time></trkpt><trkpt lat="40.30158654386674" lon="8.502254544815042"><ele>29.0</ele><time>2026-04-29T13:09:45.166Z</time></trkpt><trkpt lat="40.301694407740094" lon="8.50219295143695"><ele>29.0</ele><time>2026-04-29T13:09:46.166Z</time></trkpt><trkpt lat="40.301791716689124" lon="8.502128337843011"><ele>29.0</ele><time>2026-04-29T13:09:47.166Z</time></trkpt><trkpt lat="40.30189221268839" lon="8.502086352803675"><ele>29.0</ele><time>2026-04-29T13:09:48.166Z</time></trkpt><trkpt lat="40.3019878287583" lon="8.502034909532561"><ele>29.0</ele><time>2026-04-29T13:09:49.166Z</time></trkpt><trkpt lat="40.30208673306397" lon="8.501987613469693"><ele>28.2</ele><time>2026-04-29T13:09:50.166Z</time></trkpt><trkpt lat="40.30217137486195" lon="8.501936279678825"><ele>27.4</ele><time>2026-04-29T13:09:51.166Z</time></trkpt><trkpt lat="40.30224650518986" lon="8.501861366354758"><ele>26.6</ele><time>2026-04-29T13:09:52.166Z</time></trkpt><trkpt lat="40.30230377406473" lon="8.501759551978573"><ele>25.8</ele><time>2026-04-29T13:09:53.166Z</time></trkpt><trkpt lat="40.302334601300096" lon="8.501646840475912"><ele>25.0</ele><time>2026-04-29T13:09:54.166Z</time></trkpt><trkpt lat="40.30233732120625" lon="8.501529807842356"><ele>25.0</ele><time>2026-04-29T13:09:55.166Z</time></trkpt><trkpt lat="40.30231380881631" lon="8.501414360613733"><ele>25.0</ele><time>2026-04-29T13:09:56.166Z</time></trkpt><trkpt lat="40.30226601703947" lon="8.501302591842293"><ele>25.0</ele><time>2026-04-29T13:09:57.166Z</time></trkpt><trkpt lat="40.302203714152284" lon="8.501206107442126"><ele>25.0</ele><time>2026-04-29T13:09:58.166Z</time></trkpt><trkpt lat="40.3021396388325" lon="8.501110310723103"><ele>25.0</ele><time>2026-04-29T13:09:59.166Z</time></trkpt><trkpt lat="40.30206905207601" lon="8.50100868066551"><ele>23.0</ele><time>2026-04-29T13:10:00.166Z</time></trkpt><trkpt lat="40.30200063381439" lon="8.500909227035345"><ele>21.0</ele><time>2026-04-29T13:10:01.166Z</time></trkpt><trkpt lat="40.301928519930975" lon="8.500812399838379"><ele>19.0</ele><time>2026-04-29T13:10:02.166Z</time></trkpt><trkpt lat="40.301856960050266" lon="8.500724106856664"><ele>17.0</ele><time>2026-04-29T13:10:03.166Z</time></trkpt><trkpt lat="40.3017726929752" lon="8.500651410801392"><ele>15.0</ele><time>2026-04-29T13:10:04.166Z</time></trkpt><trkpt lat="40.30167952565682" lon="8.500607288594814"><ele>15.0</ele><time>2026-04-29T13:10:05.166Z</time></trkpt><trkpt lat="40.30159003713629" lon="8.500568112669088"><ele>15.0</ele><time>2026-04-29T13:10:06.166Z</time></trkpt><trkpt lat="40.30149821178781" lon="8.500537249061829"><ele>15.0</ele><time>2026-04-29T13:10:07.166Z</time></trkpt><trkpt lat="40.301406962170205" lon="8.500497314890756"><ele>15.0</ele><time>2026-04-29T13:10:08.166Z</time></trkpt><trkpt lat="40.3013097782298" lon="8.500466141932913"><ele>15.0</ele><time>2026-04-29T13:10:09.166Z</time></trkpt><trkpt lat="40.30122213794985" lon="8.500429907163216"><ele>14.6</ele><time>2026-04-29T13:10:10.166Z</time></trkpt><trkpt lat="40.30113482525001" lon="8.500389687037924"><ele>14.2</ele><time>2026-04-29T13:10:11.166Z</time></trkpt><trkpt lat="40.30104467979673" lon="8.500354426481836"><ele>13.8</ele><time>2026-04-29T13:10:12.166Z</time></trkpt><trkpt lat="40.30094904304808" lon="8.50032939108913"><ele>13.4</ele><time>2026-04-29T13:10:13.166Z</time></trkpt><trkpt lat="40.300854165098144" lon="8.500308577287367"><ele>13.0</ele><time>2026-04-29T13:10:14.166Z</time></trkpt><trkpt lat="40.300760645025264" lon="8.50029673357854"><ele>13.0</ele><time>2026-04-29T13:10:15.166Z</time></trkpt><trkpt lat="40.300668714919105" lon="8.500309409107228"><ele>13.0</ele><time>2026-04-29T13:10:16.166Z</time></trkpt><trkpt lat="40.30057727191418" lon="8.500356233248121"><ele>13.0</ele><time>2026-04-29T13:10:17.166Z</time></trkpt><trkpt lat="40.30048490884058" lon="8.500407734875097"><ele>13.0</ele><time>2026-04-29T13:10:18.166Z</time></trkpt><trkpt lat="40.30038821009071" lon="8.500454696503812"><ele>13.0</ele><time>2026-04-29T13:10:19.166Z</time></trkpt><trkpt lat="40.30028705368715" lon="8.500497947232518"><ele>12.200000000000001</ele><time>2026-04-29T13:10:20.166Z</time></trkpt><trkpt lat="40.30018709524537" lon="8.500547134825519"><ele>11.4</ele><time>2026-04-29T13:10:21.166Z</time></trkpt><trkpt lat="40.300083821745545" lon="8.500596492834962"><ele>10.600000000000001</ele><time>2026-04-29T13:10:22.166Z</time></trkpt><trkpt lat="40.29997888073329" lon="8.500654865965437"><ele>9.8</ele><time>2026-04-29T13:10:23.166Z</time></trkpt><trkpt lat="40.29988304403329" lon="8.500704694014708"><ele>9.0</ele><time>2026-04-29T13:10:24.166Z</time></trkpt><trkpt lat="40.299784363658326" lon="8.50074899297049"><ele>9.0</ele><time>2026-04-29T13:10:25.166Z</time></trkpt><trkpt lat="40.2996896332858" lon="8.500786471836504"><ele>9.0</ele><time>2026-04-29T13:10:26.166Z</time></trkpt><trkpt lat="40.299603750195935" lon="8.500829220766434"><ele>9.0</ele><time>2026-04-29T13:10:27.166Z</time></trkpt><trkpt lat="40.29951419695916" lon="8.500866666821837"><ele>9.0</ele><time>2026-04-29T13:10:28.166Z</time></trkpt><trkpt lat="40.29942446223606" lon="8.500906214515469"><ele>9.0</ele><time>2026-04-29T13:10:29.166Z</time></trkpt><trkpt lat="40.29934507413137" lon="8.50095248296"><ele>9.0</ele><time>2026-04-29T13:10:30.166Z</time></trkpt><trkpt lat="40.2992634084402" lon="8.501006031698"><ele>9.0</ele><time>2026-04-29T13:10:31.166Z</time></trkpt><trkpt lat="40.299178241640995" lon="8.50105493259735"><ele>9.0</ele><time>2026-04-29T13:10:32.166Z</time></trkpt><trkpt lat="40.29908571278553" lon="8.501102791730554"><ele>9.0</ele><time>2026-04-29T13:10:33.166Z</time></trkpt><trkpt lat="40.298991803086516" lon="8.501152127032052"><ele>9.0</ele><time>2026-04-29T13:10:34.166Z</time></trkpt><trkpt lat="40.298896938352456" lon="8.501184960442567"><ele>9.0</ele><time>2026-04-29T13:10:35.166Z</time></trkpt><trkpt lat="40.29881915683658" lon="8.501233311447042"><ele>9.0</ele><time>2026-04-29T13:10:36.166Z</time></trkpt><trkpt lat="40.2987486164808" lon="8.501276670699815"><ele>9.0</ele><time>2026-04-29T13:10:37.166Z</time></trkpt><trkpt lat="40.29868340475554" lon="8.50131095731803"><ele>9.0</ele><time>2026-04-29T13:10:38.166Z</time></trkpt><trkpt lat="40.298561782207884" lon="8.501283441410209"><ele>9.0</ele><time>2026-04-29T13:10:40.166Z</time></trkpt><trkpt lat="40.29849869435241" lon="8.501252179912356"><ele>9.0</ele><time>2026-04-29T13:10:41.166Z</time></trkpt><trkpt lat="40.29838470489766" lon="8.50121856073164"><ele>9.0</ele><time>2026-04-29T13:10:43.166Z</time></trkpt><trkpt lat="40.2983163451822" lon="8.501183909289512"><ele>9.0</ele><time>2026-04-29T13:10:44.166Z</time></trkpt><trkpt lat="40.29823389227526" lon="8.501146852047995"><ele>9.0</ele><time>2026-04-29T13:10:45.166Z</time></trkpt><trkpt lat="40.298160565341625" lon="8.501122091750846"><ele>9.0</ele><time>2026-04-29T13:10:46.167Z</time></trkpt><trkpt lat="40.29809004726384" lon="8.50108995991414"><ele>9.0</ele><time>2026-04-29T13:10:47.168Z</time></trkpt><trkpt lat="40.29801182068478" lon="8.501064290586445"><ele>9.0</ele><time>2026-04-29T13:10:48.168Z</time></trkpt><trkpt lat="40.29794851172332" lon="8.501022870462949"><ele>9.0</ele><time>2026-04-29T13:10:49.167Z</time></trkpt><trkpt lat="40.297864492256195" lon="8.501009461725735"><ele>9.0</ele><time>2026-04-29T13:10:50.167Z</time></trkpt><trkpt lat="40.29778645888937" lon="8.500981640891368"><ele>9.0</ele><time>2026-04-29T13:10:51.167Z</time></trkpt><trkpt lat="40.29770609468879" lon="8.500947629617285"><ele>9.0</ele><time>2026-04-29T13:10:52.167Z</time></trkpt><trkpt lat="40.29761889908983" lon="8.500926376275316"><ele>9.0</ele><time>2026-04-29T13:10:53.167Z</time></trkpt><trkpt lat="40.2975350556087" lon="8.500874022336722"><ele>9.0</ele><time>2026-04-29T13:10:54.167Z</time></trkpt><trkpt lat="40.29746286347528" lon="8.500838465661746"><ele>9.0</ele><time>2026-04-29T13:10:55.167Z</time></trkpt><trkpt lat="40.297400359786074" lon="8.500814845089973"><ele>9.0</ele><time>2026-04-29T13:10:56.167Z</time></trkpt><trkpt lat="40.29731394215827" lon="8.500762839015753"><ele>9.0</ele><time>2026-04-29T13:10:58.168Z</time></trkpt><trkpt lat="40.29725528321051" lon="8.500632914300855"><ele>9.0</ele><time>2026-04-29T13:11:00.167Z</time></trkpt><trkpt lat="40.297176193232815" lon="8.500540699236392"><ele>9.0</ele><time>2026-04-29T13:11:02.167Z</time></trkpt><trkpt lat="40.2970699168185" lon="8.500545431660882"><ele>9.166666666666666</ele><time>2026-04-29T13:11:04.167Z</time></trkpt><trkpt lat="40.2969972818231" lon="8.50061160225815"><ele>9.333333333333334</ele><time>2026-04-29T13:11:06.167Z</time></trkpt><trkpt lat="40.296872116103" lon="8.500603927310227"><ele>9.5</ele><time>2026-04-29T13:11:08.167Z</time></trkpt><trkpt lat="40.29680842429034" lon="8.500583696791383"><ele>9.666666666666668</ele><time>2026-04-29T13:11:09.167Z</time></trkpt><trkpt lat="40.296741944295235" lon="8.500564657450582"><ele>9.833333333333334</ele><time>2026-04-29T13:11:10.167Z</time></trkpt><trkpt lat="40.29667559720879" lon="8.500539476404395"><ele>10.0</ele><time>2026-04-29T13:11:11.167Z</time></trkpt><trkpt lat="40.29660883965453" lon="8.500509030688718"><ele>10.0</ele><time>2026-04-29T13:11:12.166Z</time></trkpt><trkpt lat="40.29654658583974" lon="8.500476770022402"><ele>10.0</ele><time>2026-04-29T13:11:13.166Z</time></trkpt><trkpt lat="40.29649356368808" lon="8.50042425274572"><ele>10.0</ele><time>2026-04-29T13:11:14.166Z</time></trkpt><trkpt lat="40.29643833570772" lon="8.500378917038864"><ele>10.0</ele><time>2026-04-29T13:11:15.166Z</time></trkpt><trkpt lat="40.29632426986036" lon="8.500331623268897"><ele>10.0</ele><time>2026-04-29T13:11:17.166Z</time></trkpt><trkpt lat="40.29623535249247" lon="8.500288391421211"><ele>10.0</ele><time>2026-04-29T13:11:19.166Z</time></trkpt><trkpt lat="40.296150076814605" lon="8.500251835504974"><ele>9.2</ele><time>2026-04-29T13:11:21.166Z</time></trkpt><trkpt lat="40.29605536605183" lon="8.500203397621434"><ele>8.4</ele><time>2026-04-29T13:11:23.166Z</time></trkpt><trkpt lat="40.29593847280203" lon="8.50015995520161"><ele>7.6</ele><time>2026-04-29T13:11:25.166Z</time></trkpt><trkpt lat="40.29587317196078" lon="8.500137131412504"><ele>6.8</ele><time>2026-04-29T13:11:26.166Z</time></trkpt><trkpt lat="40.29580983547232" lon="8.50011745449976"><ele>6.0</ele><time>2026-04-29T13:11:27.166Z</time></trkpt><trkpt lat="40.2956894502149" lon="8.500076897788936"><ele>6.0</ele><time>2026-04-29T13:11:29.166Z</time></trkpt><trkpt lat="40.295611550508944" lon="8.50004462026282"><ele>6.0</ele><time>2026-04-29T13:11:31.166Z</time></trkpt><trkpt lat="40.29554157035279" lon="8.500019189223366"><ele>6.0</ele><time>2026-04-29T13:11:34.166Z</time></trkpt><trkpt lat="40.295471170421926" lon="8.500033775984804"><ele>6.0</ele><time>2026-04-29T13:11:42.166Z</time></trkpt><trkpt lat="40.295418275210324" lon="8.500150074758276"><ele>6.0</ele><time>2026-04-29T13:11:44.166Z</time></trkpt><trkpt lat="40.295384874615536" lon="8.500304063418035"><ele>5.8</ele><time>2026-04-29T13:11:46.166Z</time></trkpt><trkpt lat="40.29536220706622" lon="8.500393057867"><ele>5.6</ele><time>2026-04-29T13:11:47.166Z</time></trkpt><trkpt lat="40.29534003111865" lon="8.500486172944939"><ele>5.4</ele><time>2026-04-29T13:11:48.166Z</time></trkpt><trkpt lat="40.29530679393385" lon="8.500692805861409"><ele>5.2</ele><time>2026-04-29T13:11:50.166Z</time></trkpt><trkpt lat="40.295286777456816" lon="8.500800241186376"><ele>5.0</ele><time>2026-04-29T13:11:51.166Z</time></trkpt><trkpt lat="40.29526406143272" lon="8.500910555411004"><ele>5.0</ele><time>2026-04-29T13:11:52.166Z</time></trkpt><trkpt lat="40.2952427051893" lon="8.50101899848992"><ele>5.0</ele><time>2026-04-29T13:11:53.166Z</time></trkpt><trkpt lat="40.29521881150946" lon="8.501135016448162"><ele>5.0</ele><time>2026-04-29T13:11:54.166Z</time></trkpt><trkpt lat="40.29520430627898" lon="8.50124687479549"><ele>5.0</ele><time>2026-04-29T13:11:55.166Z</time></trkpt><trkpt lat="40.29518544014018" lon="8.50135089940475"><ele>5.0</ele><time>2026-04-29T13:11:56.166Z</time></trkpt><trkpt lat="40.295158270407356" lon="8.50146943467802"><ele>5.0</ele><time>2026-04-29T13:11:57.166Z</time></trkpt><trkpt lat="40.29514286012857" lon="8.501589652883071"><ele>5.0</ele><time>2026-04-29T13:11:58.166Z</time></trkpt><trkpt lat="40.29513088436577" lon="8.501692499734876"><ele>5.0</ele><time>2026-04-29T13:11:59.166Z</time></trkpt><trkpt lat="40.295120736016635" lon="8.501797325812369"><ele>5.0</ele><time>2026-04-29T13:12:00.166Z</time></trkpt><trkpt lat="40.295110607093626" lon="8.5019018264362"><ele>5.0</ele><time>2026-04-29T13:12:01.166Z</time></trkpt><trkpt lat="40.295099026248494" lon="8.50199256319706"><ele>5.0</ele><time>2026-04-29T13:12:02.166Z</time></trkpt><trkpt lat="40.295084717580586" lon="8.502077421216065"><ele>5.0</ele><time>2026-04-29T13:12:03.166Z</time></trkpt><trkpt lat="40.295078176182926" lon="8.50216429764941"><ele>5.0</ele><time>2026-04-29T13:12:04.166Z</time></trkpt><trkpt lat="40.29505938209477" lon="8.502314609664722"><ele>5.6</ele><time>2026-04-29T13:12:06.166Z</time></trkpt><trkpt lat="40.295044010834225" lon="8.50244274061627"><ele>6.2</ele><time>2026-04-29T13:12:08.166Z</time></trkpt><trkpt lat="40.295027626795935" lon="8.502576671928928"><ele>6.800000000000001</ele><time>2026-04-29T13:12:10.166Z</time></trkpt><trkpt lat="40.295014154849824" lon="8.502661726344247"><ele>7.4</ele><time>2026-04-29T13:12:11.166Z</time></trkpt><trkpt lat="40.29498874727624" lon="8.502820819464787"><ele>8.0</ele><time>2026-04-29T13:12:13.166Z</time></trkpt><trkpt lat="40.294971348963934" lon="8.502972298097363"><ele>8.166666666666666</ele><time>2026-04-29T13:12:15.166Z</time></trkpt><trkpt lat="40.29496488966913" lon="8.503055661384572"><ele>8.333333333333332</ele><time>2026-04-29T13:12:16.166Z</time></trkpt><trkpt lat="40.29496298550286" lon="8.503145329533053"><ele>8.5</ele><time>2026-04-29T13:12:17.166Z</time></trkpt><trkpt lat="40.29496782427459" lon="8.503239142573985"><ele>8.666666666666666</ele><time>2026-04-29T13:12:18.166Z</time></trkpt><trkpt lat="40.29497097120696" lon="8.503323053302605"><ele>8.833333333333334</ele><time>2026-04-29T13:12:19.166Z</time></trkpt><trkpt lat="40.294940405849516" lon="8.503496645379913"><ele>9.0</ele><time>2026-04-29T13:12:22.166Z</time></trkpt><trkpt lat="40.29487235098023" lon="8.503578694229834"><ele>9.0</ele><time>2026-04-29T13:12:24.166Z</time></trkpt><trkpt lat="40.29477332355768" lon="8.503594037182282"><ele>9.0</ele><time>2026-04-29T13:12:26.166Z</time></trkpt><trkpt lat="40.29467630186991" lon="8.503584062803652"><ele>9.0</ele><time>2026-04-29T13:12:28.166Z</time></trkpt><trkpt lat="40.294589031154665" lon="8.503572859317005"><ele>9.0</ele><time>2026-04-29T13:12:30.166Z</time></trkpt><trkpt lat="40.29449141767413" lon="8.50356225926459"><ele>9.0</ele><time>2026-04-29T13:12:32.166Z</time></trkpt><trkpt lat="40.294392804393944" lon="8.503544418724404"><ele>8.6</ele><time>2026-04-29T13:12:34.166Z</time></trkpt><trkpt lat="40.2942965657427" lon="8.503537144731503"><ele>8.2</ele><time>2026-04-29T13:12:36.166Z</time></trkpt><trkpt lat="40.29420805874159" lon="8.503522844154508"><ele>7.799999999999999</ele><time>2026-04-29T13:12:38.166Z</time></trkpt><trkpt lat="40.29411526598566" lon="8.503510330362813"><ele>7.3999999999999995</ele><time>2026-04-29T13:12:40.166Z</time></trkpt><trkpt lat="40.294031436169675" lon="8.503505678627578"><ele>7.0</ele><time>2026-04-29T13:12:42.166Z</time></trkpt><trkpt lat="40.293919139144855" lon="8.503479251587459"><ele>7.000000000000001</ele><time>2026-04-29T13:12:44.166Z</time></trkpt><trkpt lat="40.29384211374995" lon="8.50346798978207"><ele>7.0</ele><time>2026-04-29T13:12:45.166Z</time></trkpt><trkpt lat="40.29376186919645" lon="8.503459044205798"><ele>7.0</ele><time>2026-04-29T13:12:46.166Z</time></trkpt><trkpt lat="40.29367297616316" lon="8.503443717215102"><ele>7.0</ele><time>2026-04-29T13:12:47.166Z</time></trkpt><trkpt lat="40.29358411015669" lon="8.503431653072738"><ele>7.000000000000001</ele><time>2026-04-29T13:12:48.166Z</time></trkpt><trkpt lat="40.29349368512928" lon="8.503426509248579"><ele>7.0</ele><time>2026-04-29T13:12:49.166Z</time></trkpt><trkpt lat="40.29340661020206" lon="8.503423142766831"><ele>7.0</ele><time>2026-04-29T13:12:50.166Z</time></trkpt><trkpt lat="40.29331602498603" lon="8.503418586099327"><ele>6.999999999999999</ele><time>2026-04-29T13:12:51.166Z</time></trkpt><trkpt lat="40.29322405753132" lon="8.50341351586805"><ele>6.999999999999999</ele><time>2026-04-29T13:12:52.168Z</time></trkpt><trkpt lat="40.29313247014582" lon="8.503405011090347"><ele>7.0</ele><time>2026-04-29T13:12:53.167Z</time></trkpt><trkpt lat="40.293036098416444" lon="8.503399224569412"><ele>7.0</ele><time>2026-04-29T13:12:54.167Z</time></trkpt><trkpt lat="40.29294400033632" lon="8.503392317568906"><ele>6.6</ele><time>2026-04-29T13:12:55.168Z</time></trkpt><trkpt lat="40.29284575104688" lon="8.503387968909749"><ele>6.199999999999999</ele><time>2026-04-29T13:12:56.167Z</time></trkpt><trkpt lat="40.292745262393936" lon="8.503385923262526"><ele>5.8</ele><time>2026-04-29T13:12:57.167Z</time></trkpt><trkpt lat="40.292644590827855" lon="8.50338471481838"><ele>5.4</ele><time>2026-04-29T13:12:58.168Z</time></trkpt><trkpt lat="40.2925378868657" lon="8.503377728805686"><ele>5.0</ele><time>2026-04-29T13:12:59.167Z</time></trkpt><trkpt lat="40.29242234794391" lon="8.5033600385587"><ele>5.0</ele><time>2026-04-29T13:13:00.167Z</time></trkpt><trkpt lat="40.29230413684895" lon="8.503343705800253"><ele>5.0</ele><time>2026-04-29T13:13:01.167Z</time></trkpt><trkpt lat="40.29218308065498" lon="8.503334569658994"><ele>5.0</ele><time>2026-04-29T13:13:02.167Z</time></trkpt><trkpt lat="40.2920603787218" lon="8.503328526208913"><ele>5.0</ele><time>2026-04-29T13:13:03.167Z</time></trkpt><trkpt lat="40.29193674280229" lon="8.503320989855249"><ele>5.0</ele><time>2026-04-29T13:13:04.167Z</time></trkpt><trkpt lat="40.291806774785606" lon="8.503313269645691"><ele>5.0</ele><time>2026-04-29T13:13:05.167Z</time></trkpt><trkpt lat="40.29167341347046" lon="8.503306035634825"><ele>5.0</ele><time>2026-04-29T13:13:06.167Z</time></trkpt><trkpt lat="40.291538853084624" lon="8.50330393510742"><ele>5.0</ele><time>2026-04-29T13:13:07.167Z</time></trkpt><trkpt lat="40.29140315308227" lon="8.503303309526268"><ele>5.25</ele><time>2026-04-29T13:13:08.167Z</time></trkpt><trkpt lat="40.291265814452984" lon="8.503300038413178"><ele>5.5</ele><time>2026-04-29T13:13:09.167Z</time></trkpt><trkpt lat="40.29113099479564" lon="8.503292012357026"><ele>5.75</ele><time>2026-04-29T13:13:10.167Z</time></trkpt><trkpt lat="40.29099662327735" lon="8.50328253724724"><ele>6.0</ele><time>2026-04-29T13:13:11.167Z</time></trkpt><trkpt lat="40.290860782674784" lon="8.503277947220191"><ele>6.0</ele><time>2026-04-29T13:13:12.167Z</time></trkpt><trkpt lat="40.290725716734315" lon="8.50328473645125"><ele>6.0</ele><time>2026-04-29T13:13:13.167Z</time></trkpt><trkpt lat="40.29058811130005" lon="8.503300175590157"><ele>6.0</ele><time>2026-04-29T13:13:14.167Z</time></trkpt><trkpt lat="40.29044390663815" lon="8.503345759017277"><ele>6.0</ele><time>2026-04-29T13:13:15.167Z</time></trkpt><trkpt lat="40.29030095521342" lon="8.503437014021667"><ele>8.333333333333332</ele><time>2026-04-29T13:13:16.167Z</time></trkpt><trkpt lat="40.29017523787572" lon="8.50356884078248"><ele>10.666666666666666</ele><time>2026-04-29T13:13:17.167Z</time></trkpt><trkpt lat="40.290055302504655" lon="8.503733257936466"><ele>13.0</ele><time>2026-04-29T13:13:18.167Z</time></trkpt><trkpt lat="40.289952499378195" lon="8.50392752738812"><ele>13.0</ele><time>2026-04-29T13:13:19.167Z</time></trkpt><trkpt lat="40.28986851606919" lon="8.50414659351469"><ele>13.0</ele><time>2026-04-29T13:13:20.167Z</time></trkpt><trkpt lat="40.28979321466509" lon="8.504379893504423"><ele>13.0</ele><time>2026-04-29T13:13:21.167Z</time></trkpt><trkpt lat="40.28971394608909" lon="8.504616495817896"><ele>18.666666666666664</ele><time>2026-04-29T13:13:22.167Z</time></trkpt><trkpt lat="40.289631623210624" lon="8.504859078422626"><ele>24.333333333333332</ele><time>2026-04-29T13:13:23.167Z</time></trkpt><trkpt lat="40.28956401257685" lon="8.505115654066888"><ele>30.0</ele><time>2026-04-29T13:13:24.167Z</time></trkpt><trkpt lat="40.28951372035224" lon="8.505373862293958"><ele>30.0</ele><time>2026-04-29T13:13:25.167Z</time></trkpt><trkpt lat="40.28948435971469" lon="8.505630113977482"><ele>30.0</ele><time>2026-04-29T13:13:26.167Z</time></trkpt><trkpt lat="40.28946463114825" lon="8.505853142461854"><ele>30.0</ele><time>2026-04-29T13:13:27.167Z</time></trkpt><trkpt lat="40.289427032904655" lon="8.506032316030497"><ele>30.0</ele><time>2026-04-29T13:13:28.167Z</time></trkpt><trkpt lat="40.28933734778407" lon="8.506152815130916"><ele>30.0</ele><time>2026-04-29T13:13:29.167Z</time></trkpt><trkpt lat="40.289232713243806" lon="8.5062068278462"><ele>30.0</ele><time>2026-04-29T13:13:30.167Z</time></trkpt><trkpt lat="40.289131372760764" lon="8.506197978706542"><ele>30.0</ele><time>2026-04-29T13:13:31.167Z</time></trkpt><trkpt lat="40.289040442910746" lon="8.506147188483174"><ele>30.0</ele><time>2026-04-29T13:13:32.167Z</time></trkpt><trkpt lat="40.28897054334996" lon="8.506070926924501"><ele>30.0</ele><time>2026-04-29T13:13:33.167Z</time></trkpt><trkpt lat="40.28892677389965" lon="8.50597769313017"><ele>30.0</ele><time>2026-04-29T13:13:34.167Z</time></trkpt><trkpt lat="40.288895037721446" lon="8.505841706091706"><ele>30.0</ele><time>2026-04-29T13:13:35.167Z</time></trkpt><trkpt lat="40.28889737895057" lon="8.505660472145298"><ele>30.0</ele><time>2026-04-29T13:13:36.167Z</time></trkpt><trkpt lat="40.288928722498206" lon="8.505449280808117"><ele>30.0</ele><time>2026-04-29T13:13:37.167Z</time></trkpt><trkpt lat="40.28894712624449" lon="8.505214740899572"><ele>30.0</ele><time>2026-04-29T13:13:38.167Z</time></trkpt><trkpt lat="40.288943123354514" lon="8.504951751036486"><ele>30.0</ele><time>2026-04-29T13:13:39.167Z</time></trkpt><trkpt lat="40.28892996474745" lon="8.504670102831726"><ele>37.5</ele><time>2026-04-29T13:13:40.167Z</time></trkpt><trkpt lat="40.288922664968354" lon="8.504373042130554"><ele>45.0</ele><time>2026-04-29T13:13:41.167Z</time></trkpt><trkpt lat="40.288919932708545" lon="8.504063270761362"><ele>45.0</ele><time>2026-04-29T13:13:42.167Z</time></trkpt><trkpt lat="40.288917702062065" lon="8.503750122964139"><ele>45.0</ele><time>2026-04-29T13:13:43.167Z</time></trkpt><trkpt lat="40.288917245145875" lon="8.5034608832855"><ele>46.66666666666667</ele><time>2026-04-29T13:13:44.167Z</time></trkpt><trkpt lat="40.288914936117294" lon="8.503203657177282"><ele>48.333333333333336</ele><time>2026-04-29T13:13:45.167Z</time></trkpt><trkpt lat="40.288906330256545" lon="8.502968544326226"><ele>50.0</ele><time>2026-04-29T13:13:46.167Z</time></trkpt><trkpt lat="40.28886537889966" lon="8.502769247972513"><ele>50.0</ele><time>2026-04-29T13:13:47.167Z</time></trkpt><trkpt lat="40.28878933457453" lon="8.502642693049177"><ele>50.0</ele><time>2026-04-29T13:13:48.167Z</time></trkpt><trkpt lat="40.28868476214973" lon="8.502618231857225"><ele>50.0</ele><time>2026-04-29T13:13:49.167Z</time></trkpt><trkpt lat="40.288596099081715" lon="8.502692810330108"><ele>50.0</ele><time>2026-04-29T13:13:50.167Z</time></trkpt><trkpt lat="40.288551358712354" lon="8.502852548959378"><ele>51.333333333333336</ele><time>2026-04-29T13:13:51.167Z</time></trkpt><trkpt lat="40.28854066067295" lon="8.503058784089"><ele>52.66666666666667</ele><time>2026-04-29T13:13:52.167Z</time></trkpt><trkpt lat="40.28850376793335" lon="8.503279596410373"><ele>54.0</ele><time>2026-04-29T13:13:53.167Z</time></trkpt><trkpt lat="40.288397042516976" lon="8.503472291610874"><ele>54.0</ele><time>2026-04-29T13:13:54.167Z</time></trkpt><trkpt lat="40.28823950562168" lon="8.503632854568412"><ele>54.0</ele><time>2026-04-29T13:13:55.167Z</time></trkpt><trkpt lat="40.28806551442256" lon="8.503788997912013"><ele>54.0</ele><time>2026-04-29T13:13:56.167Z</time></trkpt><trkpt lat="40.28789393269485" lon="8.503968247194663"><ele>61.5</ele><time>2026-04-29T13:13:57.167Z</time></trkpt><trkpt lat="40.287730181694215" lon="8.504173612303038"><ele>69.0</ele><time>2026-04-29T13:13:58.167Z</time></trkpt><trkpt lat="40.287563709445394" lon="8.504378269698735"><ele>64.5</ele><time>2026-04-29T13:13:59.167Z</time></trkpt><trkpt lat="40.2874223110672" lon="8.504613338827456"><ele>60.0</ele><time>2026-04-29T13:14:00.167Z</time></trkpt><trkpt lat="40.287325600212995" lon="8.504889742573877"><ele>60.0</ele><time>2026-04-29T13:14:01.167Z</time></trkpt><trkpt lat="40.28726614620164" lon="8.505188301821768"><ele>60.0</ele><time>2026-04-29T13:14:02.167Z</time></trkpt><trkpt lat="40.28723900171841" lon="8.505496189316888"><ele>79.5</ele><time>2026-04-29T13:14:03.167Z</time></trkpt><trkpt lat="40.287236274941804" lon="8.505805108977025"><ele>99.0</ele><time>2026-04-29T13:14:04.167Z</time></trkpt><trkpt lat="40.287246433439904" lon="8.506109885512727"><ele>100.66666666666666</ele><time>2026-04-29T13:14:05.167Z</time></trkpt><trkpt lat="40.28724729444738" lon="8.506393416563066"><ele>102.33333333333333</ele><time>2026-04-29T13:14:06.167Z</time></trkpt><trkpt lat="40.287247858422305" lon="8.506664007007522"><ele>104.0</ele><time>2026-04-29T13:14:07.167Z</time></trkpt><trkpt lat="40.287256596522305" lon="8.506929854219855"><ele>93.0</ele><time>2026-04-29T13:14:08.167Z</time></trkpt><trkpt lat="40.28726358750662" lon="8.50719480508439"><ele>82.0</ele><time>2026-04-29T13:14:09.167Z</time></trkpt><trkpt lat="40.28728289135855" lon="8.507462913048135"><ele>71.0</ele><time>2026-04-29T13:14:10.167Z</time></trkpt><trkpt lat="40.287307091936114" lon="8.507734656098842"><ele>73.66666666666667</ele><time>2026-04-29T13:14:11.167Z</time></trkpt><trkpt lat="40.28733067505133" lon="8.507997973498025"><ele>76.33333333333333</ele><time>2026-04-29T13:14:12.167Z</time></trkpt><trkpt lat="40.28734877911823" lon="8.508250060000483"><ele>79.0</ele><time>2026-04-29T13:14:13.167Z</time></trkpt><trkpt lat="40.28736570318487" lon="8.508492264012082"><ele>79.0</ele><time>2026-04-29T13:14:14.167Z</time></trkpt><trkpt lat="40.28737210000686" lon="8.508726157019483"><ele>79.0</ele><time>2026-04-29T13:14:15.167Z</time></trkpt><trkpt lat="40.28733317205279" lon="8.508939702364602"><ele>79.0</ele><time>2026-04-29T13:14:16.167Z</time></trkpt><trkpt lat="40.2872559938571" lon="8.509116635095936"><ele>85.66666666666666</ele><time>2026-04-29T13:14:17.167Z</time></trkpt><trkpt lat="40.287143703804375" lon="8.509260466157974"><ele>92.33333333333333</ele><time>2026-04-29T13:14:18.167Z</time></trkpt><trkpt lat="40.28699602443488" lon="8.509398271021821"><ele>99.0</ele><time>2026-04-29T13:14:19.167Z</time></trkpt><trkpt lat="40.286848838734684" lon="8.509535002479344"><ele>96.0</ele><time>2026-04-29T13:14:20.167Z</time></trkpt><trkpt lat="40.286693524212986" lon="8.509684262484456"><ele>93.0</ele><time>2026-04-29T13:14:21.167Z</time></trkpt><trkpt lat="40.286537468799914" lon="8.509847188831305"><ele>90.0</ele><time>2026-04-29T13:14:22.167Z</time></trkpt><trkpt lat="40.28639335892485" lon="8.510009482941209"><ele>93.0</ele><time>2026-04-29T13:14:23.167Z</time></trkpt><trkpt lat="40.28625620203161" lon="8.510159463892494"><ele>96.0</ele><time>2026-04-29T13:14:24.167Z</time></trkpt><trkpt lat="40.28611881565263" lon="8.510297372315222"><ele>99.0</ele><time>2026-04-29T13:14:25.167Z</time></trkpt><trkpt lat="40.285982168089234" lon="8.510433897302262"><ele>99.0</ele><time>2026-04-29T13:14:26.167Z</time></trkpt><trkpt lat="40.28584160117824" lon="8.51056098151887"><ele>99.0</ele><time>2026-04-29T13:14:27.167Z</time></trkpt><trkpt lat="40.28570158158637" lon="8.510673996365984"><ele>99.0</ele><time>2026-04-29T13:14:28.167Z</time></trkpt><trkpt lat="40.28555805030012" lon="8.510770858533585"><ele>103.0</ele><time>2026-04-29T13:14:29.167Z</time></trkpt><trkpt lat="40.28541594991655" lon="8.510862789288351"><ele>107.0</ele><time>2026-04-29T13:14:30.167Z</time></trkpt><trkpt lat="40.28528437331226" lon="8.510962271384829"><ele>111.0</ele><time>2026-04-29T13:14:31.167Z</time></trkpt><trkpt lat="40.28517539143583" lon="8.511083127435594"><ele>111.0</ele><time>2026-04-29T13:14:32.167Z</time></trkpt><trkpt lat="40.285076422859554" lon="8.51123329700151"><ele>111.0</ele><time>2026-04-29T13:14:33.167Z</time></trkpt><trkpt lat="40.28497744612345" lon="8.511396123890416"><ele>111.0</ele><time>2026-04-29T13:14:34.167Z</time></trkpt><trkpt lat="40.28488185445697" lon="8.511565825283554"><ele>109.0</ele><time>2026-04-29T13:14:35.167Z</time></trkpt><trkpt lat="40.284774414316004" lon="8.511732786426595"><ele>107.0</ele><time>2026-04-29T13:14:36.167Z</time></trkpt><trkpt lat="40.28465973681336" lon="8.511896748385691"><ele>105.0</ele><time>2026-04-29T13:14:37.167Z</time></trkpt><trkpt lat="40.2845465486184" lon="8.512064283269389"><ele>108.33333333333334</ele><time>2026-04-29T13:14:38.167Z</time></trkpt><trkpt lat="40.2844356760471" lon="8.51222123269289"><ele>111.66666666666667</ele><time>2026-04-29T13:14:39.167Z</time></trkpt><trkpt lat="40.28433002289372" lon="8.512376765227843"><ele>115.0</ele><time>2026-04-29T13:14:40.167Z</time></trkpt><trkpt lat="40.284234140119594" lon="8.512523708454"><ele>115.0</ele><time>2026-04-29T13:14:41.167Z</time></trkpt><trkpt lat="40.284147208256044" lon="8.512659309001918"><ele>115.0</ele><time>2026-04-29T13:14:42.167Z</time></trkpt><trkpt lat="40.28406296992412" lon="8.512782521464246"><ele>115.0</ele><time>2026-04-29T13:14:43.167Z</time></trkpt><trkpt lat="40.28396382328844" lon="8.512870904412889"><ele>115.0</ele><time>2026-04-29T13:14:44.167Z</time></trkpt><trkpt lat="40.28384165291189" lon="8.512910405371192"><ele>115.75</ele><time>2026-04-29T13:14:45.167Z</time></trkpt><trkpt lat="40.28371327524345" lon="8.512911960883372"><ele>116.5</ele><time>2026-04-29T13:14:46.167Z</time></trkpt><trkpt lat="40.283575434321776" lon="8.512902193395885"><ele>117.25</ele><time>2026-04-29T13:14:47.167Z</time></trkpt><trkpt lat="40.28343861739244" lon="8.512898675810954"><ele>118.0</ele><time>2026-04-29T13:14:48.167Z</time></trkpt><trkpt lat="40.283300968897855" lon="8.512892929755981"><ele>118.0</ele><time>2026-04-29T13:14:49.167Z</time></trkpt><trkpt lat="40.28316367498982" lon="8.512914407105235"><ele>118.0</ele><time>2026-04-29T13:14:50.167Z</time></trkpt><trkpt lat="40.283026694375764" lon="8.512960408390247"><ele>118.0</ele><time>2026-04-29T13:14:51.167Z</time></trkpt><trkpt lat="40.28290131135704" lon="8.513037476078328"><ele>118.0</ele><time>2026-04-29T13:14:52.167Z</time></trkpt><trkpt lat="40.28277744934751" lon="8.51313615160503"><ele>119.25</ele><time>2026-04-29T13:14:53.167Z</time></trkpt><trkpt lat="40.28266767376218" lon="8.513269038959896"><ele>120.5</ele><time>2026-04-29T13:14:54.167Z</time></trkpt><trkpt lat="40.28256342524019" lon="8.513401099694429"><ele>121.75</ele><time>2026-04-29T13:14:55.167Z</time></trkpt><trkpt lat="40.282461215460245" lon="8.513531177312741"><ele>123.0</ele><time>2026-04-29T13:14:56.167Z</time></trkpt><trkpt lat="40.282357474130386" lon="8.513638812565627"><ele>123.0</ele><time>2026-04-29T13:14:57.167Z</time></trkpt><trkpt lat="40.28224699650723" lon="8.513710646119444"><ele>123.0</ele><time>2026-04-29T13:14:58.168Z</time></trkpt><trkpt lat="40.28212069205305" lon="8.513757323185278"><ele>123.0</ele><time>2026-04-29T13:14:59.167Z</time></trkpt><trkpt lat="40.28199049754301" lon="8.513804485184007"><ele>123.0</ele><time>2026-04-29T13:15:00.167Z</time></trkpt><trkpt lat="40.28186050222064" lon="8.513857579979746"><ele>123.0</ele><time>2026-04-29T13:15:01.167Z</time></trkpt><trkpt lat="40.28173007232098" lon="8.51391426394892"><ele>123.0</ele><time>2026-04-29T13:15:02.168Z</time></trkpt><trkpt lat="40.28159286526845" lon="8.513966000028585"><ele>123.0</ele><time>2026-04-29T13:15:03.168Z</time></trkpt><trkpt lat="40.281453338187156" lon="8.514008470430953"><ele>123.0</ele><time>2026-04-29T13:15:04.167Z</time></trkpt><trkpt lat="40.28131253605939" lon="8.514039684259561"><ele>122.25</ele><time>2026-04-29T13:15:05.168Z</time></trkpt><trkpt lat="40.28117053461319" lon="8.51407540897891"><ele>121.5</ele><time>2026-04-29T13:15:06.168Z</time></trkpt><trkpt lat="40.28102792765017" lon="8.514099457484825"><ele>120.75</ele><time>2026-04-29T13:15:07.168Z</time></trkpt><trkpt lat="40.28089131191601" lon="8.514123362748983"><ele>120.0</ele><time>2026-04-29T13:15:08.167Z</time></trkpt><trkpt lat="40.2807544641438" lon="8.514144597231827"><ele>120.0</ele><time>2026-04-29T13:15:09.167Z</time></trkpt><trkpt lat="40.28061410907282" lon="8.514158026129994"><ele>120.0</ele><time>2026-04-29T13:15:10.167Z</time></trkpt><trkpt lat="40.28047131722306" lon="8.514149795862506"><ele>120.0</ele><time>2026-04-29T13:15:11.168Z</time></trkpt><trkpt lat="40.2803294296274" lon="8.514132965954268"><ele>120.0</ele><time>2026-04-29T13:15:12.168Z</time></trkpt><trkpt lat="40.280185632994915" lon="8.514116079849398"><ele>121.33333333333334</ele><time>2026-04-29T13:15:13.168Z</time></trkpt><trkpt lat="40.280040612745935" lon="8.514089521534732"><ele>122.66666666666667</ele><time>2026-04-29T13:15:14.168Z</time></trkpt><trkpt lat="40.27989702844932" lon="8.514033764769366"><ele>124.0</ele><time>2026-04-29T13:15:15.168Z</time></trkpt><trkpt lat="40.2797517410699" lon="8.513959866372371"><ele>124.0</ele><time>2026-04-29T13:15:16.168Z</time></trkpt><trkpt lat="40.27960675544025" lon="8.513888336403575"><ele>124.0</ele><time>2026-04-29T13:15:17.168Z</time></trkpt><trkpt lat="40.27946912156835" lon="8.513821393878214"><ele>124.0</ele><time>2026-04-29T13:15:18.168Z</time></trkpt><trkpt lat="40.27933666235821" lon="8.513760835147194"><ele>124.0</ele><time>2026-04-29T13:15:19.168Z</time></trkpt><trkpt lat="40.27920019895921" lon="8.513709660085471"><ele>120.5</ele><time>2026-04-29T13:15:20.168Z</time></trkpt><trkpt lat="40.27907143298993" lon="8.513681740726396"><ele>117.0</ele><time>2026-04-29T13:15:21.168Z</time></trkpt><trkpt lat="40.27895783089515" lon="8.51369899625297"><ele>113.5</ele><time>2026-04-29T13:15:22.168Z</time></trkpt><trkpt lat="40.27886608111078" lon="8.513783081744736"><ele>110.0</ele><time>2026-04-29T13:15:23.168Z</time></trkpt><trkpt lat="40.27880609122788" lon="8.51392609251004"><ele>110.75</ele><time>2026-04-29T13:15:24.168Z</time></trkpt><trkpt lat="40.27874657941702" lon="8.5140878770242"><ele>111.5</ele><time>2026-04-29T13:15:25.168Z</time></trkpt><trkpt lat="40.27868177057156" lon="8.514254139768454"><ele>112.25</ele><time>2026-04-29T13:15:26.168Z</time></trkpt><trkpt lat="40.27860503532165" lon="8.514416038065523"><ele>113.0</ele><time>2026-04-29T13:15:27.168Z</time></trkpt><trkpt lat="40.278517696111216" lon="8.514571855141135"><ele>113.0</ele><time>2026-04-29T13:15:28.168Z</time></trkpt><trkpt lat="40.27845243061524" lon="8.514742179471812"><ele>113.0</ele><time>2026-04-29T13:15:29.168Z</time></trkpt><trkpt lat="40.278408515203886" lon="8.514933468102555"><ele>113.0</ele><time>2026-04-29T13:15:30.168Z</time></trkpt><trkpt lat="40.278397150756945" lon="8.515130452268753"><ele>113.0</ele><time>2026-04-29T13:15:31.168Z</time></trkpt><trkpt lat="40.27841201273941" lon="8.515331385557051"><ele>114.0</ele><time>2026-04-29T13:15:32.168Z</time></trkpt><trkpt lat="40.27843336162116" lon="8.515530079481154"><ele>115.0</ele><time>2026-04-29T13:15:33.168Z</time></trkpt><trkpt lat="40.27844436773019" lon="8.515718401750615"><ele>116.0</ele><time>2026-04-29T13:15:34.168Z</time></trkpt><trkpt lat="40.27842907087032" lon="8.515886673342518"><ele>117.0</ele><time>2026-04-29T13:15:35.168Z</time></trkpt><trkpt lat="40.278374087036845" lon="8.516032148555071"><ele>117.0</ele><time>2026-04-29T13:15:36.168Z</time></trkpt><trkpt lat="40.27827867746135" lon="8.51616286440593"><ele>117.0</ele><time>2026-04-29T13:15:37.168Z</time></trkpt><trkpt lat="40.27815415265952" lon="8.516270727583237"><ele>117.0</ele><time>2026-04-29T13:15:38.168Z</time></trkpt><trkpt lat="40.27801523737661" lon="8.516361164464088"><ele>117.0</ele><time>2026-04-29T13:15:39.168Z</time></trkpt><trkpt lat="40.27787345943989" lon="8.516431179296037"><ele>117.75</ele><time>2026-04-29T13:15:40.168Z</time></trkpt><trkpt lat="40.277733679123635" lon="8.516442913734386"><ele>118.5</ele><time>2026-04-29T13:15:41.168Z</time></trkpt><trkpt lat="40.27760055853014" lon="8.516396000833671"><ele>119.25</ele><time>2026-04-29T13:15:42.168Z</time></trkpt><trkpt lat="40.27746799872598" lon="8.51629934799051"><ele>120.0</ele><time>2026-04-29T13:15:43.168Z</time></trkpt><trkpt lat="40.27732568844276" lon="8.516196989939282"><ele>122.0</ele><time>2026-04-29T13:15:44.168Z</time></trkpt><trkpt lat="40.27720098674806" lon="8.51607513493201"><ele>124.0</ele><time>2026-04-29T13:15:45.168Z</time></trkpt><trkpt lat="40.27711440362474" lon="8.51590982460241"><ele>126.0</ele><time>2026-04-29T13:15:46.168Z</time></trkpt><trkpt lat="40.27704846764621" lon="8.515721361219724"><ele>126.0</ele><time>2026-04-29T13:15:47.168Z</time></trkpt><trkpt lat="40.27699315887719" lon="8.51551934281925"><ele>126.0</ele><time>2026-04-29T13:15:48.168Z</time></trkpt><trkpt lat="40.276934382509054" lon="8.515307679173743"><ele>126.0</ele><time>2026-04-29T13:15:49.168Z</time></trkpt><trkpt lat="40.27688055441748" lon="8.515083785015223"><ele>120.33333333333334</ele><time>2026-04-29T13:15:50.168Z</time></trkpt><trkpt lat="40.276842961214996" lon="8.514852444613618"><ele>114.66666666666667</ele><time>2026-04-29T13:15:51.168Z</time></trkpt><trkpt lat="40.27680846827104" lon="8.514624125762712"><ele>109.0</ele><time>2026-04-29T13:15:52.168Z</time></trkpt><trkpt lat="40.27678386287576" lon="8.514408949925794"><ele>105.33333333333334</ele><time>2026-04-29T13:15:53.168Z</time></trkpt><trkpt lat="40.27675780881865" lon="8.514207616382155"><ele>101.66666666666666</ele><time>2026-04-29T13:15:54.168Z</time></trkpt><trkpt lat="40.27669224997605" lon="8.514019998316376"><ele>98.0</ele><time>2026-04-29T13:15:55.168Z</time></trkpt><trkpt lat="40.276606132535676" lon="8.513826067631141"><ele>97.66666666666666</ele><time>2026-04-29T13:15:56.168Z</time></trkpt><trkpt lat="40.27650396772022" lon="8.513637184379412"><ele>97.33333333333334</ele><time>2026-04-29T13:15:57.168Z</time></trkpt><trkpt lat="40.276400318715375" lon="8.513466736912623"><ele>97.0</ele><time>2026-04-29T13:15:58.168Z</time></trkpt><trkpt lat="40.27627805932306" lon="8.513324498989835"><ele>97.0</ele><time>2026-04-29T13:15:59.168Z</time></trkpt><trkpt lat="40.27614694391304" lon="8.513192864393503"><ele>97.0</ele><time>2026-04-29T13:16:00.168Z</time></trkpt><trkpt lat="40.27601031963721" lon="8.513071881121961"><ele>97.0</ele><time>2026-04-29T13:16:01.168Z</time></trkpt><trkpt lat="40.27585432401202" lon="8.512971844901708"><ele>95.0</ele><time>2026-04-29T13:16:02.168Z</time></trkpt><trkpt lat="40.27572481401322" lon="8.512851917694038"><ele>93.0</ele><time>2026-04-29T13:16:03.168Z</time></trkpt><trkpt lat="40.27561625357644" lon="8.5126708007338"><ele>91.0</ele><time>2026-04-29T13:16:04.168Z</time></trkpt><trkpt lat="40.27549295728189" lon="8.512535688301917"><ele>91.0</ele><time>2026-04-29T13:16:05.168Z</time></trkpt><trkpt lat="40.2753627135618" lon="8.512406473403074"><ele>91.0</ele><time>2026-04-29T13:16:06.168Z</time></trkpt><trkpt lat="40.27523791401463" lon="8.512277691165453"><ele>91.0</ele><time>2026-04-29T13:16:07.168Z</time></trkpt><trkpt lat="40.27511351906465" lon="8.51216202446248"><ele>91.0</ele><time>2026-04-29T13:16:08.168Z</time></trkpt><trkpt lat="40.274976279923266" lon="8.51207940537722"><ele>91.0</ele><time>2026-04-29T13:16:09.168Z</time></trkpt><trkpt lat="40.27481287287586" lon="8.512003041334305"><ele>91.0</ele><time>2026-04-29T13:16:10.168Z</time></trkpt><trkpt lat="40.27463454282082" lon="8.511925126952132"><ele>87.0</ele><time>2026-04-29T13:16:11.168Z</time></trkpt><trkpt lat="40.274456779861495" lon="8.511844973996755"><ele>83.0</ele><time>2026-04-29T13:16:12.168Z</time></trkpt><trkpt lat="40.27428663019205" lon="8.511755884730796"><ele>79.0</ele><time>2026-04-29T13:16:13.168Z</time></trkpt><trkpt lat="40.274118507452805" lon="8.511689855506473"><ele>79.0</ele><time>2026-04-29T13:16:14.168Z</time></trkpt><trkpt lat="40.27395837556964" lon="8.511645595641484"><ele>79.0</ele><time>2026-04-29T13:16:15.168Z</time></trkpt><trkpt lat="40.27380628502761" lon="8.511608682199443"><ele>79.0</ele><time>2026-04-29T13:16:16.168Z</time></trkpt><trkpt lat="40.27366468753478" lon="8.511615209097313"><ele>78.0</ele><time>2026-04-29T13:16:17.168Z</time></trkpt><trkpt lat="40.27354365511162" lon="8.511684727263956"><ele>77.0</ele><time>2026-04-29T13:16:18.168Z</time></trkpt><trkpt lat="40.273440800609244" lon="8.511792377619958"><ele>76.0</ele><time>2026-04-29T13:16:19.168Z</time></trkpt><trkpt lat="40.27336139156697" lon="8.51191810666936"><ele>75.0</ele><time>2026-04-29T13:16:20.168Z</time></trkpt><trkpt lat="40.27329615604005" lon="8.512067502938187"><ele>74.0</ele><time>2026-04-29T13:16:21.168Z</time></trkpt><trkpt lat="40.2732155758852" lon="8.512192763964414"><ele>73.0</ele><time>2026-04-29T13:16:22.168Z</time></trkpt><trkpt lat="40.27311887205163" lon="8.512347106738988"><ele>72.0</ele><time>2026-04-29T13:16:23.168Z</time></trkpt><trkpt lat="40.273019203819736" lon="8.512512353261222"><ele>71.0</ele><time>2026-04-29T13:16:24.168Z</time></trkpt><trkpt lat="40.272912423117795" lon="8.512697292133344"><ele>71.0</ele><time>2026-04-29T13:16:25.168Z</time></trkpt><trkpt lat="40.272789625530244" lon="8.512874330968122"><ele>71.0</ele><time>2026-04-29T13:16:26.168Z</time></trkpt><trkpt lat="40.272663635179846" lon="8.51305090102833"><ele>71.0</ele><time>2026-04-29T13:16:27.168Z</time></trkpt><trkpt lat="40.27253668897456" lon="8.513226408448574"><ele>69.66666666666667</ele><time>2026-04-29T13:16:28.168Z</time></trkpt><trkpt lat="40.27241300686864" lon="8.51339590827514"><ele>68.33333333333333</ele><time>2026-04-29T13:16:29.168Z</time></trkpt><trkpt lat="40.27228831877626" lon="8.51354221379899"><ele>67.0</ele><time>2026-04-29T13:16:30.168Z</time></trkpt><trkpt lat="40.27216829941374" lon="8.513666048987572"><ele>68.25</ele><time>2026-04-29T13:16:31.168Z</time></trkpt><trkpt lat="40.27203515808287" lon="8.51376818226425"><ele>69.5</ele><time>2026-04-29T13:16:32.168Z</time></trkpt><trkpt lat="40.27192508106198" lon="8.513871824876528"><ele>70.75</ele><time>2026-04-29T13:16:33.168Z</time></trkpt><trkpt lat="40.27183464651264" lon="8.513990688061035"><ele>72.0</ele><time>2026-04-29T13:16:34.168Z</time></trkpt><trkpt lat="40.27178482627688" lon="8.514138238847124"><ele>72.0</ele><time>2026-04-29T13:16:35.168Z</time></trkpt><trkpt lat="40.27178569552219" lon="8.514303031171258"><ele>72.0</ele><time>2026-04-29T13:16:36.168Z</time></trkpt><trkpt lat="40.27182903719149" lon="8.51446280800767"><ele>72.0</ele><time>2026-04-29T13:16:37.168Z</time></trkpt><trkpt lat="40.271900137358976" lon="8.514608050128459"><ele>72.0</ele><time>2026-04-29T13:16:38.168Z</time></trkpt><trkpt lat="40.27200938249201" lon="8.514741751403268"><ele>70.66666666666667</ele><time>2026-04-29T13:16:39.168Z</time></trkpt><trkpt lat="40.27212911219624" lon="8.514885738342093"><ele>69.33333333333334</ele><time>2026-04-29T13:16:40.168Z</time></trkpt><trkpt lat="40.2722438159823" lon="8.515050053459271"><ele>68.0</ele><time>2026-04-29T13:16:41.168Z</time></trkpt><trkpt lat="40.27233727307824" lon="8.515220899345515"><ele>69.0</ele><time>2026-04-29T13:16:42.168Z</time></trkpt><trkpt lat="40.272416754231564" lon="8.515401092334816"><ele>70.0</ele><time>2026-04-29T13:16:43.168Z</time></trkpt><trkpt lat="40.27248212512393" lon="8.515576764146237"><ele>71.0</ele><time>2026-04-29T13:16:44.168Z</time></trkpt><trkpt lat="40.27252179361185" lon="8.515742182603093"><ele>72.0</ele><time>2026-04-29T13:16:45.168Z</time></trkpt><trkpt lat="40.27251038469582" lon="8.5159020786273"><ele>72.0</ele><time>2026-04-29T13:16:46.168Z</time></trkpt><trkpt lat="40.27245357898817" lon="8.516044842508661"><ele>72.0</ele><time>2026-04-29T13:16:47.168Z</time></trkpt><trkpt lat="40.27236689002973" lon="8.516175827277728"><ele>72.0</ele><time>2026-04-29T13:16:48.168Z</time></trkpt><trkpt lat="40.27226589984339" lon="8.516293464620185"><ele>72.0</ele><time>2026-04-29T13:16:49.168Z</time></trkpt><trkpt lat="40.27216942718302" lon="8.516405933226627"><ele>72.2</ele><time>2026-04-29T13:16:50.168Z</time></trkpt><trkpt lat="40.27207984718263" lon="8.51650725510198"><ele>72.4</ele><time>2026-04-29T13:16:51.168Z</time></trkpt><trkpt lat="40.27201062634433" lon="8.51661085649696"><ele>72.6</ele><time>2026-04-29T13:16:52.168Z</time></trkpt><trkpt lat="40.2720026427464" lon="8.516746365369984"><ele>72.8</ele><time>2026-04-29T13:16:53.168Z</time></trkpt><trkpt lat="40.27202441881394" lon="8.516870523218676"><ele>73.0</ele><time>2026-04-29T13:16:54.168Z</time></trkpt><trkpt lat="40.27206879084279" lon="8.516975731926598"><ele>72.25</ele><time>2026-04-29T13:16:55.168Z</time></trkpt><trkpt lat="40.27213291727578" lon="8.517084553942796"><ele>71.5</ele><time>2026-04-29T13:16:56.168Z</time></trkpt><trkpt lat="40.27220664868565" lon="8.51720867486692"><ele>70.75</ele><time>2026-04-29T13:16:57.168Z</time></trkpt><trkpt lat="40.27226781499573" lon="8.517346902744697"><ele>70.0</ele><time>2026-04-29T13:16:58.168Z</time></trkpt><trkpt lat="40.272319583590395" lon="8.5174992563343"><ele>70.0</ele><time>2026-04-29T13:16:59.168Z</time></trkpt><trkpt lat="40.27237621643063" lon="8.51765272286621"><ele>70.0</ele><time>2026-04-29T13:17:00.168Z</time></trkpt><trkpt lat="40.27242960615113" lon="8.517819606498168"><ele>70.0</ele><time>2026-04-29T13:17:01.168Z</time></trkpt><trkpt lat="40.27246846241631" lon="8.517998934113496"><ele>70.0</ele><time>2026-04-29T13:17:02.168Z</time></trkpt><trkpt lat="40.272497162386486" lon="8.518186813342954"><ele>71.66666666666666</ele><time>2026-04-29T13:17:03.168Z</time></trkpt><trkpt lat="40.27253504599555" lon="8.518365216656678"><ele>73.33333333333333</ele><time>2026-04-29T13:17:04.168Z</time></trkpt><trkpt lat="40.27257501940418" lon="8.518569734160893"><ele>75.0</ele><time>2026-04-29T13:17:05.168Z</time></trkpt><trkpt lat="40.272622647052636" lon="8.518785468161509"><ele>77.0</ele><time>2026-04-29T13:17:06.168Z</time></trkpt><trkpt lat="40.27267119936812" lon="8.51901176080409"><ele>79.0</ele><time>2026-04-29T13:17:07.168Z</time></trkpt><trkpt lat="40.27272258080558" lon="8.519219783802011"><ele>81.0</ele><time>2026-04-29T13:17:08.168Z</time></trkpt><trkpt lat="40.2727599588934" lon="8.519419972130747"><ele>82.33333333333333</ele><time>2026-04-29T13:17:09.168Z</time></trkpt><trkpt lat="40.272781785530675" lon="8.519632445601838"><ele>83.66666666666666</ele><time>2026-04-29T13:17:10.168Z</time></trkpt><trkpt lat="40.27279894888731" lon="8.519861015112228"><ele>85.0</ele><time>2026-04-29T13:17:11.168Z</time></trkpt><trkpt lat="40.27281377597953" lon="8.520096245344142"><ele>85.0</ele><time>2026-04-29T13:17:12.168Z</time></trkpt><trkpt lat="40.27282967017424" lon="8.520332115393066"><ele>85.0</ele><time>2026-04-29T13:17:13.168Z</time></trkpt><trkpt lat="40.272839861575505" lon="8.520573857282615"><ele>85.0</ele><time>2026-04-29T13:17:14.168Z</time></trkpt><trkpt lat="40.27285327609096" lon="8.52082172523026"><ele>85.0</ele><time>2026-04-29T13:17:15.168Z</time></trkpt><trkpt lat="40.272864604155245" lon="8.521076658292838"><ele>85.0</ele><time>2026-04-29T13:17:16.167Z</time></trkpt><trkpt lat="40.27288573427043" lon="8.52133183287825"><ele>85.0</ele><time>2026-04-29T13:17:17.168Z</time></trkpt><trkpt lat="40.272896976738664" lon="8.521585793566075"><ele>86.0</ele><time>2026-04-29T13:17:18.168Z</time></trkpt><trkpt lat="40.27290939367759" lon="8.521837861041815"><ele>87.0</ele><time>2026-04-29T13:17:19.168Z</time></trkpt><trkpt lat="40.27292936061304" lon="8.522087171395741"><ele>88.0</ele><time>2026-04-29T13:17:20.168Z</time></trkpt><trkpt lat="40.2729631364351" lon="8.522326863210644"><ele>89.66666666666666</ele><time>2026-04-29T13:17:21.168Z</time></trkpt><trkpt lat="40.2730289221844" lon="8.522558882008713"><ele>91.33333333333333</ele><time>2026-04-29T13:17:22.168Z</time></trkpt><trkpt lat="40.27310425050353" lon="8.522786124164202"><ele>93.0</ele><time>2026-04-29T13:17:23.168Z</time></trkpt><trkpt lat="40.27318284167742" lon="8.523009209041232"><ele>93.0</ele><time>2026-04-29T13:17:24.168Z</time></trkpt><trkpt lat="40.273266314993066" lon="8.523237137073977"><ele>93.0</ele><time>2026-04-29T13:17:25.168Z</time></trkpt><trkpt lat="40.273355442299696" lon="8.523473737038492"><ele>93.0</ele><time>2026-04-29T13:17:26.168Z</time></trkpt><trkpt lat="40.27343132289585" lon="8.523707360966133"><ele>96.33333333333334</ele><time>2026-04-29T13:17:27.168Z</time></trkpt><trkpt lat="40.273493347822026" lon="8.523947414779622"><ele>99.66666666666667</ele><time>2026-04-29T13:17:28.168Z</time></trkpt><trkpt lat="40.27354158187092" lon="8.524191904988882"><ele>103.0</ele><time>2026-04-29T13:17:29.168Z</time></trkpt><trkpt lat="40.27358527381087" lon="8.524434322882302"><ele>105.0</ele><time>2026-04-29T13:17:30.168Z</time></trkpt><trkpt lat="40.27361168553762" lon="8.524660737183375"><ele>107.0</ele><time>2026-04-29T13:17:31.168Z</time></trkpt><trkpt lat="40.27361607429569" lon="8.52489073047694"><ele>109.0</ele><time>2026-04-29T13:17:32.168Z</time></trkpt><trkpt lat="40.273590163776596" lon="8.525120209625932"><ele>109.0</ele><time>2026-04-29T13:17:33.168Z</time></trkpt><trkpt lat="40.2735710759035" lon="8.525336184753492"><ele>109.0</ele><time>2026-04-29T13:17:34.168Z</time></trkpt><trkpt lat="40.27355615600833" lon="8.52553620003758"><ele>109.0</ele><time>2026-04-29T13:17:35.168Z</time></trkpt><trkpt lat="40.27358517982359" lon="8.525710891667273"><ele>111.66666666666667</ele><time>2026-04-29T13:17:36.168Z</time></trkpt><trkpt lat="40.27365399938237" lon="8.525878896582611"><ele>114.33333333333334</ele><time>2026-04-29T13:17:37.168Z</time></trkpt><trkpt lat="40.27378252606991" lon="8.526027126754848"><ele>117.0</ele><time>2026-04-29T13:17:38.168Z</time></trkpt><trkpt lat="40.273923349747314" lon="8.526165153435176"><ele>117.0</ele><time>2026-04-29T13:17:39.168Z</time></trkpt><trkpt lat="40.274064910907065" lon="8.526305276516428"><ele>117.0</ele><time>2026-04-29T13:17:40.168Z</time></trkpt><trkpt lat="40.27421165795707" lon="8.526458424317783"><ele>117.0</ele><time>2026-04-29T13:17:41.168Z</time></trkpt><trkpt lat="40.274350095037" lon="8.52660206737025"><ele>117.0</ele><time>2026-04-29T13:17:42.168Z</time></trkpt><trkpt lat="40.274489931147194" lon="8.526729496683219"><ele>117.0</ele><time>2026-04-29T13:17:43.168Z</time></trkpt><trkpt lat="40.27462733228557" lon="8.526844216321228"><ele>117.0</ele><time>2026-04-29T13:17:44.168Z</time></trkpt><trkpt lat="40.27476796297059" lon="8.526949300222835"><ele>117.5</ele><time>2026-04-29T13:17:45.168Z</time></trkpt><trkpt lat="40.27489600812206" lon="8.527055035198035"><ele>118.0</ele><time>2026-04-29T13:17:46.168Z</time></trkpt><trkpt lat="40.27500165938046" lon="8.527160512253491"><ele>118.5</ele><time>2026-04-29T13:17:47.168Z</time></trkpt><trkpt lat="40.27508379015519" lon="8.527295376508935"><ele>119.0</ele><time>2026-04-29T13:17:48.168Z</time></trkpt><trkpt lat="40.275113695112715" lon="8.527438680518836"><ele>119.0</ele><time>2026-04-29T13:17:49.168Z</time></trkpt><trkpt lat="40.275149647584435" lon="8.52758136434247"><ele>119.0</ele><time>2026-04-29T13:17:50.168Z</time></trkpt><trkpt lat="40.27516531698431" lon="8.527705702740407"><ele>119.0</ele><time>2026-04-29T13:17:51.168Z</time></trkpt><trkpt lat="40.27522643326949" lon="8.527796833501656"><ele>119.0</ele><time>2026-04-29T13:17:52.168Z</time></trkpt><trkpt lat="40.27525824200074" lon="8.527892184565632"><ele>119.0</ele><time>2026-04-29T13:17:53.168Z</time></trkpt><trkpt lat="40.27525523025477" lon="8.527995833775869"><ele>120.33333333333333</ele><time>2026-04-29T13:17:54.168Z</time></trkpt><trkpt lat="40.27522267257327" lon="8.528074209714433"><ele>121.66666666666666</ele><time>2026-04-29T13:17:55.168Z</time></trkpt><trkpt lat="40.275161590962306" lon="8.528143328459104"><ele>123.0</ele><time>2026-04-29T13:17:56.168Z</time></trkpt><trkpt lat="40.27510488301131" lon="8.528209218185168"><ele>124.33333333333334</ele><time>2026-04-29T13:17:57.168Z</time></trkpt><trkpt lat="40.27500603150589" lon="8.52831920348071"><ele>125.66666666666667</ele><time>2026-04-29T13:17:59.168Z</time></trkpt><trkpt lat="40.27496432861681" lon="8.52841540021401"><ele>127.0</ele><time>2026-04-29T13:18:01.168Z</time></trkpt><trkpt lat="40.27491153330928" lon="8.528506741763048"><ele>127.0</ele><time>2026-04-29T13:18:03.168Z</time></trkpt><trkpt lat="40.27485816153606" lon="8.528625732962858"><ele>126.99999999999999</ele><time>2026-04-29T13:18:05.168Z</time></trkpt><trkpt lat="40.27480034966254" lon="8.528730832571268"><ele>126.99999999999999</ele><time>2026-04-29T13:18:07.168Z</time></trkpt><trkpt lat="40.274739923531754" lon="8.528813115761626"><ele>127.0</ele><time>2026-04-29T13:18:09.168Z</time></trkpt><trkpt lat="40.274690246718926" lon="8.528907404081602"><ele>127.0</ele><time>2026-04-29T13:18:11.168Z</time></trkpt><trkpt lat="40.274735035056054" lon="8.529015307051226"><ele>128.0</ele><time>2026-04-29T13:18:13.168Z</time></trkpt><trkpt lat="40.27476832672847" lon="8.529088908781272"><ele>129.0</ele><time>2026-04-29T13:18:14.168Z</time></trkpt><trkpt lat="40.27481738718402" lon="8.529196977417419"><ele>130.0</ele><time>2026-04-29T13:18:16.168Z</time></trkpt><trkpt lat="40.27485354972703" lon="8.529298498896269"><ele>131.0</ele><time>2026-04-29T13:18:18.168Z</time></trkpt><trkpt lat="40.27489880057768" lon="8.529426874735568"><ele>132.0</ele><time>2026-04-29T13:18:20.168Z</time></trkpt><trkpt lat="40.27490727683343" lon="8.529513098639619"><ele>133.0</ele><time>2026-04-29T13:18:21.168Z</time></trkpt><trkpt lat="40.27487837838924" lon="8.529653892212222"><ele>133.16666666666669</ele><time>2026-04-29T13:18:23.168Z</time></trkpt><trkpt lat="40.274825641332136" lon="8.529791419433517"><ele>133.33333333333334</ele><time>2026-04-29T13:18:25.168Z</time></trkpt><trkpt lat="40.27478551932878" lon="8.529857882185656"><ele>133.5</ele><time>2026-04-29T13:18:26.168Z</time></trkpt><trkpt lat="40.27475190397428" lon="8.529930513155845"><ele>133.66666666666666</ele><time>2026-04-29T13:18:27.168Z</time></trkpt><trkpt lat="40.2747044809942" lon="8.530001423630432"><ele>133.83333333333331</ele><time>2026-04-29T13:18:28.168Z</time></trkpt><trkpt lat="40.274668263575016" lon="8.53008180474282"><ele>134.0</ele><time>2026-04-29T13:18:29.168Z</time></trkpt><trkpt lat="40.27458838106531" lon="8.530200880723221"><ele>136.8</ele><time>2026-04-29T13:18:31.168Z</time></trkpt><trkpt lat="40.274550272403644" lon="8.530285107608632"><ele>139.60000000000002</ele><time>2026-04-29T13:18:32.168Z</time></trkpt><trkpt lat="40.27450438080185" lon="8.530378159835978"><ele>142.4</ele><time>2026-04-29T13:18:33.167Z</time></trkpt><trkpt lat="40.274471091931126" lon="8.530488074199686"><ele>145.20000000000002</ele><time>2026-04-29T13:18:34.167Z</time></trkpt><trkpt lat="40.27444370983667" lon="8.530621003209497"><ele>148.0</ele><time>2026-04-29T13:18:35.167Z</time></trkpt><trkpt lat="40.27441603195255" lon="8.53074975797859"><ele>148.0</ele><time>2026-04-29T13:18:36.167Z</time></trkpt><trkpt lat="40.274403259576495" lon="8.530899212855974"><ele>148.0</ele><time>2026-04-29T13:18:37.167Z</time></trkpt><trkpt lat="40.27439515126341" lon="8.531056934176505"><ele>148.0</ele><time>2026-04-29T13:18:38.167Z</time></trkpt><trkpt lat="40.27437056486085" lon="8.531202904750057"><ele>148.0</ele><time>2026-04-29T13:18:39.167Z</time></trkpt><trkpt lat="40.27433982286333" lon="8.531343685299095"><ele>146.6</ele><time>2026-04-29T13:18:40.167Z</time></trkpt><trkpt lat="40.27429433629308" lon="8.5314804255848"><ele>145.20000000000002</ele><time>2026-04-29T13:18:41.167Z</time></trkpt><trkpt lat="40.2742446475212" lon="8.531602879082362"><ele>143.8</ele><time>2026-04-29T13:18:42.167Z</time></trkpt><trkpt lat="40.27420077775545" lon="8.531708849375006"><ele>142.4</ele><time>2026-04-29T13:18:43.167Z</time></trkpt><trkpt lat="40.27415228983715" lon="8.531806465858336"><ele>141.0</ele><time>2026-04-29T13:18:44.167Z</time></trkpt><trkpt lat="40.27409776059818" lon="8.5318949219808"><ele>141.0</ele><time>2026-04-29T13:18:45.167Z</time></trkpt><trkpt lat="40.274015278765404" lon="8.531914378143922"><ele>141.0</ele><time>2026-04-29T13:18:46.167Z</time></trkpt><trkpt lat="40.27392064595434" lon="8.5318967241829"><ele>141.0</ele><time>2026-04-29T13:18:47.167Z</time></trkpt><trkpt lat="40.27385137191813" lon="8.531831620823525"><ele>141.0</ele><time>2026-04-29T13:18:48.167Z</time></trkpt><trkpt lat="40.273816032295166" lon="8.531718555209629"><ele>141.0</ele><time>2026-04-29T13:18:49.167Z</time></trkpt><trkpt lat="40.2738034193532" lon="8.531598891676628"><ele>142.4</ele><time>2026-04-29T13:18:50.167Z</time></trkpt><trkpt lat="40.273831105320156" lon="8.5314889577023"><ele>143.8</ele><time>2026-04-29T13:18:51.167Z</time></trkpt><trkpt lat="40.2738690185156" lon="8.53137294026229"><ele>145.20000000000002</ele><time>2026-04-29T13:18:52.167Z</time></trkpt><trkpt lat="40.273906221032206" lon="8.531253912433478"><ele>146.6</ele><time>2026-04-29T13:18:53.167Z</time></trkpt><trkpt lat="40.27393690612431" lon="8.531129995507515"><ele>148.0</ele><time>2026-04-29T13:18:54.167Z</time></trkpt><trkpt lat="40.273966771945595" lon="8.531006372891362"><ele>148.0</ele><time>2026-04-29T13:18:55.167Z</time></trkpt><trkpt lat="40.273996105270996" lon="8.53087840046412"><ele>148.0</ele><time>2026-04-29T13:18:56.167Z</time></trkpt><trkpt lat="40.27402926895266" lon="8.530746719744236"><ele>148.0</ele><time>2026-04-29T13:18:57.167Z</time></trkpt><trkpt lat="40.274063922524036" lon="8.530616025757976"><ele>148.0</ele><time>2026-04-29T13:18:58.167Z</time></trkpt><trkpt lat="40.27408715554602" lon="8.53049370387284"><ele>148.0</ele><time>2026-04-29T13:18:59.167Z</time></trkpt><trkpt lat="40.27410754120387" lon="8.530382927885649"><ele>148.0</ele><time>2026-04-29T13:19:00.167Z</time></trkpt><trkpt lat="40.274111589380205" lon="8.530279438459099"><ele>148.0</ele><time>2026-04-29T13:19:01.167Z</time></trkpt><trkpt lat="40.27408943919366" lon="8.530177618388429"><ele>148.0</ele><time>2026-04-29T13:19:02.167Z</time></trkpt><trkpt lat="40.27404159752839" lon="8.530083680213727"><ele>148.0</ele><time>2026-04-29T13:19:03.167Z</time></trkpt><trkpt lat="40.27397612340664" lon="8.530011867992544"><ele>148.0</ele><time>2026-04-29T13:19:04.167Z</time></trkpt><trkpt lat="40.27389692365741" lon="8.529951914876317"><ele>148.0</ele><time>2026-04-29T13:19:05.167Z</time></trkpt><trkpt lat="40.27382292539767" lon="8.529895715577979"><ele>150.20000000000002</ele><time>2026-04-29T13:19:06.167Z</time></trkpt><trkpt lat="40.2737407435319" lon="8.529838217136554"><ele>152.4</ele><time>2026-04-29T13:19:07.167Z</time></trkpt><trkpt lat="40.27365825988968" lon="8.52976982045603"><ele>154.60000000000002</ele><time>2026-04-29T13:19:08.167Z</time></trkpt><trkpt lat="40.2735826229843" lon="8.529693614639834"><ele>156.8</ele><time>2026-04-29T13:19:09.167Z</time></trkpt><trkpt lat="40.27352101473197" lon="8.529598946942832"><ele>159.0</ele><time>2026-04-29T13:19:10.168Z</time></trkpt><trkpt lat="40.27348739690086" lon="8.529481209783693"><ele>159.0</ele><time>2026-04-29T13:19:11.168Z</time></trkpt><trkpt lat="40.273492450570735" lon="8.52936249129205"><ele>159.0</ele><time>2026-04-29T13:19:12.168Z</time></trkpt><trkpt lat="40.27352916054294" lon="8.529249016068754"><ele>159.0</ele><time>2026-04-29T13:19:13.168Z</time></trkpt><trkpt lat="40.27357019066104" lon="8.529151717433889"><ele>159.0</ele><time>2026-04-29T13:19:14.167Z</time></trkpt><trkpt lat="40.273592640394135" lon="8.529066625629298"><ele>159.0</ele><time>2026-04-29T13:19:15.167Z</time></trkpt><trkpt lat="40.27359684580025" lon="8.528913070751665"><ele>159.0</ele><time>2026-04-29T13:19:17.168Z</time></trkpt><trkpt lat="40.27357618593866" lon="8.528816318373078"><ele>159.0</ele><time>2026-04-29T13:19:18.168Z</time></trkpt><trkpt lat="40.273548181307234" lon="8.528729024835949"><ele>159.0</ele><time>2026-04-29T13:19:19.168Z</time></trkpt><trkpt lat="40.27350166739075" lon="8.528653644924821"><ele>159.0</ele><time>2026-04-29T13:19:20.168Z</time></trkpt><trkpt lat="40.27345516945146" lon="8.528580661798289"><ele>159.0</ele><time>2026-04-29T13:19:21.168Z</time></trkpt><trkpt lat="40.27340889594583" lon="8.528504690048411"><ele>159.0</ele><time>2026-04-29T13:19:22.168Z</time></trkpt><trkpt lat="40.27334967821365" lon="8.52843394464255"><ele>158.6</ele><time>2026-04-29T13:19:23.168Z</time></trkpt><trkpt lat="40.273280726095265" lon="8.52837780902903"><ele>158.2</ele><time>2026-04-29T13:19:24.168Z</time></trkpt><trkpt lat="40.273194247274134" lon="8.528366002444574"><ele>157.79999999999998</ele><time>2026-04-29T13:19:25.168Z</time></trkpt><trkpt lat="40.27310907506546" lon="8.528397626075364"><ele>157.4</ele><time>2026-04-29T13:19:26.168Z</time></trkpt><trkpt lat="40.27303150816034" lon="8.528470439635976"><ele>157.0</ele><time>2026-04-29T13:19:27.168Z</time></trkpt><trkpt lat="40.27296009449583" lon="8.52856134781563"><ele>157.0</ele><time>2026-04-29T13:19:28.168Z</time></trkpt><trkpt lat="40.27287820584102" lon="8.52864785651546"><ele>157.0</ele><time>2026-04-29T13:19:29.168Z</time></trkpt><trkpt lat="40.27279627550722" lon="8.528732200827914"><ele>157.0</ele><time>2026-04-29T13:19:30.168Z</time></trkpt><trkpt lat="40.27271417405943" lon="8.528815265525743"><ele>157.0</ele><time>2026-04-29T13:19:31.168Z</time></trkpt><trkpt lat="40.27262755094102" lon="8.528901451924954"><ele>157.0</ele><time>2026-04-29T13:19:32.168Z</time></trkpt><trkpt lat="40.27253963726411" lon="8.528990420915228"><ele>159.8</ele><time>2026-04-29T13:19:33.168Z</time></trkpt><trkpt lat="40.27245961887823" lon="8.529077348740332"><ele>162.6</ele><time>2026-04-29T13:19:34.168Z</time></trkpt><trkpt lat="40.27238339290481" lon="8.529152248265081"><ele>165.4</ele><time>2026-04-29T13:19:35.168Z</time></trkpt><trkpt lat="40.27231011109316" lon="8.529224006828889"><ele>168.20000000000002</ele><time>2026-04-29T13:19:36.168Z</time></trkpt><trkpt lat="40.272237019128866" lon="8.529292054190337"><ele>171.0</ele><time>2026-04-29T13:19:37.168Z</time></trkpt><trkpt lat="40.272153815067256" lon="8.529337412262791"><ele>172.4</ele><time>2026-04-29T13:19:38.168Z</time></trkpt><trkpt lat="40.27205886873206" lon="8.529347150931835"><ele>173.8</ele><time>2026-04-29T13:19:39.168Z</time></trkpt><trkpt lat="40.271969019056925" lon="8.529302944831203"><ele>175.20000000000002</ele><time>2026-04-29T13:19:40.168Z</time></trkpt><trkpt lat="40.271898781591176" lon="8.529247377738594"><ele>176.60000000000002</ele><time>2026-04-29T13:19:41.168Z</time></trkpt><trkpt lat="40.2718456350697" lon="8.52915617766273"><ele>178.0</ele><time>2026-04-29T13:19:42.168Z</time></trkpt><trkpt lat="40.27181060637246" lon="8.529043810249483"><ele>178.0</ele><time>2026-04-29T13:19:43.168Z</time></trkpt><trkpt lat="40.27178943751033" lon="8.528935568151327"><ele>178.0</ele><time>2026-04-29T13:19:44.168Z</time></trkpt><trkpt lat="40.27177055203616" lon="8.52884044284275"><ele>178.0</ele><time>2026-04-29T13:19:45.168Z</time></trkpt><trkpt lat="40.271742764039146" lon="8.528743692606048"><ele>178.0</ele><time>2026-04-29T13:19:46.168Z</time></trkpt><trkpt lat="40.27170015779122" lon="8.528654566118549"><ele>178.0</ele><time>2026-04-29T13:19:47.168Z</time></trkpt><trkpt lat="40.271639906398825" lon="8.528588446163985"><ele>178.0</ele><time>2026-04-29T13:19:48.168Z</time></trkpt><trkpt lat="40.271567097701784" lon="8.528531678090367"><ele>179.8</ele><time>2026-04-29T13:19:49.168Z</time></trkpt><trkpt lat="40.27148185093603" lon="8.528493155711558"><ele>181.60000000000002</ele><time>2026-04-29T13:19:50.168Z</time></trkpt><trkpt lat="40.27138868528144" lon="8.528459285892922"><ele>183.39999999999998</ele><time>2026-04-29T13:19:51.168Z</time></trkpt><trkpt lat="40.27129791555714" lon="8.528429626412366"><ele>185.2</ele><time>2026-04-29T13:19:52.168Z</time></trkpt><trkpt lat="40.27120405385368" lon="8.528380261629511"><ele>187.0</ele><time>2026-04-29T13:19:53.168Z</time></trkpt><trkpt lat="40.271119161087164" lon="8.528326709126151"><ele>187.0</ele><time>2026-04-29T13:19:54.168Z</time></trkpt><trkpt lat="40.27105410983429" lon="8.528241999188358"><ele>187.0</ele><time>2026-04-29T13:19:55.168Z</time></trkpt><trkpt lat="40.27099890520456" lon="8.528142666530702"><ele>187.0</ele><time>2026-04-29T13:19:56.168Z</time></trkpt><trkpt lat="40.27093498560918" lon="8.528036812692255"><ele>187.0</ele><time>2026-04-29T13:19:57.168Z</time></trkpt><trkpt lat="40.27087616145497" lon="8.527909588161018"><ele>187.0</ele><time>2026-04-29T13:19:58.168Z</time></trkpt><trkpt lat="40.27081912693024" lon="8.527788304827258"><ele>185.2</ele><time>2026-04-29T13:19:59.168Z</time></trkpt><trkpt lat="40.27076438961866" lon="8.527683281199323"><ele>183.39999999999998</ele><time>2026-04-29T13:20:00.168Z</time></trkpt><trkpt lat="40.2707188402073" lon="8.527587572365762"><ele>181.60000000000002</ele><time>2026-04-29T13:20:01.168Z</time></trkpt><trkpt lat="40.270680109132925" lon="8.527502340009539"><ele>179.8</ele><time>2026-04-29T13:20:02.168Z</time></trkpt><trkpt lat="40.27059079809677" lon="8.527384141312858"><ele>178.0</ele><time>2026-04-29T13:20:04.168Z</time></trkpt><trkpt lat="40.270445073132386" lon="8.527391272207495"><ele>181.5</ele><time>2026-04-29T13:20:06.168Z</time></trkpt><trkpt lat="40.27037792794612" lon="8.527467399169714"><ele>185.0</ele><time>2026-04-29T13:20:07.168Z</time></trkpt><trkpt lat="40.27035042865214" lon="8.527573967474595"><ele>188.5</ele><time>2026-04-29T13:20:08.168Z</time></trkpt><trkpt lat="40.27036475522687" lon="8.527673181415661"><ele>192.0</ele><time>2026-04-29T13:20:09.168Z</time></trkpt><trkpt lat="40.27041732691175" lon="8.527765127300732"><ele>195.49999999999997</ele><time>2026-04-29T13:20:10.168Z</time></trkpt><trkpt lat="40.27050244964526" lon="8.527855701161409"><ele>199.0</ele><time>2026-04-29T13:20:11.168Z</time></trkpt><trkpt lat="40.27059544418823" lon="8.527953336626414"><ele>196.0</ele><time>2026-04-29T13:20:12.168Z</time></trkpt><trkpt lat="40.27067108877105" lon="8.528054230126365"><ele>193.0</ele><time>2026-04-29T13:20:13.168Z</time></trkpt><trkpt lat="40.27074667723963" lon="8.528174184947801"><ele>190.0</ele><time>2026-04-29T13:20:14.168Z</time></trkpt><trkpt lat="40.270823865659395" lon="8.528321608887238"><ele>187.0</ele><time>2026-04-29T13:20:15.168Z</time></trkpt><trkpt lat="40.27089828507967" lon="8.528493040934425"><ele>187.0</ele><time>2026-04-29T13:20:16.168Z</time></trkpt><trkpt lat="40.270972622257105" lon="8.52866799733024"><ele>187.0</ele><time>2026-04-29T13:20:17.168Z</time></trkpt><trkpt lat="40.27104502088774" lon="8.528820768217363"><ele>187.0</ele><time>2026-04-29T13:20:18.168Z</time></trkpt><trkpt lat="40.27111361377417" lon="8.528956185980613"><ele>187.0</ele><time>2026-04-29T13:20:19.168Z</time></trkpt><trkpt lat="40.271168651419295" lon="8.529076048128733"><ele>189.5</ele><time>2026-04-29T13:20:20.168Z</time></trkpt><trkpt lat="40.271218910279174" lon="8.52918517087782"><ele>192.0</ele><time>2026-04-29T13:20:21.168Z</time></trkpt><trkpt lat="40.27126577553081" lon="8.529276200731545"><ele>194.5</ele><time>2026-04-29T13:20:22.168Z</time></trkpt><trkpt lat="40.2713051442086" lon="8.52936178155043"><ele>197.0</ele><time>2026-04-29T13:20:23.168Z</time></trkpt><trkpt lat="40.27134626260682" lon="8.529464620355553"><ele>199.49999999999997</ele><time>2026-04-29T13:20:24.168Z</time></trkpt><trkpt lat="40.27138209391855" lon="8.529590268636943"><ele>202.0</ele><time>2026-04-29T13:20:25.168Z</time></trkpt><trkpt lat="40.27140836592742" lon="8.529737674181538"><ele>205.0</ele><time>2026-04-29T13:20:26.168Z</time></trkpt><trkpt lat="40.27142586809623" lon="8.529901607069721"><ele>208.0</ele><time>2026-04-29T13:20:27.168Z</time></trkpt><trkpt lat="40.27144117658384" lon="8.530064722617306"><ele>211.0</ele><time>2026-04-29T13:20:28.168Z</time></trkpt><trkpt lat="40.271458731746186" lon="8.53022265544681"><ele>214.0</ele><time>2026-04-29T13:20:29.168Z</time></trkpt><trkpt lat="40.27147640303667" lon="8.530374880546448"><ele>212.0</ele><time>2026-04-29T13:20:30.168Z</time></trkpt><trkpt lat="40.27149094607219" lon="8.530503519676294"><ele>209.99999999999997</ele><time>2026-04-29T13:20:31.168Z</time></trkpt><trkpt lat="40.27151364817436" lon="8.530614628210063"><ele>208.0</ele><time>2026-04-29T13:20:32.168Z</time></trkpt><trkpt lat="40.27153589791719" lon="8.530703206839824"><ele>206.0</ele><time>2026-04-29T13:20:33.168Z</time></trkpt><trkpt lat="40.27163163656158" lon="8.530814605005125"><ele>204.0</ele><time>2026-04-29T13:20:35.168Z</time></trkpt><trkpt lat="40.27170448475644" lon="8.530841006666268"><ele>204.0</ele><time>2026-04-29T13:20:36.168Z</time></trkpt><trkpt lat="40.27178757323129" lon="8.53085091775603"><ele>204.0</ele><time>2026-04-29T13:20:37.168Z</time></trkpt><trkpt lat="40.27187144749238" lon="8.530856741726101"><ele>204.0</ele><time>2026-04-29T13:20:38.168Z</time></trkpt><trkpt lat="40.27195922010342" lon="8.530867286884632"><ele>204.0</ele><time>2026-04-29T13:20:39.168Z</time></trkpt><trkpt lat="40.27204338086992" lon="8.530878044020024"><ele>204.0</ele><time>2026-04-29T13:20:40.168Z</time></trkpt><trkpt lat="40.272124065873356" lon="8.530892749092946"><ele>204.0</ele><time>2026-04-29T13:20:41.167Z</time></trkpt><trkpt lat="40.27219744088841" lon="8.53093882979464"><ele>204.0</ele><time>2026-04-29T13:20:42.167Z</time></trkpt><trkpt lat="40.27224869945203" lon="8.531020098543287"><ele>204.0</ele><time>2026-04-29T13:20:43.167Z</time></trkpt><trkpt lat="40.272260644946336" lon="8.531123632908509"><ele>204.0</ele><time>2026-04-29T13:20:44.167Z</time></trkpt><trkpt lat="40.272230730987005" lon="8.531219858071475"><ele>204.0</ele><time>2026-04-29T13:20:45.167Z</time></trkpt><trkpt lat="40.27216928246928" lon="8.531288087287084"><ele>204.0</ele><time>2026-04-29T13:20:46.167Z</time></trkpt><trkpt lat="40.272083339740355" lon="8.531319920139614"><ele>204.0</ele><time>2026-04-29T13:20:47.167Z</time></trkpt><trkpt lat="40.27194503758774" lon="8.531344952255957"><ele>203.66666666666669</ele><time>2026-04-29T13:20:48.167Z</time></trkpt><trkpt lat="40.27175449275531" lon="8.531339014808607"><ele>203.33333333333334</ele><time>2026-04-29T13:20:49.167Z</time></trkpt><trkpt lat="40.27158990127336" lon="8.531317394973948"><ele>203.0</ele><time>2026-04-29T13:20:50.167Z</time></trkpt><trkpt lat="40.27147241537226" lon="8.531234415890868"><ele>211.66666666666669</ele><time>2026-04-29T13:20:51.167Z</time></trkpt><trkpt lat="40.27140282012518" lon="8.531075884723773"><ele>220.33333333333331</ele><time>2026-04-29T13:20:52.167Z</time></trkpt><trkpt lat="40.27133977812486" lon="8.530886294760883"><ele>229.0</ele><time>2026-04-29T13:20:53.167Z</time></trkpt><trkpt lat="40.271260441998756" lon="8.53066881893599"><ele>229.0</ele><time>2026-04-29T13:20:54.167Z</time></trkpt><trkpt lat="40.27117197163473" lon="8.53043874161594"><ele>229.0</ele><time>2026-04-29T13:20:55.167Z</time></trkpt><trkpt lat="40.271081867440664" lon="8.53023215018474"><ele>229.0</ele><time>2026-04-29T13:20:56.167Z</time></trkpt><trkpt lat="40.27096307785438" lon="8.53004421668572"><ele>229.0</ele><time>2026-04-29T13:20:57.167Z</time></trkpt><trkpt lat="40.270809599087904" lon="8.529876233004249"><ele>229.0</ele><time>2026-04-29T13:20:58.167Z</time></trkpt><trkpt lat="40.27066362738206" lon="8.529693649506699"><ele>229.0</ele><time>2026-04-29T13:20:59.167Z</time></trkpt><trkpt lat="40.270530673355964" lon="8.529490322410187"><ele>229.0</ele><time>2026-04-29T13:21:00.167Z</time></trkpt><trkpt lat="40.27038507927172" lon="8.529295489449574"><ele>229.0</ele><time>2026-04-29T13:21:01.167Z</time></trkpt><trkpt lat="40.27023655520017" lon="8.529108681026274"><ele>229.0</ele><time>2026-04-29T13:21:02.167Z</time></trkpt><trkpt lat="40.27008520977512" lon="8.528930837075123"><ele>229.0</ele><time>2026-04-29T13:21:03.167Z</time></trkpt><trkpt lat="40.269930512627404" lon="8.528756707299099"><ele>229.0</ele><time>2026-04-29T13:21:04.167Z</time></trkpt><trkpt lat="40.26976211350735" lon="8.528594430672738"><ele>229.0</ele><time>2026-04-29T13:21:05.167Z</time></trkpt><trkpt lat="40.26958816479595" lon="8.528434496063115"><ele>231.33333333333331</ele><time>2026-04-29T13:21:06.167Z</time></trkpt><trkpt lat="40.26941670379139" lon="8.52828100232778"><ele>233.66666666666669</ele><time>2026-04-29T13:21:07.167Z</time></trkpt><trkpt lat="40.26923860907582" lon="8.528146078771009"><ele>236.0</ele><time>2026-04-29T13:21:08.167Z</time></trkpt><trkpt lat="40.26905421360364" lon="8.528023351768246"><ele>234.33333333333334</ele><time>2026-04-29T13:21:09.167Z</time></trkpt><trkpt lat="40.26886292405972" lon="8.527909387517079"><ele>232.66666666666669</ele><time>2026-04-29T13:21:10.167Z</time></trkpt><trkpt lat="40.26867155465841" lon="8.52779613675777"><ele>231.0</ele><time>2026-04-29T13:21:11.167Z</time></trkpt><trkpt lat="40.26847527836622" lon="8.527695851051156"><ele>231.0</ele><time>2026-04-29T13:21:12.167Z</time></trkpt><trkpt lat="40.268269691490744" lon="8.527604322183333"><ele>231.0</ele><time>2026-04-29T13:21:13.167Z</time></trkpt><trkpt lat="40.26806859833325" lon="8.527514440816297"><ele>231.0</ele><time>2026-04-29T13:21:14.167Z</time></trkpt><trkpt lat="40.26787263100196" lon="8.527425819137164"><ele>235.33333333333331</ele><time>2026-04-29T13:21:15.167Z</time></trkpt><trkpt lat="40.26767705467055" lon="8.527380156441495"><ele>239.66666666666666</ele><time>2026-04-29T13:21:16.169Z</time></trkpt><trkpt lat="40.26747754581717" lon="8.527389226019016"><ele>244.0</ele><time>2026-04-29T13:21:17.168Z</time></trkpt><trkpt lat="40.267285160099625" lon="8.527403689986956"><ele>249.33333333333331</ele><time>2026-04-29T13:21:18.168Z</time></trkpt><trkpt lat="40.26709825179841" lon="8.52740019048931"><ele>254.66666666666669</ele><time>2026-04-29T13:21:19.169Z</time></trkpt><trkpt lat="40.26693747044699" lon="8.527352586881799"><ele>260.0</ele><time>2026-04-29T13:21:20.168Z</time></trkpt><trkpt lat="40.26679576677057" lon="8.527268874751226"><ele>260.0</ele><time>2026-04-29T13:21:21.168Z</time></trkpt><trkpt lat="40.266670785352964" lon="8.527165016626864"><ele>260.0</ele><time>2026-04-29T13:21:22.168Z</time></trkpt><trkpt lat="40.266570862866445" lon="8.52703723341275"><ele>260.0</ele><time>2026-04-29T13:21:23.168Z</time></trkpt><trkpt lat="40.26649636007804" lon="8.52689209677603"><ele>260.0</ele><time>2026-04-29T13:21:24.168Z</time></trkpt><trkpt lat="40.266452950898916" lon="8.526742732110804"><ele>260.2</ele><time>2026-04-29T13:21:25.168Z</time></trkpt><trkpt lat="40.26643950110192" lon="8.526593650959956"><ele>260.4</ele><time>2026-04-29T13:21:26.168Z</time></trkpt><trkpt lat="40.26641042493998" lon="8.526453032305296"><ele>260.6</ele><time>2026-04-29T13:21:27.168Z</time></trkpt><trkpt lat="40.26634567802724" lon="8.526365266631476"><ele>260.8</ele><time>2026-04-29T13:21:28.168Z</time></trkpt><trkpt lat="40.26624417267541" lon="8.52635245272758"><ele>261.0</ele><time>2026-04-29T13:21:29.168Z</time></trkpt><trkpt lat="40.26612850868431" lon="8.526407290236293"><ele>261.0</ele><time>2026-04-29T13:21:30.168Z</time></trkpt><trkpt lat="40.26599728072948" lon="8.526475240766374"><ele>261.0</ele><time>2026-04-29T13:21:31.168Z</time></trkpt><trkpt lat="40.26586274036527" lon="8.526513889815229"><ele>261.0</ele><time>2026-04-29T13:21:32.168Z</time></trkpt><trkpt lat="40.26573768681893" lon="8.5265062591931"><ele>261.0</ele><time>2026-04-29T13:21:33.168Z</time></trkpt><trkpt lat="40.26562124397318" lon="8.526438953712422"><ele>262.25</ele><time>2026-04-29T13:21:34.168Z</time></trkpt><trkpt lat="40.26551089796905" lon="8.526353030845822"><ele>263.5</ele><time>2026-04-29T13:21:35.168Z</time></trkpt><trkpt lat="40.26541246526973" lon="8.526248632299842"><ele>264.75</ele><time>2026-04-29T13:21:36.168Z</time></trkpt><trkpt lat="40.26532523354832" lon="8.526136017669653"><ele>266.0</ele><time>2026-04-29T13:21:37.168Z</time></trkpt><trkpt lat="40.26524587286014" lon="8.526027564063531"><ele>263.8</ele><time>2026-04-29T13:21:38.168Z</time></trkpt><trkpt lat="40.26516827224331" lon="8.525934114569365"><ele>261.6</ele><time>2026-04-29T13:21:39.168Z</time></trkpt><trkpt lat="40.265097402261645" lon="8.525839912662128"><ele>259.4</ele><time>2026-04-29T13:21:40.168Z</time></trkpt><trkpt lat="40.26502900205027" lon="8.525755329368582"><ele>257.2</ele><time>2026-04-29T13:21:41.168Z</time></trkpt><trkpt lat="40.264966386409505" lon="8.525675927133763"><ele>255.0</ele><time>2026-04-29T13:21:42.168Z</time></trkpt><trkpt lat="40.264898343241406" lon="8.525621223769036"><ele>255.0</ele><time>2026-04-29T13:21:43.168Z</time></trkpt><trkpt lat="40.26481664034938" lon="8.52560404879756"><ele>255.0</ele><time>2026-04-29T13:21:44.168Z</time></trkpt><trkpt lat="40.26473542107763" lon="8.525625707819772"><ele>255.0</ele><time>2026-04-29T13:21:45.168Z</time></trkpt><trkpt lat="40.264656209861734" lon="8.525664581757304"><ele>255.0</ele><time>2026-04-29T13:21:46.168Z</time></trkpt><trkpt lat="40.26457655525617" lon="8.525686540094014"><ele>255.0</ele><time>2026-04-29T13:21:47.168Z</time></trkpt><trkpt lat="40.26448456855105" lon="8.525670985666826"><ele>255.0</ele><time>2026-04-29T13:21:48.168Z</time></trkpt><trkpt lat="40.2644086475473" lon="8.525634408176085"><ele>255.0</ele><time>2026-04-29T13:21:49.168Z</time></trkpt><trkpt lat="40.26435096275011" lon="8.525584247585426"><ele>255.0</ele><time>2026-04-29T13:21:50.168Z</time></trkpt><trkpt lat="40.26427316454004" lon="8.525514548288028"><ele>255.0</ele><time>2026-04-29T13:21:52.168Z</time></trkpt><trkpt lat="40.26419133544995" lon="8.525483753508382"><ele>255.0</ele><time>2026-04-29T13:21:56.168Z</time></trkpt><trkpt lat="40.2640895067086" lon="8.525569141756922"><ele>255.0</ele><time>2026-04-29T13:21:58.168Z</time></trkpt><trkpt lat="40.26404118970094" lon="8.5256410351986"><ele>255.0</ele><time>2026-04-29T13:21:59.168Z</time></trkpt><trkpt lat="40.263987566559315" lon="8.52571954093713"><ele>254.16666666666666</ele><time>2026-04-29T13:22:00.168Z</time></trkpt><trkpt lat="40.2639352781479" lon="8.525797790933586"><ele>253.33333333333331</ele><time>2026-04-29T13:22:01.168Z</time></trkpt><trkpt lat="40.26387555553324" lon="8.525874818955211"><ele>252.5</ele><time>2026-04-29T13:22:02.168Z</time></trkpt><trkpt lat="40.263817504360716" lon="8.52595763333302"><ele>251.66666666666666</ele><time>2026-04-29T13:22:03.168Z</time></trkpt><trkpt lat="40.26376777963338" lon="8.52602901659643"><ele>250.83333333333331</ele><time>2026-04-29T13:22:04.168Z</time></trkpt><trkpt lat="40.26371656643707" lon="8.526084192393663"><ele>250.0</ele><time>2026-04-29T13:22:05.168Z</time></trkpt><trkpt lat="40.263631561809035" lon="8.526172445643246"><ele>251.2</ele><time>2026-04-29T13:22:07.168Z</time></trkpt><trkpt lat="40.26351672703408" lon="8.526248487978263"><ele>252.4</ele><time>2026-04-29T13:22:09.168Z</time></trkpt><trkpt lat="40.26342147205279" lon="8.526299699532807"><ele>253.60000000000002</ele><time>2026-04-29T13:22:11.168Z</time></trkpt><trkpt lat="40.26333344807156" lon="8.526348045921502"><ele>254.8</ele><time>2026-04-29T13:22:13.168Z</time></trkpt><trkpt lat="40.26327410395599" lon="8.526377278977446"><ele>256.0</ele><time>2026-04-29T13:22:14.168Z</time></trkpt><trkpt lat="40.263208824748396" lon="8.526396677418104"><ele>255.99999999999997</ele><time>2026-04-29T13:22:15.168Z</time></trkpt><trkpt lat="40.26313821734438" lon="8.526413418926708"><ele>256.0</ele><time>2026-04-29T13:22:16.168Z</time></trkpt><trkpt lat="40.26306246894867" lon="8.526432392749376"><ele>256.0</ele><time>2026-04-29T13:22:17.168Z</time></trkpt><trkpt lat="40.26298184510385" lon="8.526440888033724"><ele>256.0</ele><time>2026-04-29T13:22:18.168Z</time></trkpt><trkpt lat="40.26290312426746" lon="8.526458576279287"><ele>255.99999999999997</ele><time>2026-04-29T13:22:19.168Z</time></trkpt><trkpt lat="40.262827998585934" lon="8.526475275098825"><ele>256.0</ele><time>2026-04-29T13:22:20.168Z</time></trkpt><trkpt lat="40.26275996063582" lon="8.526483135565215"><ele>255.8</ele><time>2026-04-29T13:22:21.168Z</time></trkpt><trkpt lat="40.26264804443272" lon="8.526500294251365"><ele>255.60000000000002</ele><time>2026-04-29T13:22:23.168Z</time></trkpt><trkpt lat="40.262526119983036" lon="8.526542459220764"><ele>255.4</ele><time>2026-04-29T13:22:25.168Z</time></trkpt><trkpt lat="40.2624533582576" lon="8.526538304109266"><ele>255.2</ele><time>2026-04-29T13:22:26.168Z</time></trkpt><trkpt lat="40.26237485015901" lon="8.52651312064319"><ele>255.0</ele><time>2026-04-29T13:22:27.168Z</time></trkpt><trkpt lat="40.26229166689239" lon="8.526493003728472"><ele>256.0</ele><time>2026-04-29T13:22:28.168Z</time></trkpt><trkpt lat="40.26220678384375" lon="8.526462580660544"><ele>257.0</ele><time>2026-04-29T13:22:29.168Z</time></trkpt><trkpt lat="40.26211674443277" lon="8.526436188874353"><ele>258.0</ele><time>2026-04-29T13:22:30.168Z</time></trkpt><trkpt lat="40.2620224441414" lon="8.526404912799881"><ele>259.0</ele><time>2026-04-29T13:22:31.168Z</time></trkpt><trkpt lat="40.26192307144174" lon="8.526373998429213"><ele>260.0</ele><time>2026-04-29T13:22:32.168Z</time></trkpt><trkpt lat="40.261821565254465" lon="8.526342464920848"><ele>260.0</ele><time>2026-04-29T13:22:33.168Z</time></trkpt><trkpt lat="40.26172153744259" lon="8.52630883915372"><ele>260.0</ele><time>2026-04-29T13:22:34.168Z</time></trkpt><trkpt lat="40.2616265220134" lon="8.526275330240084"><ele>260.0</ele><time>2026-04-29T13:22:35.168Z</time></trkpt><trkpt lat="40.26154095519289" lon="8.526245189179104"><ele>260.0</ele><time>2026-04-29T13:22:36.168Z</time></trkpt><trkpt lat="40.261462679453466" lon="8.526220253462382"><ele>260.0</ele><time>2026-04-29T13:22:37.168Z</time></trkpt><trkpt lat="40.26138254178115" lon="8.526194481752894"><ele>259.4</ele><time>2026-04-29T13:22:38.168Z</time></trkpt><trkpt lat="40.26130366254689" lon="8.526161478530096"><ele>258.8</ele><time>2026-04-29T13:22:39.168Z</time></trkpt><trkpt lat="40.26122246348331" lon="8.526129616187793"><ele>258.2</ele><time>2026-04-29T13:22:40.168Z</time></trkpt><trkpt lat="40.26113452475804" lon="8.52610571031299"><ele>257.6</ele><time>2026-04-29T13:22:41.168Z</time></trkpt><trkpt lat="40.261041388757654" lon="8.52607679850036"><ele>257.0</ele><time>2026-04-29T13:22:42.168Z</time></trkpt><trkpt lat="40.26094050131396" lon="8.52603827747741"><ele>257.0</ele><time>2026-04-29T13:22:43.168Z</time></trkpt><trkpt lat="40.260832366828176" lon="8.525999907753137"><ele>257.0</ele><time>2026-04-29T13:22:44.168Z</time></trkpt><trkpt lat="40.260717849986015" lon="8.525956430701074"><ele>257.0</ele><time>2026-04-29T13:22:45.168Z</time></trkpt><trkpt lat="40.260600516004" lon="8.525909029159644"><ele>257.0</ele><time>2026-04-29T13:22:46.168Z</time></trkpt><trkpt lat="40.26048372260983" lon="8.525862751825542"><ele>258.25</ele><time>2026-04-29T13:22:47.168Z</time></trkpt><trkpt lat="40.26036392135418" lon="8.525815672621151"><ele>259.5</ele><time>2026-04-29T13:22:48.168Z</time></trkpt><trkpt lat="40.2602453179695" lon="8.525771819469602"><ele>260.75</ele><time>2026-04-29T13:22:49.168Z</time></trkpt><trkpt lat="40.26012592536639" lon="8.52572721401184"><ele>262.0</ele><time>2026-04-29T13:22:50.168Z</time></trkpt><trkpt lat="40.26001086798103" lon="8.525683242194129"><ele>262.0</ele><time>2026-04-29T13:22:51.168Z</time></trkpt><trkpt lat="40.25990210241317" lon="8.525646702207347"><ele>262.0</ele><time>2026-04-29T13:22:52.168Z</time></trkpt><trkpt lat="40.259804901368284" lon="8.525609159870447"><ele>262.0</ele><time>2026-04-29T13:22:53.168Z</time></trkpt><trkpt lat="40.25971906948575" lon="8.525566346334262"><ele>262.0</ele><time>2026-04-29T13:22:54.168Z</time></trkpt><trkpt lat="40.25964907752121" lon="8.525529377563467"><ele>262.0</ele><time>2026-04-29T13:22:55.168Z</time></trkpt><trkpt lat="40.25955467696284" lon="8.525492928073891"><ele>262.2</ele><time>2026-04-29T13:22:57.168Z</time></trkpt><trkpt lat="40.25944724777105" lon="8.525464088501812"><ele>262.4</ele><time>2026-04-29T13:22:59.168Z</time></trkpt><trkpt lat="40.259361547062696" lon="8.525430061662526"><ele>262.6</ele><time>2026-04-29T13:23:00.168Z</time></trkpt><trkpt lat="40.25925336397563" lon="8.525387489131532"><ele>262.8</ele><time>2026-04-29T13:23:01.168Z</time></trkpt><trkpt lat="40.259137103979974" lon="8.525346959816275"><ele>263.0</ele><time>2026-04-29T13:23:02.168Z</time></trkpt><trkpt lat="40.25902130929521" lon="8.525305537477282"><ele>262.75</ele><time>2026-04-29T13:23:03.168Z</time></trkpt><trkpt lat="40.258899704076306" lon="8.52525926097295"><ele>262.5</ele><time>2026-04-29T13:23:04.168Z</time></trkpt><trkpt lat="40.25876982360116" lon="8.525211603437542"><ele>262.25</ele><time>2026-04-29T13:23:05.168Z</time></trkpt><trkpt lat="40.25862752442371" lon="8.52515884496815"><ele>262.0</ele><time>2026-04-29T13:23:06.168Z</time></trkpt><trkpt lat="40.25847403644748" lon="8.525104578786545"><ele>262.0</ele><time>2026-04-29T13:23:07.168Z</time></trkpt><trkpt lat="40.258318345570295" lon="8.525057008255823"><ele>262.0</ele><time>2026-04-29T13:23:08.168Z</time></trkpt><trkpt lat="40.25817250322442" lon="8.525007882692861"><ele>262.0</ele><time>2026-04-29T13:23:09.168Z</time></trkpt><trkpt lat="40.258017056405365" lon="8.524951641056926"><ele>263.0</ele><time>2026-04-29T13:23:10.168Z</time></trkpt><trkpt lat="40.257859434584454" lon="8.524895844092137"><ele>264.0</ele><time>2026-04-29T13:23:11.168Z</time></trkpt><trkpt lat="40.25770217896268" lon="8.524837594218365"><ele>265.0</ele><time>2026-04-29T13:23:12.168Z</time></trkpt><trkpt lat="40.25754646966173" lon="8.524775170375912"><ele>265.0</ele><time>2026-04-29T13:23:13.168Z</time></trkpt><trkpt lat="40.25740277292765" lon="8.524711271184994"><ele>265.0</ele><time>2026-04-29T13:23:14.168Z</time></trkpt><trkpt lat="40.2572742820585" lon="8.52463674860842"><ele>265.0</ele><time>2026-04-29T13:23:15.168Z</time></trkpt><trkpt lat="40.257153459208304" lon="8.52454806079879"><ele>265.0</ele><time>2026-04-29T13:23:16.168Z</time></trkpt><trkpt lat="40.257041791006586" lon="8.524445961220783"><ele>265.0</ele><time>2026-04-29T13:23:17.168Z</time></trkpt><trkpt lat="40.2569550426345" lon="8.524335478036873"><ele>265.0</ele><time>2026-04-29T13:23:18.168Z</time></trkpt><trkpt lat="40.25686926304838" lon="8.524207376990097"><ele>265.0</ele><time>2026-04-29T13:23:19.168Z</time></trkpt><trkpt lat="40.256795588155896" lon="8.524089099053642"><ele>265.0</ele><time>2026-04-29T13:23:20.168Z</time></trkpt><trkpt lat="40.256733596250825" lon="8.523971263484949"><ele>265.0</ele><time>2026-04-29T13:23:21.168Z</time></trkpt><trkpt lat="40.2566773263316" lon="8.523859423531718"><ele>265.0</ele><time>2026-04-29T13:23:22.169Z</time></trkpt><trkpt lat="40.25662053093905" lon="8.523753163415064"><ele>265.0</ele><time>2026-04-29T13:23:23.168Z</time></trkpt><trkpt lat="40.25655708892651" lon="8.523651615945335"><ele>265.0</ele><time>2026-04-29T13:23:24.168Z</time></trkpt><trkpt lat="40.256498462481886" lon="8.523550383966233"><ele>265.0</ele><time>2026-04-29T13:23:25.168Z</time></trkpt><trkpt lat="40.25643839531466" lon="8.52344803011063"><ele>265.2</ele><time>2026-04-29T13:23:26.168Z</time></trkpt><trkpt lat="40.25637766372805" lon="8.523339378587321"><ele>265.4</ele><time>2026-04-29T13:23:27.168Z</time></trkpt><trkpt lat="40.256317765945646" lon="8.523244118138026"><ele>265.6</ele><time>2026-04-29T13:23:28.168Z</time></trkpt><trkpt lat="40.256249512912326" lon="8.523141871675156"><ele>265.8</ele><time>2026-04-29T13:23:29.169Z</time></trkpt><trkpt lat="40.25618586252894" lon="8.523030412386012"><ele>266.0</ele><time>2026-04-29T13:23:30.169Z</time></trkpt><trkpt lat="40.25611677789634" lon="8.522930385279512"><ele>266.0</ele><time>2026-04-29T13:23:31.169Z</time></trkpt><trkpt lat="40.256045572683796" lon="8.522832899399251"><ele>266.0</ele><time>2026-04-29T13:23:32.168Z</time></trkpt><trkpt lat="40.25597167754105" lon="8.522749325516543"><ele>266.0</ele><time>2026-04-29T13:23:33.168Z</time></trkpt><trkpt lat="40.25589062131569" lon="8.522673514933976"><ele>266.0</ele><time>2026-04-29T13:23:34.169Z</time></trkpt><trkpt lat="40.255811831442266" lon="8.52260163614377"><ele>266.0</ele><time>2026-04-29T13:23:35.169Z</time></trkpt><trkpt lat="40.25572976384629" lon="8.522536868409281"><ele>266.0</ele><time>2026-04-29T13:23:36.169Z</time></trkpt><trkpt lat="40.25564695764081" lon="8.522474571518138"><ele>266.0</ele><time>2026-04-29T13:23:37.169Z</time></trkpt><trkpt lat="40.25556781648194" lon="8.522410606073182"><ele>266.0</ele><time>2026-04-29T13:23:38.169Z</time></trkpt><trkpt lat="40.255479196172786" lon="8.522348512864442"><ele>266.0</ele><time>2026-04-29T13:23:39.169Z</time></trkpt><trkpt lat="40.255391632390904" lon="8.52228666928655"><ele>266.0</ele><time>2026-04-29T13:23:40.169Z</time></trkpt><trkpt lat="40.255297329428025" lon="8.522229842284657"><ele>266.40000000000003</ele><time>2026-04-29T13:23:41.169Z</time></trkpt><trkpt lat="40.255194765575574" lon="8.522183683095351"><ele>266.8</ele><time>2026-04-29T13:23:42.169Z</time></trkpt><trkpt lat="40.25508920183403" lon="8.522151519997555"><ele>267.20000000000005</ele><time>2026-04-29T13:23:43.169Z</time></trkpt><trkpt lat="40.25497711976821" lon="8.52214897729193"><ele>267.6</ele><time>2026-04-29T13:23:44.169Z</time></trkpt><trkpt lat="40.25486652504643" lon="8.522144900602845"><ele>268.0</ele><time>2026-04-29T13:23:45.169Z</time></trkpt><trkpt lat="40.25476034990331" lon="8.52215623306314"><ele>268.0</ele><time>2026-04-29T13:23:46.169Z</time></trkpt><trkpt lat="40.25465542041138" lon="8.522174454034838"><ele>268.0</ele><time>2026-04-29T13:23:47.169Z</time></trkpt><trkpt lat="40.25454764283849" lon="8.522185181182364"><ele>268.0</ele><time>2026-04-29T13:23:48.169Z</time></trkpt><trkpt lat="40.25443955738013" lon="8.52219012237082"><ele>268.0</ele><time>2026-04-29T13:23:49.169Z</time></trkpt><trkpt lat="40.254331085403535" lon="8.522188787800749"><ele>268.0</ele><time>2026-04-29T13:23:50.169Z</time></trkpt><trkpt lat="40.2542252931737" lon="8.522189714016893"><ele>268.0</ele><time>2026-04-29T13:23:51.169Z</time></trkpt><trkpt lat="40.254123283534376" lon="8.522195757457613"><ele>268.0</ele><time>2026-04-29T13:23:52.169Z</time></trkpt><trkpt lat="40.254002963691455" lon="8.522175977133278"><ele>268.0</ele><time>2026-04-29T13:23:53.169Z</time></trkpt><trkpt lat="40.253882504268816" lon="8.52216406832831"><ele>268.0</ele><time>2026-04-29T13:23:54.169Z</time></trkpt><trkpt lat="40.253770771825224" lon="8.522143370590795"><ele>267.5</ele><time>2026-04-29T13:23:55.169Z</time></trkpt><trkpt lat="40.25365423313002" lon="8.522106208044747"><ele>267.0</ele><time>2026-04-29T13:23:56.169Z</time></trkpt><trkpt lat="40.25353808842275" lon="8.522063012907658"><ele>266.5</ele><time>2026-04-29T13:23:57.169Z</time></trkpt><trkpt lat="40.253419691769906" lon="8.522022015122824"><ele>266.0</ele><time>2026-04-29T13:23:58.169Z</time></trkpt><trkpt lat="40.25330461600368" lon="8.521975454955674"><ele>266.0</ele><time>2026-04-29T13:23:59.169Z</time></trkpt><trkpt lat="40.25319776088301" lon="8.521923000819925"><ele>266.0</ele><time>2026-04-29T13:24:00.169Z</time></trkpt><trkpt lat="40.25309940656008" lon="8.521861101354649"><ele>266.0</ele><time>2026-04-29T13:24:01.169Z</time></trkpt><trkpt lat="40.25300719995787" lon="8.521808583686726"><ele>266.0</ele><time>2026-04-29T13:24:02.169Z</time></trkpt><trkpt lat="40.25292254706123" lon="8.52174939780727"><ele>266.0</ele><time>2026-04-29T13:24:03.169Z</time></trkpt><trkpt lat="40.25284132740182" lon="8.52169171803423"><ele>265.1666666666667</ele><time>2026-04-29T13:24:04.169Z</time></trkpt><trkpt lat="40.25276622398839" lon="8.521626902935338"><ele>264.33333333333337</ele><time>2026-04-29T13:24:05.169Z</time></trkpt><trkpt lat="40.25268921865219" lon="8.521561730101174"><ele>263.5</ele><time>2026-04-29T13:24:06.169Z</time></trkpt><trkpt lat="40.252611810564765" lon="8.52150242685188"><ele>262.6666666666667</ele><time>2026-04-29T13:24:07.169Z</time></trkpt><trkpt lat="40.25254627097789" lon="8.521444066250218"><ele>261.8333333333333</ele><time>2026-04-29T13:24:08.169Z</time></trkpt><trkpt lat="40.25248011655248" lon="8.521371335282394"><ele>261.0</ele><time>2026-04-29T13:24:09.169Z</time></trkpt><trkpt lat="40.252421468171" lon="8.521280173002832"><ele>261.2</ele><time>2026-04-29T13:24:10.169Z</time></trkpt><trkpt lat="40.252359681468874" lon="8.521173930583728"><ele>261.40000000000003</ele><time>2026-04-29T13:24:11.169Z</time></trkpt><trkpt lat="40.25229714497192" lon="8.521070525136528"><ele>261.6</ele><time>2026-04-29T13:24:12.169Z</time></trkpt><trkpt lat="40.252217633052574" lon="8.520958097954955"><ele>261.8</ele><time>2026-04-29T13:24:13.169Z</time></trkpt><trkpt lat="40.252144854368964" lon="8.520837944319542"><ele>262.0</ele><time>2026-04-29T13:24:14.169Z</time></trkpt><trkpt lat="40.25206970692259" lon="8.520742067085408"><ele>261.66666666666663</ele><time>2026-04-29T13:24:15.169Z</time></trkpt><trkpt lat="40.2520065227411" lon="8.52066411634618"><ele>261.3333333333333</ele><time>2026-04-29T13:24:16.169Z</time></trkpt><trkpt lat="40.251954922700676" lon="8.520586247710039"><ele>261.0</ele><time>2026-04-29T13:24:17.169Z</time></trkpt><trkpt lat="40.2519065344362" lon="8.520501413808246"><ele>260.6666666666667</ele><time>2026-04-29T13:24:18.169Z</time></trkpt><trkpt lat="40.25185396544096" lon="8.520419313621982"><ele>260.33333333333337</ele><time>2026-04-29T13:24:19.169Z</time></trkpt><trkpt lat="40.25180153402351" lon="8.520337225765083"><ele>260.0</ele><time>2026-04-29T13:24:20.169Z</time></trkpt><trkpt lat="40.2517513626169" lon="8.520268573088304"><ele>260.0</ele><time>2026-04-29T13:24:21.169Z</time></trkpt><trkpt lat="40.25169630322783" lon="8.520188525589173"><ele>260.0</ele><time>2026-04-29T13:24:22.169Z</time></trkpt><trkpt lat="40.251642179595805" lon="8.520106684947024"><ele>260.0</ele><time>2026-04-29T13:24:23.169Z</time></trkpt><trkpt lat="40.25159095651609" lon="8.520021599853619"><ele>260.0</ele><time>2026-04-29T13:24:24.169Z</time></trkpt><trkpt lat="40.2515464235212" lon="8.51995102449335"><ele>260.0</ele><time>2026-04-29T13:24:25.169Z</time></trkpt><trkpt lat="40.251494993791646" lon="8.519866494921402"><ele>260.0</ele><time>2026-04-29T13:24:26.169Z</time></trkpt><trkpt lat="40.25142571431608" lon="8.519807740377525"><ele>259.6666666666667</ele><time>2026-04-29T13:24:27.169Z</time></trkpt><trkpt lat="40.25135376847963" lon="8.519752528567597"><ele>259.33333333333337</ele><time>2026-04-29T13:24:28.169Z</time></trkpt><trkpt lat="40.25126753684474" lon="8.519746141053181"><ele>259.0</ele><time>2026-04-29T13:24:29.169Z</time></trkpt><trkpt lat="40.25119564524564" lon="8.519750708857934"><ele>258.6666666666667</ele><time>2026-04-29T13:24:30.169Z</time></trkpt><trkpt lat="40.25112966595551" lon="8.51980543376593"><ele>258.3333333333333</ele><time>2026-04-29T13:24:31.169Z</time></trkpt><trkpt lat="40.25105726040793" lon="8.519871463445629"><ele>258.0</ele><time>2026-04-29T13:24:32.169Z</time></trkpt><trkpt lat="40.250987318282476" lon="8.51994848749743"><ele>258.0</ele><time>2026-04-29T13:24:33.169Z</time></trkpt><trkpt lat="40.25090548264834" lon="8.520038196848654"><ele>258.0</ele><time>2026-04-29T13:24:34.169Z</time></trkpt><trkpt lat="40.25083054524023" lon="8.520130460778372"><ele>258.0</ele><time>2026-04-29T13:24:35.169Z</time></trkpt><trkpt lat="40.250741952337705" lon="8.520190827615282"><ele>258.0</ele><time>2026-04-29T13:24:36.169Z</time></trkpt><trkpt lat="40.25065327164273" lon="8.520254675786221"><ele>258.0</ele><time>2026-04-29T13:24:37.169Z</time></trkpt><trkpt lat="40.25055866426021" lon="8.520307995863286"><ele>258.3333333333333</ele><time>2026-04-29T13:24:38.169Z</time></trkpt><trkpt lat="40.250485191009695" lon="8.5203469770618"><ele>258.6666666666667</ele><time>2026-04-29T13:24:39.169Z</time></trkpt><trkpt lat="40.2504128154396" lon="8.5203766826355"><ele>259.0</ele><time>2026-04-29T13:24:40.169Z</time></trkpt><trkpt lat="40.25032388999782" lon="8.52039634002088"><ele>259.33333333333337</ele><time>2026-04-29T13:24:42.169Z</time></trkpt><trkpt lat="40.25026223009698" lon="8.52042508892556"><ele>259.6666666666667</ele><time>2026-04-29T13:24:43.169Z</time></trkpt><trkpt lat="40.25019052815467" lon="8.520452734150926"><ele>260.0</ele><time>2026-04-29T13:24:44.169Z</time></trkpt><trkpt lat="40.2501226174455" lon="8.520487368915752"><ele>259.5</ele><time>2026-04-29T13:24:45.169Z</time></trkpt><trkpt lat="40.250056668505685" lon="8.52054220594942"><ele>259.0</ele><time>2026-04-29T13:24:46.169Z</time></trkpt><trkpt lat="40.24998081334403" lon="8.520588249019138"><ele>258.5</ele><time>2026-04-29T13:24:47.169Z</time></trkpt><trkpt lat="40.24991257196447" lon="8.520623629526574"><ele>258.0</ele><time>2026-04-29T13:24:48.169Z</time></trkpt><trkpt lat="40.24982489750866" lon="8.52065079328524"><ele>257.5</ele><time>2026-04-29T13:24:49.169Z</time></trkpt><trkpt lat="40.24974860143889" lon="8.520691448059294"><ele>257.0</ele><time>2026-04-29T13:24:50.169Z</time></trkpt><trkpt lat="40.2496704484712" lon="8.520745248409025"><ele>257.0</ele><time>2026-04-29T13:24:51.169Z</time></trkpt><trkpt lat="40.249596883049094" lon="8.52079358138848"><ele>257.0</ele><time>2026-04-29T13:24:52.169Z</time></trkpt><trkpt lat="40.24952964239384" lon="8.520865351959626"><ele>257.0</ele><time>2026-04-29T13:24:53.169Z</time></trkpt><trkpt lat="40.24945488341269" lon="8.52093413696327"><ele>257.0</ele><time>2026-04-29T13:24:54.169Z</time></trkpt><trkpt lat="40.24938233215991" lon="8.520992903231152"><ele>257.0</ele><time>2026-04-29T13:24:55.169Z</time></trkpt><trkpt lat="40.24931569510047" lon="8.521051348588548"><ele>257.0</ele><time>2026-04-29T13:24:56.169Z</time></trkpt><trkpt lat="40.249250341510326" lon="8.521111467160802"><ele>257.0</ele><time>2026-04-29T13:24:57.169Z</time></trkpt><trkpt lat="40.249180335169484" lon="8.521175839014582"><ele>257.0</ele><time>2026-04-29T13:24:58.169Z</time></trkpt><trkpt lat="40.2491021826993" lon="8.521233413949325"><ele>257.0</ele><time>2026-04-29T13:24:59.169Z</time></trkpt><trkpt lat="40.2490076910498" lon="8.521296794984858"><ele>257.0</ele><time>2026-04-29T13:25:00.169Z</time></trkpt><trkpt lat="40.24889193596318" lon="8.52136070300313"><ele>257.0</ele><time>2026-04-29T13:25:01.169Z</time></trkpt><trkpt lat="40.24877422251277" lon="8.521408490829948"><ele>256.0</ele><time>2026-04-29T13:25:02.169Z</time></trkpt><trkpt lat="40.24864778817308" lon="8.52146178332173"><ele>255.0</ele><time>2026-04-29T13:25:03.169Z</time></trkpt><trkpt lat="40.24850727246228" lon="8.521518133365664"><ele>254.0</ele><time>2026-04-29T13:25:04.169Z</time></trkpt><trkpt lat="40.24835596975119" lon="8.521580445643627"><ele>253.0</ele><time>2026-04-29T13:25:05.169Z</time></trkpt><trkpt lat="40.24819876768068" lon="8.521643713520204"><ele>254.33333333333331</ele><time>2026-04-29T13:25:06.169Z</time></trkpt><trkpt lat="40.24803101056013" lon="8.521714813216631"><ele>255.66666666666669</ele><time>2026-04-29T13:25:07.169Z</time></trkpt><trkpt lat="40.24785990854565" lon="8.521788366666707"><ele>257.0</ele><time>2026-04-29T13:25:08.169Z</time></trkpt><trkpt lat="40.24768346406769" lon="8.521857038599649"><ele>257.0</ele><time>2026-04-29T13:25:09.169Z</time></trkpt><trkpt lat="40.24749436246174" lon="8.521937044552287"><ele>257.0</ele><time>2026-04-29T13:25:10.169Z</time></trkpt><trkpt lat="40.247306377565124" lon="8.522015400412819"><ele>257.0</ele><time>2026-04-29T13:25:11.169Z</time></trkpt><trkpt lat="40.24711166180794" lon="8.52209520060478"><ele>254.66666666666669</ele><time>2026-04-29T13:25:12.169Z</time></trkpt><trkpt lat="40.246922582214516" lon="8.522165056848895"><ele>252.33333333333331</ele><time>2026-04-29T13:25:13.169Z</time></trkpt><trkpt lat="40.24674778695225" lon="8.52223102989153"><ele>250.0</ele><time>2026-04-29T13:25:14.169Z</time></trkpt><trkpt lat="40.246588250166134" lon="8.522297935225371"><ele>250.5</ele><time>2026-04-29T13:25:15.169Z</time></trkpt><trkpt lat="40.246439471222956" lon="8.52236160596844"><ele>251.0</ele><time>2026-04-29T13:25:16.169Z</time></trkpt><trkpt lat="40.24629461985958" lon="8.52242001254494"><ele>251.5</ele><time>2026-04-29T13:25:17.169Z</time></trkpt><trkpt lat="40.2461597810554" lon="8.522465105383217"><ele>252.0</ele><time>2026-04-29T13:25:18.169Z</time></trkpt><trkpt lat="40.24603536573782" lon="8.522497907873108"><ele>252.0</ele><time>2026-04-29T13:25:19.169Z</time></trkpt><trkpt lat="40.24591605095238" lon="8.522524131186275"><ele>252.0</ele><time>2026-04-29T13:25:20.169Z</time></trkpt><trkpt lat="40.245794780005035" lon="8.522543901305626"><ele>252.0</ele><time>2026-04-29T13:25:21.169Z</time></trkpt><trkpt lat="40.24566672327727" lon="8.522562237751826"><ele>252.0</ele><time>2026-04-29T13:25:22.169Z</time></trkpt><trkpt lat="40.2455397239362" lon="8.522582804259928"><ele>253.5</ele><time>2026-04-29T13:25:23.169Z</time></trkpt><trkpt lat="40.245412698908126" lon="8.522613911416302"><ele>255.0</ele><time>2026-04-29T13:25:24.169Z</time></trkpt><trkpt lat="40.24528087901879" lon="8.522662950190188"><ele>256.5</ele><time>2026-04-29T13:25:25.169Z</time></trkpt><trkpt lat="40.24515893179862" lon="8.522748417675087"><ele>258.0</ele><time>2026-04-29T13:25:26.169Z</time></trkpt><trkpt lat="40.245052076333664" lon="8.522860067009765"><ele>259.25</ele><time>2026-04-29T13:25:27.169Z</time></trkpt><trkpt lat="40.244958821857566" lon="8.52299259466302"><ele>260.5</ele><time>2026-04-29T13:25:28.17Z</time></trkpt><trkpt lat="40.244883284971486" lon="8.523130641866997"><ele>261.75</ele><time>2026-04-29T13:25:29.169Z</time></trkpt><trkpt lat="40.24481511118312" lon="8.523269517218832"><ele>263.0</ele><time>2026-04-29T13:25:30.169Z</time></trkpt><trkpt lat="40.24474938739901" lon="8.523413023628065"><ele>263.0</ele><time>2026-04-29T13:25:31.169Z</time></trkpt><trkpt lat="40.244690568988" lon="8.523566426166322"><ele>263.0</ele><time>2026-04-29T13:25:32.169Z</time></trkpt><trkpt lat="40.24465146079967" lon="8.523758183224022"><ele>263.0</ele><time>2026-04-29T13:25:33.169Z</time></trkpt><trkpt lat="40.244620904826334" lon="8.523986804095806"><ele>261.6666666666667</ele><time>2026-04-29T13:25:34.17Z</time></trkpt><trkpt lat="40.244588698278214" lon="8.52423906713341"><ele>260.3333333333333</ele><time>2026-04-29T13:25:35.169Z</time></trkpt><trkpt lat="40.2445551935795" lon="8.524504536200105"><ele>259.0</ele><time>2026-04-29T13:25:36.169Z</time></trkpt><trkpt lat="40.244526201521595" lon="8.524779895842396"><ele>258.0</ele><time>2026-04-29T13:25:37.169Z</time></trkpt><trkpt lat="40.244466089978076" lon="8.525049869254547"><ele>257.0</ele><time>2026-04-29T13:25:38.168Z</time></trkpt><trkpt lat="40.24437524528121" lon="8.525299721311622"><ele>256.0</ele><time>2026-04-29T13:25:39.168Z</time></trkpt><trkpt lat="40.244281050214795" lon="8.525527119190414"><ele>254.25</ele><time>2026-04-29T13:25:40.169Z</time></trkpt><trkpt lat="40.244184821110835" lon="8.525707840030996"><ele>252.5</ele><time>2026-04-29T13:25:41.169Z</time></trkpt><trkpt lat="40.244082391618186" lon="8.525825331361057"><ele>250.75</ele><time>2026-04-29T13:25:42.169Z</time></trkpt><trkpt lat="40.24395322959968" lon="8.525858821820128"><ele>249.0</ele><time>2026-04-29T13:25:43.169Z</time></trkpt><trkpt lat="40.243802500004534" lon="8.52581889986483"><ele>248.33333333333331</ele><time>2026-04-29T13:25:44.169Z</time></trkpt><trkpt lat="40.243624041085845" lon="8.525748990516794"><ele>247.66666666666666</ele><time>2026-04-29T13:25:45.169Z</time></trkpt><trkpt lat="40.24343698864687" lon="8.525647464310412"><ele>247.0</ele><time>2026-04-29T13:25:46.169Z</time></trkpt><trkpt lat="40.24325037160007" lon="8.525554475710726"><ele>246.33333333333331</ele><time>2026-04-29T13:25:47.169Z</time></trkpt><trkpt lat="40.243069460917056" lon="8.52549231343074"><ele>245.66666666666669</ele><time>2026-04-29T13:25:48.169Z</time></trkpt><trkpt lat="40.24290362968801" lon="8.525447148711605"><ele>245.0</ele><time>2026-04-29T13:25:49.169Z</time></trkpt><trkpt lat="40.24276294265646" lon="8.525426405062003"><ele>245.0</ele><time>2026-04-29T13:25:50.169Z</time></trkpt><trkpt lat="40.242649172801904" lon="8.525444611644184"><ele>245.0</ele><time>2026-04-29T13:25:51.169Z</time></trkpt><trkpt lat="40.24256827681829" lon="8.525505699721737"><ele>245.0</ele><time>2026-04-29T13:25:52.169Z</time></trkpt><trkpt lat="40.24250723103311" lon="8.525624561012807"><ele>245.0</ele><time>2026-04-29T13:25:53.169Z</time></trkpt><trkpt lat="40.242435979319076" lon="8.525726585498948"><ele>245.0</ele><time>2026-04-29T13:25:54.169Z</time></trkpt><trkpt lat="40.24233826120429" lon="8.525795922691035"><ele>246.0</ele><time>2026-04-29T13:25:55.169Z</time></trkpt><trkpt lat="40.24222623398501" lon="8.525835781858234"><ele>247.0</ele><time>2026-04-29T13:25:56.169Z</time></trkpt><trkpt lat="40.242113713927615" lon="8.525902836170733"><ele>248.0</ele><time>2026-04-29T13:25:57.169Z</time></trkpt><trkpt lat="40.24199476311571" lon="8.52602193158766"><ele>249.0</ele><time>2026-04-29T13:25:58.169Z</time></trkpt><trkpt lat="40.241875622303326" lon="8.526178867508426"><ele>246.66666666666669</ele><time>2026-04-29T13:25:59.169Z</time></trkpt><trkpt lat="40.241761215958384" lon="8.526350752053707"><ele>244.33333333333334</ele><time>2026-04-29T13:26:00.169Z</time></trkpt><trkpt lat="40.24164366983926" lon="8.526520405252388"><ele>242.0</ele><time>2026-04-29T13:26:01.169Z</time></trkpt><trkpt lat="40.24151520868517" lon="8.52671113262186"><ele>241.33333333333334</ele><time>2026-04-29T13:26:02.169Z</time></trkpt><trkpt lat="40.24138516511078" lon="8.526909678615604"><ele>240.66666666666669</ele><time>2026-04-29T13:26:03.169Z</time></trkpt><trkpt lat="40.24124717785575" lon="8.527110805437303"><ele>240.0</ele><time>2026-04-29T13:26:04.169Z</time></trkpt><trkpt lat="40.2411115108519" lon="8.527313911055687"><ele>240.0</ele><time>2026-04-29T13:26:05.169Z</time></trkpt><trkpt lat="40.24097213483088" lon="8.527504113468282"><ele>240.0</ele><time>2026-04-29T13:26:06.169Z</time></trkpt><trkpt lat="40.24081654567869" lon="8.527682830348237"><ele>240.0</ele><time>2026-04-29T13:26:07.169Z</time></trkpt><trkpt lat="40.24064435359894" lon="8.527829903743596"><ele>238.33333333333331</ele><time>2026-04-29T13:26:08.169Z</time></trkpt><trkpt lat="40.240457356438135" lon="8.527937167838214"><ele>236.66666666666666</ele><time>2026-04-29T13:26:09.169Z</time></trkpt><trkpt lat="40.24026215750514" lon="8.528016975556888"><ele>235.0</ele><time>2026-04-29T13:26:10.169Z</time></trkpt><trkpt lat="40.240071821850655" lon="8.528078269800567"><ele>235.0</ele><time>2026-04-29T13:26:11.169Z</time></trkpt><trkpt lat="40.23988935225973" lon="8.528167915866561"><ele>235.0</ele><time>2026-04-29T13:26:12.169Z</time></trkpt><trkpt lat="40.239711158660825" lon="8.528304311359085"><ele>235.0</ele><time>2026-04-29T13:26:13.169Z</time></trkpt><trkpt lat="40.23955027689885" lon="8.52847393643822"><ele>234.66666666666666</ele><time>2026-04-29T13:26:14.169Z</time></trkpt><trkpt lat="40.239404325971144" lon="8.528677177666752"><ele>234.33333333333331</ele><time>2026-04-29T13:26:15.169Z</time></trkpt><trkpt lat="40.23926776540666" lon="8.528891190094937"><ele>234.0</ele><time>2026-04-29T13:26:16.169Z</time></trkpt><trkpt lat="40.23913799071149" lon="8.529114978153261"><ele>233.66666666666669</ele><time>2026-04-29T13:26:17.169Z</time></trkpt><trkpt lat="40.23899965038307" lon="8.529334656108917"><ele>233.33333333333334</ele><time>2026-04-29T13:26:18.169Z</time></trkpt><trkpt lat="40.238863094251755" lon="8.529554429952109"><ele>233.0</ele><time>2026-04-29T13:26:19.169Z</time></trkpt><trkpt lat="40.23872618154672" lon="8.529771327699903"><ele>234.0</ele><time>2026-04-29T13:26:20.169Z</time></trkpt><trkpt lat="40.2385913753929" lon="8.529987053072855"><ele>235.0</ele><time>2026-04-29T13:26:21.169Z</time></trkpt><trkpt lat="40.238456892422775" lon="8.530202981668515"><ele>236.0</ele><time>2026-04-29T13:26:22.169Z</time></trkpt><trkpt lat="40.23832273260837" lon="8.530422190283003"><ele>236.0</ele><time>2026-04-29T13:26:23.169Z</time></trkpt><trkpt lat="40.2381927497819" lon="8.53063908917298"><ele>236.0</ele><time>2026-04-29T13:26:24.169Z</time></trkpt><trkpt lat="40.23805598646741" lon="8.530850879684465"><ele>236.0</ele><time>2026-04-29T13:26:25.169Z</time></trkpt><trkpt lat="40.23792135993791" lon="8.53106748948514"><ele>238.33333333333334</ele><time>2026-04-29T13:26:26.169Z</time></trkpt><trkpt lat="40.237785988485314" lon="8.531277495516607"><ele>240.66666666666669</ele><time>2026-04-29T13:26:27.169Z</time></trkpt><trkpt lat="40.23765185015223" lon="8.531493143084905"><ele>243.0</ele><time>2026-04-29T13:26:28.169Z</time></trkpt><trkpt lat="40.23751596186246" lon="8.531706465075965"><ele>243.0</ele><time>2026-04-29T13:26:29.169Z</time></trkpt><trkpt lat="40.23738174991688" lon="8.531919345363526"><ele>243.0</ele><time>2026-04-29T13:26:30.169Z</time></trkpt><trkpt lat="40.23725032469123" lon="8.532135515255009"><ele>243.0</ele><time>2026-04-29T13:26:31.169Z</time></trkpt><trkpt lat="40.23711886412085" lon="8.532349484840347"><ele>245.33333333333331</ele><time>2026-04-29T13:26:32.169Z</time></trkpt><trkpt lat="40.23698590347661" lon="8.532562501436923"><ele>247.66666666666666</ele><time>2026-04-29T13:26:33.169Z</time></trkpt><trkpt lat="40.23685302879221" lon="8.532784599780776"><ele>250.0</ele><time>2026-04-29T13:26:34.169Z</time></trkpt><trkpt lat="40.236722201040486" lon="8.533017960064926"><ele>250.0</ele><time>2026-04-29T13:26:35.169Z</time></trkpt><trkpt lat="40.236595066994354" lon="8.533256242026583"><ele>250.0</ele><time>2026-04-29T13:26:36.169Z</time></trkpt><trkpt lat="40.23646755855154" lon="8.53350006248572"><ele>250.0</ele><time>2026-04-29T13:26:37.169Z</time></trkpt><trkpt lat="40.23633895882419" lon="8.533738257964396"><ele>249.66666666666666</ele><time>2026-04-29T13:26:38.169Z</time></trkpt><trkpt lat="40.236211658252735" lon="8.533971598600154"><ele>249.33333333333331</ele><time>2026-04-29T13:26:39.169Z</time></trkpt><trkpt lat="40.23608494687002" lon="8.53419944108581"><ele>249.0</ele><time>2026-04-29T13:26:40.169Z</time></trkpt><trkpt lat="40.23594812860439" lon="8.534407196952658"><ele>250.0</ele><time>2026-04-29T13:26:41.169Z</time></trkpt><trkpt lat="40.235790071453735" lon="8.534569057070614"><ele>251.0</ele><time>2026-04-29T13:26:42.169Z</time></trkpt><trkpt lat="40.23561144293661" lon="8.53472325830126"><ele>252.0</ele><time>2026-04-29T13:26:43.169Z</time></trkpt><trkpt lat="40.23542644565985" lon="8.534868694299304"><ele>252.0</ele><time>2026-04-29T13:26:44.169Z</time></trkpt><trkpt lat="40.235247199629896" lon="8.535025845050665"><ele>252.0</ele><time>2026-04-29T13:26:45.169Z</time></trkpt><trkpt lat="40.235097110749635" lon="8.535220793050867"><ele>252.0</ele><time>2026-04-29T13:26:46.169Z</time></trkpt><trkpt lat="40.23496813802335" lon="8.535464273870923"><ele>252.0</ele><time>2026-04-29T13:26:47.169Z</time></trkpt><trkpt lat="40.234849716620566" lon="8.535694220034383"><ele>252.0</ele><time>2026-04-29T13:26:48.169Z</time></trkpt><trkpt lat="40.23474849204542" lon="8.535919281803277"><ele>252.0</ele><time>2026-04-29T13:26:49.169Z</time></trkpt><trkpt lat="40.23465155911896" lon="8.536142516738769"><ele>248.33333333333331</ele><time>2026-04-29T13:26:50.169Z</time></trkpt><trkpt lat="40.2345716744433" lon="8.536371055555673"><ele>244.66666666666666</ele><time>2026-04-29T13:26:51.169Z</time></trkpt><trkpt lat="40.23450903350659" lon="8.53661635576661"><ele>241.0</ele><time>2026-04-29T13:26:52.169Z</time></trkpt><trkpt lat="40.234452705888984" lon="8.53686671294194"><ele>242.66666666666666</ele><time>2026-04-29T13:26:53.169Z</time></trkpt><trkpt lat="40.23438729625534" lon="8.537111650655618"><ele>244.33333333333331</ele><time>2026-04-29T13:26:54.169Z</time></trkpt><trkpt lat="40.23430471427372" lon="8.537356315884994"><ele>246.0</ele><time>2026-04-29T13:26:55.169Z</time></trkpt><trkpt lat="40.234197185363996" lon="8.537592707600432"><ele>246.0</ele><time>2026-04-29T13:26:56.169Z</time></trkpt><trkpt lat="40.2340759095005" lon="8.537821747784092"><ele>246.0</ele><time>2026-04-29T13:26:57.169Z</time></trkpt><trkpt lat="40.233956976075284" lon="8.53805690508555"><ele>246.0</ele><time>2026-04-29T13:26:58.169Z</time></trkpt><trkpt lat="40.233828131742" lon="8.538287430450156"><ele>244.66666666666669</ele><time>2026-04-29T13:26:59.169Z</time></trkpt><trkpt lat="40.23369119910322" lon="8.53850387108586"><ele>243.33333333333334</ele><time>2026-04-29T13:27:00.169Z</time></trkpt><trkpt lat="40.23354853134858" lon="8.538710841188895"><ele>242.0</ele><time>2026-04-29T13:27:01.169Z</time></trkpt><trkpt lat="40.23341416964674" lon="8.538905270285397"><ele>242.0</ele><time>2026-04-29T13:27:02.169Z</time></trkpt><trkpt lat="40.23328674923426" lon="8.53909181042011"><ele>242.0</ele><time>2026-04-29T13:27:03.169Z</time></trkpt><trkpt lat="40.23316342739561" lon="8.539270084569953"><ele>242.0</ele><time>2026-04-29T13:27:04.169Z</time></trkpt><trkpt lat="40.233057110373124" lon="8.53942902595088"><ele>239.75</ele><time>2026-04-29T13:27:05.169Z</time></trkpt><trkpt lat="40.23296075232544" lon="8.539564302209282"><ele>237.5</ele><time>2026-04-29T13:27:06.169Z</time></trkpt><trkpt lat="40.23285590234319" lon="8.53964282930433"><ele>235.25</ele><time>2026-04-29T13:27:07.169Z</time></trkpt><trkpt lat="40.23274194454607" lon="8.539650119806678"><ele>233.0</ele><time>2026-04-29T13:27:08.169Z</time></trkpt><trkpt lat="40.232631897200676" lon="8.53960742004032"><ele>233.0</ele><time>2026-04-29T13:27:09.169Z</time></trkpt><trkpt lat="40.23251870846225" lon="8.53952204062832"><ele>233.0</ele><time>2026-04-29T13:27:10.169Z</time></trkpt><trkpt lat="40.23241145758335" lon="8.539431403740277"><ele>233.0</ele><time>2026-04-29T13:27:11.169Z</time></trkpt><trkpt lat="40.23233901538707" lon="8.53931613334732"><ele>233.0</ele><time>2026-04-29T13:27:12.169Z</time></trkpt><trkpt lat="40.23231366491284" lon="8.539184607097488"><ele>233.0</ele><time>2026-04-29T13:27:13.169Z</time></trkpt><trkpt lat="40.23234270676888" lon="8.539039869972164"><ele>233.0</ele><time>2026-04-29T13:27:14.169Z</time></trkpt><trkpt lat="40.23239398733818" lon="8.538882849892111"><ele>233.0</ele><time>2026-04-29T13:27:15.169Z</time></trkpt><trkpt lat="40.23245112673746" lon="8.53871241575783"><ele>233.0</ele><time>2026-04-29T13:27:16.169Z</time></trkpt><trkpt lat="40.23249904809945" lon="8.53852518562412"><ele>234.25</ele><time>2026-04-29T13:27:17.169Z</time></trkpt><trkpt lat="40.23255066226911" lon="8.53833770698678"><ele>235.5</ele><time>2026-04-29T13:27:18.169Z</time></trkpt><trkpt lat="40.2325952296989" lon="8.538158079991888"><ele>236.75</ele><time>2026-04-29T13:27:19.169Z</time></trkpt><trkpt lat="40.23260691436802" lon="8.537959454830034"><ele>238.0</ele><time>2026-04-29T13:27:20.169Z</time></trkpt><trkpt lat="40.232596034937934" lon="8.537747118489456"><ele>240.33333333333331</ele><time>2026-04-29T13:27:21.169Z</time></trkpt><trkpt lat="40.23257422657709" lon="8.537528930150629"><ele>242.66666666666669</ele><time>2026-04-29T13:27:22.169Z</time></trkpt><trkpt lat="40.23254799772079" lon="8.537299885570176"><ele>245.0</ele><time>2026-04-29T13:27:23.169Z</time></trkpt><trkpt lat="40.23252186834988" lon="8.537046587199203"><ele>245.0</ele><time>2026-04-29T13:27:24.169Z</time></trkpt><trkpt lat="40.23249621636331" lon="8.536821071936368"><ele>245.0</ele><time>2026-04-29T13:27:25.169Z</time></trkpt><trkpt lat="40.23247118371146" lon="8.536624960601507"><ele>245.0</ele><time>2026-04-29T13:27:26.169Z</time></trkpt><trkpt lat="40.23244581907745" lon="8.5364527229383"><ele>245.0</ele><time>2026-04-29T13:27:27.169Z</time></trkpt><trkpt lat="40.23242331807386" lon="8.536288682626235"><ele>245.0</ele><time>2026-04-29T13:27:28.169Z</time></trkpt><trkpt lat="40.23238813829051" lon="8.536118019665116"><ele>245.0</ele><time>2026-04-29T13:27:29.169Z</time></trkpt><trkpt lat="40.23230999685347" lon="8.535976989226883"><ele>245.0</ele><time>2026-04-29T13:27:30.169Z</time></trkpt><trkpt lat="40.23219628262012" lon="8.535869250264414"><ele>249.0</ele><time>2026-04-29T13:27:31.169Z</time></trkpt><trkpt lat="40.23206355447805" lon="8.535780152343422"><ele>253.0</ele><time>2026-04-29T13:27:32.169Z</time></trkpt><trkpt lat="40.231928813178996" lon="8.535685543243327"><ele>257.0</ele><time>2026-04-29T13:27:33.169Z</time></trkpt><trkpt lat="40.2318032960509" lon="8.535594463463628"><ele>261.0</ele><time>2026-04-29T13:27:34.17Z</time></trkpt><trkpt lat="40.23167668022318" lon="8.535517163573429"><ele>261.0</ele><time>2026-04-29T13:27:35.17Z</time></trkpt><trkpt lat="40.23155244373571" lon="8.535466888530003"><ele>261.0</ele><time>2026-04-29T13:27:36.17Z</time></trkpt><trkpt lat="40.231413068677355" lon="8.535444808701666"><ele>261.0</ele><time>2026-04-29T13:27:37.169Z</time></trkpt><trkpt lat="40.23126717560792" lon="8.53544796532017"><ele>261.0</ele><time>2026-04-29T13:27:38.169Z</time></trkpt><trkpt lat="40.231117197775156" lon="8.53548540760099"><ele>263.3333333333333</ele><time>2026-04-29T13:27:39.169Z</time></trkpt><trkpt lat="40.23096944326175" lon="8.53556274862928"><ele>265.66666666666663</ele><time>2026-04-29T13:27:40.169Z</time></trkpt><trkpt lat="40.23082408683141" lon="8.535684636508005"><ele>268.0</ele><time>2026-04-29T13:27:41.169Z</time></trkpt><trkpt lat="40.23066722600598" lon="8.535838227604895"><ele>268.0</ele><time>2026-04-29T13:27:42.169Z</time></trkpt><trkpt lat="40.23049534438604" lon="8.536015405410229"><ele>268.0</ele><time>2026-04-29T13:27:43.169Z</time></trkpt><trkpt lat="40.23031637732777" lon="8.536210390570972"><ele>269.5</ele><time>2026-04-29T13:27:44.17Z</time></trkpt><trkpt lat="40.23013067229655" lon="8.5364131319484"><ele>271.0</ele><time>2026-04-29T13:27:45.17Z</time></trkpt><trkpt lat="40.229937951342635" lon="8.536621483951388"><ele>271.0</ele><time>2026-04-29T13:27:46.169Z</time></trkpt><trkpt lat="40.22974582703391" lon="8.536828475913431"><ele>271.0</ele><time>2026-04-29T13:27:47.169Z</time></trkpt><trkpt lat="40.22956314329142" lon="8.537022368935625"><ele>273.0</ele><time>2026-04-29T13:27:48.169Z</time></trkpt><trkpt lat="40.22938920928753" lon="8.537214340754993"><ele>275.0</ele><time>2026-04-29T13:27:49.169Z</time></trkpt><trkpt lat="40.229214634012315" lon="8.537403601677573"><ele>275.0</ele><time>2026-04-29T13:27:50.169Z</time></trkpt><trkpt lat="40.22904779627778" lon="8.537585001912229"><ele>275.0</ele><time>2026-04-29T13:27:51.169Z</time></trkpt><trkpt lat="40.22888211159869" lon="8.53776319313145"><ele>275.0</ele><time>2026-04-29T13:27:52.169Z</time></trkpt><trkpt lat="40.228724174772545" lon="8.537944266246829"><ele>275.0</ele><time>2026-04-29T13:27:53.169Z</time></trkpt><trkpt lat="40.22855484594757" lon="8.538133349366639"><ele>275.0</ele><time>2026-04-29T13:27:54.169Z</time></trkpt><trkpt lat="40.22838116952641" lon="8.538325119087359"><ele>275.0</ele><time>2026-04-29T13:27:55.169Z</time></trkpt><trkpt lat="40.22820476065947" lon="8.5385250792376"><ele>275.0</ele><time>2026-04-29T13:27:56.169Z</time></trkpt><trkpt lat="40.2280252379884" lon="8.538729756373861"><ele>275.0</ele><time>2026-04-29T13:27:57.169Z</time></trkpt><trkpt lat="40.22783553047664" lon="8.538929421926095"><ele>275.0</ele><time>2026-04-29T13:27:58.169Z</time></trkpt><trkpt lat="40.22764075837245" lon="8.53913081658617"><ele>275.0</ele><time>2026-04-29T13:27:59.169Z</time></trkpt><trkpt lat="40.22744489010486" lon="8.539334261188442"><ele>275.0</ele><time>2026-04-29T13:28:00.169Z</time></trkpt><trkpt lat="40.227243834661245" lon="8.539543733012552"><ele>274.0</ele><time>2026-04-29T13:28:01.169Z</time></trkpt><trkpt lat="40.22704328530461" lon="8.539754544053341"><ele>273.0</ele><time>2026-04-29T13:28:02.169Z</time></trkpt><trkpt lat="40.226841063173815" lon="8.53996572671801"><ele>273.0</ele><time>2026-04-29T13:28:03.169Z</time></trkpt><trkpt lat="40.22663867323285" lon="8.540178380806372"><ele>273.0</ele><time>2026-04-29T13:28:04.169Z</time></trkpt><trkpt lat="40.226432275766065" lon="8.540389857220378"><ele>273.5</ele><time>2026-04-29T13:28:05.169Z</time></trkpt><trkpt lat="40.22622813820099" lon="8.54060612531484"><ele>274.0</ele><time>2026-04-29T13:28:06.169Z</time></trkpt><trkpt lat="40.22602753628888" lon="8.540819923793975"><ele>274.0</ele><time>2026-04-29T13:28:07.169Z</time></trkpt><trkpt lat="40.22582733474991" lon="8.541030520850887"><ele>274.0</ele><time>2026-04-29T13:28:08.169Z</time></trkpt><trkpt lat="40.2256272681324" lon="8.54123990853388"><ele>274.5</ele><time>2026-04-29T13:28:09.169Z</time></trkpt><trkpt lat="40.22543259690159" lon="8.54144212633234"><ele>275.0</ele><time>2026-04-29T13:28:10.169Z</time></trkpt><trkpt lat="40.22524278840158" lon="8.541642664765655"><ele>275.0</ele><time>2026-04-29T13:28:11.169Z</time></trkpt><trkpt lat="40.225055820455516" lon="8.541841981521259"><ele>275.0</ele><time>2026-04-29T13:28:12.169Z</time></trkpt><trkpt lat="40.2248678966225" lon="8.542036348329958"><ele>275.5</ele><time>2026-04-29T13:28:13.169Z</time></trkpt><trkpt lat="40.22467852223005" lon="8.542230653485174"><ele>276.0</ele><time>2026-04-29T13:28:14.169Z</time></trkpt><trkpt lat="40.224487011763884" lon="8.542429725620192"><ele>276.0</ele><time>2026-04-29T13:28:15.169Z</time></trkpt><trkpt lat="40.2243020244338" lon="8.542631641425606"><ele>276.0</ele><time>2026-04-29T13:28:16.169Z</time></trkpt><trkpt lat="40.224114359887295" lon="8.542834792303221"><ele>276.5</ele><time>2026-04-29T13:28:17.169Z</time></trkpt><trkpt lat="40.22392165776439" lon="8.543040058925495"><ele>277.0</ele><time>2026-04-29T13:28:18.169Z</time></trkpt><trkpt lat="40.22372992379916" lon="8.543252158291775"><ele>277.0</ele><time>2026-04-29T13:28:19.169Z</time></trkpt><trkpt lat="40.223535720920864" lon="8.543461341226998"><ele>277.0</ele><time>2026-04-29T13:28:20.169Z</time></trkpt><trkpt lat="40.223338514786235" lon="8.543661782520507"><ele>277.5</ele><time>2026-04-29T13:28:21.169Z</time></trkpt><trkpt lat="40.22315333097478" lon="8.543855809736028"><ele>278.0</ele><time>2026-04-29T13:28:22.169Z</time></trkpt><trkpt lat="40.22297096371133" lon="8.544055468753678"><ele>276.0</ele><time>2026-04-29T13:28:23.169Z</time></trkpt><trkpt lat="40.222801239083005" lon="8.54425811657676"><ele>274.0</ele><time>2026-04-29T13:28:24.169Z</time></trkpt><trkpt lat="40.22264187011461" lon="8.544473546692842"><ele>275.0</ele><time>2026-04-29T13:28:25.169Z</time></trkpt><trkpt lat="40.22249757585155" lon="8.544706107250027"><ele>276.0</ele><time>2026-04-29T13:28:26.169Z</time></trkpt><trkpt lat="40.22236592196378" lon="8.544946201010188"><ele>274.5</ele><time>2026-04-29T13:28:27.169Z</time></trkpt><trkpt lat="40.222253197778954" lon="8.54520541963296"><ele>273.0</ele><time>2026-04-29T13:28:28.169Z</time></trkpt><trkpt lat="40.22215692658314" lon="8.545481867890484"><ele>273.0</ele><time>2026-04-29T13:28:29.169Z</time></trkpt><trkpt lat="40.222063895685146" lon="8.545764763173613"><ele>273.0</ele><time>2026-04-29T13:28:30.169Z</time></trkpt><trkpt lat="40.2219583576488" lon="8.546060737545892"><ele>274.0</ele><time>2026-04-29T13:28:31.169Z</time></trkpt><trkpt lat="40.221854519153126" lon="8.54637891868246"><ele>275.0</ele><time>2026-04-29T13:28:32.169Z</time></trkpt><trkpt lat="40.22174669912753" lon="8.546712460241245"><ele>276.0</ele><time>2026-04-29T13:28:33.169Z</time></trkpt><trkpt lat="40.2216326052933" lon="8.547050570498236"><ele>277.0</ele><time>2026-04-29T13:28:34.169Z</time></trkpt><trkpt lat="40.221516272834876" lon="8.547388783381484"><ele>276.0</ele><time>2026-04-29T13:28:35.169Z</time></trkpt><trkpt lat="40.2213954652877" lon="8.5477263314018"><ele>275.0</ele><time>2026-04-29T13:28:36.169Z</time></trkpt><trkpt lat="40.22127640725859" lon="8.548054338470996"><ele>275.0</ele><time>2026-04-29T13:28:37.169Z</time></trkpt><trkpt lat="40.22116129163577" lon="8.54837103938438"><ele>275.0</ele><time>2026-04-29T13:28:38.169Z</time></trkpt><trkpt lat="40.22104939866932" lon="8.548675951572097"><ele>276.5</ele><time>2026-04-29T13:28:39.169Z</time></trkpt><trkpt lat="40.22094238890214" lon="8.548973709521045"><ele>278.0</ele><time>2026-04-29T13:28:40.169Z</time></trkpt><trkpt lat="40.22083723557049" lon="8.549270478969119"><ele>278.5</ele><time>2026-04-29T13:28:41.169Z</time></trkpt><trkpt lat="40.22073286156242" lon="8.549562108267097"><ele>279.0</ele><time>2026-04-29T13:28:42.169Z</time></trkpt><trkpt lat="40.22063592914175" lon="8.549842999978221"><ele>278.6666666666667</ele><time>2026-04-29T13:28:43.169Z</time></trkpt><trkpt lat="40.220546915529575" lon="8.550108995246779"><ele>278.33333333333337</ele><time>2026-04-29T13:28:44.169Z</time></trkpt><trkpt lat="40.22045378524429" lon="8.550353976378254"><ele>278.0</ele><time>2026-04-29T13:28:45.169Z</time></trkpt><trkpt lat="40.220337032655465" lon="8.550566774864974"><ele>278.0</ele><time>2026-04-29T13:28:46.169Z</time></trkpt><trkpt lat="40.220187325287164" lon="8.550753009631556"><ele>278.0</ele><time>2026-04-29T13:28:47.169Z</time></trkpt><trkpt lat="40.220024368565305" lon="8.550923889389678"><ele>278.0</ele><time>2026-04-29T13:28:48.169Z</time></trkpt><trkpt lat="40.219836776362285" lon="8.551054198062996"><ele>278.0</ele><time>2026-04-29T13:28:49.169Z</time></trkpt><trkpt lat="40.2196402563381" lon="8.55114398634307"><ele>278.0</ele><time>2026-04-29T13:28:50.169Z</time></trkpt><trkpt lat="40.21944110916985" lon="8.55120351784165"><ele>278.0</ele><time>2026-04-29T13:28:51.169Z</time></trkpt><trkpt lat="40.21923215900753" lon="8.551239961269248"><ele>278.0</ele><time>2026-04-29T13:28:52.169Z</time></trkpt><trkpt lat="40.21901042664743" lon="8.551264370200505"><ele>278.0</ele><time>2026-04-29T13:28:53.169Z</time></trkpt><trkpt lat="40.21878387456482" lon="8.551283620156772"><ele>277.5</ele><time>2026-04-29T13:28:54.169Z</time></trkpt><trkpt lat="40.2185511037235" lon="8.551310135101826"><ele>277.0</ele><time>2026-04-29T13:28:55.169Z</time></trkpt><trkpt lat="40.21831397652088" lon="8.551341147931627"><ele>277.0</ele><time>2026-04-29T13:28:56.169Z</time></trkpt><trkpt lat="40.218071677192086" lon="8.55137269845589"><ele>277.0</ele><time>2026-04-29T13:28:57.169Z</time></trkpt><trkpt lat="40.217827124846046" lon="8.551401583576023"><ele>277.0</ele><time>2026-04-29T13:28:58.169Z</time></trkpt><trkpt lat="40.21758686182747" lon="8.551428217161432"><ele>277.0</ele><time>2026-04-29T13:28:59.169Z</time></trkpt><trkpt lat="40.21735142899461" lon="8.55145223467947"><ele>277.0</ele><time>2026-04-29T13:29:00.169Z</time></trkpt><trkpt lat="40.21711655978404" lon="8.551475767402755"><ele>277.0</ele><time>2026-04-29T13:29:01.169Z</time></trkpt><trkpt lat="40.2168827847754" lon="8.551500023192453"><ele>277.0</ele><time>2026-04-29T13:29:02.169Z</time></trkpt><trkpt lat="40.21665930760796" lon="8.551532053836215"><ele>277.0</ele><time>2026-04-29T13:29:03.169Z</time></trkpt><trkpt lat="40.21643782446602" lon="8.551567096505655"><ele>277.0</ele><time>2026-04-29T13:29:04.169Z</time></trkpt><trkpt lat="40.216209991457326" lon="8.551618456015555"><ele>277.5</ele><time>2026-04-29T13:29:05.169Z</time></trkpt><trkpt lat="40.21598251245916" lon="8.55169251758372"><ele>278.0</ele><time>2026-04-29T13:29:06.169Z</time></trkpt><trkpt lat="40.2157549089015" lon="8.551784527340864"><ele>278.0</ele><time>2026-04-29T13:29:07.169Z</time></trkpt><trkpt lat="40.21554252609899" lon="8.551907452580695"><ele>278.0</ele><time>2026-04-29T13:29:08.169Z</time></trkpt><trkpt lat="40.21534025687707" lon="8.5520464401878"><ele>277.5</ele><time>2026-04-29T13:29:09.169Z</time></trkpt><trkpt lat="40.21514482273625" lon="8.55220550533387"><ele>277.0</ele><time>2026-04-29T13:29:10.169Z</time></trkpt><trkpt lat="40.214959835141556" lon="8.552382512940007"><ele>275.66666666666663</ele><time>2026-04-29T13:29:11.169Z</time></trkpt><trkpt lat="40.21479100920451" lon="8.552576548810743"><ele>274.3333333333333</ele><time>2026-04-29T13:29:12.169Z</time></trkpt><trkpt lat="40.214641638333674" lon="8.552781993014605"><ele>273.0</ele><time>2026-04-29T13:29:13.169Z</time></trkpt><trkpt lat="40.2145111457833" lon="8.552982252220614"><ele>272.6666666666667</ele><time>2026-04-29T13:29:14.169Z</time></trkpt><trkpt lat="40.21439702450373" lon="8.553176813684859"><ele>272.33333333333337</ele><time>2026-04-29T13:29:15.169Z</time></trkpt><trkpt lat="40.214284967247785" lon="8.553365964284914"><ele>272.0</ele><time>2026-04-29T13:29:16.169Z</time></trkpt><trkpt lat="40.214173383791355" lon="8.553542499502313"><ele>272.33333333333337</ele><time>2026-04-29T13:29:17.169Z</time></trkpt><trkpt lat="40.21406689794879" lon="8.553710507255094"><ele>272.6666666666667</ele><time>2026-04-29T13:29:18.169Z</time></trkpt><trkpt lat="40.21395899481381" lon="8.55387347307617"><ele>273.0</ele><time>2026-04-29T13:29:19.169Z</time></trkpt><trkpt lat="40.21386120965813" lon="8.554018075101098"><ele>272.5</ele><time>2026-04-29T13:29:20.169Z</time></trkpt><trkpt lat="40.213764315601985" lon="8.554154630355637"><ele>272.0</ele><time>2026-04-29T13:29:21.169Z</time></trkpt><trkpt lat="40.21367934260378" lon="8.554319848673309"><ele>271.5</ele><time>2026-04-29T13:29:22.169Z</time></trkpt><trkpt lat="40.21360323901411" lon="8.554466205256295"><ele>271.0</ele><time>2026-04-29T13:29:23.169Z</time></trkpt><trkpt lat="40.2135137837157" lon="8.554625361408295"><ele>271.0</ele><time>2026-04-29T13:29:24.169Z</time></trkpt><trkpt lat="40.21344913062718" lon="8.55474010089861"><ele>271.0</ele><time>2026-04-29T13:29:25.169Z</time></trkpt><trkpt lat="40.213386882006475" lon="8.554843670742574"><ele>271.0</ele><time>2026-04-29T13:29:26.169Z</time></trkpt><trkpt lat="40.21332868415242" lon="8.55495057088474"><ele>271.0</ele><time>2026-04-29T13:29:27.169Z</time></trkpt><trkpt lat="40.213276188438876" lon="8.555046777724453"><ele>271.0</ele><time>2026-04-29T13:29:28.169Z</time></trkpt><trkpt lat="40.21322921472723" lon="8.555141440644366"><ele>271.0</ele><time>2026-04-29T13:29:29.169Z</time></trkpt><trkpt lat="40.21317554667965" lon="8.555223321403059"><ele>271.0</ele><time>2026-04-29T13:29:30.169Z</time></trkpt><trkpt lat="40.21312801065977" lon="8.555307424187667"><ele>271.0</ele><time>2026-04-29T13:29:31.169Z</time></trkpt><trkpt lat="40.213084186169304" lon="8.55538948791274"><ele>271.0</ele><time>2026-04-29T13:29:32.169Z</time></trkpt><trkpt lat="40.213045356798304" lon="8.555482719569163"><ele>271.0</ele><time>2026-04-29T13:29:33.169Z</time></trkpt><trkpt lat="40.2130256652829" lon="8.555591043327544"><ele>271.0</ele><time>2026-04-29T13:29:34.169Z</time></trkpt><trkpt lat="40.2130320205932" lon="8.55571222168398"><ele>271.2</ele><time>2026-04-29T13:29:35.169Z</time></trkpt><trkpt lat="40.21305399297889" lon="8.555827513299079"><ele>271.40000000000003</ele><time>2026-04-29T13:29:36.169Z</time></trkpt><trkpt lat="40.21308961819089" lon="8.555947816054031"><ele>271.6</ele><time>2026-04-29T13:29:37.169Z</time></trkpt><trkpt lat="40.21313250345013" lon="8.55606674501463"><ele>271.8</ele><time>2026-04-29T13:29:38.169Z</time></trkpt><trkpt lat="40.21317590565514" lon="8.556189302804663"><ele>272.0</ele><time>2026-04-29T13:29:39.169Z</time></trkpt><trkpt lat="40.21322578947679" lon="8.556305746117728"><ele>271.0</ele><time>2026-04-29T13:29:40.169Z</time></trkpt><trkpt lat="40.213294243636916" lon="8.556418670662097"><ele>270.0</ele><time>2026-04-29T13:29:41.169Z</time></trkpt><trkpt lat="40.21338432294636" lon="8.55651491095581"><ele>269.0</ele><time>2026-04-29T13:29:42.169Z</time></trkpt><trkpt lat="40.21348027517714" lon="8.556595915821742"><ele>268.0</ele><time>2026-04-29T13:29:43.169Z</time></trkpt><trkpt lat="40.21360105467255" lon="8.55667616621321"><ele>268.0</ele><time>2026-04-29T13:29:44.169Z</time></trkpt><trkpt lat="40.21372453127127" lon="8.556767238369646"><ele>268.0</ele><time>2026-04-29T13:29:45.169Z</time></trkpt><trkpt lat="40.21383538164983" lon="8.556880702752363"><ele>268.0</ele><time>2026-04-29T13:29:46.169Z</time></trkpt><trkpt lat="40.21395369585198" lon="8.557017261449648"><ele>268.0</ele><time>2026-04-29T13:29:47.169Z</time></trkpt><trkpt lat="40.214043550564455" lon="8.557205757310358"><ele>266.0</ele><time>2026-04-29T13:29:48.169Z</time></trkpt><trkpt lat="40.21412167957125" lon="8.55740330581472"><ele>264.0</ele><time>2026-04-29T13:29:49.169Z</time></trkpt><trkpt lat="40.21418835518221" lon="8.557600936135582"><ele>262.0</ele><time>2026-04-29T13:29:50.169Z</time></trkpt><trkpt lat="40.21425149257315" lon="8.557782007284342"><ele>262.0</ele><time>2026-04-29T13:29:51.169Z</time></trkpt><trkpt lat="40.21427299325022" lon="8.557939402694188"><ele>262.0</ele><time>2026-04-29T13:29:52.169Z</time></trkpt><trkpt lat="40.21421075761996" lon="8.558087909045225"><ele>262.0</ele><time>2026-04-29T13:29:53.169Z</time></trkpt><trkpt lat="40.21407570916564" lon="8.558169746097626"><ele>262.0</ele><time>2026-04-29T13:29:54.169Z</time></trkpt><trkpt lat="40.213906297863716" lon="8.558174005489425"><ele>259.0</ele><time>2026-04-29T13:29:55.169Z</time></trkpt><trkpt lat="40.21374651665358" lon="8.558211892717454"><ele>256.0</ele><time>2026-04-29T13:29:56.169Z</time></trkpt><trkpt lat="40.21361244386256" lon="8.558358506875912"><ele>253.0</ele><time>2026-04-29T13:29:57.169Z</time></trkpt><trkpt lat="40.21350704556173" lon="8.55857631764831"><ele>253.66666666666666</ele><time>2026-04-29T13:29:58.169Z</time></trkpt><trkpt lat="40.21339531786077" lon="8.558757596244151"><ele>254.33333333333331</ele><time>2026-04-29T13:29:59.169Z</time></trkpt><trkpt lat="40.213270568997636" lon="8.558934037813371"><ele>255.0</ele><time>2026-04-29T13:30:00.169Z</time></trkpt><trkpt lat="40.21314348856017" lon="8.55910016727753"><ele>251.33333333333331</ele><time>2026-04-29T13:30:01.169Z</time></trkpt><trkpt lat="40.21302865667257" lon="8.559259658541608"><ele>247.66666666666666</ele><time>2026-04-29T13:30:02.169Z</time></trkpt><trkpt lat="40.21291885824022" lon="8.559408589689944"><ele>244.0</ele><time>2026-04-29T13:30:03.169Z</time></trkpt><trkpt lat="40.212817330211784" lon="8.559556018950465"><ele>243.25</ele><time>2026-04-29T13:30:04.169Z</time></trkpt><trkpt lat="40.2127306342381" lon="8.559698519726151"><ele>242.5</ele><time>2026-04-29T13:30:05.169Z</time></trkpt><trkpt lat="40.21266995549515" lon="8.559866450271088"><ele>241.75</ele><time>2026-04-29T13:30:06.169Z</time></trkpt><trkpt lat="40.21266312318787" lon="8.560055616661051"><ele>241.0</ele><time>2026-04-29T13:30:07.169Z</time></trkpt><trkpt lat="40.21272184239004" lon="8.560260300385218"><ele>240.66666666666666</ele><time>2026-04-29T13:30:08.169Z</time></trkpt><trkpt lat="40.21278339441563" lon="8.560457513042284"><ele>240.33333333333331</ele><time>2026-04-29T13:30:09.169Z</time></trkpt><trkpt lat="40.212833355139175" lon="8.56064282145891"><ele>240.0</ele><time>2026-04-29T13:30:10.169Z</time></trkpt><trkpt lat="40.21286615985543" lon="8.560817882778439"><ele>240.0</ele><time>2026-04-29T13:30:11.169Z</time></trkpt><trkpt lat="40.21287487391014" lon="8.560990615503167"><ele>240.0</ele><time>2026-04-29T13:30:12.169Z</time></trkpt><trkpt lat="40.212831125253615" lon="8.561154944730813"><ele>240.0</ele><time>2026-04-29T13:30:13.169Z</time></trkpt><trkpt lat="40.21273537115176" lon="8.561267763779938"><ele>240.0</ele><time>2026-04-29T13:30:14.169Z</time></trkpt><trkpt lat="40.212590829246686" lon="8.561332045342963"><ele>240.66666666666669</ele><time>2026-04-29T13:30:15.169Z</time></trkpt><trkpt lat="40.21242803323116" lon="8.561369828815584"><ele>241.33333333333334</ele><time>2026-04-29T13:30:16.169Z</time></trkpt><trkpt lat="40.21225958413465" lon="8.561420716950025"><ele>242.0</ele><time>2026-04-29T13:30:17.169Z</time></trkpt><trkpt lat="40.21208022318105" lon="8.561483671250043"><ele>242.33333333333334</ele><time>2026-04-29T13:30:18.169Z</time></trkpt><trkpt lat="40.211897546618246" lon="8.56155137946228"><ele>242.66666666666669</ele><time>2026-04-29T13:30:19.169Z</time></trkpt><trkpt lat="40.21172341644326" lon="8.561611405309813"><ele>243.0</ele><time>2026-04-29T13:30:20.169Z</time></trkpt><trkpt lat="40.211557921730076" lon="8.561667964839321"><ele>243.66666666666669</ele><time>2026-04-29T13:30:21.169Z</time></trkpt><trkpt lat="40.211396625041324" lon="8.561727822856637"><ele>244.33333333333334</ele><time>2026-04-29T13:30:22.169Z</time></trkpt><trkpt lat="40.21123210393717" lon="8.561811557652906"><ele>245.0</ele><time>2026-04-29T13:30:23.169Z</time></trkpt><trkpt lat="40.21107560689518" lon="8.561919587256588"><ele>247.33333333333334</ele><time>2026-04-29T13:30:24.169Z</time></trkpt><trkpt lat="40.21092407288123" lon="8.5620579316285"><ele>249.66666666666669</ele><time>2026-04-29T13:30:25.169Z</time></trkpt><trkpt lat="40.21077842824416" lon="8.562216722920908"><ele>252.0</ele><time>2026-04-29T13:30:26.169Z</time></trkpt><trkpt lat="40.210641603252064" lon="8.56238682344359"><ele>252.0</ele><time>2026-04-29T13:30:27.169Z</time></trkpt><trkpt lat="40.21050727502443" lon="8.562573616279863"><ele>252.0</ele><time>2026-04-29T13:30:28.169Z</time></trkpt><trkpt lat="40.210374325610296" lon="8.562756124744281"><ele>252.0</ele><time>2026-04-29T13:30:29.169Z</time></trkpt><trkpt lat="40.210242627925126" lon="8.562940206037268"><ele>253.66666666666669</ele><time>2026-04-29T13:30:30.169Z</time></trkpt><trkpt lat="40.21010476723442" lon="8.563119330001735"><ele>255.33333333333334</ele><time>2026-04-29T13:30:31.169Z</time></trkpt><trkpt lat="40.209964801792886" lon="8.563296756679108"><ele>257.0</ele><time>2026-04-29T13:30:32.169Z</time></trkpt><trkpt lat="40.20982667608464" lon="8.563476064764817"><ele>257.0</ele><time>2026-04-29T13:30:33.169Z</time></trkpt><trkpt lat="40.209699808810434" lon="8.563665803428371"><ele>257.0</ele><time>2026-04-29T13:30:34.169Z</time></trkpt><trkpt lat="40.20958298211308" lon="8.563879854367585"><ele>257.0</ele><time>2026-04-29T13:30:35.169Z</time></trkpt><trkpt lat="40.20949866013591" lon="8.564118488536476"><ele>257.0</ele><time>2026-04-29T13:30:36.169Z</time></trkpt><trkpt lat="40.209447377524135" lon="8.564368419763053"><ele>257.0</ele><time>2026-04-29T13:30:37.169Z</time></trkpt><trkpt lat="40.20942844414733" lon="8.564612787130283"><ele>257.0</ele><time>2026-04-29T13:30:38.169Z</time></trkpt><trkpt lat="40.20946487412883" lon="8.564845887034556"><ele>258.33333333333337</ele><time>2026-04-29T13:30:39.169Z</time></trkpt><trkpt lat="40.20955264902692" lon="8.56506281494748"><ele>259.6666666666667</ele><time>2026-04-29T13:30:40.169Z</time></trkpt><trkpt lat="40.20964007725506" lon="8.565281658488294"><ele>261.0</ele><time>2026-04-29T13:30:41.169Z</time></trkpt><trkpt lat="40.209699953227634" lon="8.56548430412959"><ele>262.0</ele><time>2026-04-29T13:30:42.169Z</time></trkpt><trkpt lat="40.209738666900556" lon="8.56566492183376"><ele>263.0</ele><time>2026-04-29T13:30:43.169Z</time></trkpt><trkpt lat="40.20973869815972" lon="8.565829637123322"><ele>264.0</ele><time>2026-04-29T13:30:44.169Z</time></trkpt><trkpt lat="40.20968088421778" lon="8.565963322860371"><ele>265.0</ele><time>2026-04-29T13:30:45.169Z</time></trkpt><trkpt lat="40.209560161733144" lon="8.56604408822043"><ele>265.0</ele><time>2026-04-29T13:30:46.169Z</time></trkpt><trkpt lat="40.20942438257951" lon="8.566056088277039"><ele>265.0</ele><time>2026-04-29T13:30:47.169Z</time></trkpt><trkpt lat="40.20930337150543" lon="8.566007976065348"><ele>265.0</ele><time>2026-04-29T13:30:48.169Z</time></trkpt><trkpt lat="40.20918557768521" lon="8.565920567391617"><ele>265.0</ele><time>2026-04-29T13:30:49.169Z</time></trkpt><trkpt lat="40.20909896946184" lon="8.565778208258543"><ele>265.0</ele><time>2026-04-29T13:30:50.169Z</time></trkpt><trkpt lat="40.2090247053672" lon="8.56561748431632"><ele>265.0</ele><time>2026-04-29T13:30:51.169Z</time></trkpt><trkpt lat="40.20892123374128" lon="8.565494775529327"><ele>265.0</ele><time>2026-04-29T13:30:52.169Z</time></trkpt><trkpt lat="40.208782150637006" lon="8.56541660623738"><ele>265.0</ele><time>2026-04-29T13:30:53.169Z</time></trkpt><trkpt lat="40.208619735945646" lon="8.565381410807966"><ele>267.0</ele><time>2026-04-29T13:30:54.169Z</time></trkpt><trkpt lat="40.2084383639506" lon="8.565375933807028"><ele>269.0</ele><time>2026-04-29T13:30:55.169Z</time></trkpt><trkpt lat="40.20826116057895" lon="8.565365439543132"><ele>271.0</ele><time>2026-04-29T13:30:56.169Z</time></trkpt><trkpt lat="40.208077633421354" lon="8.565351827720837"><ele>271.66666666666663</ele><time>2026-04-29T13:30:57.169Z</time></trkpt><trkpt lat="40.20788804654321" lon="8.56532791446008"><ele>272.3333333333333</ele><time>2026-04-29T13:30:58.169Z</time></trkpt><trkpt lat="40.20769913624515" lon="8.565311745843179"><ele>273.0</ele><time>2026-04-29T13:30:59.169Z</time></trkpt><trkpt lat="40.20750733285624" lon="8.56530286320679"><ele>274.6666666666667</ele><time>2026-04-29T13:31:00.169Z</time></trkpt><trkpt lat="40.20731242776692" lon="8.565302686857123"><ele>276.33333333333337</ele><time>2026-04-29T13:31:01.169Z</time></trkpt><trkpt lat="40.207116273108525" lon="8.565328312752664"><ele>278.0</ele><time>2026-04-29T13:31:02.169Z</time></trkpt><trkpt lat="40.20691770610989" lon="8.565363404945069"><ele>282.6666666666667</ele><time>2026-04-29T13:31:03.169Z</time></trkpt><trkpt lat="40.20671717904437" lon="8.565403669016762"><ele>287.3333333333333</ele><time>2026-04-29T13:31:04.169Z</time></trkpt><trkpt lat="40.20651140572036" lon="8.565443782749508"><ele>292.0</ele><time>2026-04-29T13:31:05.169Z</time></trkpt><trkpt lat="40.20631166892054" lon="8.565479498630935"><ele>292.66666666666663</ele><time>2026-04-29T13:31:06.169Z</time></trkpt><trkpt lat="40.20611592434024" lon="8.5655098738529"><ele>293.3333333333333</ele><time>2026-04-29T13:31:07.169Z</time></trkpt><trkpt lat="40.20592820333851" lon="8.565547012118445"><ele>294.0</ele><time>2026-04-29T13:31:08.169Z</time></trkpt><trkpt lat="40.205747299693236" lon="8.565584603446183"><ele>294.3333333333333</ele><time>2026-04-29T13:31:09.169Z</time></trkpt><trkpt lat="40.2055718912235" lon="8.565621380675374"><ele>294.66666666666663</ele><time>2026-04-29T13:31:10.169Z</time></trkpt><trkpt lat="40.2053967536902" lon="8.565671896522682"><ele>295.0</ele><time>2026-04-29T13:31:11.169Z</time></trkpt><trkpt lat="40.20522404949639" lon="8.56573910179464"><ele>295.0</ele><time>2026-04-29T13:31:12.169Z</time></trkpt><trkpt lat="40.20505991153377" lon="8.565829528131502"><ele>295.0</ele><time>2026-04-29T13:31:13.169Z</time></trkpt><trkpt lat="40.20489928133373" lon="8.56594460798814"><ele>295.0</ele><time>2026-04-29T13:31:14.169Z</time></trkpt><trkpt lat="40.204744798366036" lon="8.56608215587069"><ele>298.3333333333333</ele><time>2026-04-29T13:31:15.169Z</time></trkpt><trkpt lat="40.204609342409576" lon="8.56624253470829"><ele>301.6666666666667</ele><time>2026-04-29T13:31:16.169Z</time></trkpt><trkpt lat="40.20448004239691" lon="8.566423000917945"><ele>305.0</ele><time>2026-04-29T13:31:17.169Z</time></trkpt><trkpt lat="40.20435291175847" lon="8.566606640919364"><ele>305.0</ele><time>2026-04-29T13:31:18.169Z</time></trkpt><trkpt lat="40.204234163397615" lon="8.566794104196513"><ele>305.0</ele><time>2026-04-29T13:31:19.169Z</time></trkpt><trkpt lat="40.20411519806913" lon="8.566985988885218"><ele>305.0</ele><time>2026-04-29T13:31:20.169Z</time></trkpt><trkpt lat="40.20399004970296" lon="8.567172763139315"><ele>305.0</ele><time>2026-04-29T13:31:21.169Z</time></trkpt><trkpt lat="40.20386678739345" lon="8.56735007017001"><ele>305.0</ele><time>2026-04-29T13:31:22.169Z</time></trkpt><trkpt lat="40.203745466718374" lon="8.567527031735"><ele>305.0</ele><time>2026-04-29T13:31:23.169Z</time></trkpt><trkpt lat="40.203621974869804" lon="8.567707067016013"><ele>309.33333333333337</ele><time>2026-04-29T13:31:24.169Z</time></trkpt><trkpt lat="40.20349962482752" lon="8.567894597899075"><ele>313.6666666666667</ele><time>2026-04-29T13:31:25.169Z</time></trkpt><trkpt lat="40.203372271581806" lon="8.568081521423249"><ele>318.0</ele><time>2026-04-29T13:31:26.169Z</time></trkpt><trkpt lat="40.20323697723181" lon="8.56827057948772"><ele>318.0</ele><time>2026-04-29T13:31:27.169Z</time></trkpt><trkpt lat="40.20310410614624" lon="8.56846265890926"><ele>318.0</ele><time>2026-04-29T13:31:28.169Z</time></trkpt><trkpt lat="40.202968974745595" lon="8.568659637519275"><ele>318.0</ele><time>2026-04-29T13:31:29.169Z</time></trkpt><trkpt lat="40.20283583080761" lon="8.568856744763268"><ele>318.0</ele><time>2026-04-29T13:31:30.169Z</time></trkpt><trkpt lat="40.202695600298554" lon="8.569025936477612"><ele>318.0</ele><time>2026-04-29T13:31:31.169Z</time></trkpt><trkpt lat="40.202536576814225" lon="8.569169572402705"><ele>318.0</ele><time>2026-04-29T13:31:32.169Z</time></trkpt><trkpt lat="40.202367465136135" lon="8.569285191553792"><ele>317.3333333333333</ele><time>2026-04-29T13:31:33.169Z</time></trkpt><trkpt lat="40.2022147823304" lon="8.56941893967066"><ele>316.66666666666663</ele><time>2026-04-29T13:31:34.169Z</time></trkpt><trkpt lat="40.20209595854666" lon="8.569612319823174"><ele>316.0</ele><time>2026-04-29T13:31:35.169Z</time></trkpt><trkpt lat="40.20201708681394" lon="8.56983196213487"><ele>316.0</ele><time>2026-04-29T13:31:36.169Z</time></trkpt><trkpt lat="40.20201061007336" lon="8.570078195669355"><ele>316.0</ele><time>2026-04-29T13:31:37.169Z</time></trkpt><trkpt lat="40.20205453106879" lon="8.570330745944677"><ele>316.0</ele><time>2026-04-29T13:31:38.169Z</time></trkpt><trkpt lat="40.20211362738993" lon="8.570581569866397"><ele>318.66666666666663</ele><time>2026-04-29T13:31:39.169Z</time></trkpt><trkpt lat="40.20213401886367" lon="8.570810016689853"><ele>321.3333333333333</ele><time>2026-04-29T13:31:40.169Z</time></trkpt><trkpt lat="40.20208081898693" lon="8.571029579261879"><ele>324.0</ele><time>2026-04-29T13:31:41.169Z</time></trkpt><trkpt lat="40.20195812141374" lon="8.57123517429291"><ele>327.0</ele><time>2026-04-29T13:31:42.169Z</time></trkpt><trkpt lat="40.201852650619664" lon="8.571446193559725"><ele>330.0</ele><time>2026-04-29T13:31:43.169Z</time></trkpt><trkpt lat="40.20180435344185" lon="8.571700124297632"><ele>333.0</ele><time>2026-04-29T13:31:44.169Z</time></trkpt><trkpt lat="40.20178978189132" lon="8.571963705238712"><ele>336.0</ele><time>2026-04-29T13:31:45.169Z</time></trkpt><trkpt lat="40.20176351326782" lon="8.572214781476795"><ele>339.0</ele><time>2026-04-29T13:31:46.169Z</time></trkpt><trkpt lat="40.20171000258179" lon="8.57244347191437"><ele>342.0</ele><time>2026-04-29T13:31:47.169Z</time></trkpt><trkpt lat="40.201621663800445" lon="8.572660224310763"><ele>340.0</ele><time>2026-04-29T13:31:48.17Z</time></trkpt><trkpt lat="40.20151282289045" lon="8.57287349348338"><ele>338.0</ele><time>2026-04-29T13:31:49.17Z</time></trkpt><trkpt lat="40.20139627266436" lon="8.57307124441145"><ele>336.0</ele><time>2026-04-29T13:31:50.17Z</time></trkpt><trkpt lat="40.20128847067362" lon="8.573277736617156"><ele>336.0</ele><time>2026-04-29T13:31:51.169Z</time></trkpt><trkpt lat="40.20118682040967" lon="8.573485986787796"><ele>336.0</ele><time>2026-04-29T13:31:52.169Z</time></trkpt><trkpt lat="40.201083109978356" lon="8.573690562817117"><ele>336.0</ele><time>2026-04-29T13:31:53.169Z</time></trkpt><trkpt lat="40.20098327718548" lon="8.573889293504651"><ele>340.0</ele><time>2026-04-29T13:31:54.17Z</time></trkpt><trkpt lat="40.20088900929265" lon="8.574068824894713"><ele>344.0</ele><time>2026-04-29T13:31:55.169Z</time></trkpt><trkpt lat="40.20079370298463" lon="8.574210475595644"><ele>348.0</ele><time>2026-04-29T13:31:56.169Z</time></trkpt><trkpt lat="40.20066608185704" lon="8.574298374426382"><ele>348.25</ele><time>2026-04-29T13:31:57.169Z</time></trkpt><trkpt lat="40.20052544477366" lon="8.574324086286236"><ele>348.5</ele><time>2026-04-29T13:31:58.17Z</time></trkpt><trkpt lat="40.20038221056512" lon="8.574309065054807"><ele>348.75</ele><time>2026-04-29T13:31:59.17Z</time></trkpt><trkpt lat="40.20023174792913" lon="8.57428499717348"><ele>349.0</ele><time>2026-04-29T13:32:00.17Z</time></trkpt><trkpt lat="40.20007585760206" lon="8.574270192726917"><ele>349.0</ele><time>2026-04-29T13:32:01.17Z</time></trkpt><trkpt lat="40.19991673756274" lon="8.57425820079292"><ele>349.0</ele><time>2026-04-29T13:32:02.17Z</time></trkpt><trkpt lat="40.19976373697496" lon="8.574255239019191"><ele>349.0</ele><time>2026-04-29T13:32:03.17Z</time></trkpt><trkpt lat="40.19961722483752" lon="8.574270404555435"><ele>348.5</ele><time>2026-04-29T13:32:04.17Z</time></trkpt><trkpt lat="40.199486046350195" lon="8.574329882635649"><ele>348.0</ele><time>2026-04-29T13:32:05.17Z</time></trkpt><trkpt lat="40.19938359767993" lon="8.574461677974455"><ele>347.5</ele><time>2026-04-29T13:32:06.17Z</time></trkpt><trkpt lat="40.19930025971756" lon="8.574635953716403"><ele>347.0</ele><time>2026-04-29T13:32:07.17Z</time></trkpt><trkpt lat="40.19924403317017" lon="8.574839670209268"><ele>349.6666666666667</ele><time>2026-04-29T13:32:08.17Z</time></trkpt><trkpt lat="40.19918174411149" lon="8.575061755146589"><ele>352.3333333333333</ele><time>2026-04-29T13:32:09.17Z</time></trkpt><trkpt lat="40.199107883238845" lon="8.57527551131796"><ele>355.0</ele><time>2026-04-29T13:32:10.17Z</time></trkpt><trkpt lat="40.199027942197574" lon="8.57549004214308"><ele>354.66666666666663</ele><time>2026-04-29T13:32:11.17Z</time></trkpt><trkpt lat="40.19895649052192" lon="8.575726975259533"><ele>354.3333333333333</ele><time>2026-04-29T13:32:12.17Z</time></trkpt><trkpt lat="40.198860651390575" lon="8.575969138782051"><ele>354.0</ele><time>2026-04-29T13:32:13.17Z</time></trkpt><trkpt lat="40.19878017413694" lon="8.576224023807649"><ele>356.3333333333333</ele><time>2026-04-29T13:32:14.17Z</time></trkpt><trkpt lat="40.1986813959085" lon="8.576473223382997"><ele>358.66666666666663</ele><time>2026-04-29T13:32:15.17Z</time></trkpt><trkpt lat="40.19858421385135" lon="8.57672637407865"><ele>361.0</ele><time>2026-04-29T13:32:16.17Z</time></trkpt><trkpt lat="40.1984871538639" lon="8.57697773925105"><ele>364.66666666666663</ele><time>2026-04-29T13:32:17.17Z</time></trkpt><trkpt lat="40.198394245792294" lon="8.57723545601811"><ele>368.3333333333333</ele><time>2026-04-29T13:32:18.17Z</time></trkpt><trkpt lat="40.19830059515205" lon="8.57749425560877"><ele>372.0</ele><time>2026-04-29T13:32:19.17Z</time></trkpt><trkpt lat="40.198221238135275" lon="8.577727893650048"><ele>373.0</ele><time>2026-04-29T13:32:20.17Z</time></trkpt><trkpt lat="40.19813134334535" lon="8.577893088726794"><ele>374.0</ele><time>2026-04-29T13:32:21.17Z</time></trkpt><trkpt lat="40.197993334208824" lon="8.577975842581262"><ele>375.0</ele><time>2026-04-29T13:32:22.17Z</time></trkpt><trkpt lat="40.19783607109215" lon="8.577998515307405"><ele>375.0</ele><time>2026-04-29T13:32:23.17Z</time></trkpt><trkpt lat="40.19765981782111" lon="8.577969190593743"><ele>375.0</ele><time>2026-04-29T13:32:24.17Z</time></trkpt><trkpt lat="40.19748103891117" lon="8.577952266370863"><ele>375.0</ele><time>2026-04-29T13:32:25.17Z</time></trkpt><trkpt lat="40.19730982568026" lon="8.57794414536921"><ele>375.6666666666667</ele><time>2026-04-29T13:32:26.169Z</time></trkpt><trkpt lat="40.19715117194524" lon="8.577932120311287"><ele>376.33333333333337</ele><time>2026-04-29T13:32:27.169Z</time></trkpt><trkpt lat="40.1969940953956" lon="8.577897974012817"><ele>377.0</ele><time>2026-04-29T13:32:28.169Z</time></trkpt><trkpt lat="40.196851555710325" lon="8.577824206206381"><ele>377.0</ele><time>2026-04-29T13:32:29.169Z</time></trkpt><trkpt lat="40.19674218771992" lon="8.577695732026394"><ele>377.0</ele><time>2026-04-29T13:32:30.169Z</time></trkpt><trkpt lat="40.19666368222207" lon="8.577535502115795"><ele>377.0</ele><time>2026-04-29T13:32:31.169Z</time></trkpt><trkpt lat="40.19662817354744" lon="8.577351638874585"><ele>377.0</ele><time>2026-04-29T13:32:32.169Z</time></trkpt><trkpt lat="40.196605029677904" lon="8.577153282386512"><ele>377.33333333333337</ele><time>2026-04-29T13:32:33.169Z</time></trkpt><trkpt lat="40.19657944658426" lon="8.576952382509315"><ele>377.6666666666667</ele><time>2026-04-29T13:32:34.169Z</time></trkpt><trkpt lat="40.19655859275548" lon="8.576751799234613"><ele>378.0</ele><time>2026-04-29T13:32:35.169Z</time></trkpt><trkpt lat="40.19653148827442" lon="8.576544996289003"><ele>378.0</ele><time>2026-04-29T13:32:36.169Z</time></trkpt><trkpt lat="40.19650750554352" lon="8.576335444129723"><ele>378.0</ele><time>2026-04-29T13:32:37.169Z</time></trkpt><trkpt lat="40.19647661027976" lon="8.576128933788485"><ele>378.0</ele><time>2026-04-29T13:32:38.169Z</time></trkpt><trkpt lat="40.19644835574926" lon="8.575908529319564"><ele>384.0</ele><time>2026-04-29T13:32:39.169Z</time></trkpt><trkpt lat="40.19642074405786" lon="8.575689011774996"><ele>390.0</ele><time>2026-04-29T13:32:40.169Z</time></trkpt><trkpt lat="40.19639514378746" lon="8.575470918693815"><ele>396.0</ele><time>2026-04-29T13:32:41.169Z</time></trkpt><trkpt lat="40.196371588854596" lon="8.575254779888592"><ele>396.66666666666663</ele><time>2026-04-29T13:32:42.169Z</time></trkpt><trkpt lat="40.19634487922101" lon="8.575039541629833"><ele>397.3333333333333</ele><time>2026-04-29T13:32:43.169Z</time></trkpt><trkpt lat="40.196314822451875" lon="8.574826157068706"><ele>398.0</ele><time>2026-04-29T13:32:44.169Z</time></trkpt><trkpt lat="40.19629084745869" lon="8.574608523935435"><ele>399.0</ele><time>2026-04-29T13:32:45.169Z</time></trkpt><trkpt lat="40.19627950128605" lon="8.57438864886995"><ele>400.0</ele><time>2026-04-29T13:32:46.169Z</time></trkpt><trkpt lat="40.196293445635746" lon="8.574172148950664"><ele>401.0</ele><time>2026-04-29T13:32:47.169Z</time></trkpt><trkpt lat="40.19634339949916" lon="8.573961395077138"><ele>401.0</ele><time>2026-04-29T13:32:48.169Z</time></trkpt><trkpt lat="40.196403376963076" lon="8.573753147675847"><ele>401.0</ele><time>2026-04-29T13:32:49.169Z</time></trkpt><trkpt lat="40.196444315944134" lon="8.573546983719917"><ele>401.0</ele><time>2026-04-29T13:32:50.169Z</time></trkpt><trkpt lat="40.19643388312872" lon="8.573346789265308"><ele>401.66666666666663</ele><time>2026-04-29T13:32:51.169Z</time></trkpt><trkpt lat="40.19637388647647" lon="8.573165853831089"><ele>402.33333333333337</ele><time>2026-04-29T13:32:52.169Z</time></trkpt><trkpt lat="40.19626562975498" lon="8.57300568678932"><ele>403.0</ele><time>2026-04-29T13:32:53.169Z</time></trkpt><trkpt lat="40.196124269146175" lon="8.572873910140764"><ele>398.6666666666667</ele><time>2026-04-29T13:32:54.169Z</time></trkpt><trkpt lat="40.19597886409515" lon="8.572748927629641"><ele>394.33333333333337</ele><time>2026-04-29T13:32:55.169Z</time></trkpt><trkpt lat="40.1958357742223" lon="8.572619741482923"><ele>390.0</ele><time>2026-04-29T13:32:56.169Z</time></trkpt><trkpt lat="40.195698978605485" lon="8.572489181943277"><ele>392.66666666666663</ele><time>2026-04-29T13:32:57.169Z</time></trkpt><trkpt lat="40.19556954570342" lon="8.572354700532394"><ele>395.3333333333333</ele><time>2026-04-29T13:32:58.169Z</time></trkpt><trkpt lat="40.19544197929118" lon="8.572237112133687"><ele>398.0</ele><time>2026-04-29T13:32:59.169Z</time></trkpt><trkpt lat="40.19530847265295" lon="8.5721691267285"><ele>398.0</ele><time>2026-04-29T13:33:00.169Z</time></trkpt><trkpt lat="40.19517242398031" lon="8.572164084159626"><ele>398.0</ele><time>2026-04-29T13:33:01.169Z</time></trkpt><trkpt lat="40.195042190883264" lon="8.572239667466473"><ele>398.0</ele><time>2026-04-29T13:33:02.169Z</time></trkpt><trkpt lat="40.19492106839687" lon="8.572363458060988"><ele>398.0</ele><time>2026-04-29T13:33:03.169Z</time></trkpt><trkpt lat="40.194810413430375" lon="8.572523516806692"><ele>397.3333333333333</ele><time>2026-04-29T13:33:04.169Z</time></trkpt><trkpt lat="40.19469579455768" lon="8.572680256419343"><ele>396.66666666666663</ele><time>2026-04-29T13:33:05.169Z</time></trkpt><trkpt lat="40.19458168136579" lon="8.57283249105036"><ele>396.0</ele><time>2026-04-29T13:33:06.169Z</time></trkpt><trkpt lat="40.19446887069815" lon="8.57297615485493"><ele>399.25</ele><time>2026-04-29T13:33:07.169Z</time></trkpt><trkpt lat="40.194352088104864" lon="8.57311191525265"><ele>402.5</ele><time>2026-04-29T13:33:08.169Z</time></trkpt><trkpt lat="40.19422451315938" lon="8.573203364595441"><ele>405.75</ele><time>2026-04-29T13:33:09.169Z</time></trkpt><trkpt lat="40.194086342849246" lon="8.573230282664825"><ele>409.0</ele><time>2026-04-29T13:33:10.169Z</time></trkpt><trkpt lat="40.193956571108515" lon="8.57320359050805"><ele>409.79999999999995</ele><time>2026-04-29T13:33:11.169Z</time></trkpt><trkpt lat="40.19383070935861" lon="8.573171957664945"><ele>410.59999999999997</ele><time>2026-04-29T13:33:12.169Z</time></trkpt><trkpt lat="40.193708976536264" lon="8.57315448700256"><ele>411.4</ele><time>2026-04-29T13:33:13.169Z</time></trkpt><trkpt lat="40.19360435546582" lon="8.573138975423172"><ele>412.2</ele><time>2026-04-29T13:33:14.169Z</time></trkpt><trkpt lat="40.19352321722359" lon="8.57308811207438"><ele>413.0</ele><time>2026-04-29T13:33:15.169Z</time></trkpt><trkpt lat="40.193457384098885" lon="8.57301063518107"><ele>412.99999999999994</ele><time>2026-04-29T13:33:16.169Z</time></trkpt><trkpt lat="40.19340653786821" lon="8.572928735733047"><ele>413.0</ele><time>2026-04-29T13:33:17.169Z</time></trkpt><trkpt lat="40.19336864558531" lon="8.572850274111593"><ele>413.0</ele><time>2026-04-29T13:33:18.169Z</time></trkpt><trkpt lat="40.19334632323778" lon="8.572731542942904"><ele>413.0</ele><time>2026-04-29T13:33:20.169Z</time></trkpt><trkpt lat="40.19334168716779" lon="8.572624785821121"><ele>412.99999999999994</ele><time>2026-04-29T13:33:24.169Z</time></trkpt><trkpt lat="40.19337572415929" lon="8.572535588545305"><ele>413.0</ele><time>2026-04-29T13:33:26.169Z</time></trkpt><trkpt lat="40.19339956748196" lon="8.572407534716382"><ele>412.49999999999994</ele><time>2026-04-29T13:33:28.169Z</time></trkpt><trkpt lat="40.19340803262814" lon="8.572299845365134"><ele>412.0</ele><time>2026-04-29T13:33:29.169Z</time></trkpt><trkpt lat="40.19342047948726" lon="8.57220163116395"><ele>411.5</ele><time>2026-04-29T13:33:30.169Z</time></trkpt><trkpt lat="40.19343632517431" lon="8.572116725927868"><ele>411.0</ele><time>2026-04-29T13:33:31.169Z</time></trkpt><trkpt lat="40.193463605064395" lon="8.572001478748163"><ele>410.49999999999994</ele><time>2026-04-29T13:33:33.169Z</time></trkpt><trkpt lat="40.19342379565806" lon="8.571929168628984"><ele>410.0</ele><time>2026-04-29T13:38:30.17Z</time></trkpt><trkpt lat="40.193391622223274" lon="8.572042521741672"><ele>409.49999999999994</ele><time>2026-04-29T13:38:32.17Z</time></trkpt><trkpt lat="40.19339299903153" lon="8.572127849417756"><ele>409.0</ele><time>2026-04-29T13:38:33.17Z</time></trkpt><trkpt lat="40.19337605619106" lon="8.572281038067416"><ele>408.5</ele><time>2026-04-29T13:38:35.17Z</time></trkpt><trkpt lat="40.1933664038661" lon="8.572369338209157"><ele>408.0</ele><time>2026-04-29T13:38:36.17Z</time></trkpt><trkpt lat="40.19335737602361" lon="8.57246445465525"><ele>407.49999999999994</ele><time>2026-04-29T13:38:37.17Z</time></trkpt><trkpt lat="40.193347016002264" lon="8.57255377673834"><ele>407.0</ele><time>2026-04-29T13:38:38.17Z</time></trkpt><trkpt lat="40.19333241760234" lon="8.57265147168657"><ele>406.99999999999994</ele><time>2026-04-29T13:38:39.17Z</time></trkpt><trkpt lat="40.193308315445115" lon="8.572743296586939"><ele>407.0</ele><time>2026-04-29T13:38:40.17Z</time></trkpt><trkpt lat="40.19325904589067" lon="8.572820489366173"><ele>407.0</ele><time>2026-04-29T13:38:41.17Z</time></trkpt><trkpt lat="40.19320350446735" lon="8.572871068369789"><ele>407.0</ele><time>2026-04-29T13:38:42.17Z</time></trkpt><trkpt lat="40.193144822523585" lon="8.572939498176261"><ele>406.99999999999994</ele><time>2026-04-29T13:38:43.17Z</time></trkpt><trkpt lat="40.19310365621223" lon="8.573027112372012"><ele>407.0</ele><time>2026-04-29T13:38:44.17Z</time></trkpt><trkpt lat="40.19307679583326" lon="8.573121935566189"><ele>409.40000000000003</ele><time>2026-04-29T13:38:45.17Z</time></trkpt><trkpt lat="40.193071996866784" lon="8.573213882306494"><ele>411.8</ele><time>2026-04-29T13:38:46.17Z</time></trkpt><trkpt lat="40.19308755608201" lon="8.573303890435803"><ele>414.2</ele><time>2026-04-29T13:38:47.17Z</time></trkpt><trkpt lat="40.193124129612634" lon="8.573524111657122"><ele>416.6</ele><time>2026-04-29T13:38:50.17Z</time></trkpt><trkpt lat="40.19312414061964" lon="8.573650921717139"><ele>419.0</ele><time>2026-04-29T13:38:52.17Z</time></trkpt><trkpt lat="40.193101210419606" lon="8.573750014741893"><ele>420.49999999999994</ele><time>2026-04-29T13:38:54.17Z</time></trkpt><trkpt lat="40.193054419825685" lon="8.573826059259314"><ele>422.0</ele><time>2026-04-29T13:38:56.17Z</time></trkpt><trkpt lat="40.19300948899324" lon="8.573885817897226"><ele>423.5</ele><time>2026-04-29T13:39:00.17Z</time></trkpt><trkpt lat="40.19294443143026" lon="8.573924149130631"><ele>425.0</ele><time>2026-04-29T13:39:05.17Z</time></trkpt><trkpt lat="40.19283594067903" lon="8.574026034431013"><ele>426.49999999999994</ele><time>2026-04-29T13:39:07.17Z</time></trkpt><trkpt lat="40.192763992939724" lon="8.574089369877063"><ele>428.0</ele><time>2026-04-29T13:39:08.17Z</time></trkpt><trkpt lat="40.1926688241292" lon="8.574151110985053"><ele>428.0</ele><time>2026-04-29T13:39:09.17Z</time></trkpt><trkpt lat="40.19255960906456" lon="8.574200649949573"><ele>428.0</ele><time>2026-04-29T13:39:10.17Z</time></trkpt><trkpt lat="40.19243935599413" lon="8.574223509812525"><ele>428.0</ele><time>2026-04-29T13:39:11.17Z</time></trkpt><trkpt lat="40.19231760377363" lon="8.574237881389932"><ele>428.0</ele><time>2026-04-29T13:39:12.17Z</time></trkpt><trkpt lat="40.19218070032264" lon="8.574238761699602"><ele>428.75</ele><time>2026-04-29T13:39:13.17Z</time></trkpt><trkpt lat="40.192038338212264" lon="8.574233770001475"><ele>429.5</ele><time>2026-04-29T13:39:14.17Z</time></trkpt><trkpt lat="40.19188493263417" lon="8.574237477697581"><ele>430.25</ele><time>2026-04-29T13:39:15.17Z</time></trkpt><trkpt lat="40.19174559720726" lon="8.574234750700432"><ele>431.0</ele><time>2026-04-29T13:39:16.17Z</time></trkpt><trkpt lat="40.19161154310258" lon="8.574236229142805"><ele>431.75</ele><time>2026-04-29T13:39:17.17Z</time></trkpt><trkpt lat="40.191460082732824" lon="8.574237097583852"><ele>432.5</ele><time>2026-04-29T13:39:18.17Z</time></trkpt><trkpt lat="40.191310588423235" lon="8.574234315808875"><ele>433.25</ele><time>2026-04-29T13:39:19.17Z</time></trkpt><trkpt lat="40.19118436802255" lon="8.574226183911811"><ele>434.0</ele><time>2026-04-29T13:39:20.17Z</time></trkpt><trkpt lat="40.19108746878177" lon="8.574162668229729"><ele>434.0</ele><time>2026-04-29T13:39:21.17Z</time></trkpt><trkpt lat="40.191023445841" lon="8.57403597347508"><ele>434.0</ele><time>2026-04-29T13:39:22.17Z</time></trkpt><trkpt lat="40.191010908296406" lon="8.573882874040036"><ele>434.0</ele><time>2026-04-29T13:39:23.17Z</time></trkpt><trkpt lat="40.19105121109264" lon="8.573732235028263"><ele>434.0</ele><time>2026-04-29T13:39:24.17Z</time></trkpt><trkpt lat="40.191137390117454" lon="8.573599967538886"><ele>435.5</ele><time>2026-04-29T13:39:25.17Z</time></trkpt><trkpt lat="40.19125330343656" lon="8.573479506959035"><ele>437.0</ele><time>2026-04-29T13:39:26.17Z</time></trkpt><trkpt lat="40.19136452786819" lon="8.573370188383933"><ele>438.5</ele><time>2026-04-29T13:39:27.17Z</time></trkpt><trkpt lat="40.19144805318721" lon="8.573229727439925"><ele>440.0</ele><time>2026-04-29T13:39:28.17Z</time></trkpt><trkpt lat="40.191511038819996" lon="8.573074256914504"><ele>438.5</ele><time>2026-04-29T13:39:29.17Z</time></trkpt><trkpt lat="40.19155010561566" lon="8.572910013894989"><ele>437.0</ele><time>2026-04-29T13:39:30.17Z</time></trkpt><trkpt lat="40.19157216445982" lon="8.572740568662836"><ele>435.5</ele><time>2026-04-29T13:39:31.17Z</time></trkpt><trkpt lat="40.19157290585161" lon="8.57256863407324"><ele>434.0</ele><time>2026-04-29T13:39:32.17Z</time></trkpt><trkpt lat="40.1915699060137" lon="8.57240522781478"><ele>434.0</ele><time>2026-04-29T13:39:33.17Z</time></trkpt><trkpt lat="40.19156701340023" lon="8.57224706500234"><ele>434.0</ele><time>2026-04-29T13:39:34.17Z</time></trkpt><trkpt lat="40.19156093513818" lon="8.572099893841589"><ele>434.0</ele><time>2026-04-29T13:39:35.17Z</time></trkpt><trkpt lat="40.191554544649" lon="8.571986865581833"><ele>434.0</ele><time>2026-04-29T13:39:36.17Z</time></trkpt><trkpt lat="40.19153121101305" lon="8.571874698159329"><ele>434.0</ele><time>2026-04-29T13:39:37.17Z</time></trkpt><trkpt lat="40.19144900469488" lon="8.57178511700243"><ele>437.79999999999995</ele><time>2026-04-29T13:39:38.17Z</time></trkpt><trkpt lat="40.19135920311878" lon="8.571689037273789"><ele>441.59999999999997</ele><time>2026-04-29T13:39:39.17Z</time></trkpt><trkpt lat="40.19127021196841" lon="8.571591336784522"><ele>445.4</ele><time>2026-04-29T13:39:40.17Z</time></trkpt><trkpt lat="40.19120506605256" lon="8.571486098644687"><ele>449.2</ele><time>2026-04-29T13:39:41.17Z</time></trkpt><trkpt lat="40.1911441033903" lon="8.571369298315139"><ele>453.0</ele><time>2026-04-29T13:39:42.17Z</time></trkpt><trkpt lat="40.191085965359285" lon="8.571248517190377"><ele>452.79999999999995</ele><time>2026-04-29T13:39:43.17Z</time></trkpt><trkpt lat="40.191033470320406" lon="8.571122489683637"><ele>452.59999999999997</ele><time>2026-04-29T13:39:44.17Z</time></trkpt><trkpt lat="40.190993932014045" lon="8.570988705218458"><ele>452.40000000000003</ele><time>2026-04-29T13:39:45.17Z</time></trkpt><trkpt lat="40.190978261951905" lon="8.570843618032029"><ele>452.20000000000005</ele><time>2026-04-29T13:39:46.17Z</time></trkpt><trkpt lat="40.19100076138185" lon="8.570708957600269"><ele>452.0</ele><time>2026-04-29T13:39:47.17Z</time></trkpt><trkpt lat="40.191032461448785" lon="8.570566648767365"><ele>452.0</ele><time>2026-04-29T13:39:48.17Z</time></trkpt><trkpt lat="40.19106647353244" lon="8.570426386182586"><ele>452.0</ele><time>2026-04-29T13:39:49.17Z</time></trkpt><trkpt lat="40.19110650521311" lon="8.570284506753971"><ele>452.0</ele><time>2026-04-29T13:39:50.17Z</time></trkpt><trkpt lat="40.191140744322944" lon="8.570148547681761"><ele>452.0</ele><time>2026-04-29T13:39:51.17Z</time></trkpt><trkpt lat="40.19118490982675" lon="8.570011558504696"><ele>452.40000000000003</ele><time>2026-04-29T13:39:52.17Z</time></trkpt><trkpt lat="40.19122036671552" lon="8.569870547254798"><ele>452.80000000000007</ele><time>2026-04-29T13:39:53.17Z</time></trkpt><trkpt lat="40.19125498631923" lon="8.569732663239748"><ele>453.2</ele><time>2026-04-29T13:39:54.17Z</time></trkpt><trkpt lat="40.19128287665448" lon="8.569612434392551"><ele>453.6</ele><time>2026-04-29T13:39:55.17Z</time></trkpt><trkpt lat="40.19129643864254" lon="8.56949215267588"><ele>454.0</ele><time>2026-04-29T13:39:56.17Z</time></trkpt><trkpt lat="40.19130069854088" lon="8.569353019796822"><ele>454.00000000000006</ele><time>2026-04-29T13:39:57.17Z</time></trkpt><trkpt lat="40.19129063559139" lon="8.56923131118846"><ele>454.0</ele><time>2026-04-29T13:39:58.17Z</time></trkpt><trkpt lat="40.19127758981492" lon="8.569126480293596"><ele>454.0</ele><time>2026-04-29T13:39:59.17Z</time></trkpt><trkpt lat="40.191240892805034" lon="8.56905427583729"><ele>454.0</ele><time>2026-04-29T13:40:00.17Z</time></trkpt><trkpt lat="40.19120676606698" lon="8.568951601136224"><ele>454.00000000000006</ele><time>2026-04-29T13:40:01.17Z</time></trkpt><trkpt lat="40.19116896502235" lon="8.568847818929578"><ele>454.0</ele><time>2026-04-29T13:40:02.17Z</time></trkpt><trkpt lat="40.19112178490913" lon="8.568756986178045"><ele>453.00000000000006</ele><time>2026-04-29T13:40:03.17Z</time></trkpt><trkpt lat="40.19107169630759" lon="8.568669173840771"><ele>452.0</ele><time>2026-04-29T13:40:04.17Z</time></trkpt><trkpt lat="40.19100195461224" lon="8.568603929148878"><ele>451.0</ele><time>2026-04-29T13:40:05.17Z</time></trkpt><trkpt lat="40.19093966738308" lon="8.56854784793002"><ele>450.0</ele><time>2026-04-29T13:40:06.17Z</time></trkpt><trkpt lat="40.19086029033068" lon="8.568494347434935"><ele>449.00000000000006</ele><time>2026-04-29T13:40:07.17Z</time></trkpt><trkpt lat="40.19078655320768" lon="8.568443890511048"><ele>448.0</ele><time>2026-04-29T13:40:08.17Z</time></trkpt><trkpt lat="40.190705486690824" lon="8.568376716213379"><ele>448.4</ele><time>2026-04-29T13:40:09.171Z</time></trkpt><trkpt lat="40.190627361626824" lon="8.56830580972308"><ele>448.79999999999995</ele><time>2026-04-29T13:40:10.171Z</time></trkpt><trkpt lat="40.19054224969133" lon="8.568233451781886"><ele>449.2</ele><time>2026-04-29T13:40:11.171Z</time></trkpt><trkpt lat="40.19045983228846" lon="8.568177322741395"><ele>449.6</ele><time>2026-04-29T13:40:12.171Z</time></trkpt><trkpt lat="40.190379219941626" lon="8.568113858232598"><ele>450.0</ele><time>2026-04-29T13:40:13.171Z</time></trkpt><trkpt lat="40.190298952429806" lon="8.568060342545465"><ele>450.0</ele><time>2026-04-29T13:40:14.171Z</time></trkpt><trkpt lat="40.19021554889163" lon="8.56801957149771"><ele>450.0</ele><time>2026-04-29T13:40:15.171Z</time></trkpt><trkpt lat="40.19012965823699" lon="8.567982422380382"><ele>450.0</ele><time>2026-04-29T13:40:16.171Z</time></trkpt><trkpt lat="40.19002445629265" lon="8.567979445562106"><ele>450.0</ele><time>2026-04-29T13:40:17.171Z</time></trkpt><trkpt lat="40.18993138083547" lon="8.567946754596939"><ele>450.0</ele><time>2026-04-29T13:40:18.171Z</time></trkpt><trkpt lat="40.18984226354469" lon="8.56792238706358"><ele>451.2</ele><time>2026-04-29T13:40:19.171Z</time></trkpt><trkpt lat="40.189749792247696" lon="8.56788375687116"><ele>452.4</ele><time>2026-04-29T13:40:20.171Z</time></trkpt><trkpt lat="40.189656444277475" lon="8.5678574991828"><ele>453.6</ele><time>2026-04-29T13:40:21.171Z</time></trkpt><trkpt lat="40.189569008229306" lon="8.567875286210864"><ele>454.8</ele><time>2026-04-29T13:40:22.171Z</time></trkpt><trkpt lat="40.18948697300426" lon="8.567844374891566"><ele>456.0</ele><time>2026-04-29T13:40:23.171Z</time></trkpt><trkpt lat="40.18939596179899" lon="8.567829408272765"><ele>454.0</ele><time>2026-04-29T13:40:24.171Z</time></trkpt><trkpt lat="40.18931498844895" lon="8.5677956845995"><ele>452.0</ele><time>2026-04-29T13:40:25.171Z</time></trkpt><trkpt lat="40.18922153153356" lon="8.567754168942129"><ele>450.0</ele><time>2026-04-29T13:40:26.171Z</time></trkpt><trkpt lat="40.189138217848146" lon="8.567716709410893"><ele>448.0</ele><time>2026-04-29T13:40:27.171Z</time></trkpt><trkpt lat="40.189049752642" lon="8.56767161983798"><ele>446.0</ele><time>2026-04-29T13:40:28.171Z</time></trkpt><trkpt lat="40.188954707033346" lon="8.567622330747026"><ele>445.99999999999994</ele><time>2026-04-29T13:40:29.171Z</time></trkpt><trkpt lat="40.1888687057881" lon="8.567590037353012"><ele>446.0</ele><time>2026-04-29T13:40:30.171Z</time></trkpt><trkpt lat="40.18877825469641" lon="8.567552214647133"><ele>446.0</ele><time>2026-04-29T13:40:31.171Z</time></trkpt><trkpt lat="40.18868947493113" lon="8.56749907074373"><ele>446.0</ele><time>2026-04-29T13:40:32.171Z</time></trkpt><trkpt lat="40.18860345812761" lon="8.567472798015613"><ele>445.99999999999994</ele><time>2026-04-29T13:40:33.171Z</time></trkpt><trkpt lat="40.1885407198666" lon="8.567450114413374"><ele>446.0</ele><time>2026-04-29T13:40:34.171Z</time></trkpt><trkpt lat="40.18845870257379" lon="8.56746517642839"><ele>446.0</ele><time>2026-04-29T13:40:36.171Z</time></trkpt><trkpt lat="40.188329057135306" lon="8.567537813291661"><ele>446.0</ele><time>2026-04-29T13:40:38.171Z</time></trkpt><trkpt lat="40.18824660096578" lon="8.567582562762285"><ele>446.0</ele><time>2026-04-29T13:40:39.171Z</time></trkpt><trkpt lat="40.18815609563346" lon="8.567618993358026"><ele>446.0</ele><time>2026-04-29T13:40:40.171Z</time></trkpt><trkpt lat="40.1880614302086" lon="8.567655568762941"><ele>446.0</ele><time>2026-04-29T13:40:41.171Z</time></trkpt><trkpt lat="40.1879797898239" lon="8.567695078552871"><ele>445.4</ele><time>2026-04-29T13:40:42.171Z</time></trkpt><trkpt lat="40.18790545746806" lon="8.567761907760547"><ele>444.8</ele><time>2026-04-29T13:40:43.171Z</time></trkpt><trkpt lat="40.1878460565529" lon="8.567862003081416"><ele>444.19999999999993</ele><time>2026-04-29T13:40:44.171Z</time></trkpt><trkpt lat="40.18777878433199" lon="8.56794157820291"><ele>443.59999999999997</ele><time>2026-04-29T13:40:45.171Z</time></trkpt><trkpt lat="40.187692142046636" lon="8.568004278277934"><ele>443.0</ele><time>2026-04-29T13:40:46.171Z</time></trkpt><trkpt lat="40.187603193844964" lon="8.568069296459932"><ele>445.2</ele><time>2026-04-29T13:40:47.171Z</time></trkpt><trkpt lat="40.18752599945565" lon="8.568156862552538"><ele>447.4</ele><time>2026-04-29T13:40:48.171Z</time></trkpt><trkpt lat="40.18746747486349" lon="8.568267846017632"><ele>449.59999999999997</ele><time>2026-04-29T13:40:49.171Z</time></trkpt><trkpt lat="40.187410933399256" lon="8.568359460786578"><ele>451.79999999999995</ele><time>2026-04-29T13:40:50.171Z</time></trkpt><trkpt lat="40.187408021638475" lon="8.568464767561851"><ele>454.0</ele><time>2026-04-29T13:40:51.171Z</time></trkpt><trkpt lat="40.18739814220116" lon="8.568584837066616"><ele>454.0</ele><time>2026-04-29T13:40:52.171Z</time></trkpt><trkpt lat="40.18739962297795" lon="8.568749872310914"><ele>454.0</ele><time>2026-04-29T13:40:53.171Z</time></trkpt><trkpt lat="40.18739978259159" lon="8.568890500309749"><ele>454.0</ele><time>2026-04-29T13:40:54.171Z</time></trkpt><trkpt lat="40.18737451938835" lon="8.56901360587442"><ele>454.0</ele><time>2026-04-29T13:40:55.171Z</time></trkpt><trkpt lat="40.18734573920329" lon="8.569130386586398"><ele>454.0</ele><time>2026-04-29T13:40:56.171Z</time></trkpt><trkpt lat="40.187322867760805" lon="8.569252832377165"><ele>454.4</ele><time>2026-04-29T13:40:57.171Z</time></trkpt><trkpt lat="40.187326260764266" lon="8.569395317747636"><ele>454.79999999999995</ele><time>2026-04-29T13:40:58.171Z</time></trkpt><trkpt lat="40.18733205353973" lon="8.569521997604207"><ele>455.20000000000005</ele><time>2026-04-29T13:40:59.171Z</time></trkpt><trkpt lat="40.187343690362766" lon="8.569667323337466"><ele>455.6</ele><time>2026-04-29T13:41:00.171Z</time></trkpt><trkpt lat="40.18735621328607" lon="8.569787489494294"><ele>456.0</ele><time>2026-04-29T13:41:01.171Z</time></trkpt><trkpt lat="40.18736210396954" lon="8.569916691177179"><ele>456.0</ele><time>2026-04-29T13:41:02.171Z</time></trkpt><trkpt lat="40.18736349498701" lon="8.570024051152863"><ele>456.0</ele><time>2026-04-29T13:41:03.171Z</time></trkpt><trkpt lat="40.18735520131735" lon="8.57011974272544"><ele>456.0</ele><time>2026-04-29T13:41:04.171Z</time></trkpt><trkpt lat="40.18733636315688" lon="8.570218640654426"><ele>456.0</ele><time>2026-04-29T13:41:05.171Z</time></trkpt><trkpt lat="40.18730715918485" lon="8.570322703822864"><ele>456.0</ele><time>2026-04-29T13:41:06.171Z</time></trkpt><trkpt lat="40.18725670720122" lon="8.570427381977396"><ele>456.0</ele><time>2026-04-29T13:41:07.171Z</time></trkpt><trkpt lat="40.18720685482144" lon="8.570535796487766"><ele>454.8</ele><time>2026-04-29T13:41:08.171Z</time></trkpt><trkpt lat="40.18715105886684" lon="8.570648750091141"><ele>453.6</ele><time>2026-04-29T13:41:09.171Z</time></trkpt><trkpt lat="40.18708962915302" lon="8.570750254412955"><ele>452.4</ele><time>2026-04-29T13:41:10.171Z</time></trkpt><trkpt lat="40.187035699751625" lon="8.570842981757105"><ele>451.2</ele><time>2026-04-29T13:41:11.171Z</time></trkpt><trkpt lat="40.186984007559694" lon="8.570952307798876"><ele>450.0</ele><time>2026-04-29T13:41:12.171Z</time></trkpt><trkpt lat="40.18694056972118" lon="8.57107302291736"><ele>451.8</ele><time>2026-04-29T13:41:13.171Z</time></trkpt><trkpt lat="40.186903920424015" lon="8.571196252518385"><ele>453.6</ele><time>2026-04-29T13:41:14.171Z</time></trkpt><trkpt lat="40.18686355553864" lon="8.571329515816226"><ele>455.4</ele><time>2026-04-29T13:41:15.171Z</time></trkpt><trkpt lat="40.18682182557146" lon="8.57144539530609"><ele>457.2</ele><time>2026-04-29T13:41:16.171Z</time></trkpt><trkpt lat="40.18677948775264" lon="8.571575170943554"><ele>459.0</ele><time>2026-04-29T13:41:17.171Z</time></trkpt><trkpt lat="40.18672730205556" lon="8.571698885683901"><ele>459.0</ele><time>2026-04-29T13:41:18.171Z</time></trkpt><trkpt lat="40.18666904904507" lon="8.571812130357701"><ele>459.0</ele><time>2026-04-29T13:41:19.171Z</time></trkpt><trkpt lat="40.18657765910434" lon="8.571911009157127"><ele>459.0</ele><time>2026-04-29T13:41:20.171Z</time></trkpt><trkpt lat="40.18647499561335" lon="8.571981485766717"><ele>459.0</ele><time>2026-04-29T13:41:21.171Z</time></trkpt><trkpt lat="40.18638461964739" lon="8.572058188667866"><ele>459.0</ele><time>2026-04-29T13:41:22.171Z</time></trkpt><trkpt lat="40.18629024329917" lon="8.572149967530672"><ele>459.79999999999995</ele><time>2026-04-29T13:41:23.171Z</time></trkpt><trkpt lat="40.18619235407641" lon="8.572238377418437"><ele>460.59999999999997</ele><time>2026-04-29T13:41:24.171Z</time></trkpt><trkpt lat="40.18610373130224" lon="8.57231897410643"><ele>461.4</ele><time>2026-04-29T13:41:25.171Z</time></trkpt><trkpt lat="40.186018233692735" lon="8.572407464786982"><ele>462.2</ele><time>2026-04-29T13:41:26.171Z</time></trkpt><trkpt lat="40.185942073989715" lon="8.572510279299232"><ele>463.0</ele><time>2026-04-29T13:41:27.171Z</time></trkpt><trkpt lat="40.185871297319025" lon="8.572611817405928"><ele>463.0</ele><time>2026-04-29T13:41:28.17Z</time></trkpt><trkpt lat="40.185809718097836" lon="8.572719809437974"><ele>462.99999999999994</ele><time>2026-04-29T13:41:29.17Z</time></trkpt><trkpt lat="40.18575866131038" lon="8.572840788484053"><ele>462.99999999999994</ele><time>2026-04-29T13:41:30.17Z</time></trkpt><trkpt lat="40.18571036479239" lon="8.572965934192291"><ele>463.0</ele><time>2026-04-29T13:41:31.17Z</time></trkpt><trkpt lat="40.18566938145912" lon="8.573087812806905"><ele>463.0</ele><time>2026-04-29T13:41:32.17Z</time></trkpt><trkpt lat="40.18562555693518" lon="8.573231761812337"><ele>464.4</ele><time>2026-04-29T13:41:33.17Z</time></trkpt><trkpt lat="40.185558243926366" lon="8.573340535591722"><ele>465.79999999999995</ele><time>2026-04-29T13:41:34.17Z</time></trkpt><trkpt lat="40.18546996487923" lon="8.573419214827355"><ele>467.2</ele><time>2026-04-29T13:41:35.17Z</time></trkpt><trkpt lat="40.1853672677136" lon="8.573488195042158"><ele>468.6</ele><time>2026-04-29T13:41:36.17Z</time></trkpt><trkpt lat="40.18525104131521" lon="8.573517733625488"><ele>470.0</ele><time>2026-04-29T13:41:37.17Z</time></trkpt><trkpt lat="40.18512759821817" lon="8.573516510199012"><ele>470.0</ele><time>2026-04-29T13:41:38.17Z</time></trkpt><trkpt lat="40.18500448149953" lon="8.573484017654923"><ele>470.0</ele><time>2026-04-29T13:41:39.17Z</time></trkpt><trkpt lat="40.18487394253791" lon="8.573457682778372"><ele>470.0</ele><time>2026-04-29T13:41:40.17Z</time></trkpt><trkpt lat="40.184743684932876" lon="8.573431851309813"><ele>470.0</ele><time>2026-04-29T13:41:41.17Z</time></trkpt><trkpt lat="40.18462293954532" lon="8.573391687745437"><ele>469.8</ele><time>2026-04-29T13:41:42.17Z</time></trkpt><trkpt lat="40.184514286200766" lon="8.573361007420335"><ele>469.6</ele><time>2026-04-29T13:41:43.17Z</time></trkpt><trkpt lat="40.18441595769336" lon="8.573349260092172"><ele>469.4</ele><time>2026-04-29T13:41:44.17Z</time></trkpt><trkpt lat="40.184342411732985" lon="8.573395963549457"><ele>469.2</ele><time>2026-04-29T13:41:45.17Z</time></trkpt><trkpt lat="40.18431782472735" lon="8.573499888601834"><ele>469.0</ele><time>2026-04-29T13:41:46.17Z</time></trkpt><trkpt lat="40.18434669645546" lon="8.57360540952804"><ele>469.0</ele><time>2026-04-29T13:41:47.17Z</time></trkpt><trkpt lat="40.184425002074086" lon="8.573675165467472"><ele>469.0</ele><time>2026-04-29T13:41:48.17Z</time></trkpt><trkpt lat="40.18452693434702" lon="8.573696064849747"><ele>469.0</ele><time>2026-04-29T13:41:49.17Z</time></trkpt><trkpt lat="40.18464775163332" lon="8.573705335826467"><ele>469.0</ele><time>2026-04-29T13:41:50.17Z</time></trkpt><trkpt lat="40.18477160870933" lon="8.573737190319052"><ele>469.0</ele><time>2026-04-29T13:41:51.17Z</time></trkpt><trkpt lat="40.18489563679023" lon="8.57378363773214"><ele>473.0</ele><time>2026-04-29T13:41:52.17Z</time></trkpt><trkpt lat="40.18503193359109" lon="8.573857140933297"><ele>477.0</ele><time>2026-04-29T13:41:53.17Z</time></trkpt><trkpt lat="40.18515306901563" lon="8.573978967917753"><ele>481.0</ele><time>2026-04-29T13:41:54.17Z</time></trkpt><trkpt lat="40.18525132839858" lon="8.574123685174484"><ele>485.0</ele><time>2026-04-29T13:41:55.17Z</time></trkpt><trkpt lat="40.18533598490316" lon="8.574298232572653"><ele>485.0</ele><time>2026-04-29T13:41:56.17Z</time></trkpt><trkpt lat="40.18540356891043" lon="8.574408915964478"><ele>485.0</ele><time>2026-04-29T13:41:57.17Z</time></trkpt><trkpt lat="40.18550602590182" lon="8.574578669297681"><ele>485.0</ele><time>2026-04-29T13:41:58.17Z</time></trkpt><trkpt lat="40.18565326235107" lon="8.5746977862997"><ele>485.0</ele><time>2026-04-29T13:41:59.17Z</time></trkpt><trkpt lat="40.18582806597235" lon="8.574783567895638"><ele>486.5</ele><time>2026-04-29T13:42:00.17Z</time></trkpt><trkpt lat="40.18600052934332" lon="8.57486080590062"><ele>488.0</ele><time>2026-04-29T13:42:01.17Z</time></trkpt><trkpt lat="40.18613157904088" lon="8.57493144226346"><ele>489.5</ele><time>2026-04-29T13:42:02.17Z</time></trkpt><trkpt lat="40.18621156269126" lon="8.575008713080003"><ele>491.0</ele><time>2026-04-29T13:42:03.17Z</time></trkpt><trkpt lat="40.186237246785964" lon="8.575112041062681"><ele>491.0</ele><time>2026-04-29T13:42:04.17Z</time></trkpt><trkpt lat="40.18620294682268" lon="8.575222518208275"><ele>491.0</ele><time>2026-04-29T13:42:05.17Z</time></trkpt><trkpt lat="40.18611608801994" lon="8.575284704363996"><ele>491.0</ele><time>2026-04-29T13:42:06.17Z</time></trkpt><trkpt lat="40.18600183025705" lon="8.575292529026669"><ele>491.0</ele><time>2026-04-29T13:42:07.17Z</time></trkpt><trkpt lat="40.18587608263563" lon="8.575283840184785"><ele>491.0</ele><time>2026-04-29T13:42:08.17Z</time></trkpt><trkpt lat="40.18574643550261" lon="8.575280862132178"><ele>493.3333333333333</ele><time>2026-04-29T13:42:09.17Z</time></trkpt><trkpt lat="40.185601335292915" lon="8.5752760677805"><ele>495.66666666666663</ele><time>2026-04-29T13:42:10.17Z</time></trkpt><trkpt lat="40.18544428791703" lon="8.575253877716294"><ele>498.0</ele><time>2026-04-29T13:42:11.17Z</time></trkpt><trkpt lat="40.18529162129201" lon="8.57517089824814"><ele>498.0</ele><time>2026-04-29T13:42:12.17Z</time></trkpt><trkpt lat="40.18514786141383" lon="8.575058810467665"><ele>498.0</ele><time>2026-04-29T13:42:13.17Z</time></trkpt><trkpt lat="40.18500460231736" lon="8.574939142955756"><ele>498.0</ele><time>2026-04-29T13:42:14.171Z</time></trkpt><trkpt lat="40.18484895817743" lon="8.574828614098159"><ele>499.33333333333337</ele><time>2026-04-29T13:42:15.171Z</time></trkpt><trkpt lat="40.184702182318226" lon="8.574719698724586"><ele>500.6666666666667</ele><time>2026-04-29T13:42:16.171Z</time></trkpt><trkpt lat="40.18455749897406" lon="8.574611718199879"><ele>502.0</ele><time>2026-04-29T13:42:17.171Z</time></trkpt><trkpt lat="40.18441674519829" lon="8.574524371973341"><ele>502.0</ele><time>2026-04-29T13:42:18.17Z</time></trkpt><trkpt lat="40.184276524804474" lon="8.574508480665983"><ele>502.0</ele><time>2026-04-29T13:42:19.17Z</time></trkpt><trkpt lat="40.184172038200195" lon="8.574582060141092"><ele>502.0</ele><time>2026-04-29T13:42:20.171Z</time></trkpt><trkpt lat="40.18413337392812" lon="8.574734962135324"><ele>502.0</ele><time>2026-04-29T13:42:21.171Z</time></trkpt><trkpt lat="40.184149531490654" lon="8.574916010665916"><ele>502.0</ele><time>2026-04-29T13:42:22.171Z</time></trkpt><trkpt lat="40.184178040482536" lon="8.57510540456609"><ele>502.0</ele><time>2026-04-29T13:42:23.171Z</time></trkpt><trkpt lat="40.1841800439151" lon="8.575296500791122"><ele>502.0</ele><time>2026-04-29T13:42:24.171Z</time></trkpt><trkpt lat="40.18414180460742" lon="8.575488503994471"><ele>502.0</ele><time>2026-04-29T13:42:25.171Z</time></trkpt><trkpt lat="40.184077679382106" lon="8.575679636413453"><ele>500.75</ele><time>2026-04-29T13:42:26.171Z</time></trkpt><trkpt lat="40.18399506317707" lon="8.575841041517089"><ele>499.5</ele><time>2026-04-29T13:42:27.172Z</time></trkpt><trkpt lat="40.18392750564478" lon="8.57600142988726"><ele>498.25</ele><time>2026-04-29T13:42:28.172Z</time></trkpt><trkpt lat="40.183908914806324" lon="8.576140900373321"><ele>497.0</ele><time>2026-04-29T13:42:29.172Z</time></trkpt><trkpt lat="40.18395633414531" lon="8.576305377597008"><ele>501.75</ele><time>2026-04-29T13:42:30.172Z</time></trkpt><trkpt lat="40.18406301055401" lon="8.576432006796912"><ele>506.5</ele><time>2026-04-29T13:42:31.172Z</time></trkpt><trkpt lat="40.18417552277841" lon="8.576568909205985"><ele>511.25</ele><time>2026-04-29T13:42:32.172Z</time></trkpt><trkpt lat="40.18425364269009" lon="8.576735052895847"><ele>516.0</ele><time>2026-04-29T13:42:33.172Z</time></trkpt><trkpt lat="40.1843018410946" lon="8.576919453242644"><ele>517.25</ele><time>2026-04-29T13:42:34.172Z</time></trkpt><trkpt lat="40.18431290919738" lon="8.577102583325722"><ele>518.5</ele><time>2026-04-29T13:42:35.172Z</time></trkpt><trkpt lat="40.184282913040896" lon="8.577285784041404"><ele>519.75</ele><time>2026-04-29T13:42:36.172Z</time></trkpt><trkpt lat="40.184228243068304" lon="8.577450071552033"><ele>521.0</ele><time>2026-04-29T13:42:37.172Z</time></trkpt><trkpt lat="40.184182500484894" lon="8.577623833547538"><ele>521.0</ele><time>2026-04-29T13:42:38.172Z</time></trkpt><trkpt lat="40.184148577014376" lon="8.577792755542385"><ele>521.0</ele><time>2026-04-29T13:42:39.172Z</time></trkpt><trkpt lat="40.1840992521374" lon="8.57793170618718"><ele>521.0</ele><time>2026-04-29T13:42:40.172Z</time></trkpt><trkpt lat="40.1839952997135" lon="8.578030851843101"><ele>521.0</ele><time>2026-04-29T13:42:41.172Z</time></trkpt><trkpt lat="40.18385915813519" lon="8.578066256099198"><ele>526.6666666666666</ele><time>2026-04-29T13:42:42.172Z</time></trkpt><trkpt lat="40.1837196908131" lon="8.578072822111585"><ele>532.3333333333334</ele><time>2026-04-29T13:42:43.172Z</time></trkpt><trkpt lat="40.18356950023133" lon="8.578026609205414"><ele>538.0</ele><time>2026-04-29T13:42:44.172Z</time></trkpt><trkpt lat="40.183412062758" lon="8.57796883454025"><ele>538.0</ele><time>2026-04-29T13:42:45.172Z</time></trkpt><trkpt lat="40.18327072981985" lon="8.577883506820804"><ele>538.0</ele><time>2026-04-29T13:42:46.172Z</time></trkpt><trkpt lat="40.183158203028285" lon="8.57774641658609"><ele>538.0</ele><time>2026-04-29T13:42:47.172Z</time></trkpt><trkpt lat="40.183043980917404" lon="8.57758014286007"><ele>533.75</ele><time>2026-04-29T13:42:48.172Z</time></trkpt><trkpt lat="40.18293954813629" lon="8.577434918474914"><ele>529.5</ele><time>2026-04-29T13:42:49.172Z</time></trkpt><trkpt lat="40.18284566683975" lon="8.577328364325513"><ele>525.25</ele><time>2026-04-29T13:42:50.172Z</time></trkpt><trkpt lat="40.182765766026094" lon="8.57722752954255"><ele>521.0</ele><time>2026-04-29T13:42:51.172Z</time></trkpt><trkpt lat="40.18269595028512" lon="8.577179735979206"><ele>521.0</ele><time>2026-04-29T13:42:52.172Z</time></trkpt><trkpt lat="40.182630898609496" lon="8.577217569058984"><ele>521.0</ele><time>2026-04-29T13:42:53.172Z</time></trkpt><trkpt lat="40.18258924630392" lon="8.577343506925358"><ele>521.0</ele><time>2026-04-29T13:42:54.172Z</time></trkpt><trkpt lat="40.182601087615424" lon="8.577477966597371"><ele>521.0</ele><time>2026-04-29T13:42:55.172Z</time></trkpt><trkpt lat="40.1826795566811" lon="8.577607038547933"><ele>521.0</ele><time>2026-04-29T13:42:56.172Z</time></trkpt><trkpt lat="40.18276745077304" lon="8.577731826180628"><ele>524.5</ele><time>2026-04-29T13:42:57.172Z</time></trkpt><trkpt lat="40.18282815642805" lon="8.577891931598543"><ele>528.0</ele><time>2026-04-29T13:42:58.172Z</time></trkpt><trkpt lat="40.18286110991313" lon="8.578080135151923"><ele>531.5</ele><time>2026-04-29T13:42:59.172Z</time></trkpt><trkpt lat="40.18285708032482" lon="8.578282286549419"><ele>535.0</ele><time>2026-04-29T13:43:00.172Z</time></trkpt><trkpt lat="40.18281953492897" lon="8.57846016646789"><ele>535.0</ele><time>2026-04-29T13:43:01.172Z</time></trkpt><trkpt lat="40.18274655385303" lon="8.578622663328806"><ele>535.0</ele><time>2026-04-29T13:43:02.172Z</time></trkpt><trkpt lat="40.1826541490672" lon="8.578771560222878"><ele>535.0</ele><time>2026-04-29T13:43:03.172Z</time></trkpt><trkpt lat="40.1825505591933" lon="8.578864208625845"><ele>535.0</ele><time>2026-04-29T13:43:04.172Z</time></trkpt><trkpt lat="40.182434139907514" lon="8.578869318415611"><ele>536.6666666666667</ele><time>2026-04-29T13:43:05.172Z</time></trkpt><trkpt lat="40.182312500301265" lon="8.578776538049734"><ele>538.3333333333334</ele><time>2026-04-29T13:43:06.172Z</time></trkpt><trkpt lat="40.182201741210974" lon="8.578623362059965"><ele>540.0</ele><time>2026-04-29T13:43:07.172Z</time></trkpt><trkpt lat="40.182104539999266" lon="8.578457977718722"><ele>540.0</ele><time>2026-04-29T13:43:08.172Z</time></trkpt><trkpt lat="40.182030930187224" lon="8.57827513581064"><ele>540.0</ele><time>2026-04-29T13:43:09.172Z</time></trkpt><trkpt lat="40.18194611650942" lon="8.578127370470932"><ele>540.0</ele><time>2026-04-29T13:43:10.172Z</time></trkpt><trkpt lat="40.181818998084545" lon="8.578061389629909"><ele>540.0</ele><time>2026-04-29T13:43:11.172Z</time></trkpt><trkpt lat="40.18165779718947" lon="8.578058862072323"><ele>532.6666666666666</ele><time>2026-04-29T13:43:12.172Z</time></trkpt><trkpt lat="40.181497892089276" lon="8.578136388566246"><ele>525.3333333333333</ele><time>2026-04-29T13:43:13.172Z</time></trkpt><trkpt lat="40.18137168071905" lon="8.57828390726138"><ele>518.0</ele><time>2026-04-29T13:43:14.172Z</time></trkpt><trkpt lat="40.18129194070547" lon="8.578490441768913"><ele>526.0</ele><time>2026-04-29T13:43:15.172Z</time></trkpt><trkpt lat="40.18124190317129" lon="8.578713796261471"><ele>534.0</ele><time>2026-04-29T13:43:16.172Z</time></trkpt><trkpt lat="40.18119014853584" lon="8.578913131297837"><ele>542.0</ele><time>2026-04-29T13:43:17.172Z</time></trkpt><trkpt lat="40.18114362594316" lon="8.579115169422828"><ele>542.0</ele><time>2026-04-29T13:43:18.172Z</time></trkpt><trkpt lat="40.181112394764874" lon="8.579311048612855"><ele>542.0</ele><time>2026-04-29T13:43:19.172Z</time></trkpt><trkpt lat="40.181042734202265" lon="8.579456234315712"><ele>542.0</ele><time>2026-04-29T13:43:20.172Z</time></trkpt><trkpt lat="40.18094187588363" lon="8.579571295450815"><ele>542.0</ele><time>2026-04-29T13:43:21.172Z</time></trkpt><trkpt lat="40.1808153338034" lon="8.579643853885855"><ele>541.75</ele><time>2026-04-29T13:43:22.172Z</time></trkpt><trkpt lat="40.18067901434098" lon="8.579687942589828"><ele>541.5</ele><time>2026-04-29T13:43:23.172Z</time></trkpt><trkpt lat="40.18053965718589" lon="8.5797375479619"><ele>541.25</ele><time>2026-04-29T13:43:24.172Z</time></trkpt><trkpt lat="40.18041442822409" lon="8.57984632480873"><ele>541.0</ele><time>2026-04-29T13:43:25.172Z</time></trkpt><trkpt lat="40.18033616212459" lon="8.580039116196406"><ele>541.0</ele><time>2026-04-29T13:43:26.172Z</time></trkpt><trkpt lat="40.1803027320218" lon="8.580247743957562"><ele>541.0</ele><time>2026-04-29T13:43:27.172Z</time></trkpt><trkpt lat="40.18027179375644" lon="8.580479333652631"><ele>541.0</ele><time>2026-04-29T13:43:28.172Z</time></trkpt><trkpt lat="40.18025142665458" lon="8.580716027065783"><ele>545.3333333333334</ele><time>2026-04-29T13:43:29.172Z</time></trkpt><trkpt lat="40.18021767910706" lon="8.580938091343244"><ele>549.6666666666666</ele><time>2026-04-29T13:43:30.172Z</time></trkpt><trkpt lat="40.180182108116426" lon="8.581152693407708"><ele>554.0</ele><time>2026-04-29T13:43:31.172Z</time></trkpt><trkpt lat="40.1801403257338" lon="8.581367509023725"><ele>557.3333333333333</ele><time>2026-04-29T13:43:32.172Z</time></trkpt><trkpt lat="40.1800900892675" lon="8.581585975834788"><ele>560.6666666666666</ele><time>2026-04-29T13:43:33.172Z</time></trkpt><trkpt lat="40.1800124955191" lon="8.581792693512808"><ele>564.0</ele><time>2026-04-29T13:43:34.172Z</time></trkpt><trkpt lat="40.17993456735556" lon="8.582008459775798"><ele>560.3333333333334</ele><time>2026-04-29T13:43:35.172Z</time></trkpt><trkpt lat="40.179905145120536" lon="8.582248652611801"><ele>556.6666666666667</ele><time>2026-04-29T13:43:36.172Z</time></trkpt><trkpt lat="40.17989467808711" lon="8.582500769390368"><ele>553.0</ele><time>2026-04-29T13:43:37.171Z</time></trkpt><trkpt lat="40.17984864621457" lon="8.582738986545982"><ele>556.0</ele><time>2026-04-29T13:43:38.171Z</time></trkpt><trkpt lat="40.179797589315314" lon="8.582987555385936"><ele>559.0</ele><time>2026-04-29T13:43:39.171Z</time></trkpt><trkpt lat="40.17978296539474" lon="8.583235751627464"><ele>562.0</ele><time>2026-04-29T13:43:40.171Z</time></trkpt><trkpt lat="40.179797070525986" lon="8.583495218755012"><ele>565.3333333333334</ele><time>2026-04-29T13:43:41.171Z</time></trkpt><trkpt lat="40.17984694327209" lon="8.583764408333131"><ele>568.6666666666666</ele><time>2026-04-29T13:43:42.171Z</time></trkpt><trkpt lat="40.17987161970077" lon="8.58403632058525"><ele>572.0</ele><time>2026-04-29T13:43:43.171Z</time></trkpt><trkpt lat="40.17985847577043" lon="8.584304642965888"><ele>575.6666666666666</ele><time>2026-04-29T13:43:44.171Z</time></trkpt><trkpt lat="40.17983802931555" lon="8.584551009959595"><ele>579.3333333333334</ele><time>2026-04-29T13:43:45.171Z</time></trkpt><trkpt lat="40.17981825479519" lon="8.584770309695731"><ele>583.0</ele><time>2026-04-29T13:43:46.171Z</time></trkpt><trkpt lat="40.17979396008793" lon="8.58497129448819"><ele>583.0</ele><time>2026-04-29T13:43:47.171Z</time></trkpt><trkpt lat="40.17973322823298" lon="8.585140657353726"><ele>583.0</ele><time>2026-04-29T13:43:48.171Z</time></trkpt><trkpt lat="40.17963653358348" lon="8.58531244341701"><ele>583.0</ele><time>2026-04-29T13:43:49.171Z</time></trkpt><trkpt lat="40.17951892624798" lon="8.585450088794403"><ele>586.0</ele><time>2026-04-29T13:43:50.171Z</time></trkpt><trkpt lat="40.179396291079506" lon="8.585525558810101"><ele>589.0</ele><time>2026-04-29T13:43:51.171Z</time></trkpt><trkpt lat="40.179276277674674" lon="8.58551577188057"><ele>592.0</ele><time>2026-04-29T13:43:52.171Z</time></trkpt><trkpt lat="40.179139924493334" lon="8.585411276885859"><ele>595.0</ele><time>2026-04-29T13:43:53.171Z</time></trkpt><trkpt lat="40.17900339667957" lon="8.585299304216795"><ele>595.0</ele><time>2026-04-29T13:43:54.171Z</time></trkpt><trkpt lat="40.17888354051157" lon="8.585197987978532"><ele>595.0</ele><time>2026-04-29T13:43:55.171Z</time></trkpt><trkpt lat="40.178854972933294" lon="8.585060444019188"><ele>595.0</ele><time>2026-04-29T13:43:56.171Z</time></trkpt><trkpt lat="40.17888655420644" lon="8.584907376169937"><ele>595.0</ele><time>2026-04-29T13:43:57.171Z</time></trkpt><trkpt lat="40.178948439299674" lon="8.584729215368034"><ele>595.0</ele><time>2026-04-29T13:43:58.171Z</time></trkpt><trkpt lat="40.17892976576459" lon="8.584555942553228"><ele>595.0</ele><time>2026-04-29T13:43:59.171Z</time></trkpt><trkpt lat="40.178845329997685" lon="8.584373023652162"><ele>595.0</ele><time>2026-04-29T13:44:00.171Z</time></trkpt><trkpt lat="40.178683645029075" lon="8.58425298954962"><ele>592.6666666666667</ele><time>2026-04-29T13:44:01.171Z</time></trkpt><trkpt lat="40.17849687167704" lon="8.584208796665047"><ele>590.3333333333334</ele><time>2026-04-29T13:44:02.171Z</time></trkpt><trkpt lat="40.17832157365794" lon="8.584243443927011"><ele>588.0</ele><time>2026-04-29T13:44:03.171Z</time></trkpt><trkpt lat="40.17813968958337" lon="8.584315640611102"><ele>588.0</ele><time>2026-04-29T13:44:04.171Z</time></trkpt><trkpt lat="40.17796584669957" lon="8.584363489860094"><ele>588.0</ele><time>2026-04-29T13:44:05.171Z</time></trkpt><trkpt lat="40.177802986138346" lon="8.584389904389228"><ele>588.0</ele><time>2026-04-29T13:44:06.171Z</time></trkpt><trkpt lat="40.17764832692616" lon="8.584364795397905"><ele>588.0</ele><time>2026-04-29T13:44:07.171Z</time></trkpt><trkpt lat="40.177497130501386" lon="8.584285643077154"><ele>588.0</ele><time>2026-04-29T13:44:08.171Z</time></trkpt><trkpt lat="40.177356995107836" lon="8.584182857104746"><ele>588.0</ele><time>2026-04-29T13:44:09.171Z</time></trkpt><trkpt lat="40.177226679656" lon="8.584053471344333"><ele>589.3333333333334</ele><time>2026-04-29T13:44:10.171Z</time></trkpt><trkpt lat="40.177123136866705" lon="8.583884884672866"><ele>590.6666666666667</ele><time>2026-04-29T13:44:11.171Z</time></trkpt><trkpt lat="40.17704441416482" lon="8.583714192257238"><ele>592.0</ele><time>2026-04-29T13:44:12.171Z</time></trkpt><trkpt lat="40.17696567049114" lon="8.583565771251418"><ele>592.0</ele><time>2026-04-29T13:44:13.171Z</time></trkpt><trkpt lat="40.17688130920135" lon="8.583461726263325"><ele>592.0</ele><time>2026-04-29T13:44:14.171Z</time></trkpt><trkpt lat="40.17677878869256" lon="8.58341080267607"><ele>592.0</ele><time>2026-04-29T13:44:15.171Z</time></trkpt><trkpt lat="40.17667482266" lon="8.583414295994622"><ele>592.0</ele><time>2026-04-29T13:44:16.171Z</time></trkpt><trkpt lat="40.176591414839415" lon="8.58344335835941"><ele>592.0</ele><time>2026-04-29T13:44:17.171Z</time></trkpt><trkpt lat="40.17651249656958" lon="8.583500648299733"><ele>591.6</ele><time>2026-04-29T13:44:18.171Z</time></trkpt><trkpt lat="40.17643921548113" lon="8.583590598311904"><ele>591.2</ele><time>2026-04-29T13:44:19.171Z</time></trkpt><trkpt lat="40.17637948341178" lon="8.583703449393083"><ele>590.8</ele><time>2026-04-29T13:44:20.172Z</time></trkpt><trkpt lat="40.17634225575449" lon="8.58383781071449"><ele>590.4</ele><time>2026-04-29T13:44:21.172Z</time></trkpt><trkpt lat="40.17632116058725" lon="8.583982858914936"><ele>590.0</ele><time>2026-04-29T13:44:22.172Z</time></trkpt><trkpt lat="40.17632234460558" lon="8.584132623967903"><ele>590.0</ele><time>2026-04-29T13:44:23.172Z</time></trkpt><trkpt lat="40.17636391828462" lon="8.584309530935526"><ele>590.0</ele><time>2026-04-29T13:44:24.172Z</time></trkpt><trkpt lat="40.17642484939477" lon="8.58451876866951"><ele>590.0</ele><time>2026-04-29T13:44:25.172Z</time></trkpt><trkpt lat="40.17648130889627" lon="8.58478390727311"><ele>595.3333333333333</ele><time>2026-04-29T13:44:26.172Z</time></trkpt><trkpt lat="40.17653143811688" lon="8.585057652419806"><ele>600.6666666666666</ele><time>2026-04-29T13:44:27.172Z</time></trkpt><trkpt lat="40.17656991353003" lon="8.585341026266097"><ele>606.0</ele><time>2026-04-29T13:44:28.172Z</time></trkpt><trkpt lat="40.17660617817548" lon="8.585620851513811"><ele>607.6666666666666</ele><time>2026-04-29T13:44:29.172Z</time></trkpt><trkpt lat="40.176606762529346" lon="8.585907279385628"><ele>609.3333333333333</ele><time>2026-04-29T13:44:30.172Z</time></trkpt><trkpt lat="40.17658698673409" lon="8.586187158829086"><ele>611.0</ele><time>2026-04-29T13:44:31.172Z</time></trkpt><trkpt lat="40.17657439043033" lon="8.586461310745754"><ele>612.0</ele><time>2026-04-29T13:44:32.172Z</time></trkpt><trkpt lat="40.1765716709215" lon="8.586757335345943"><ele>613.0</ele><time>2026-04-29T13:44:33.171Z</time></trkpt><trkpt lat="40.17658522809602" lon="8.587029095231733"><ele>614.0</ele><time>2026-04-29T13:44:34.171Z</time></trkpt><trkpt lat="40.17659905841469" lon="8.58727086030489"><ele>614.75</ele><time>2026-04-29T13:44:35.171Z</time></trkpt><trkpt lat="40.17660045416864" lon="8.58748452482274"><ele>615.5</ele><time>2026-04-29T13:44:36.171Z</time></trkpt><trkpt lat="40.17656143124313" lon="8.587654074377827"><ele>616.25</ele><time>2026-04-29T13:44:37.171Z</time></trkpt><trkpt lat="40.176480204704205" lon="8.58778527893737"><ele>617.0</ele><time>2026-04-29T13:44:38.171Z</time></trkpt><trkpt lat="40.1763421573082" lon="8.58786604679821"><ele>617.0</ele><time>2026-04-29T13:44:39.171Z</time></trkpt><trkpt lat="40.176195833953706" lon="8.5879737797743"><ele>617.0</ele><time>2026-04-29T13:44:40.171Z</time></trkpt><trkpt lat="40.176070753125764" lon="8.588136006256008"><ele>617.0</ele><time>2026-04-29T13:44:41.171Z</time></trkpt><trkpt lat="40.17598369187058" lon="8.58834119448544"><ele>617.0</ele><time>2026-04-29T13:44:42.171Z</time></trkpt><trkpt lat="40.175933338945896" lon="8.588568149048433"><ele>617.0</ele><time>2026-04-29T13:44:43.171Z</time></trkpt><trkpt lat="40.175905541363136" lon="8.588800093222781"><ele>617.0</ele><time>2026-04-29T13:44:44.171Z</time></trkpt><trkpt lat="40.175913512706344" lon="8.589039294464921"><ele>619.6666666666666</ele><time>2026-04-29T13:44:45.171Z</time></trkpt><trkpt lat="40.175930764380304" lon="8.589265711000106"><ele>622.3333333333334</ele><time>2026-04-29T13:44:46.171Z</time></trkpt><trkpt lat="40.17590681924952" lon="8.58948832852142"><ele>625.0</ele><time>2026-04-29T13:44:47.171Z</time></trkpt><trkpt lat="40.17583023259186" lon="8.58969227719541"><ele>626.0</ele><time>2026-04-29T13:44:48.171Z</time></trkpt><trkpt lat="40.17573053726053" lon="8.589891358130838"><ele>627.0</ele><time>2026-04-29T13:44:49.171Z</time></trkpt><trkpt lat="40.175624939856355" lon="8.590095580024476"><ele>628.0</ele><time>2026-04-29T13:44:50.171Z</time></trkpt><trkpt lat="40.17552408142493" lon="8.590293928729404"><ele>630.6666666666667</ele><time>2026-04-29T13:44:51.171Z</time></trkpt><trkpt lat="40.17543408860284" lon="8.590480737809028"><ele>633.3333333333334</ele><time>2026-04-29T13:44:52.171Z</time></trkpt><trkpt lat="40.17536545985736" lon="8.590672690674364"><ele>636.0</ele><time>2026-04-29T13:44:53.171Z</time></trkpt><trkpt lat="40.17536048302033" lon="8.590913357502364"><ele>636.0</ele><time>2026-04-29T13:44:54.171Z</time></trkpt><trkpt lat="40.17537834730543" lon="8.591174605175535"><ele>636.0</ele><time>2026-04-29T13:44:55.171Z</time></trkpt><trkpt lat="40.175403384825195" lon="8.591428896386558"><ele>636.0</ele><time>2026-04-29T13:44:56.171Z</time></trkpt><trkpt lat="40.17540377359955" lon="8.59168823546415"><ele>636.0</ele><time>2026-04-29T13:44:57.171Z</time></trkpt><trkpt lat="40.17541535149046" lon="8.59195205889655"><ele>636.0</ele><time>2026-04-29T13:44:58.171Z</time></trkpt><trkpt lat="40.175444551895005" lon="8.592219199711572"><ele>636.0</ele><time>2026-04-29T13:44:59.171Z</time></trkpt><trkpt lat="40.175482981635454" lon="8.592501513708607"><ele>635.6666666666666</ele><time>2026-04-29T13:45:00.171Z</time></trkpt><trkpt lat="40.17552739227318" lon="8.592770554562968"><ele>635.3333333333333</ele><time>2026-04-29T13:45:01.171Z</time></trkpt><trkpt lat="40.17552214904847" lon="8.593026608821623"><ele>635.0</ele><time>2026-04-29T13:45:02.171Z</time></trkpt><trkpt lat="40.17550722459816" lon="8.59329022298187"><ele>637.0</ele><time>2026-04-29T13:45:03.171Z</time></trkpt><trkpt lat="40.1754782520698" lon="8.593555926124141"><ele>639.0</ele><time>2026-04-29T13:45:04.171Z</time></trkpt><trkpt lat="40.17542672394524" lon="8.593812507621164"><ele>641.0</ele><time>2026-04-29T13:45:05.171Z</time></trkpt><trkpt lat="40.175386839985975" lon="8.594083168388417"><ele>643.6666666666666</ele><time>2026-04-29T13:45:06.171Z</time></trkpt><trkpt lat="40.17534362774678" lon="8.59435785001731"><ele>646.3333333333334</ele><time>2026-04-29T13:45:07.171Z</time></trkpt><trkpt lat="40.175305121432224" lon="8.594629746361825"><ele>649.0</ele><time>2026-04-29T13:45:08.171Z</time></trkpt><trkpt lat="40.175282353063594" lon="8.594891593420991"><ele>650.75</ele><time>2026-04-29T13:45:09.171Z</time></trkpt><trkpt lat="40.17528250942812" lon="8.59512172613739"><ele>652.5</ele><time>2026-04-29T13:45:10.171Z</time></trkpt><trkpt lat="40.17529035872917" lon="8.595301134233448"><ele>654.25</ele><time>2026-04-29T13:45:11.171Z</time></trkpt><trkpt lat="40.17531303759193" lon="8.595431546482885"><ele>656.0</ele><time>2026-04-29T13:45:12.171Z</time></trkpt><trkpt lat="40.17538302725015" lon="8.595521155956963"><ele>656.0</ele><time>2026-04-29T13:45:13.171Z</time></trkpt><trkpt lat="40.175471369155865" lon="8.595527340624262"><ele>656.0</ele><time>2026-04-29T13:45:14.171Z</time></trkpt><trkpt lat="40.175528780078494" lon="8.595449150551767"><ele>656.0</ele><time>2026-04-29T13:45:15.171Z</time></trkpt><trkpt lat="40.1755472335395" lon="8.595306523887043"><ele>656.0</ele><time>2026-04-29T13:45:16.171Z</time></trkpt><trkpt lat="40.17552564230357" lon="8.595131430470845"><ele>656.0</ele><time>2026-04-29T13:45:17.171Z</time></trkpt><trkpt lat="40.17551639730434" lon="8.594951336704725"><ele>656.0</ele><time>2026-04-29T13:45:18.171Z</time></trkpt><trkpt lat="40.175549926674215" lon="8.594775094962952"><ele>656.0</ele><time>2026-04-29T13:45:19.171Z</time></trkpt><trkpt lat="40.175637051642184" lon="8.59461731745364"><ele>656.0</ele><time>2026-04-29T13:45:20.171Z</time></trkpt><trkpt lat="40.17575989354942" lon="8.594437535337649"><ele>659.6666666666666</ele><time>2026-04-29T13:45:21.171Z</time></trkpt><trkpt lat="40.17586972718608" lon="8.594263431316032"><ele>663.3333333333334</ele><time>2026-04-29T13:45:22.171Z</time></trkpt><trkpt lat="40.17599717147832" lon="8.594087186846536"><ele>667.0</ele><time>2026-04-29T13:45:23.171Z</time></trkpt><trkpt lat="40.17611536812435" lon="8.593889043820555"><ele>667.0</ele><time>2026-04-29T13:45:24.171Z</time></trkpt><trkpt lat="40.17623717436895" lon="8.593691942538968"><ele>667.0</ele><time>2026-04-29T13:45:25.171Z</time></trkpt><trkpt lat="40.17635313164271" lon="8.593490039090014"><ele>667.0</ele><time>2026-04-29T13:45:26.171Z</time></trkpt><trkpt lat="40.1764255496661" lon="8.593227637356797"><ele>664.0</ele><time>2026-04-29T13:45:27.171Z</time></trkpt><trkpt lat="40.176474178401456" lon="8.59293645897888"><ele>661.0</ele><time>2026-04-29T13:45:28.171Z</time></trkpt><trkpt lat="40.17648422572942" lon="8.592636399830464"><ele>660.5</ele><time>2026-04-29T13:45:29.171Z</time></trkpt><trkpt lat="40.17645757395756" lon="8.592400949509475"><ele>660.0</ele><time>2026-04-29T13:45:30.171Z</time></trkpt><trkpt lat="40.17646682768326" lon="8.592218485756169"><ele>659.5</ele><time>2026-04-29T13:45:31.171Z</time></trkpt><trkpt lat="40.17656677824561" lon="8.592157380114658"><ele>659.0</ele><time>2026-04-29T13:45:32.171Z</time></trkpt><trkpt lat="40.17667904592406" lon="8.592008215725714"><ele>662.75</ele><time>2026-04-29T13:45:33.171Z</time></trkpt><trkpt lat="40.17676426196222" lon="8.591836753556201"><ele>666.5</ele><time>2026-04-29T13:45:34.171Z</time></trkpt><trkpt lat="40.176824858359865" lon="8.59167218571237"><ele>670.25</ele><time>2026-04-29T13:45:35.171Z</time></trkpt><trkpt lat="40.176861230224794" lon="8.591555181542029"><ele>674.0</ele><time>2026-04-29T13:45:36.171Z</time></trkpt><trkpt lat="40.17691370867495" lon="8.591494571825159"><ele>674.0</ele><time>2026-04-29T13:45:37.171Z</time></trkpt><trkpt lat="40.17696988274063" lon="8.59160223698261"><ele>674.0</ele><time>2026-04-29T13:45:39.171Z</time></trkpt><trkpt lat="40.17690583104599" lon="8.591708541259177"><ele>674.0</ele><time>2026-04-29T13:45:40.171Z</time></trkpt><trkpt lat="40.17683180585209" lon="8.591798148101722"><ele>674.0</ele><time>2026-04-29T13:45:41.171Z</time></trkpt><trkpt lat="40.17674416370041" lon="8.59193919053337"><ele>674.0</ele><time>2026-04-29T13:45:42.171Z</time></trkpt><trkpt lat="40.176711805512504" lon="8.592138677867954"><ele>676.6666666666666</ele><time>2026-04-29T13:45:43.171Z</time></trkpt><trkpt lat="40.17666892712598" lon="8.592346693467825"><ele>679.3333333333334</ele><time>2026-04-29T13:45:44.171Z</time></trkpt><trkpt lat="40.1766388026313" lon="8.592571042419529"><ele>682.0</ele><time>2026-04-29T13:45:45.171Z</time></trkpt><trkpt lat="40.17667040918189" lon="8.592809753193889"><ele>683.5</ele><time>2026-04-29T13:45:46.171Z</time></trkpt><trkpt lat="40.17674058854822" lon="8.593079276749865"><ele>685.0</ele><time>2026-04-29T13:45:47.171Z</time></trkpt><trkpt lat="40.17685743811077" lon="8.593362782804839"><ele>685.0</ele><time>2026-04-29T13:45:48.171Z</time></trkpt><trkpt lat="40.1769341200616" lon="8.593628680003647"><ele>685.0</ele><time>2026-04-29T13:45:49.171Z</time></trkpt><trkpt lat="40.17700277157627" lon="8.593895566228422"><ele>685.0</ele><time>2026-04-29T13:45:50.171Z</time></trkpt><trkpt lat="40.177022627948794" lon="8.594168720000463"><ele>686.6666666666667</ele><time>2026-04-29T13:45:51.171Z</time></trkpt><trkpt lat="40.17700650729651" lon="8.594442754662866"><ele>688.3333333333334</ele><time>2026-04-29T13:45:52.171Z</time></trkpt><trkpt lat="40.17698493031529" lon="8.594704376152208"><ele>690.0</ele><time>2026-04-29T13:45:53.171Z</time></trkpt><trkpt lat="40.17694547793066" lon="8.594963971862953"><ele>692.3333333333334</ele><time>2026-04-29T13:45:54.171Z</time></trkpt><trkpt lat="40.176889697890374" lon="8.595216640320851"><ele>694.6666666666667</ele><time>2026-04-29T13:45:55.171Z</time></trkpt><trkpt lat="40.17683118369106" lon="8.59544824793004"><ele>697.0</ele><time>2026-04-29T13:45:56.171Z</time></trkpt><trkpt lat="40.1767593928545" lon="8.595651321900732"><ele>698.3333333333334</ele><time>2026-04-29T13:45:57.171Z</time></trkpt><trkpt lat="40.17669601633986" lon="8.59588324914268"><ele>699.6666666666666</ele><time>2026-04-29T13:45:58.171Z</time></trkpt><trkpt lat="40.17665976196718" lon="8.596147304260512"><ele>701.0</ele><time>2026-04-29T13:45:59.171Z</time></trkpt><trkpt lat="40.1766355964095" lon="8.596420397278804"><ele>704.0</ele><time>2026-04-29T13:46:00.171Z</time></trkpt><trkpt lat="40.176620533368244" lon="8.596688914052452"><ele>707.0</ele><time>2026-04-29T13:46:01.171Z</time></trkpt><trkpt lat="40.17664117379039" lon="8.596951666721754"><ele>710.0</ele><time>2026-04-29T13:46:02.171Z</time></trkpt><trkpt lat="40.17669381055718" lon="8.597189994335713"><ele>711.0</ele><time>2026-04-29T13:46:03.171Z</time></trkpt><trkpt lat="40.176745153352655" lon="8.597391553977902"><ele>712.0</ele><time>2026-04-29T13:46:04.171Z</time></trkpt><trkpt lat="40.176739347169615" lon="8.597572275407359"><ele>713.0</ele><time>2026-04-29T13:46:05.171Z</time></trkpt><trkpt lat="40.176681505274814" lon="8.597743352895652"><ele>714.0</ele><time>2026-04-29T13:46:06.171Z</time></trkpt><trkpt lat="40.17660950863676" lon="8.597924248273063"><ele>715.3333333333334</ele><time>2026-04-29T13:46:07.171Z</time></trkpt><trkpt lat="40.17657930024747" lon="8.598154852916648"><ele>716.6666666666667</ele><time>2026-04-29T13:46:08.171Z</time></trkpt><trkpt lat="40.17658238303638" lon="8.598402356600783"><ele>718.0</ele><time>2026-04-29T13:46:09.171Z</time></trkpt><trkpt lat="40.17664507342686" lon="8.598638873412463"><ele>719.0</ele><time>2026-04-29T13:46:10.171Z</time></trkpt><trkpt lat="40.17672923351185" lon="8.598877399685211"><ele>720.0</ele><time>2026-04-29T13:46:11.171Z</time></trkpt><trkpt lat="40.176765886183134" lon="8.599105757329195"><ele>721.0</ele><time>2026-04-29T13:46:12.171Z</time></trkpt><trkpt lat="40.176755116810114" lon="8.59934453072443"><ele>724.0</ele><time>2026-04-29T13:46:13.171Z</time></trkpt><trkpt lat="40.17674032954502" lon="8.599600049915978"><ele>727.0</ele><time>2026-04-29T13:46:14.171Z</time></trkpt><trkpt lat="40.17671288897782" lon="8.599857823438656"><ele>730.0</ele><time>2026-04-29T13:46:15.171Z</time></trkpt><trkpt lat="40.1766428202839" lon="8.60010433393833"><ele>733.3333333333334</ele><time>2026-04-29T13:46:16.171Z</time></trkpt><trkpt lat="40.1765652253852" lon="8.600349115226281"><ele>736.6666666666666</ele><time>2026-04-29T13:46:17.171Z</time></trkpt><trkpt lat="40.17649734240009" lon="8.60058036790995"><ele>740.0</ele><time>2026-04-29T13:46:18.171Z</time></trkpt><trkpt lat="40.176467128456906" lon="8.600805618252737"><ele>741.3333333333333</ele><time>2026-04-29T13:46:19.171Z</time></trkpt><trkpt lat="40.176474356226926" lon="8.601048686583663"><ele>742.6666666666666</ele><time>2026-04-29T13:46:20.171Z</time></trkpt><trkpt lat="40.17652187117344" lon="8.601276262379136"><ele>744.0</ele><time>2026-04-29T13:46:21.171Z</time></trkpt><trkpt lat="40.17656994353748" lon="8.601473925852575"><ele>744.0</ele><time>2026-04-29T13:46:22.171Z</time></trkpt><trkpt lat="40.176559769314856" lon="8.601664173955733"><ele>744.0</ele><time>2026-04-29T13:46:23.171Z</time></trkpt><trkpt lat="40.17650774289939" lon="8.601833869167107"><ele>744.0</ele><time>2026-04-29T13:46:24.171Z</time></trkpt><trkpt lat="40.176437402562755" lon="8.60204592022902"><ele>743.0</ele><time>2026-04-29T13:46:25.171Z</time></trkpt><trkpt lat="40.17635873990748" lon="8.60226970901932"><ele>742.0</ele><time>2026-04-29T13:46:26.172Z</time></trkpt><trkpt lat="40.17629123347875" lon="8.602453483348453"><ele>741.0</ele><time>2026-04-29T13:46:27.173Z</time></trkpt><trkpt lat="40.176219650555005" lon="8.602613167499374"><ele>741.0</ele><time>2026-04-29T13:46:28.173Z</time></trkpt><trkpt lat="40.17612103781247" lon="8.602724841746543"><ele>741.0</ele><time>2026-04-29T13:46:29.173Z</time></trkpt><trkpt lat="40.17599648655039" lon="8.602775494499056"><ele>741.0</ele><time>2026-04-29T13:46:30.172Z</time></trkpt><trkpt lat="40.17586859893853" lon="8.602760013529084"><ele>741.0</ele><time>2026-04-29T13:46:31.172Z</time></trkpt><trkpt lat="40.17572760979084" lon="8.602660889119122"><ele>742.6666666666666</ele><time>2026-04-29T13:46:32.173Z</time></trkpt><trkpt lat="40.175585490914" lon="8.602545451682026"><ele>744.3333333333333</ele><time>2026-04-29T13:46:33.172Z</time></trkpt><trkpt lat="40.17540310571532" lon="8.602452683051443"><ele>746.0</ele><time>2026-04-29T13:46:34.172Z</time></trkpt><trkpt lat="40.1752206204218" lon="8.602430038671775"><ele>746.0</ele><time>2026-04-29T13:46:35.173Z</time></trkpt><trkpt lat="40.175024010019904" lon="8.602433297447906"><ele>746.0</ele><time>2026-04-29T13:46:36.173Z</time></trkpt><trkpt lat="40.1748213340915" lon="8.60244218130816"><ele>746.0</ele><time>2026-04-29T13:46:37.173Z</time></trkpt><trkpt lat="40.17464182697056" lon="8.602470615427968"><ele>745.0</ele><time>2026-04-29T13:46:38.172Z</time></trkpt><trkpt lat="40.174485135187325" lon="8.60251509609219"><ele>744.0</ele><time>2026-04-29T13:46:39.173Z</time></trkpt><trkpt lat="40.17436335484075" lon="8.602565209130363"><ele>743.0</ele><time>2026-04-29T13:46:40.173Z</time></trkpt><trkpt lat="40.17429315813666" lon="8.602678246714724"><ele>742.0</ele><time>2026-04-29T13:46:41.173Z</time></trkpt><trkpt lat="40.17427308762052" lon="8.602832799252784"><ele>744.6666666666667</ele><time>2026-04-29T13:46:42.173Z</time></trkpt><trkpt lat="40.17428546563576" lon="8.603032701387047"><ele>747.3333333333334</ele><time>2026-04-29T13:46:43.173Z</time></trkpt><trkpt lat="40.17428517303187" lon="8.603273483471616"><ele>750.0</ele><time>2026-04-29T13:46:44.173Z</time></trkpt><trkpt lat="40.174298250395395" lon="8.603505323239512"><ele>751.6666666666666</ele><time>2026-04-29T13:46:45.173Z</time></trkpt><trkpt lat="40.174342984558784" lon="8.603726572857326"><ele>753.3333333333333</ele><time>2026-04-29T13:46:46.173Z</time></trkpt><trkpt lat="40.174407421014116" lon="8.603960156959868"><ele>755.0</ele><time>2026-04-29T13:46:47.173Z</time></trkpt><trkpt lat="40.174476045360656" lon="8.604186918012116"><ele>755.0</ele><time>2026-04-29T13:46:48.173Z</time></trkpt><trkpt lat="40.17450695983922" lon="8.604379490078863"><ele>755.0</ele><time>2026-04-29T13:46:49.173Z</time></trkpt><trkpt lat="40.17448723424775" lon="8.604559141504769"><ele>755.0</ele><time>2026-04-29T13:46:50.173Z</time></trkpt><trkpt lat="40.1744005850495" lon="8.604711386571077"><ele>755.0</ele><time>2026-04-29T13:46:51.173Z</time></trkpt><trkpt lat="40.17427143678294" lon="8.604831185821036"><ele>752.6666666666666</ele><time>2026-04-29T13:46:52.173Z</time></trkpt><trkpt lat="40.174143069499294" lon="8.604987632065447"><ele>750.3333333333334</ele><time>2026-04-29T13:46:53.173Z</time></trkpt><trkpt lat="40.17401212208636" lon="8.605165399973167"><ele>748.0</ele><time>2026-04-29T13:46:54.172Z</time></trkpt><trkpt lat="40.17389250641526" lon="8.605369861661304"><ele>752.6666666666667</ele><time>2026-04-29T13:46:55.172Z</time></trkpt><trkpt lat="40.17375599133343" lon="8.605578683811087"><ele>757.3333333333334</ele><time>2026-04-29T13:46:56.172Z</time></trkpt><trkpt lat="40.173627266967834" lon="8.605770439740047"><ele>762.0</ele><time>2026-04-29T13:46:57.172Z</time></trkpt><trkpt lat="40.17354178047393" lon="8.605972982332183"><ele>762.0</ele><time>2026-04-29T13:46:58.172Z</time></trkpt><trkpt lat="40.17346702418873" lon="8.60615775303259"><ele>762.0</ele><time>2026-04-29T13:46:59.172Z</time></trkpt><trkpt lat="40.1733512185698" lon="8.606321761438776"><ele>762.0</ele><time>2026-04-29T13:47:00.172Z</time></trkpt><trkpt lat="40.17320991875666" lon="8.606448835030509"><ele>764.0</ele><time>2026-04-29T13:47:01.172Z</time></trkpt><trkpt lat="40.17306060321519" lon="8.606591375343811"><ele>766.0</ele><time>2026-04-29T13:47:02.172Z</time></trkpt><trkpt lat="40.17290984317095" lon="8.606743991894634"><ele>768.0</ele><time>2026-04-29T13:47:03.172Z</time></trkpt><trkpt lat="40.172759470388485" lon="8.606917627047766"><ele>775.3333333333333</ele><time>2026-04-29T13:47:04.172Z</time></trkpt><trkpt lat="40.17259640738241" lon="8.607068025053144"><ele>782.6666666666666</ele><time>2026-04-29T13:47:05.172Z</time></trkpt><trkpt lat="40.17242474699689" lon="8.607207197432624"><ele>790.0</ele><time>2026-04-29T13:47:06.172Z</time></trkpt><trkpt lat="40.1722491630851" lon="8.607324786920717"><ele>790.25</ele><time>2026-04-29T13:47:07.172Z</time></trkpt><trkpt lat="40.1720891024965" lon="8.607414134716272"><ele>790.5</ele><time>2026-04-29T13:47:08.172Z</time></trkpt><trkpt lat="40.17196298078176" lon="8.607442507033939"><ele>790.75</ele><time>2026-04-29T13:47:09.172Z</time></trkpt><trkpt lat="40.17183679908445" lon="8.607412985769836"><ele>791.0</ele><time>2026-04-29T13:47:10.172Z</time></trkpt><trkpt lat="40.171733713049186" lon="8.607300399996014"><ele>791.0</ele><time>2026-04-29T13:47:11.172Z</time></trkpt><trkpt lat="40.17163917580577" lon="8.607142557769285"><ele>791.0</ele><time>2026-04-29T13:47:12.172Z</time></trkpt><trkpt lat="40.17151576439162" lon="8.606987742417887"><ele>791.0</ele><time>2026-04-29T13:47:13.172Z</time></trkpt><trkpt lat="40.17137914314369" lon="8.606852430778002"><ele>792.6666666666667</ele><time>2026-04-29T13:47:14.172Z</time></trkpt><trkpt lat="40.17123221834391" lon="8.60675901632361"><ele>794.3333333333333</ele><time>2026-04-29T13:47:15.172Z</time></trkpt><trkpt lat="40.171099131555145" lon="8.606634847292622"><ele>796.0</ele><time>2026-04-29T13:47:16.172Z</time></trkpt><trkpt lat="40.17099743125789" lon="8.606444795406572"><ele>796.0</ele><time>2026-04-29T13:47:17.172Z</time></trkpt><trkpt lat="40.17089253170756" lon="8.606246654504426"><ele>796.0</ele><time>2026-04-29T13:47:18.172Z</time></trkpt><trkpt lat="40.1707726000744" lon="8.606074770951714"><ele>796.0</ele><time>2026-04-29T13:47:19.172Z</time></trkpt><trkpt lat="40.1706232273506" lon="8.605883150125035"><ele>799.6666666666666</ele><time>2026-04-29T13:47:20.172Z</time></trkpt><trkpt lat="40.170480049234676" lon="8.605701003151227"><ele>803.3333333333333</ele><time>2026-04-29T13:47:21.172Z</time></trkpt><trkpt lat="40.17035937797308" lon="8.605511435718494"><ele>807.0</ele><time>2026-04-29T13:47:22.172Z</time></trkpt><trkpt lat="40.170270186563386" lon="8.605350355653009"><ele>807.0</ele><time>2026-04-29T13:47:23.172Z</time></trkpt><trkpt lat="40.170218996148435" lon="8.605216801168313"><ele>807.0</ele><time>2026-04-29T13:47:24.172Z</time></trkpt><trkpt lat="40.17016189183626" lon="8.605131462659804"><ele>807.0</ele><time>2026-04-29T13:47:25.172Z</time></trkpt><trkpt lat="40.17007691904349" lon="8.605130156970274"><ele>807.0</ele><time>2026-04-29T13:47:26.172Z</time></trkpt><trkpt lat="40.170022003897486" lon="8.605194748092652"><ele>807.0</ele><time>2026-04-29T13:47:27.172Z</time></trkpt><trkpt lat="40.17001677299269" lon="8.605308134049237"><ele>807.0</ele><time>2026-04-29T13:47:28.172Z</time></trkpt><trkpt lat="40.17006967435603" lon="8.605444087173277"><ele>807.0</ele><time>2026-04-29T13:47:29.172Z</time></trkpt><trkpt lat="40.17015744091842" lon="8.605599436770701"><ele>807.0</ele><time>2026-04-29T13:47:30.172Z</time></trkpt><trkpt lat="40.170244905730044" lon="8.60580292498613"><ele>807.0</ele><time>2026-04-29T13:47:31.172Z</time></trkpt><trkpt lat="40.17032602581347" lon="8.606005830363458"><ele>810.0</ele><time>2026-04-29T13:47:32.172Z</time></trkpt><trkpt lat="40.170412128879676" lon="8.606241774731409"><ele>813.0</ele><time>2026-04-29T13:47:33.172Z</time></trkpt><trkpt lat="40.17050757735645" lon="8.606489624382824"><ele>816.0</ele><time>2026-04-29T13:47:34.172Z</time></trkpt><trkpt lat="40.170587261505126" lon="8.606724555176267"><ele>816.0</ele><time>2026-04-29T13:47:35.172Z</time></trkpt><trkpt lat="40.17064365460867" lon="8.606916847909071"><ele>816.0</ele><time>2026-04-29T13:47:36.172Z</time></trkpt><trkpt lat="40.17070367897135" lon="8.607096961054426"><ele>816.0</ele><time>2026-04-29T13:47:37.172Z</time></trkpt><trkpt lat="40.17080269497977" lon="8.607237921732562"><ele>813.75</ele><time>2026-04-29T13:47:38.172Z</time></trkpt><trkpt lat="40.17093531753756" lon="8.607330310766482"><ele>811.5</ele><time>2026-04-29T13:47:39.172Z</time></trkpt><trkpt lat="40.17101676247943" lon="8.607397689945145"><ele>809.25</ele><time>2026-04-29T13:47:40.172Z</time></trkpt><trkpt lat="40.171090755346" lon="8.60751656726389"><ele>807.0</ele><time>2026-04-29T13:47:41.172Z</time></trkpt><trkpt lat="40.17107790364907" lon="8.607635709693678"><ele>807.0</ele><time>2026-04-29T13:47:42.172Z</time></trkpt><trkpt lat="40.1710037104435" lon="8.607723523315736"><ele>807.0</ele><time>2026-04-29T13:47:43.172Z</time></trkpt><trkpt lat="40.170899165817325" lon="8.607727504793708"><ele>807.0</ele><time>2026-04-29T13:47:44.172Z</time></trkpt><trkpt lat="40.17078763281084" lon="8.6076104046643"><ele>807.0</ele><time>2026-04-29T13:47:45.172Z</time></trkpt><trkpt lat="40.17071741692841" lon="8.607452403426596"><ele>810.0</ele><time>2026-04-29T13:47:46.172Z</time></trkpt><trkpt lat="40.17062175403957" lon="8.607259343036926"><ele>813.0</ele><time>2026-04-29T13:47:47.172Z</time></trkpt><trkpt lat="40.170510417378004" lon="8.60707417485447"><ele>816.0</ele><time>2026-04-29T13:47:48.172Z</time></trkpt><trkpt lat="40.17037926280638" lon="8.606884594257043"><ele>816.0</ele><time>2026-04-29T13:47:49.172Z</time></trkpt><trkpt lat="40.17025002050037" lon="8.606699305784112"><ele>816.0</ele><time>2026-04-29T13:47:50.172Z</time></trkpt><trkpt lat="40.170106138650716" lon="8.60651186433907"><ele>816.0</ele><time>2026-04-29T13:47:51.172Z</time></trkpt><trkpt lat="40.16995736619077" lon="8.606351443406272"><ele>817.3333333333333</ele><time>2026-04-29T13:47:52.172Z</time></trkpt><trkpt lat="40.169811094486846" lon="8.606249168449647"><ele>818.6666666666666</ele><time>2026-04-29T13:47:53.172Z</time></trkpt><trkpt lat="40.16966085079851" lon="8.606194190734735"><ele>820.0</ele><time>2026-04-29T13:47:54.172Z</time></trkpt><trkpt lat="40.169511819582446" lon="8.606199818105123"><ele>820.0</ele><time>2026-04-29T13:47:55.172Z</time></trkpt><trkpt lat="40.169372432468094" lon="8.60629266061309"><ele>820.0</ele><time>2026-04-29T13:47:56.172Z</time></trkpt><trkpt lat="40.16923894831833" lon="8.606452876266703"><ele>820.0</ele><time>2026-04-29T13:47:57.172Z</time></trkpt><trkpt lat="40.16910110689404" lon="8.606616105417794"><ele>822.0</ele><time>2026-04-29T13:47:58.172Z</time></trkpt><trkpt lat="40.16894042857455" lon="8.60676505460364"><ele>824.0</ele><time>2026-04-29T13:47:59.172Z</time></trkpt><trkpt lat="40.16876100731459" lon="8.606898665737804"><ele>826.0</ele><time>2026-04-29T13:48:00.172Z</time></trkpt><trkpt lat="40.16857731941983" lon="8.60701826721746"><ele>826.0</ele><time>2026-04-29T13:48:01.172Z</time></trkpt><trkpt lat="40.168400562946985" lon="8.607161676950255"><ele>826.0</ele><time>2026-04-29T13:48:02.172Z</time></trkpt><trkpt lat="40.168230042875585" lon="8.607335275259945"><ele>826.0</ele><time>2026-04-29T13:48:03.172Z</time></trkpt><trkpt lat="40.16807266070808" lon="8.607531404608771"><ele>820.0</ele><time>2026-04-29T13:48:04.172Z</time></trkpt><trkpt lat="40.167932377853106" lon="8.607758095919248"><ele>814.0</ele><time>2026-04-29T13:48:05.172Z</time></trkpt><trkpt lat="40.16781473777537" lon="8.608011773180257"><ele>814.0</ele><time>2026-04-29T13:48:06.172Z</time></trkpt><trkpt lat="40.16771859396631" lon="8.608265797866926"><ele>814.0</ele><time>2026-04-29T13:48:07.172Z</time></trkpt><trkpt lat="40.16765083628066" lon="8.608507768179482"><ele>814.0</ele><time>2026-04-29T13:48:08.172Z</time></trkpt><trkpt lat="40.16762524854758" lon="8.608747439457698"><ele>818.6666666666666</ele><time>2026-04-29T13:48:09.172Z</time></trkpt><trkpt lat="40.16761911096601" lon="8.608993182181848"><ele>823.3333333333333</ele><time>2026-04-29T13:48:10.172Z</time></trkpt><trkpt lat="40.167628052137125" lon="8.609262698400725"><ele>828.0</ele><time>2026-04-29T13:48:11.172Z</time></trkpt><trkpt lat="40.16761403922811" lon="8.609502979851841"><ele>829.6666666666667</ele><time>2026-04-29T13:48:12.172Z</time></trkpt><trkpt lat="40.16759180881018" lon="8.60974030562236"><ele>831.3333333333334</ele><time>2026-04-29T13:48:13.172Z</time></trkpt><trkpt lat="40.16758577715257" lon="8.609995128676108"><ele>833.0</ele><time>2026-04-29T13:48:14.172Z</time></trkpt><trkpt lat="40.1675572134397" lon="8.610250568399918"><ele>836.3333333333334</ele><time>2026-04-29T13:48:15.172Z</time></trkpt><trkpt lat="40.16750350387073" lon="8.610491679667854"><ele>839.6666666666667</ele><time>2026-04-29T13:48:16.172Z</time></trkpt><trkpt lat="40.167427556693646" lon="8.610718525143193"><ele>843.0</ele><time>2026-04-29T13:48:17.172Z</time></trkpt><trkpt lat="40.16733313040513" lon="8.610928966095043"><ele>835.3333333333333</ele><time>2026-04-29T13:48:18.172Z</time></trkpt><trkpt lat="40.167255086660305" lon="8.611151133959332"><ele>827.6666666666666</ele><time>2026-04-29T13:48:19.172Z</time></trkpt><trkpt lat="40.167195391611884" lon="8.611381295937516"><ele>820.0</ele><time>2026-04-29T13:48:20.172Z</time></trkpt><trkpt lat="40.16716135292305" lon="8.611614181319721"><ele>820.0</ele><time>2026-04-29T13:48:21.172Z</time></trkpt><trkpt lat="40.16713665830372" lon="8.611848498093403"><ele>820.0</ele><time>2026-04-29T13:48:22.172Z</time></trkpt><trkpt lat="40.16711629550884" lon="8.612068251866706"><ele>820.0</ele><time>2026-04-29T13:48:23.172Z</time></trkpt><trkpt lat="40.167084278793006" lon="8.612285969632378"><ele>825.3333333333333</ele><time>2026-04-29T13:48:24.172Z</time></trkpt><trkpt lat="40.167012344371734" lon="8.61248129556393"><ele>830.6666666666667</ele><time>2026-04-29T13:48:25.172Z</time></trkpt><trkpt lat="40.16692539052981" lon="8.612649381755917"><ele>836.0</ele><time>2026-04-29T13:48:26.172Z</time></trkpt><trkpt lat="40.166812122779994" lon="8.612805730476506"><ele>837.0</ele><time>2026-04-29T13:48:27.172Z</time></trkpt><trkpt lat="40.16668555752325" lon="8.612967977113701"><ele>838.0</ele><time>2026-04-29T13:48:28.172Z</time></trkpt><trkpt lat="40.16655564988285" lon="8.61310839265905"><ele>839.0</ele><time>2026-04-29T13:48:29.172Z</time></trkpt><trkpt lat="40.16641853826029" lon="8.613261868839947"><ele>839.0</ele><time>2026-04-29T13:48:30.172Z</time></trkpt><trkpt lat="40.16628886318256" lon="8.613405179913231"><ele>839.0</ele><time>2026-04-29T13:48:31.172Z</time></trkpt><trkpt lat="40.166153490900705" lon="8.613535094176758"><ele>839.0</ele><time>2026-04-29T13:48:32.174Z</time></trkpt><trkpt lat="40.166002548526656" lon="8.613618266553901"><ele>848.6666666666667</ele><time>2026-04-29T13:48:33.173Z</time></trkpt><trkpt lat="40.165840359106326" lon="8.613675203939291"><ele>858.3333333333333</ele><time>2026-04-29T13:48:34.173Z</time></trkpt><trkpt lat="40.165668601023945" lon="8.613698433733727"><ele>868.0</ele><time>2026-04-29T13:48:35.174Z</time></trkpt><trkpt lat="40.16548897606709" lon="8.613676905956762"><ele>861.0</ele><time>2026-04-29T13:48:36.173Z</time></trkpt><trkpt lat="40.16532462124548" lon="8.613560737600116"><ele>854.0</ele><time>2026-04-29T13:48:37.173Z</time></trkpt><trkpt lat="40.16515940048084" lon="8.61346990367138"><ele>847.0</ele><time>2026-04-29T13:48:38.173Z</time></trkpt><trkpt lat="40.16498203214079" lon="8.613428806230203"><ele>848.3333333333333</ele><time>2026-04-29T13:48:39.174Z</time></trkpt><trkpt lat="40.16479177055666" lon="8.613427460127717"><ele>849.6666666666667</ele><time>2026-04-29T13:48:40.174Z</time></trkpt><trkpt lat="40.16460782131199" lon="8.613453442535441"><ele>851.0</ele><time>2026-04-29T13:48:41.174Z</time></trkpt><trkpt lat="40.16442378490488" lon="8.613471182089462"><ele>851.0</ele><time>2026-04-29T13:48:42.174Z</time></trkpt><trkpt lat="40.16423894775972" lon="8.613469335720184"><ele>851.0</ele><time>2026-04-29T13:48:43.174Z</time></trkpt><trkpt lat="40.16405244583906" lon="8.613457478028186"><ele>851.0</ele><time>2026-04-29T13:48:44.174Z</time></trkpt><trkpt lat="40.16387108551788" lon="8.61350257330064"><ele>847.6666666666667</ele><time>2026-04-29T13:48:45.174Z</time></trkpt><trkpt lat="40.16372751972866" lon="8.613617117645385"><ele>844.3333333333333</ele><time>2026-04-29T13:48:46.174Z</time></trkpt><trkpt lat="40.1635945613082" lon="8.613748470543449"><ele>841.0</ele><time>2026-04-29T13:48:47.174Z</time></trkpt><trkpt lat="40.163475943771836" lon="8.613930428288352"><ele>842.3333333333333</ele><time>2026-04-29T13:48:48.174Z</time></trkpt><trkpt lat="40.163382704313165" lon="8.614125342053875"><ele>843.6666666666667</ele><time>2026-04-29T13:48:49.174Z</time></trkpt><trkpt lat="40.16326762025095" lon="8.614273510001375"><ele>845.0</ele><time>2026-04-29T13:48:50.174Z</time></trkpt><trkpt lat="40.163122609408795" lon="8.614354556124908"><ele>845.0</ele><time>2026-04-29T13:48:51.174Z</time></trkpt><trkpt lat="40.162943841946216" lon="8.614374046931013"><ele>845.0</ele><time>2026-04-29T13:48:52.174Z</time></trkpt><trkpt lat="40.16277937585993" lon="8.614415788777123"><ele>845.0</ele><time>2026-04-29T13:48:53.174Z</time></trkpt><trkpt lat="40.16264840011722" lon="8.614513725030267"><ele>851.0</ele><time>2026-04-29T13:48:54.174Z</time></trkpt><trkpt lat="40.16254997565171" lon="8.614686626649421"><ele>857.0</ele><time>2026-04-29T13:48:55.174Z</time></trkpt><trkpt lat="40.162520763860535" lon="8.614903056201594"><ele>863.0</ele><time>2026-04-29T13:48:56.174Z</time></trkpt><trkpt lat="40.16252984481551" lon="8.615102605150927"><ele>863.0</ele><time>2026-04-29T13:48:57.174Z</time></trkpt><trkpt lat="40.162595973406965" lon="8.615306422101817"><ele>863.0</ele><time>2026-04-29T13:48:58.174Z</time></trkpt><trkpt lat="40.1626295907368" lon="8.615480248987016"><ele>863.0</ele><time>2026-04-29T13:48:59.174Z</time></trkpt><trkpt lat="40.16264051464335" lon="8.6156256028874"><ele>863.0</ele><time>2026-04-29T13:49:00.174Z</time></trkpt><trkpt lat="40.162552581443094" lon="8.615812716852258"><ele>867.0</ele><time>2026-04-29T13:49:01.174Z</time></trkpt><trkpt lat="40.162443428316614" lon="8.61597306241661"><ele>871.0</ele><time>2026-04-29T13:49:02.174Z</time></trkpt><trkpt lat="40.16234292423475" lon="8.616134575611362"><ele>875.0</ele><time>2026-04-29T13:49:03.174Z</time></trkpt><trkpt lat="40.16232672866702" lon="8.616317344617187"><ele>876.3333333333334</ele><time>2026-04-29T13:49:04.174Z</time></trkpt><trkpt lat="40.16234682323108" lon="8.616543309283776"><ele>877.6666666666667</ele><time>2026-04-29T13:49:05.174Z</time></trkpt><trkpt lat="40.162395353646374" lon="8.616758955996811"><ele>879.0</ele><time>2026-04-29T13:49:06.174Z</time></trkpt><trkpt lat="40.16247529204849" lon="8.616971908847077"><ele>878.0</ele><time>2026-04-29T13:49:07.174Z</time></trkpt><trkpt lat="40.16258765496434" lon="8.617133459002066"><ele>877.0</ele><time>2026-04-29T13:49:08.174Z</time></trkpt><trkpt lat="40.16262040294665" lon="8.617294233424877"><ele>876.0</ele><time>2026-04-29T13:49:09.174Z</time></trkpt><trkpt lat="40.16259012151027" lon="8.617512551731936"><ele>876.0</ele><time>2026-04-29T13:49:10.174Z</time></trkpt><trkpt lat="40.16255875375966" lon="8.61770665057897"><ele>876.0</ele><time>2026-04-29T13:49:11.174Z</time></trkpt><trkpt lat="40.16255583373789" lon="8.617917285189844"><ele>876.0</ele><time>2026-04-29T13:49:12.174Z</time></trkpt><trkpt lat="40.16259549665299" lon="8.618148089932472"><ele>875.6666666666667</ele><time>2026-04-29T13:49:13.174Z</time></trkpt><trkpt lat="40.16266303255231" lon="8.618419676377815"><ele>875.3333333333334</ele><time>2026-04-29T13:49:14.174Z</time></trkpt><trkpt lat="40.16270865627595" lon="8.618682186238026"><ele>875.0</ele><time>2026-04-29T13:49:15.174Z</time></trkpt><trkpt lat="40.162766798392816" lon="8.61895981010659"><ele>875.0</ele><time>2026-04-29T13:49:16.174Z</time></trkpt><trkpt lat="40.16281845756146" lon="8.619233279968668"><ele>875.0</ele><time>2026-04-29T13:49:17.174Z</time></trkpt><trkpt lat="40.16286934318145" lon="8.619492987533153"><ele>875.0</ele><time>2026-04-29T13:49:18.174Z</time></trkpt><trkpt lat="40.16291066812327" lon="8.619773421570187"><ele>877.3333333333334</ele><time>2026-04-29T13:49:19.174Z</time></trkpt><trkpt lat="40.162933473236215" lon="8.620055217076802"><ele>879.6666666666667</ele><time>2026-04-29T13:49:20.174Z</time></trkpt><trkpt lat="40.162952859098134" lon="8.620338950229938"><ele>882.0</ele><time>2026-04-29T13:49:21.174Z</time></trkpt><trkpt lat="40.162955701554495" lon="8.620624927089086"><ele>883.3333333333333</ele><time>2026-04-29T13:49:22.174Z</time></trkpt><trkpt lat="40.16297754277261" lon="8.62090702890956"><ele>884.6666666666666</ele><time>2026-04-29T13:49:23.174Z</time></trkpt><trkpt lat="40.16301047049221" lon="8.621156778252953"><ele>886.0</ele><time>2026-04-29T13:49:24.174Z</time></trkpt><trkpt lat="40.16307135550497" lon="8.621408877405482"><ele>888.3333333333333</ele><time>2026-04-29T13:49:25.174Z</time></trkpt><trkpt lat="40.16314022895205" lon="8.621667998267881"><ele>890.6666666666667</ele><time>2026-04-29T13:49:26.174Z</time></trkpt><trkpt lat="40.16317934102058" lon="8.621935107871138"><ele>893.0</ele><time>2026-04-29T13:49:27.174Z</time></trkpt><trkpt lat="40.163221615500184" lon="8.622214071560077"><ele>888.0</ele><time>2026-04-29T13:49:28.174Z</time></trkpt><trkpt lat="40.163226173810855" lon="8.622505079785025"><ele>883.0</ele><time>2026-04-29T13:49:29.174Z</time></trkpt><trkpt lat="40.163221574008844" lon="8.622788251979442"><ele>878.0</ele><time>2026-04-29T13:49:30.174Z</time></trkpt><trkpt lat="40.16324847088856" lon="8.623053732666436"><ele>878.0</ele><time>2026-04-29T13:49:31.174Z</time></trkpt><trkpt lat="40.163314770077186" lon="8.623320885759743"><ele>878.0</ele><time>2026-04-29T13:49:32.174Z</time></trkpt><trkpt lat="40.16337562942744" lon="8.623544307366071"><ele>878.0</ele><time>2026-04-29T13:49:33.174Z</time></trkpt><trkpt lat="40.16345968583006" lon="8.623709763201077"><ele>879.6666666666667</ele><time>2026-04-29T13:49:34.174Z</time></trkpt><trkpt lat="40.16359036805699" lon="8.623865667218551"><ele>881.3333333333333</ele><time>2026-04-29T13:49:35.174Z</time></trkpt><trkpt lat="40.16375433134802" lon="8.624013294326037"><ele>883.0</ele><time>2026-04-29T13:49:36.174Z</time></trkpt><trkpt lat="40.163916489766386" lon="8.62417115510131"><ele>883.6666666666666</ele><time>2026-04-29T13:49:37.174Z</time></trkpt><trkpt lat="40.16408302426341" lon="8.624342211430433"><ele>884.3333333333333</ele><time>2026-04-29T13:49:38.174Z</time></trkpt><trkpt lat="40.1642508727562" lon="8.624513727034312"><ele>885.0</ele><time>2026-04-29T13:49:39.174Z</time></trkpt><trkpt lat="40.16441899677376" lon="8.62468358189144"><ele>885.0</ele><time>2026-04-29T13:49:40.174Z</time></trkpt><trkpt lat="40.164581544349815" lon="8.624846000000948"><ele>885.0</ele><time>2026-04-29T13:49:41.174Z</time></trkpt><trkpt lat="40.164744670335345" lon="8.62501593812678"><ele>885.0</ele><time>2026-04-29T13:49:42.174Z</time></trkpt><trkpt lat="40.16488604452456" lon="8.625189331466757"><ele>882.6666666666667</ele><time>2026-04-29T13:49:43.173Z</time></trkpt><trkpt lat="40.164982090773584" lon="8.625372722328478"><ele>880.3333333333334</ele><time>2026-04-29T13:49:44.173Z</time></trkpt><trkpt lat="40.16502953024626" lon="8.62561013227366"><ele>878.0</ele><time>2026-04-29T13:49:45.173Z</time></trkpt><trkpt lat="40.16503050113664" lon="8.625884168736043"><ele>876.5</ele><time>2026-04-29T13:49:46.173Z</time></trkpt><trkpt lat="40.1650349450152" lon="8.626178055047525"><ele>875.0</ele><time>2026-04-29T13:49:47.173Z</time></trkpt><trkpt lat="40.16506329420492" lon="8.626474175493511"><ele>875.0</ele><time>2026-04-29T13:49:48.173Z</time></trkpt><trkpt lat="40.16512790655887" lon="8.626760548335985"><ele>875.0</ele><time>2026-04-29T13:49:49.173Z</time></trkpt><trkpt lat="40.16522467492114" lon="8.62703039971085"><ele>876.0</ele><time>2026-04-29T13:49:50.173Z</time></trkpt><trkpt lat="40.16534162675143" lon="8.627294344104952"><ele>877.0</ele><time>2026-04-29T13:49:51.173Z</time></trkpt><trkpt lat="40.16545418849586" lon="8.627555837360983"><ele>879.0</ele><time>2026-04-29T13:49:52.173Z</time></trkpt><trkpt lat="40.16556825882668" lon="8.627833248913435"><ele>881.0</ele><time>2026-04-29T13:49:53.173Z</time></trkpt><trkpt lat="40.165675491126144" lon="8.628113166625669"><ele>874.6666666666667</ele><time>2026-04-29T13:49:54.173Z</time></trkpt><trkpt lat="40.165773501157986" lon="8.628381675325896"><ele>868.3333333333333</ele><time>2026-04-29T13:49:55.173Z</time></trkpt><trkpt lat="40.16586942435704" lon="8.628637054084884"><ele>862.0</ele><time>2026-04-29T13:49:56.173Z</time></trkpt><trkpt lat="40.16595615237697" lon="8.628910555197251"><ele>862.0</ele><time>2026-04-29T13:49:57.173Z</time></trkpt><trkpt lat="40.166017080242305" lon="8.629206413602436"><ele>862.0</ele><time>2026-04-29T13:49:58.173Z</time></trkpt><trkpt lat="40.16608421356644" lon="8.629504789382297"><ele>862.5</ele><time>2026-04-29T13:49:59.173Z</time></trkpt><trkpt lat="40.166160571588364" lon="8.62979010293261"><ele>863.0</ele><time>2026-04-29T13:50:00.173Z</time></trkpt><trkpt lat="40.16625327029051" lon="8.630071056276309"><ele>863.0</ele><time>2026-04-29T13:50:01.173Z</time></trkpt><trkpt lat="40.1663406814361" lon="8.630326284482798"><ele>863.0</ele><time>2026-04-29T13:50:02.173Z</time></trkpt><trkpt lat="40.16642824271287" lon="8.630542501671693"><ele>863.0</ele><time>2026-04-29T13:50:03.173Z</time></trkpt><trkpt lat="40.166512837630165" lon="8.63072028855646"><ele>859.6666666666667</ele><time>2026-04-29T13:50:04.173Z</time></trkpt><trkpt lat="40.1666482546252" lon="8.630862137869606"><ele>856.3333333333333</ele><time>2026-04-29T13:50:05.173Z</time></trkpt><trkpt lat="40.16684146919544" lon="8.63091622075167"><ele>853.0</ele><time>2026-04-29T13:50:06.173Z</time></trkpt><trkpt lat="40.167047590116155" lon="8.630910975799315"><ele>853.0</ele><time>2026-04-29T13:50:07.173Z</time></trkpt><trkpt lat="40.16725618033501" lon="8.63083925519238"><ele>853.0</ele><time>2026-04-29T13:50:08.173Z</time></trkpt><trkpt lat="40.16746325148333" lon="8.63074060847181"><ele>853.0</ele><time>2026-04-29T13:50:09.173Z</time></trkpt><trkpt lat="40.167663590108965" lon="8.63064848257934"><ele>852.6666666666666</ele><time>2026-04-29T13:50:10.173Z</time></trkpt><trkpt lat="40.1678681500047" lon="8.63057719633629"><ele>852.3333333333333</ele><time>2026-04-29T13:50:11.173Z</time></trkpt><trkpt lat="40.16808731581668" lon="8.630506337792545"><ele>852.0</ele><time>2026-04-29T13:50:12.173Z</time></trkpt><trkpt lat="40.16830138959901" lon="8.630432243366517"><ele>852.6666666666667</ele><time>2026-04-29T13:50:13.173Z</time></trkpt><trkpt lat="40.168492809764864" lon="8.630356058961505"><ele>853.3333333333334</ele><time>2026-04-29T13:50:14.173Z</time></trkpt><trkpt lat="40.168662399351426" lon="8.630272016262655"><ele>854.0</ele><time>2026-04-29T13:50:15.173Z</time></trkpt><trkpt lat="40.168816385417706" lon="8.630209394334019"><ele>852.0</ele><time>2026-04-29T13:50:16.173Z</time></trkpt><trkpt lat="40.16893611953618" lon="8.630175449847991"><ele>850.0</ele><time>2026-04-29T13:50:17.173Z</time></trkpt><trkpt lat="40.16903992486023" lon="8.63024643161443"><ele>848.0</ele><time>2026-04-29T13:50:18.173Z</time></trkpt><trkpt lat="40.16911035951684" lon="8.63041769325846"><ele>846.0</ele><time>2026-04-29T13:50:19.173Z</time></trkpt><trkpt lat="40.16916997449637" lon="8.630636268085228"><ele>846.0</ele><time>2026-04-29T13:50:20.173Z</time></trkpt><trkpt lat="40.1692246881095" lon="8.630895230851062"><ele>846.0</ele><time>2026-04-29T13:50:21.173Z</time></trkpt><trkpt lat="40.16926657136705" lon="8.631143277803993"><ele>846.0</ele><time>2026-04-29T13:50:22.173Z</time></trkpt><trkpt lat="40.16930864440739" lon="8.63143986532004"><ele>847.3333333333333</ele><time>2026-04-29T13:50:23.173Z</time></trkpt><trkpt lat="40.169364360775496" lon="8.631708552204511"><ele>848.6666666666666</ele><time>2026-04-29T13:50:24.173Z</time></trkpt><trkpt lat="40.16944394880317" lon="8.631969627413786"><ele>850.0</ele><time>2026-04-29T13:50:25.173Z</time></trkpt><trkpt lat="40.169537373341385" lon="8.632234898506013"><ele>851.0</ele><time>2026-04-29T13:50:26.173Z</time></trkpt><trkpt lat="40.169615620746804" lon="8.632499492522264"><ele>852.0</ele><time>2026-04-29T13:50:27.173Z</time></trkpt><trkpt lat="40.16970585394553" lon="8.632773819344395"><ele>853.0</ele><time>2026-04-29T13:50:28.173Z</time></trkpt><trkpt lat="40.16979588727355" lon="8.633052365696445"><ele>846.0</ele><time>2026-04-29T13:50:29.173Z</time></trkpt><trkpt lat="40.169897819362745" lon="8.63331961805293"><ele>839.0</ele><time>2026-04-29T13:50:30.173Z</time></trkpt><trkpt lat="40.17000511704085" lon="8.633583329290381"><ele>844.0</ele><time>2026-04-29T13:50:31.173Z</time></trkpt><trkpt lat="40.1701327871486" lon="8.63382986390976"><ele>849.0</ele><time>2026-04-29T13:50:32.173Z</time></trkpt><trkpt lat="40.17025680249489" lon="8.634085120690074"><ele>849.0</ele><time>2026-04-29T13:50:33.173Z</time></trkpt><trkpt lat="40.17038181058938" lon="8.634341987194885"><ele>849.0</ele><time>2026-04-29T13:50:34.173Z</time></trkpt><trkpt lat="40.170496713268314" lon="8.63459243616971"><ele>854.0</ele><time>2026-04-29T13:50:35.173Z</time></trkpt><trkpt lat="40.170599809321125" lon="8.63485213873852"><ele>859.0</ele><time>2026-04-29T13:50:36.173Z</time></trkpt><trkpt lat="40.17068944277904" lon="8.635123965963869"><ele>848.5</ele><time>2026-04-29T13:50:37.173Z</time></trkpt><trkpt lat="40.170767606747276" lon="8.635400045932037"><ele>838.0</ele><time>2026-04-29T13:50:38.174Z</time></trkpt><trkpt lat="40.17083473371245" lon="8.635682100660546"><ele>838.0</ele><time>2026-04-29T13:50:39.174Z</time></trkpt><trkpt lat="40.17090464085814" lon="8.635955193636404"><ele>838.0</ele><time>2026-04-29T13:50:40.174Z</time></trkpt><trkpt lat="40.17097076592065" lon="8.636218420513078"><ele>838.0</ele><time>2026-04-29T13:50:41.175Z</time></trkpt><trkpt lat="40.17101027860423" lon="8.636490596606125"><ele>838.6666666666666</ele><time>2026-04-29T13:50:42.174Z</time></trkpt><trkpt lat="40.17102029172723" lon="8.636777380558142"><ele>839.3333333333333</ele><time>2026-04-29T13:50:43.174Z</time></trkpt><trkpt lat="40.17101583139834" lon="8.63705677904406"><ele>840.0</ele><time>2026-04-29T13:50:44.175Z</time></trkpt><trkpt lat="40.17103262180262" lon="8.637338826448001"><ele>840.0</ele><time>2026-04-29T13:50:45.175Z</time></trkpt><trkpt lat="40.17106163852624" lon="8.637601370774501"><ele>840.0</ele><time>2026-04-29T13:50:46.175Z</time></trkpt><trkpt lat="40.171076066858596" lon="8.637839844548465"><ele>840.0</ele><time>2026-04-29T13:50:47.175Z</time></trkpt><trkpt lat="40.171053323584566" lon="8.638064082641117"><ele>838.6666666666667</ele><time>2026-04-29T13:50:48.175Z</time></trkpt><trkpt lat="40.17099662481725" lon="8.638284534572259"><ele>837.3333333333334</ele><time>2026-04-29T13:50:49.175Z</time></trkpt><trkpt lat="40.17089476299823" lon="8.63848690289286"><ele>836.0</ele><time>2026-04-29T13:50:50.174Z</time></trkpt><trkpt lat="40.17078165000396" lon="8.638677673630724"><ele>835.0</ele><time>2026-04-29T13:50:51.175Z</time></trkpt><trkpt lat="40.17071077051873" lon="8.63889013608107"><ele>834.0</ele><time>2026-04-29T13:50:52.175Z</time></trkpt><trkpt lat="40.17069128533526" lon="8.639140925281874"><ele>833.0</ele><time>2026-04-29T13:50:53.175Z</time></trkpt><trkpt lat="40.17068542745541" lon="8.639406720383048"><ele>836.6666666666667</ele><time>2026-04-29T13:50:54.175Z</time></trkpt><trkpt lat="40.17066985180359" lon="8.639670898340313"><ele>840.3333333333333</ele><time>2026-04-29T13:50:55.175Z</time></trkpt><trkpt lat="40.17066546456204" lon="8.639920831459767"><ele>844.0</ele><time>2026-04-29T13:50:56.175Z</time></trkpt><trkpt lat="40.17068746018094" lon="8.640148597838273"><ele>841.6666666666666</ele><time>2026-04-29T13:50:57.175Z</time></trkpt><trkpt lat="40.170796934746164" lon="8.640371742424383"><ele>839.3333333333333</ele><time>2026-04-29T13:50:58.175Z</time></trkpt><trkpt lat="40.17092927102719" lon="8.640587171313658"><ele>837.0</ele><time>2026-04-29T13:50:59.175Z</time></trkpt><trkpt lat="40.170989347484245" lon="8.640808252143117"><ele>837.0</ele><time>2026-04-29T13:51:00.175Z</time></trkpt><trkpt lat="40.17104662042175" lon="8.641065999012257"><ele>837.0</ele><time>2026-04-29T13:51:01.175Z</time></trkpt><trkpt lat="40.17110825466751" lon="8.641331045059097"><ele>837.0</ele><time>2026-04-29T13:51:02.175Z</time></trkpt><trkpt lat="40.17119346541014" lon="8.64157272789199"><ele>838.6666666666667</ele><time>2026-04-29T13:51:03.175Z</time></trkpt><trkpt lat="40.17130220104858" lon="8.641793177722162"><ele>840.3333333333334</ele><time>2026-04-29T13:51:04.175Z</time></trkpt><trkpt lat="40.17138801685688" lon="8.641989151438036"><ele>842.0</ele><time>2026-04-29T13:51:05.175Z</time></trkpt><trkpt lat="40.17139309832818" lon="8.642191376639808"><ele>843.0</ele><time>2026-04-29T13:51:06.175Z</time></trkpt><trkpt lat="40.171351647169814" lon="8.64242215897722"><ele>844.0</ele><time>2026-04-29T13:51:07.175Z</time></trkpt><trkpt lat="40.171294790568425" lon="8.642661306386987"><ele>845.0</ele><time>2026-04-29T13:51:08.175Z</time></trkpt><trkpt lat="40.17122855333073" lon="8.642914568107331"><ele>845.0</ele><time>2026-04-29T13:51:09.175Z</time></trkpt><trkpt lat="40.17115741899687" lon="8.643153420528092"><ele>845.0</ele><time>2026-04-29T13:51:10.175Z</time></trkpt><trkpt lat="40.17104881061915" lon="8.643349159799715"><ele>845.0</ele><time>2026-04-29T13:51:11.175Z</time></trkpt><trkpt lat="40.170940099733386" lon="8.643543801438051"><ele>844.3333333333334</ele><time>2026-04-29T13:51:12.175Z</time></trkpt><trkpt lat="40.17085889243392" lon="8.643752601679653"><ele>843.6666666666667</ele><time>2026-04-29T13:51:13.175Z</time></trkpt><trkpt lat="40.1708360824257" lon="8.64398976959274"><ele>843.0</ele><time>2026-04-29T13:51:14.175Z</time></trkpt><trkpt lat="40.17086358605876" lon="8.644271904079654"><ele>841.6666666666667</ele><time>2026-04-29T13:51:15.175Z</time></trkpt><trkpt lat="40.17089060629037" lon="8.644544091344924"><ele>840.3333333333334</ele><time>2026-04-29T13:51:16.175Z</time></trkpt><trkpt lat="40.1708965754376" lon="8.644845189687066"><ele>839.0</ele><time>2026-04-29T13:51:17.175Z</time></trkpt><trkpt lat="40.17086643229472" lon="8.64513298099725"><ele>836.6666666666667</ele><time>2026-04-29T13:51:18.175Z</time></trkpt><trkpt lat="40.17081498734088" lon="8.64541447799416"><ele>834.3333333333333</ele><time>2026-04-29T13:51:19.175Z</time></trkpt><trkpt lat="40.17075017273779" lon="8.645695183303108"><ele>832.0</ele><time>2026-04-29T13:51:20.175Z</time></trkpt><trkpt lat="40.170691232188084" lon="8.645972596852939"><ele>834.0</ele><time>2026-04-29T13:51:21.175Z</time></trkpt><trkpt lat="40.17065416300506" lon="8.646251401630385"><ele>836.0</ele><time>2026-04-29T13:51:22.175Z</time></trkpt><trkpt lat="40.17063587840032" lon="8.646546845035033"><ele>838.0</ele><time>2026-04-29T13:51:23.175Z</time></trkpt><trkpt lat="40.17064293734611" lon="8.646847542765654"><ele>838.0</ele><time>2026-04-29T13:51:24.175Z</time></trkpt><trkpt lat="40.170668301645186" lon="8.647158816973523"><ele>838.0</ele><time>2026-04-29T13:51:25.175Z</time></trkpt><trkpt lat="40.170705425213164" lon="8.647471627654497"><ele>833.5</ele><time>2026-04-29T13:51:26.175Z</time></trkpt><trkpt lat="40.170745941528665" lon="8.64778730557069"><ele>829.0</ele><time>2026-04-29T13:51:27.175Z</time></trkpt><trkpt lat="40.17078809570229" lon="8.64810246853788"><ele>829.0</ele><time>2026-04-29T13:51:28.175Z</time></trkpt><trkpt lat="40.170833548495615" lon="8.648416945101854"><ele>829.0</ele><time>2026-04-29T13:51:29.175Z</time></trkpt><trkpt lat="40.17090286468958" lon="8.6487121403008"><ele>827.5</ele><time>2026-04-29T13:51:30.175Z</time></trkpt><trkpt lat="40.17099564632819" lon="8.64899840086604"><ele>826.0</ele><time>2026-04-29T13:51:31.175Z</time></trkpt><trkpt lat="40.17109143788665" lon="8.64928207729096"><ele>827.0</ele><time>2026-04-29T13:51:32.175Z</time></trkpt><trkpt lat="40.17118779627252" lon="8.649567600589839"><ele>828.0</ele><time>2026-04-29T13:51:33.175Z</time></trkpt><trkpt lat="40.17128164397498" lon="8.649847350502311"><ele>828.0</ele><time>2026-04-29T13:51:34.175Z</time></trkpt><trkpt lat="40.17137322112595" lon="8.650132261061042"><ele>828.0</ele><time>2026-04-29T13:51:35.175Z</time></trkpt><trkpt lat="40.171464278932625" lon="8.650419821936264"><ele>824.5</ele><time>2026-04-29T13:51:36.175Z</time></trkpt><trkpt lat="40.17156077801487" lon="8.650708036062447"><ele>821.0</ele><time>2026-04-29T13:51:37.175Z</time></trkpt><trkpt lat="40.17165522422376" lon="8.650998320397537"><ele>822.5</ele><time>2026-04-29T13:51:38.175Z</time></trkpt><trkpt lat="40.171749091475704" lon="8.65128391147644"><ele>824.0</ele><time>2026-04-29T13:51:39.175Z</time></trkpt><trkpt lat="40.171841523883344" lon="8.651558797978561"><ele>824.0</ele><time>2026-04-29T13:51:40.175Z</time></trkpt><trkpt lat="40.171925893730695" lon="8.651822250764802"><ele>824.0</ele><time>2026-04-29T13:51:41.175Z</time></trkpt><trkpt lat="40.17200738555208" lon="8.652083729035901"><ele>824.0</ele><time>2026-04-29T13:51:42.175Z</time></trkpt><trkpt lat="40.17209532276743" lon="8.652347853378856"><ele>824.0</ele><time>2026-04-29T13:51:43.175Z</time></trkpt><trkpt lat="40.17217779098303" lon="8.652611778804065"><ele>824.0</ele><time>2026-04-29T13:51:44.175Z</time></trkpt><trkpt lat="40.17224338989818" lon="8.652881100470974"><ele>824.0</ele><time>2026-04-29T13:51:45.175Z</time></trkpt><trkpt lat="40.17227809116697" lon="8.653140299973991"><ele>823.3333333333334</ele><time>2026-04-29T13:51:46.175Z</time></trkpt><trkpt lat="40.17228173084622" lon="8.65338960512439"><ele>822.6666666666667</ele><time>2026-04-29T13:51:47.175Z</time></trkpt><trkpt lat="40.17223946684494" lon="8.65362542730589"><ele>822.0</ele><time>2026-04-29T13:51:48.175Z</time></trkpt><trkpt lat="40.172173761456534" lon="8.653862680105522"><ele>819.3333333333333</ele><time>2026-04-29T13:51:49.175Z</time></trkpt><trkpt lat="40.172071600726305" lon="8.654045209720842"><ele>816.6666666666666</ele><time>2026-04-29T13:51:50.175Z</time></trkpt><trkpt lat="40.17193474236344" lon="8.654192359483618"><ele>814.0</ele><time>2026-04-29T13:51:51.175Z</time></trkpt><trkpt lat="40.171774403085266" lon="8.654317707233549"><ele>814.0</ele><time>2026-04-29T13:51:52.175Z</time></trkpt><trkpt lat="40.1715787879671" lon="8.654411937094206"><ele>814.0</ele><time>2026-04-29T13:51:53.175Z</time></trkpt><trkpt lat="40.171374011515915" lon="8.654513734600476"><ele>814.0</ele><time>2026-04-29T13:51:54.175Z</time></trkpt><trkpt lat="40.17116400039607" lon="8.654604644463827"><ele>811.6666666666666</ele><time>2026-04-29T13:51:55.175Z</time></trkpt><trkpt lat="40.17095855671928" lon="8.654697326989638"><ele>809.3333333333333</ele><time>2026-04-29T13:51:56.175Z</time></trkpt><trkpt lat="40.1707482343598" lon="8.654787730927847"><ele>807.0</ele><time>2026-04-29T13:51:57.175Z</time></trkpt><trkpt lat="40.17053167003552" lon="8.654883493609402"><ele>807.0</ele><time>2026-04-29T13:51:58.175Z</time></trkpt><trkpt lat="40.17032512831677" lon="8.655009117706717"><ele>807.0</ele><time>2026-04-29T13:51:59.175Z</time></trkpt><trkpt lat="40.17012468385668" lon="8.655167277353652"><ele>805.3333333333333</ele><time>2026-04-29T13:52:00.175Z</time></trkpt><trkpt lat="40.16993737744646" lon="8.65532826166114"><ele>803.6666666666666</ele><time>2026-04-29T13:52:01.174Z</time></trkpt><trkpt lat="40.16975966286068" lon="8.655499715456035"><ele>802.0</ele><time>2026-04-29T13:52:02.174Z</time></trkpt><trkpt lat="40.16958832056046" lon="8.655681514345254"><ele>802.0</ele><time>2026-04-29T13:52:03.174Z</time></trkpt><trkpt lat="40.1694281302928" lon="8.655855045141257"><ele>802.0</ele><time>2026-04-29T13:52:04.174Z</time></trkpt><trkpt lat="40.16927055651094" lon="8.65601918395299"><ele>802.0</ele><time>2026-04-29T13:52:05.174Z</time></trkpt><trkpt lat="40.16909707531408" lon="8.656169455027444"><ele>797.6666666666666</ele><time>2026-04-29T13:52:06.174Z</time></trkpt><trkpt lat="40.16891267019442" lon="8.656308498342062"><ele>793.3333333333333</ele><time>2026-04-29T13:52:07.174Z</time></trkpt><trkpt lat="40.16872810573168" lon="8.65644733687258"><ele>789.0</ele><time>2026-04-29T13:52:08.174Z</time></trkpt><trkpt lat="40.16853447704011" lon="8.656566660929114"><ele>789.0</ele><time>2026-04-29T13:52:09.174Z</time></trkpt><trkpt lat="40.168337382004566" lon="8.656650838871062"><ele>789.0</ele><time>2026-04-29T13:52:10.174Z</time></trkpt><trkpt lat="40.168145475403065" lon="8.656706814692921"><ele>789.0</ele><time>2026-04-29T13:52:11.174Z</time></trkpt><trkpt lat="40.16795398975154" lon="8.656742939478015"><ele>788.6666666666667</ele><time>2026-04-29T13:52:12.174Z</time></trkpt><trkpt lat="40.167760574284664" lon="8.656745931576983"><ele>788.3333333333334</ele><time>2026-04-29T13:52:13.174Z</time></trkpt><trkpt lat="40.167565860352084" lon="8.656729794142908"><ele>788.0</ele><time>2026-04-29T13:52:14.174Z</time></trkpt><trkpt lat="40.16737043224555" lon="8.656721825701446"><ele>787.0</ele><time>2026-04-29T13:52:15.174Z</time></trkpt><trkpt lat="40.167174073036904" lon="8.656745146495878"><ele>786.0</ele><time>2026-04-29T13:52:16.174Z</time></trkpt><trkpt lat="40.166975978697415" lon="8.656778535551947"><ele>785.0</ele><time>2026-04-29T13:52:17.174Z</time></trkpt><trkpt lat="40.16677332894037" lon="8.656811630803508"><ele>785.0</ele><time>2026-04-29T13:52:18.174Z</time></trkpt><trkpt lat="40.16657642025751" lon="8.656851548319448"><ele>785.0</ele><time>2026-04-29T13:52:19.174Z</time></trkpt><trkpt lat="40.1663945960869" lon="8.656900673425113"><ele>785.0</ele><time>2026-04-29T13:52:20.174Z</time></trkpt><trkpt lat="40.16623362327752" lon="8.65696051477562"><ele>783.25</ele><time>2026-04-29T13:52:21.174Z</time></trkpt><trkpt lat="40.166090399456614" lon="8.657007477710534"><ele>781.5</ele><time>2026-04-29T13:52:22.174Z</time></trkpt><trkpt lat="40.16595325512181" lon="8.657009460680536"><ele>779.75</ele><time>2026-04-29T13:52:23.174Z</time></trkpt><trkpt lat="40.165835549648534" lon="8.656930433382897"><ele>778.0</ele><time>2026-04-29T13:52:24.174Z</time></trkpt><trkpt lat="40.16575029438665" lon="8.656798220979686"><ele>771.0</ele><time>2026-04-29T13:52:25.174Z</time></trkpt><trkpt lat="40.16568658777489" lon="8.656624834454513"><ele>764.0</ele><time>2026-04-29T13:52:26.174Z</time></trkpt><trkpt lat="40.16562774109548" lon="8.656426446699328"><ele>757.0</ele><time>2026-04-29T13:52:27.174Z</time></trkpt><trkpt lat="40.16555439154405" lon="8.656221039932511"><ele>761.0</ele><time>2026-04-29T13:52:28.174Z</time></trkpt><trkpt lat="40.16546097636369" lon="8.65604369793667"><ele>765.0</ele><time>2026-04-29T13:52:29.174Z</time></trkpt><trkpt lat="40.16532891394828" lon="8.655895076398814"><ele>769.0</ele><time>2026-04-29T13:52:30.174Z</time></trkpt><trkpt lat="40.16517452220323" lon="8.655757025062277"><ele>769.0</ele><time>2026-04-29T13:52:31.174Z</time></trkpt><trkpt lat="40.165007215615006" lon="8.655627192361026"><ele>769.0</ele><time>2026-04-29T13:52:32.174Z</time></trkpt><trkpt lat="40.16482808319201" lon="8.655532907356061"><ele>769.0</ele><time>2026-04-29T13:52:33.174Z</time></trkpt><trkpt lat="40.1646386571922" lon="8.655506909279747"><ele>765.3333333333333</ele><time>2026-04-29T13:52:34.174Z</time></trkpt><trkpt lat="40.16444351821734" lon="8.655482136173102"><ele>761.6666666666666</ele><time>2026-04-29T13:52:35.174Z</time></trkpt><trkpt lat="40.164252365674066" lon="8.655451218288253"><ele>758.0</ele><time>2026-04-29T13:52:36.174Z</time></trkpt><trkpt lat="40.164073009948396" lon="8.655412703933715"><ele>756.3333333333333</ele><time>2026-04-29T13:52:37.174Z</time></trkpt><trkpt lat="40.16390301885945" lon="8.655381610461431"><ele>754.6666666666666</ele><time>2026-04-29T13:52:38.174Z</time></trkpt><trkpt lat="40.16373693918634" lon="8.655335569770187"><ele>753.0</ele><time>2026-04-29T13:52:39.174Z</time></trkpt><trkpt lat="40.16357411791674" lon="8.655270402639776"><ele>754.6666666666666</ele><time>2026-04-29T13:52:40.174Z</time></trkpt><trkpt lat="40.163403286506345" lon="8.65519786552882"><ele>756.3333333333333</ele><time>2026-04-29T13:52:41.174Z</time></trkpt><trkpt lat="40.16322470248314" lon="8.65513495343839"><ele>758.0</ele><time>2026-04-29T13:52:42.174Z</time></trkpt><trkpt lat="40.16303837414554" lon="8.65509465895885"><ele>758.0</ele><time>2026-04-29T13:52:43.174Z</time></trkpt><trkpt lat="40.16284746311869" lon="8.655090622309858"><ele>758.0</ele><time>2026-04-29T13:52:44.176Z</time></trkpt><trkpt lat="40.162668092560885" lon="8.655117967507538"><ele>758.0</ele><time>2026-04-29T13:52:45.175Z</time></trkpt><trkpt lat="40.1625078046102" lon="8.655182984174534"><ele>756.0</ele><time>2026-04-29T13:52:46.175Z</time></trkpt><trkpt lat="40.16237538193045" lon="8.655302581144394"><ele>754.0</ele><time>2026-04-29T13:52:47.176Z</time></trkpt><trkpt lat="40.162265606179" lon="8.655468284724853"><ele>752.0</ele><time>2026-04-29T13:52:48.176Z</time></trkpt><trkpt lat="40.16219195583928" lon="8.655684222207215"><ele>752.0</ele><time>2026-04-29T13:52:49.176Z</time></trkpt><trkpt lat="40.16214571835411" lon="8.655927438339948"><ele>752.0</ele><time>2026-04-29T13:52:50.176Z</time></trkpt><trkpt lat="40.16210276462251" lon="8.656179200081123"><ele>752.0</ele><time>2026-04-29T13:52:51.175Z</time></trkpt><trkpt lat="40.162046507586574" lon="8.656428747544826"><ele>750.3333333333333</ele><time>2026-04-29T13:52:52.175Z</time></trkpt><trkpt lat="40.161988479155404" lon="8.656669764824308"><ele>748.6666666666666</ele><time>2026-04-29T13:52:53.176Z</time></trkpt><trkpt lat="40.161938891173605" lon="8.656895288145185"><ele>747.0</ele><time>2026-04-29T13:52:54.175Z</time></trkpt><trkpt lat="40.161943233637665" lon="8.657107139992478"><ele>746.3333333333334</ele><time>2026-04-29T13:52:55.175Z</time></trkpt><trkpt lat="40.16200093744624" lon="8.657295527297656"><ele>745.6666666666667</ele><time>2026-04-29T13:52:56.176Z</time></trkpt><trkpt lat="40.16210629264841" lon="8.657456267260887"><ele>745.0</ele><time>2026-04-29T13:52:57.176Z</time></trkpt><trkpt lat="40.16224641723977" lon="8.657574429922779"><ele>744.3333333333334</ele><time>2026-04-29T13:52:58.176Z</time></trkpt><trkpt lat="40.16241993919456" lon="8.657654705290737"><ele>743.6666666666666</ele><time>2026-04-29T13:52:59.176Z</time></trkpt><trkpt lat="40.16259268458758" lon="8.657726729255865"><ele>743.0</ele><time>2026-04-29T13:53:00.176Z</time></trkpt><trkpt lat="40.162742970175266" lon="8.657804773665182"><ele>744.3333333333333</ele><time>2026-04-29T13:53:01.176Z</time></trkpt><trkpt lat="40.16286410564989" lon="8.657910336737737"><ele>745.6666666666666</ele><time>2026-04-29T13:53:02.176Z</time></trkpt><trkpt lat="40.16293794318819" lon="8.65807991691547"><ele>747.0</ele><time>2026-04-29T13:53:03.176Z</time></trkpt><trkpt lat="40.16298435380688" lon="8.658288957969162"><ele>747.0</ele><time>2026-04-29T13:53:04.176Z</time></trkpt><trkpt lat="40.163063667827025" lon="8.658533304625719"><ele>747.0</ele><time>2026-04-29T13:53:05.176Z</time></trkpt><trkpt lat="40.16314824627039" lon="8.658790262360844"><ele>747.0</ele><time>2026-04-29T13:53:06.176Z</time></trkpt><trkpt lat="40.16322115396481" lon="8.659047776246458"><ele>743.3333333333334</ele><time>2026-04-29T13:53:07.176Z</time></trkpt><trkpt lat="40.163292594635685" lon="8.659291045932502"><ele>739.6666666666667</ele><time>2026-04-29T13:53:08.176Z</time></trkpt><trkpt lat="40.16336265570838" lon="8.65950595309681"><ele>736.0</ele><time>2026-04-29T13:53:09.176Z</time></trkpt><trkpt lat="40.16339803787979" lon="8.659693743623253"><ele>734.6666666666667</ele><time>2026-04-29T13:53:10.176Z</time></trkpt><trkpt lat="40.16337771834138" lon="8.659894792498775"><ele>733.3333333333334</ele><time>2026-04-29T13:53:11.176Z</time></trkpt><trkpt lat="40.16329416200798" lon="8.660083976556692"><ele>732.0</ele><time>2026-04-29T13:53:12.176Z</time></trkpt><trkpt lat="40.1631817902988" lon="8.660250575032606"><ele>733.3333333333334</ele><time>2026-04-29T13:53:13.176Z</time></trkpt><trkpt lat="40.16308210534304" lon="8.660423707584707"><ele>734.6666666666667</ele><time>2026-04-29T13:53:14.176Z</time></trkpt><trkpt lat="40.16300032119483" lon="8.66061623728518"><ele>736.0</ele><time>2026-04-29T13:53:15.176Z</time></trkpt><trkpt lat="40.162924500844056" lon="8.660792395207661"><ele>736.0</ele><time>2026-04-29T13:53:16.176Z</time></trkpt><trkpt lat="40.16279961956993" lon="8.66092381243592"><ele>736.0</ele><time>2026-04-29T13:53:17.176Z</time></trkpt><trkpt lat="40.162635936098994" lon="8.661022027461811"><ele>736.0</ele><time>2026-04-29T13:53:18.176Z</time></trkpt><trkpt lat="40.16247702993856" lon="8.661104607684512"><ele>733.0</ele><time>2026-04-29T13:53:19.176Z</time></trkpt><trkpt lat="40.162322316663854" lon="8.661147123799273"><ele>730.0</ele><time>2026-04-29T13:53:20.176Z</time></trkpt><trkpt lat="40.16217266559688" lon="8.661122595080705"><ele>727.0</ele><time>2026-04-29T13:53:21.176Z</time></trkpt><trkpt lat="40.162021757138895" lon="8.661041264409791"><ele>727.0</ele><time>2026-04-29T13:53:22.176Z</time></trkpt><trkpt lat="40.16187037797627" lon="8.660919176638625"><ele>727.0</ele><time>2026-04-29T13:53:23.176Z</time></trkpt><trkpt lat="40.16171521155605" lon="8.660800563366346"><ele>727.0</ele><time>2026-04-29T13:53:24.176Z</time></trkpt><trkpt lat="40.161556280950975" lon="8.660669786170589"><ele>725.3333333333334</ele><time>2026-04-29T13:53:25.176Z</time></trkpt><trkpt lat="40.16140970371202" lon="8.660515968485658"><ele>723.6666666666666</ele><time>2026-04-29T13:53:26.176Z</time></trkpt><trkpt lat="40.161279794098576" lon="8.660346708341583"><ele>722.0</ele><time>2026-04-29T13:53:27.176Z</time></trkpt><trkpt lat="40.16116482168469" lon="8.660143027604413"><ele>722.0</ele><time>2026-04-29T13:53:28.176Z</time></trkpt><trkpt lat="40.161047188424284" lon="8.659938742323158"><ele>722.0</ele><time>2026-04-29T13:53:29.176Z</time></trkpt><trkpt lat="40.160902720030236" lon="8.659753339320456"><ele>722.0</ele><time>2026-04-29T13:53:30.176Z</time></trkpt><trkpt lat="40.16072932826181" lon="8.659630359300929"><ele>719.6666666666666</ele><time>2026-04-29T13:53:31.176Z</time></trkpt><trkpt lat="40.16054025797084" lon="8.659560484606539"><ele>717.3333333333334</ele><time>2026-04-29T13:53:32.176Z</time></trkpt><trkpt lat="40.16033231244047" lon="8.659567610776076"><ele>715.0</ele><time>2026-04-29T13:53:33.176Z</time></trkpt><trkpt lat="40.16012935039409" lon="8.659652953624326"><ele>715.0</ele><time>2026-04-29T13:53:34.176Z</time></trkpt><trkpt lat="40.15993265944517" lon="8.659786295738936"><ele>715.0</ele><time>2026-04-29T13:53:35.176Z</time></trkpt><trkpt lat="40.15973794632498" lon="8.659934493746373"><ele>715.0</ele><time>2026-04-29T13:53:36.176Z</time></trkpt><trkpt lat="40.15954710890768" lon="8.660082013914396"><ele>716.3333333333334</ele><time>2026-04-29T13:53:37.176Z</time></trkpt><trkpt lat="40.159360940219145" lon="8.66026531254566"><ele>717.6666666666666</ele><time>2026-04-29T13:53:38.176Z</time></trkpt><trkpt lat="40.15927010906978" lon="8.660229732333347"><ele>719.0</ele><time>2026-04-29T13:53:39.176Z</time></trkpt><trkpt lat="40.159102957495435" lon="8.660370436945145"><ele>713.6666666666666</ele><time>2026-04-29T13:53:40.176Z</time></trkpt><trkpt lat="40.15893271008675" lon="8.660467529445288"><ele>708.3333333333334</ele><time>2026-04-29T13:53:41.176Z</time></trkpt><trkpt lat="40.1587739287337" lon="8.660518712660343"><ele>703.0</ele><time>2026-04-29T13:53:42.176Z</time></trkpt><trkpt lat="40.15863084945526" lon="8.660486694159701"><ele>703.0</ele><time>2026-04-29T13:53:43.176Z</time></trkpt><trkpt lat="40.15849724479147" lon="8.660372991118773"><ele>703.0</ele><time>2026-04-29T13:53:44.176Z</time></trkpt><trkpt lat="40.15835927009803" lon="8.660228254254122"><ele>703.0</ele><time>2026-04-29T13:53:45.176Z</time></trkpt><trkpt lat="40.158207326991295" lon="8.660088133671005"><ele>699.6666666666667</ele><time>2026-04-29T13:53:46.176Z</time></trkpt><trkpt lat="40.15804915428611" lon="8.659943530899406"><ele>696.3333333333334</ele><time>2026-04-29T13:53:47.176Z</time></trkpt><trkpt lat="40.157910358844255" lon="8.659797091213386"><ele>693.0</ele><time>2026-04-29T13:53:48.176Z</time></trkpt><trkpt lat="40.157798228578756" lon="8.659624207458375"><ele>694.3333333333334</ele><time>2026-04-29T13:53:49.176Z</time></trkpt><trkpt lat="40.15772316073893" lon="8.659402653308288"><ele>695.6666666666667</ele><time>2026-04-29T13:53:50.176Z</time></trkpt><trkpt lat="40.1576958795082" lon="8.659171588092432"><ele>697.0</ele><time>2026-04-29T13:53:51.176Z</time></trkpt><trkpt lat="40.15771394681581" lon="8.658930101082582"><ele>697.0</ele><time>2026-04-29T13:53:52.176Z</time></trkpt><trkpt lat="40.1577681173592" lon="8.6586724060787"><ele>697.0</ele><time>2026-04-29T13:53:53.176Z</time></trkpt><trkpt lat="40.15781963567388" lon="8.658410808298743"><ele>697.0</ele><time>2026-04-29T13:53:54.176Z</time></trkpt><trkpt lat="40.15785455381251" lon="8.658156542599558"><ele>694.6666666666667</ele><time>2026-04-29T13:53:55.176Z</time></trkpt><trkpt lat="40.15789340554622" lon="8.657890869498846"><ele>692.3333333333334</ele><time>2026-04-29T13:53:56.176Z</time></trkpt><trkpt lat="40.157937913640865" lon="8.657625469665797"><ele>690.0</ele><time>2026-04-29T13:53:57.176Z</time></trkpt><trkpt lat="40.15797686266767" lon="8.657354669613692"><ele>688.3333333333334</ele><time>2026-04-29T13:53:58.176Z</time></trkpt><trkpt lat="40.15801137778117" lon="8.657085759058573"><ele>686.6666666666667</ele><time>2026-04-29T13:53:59.176Z</time></trkpt><trkpt lat="40.1580464080852" lon="8.656817841829945"><ele>685.0</ele><time>2026-04-29T13:54:00.176Z</time></trkpt><trkpt lat="40.15808953256506" lon="8.65654964736495"><ele>684.6666666666667</ele><time>2026-04-29T13:54:01.176Z</time></trkpt><trkpt lat="40.1581501375576" lon="8.656267536421586"><ele>684.3333333333334</ele><time>2026-04-29T13:54:02.176Z</time></trkpt><trkpt lat="40.15818621975667" lon="8.656020755181448"><ele>684.0</ele><time>2026-04-29T13:54:03.176Z</time></trkpt><trkpt lat="40.15821086495555" lon="8.655800780892541"><ele>686.0</ele><time>2026-04-29T13:54:04.176Z</time></trkpt><trkpt lat="40.158233297037306" lon="8.65562161129473"><ele>688.0</ele><time>2026-04-29T13:54:05.176Z</time></trkpt><trkpt lat="40.158233241767114" lon="8.655471866636969"><ele>690.0</ele><time>2026-04-29T13:54:06.176Z</time></trkpt><trkpt lat="40.15818233056195" lon="8.65534973374372"><ele>692.0</ele><time>2026-04-29T13:54:07.176Z</time></trkpt><trkpt lat="40.15809076141238" lon="8.655242559134564"><ele>692.0</ele><time>2026-04-29T13:54:08.176Z</time></trkpt><trkpt lat="40.15798464162124" lon="8.65518519569709"><ele>692.0</ele><time>2026-04-29T13:54:09.176Z</time></trkpt><trkpt lat="40.15788160207697" lon="8.655200312255134"><ele>692.0</ele><time>2026-04-29T13:54:10.176Z</time></trkpt><trkpt lat="40.15777869948231" lon="8.655300156253533"><ele>692.0</ele><time>2026-04-29T13:54:11.176Z</time></trkpt><trkpt lat="40.15768240812242" lon="8.655447233768117"><ele>692.0</ele><time>2026-04-29T13:54:12.176Z</time></trkpt><trkpt lat="40.15758395335122" lon="8.655591253517064"><ele>692.0</ele><time>2026-04-29T13:54:13.176Z</time></trkpt><trkpt lat="40.15747479563826" lon="8.655736306623384"><ele>692.0</ele><time>2026-04-29T13:54:14.176Z</time></trkpt><trkpt lat="40.15732890250211" lon="8.655903215815124"><ele>694.6666666666666</ele><time>2026-04-29T13:54:15.176Z</time></trkpt><trkpt lat="40.15718440661708" lon="8.656059014443306"><ele>697.3333333333334</ele><time>2026-04-29T13:54:16.176Z</time></trkpt><trkpt lat="40.15702682673205" lon="8.656192552722182"><ele>700.0</ele><time>2026-04-29T13:54:17.176Z</time></trkpt><trkpt lat="40.15686331888966" lon="8.656320579258752"><ele>697.3333333333334</ele><time>2026-04-29T13:54:18.176Z</time></trkpt><trkpt lat="40.1566792151812" lon="8.65645167951989"><ele>694.6666666666666</ele><time>2026-04-29T13:54:19.176Z</time></trkpt><trkpt lat="40.15649434384581" lon="8.656597171470292"><ele>692.0</ele><time>2026-04-29T13:54:20.176Z</time></trkpt><trkpt lat="40.15630688301448" lon="8.656740401542349"><ele>692.0</ele><time>2026-04-29T13:54:21.176Z</time></trkpt><trkpt lat="40.15613334068936" lon="8.656929658723943"><ele>692.0</ele><time>2026-04-29T13:54:22.176Z</time></trkpt><trkpt lat="40.155960319994875" lon="8.657129834759537"><ele>689.3333333333333</ele><time>2026-04-29T13:54:23.176Z</time></trkpt><trkpt lat="40.1557881390153" lon="8.657324166523525"><ele>686.6666666666666</ele><time>2026-04-29T13:54:24.176Z</time></trkpt><trkpt lat="40.15562604874287" lon="8.657519478908844"><ele>684.0</ele><time>2026-04-29T13:54:25.176Z</time></trkpt><trkpt lat="40.1554665411539" lon="8.65770619728333"><ele>677.6666666666666</ele><time>2026-04-29T13:54:26.176Z</time></trkpt><trkpt lat="40.15529058934621" lon="8.657864288892862"><ele>671.3333333333333</ele><time>2026-04-29T13:54:27.176Z</time></trkpt><trkpt lat="40.15511074316125" lon="8.658019580332821"><ele>665.0</ele><time>2026-04-29T13:54:28.176Z</time></trkpt><trkpt lat="40.154937261875965" lon="8.658191922913582"><ele>664.3333333333333</ele><time>2026-04-29T13:54:29.175Z</time></trkpt><trkpt lat="40.154777260910144" lon="8.658363291390401"><ele>663.6666666666666</ele><time>2026-04-29T13:54:30.175Z</time></trkpt><trkpt lat="40.154614456838004" lon="8.658537583338378"><ele>663.0</ele><time>2026-04-29T13:54:31.175Z</time></trkpt><trkpt lat="40.154459141404004" lon="8.658719573371883"><ele>663.0</ele><time>2026-04-29T13:54:32.175Z</time></trkpt><trkpt lat="40.154319773282666" lon="8.658933355764603"><ele>663.0</ele><time>2026-04-29T13:54:33.175Z</time></trkpt><trkpt lat="40.154198464333064" lon="8.659164828123671"><ele>663.0</ele><time>2026-04-29T13:54:34.175Z</time></trkpt><trkpt lat="40.15409244837007" lon="8.659401862162452"><ele>662.0</ele><time>2026-04-29T13:54:35.175Z</time></trkpt><trkpt lat="40.154004091491586" lon="8.659648782624858"><ele>661.0</ele><time>2026-04-29T13:54:36.175Z</time></trkpt><trkpt lat="40.15393974155939" lon="8.659894879192587"><ele>660.0</ele><time>2026-04-29T13:54:37.175Z</time></trkpt><trkpt lat="40.153871929874455" lon="8.660111335063712"><ele>656.3333333333334</ele><time>2026-04-29T13:54:38.175Z</time></trkpt><trkpt lat="40.153784526915366" lon="8.660320449259078"><ele>652.6666666666667</ele><time>2026-04-29T13:54:39.175Z</time></trkpt><trkpt lat="40.153681302122074" lon="8.660502146676674"><ele>649.0</ele><time>2026-04-29T13:54:40.175Z</time></trkpt><trkpt lat="40.15356095304457" lon="8.660646779325413"><ele>649.0</ele><time>2026-04-29T13:54:41.175Z</time></trkpt><trkpt lat="40.15342726210166" lon="8.660728682335908"><ele>649.0</ele><time>2026-04-29T13:54:42.175Z</time></trkpt><trkpt lat="40.15329008348253" lon="8.660753245684367"><ele>649.0</ele><time>2026-04-29T13:54:43.175Z</time></trkpt><trkpt lat="40.15313802851797" lon="8.660679142317303"><ele>649.0</ele><time>2026-04-29T13:54:44.175Z</time></trkpt><trkpt lat="40.15298372809091" lon="8.660560844417299"><ele>650.6666666666667</ele><time>2026-04-29T13:54:45.175Z</time></trkpt><trkpt lat="40.152835802922176" lon="8.660424491952638"><ele>652.3333333333334</ele><time>2026-04-29T13:54:46.175Z</time></trkpt><trkpt lat="40.15268393666372" lon="8.660306810745519"><ele>654.0</ele><time>2026-04-29T13:54:47.175Z</time></trkpt><trkpt lat="40.15250272635115" lon="8.660252767549265"><ele>653.6666666666666</ele><time>2026-04-29T13:54:48.175Z</time></trkpt><trkpt lat="40.15230224160736" lon="8.660259928820564"><ele>653.3333333333333</ele><time>2026-04-29T13:54:49.175Z</time></trkpt><trkpt lat="40.15208891428558" lon="8.660336086890238"><ele>653.0</ele><time>2026-04-29T13:54:50.177Z</time></trkpt><trkpt lat="40.15190187506816" lon="8.66042932375755"><ele>650.6666666666666</ele><time>2026-04-29T13:54:51.177Z</time></trkpt><trkpt lat="40.151737677319254" lon="8.660518409215443"><ele>648.3333333333334</ele><time>2026-04-29T13:54:52.177Z</time></trkpt><trkpt lat="40.15158160967983" lon="8.660616647910983"><ele>646.0</ele><time>2026-04-29T13:54:53.177Z</time></trkpt><trkpt lat="40.15143515106759" lon="8.660767236652424"><ele>646.0</ele><time>2026-04-29T13:54:54.177Z</time></trkpt><trkpt lat="40.15129836566934" lon="8.660944674528867"><ele>646.0</ele><time>2026-04-29T13:54:55.177Z</time></trkpt><trkpt lat="40.1511214605212" lon="8.661117912493003"><ele>646.0</ele><time>2026-04-29T13:54:56.177Z</time></trkpt><trkpt lat="40.1509486160743" lon="8.661251629986204"><ele>641.6666666666667</ele><time>2026-04-29T13:54:57.176Z</time></trkpt><trkpt lat="40.15077930461141" lon="8.661366736866546"><ele>637.3333333333334</ele><time>2026-04-29T13:54:58.176Z</time></trkpt><trkpt lat="40.150606181515485" lon="8.661464625433837"><ele>633.0</ele><time>2026-04-29T13:54:59.177Z</time></trkpt><trkpt lat="40.150441861783655" lon="8.661542325614674"><ele>631.3333333333334</ele><time>2026-04-29T13:55:00.177Z</time></trkpt><trkpt lat="40.150261779963216" lon="8.661588502099347"><ele>629.6666666666667</ele><time>2026-04-29T13:55:01.177Z</time></trkpt><trkpt lat="40.15007904096288" lon="8.661601653026473"><ele>628.0</ele><time>2026-04-29T13:55:02.177Z</time></trkpt><trkpt lat="40.149890496458625" lon="8.661566760653377"><ele>624.3333333333334</ele><time>2026-04-29T13:55:03.177Z</time></trkpt><trkpt lat="40.14969878798504" lon="8.661502079932278"><ele>620.6666666666666</ele><time>2026-04-29T13:55:04.177Z</time></trkpt><trkpt lat="40.14950579770937" lon="8.661448305484122"><ele>617.0</ele><time>2026-04-29T13:55:05.177Z</time></trkpt><trkpt lat="40.149319015197584" lon="8.661348579546585"><ele>617.0</ele><time>2026-04-29T13:55:06.177Z</time></trkpt><trkpt lat="40.149145200106105" lon="8.661210754450815"><ele>617.0</ele><time>2026-04-29T13:55:07.177Z</time></trkpt><trkpt lat="40.14899171622195" lon="8.66103728283564"><ele>617.0</ele><time>2026-04-29T13:55:08.177Z</time></trkpt><trkpt lat="40.14884770031836" lon="8.660837243325009"><ele>616.6666666666666</ele><time>2026-04-29T13:55:09.177Z</time></trkpt><trkpt lat="40.148720947819044" lon="8.660637949318208"><ele>616.3333333333334</ele><time>2026-04-29T13:55:10.177Z</time></trkpt><trkpt lat="40.148622254703994" lon="8.660423200071971"><ele>616.0</ele><time>2026-04-29T13:55:11.177Z</time></trkpt><trkpt lat="40.148542182042874" lon="8.66020752155991"><ele>616.0</ele><time>2026-04-29T13:55:12.177Z</time></trkpt><trkpt lat="40.148476926723426" lon="8.659973312604915"><ele>616.0</ele><time>2026-04-29T13:55:13.177Z</time></trkpt><trkpt lat="40.14844495287438" lon="8.65972441195385"><ele>616.0</ele><time>2026-04-29T13:55:14.177Z</time></trkpt><trkpt lat="40.148444332782" lon="8.659486530188003"><ele>617.3333333333334</ele><time>2026-04-29T13:55:15.177Z</time></trkpt><trkpt lat="40.14845369200166" lon="8.659265108868482"><ele>618.6666666666666</ele><time>2026-04-29T13:55:16.177Z</time></trkpt><trkpt lat="40.14840199167265" lon="8.659101011463715"><ele>620.0</ele><time>2026-04-29T13:55:17.177Z</time></trkpt><trkpt lat="40.148276182216975" lon="8.65897942294597"><ele>615.0</ele><time>2026-04-29T13:55:18.177Z</time></trkpt><trkpt lat="40.14810755580342" lon="8.658943245430333"><ele>610.0</ele><time>2026-04-29T13:55:19.177Z</time></trkpt><trkpt lat="40.14793094922289" lon="8.658922825007892"><ele>605.0</ele><time>2026-04-29T13:55:20.177Z</time></trkpt><trkpt lat="40.147800991551925" lon="8.658853444068134"><ele>605.0</ele><time>2026-04-29T13:55:21.177Z</time></trkpt><trkpt lat="40.14772918845968" lon="8.658692087963441"><ele>605.0</ele><time>2026-04-29T13:55:22.177Z</time></trkpt><trkpt lat="40.14771004835318" lon="8.658491144670494"><ele>605.0</ele><time>2026-04-29T13:55:23.177Z</time></trkpt><trkpt lat="40.14774777828592" lon="8.658254171705586"><ele>604.0</ele><time>2026-04-29T13:55:24.177Z</time></trkpt><trkpt lat="40.14776558642242" lon="8.6580009451645"><ele>603.0</ele><time>2026-04-29T13:55:25.177Z</time></trkpt><trkpt lat="40.14776322644251" lon="8.65774280255138"><ele>602.0</ele><time>2026-04-29T13:55:26.177Z</time></trkpt><trkpt lat="40.14776314507582" lon="8.657475519370836"><ele>600.6666666666666</ele><time>2026-04-29T13:55:27.177Z</time></trkpt><trkpt lat="40.147754654546766" lon="8.657213717451631"><ele>599.3333333333334</ele><time>2026-04-29T13:55:28.177Z</time></trkpt><trkpt lat="40.147746369076216" lon="8.656954447994433"><ele>598.0</ele><time>2026-04-29T13:55:29.177Z</time></trkpt><trkpt lat="40.14773823507066" lon="8.656689987978233"><ele>597.6666666666667</ele><time>2026-04-29T13:55:30.177Z</time></trkpt><trkpt lat="40.14769650573724" lon="8.65642533528328"><ele>597.3333333333334</ele><time>2026-04-29T13:55:31.177Z</time></trkpt><trkpt lat="40.147645894079105" lon="8.656161460524313"><ele>597.0</ele><time>2026-04-29T13:55:32.177Z</time></trkpt><trkpt lat="40.147587844055195" lon="8.655906564272652"><ele>598.0</ele><time>2026-04-29T13:55:33.177Z</time></trkpt><trkpt lat="40.14754659555425" lon="8.655655541734852"><ele>599.0</ele><time>2026-04-29T13:55:34.177Z</time></trkpt><trkpt lat="40.14751536047664" lon="8.65544489606341"><ele>600.0</ele><time>2026-04-29T13:55:35.177Z</time></trkpt><trkpt lat="40.147497729367394" lon="8.65527813014185"><ele>600.25</ele><time>2026-04-29T13:55:36.177Z</time></trkpt><trkpt lat="40.14745905150027" lon="8.655148252511426"><ele>600.5</ele><time>2026-04-29T13:55:37.177Z</time></trkpt><trkpt lat="40.14737386882048" lon="8.655068732605741"><ele>600.75</ele><time>2026-04-29T13:55:38.177Z</time></trkpt><trkpt lat="40.14725747183018" lon="8.655075499714806"><ele>601.0</ele><time>2026-04-29T13:55:39.177Z</time></trkpt><trkpt lat="40.147148439606326" lon="8.655193863136569"><ele>601.3333333333334</ele><time>2026-04-29T13:55:40.177Z</time></trkpt><trkpt lat="40.147089948582895" lon="8.655377302337047"><ele>601.6666666666666</ele><time>2026-04-29T13:55:41.177Z</time></trkpt><trkpt lat="40.1470590917101" lon="8.655602478944969"><ele>602.0</ele><time>2026-04-29T13:55:42.177Z</time></trkpt><trkpt lat="40.14705239285993" lon="8.655841873786237"><ele>602.0</ele><time>2026-04-29T13:55:43.177Z</time></trkpt><trkpt lat="40.14704763640816" lon="8.656064854818915"><ele>602.0</ele><time>2026-04-29T13:55:44.177Z</time></trkpt><trkpt lat="40.147029267124694" lon="8.656269162145167"><ele>602.0</ele><time>2026-04-29T13:55:45.177Z</time></trkpt><trkpt lat="40.14698040916375" lon="8.656461531581417"><ele>598.0</ele><time>2026-04-29T13:55:46.177Z</time></trkpt><trkpt lat="40.14689549120457" lon="8.656647295396736"><ele>594.0</ele><time>2026-04-29T13:55:47.177Z</time></trkpt><trkpt lat="40.14680850777725" lon="8.656818724528891"><ele>590.0</ele><time>2026-04-29T13:55:48.177Z</time></trkpt><trkpt lat="40.146757714727165" lon="8.657006770148651"><ele>591.3333333333333</ele><time>2026-04-29T13:55:49.177Z</time></trkpt><trkpt lat="40.1466972152631" lon="8.657197169338085"><ele>592.6666666666666</ele><time>2026-04-29T13:55:50.177Z</time></trkpt><trkpt lat="40.146614177057344" lon="8.6573941297961"><ele>594.0</ele><time>2026-04-29T13:55:51.177Z</time></trkpt><trkpt lat="40.14651685697815" lon="8.657583891528942"><ele>594.0</ele><time>2026-04-29T13:55:52.177Z</time></trkpt><trkpt lat="40.14640779734645" lon="8.657763903548602"><ele>594.0</ele><time>2026-04-29T13:55:53.177Z</time></trkpt><trkpt lat="40.14627274918931" lon="8.657934230919302"><ele>594.0</ele><time>2026-04-29T13:55:54.177Z</time></trkpt><trkpt lat="40.1461385578805" lon="8.658104015023744"><ele>590.3333333333334</ele><time>2026-04-29T13:55:55.177Z</time></trkpt><trkpt lat="40.1460028808068" lon="8.658263352349435"><ele>586.6666666666667</ele><time>2026-04-29T13:55:56.177Z</time></trkpt><trkpt lat="40.14584443357352" lon="8.658403421873997"><ele>583.0</ele><time>2026-04-29T13:55:57.177Z</time></trkpt><trkpt lat="40.14568651767672" lon="8.65852346156401"><ele>578.6666666666667</ele><time>2026-04-29T13:55:58.177Z</time></trkpt><trkpt lat="40.145544095898565" lon="8.658633494931067"><ele>574.3333333333334</ele><time>2026-04-29T13:55:59.177Z</time></trkpt><trkpt lat="40.14542316347069" lon="8.65875969173693"><ele>570.0</ele><time>2026-04-29T13:56:00.177Z</time></trkpt><trkpt lat="40.14532330954221" lon="8.658913530232201"><ele>570.0</ele><time>2026-04-29T13:56:01.177Z</time></trkpt><trkpt lat="40.14524251087822" lon="8.659077208882888"><ele>570.0</ele><time>2026-04-29T13:56:02.177Z</time></trkpt><trkpt lat="40.145174155896306" lon="8.659234322041906"><ele>570.0</ele><time>2026-04-29T13:56:03.177Z</time></trkpt><trkpt lat="40.14510354527495" lon="8.659388958185746"><ele>570.0</ele><time>2026-04-29T13:56:04.177Z</time></trkpt><trkpt lat="40.145033074595396" lon="8.659533274429311"><ele>568.25</ele><time>2026-04-29T13:56:05.177Z</time></trkpt><trkpt lat="40.144963016152836" lon="8.659679730963424"><ele>566.5</ele><time>2026-04-29T13:56:06.177Z</time></trkpt><trkpt lat="40.14489955905559" lon="8.659821005323378"><ele>564.75</ele><time>2026-04-29T13:56:07.177Z</time></trkpt><trkpt lat="40.144819269139454" lon="8.659948152686312"><ele>563.0</ele><time>2026-04-29T13:56:08.177Z</time></trkpt><trkpt lat="40.14472691691729" lon="8.660063120595165"><ele>563.0</ele><time>2026-04-29T13:56:09.177Z</time></trkpt><trkpt lat="40.14461528945219" lon="8.660139639434565"><ele>563.0</ele><time>2026-04-29T13:56:10.177Z</time></trkpt><trkpt lat="40.14449285481107" lon="8.66017891395157"><ele>563.0</ele><time>2026-04-29T13:56:11.177Z</time></trkpt><trkpt lat="40.14437212920104" lon="8.660177555062631"><ele>563.0</ele><time>2026-04-29T13:56:12.177Z</time></trkpt><trkpt lat="40.14424608471801" lon="8.660162453417634"><ele>563.0</ele><time>2026-04-29T13:56:13.177Z</time></trkpt><trkpt lat="40.144119495301496" lon="8.66015399160181"><ele>563.0</ele><time>2026-04-29T13:56:14.177Z</time></trkpt><trkpt lat="40.14398951728437" lon="8.660137734921472"><ele>563.0</ele><time>2026-04-29T13:56:15.177Z</time></trkpt><trkpt lat="40.14386343638615" lon="8.660103143372615"><ele>563.0</ele><time>2026-04-29T13:56:16.177Z</time></trkpt><trkpt lat="40.143737323919865" lon="8.660049886555022"><ele>560.25</ele><time>2026-04-29T13:56:17.177Z</time></trkpt><trkpt lat="40.143607927888915" lon="8.660006418300837"><ele>557.5</ele><time>2026-04-29T13:56:18.177Z</time></trkpt><trkpt lat="40.14348114348487" lon="8.659952822988265"><ele>554.75</ele><time>2026-04-29T13:56:19.177Z</time></trkpt><trkpt lat="40.14336470833665" lon="8.659888347278784"><ele>552.0</ele><time>2026-04-29T13:56:20.177Z</time></trkpt><trkpt lat="40.1432480212535" lon="8.659817070370904"><ele>549.75</ele><time>2026-04-29T13:56:21.177Z</time></trkpt><trkpt lat="40.14314420962381" lon="8.659728789654908"><ele>547.5</ele><time>2026-04-29T13:56:22.177Z</time></trkpt><trkpt lat="40.14304592133082" lon="8.659645150772127"><ele>545.25</ele><time>2026-04-29T13:56:23.177Z</time></trkpt><trkpt lat="40.14296022926671" lon="8.659550054957617"><ele>543.0</ele><time>2026-04-29T13:56:24.177Z</time></trkpt><trkpt lat="40.14288061983343" lon="8.659458879398667"><ele>544.8</ele><time>2026-04-29T13:56:25.177Z</time></trkpt><trkpt lat="40.14280153297296" lon="8.659384307877238"><ele>546.5999999999999</ele><time>2026-04-29T13:56:26.177Z</time></trkpt><trkpt lat="40.142713032621565" lon="8.659332276894391"><ele>548.4000000000001</ele><time>2026-04-29T13:56:27.177Z</time></trkpt><trkpt lat="40.14260968642828" lon="8.659311928132738"><ele>550.2</ele><time>2026-04-29T13:56:28.177Z</time></trkpt><trkpt lat="40.14251245809275" lon="8.65929956517894"><ele>552.0</ele><time>2026-04-29T13:56:29.177Z</time></trkpt><trkpt lat="40.14241941537574" lon="8.659293005536618"><ele>551.6666666666666</ele><time>2026-04-29T13:56:30.177Z</time></trkpt><trkpt lat="40.142331498365294" lon="8.659276272912576"><ele>551.3333333333334</ele><time>2026-04-29T13:56:31.177Z</time></trkpt><trkpt lat="40.14224969189414" lon="8.659271286209812"><ele>551.0</ele><time>2026-04-29T13:56:32.177Z</time></trkpt><trkpt lat="40.14217363890271" lon="8.659256117386853"><ele>550.6666666666667</ele><time>2026-04-29T13:56:33.177Z</time></trkpt><trkpt lat="40.142102880879854" lon="8.659246510805518"><ele>550.3333333333334</ele><time>2026-04-29T13:56:34.177Z</time></trkpt><trkpt lat="40.14203838102984" lon="8.659235788539473"><ele>550.0</ele><time>2026-04-29T13:56:35.177Z</time></trkpt><trkpt lat="40.141924919552714" lon="8.659219915364414"><ele>550.0</ele><time>2026-04-29T13:56:37.177Z</time></trkpt><trkpt lat="40.14182918302113" lon="8.659195312365773"><ele>550.0</ele><time>2026-04-29T13:56:39.177Z</time></trkpt><trkpt lat="40.14174563442623" lon="8.659191105087682"><ele>550.0</ele><time>2026-04-29T13:56:43.177Z</time></trkpt><trkpt lat="40.141692989490934" lon="8.659275216066252"><ele>550.0</ele><time>2026-04-29T13:56:45.177Z</time></trkpt><trkpt lat="40.14167841432447" lon="8.659368730246626"><ele>550.0</ele><time>2026-04-29T13:56:46.177Z</time></trkpt><trkpt lat="40.141666987670625" lon="8.659455210931274"><ele>550.0</ele><time>2026-04-29T13:56:47.177Z</time></trkpt><trkpt lat="40.141662241893926" lon="8.659548909654578"><ele>549.0</ele><time>2026-04-29T13:56:48.177Z</time></trkpt><trkpt lat="40.141647324921784" lon="8.659656153812385"><ele>548.0</ele><time>2026-04-29T13:56:49.177Z</time></trkpt><trkpt lat="40.14162629716981" lon="8.659772338674964"><ele>547.0</ele><time>2026-04-29T13:56:50.177Z</time></trkpt><trkpt lat="40.141608321977664" lon="8.659890625445763"><ele>546.0</ele><time>2026-04-29T13:56:51.177Z</time></trkpt><trkpt lat="40.14159294627182" lon="8.66001373620979"><ele>545.0</ele><time>2026-04-29T13:56:52.177Z</time></trkpt><trkpt lat="40.14157780364685" lon="8.660139933936517"><ele>545.0</ele><time>2026-04-29T13:56:53.177Z</time></trkpt><trkpt lat="40.14155526352876" lon="8.660277061197114"><ele>545.0</ele><time>2026-04-29T13:56:54.177Z</time></trkpt><trkpt lat="40.14153170800798" lon="8.660423820814916"><ele>545.0</ele><time>2026-04-29T13:56:55.177Z</time></trkpt><trkpt lat="40.14150197130914" lon="8.660577996640592"><ele>545.0</ele><time>2026-04-29T13:56:56.178Z</time></trkpt><trkpt lat="40.14146593745838" lon="8.66073891707231"><ele>544.0</ele><time>2026-04-29T13:56:57.178Z</time></trkpt><trkpt lat="40.14144521185363" lon="8.660905909801434"><ele>543.0</ele><time>2026-04-29T13:56:58.178Z</time></trkpt><trkpt lat="40.14141360727237" lon="8.661081423669234"><ele>542.0</ele><time>2026-04-29T13:56:59.178Z</time></trkpt><trkpt lat="40.14137204784578" lon="8.66126365393799"><ele>541.0</ele><time>2026-04-29T13:57:00.178Z</time></trkpt><trkpt lat="40.14133831165933" lon="8.661449956077862"><ele>539.3333333333334</ele><time>2026-04-29T13:57:01.178Z</time></trkpt><trkpt lat="40.14130146392708" lon="8.661636957291314"><ele>537.6666666666666</ele><time>2026-04-29T13:57:02.178Z</time></trkpt><trkpt lat="40.14125291279842" lon="8.66184251192325"><ele>536.0</ele><time>2026-04-29T13:57:03.178Z</time></trkpt><trkpt lat="40.14120735816796" lon="8.662051607018379"><ele>533.6666666666666</ele><time>2026-04-29T13:57:04.178Z</time></trkpt><trkpt lat="40.1411598330521" lon="8.662262416865296"><ele>531.3333333333334</ele><time>2026-04-29T13:57:05.178Z</time></trkpt><trkpt lat="40.141117715534484" lon="8.662470275058919"><ele>529.0</ele><time>2026-04-29T13:57:06.178Z</time></trkpt><trkpt lat="40.14107736989649" lon="8.662692351500413"><ele>529.3333333333334</ele><time>2026-04-29T13:57:07.178Z</time></trkpt><trkpt lat="40.14103387778628" lon="8.662916226017996"><ele>529.6666666666666</ele><time>2026-04-29T13:57:08.178Z</time></trkpt><trkpt lat="40.140993413004" lon="8.663137851380437"><ele>530.0</ele><time>2026-04-29T13:57:09.178Z</time></trkpt><trkpt lat="40.14095617156673" lon="8.663366576778095"><ele>530.0</ele><time>2026-04-29T13:57:10.178Z</time></trkpt><trkpt lat="40.140918652692164" lon="8.663591417660568"><ele>530.0</ele><time>2026-04-29T13:57:11.178Z</time></trkpt><trkpt lat="40.14087763747129" lon="8.663814948695547"><ele>530.0</ele><time>2026-04-29T13:57:12.178Z</time></trkpt><trkpt lat="40.140841105800725" lon="8.664033363994847"><ele>530.3333333333333</ele><time>2026-04-29T13:57:13.178Z</time></trkpt><trkpt lat="40.14081563956174" lon="8.664239395824728"><ele>530.6666666666666</ele><time>2026-04-29T13:57:14.178Z</time></trkpt><trkpt lat="40.14080909212182" lon="8.664456913864788"><ele>531.0</ele><time>2026-04-29T13:57:15.178Z</time></trkpt><trkpt lat="40.14081872084061" lon="8.664695731422473"><ele>531.0</ele><time>2026-04-29T13:57:16.178Z</time></trkpt><trkpt lat="40.14082102233895" lon="8.664930377968327"><ele>531.0</ele><time>2026-04-29T13:57:17.178Z</time></trkpt><trkpt lat="40.14081292526718" lon="8.665161462344761"><ele>531.0</ele><time>2026-04-29T13:57:18.178Z</time></trkpt><trkpt lat="40.14080162132668" lon="8.665386200263338"><ele>531.0</ele><time>2026-04-29T13:57:19.178Z</time></trkpt><trkpt lat="40.140789446806615" lon="8.66559029383629"><ele>531.0</ele><time>2026-04-29T13:57:20.178Z</time></trkpt><trkpt lat="40.14077649382945" lon="8.66578869203415"><ele>531.0</ele><time>2026-04-29T13:57:21.178Z</time></trkpt><trkpt lat="40.14074796051409" lon="8.665962445097028"><ele>531.0</ele><time>2026-04-29T13:57:22.178Z</time></trkpt><trkpt lat="40.14069122537549" lon="8.666078385440747"><ele>531.6</ele><time>2026-04-29T13:57:23.178Z</time></trkpt><trkpt lat="40.14061083223476" lon="8.666151325507895"><ele>532.2</ele><time>2026-04-29T13:57:24.178Z</time></trkpt><trkpt lat="40.14052039159441" lon="8.666176140646312"><ele>532.8</ele><time>2026-04-29T13:57:25.178Z</time></trkpt><trkpt lat="40.14043172579419" lon="8.666166848341312"><ele>533.4</ele><time>2026-04-29T13:57:26.178Z</time></trkpt><trkpt lat="40.14034448100756" lon="8.66615398375666"><ele>534.0</ele><time>2026-04-29T13:57:27.178Z</time></trkpt><trkpt lat="40.14024552431873" lon="8.666135234416037"><ele>531.25</ele><time>2026-04-29T13:57:28.178Z</time></trkpt><trkpt lat="40.140142574951966" lon="8.666100170723652"><ele>528.5</ele><time>2026-04-29T13:57:29.178Z</time></trkpt><trkpt lat="40.14003321091762" lon="8.666051824042034"><ele>525.75</ele><time>2026-04-29T13:57:30.178Z</time></trkpt><trkpt lat="40.13992623628364" lon="8.665992637778663"><ele>523.0</ele><time>2026-04-29T13:57:31.178Z</time></trkpt><trkpt lat="40.13981573314032" lon="8.665915937996852"><ele>523.0</ele><time>2026-04-29T13:57:32.178Z</time></trkpt><trkpt lat="40.13970828671538" lon="8.665826585371004"><ele>523.0</ele><time>2026-04-29T13:57:33.178Z</time></trkpt><trkpt lat="40.139602056899804" lon="8.665724457146084"><ele>523.0</ele><time>2026-04-29T13:57:34.178Z</time></trkpt><trkpt lat="40.139505248749316" lon="8.665623160527781"><ele>523.0</ele><time>2026-04-29T13:57:35.178Z</time></trkpt><trkpt lat="40.13939795444327" lon="8.665548503694023"><ele>523.0</ele><time>2026-04-29T13:57:36.178Z</time></trkpt><trkpt lat="40.13927567998748" lon="8.665509934543877"><ele>523.0</ele><time>2026-04-29T13:57:37.178Z</time></trkpt><trkpt lat="40.139151099899735" lon="8.665519426929158"><ele>523.0</ele><time>2026-04-29T13:57:38.178Z</time></trkpt><trkpt lat="40.13902838981973" lon="8.665580644812913"><ele>523.0</ele><time>2026-04-29T13:57:39.178Z</time></trkpt><trkpt lat="40.138910159634065" lon="8.665660445343295"><ele>519.75</ele><time>2026-04-29T13:57:40.178Z</time></trkpt><trkpt lat="40.13879773639063" lon="8.665753438414077"><ele>516.5</ele><time>2026-04-29T13:57:41.178Z</time></trkpt><trkpt lat="40.138692370620824" lon="8.665852292380475"><ele>513.25</ele><time>2026-04-29T13:57:42.178Z</time></trkpt><trkpt lat="40.138585616948674" lon="8.665954976721226"><ele>510.0</ele><time>2026-04-29T13:57:43.178Z</time></trkpt><trkpt lat="40.13847781580254" lon="8.666063193829364"><ele>509.25</ele><time>2026-04-29T13:57:44.178Z</time></trkpt><trkpt lat="40.138373021544574" lon="8.66617754592379"><ele>508.5</ele><time>2026-04-29T13:57:45.178Z</time></trkpt><trkpt lat="40.138272765854566" lon="8.666308300497214"><ele>507.75</ele><time>2026-04-29T13:57:46.178Z</time></trkpt><trkpt lat="40.13818341516034" lon="8.666455586207682"><ele>507.0</ele><time>2026-04-29T13:57:47.178Z</time></trkpt><trkpt lat="40.13809239922207" lon="8.666607623557155"><ele>507.0</ele><time>2026-04-29T13:57:48.178Z</time></trkpt><trkpt lat="40.13799850016802" lon="8.666769928550016"><ele>507.0</ele><time>2026-04-29T13:57:49.178Z</time></trkpt><trkpt lat="40.13790627499163" lon="8.666932219911075"><ele>507.0</ele><time>2026-04-29T13:57:50.178Z</time></trkpt><trkpt lat="40.13781298203374" lon="8.66709835373918"><ele>509.0</ele><time>2026-04-29T13:57:51.178Z</time></trkpt><trkpt lat="40.13771517575606" lon="8.667273122746241"><ele>511.0</ele><time>2026-04-29T13:57:52.178Z</time></trkpt><trkpt lat="40.13761357549957" lon="8.667454341291661"><ele>513.0</ele><time>2026-04-29T13:57:53.178Z</time></trkpt><trkpt lat="40.13751186030099" lon="8.667640007820406"><ele>514.3333333333334</ele><time>2026-04-29T13:57:54.178Z</time></trkpt><trkpt lat="40.1374053978527" lon="8.667828922740847"><ele>515.6666666666667</ele><time>2026-04-29T13:57:55.178Z</time></trkpt><trkpt lat="40.13729591967111" lon="8.668024840465964"><ele>517.0</ele><time>2026-04-29T13:57:56.178Z</time></trkpt><trkpt lat="40.13718855550957" lon="8.668219028862032"><ele>514.3333333333334</ele><time>2026-04-29T13:57:57.178Z</time></trkpt><trkpt lat="40.13707961400398" lon="8.668410716232778"><ele>511.66666666666663</ele><time>2026-04-29T13:57:58.178Z</time></trkpt><trkpt lat="40.136974676629755" lon="8.668601515260397"><ele>509.0</ele><time>2026-04-29T13:57:59.178Z</time></trkpt><trkpt lat="40.136874276408996" lon="8.668781000283277"><ele>509.0</ele><time>2026-04-29T13:58:00.178Z</time></trkpt><trkpt lat="40.13678352680012" lon="8.668944890849614"><ele>509.0</ele><time>2026-04-29T13:58:01.178Z</time></trkpt><trkpt lat="40.13669983856357" lon="8.66908214383677"><ele>509.0</ele><time>2026-04-29T13:58:02.178Z</time></trkpt><trkpt lat="40.136613868709425" lon="8.669180240226293"><ele>509.0</ele><time>2026-04-29T13:58:03.178Z</time></trkpt><trkpt lat="40.136508548906306" lon="8.66923891633114"><ele>506.75</ele><time>2026-04-29T13:58:04.178Z</time></trkpt><trkpt lat="40.136377065084694" lon="8.669249420616337"><ele>504.5</ele><time>2026-04-29T13:58:05.178Z</time></trkpt><trkpt lat="40.1362358468691" lon="8.669235455208632"><ele>502.25</ele><time>2026-04-29T13:58:06.178Z</time></trkpt><trkpt lat="40.13607542452559" lon="8.669229802478457"><ele>500.0</ele><time>2026-04-29T13:58:07.178Z</time></trkpt><trkpt lat="40.135901724452175" lon="8.669232804269601"><ele>500.0</ele><time>2026-04-29T13:58:08.178Z</time></trkpt><trkpt lat="40.1357206565086" lon="8.66924538270425"><ele>500.0</ele><time>2026-04-29T13:58:09.178Z</time></trkpt><trkpt lat="40.1355486405853" lon="8.669299166560892"><ele>500.0</ele><time>2026-04-29T13:58:10.178Z</time></trkpt><trkpt lat="40.13540212891469" lon="8.66939876606948"><ele>498.3333333333333</ele><time>2026-04-29T13:58:11.178Z</time></trkpt><trkpt lat="40.13527728004526" lon="8.669545221957177"><ele>496.66666666666663</ele><time>2026-04-29T13:58:12.178Z</time></trkpt><trkpt lat="40.13515957262204" lon="8.669718995380867"><ele>495.0</ele><time>2026-04-29T13:58:13.178Z</time></trkpt><trkpt lat="40.1350433443988" lon="8.66989827571699"><ele>495.0</ele><time>2026-04-29T13:58:14.178Z</time></trkpt><trkpt lat="40.13491810768182" lon="8.670080071455496"><ele>495.0</ele><time>2026-04-29T13:58:15.178Z</time></trkpt><trkpt lat="40.13479271446043" lon="8.670267683653075"><ele>495.0</ele><time>2026-04-29T13:58:16.178Z</time></trkpt><trkpt lat="40.134673400945026" lon="8.670469775167954"><ele>492.0</ele><time>2026-04-29T13:58:17.178Z</time></trkpt><trkpt lat="40.13455554966411" lon="8.67067943524352"><ele>489.0</ele><time>2026-04-29T13:58:18.178Z</time></trkpt><trkpt lat="40.134436227689704" lon="8.67090088053646"><ele>486.0</ele><time>2026-04-29T13:58:19.178Z</time></trkpt><trkpt lat="40.13430790784512" lon="8.671128198230953"><ele>485.0</ele><time>2026-04-29T13:58:20.178Z</time></trkpt><trkpt lat="40.13418112903356" lon="8.671358624466208"><ele>484.0</ele><time>2026-04-29T13:58:21.178Z</time></trkpt><trkpt lat="40.13405298197977" lon="8.671588996252448"><ele>483.0</ele><time>2026-04-29T13:58:22.178Z</time></trkpt><trkpt lat="40.13393457608294" lon="8.671821997597053"><ele>479.66666666666663</ele><time>2026-04-29T13:58:23.178Z</time></trkpt><trkpt lat="40.13381672997737" lon="8.672062821859786"><ele>476.3333333333333</ele><time>2026-04-29T13:58:24.178Z</time></trkpt><trkpt lat="40.13370208868475" lon="8.672304272144203"><ele>473.0</ele><time>2026-04-29T13:58:25.178Z</time></trkpt><trkpt lat="40.13359452688482" lon="8.67257303600787"><ele>474.0</ele><time>2026-04-29T13:58:26.178Z</time></trkpt><trkpt lat="40.13348614779012" lon="8.672844666542188"><ele>475.0</ele><time>2026-04-29T13:58:27.178Z</time></trkpt><trkpt lat="40.13325788254338" lon="8.672940255926632"><ele>473.6666666666667</ele><time>2026-04-29T13:58:28.178Z</time></trkpt><trkpt lat="40.13312926899136" lon="8.673173211943142"><ele>472.33333333333337</ele><time>2026-04-29T13:58:29.178Z</time></trkpt><trkpt lat="40.132999499665345" lon="8.673409721541908"><ele>471.0</ele><time>2026-04-29T13:58:30.178Z</time></trkpt><trkpt lat="40.13286380554965" lon="8.673641688652264"><ele>471.0</ele><time>2026-04-29T13:58:31.178Z</time></trkpt><trkpt lat="40.132729075950614" lon="8.673868787224542"><ele>471.0</ele><time>2026-04-29T13:58:32.178Z</time></trkpt><trkpt lat="40.13260037827648" lon="8.674099086248507"><ele>471.0</ele><time>2026-04-29T13:58:33.178Z</time></trkpt><trkpt lat="40.132469891224645" lon="8.674325410561586"><ele>470.0</ele><time>2026-04-29T13:58:34.178Z</time></trkpt><trkpt lat="40.13234552688869" lon="8.674549227340629"><ele>469.0</ele><time>2026-04-29T13:58:35.178Z</time></trkpt><trkpt lat="40.13222890424624" lon="8.674781830053423"><ele>468.0</ele><time>2026-04-29T13:58:36.178Z</time></trkpt><trkpt lat="40.132115877364896" lon="8.675025705980678"><ele>467.66666666666663</ele><time>2026-04-29T13:58:37.178Z</time></trkpt><trkpt lat="40.13199716131648" lon="8.675275851480004"><ele>467.3333333333333</ele><time>2026-04-29T13:58:38.178Z</time></trkpt><trkpt lat="40.131887149601134" lon="8.675502275814432"><ele>467.0</ele><time>2026-04-29T13:58:39.178Z</time></trkpt><trkpt lat="40.13177480390016" lon="8.675704576547233"><ele>467.0</ele><time>2026-04-29T13:58:40.178Z</time></trkpt><trkpt lat="40.13166267636221" lon="8.675897961893293"><ele>467.0</ele><time>2026-04-29T13:58:41.178Z</time></trkpt><trkpt lat="40.13155836586103" lon="8.676082925416738"><ele>467.0</ele><time>2026-04-29T13:58:42.178Z</time></trkpt><trkpt lat="40.131429535849534" lon="8.676279694760407"><ele>464.0</ele><time>2026-04-29T13:58:43.178Z</time></trkpt><trkpt lat="40.13130208048534" lon="8.676499926071857"><ele>461.0</ele><time>2026-04-29T13:58:44.178Z</time></trkpt><trkpt lat="40.13116674859007" lon="8.676740621476453"><ele>458.0</ele><time>2026-04-29T13:58:45.178Z</time></trkpt><trkpt lat="40.1310263772239" lon="8.677000329597695"><ele>457.0</ele><time>2026-04-29T13:58:46.178Z</time></trkpt><trkpt lat="40.13090502204588" lon="8.677252043497399"><ele>456.0</ele><time>2026-04-29T13:58:47.178Z</time></trkpt><trkpt lat="40.130780634049316" lon="8.677490185480917"><ele>455.0</ele><time>2026-04-29T13:58:48.178Z</time></trkpt><trkpt lat="40.130628057806675" lon="8.677713923216844"><ele>451.0</ele><time>2026-04-29T13:58:49.178Z</time></trkpt><trkpt lat="40.13042574797946" lon="8.677916315350894"><ele>447.0</ele><time>2026-04-29T13:58:50.178Z</time></trkpt><trkpt lat="40.130241331331185" lon="8.678133838869444"><ele>447.0</ele><time>2026-04-29T13:58:51.178Z</time></trkpt><trkpt lat="40.13005835061202" lon="8.67836464218934"><ele>447.0</ele><time>2026-04-29T13:58:52.178Z</time></trkpt><trkpt lat="40.129869550597014" lon="8.678594144305254"><ele>444.0</ele><time>2026-04-29T13:58:53.178Z</time></trkpt><trkpt lat="40.12967261135891" lon="8.678821941667328"><ele>441.0</ele><time>2026-04-29T13:58:54.178Z</time></trkpt><trkpt lat="40.12946713875237" lon="8.679034621794768"><ele>441.0</ele><time>2026-04-29T13:58:55.178Z</time></trkpt><trkpt lat="40.129254442080146" lon="8.679243441095247"><ele>441.0</ele><time>2026-04-29T13:58:56.178Z</time></trkpt><trkpt lat="40.12903513659783" lon="8.679450096946486"><ele>437.5</ele><time>2026-04-29T13:58:57.178Z</time></trkpt><trkpt lat="40.1288185448892" lon="8.679659403708339"><ele>434.0</ele><time>2026-04-29T13:58:58.178Z</time></trkpt><trkpt lat="40.12860357905186" lon="8.679872805748678"><ele>434.0</ele><time>2026-04-29T13:58:59.178Z</time></trkpt><trkpt lat="40.128382203693285" lon="8.680090632342074"><ele>434.0</ele><time>2026-04-29T13:59:00.178Z</time></trkpt><trkpt lat="40.12815735166871" lon="8.680302304467848"><ele>433.0</ele><time>2026-04-29T13:59:01.178Z</time></trkpt><trkpt lat="40.127923757696564" lon="8.680491274704844"><ele>432.0</ele><time>2026-04-29T13:59:02.179Z</time></trkpt><trkpt lat="40.127670952078695" lon="8.68064803839611"><ele>432.0</ele><time>2026-04-29T13:59:03.179Z</time></trkpt><trkpt lat="40.12741071034841" lon="8.680778189982007"><ele>432.0</ele><time>2026-04-29T13:59:04.179Z</time></trkpt><trkpt lat="40.12715108955583" lon="8.68089968234964"><ele>431.0</ele><time>2026-04-29T13:59:05.179Z</time></trkpt><trkpt lat="40.12689985263559" lon="8.681015679237435"><ele>430.0</ele><time>2026-04-29T13:59:06.179Z</time></trkpt><trkpt lat="40.12665742375681" lon="8.681138702735051"><ele>430.0</ele><time>2026-04-29T13:59:07.179Z</time></trkpt><trkpt lat="40.12642015154318" lon="8.6812588880128"><ele>430.0</ele><time>2026-04-29T13:59:08.179Z</time></trkpt><trkpt lat="40.12619011543066" lon="8.681370231618333"><ele>430.0</ele><time>2026-04-29T13:59:09.179Z</time></trkpt><trkpt lat="40.12597171354893" lon="8.681473485559847"><ele>430.0</ele><time>2026-04-29T13:59:10.179Z</time></trkpt><trkpt lat="40.12579896521354" lon="8.68160635970078"><ele>430.0</ele><time>2026-04-29T13:59:11.179Z</time></trkpt><trkpt lat="40.12564930794491" lon="8.681810215971522"><ele>428.0</ele><time>2026-04-29T13:59:12.179Z</time></trkpt><trkpt lat="40.12550755476276" lon="8.682071341228333"><ele>426.0</ele><time>2026-04-29T13:59:13.179Z</time></trkpt><trkpt lat="40.12537078242165" lon="8.682350251101859"><ele>426.0</ele><time>2026-04-29T13:59:14.179Z</time></trkpt><trkpt lat="40.12522285997132" lon="8.682626254448524"><ele>426.0</ele><time>2026-04-29T13:59:15.179Z</time></trkpt><trkpt lat="40.125060486703" lon="8.682894430461364"><ele>420.5</ele><time>2026-04-29T13:59:16.179Z</time></trkpt><trkpt lat="40.124879837266775" lon="8.683148389908492"><ele>415.0</ele><time>2026-04-29T13:59:17.179Z</time></trkpt><trkpt lat="40.12468712454602" lon="8.683398862989948"><ele>411.5</ele><time>2026-04-29T13:59:18.179Z</time></trkpt><trkpt lat="40.12449386939738" lon="8.683655032989543"><ele>408.0</ele><time>2026-04-29T13:59:19.179Z</time></trkpt><trkpt lat="40.12429301803492" lon="8.683901817587747"><ele>408.0</ele><time>2026-04-29T13:59:20.179Z</time></trkpt><trkpt lat="40.12407576467913" lon="8.684136604088904"><ele>408.0</ele><time>2026-04-29T13:59:21.179Z</time></trkpt><trkpt lat="40.12386088110315" lon="8.684364841774075"><ele>403.5</ele><time>2026-04-29T13:59:22.179Z</time></trkpt><trkpt lat="40.12364903476092" lon="8.684601505461465"><ele>399.0</ele><time>2026-04-29T13:59:23.179Z</time></trkpt><trkpt lat="40.12345184101715" lon="8.684852319269053"><ele>399.0</ele><time>2026-04-29T13:59:24.179Z</time></trkpt><trkpt lat="40.12326133435122" lon="8.685107277012117"><ele>399.0</ele><time>2026-04-29T13:59:25.179Z</time></trkpt><trkpt lat="40.123078768729464" lon="8.685360082173876"><ele>394.5</ele><time>2026-04-29T13:59:26.179Z</time></trkpt><trkpt lat="40.122907816544576" lon="8.685604502669472"><ele>390.0</ele><time>2026-04-29T13:59:27.179Z</time></trkpt><trkpt lat="40.12276019985137" lon="8.685862052162667"><ele>387.0</ele><time>2026-04-29T13:59:28.179Z</time></trkpt><trkpt lat="40.12264693950638" lon="8.68612422444317"><ele>384.0</ele><time>2026-04-29T13:59:29.179Z</time></trkpt><trkpt lat="40.12254098163362" lon="8.686395442312422"><ele>384.0</ele><time>2026-04-29T13:59:30.179Z</time></trkpt><trkpt lat="40.1224711182786" lon="8.68664362083751"><ele>384.0</ele><time>2026-04-29T13:59:31.179Z</time></trkpt><trkpt lat="40.12241984208834" lon="8.686874169374384"><ele>384.0</ele><time>2026-04-29T13:59:32.179Z</time></trkpt><trkpt lat="40.12242908106424" lon="8.687084866711702"><ele>381.6666666666667</ele><time>2026-04-29T13:59:33.179Z</time></trkpt><trkpt lat="40.12249490582989" lon="8.687310630056263"><ele>379.33333333333337</ele><time>2026-04-29T13:59:34.179Z</time></trkpt><trkpt lat="40.12262084852675" lon="8.687558599256944"><ele>377.0</ele><time>2026-04-29T13:59:35.179Z</time></trkpt><trkpt lat="40.12274132799706" lon="8.687833136563173"><ele>374.33333333333337</ele><time>2026-04-29T13:59:36.179Z</time></trkpt><trkpt lat="40.122822692795424" lon="8.688112355312198"><ele>371.6666666666667</ele><time>2026-04-29T13:59:37.179Z</time></trkpt><trkpt lat="40.12286889481398" lon="8.688368160354251"><ele>369.0</ele><time>2026-04-29T13:59:38.179Z</time></trkpt><trkpt lat="40.1228901996993" lon="8.688612620406015"><ele>366.3333333333333</ele><time>2026-04-29T13:59:39.179Z</time></trkpt><trkpt lat="40.12285850379578" lon="8.688850257194183"><ele>363.66666666666663</ele><time>2026-04-29T13:59:40.179Z</time></trkpt><trkpt lat="40.12276805384208" lon="8.689096503161828"><ele>361.0</ele><time>2026-04-29T13:59:41.179Z</time></trkpt><trkpt lat="40.12265975133807" lon="8.689348236557096"><ele>358.5</ele><time>2026-04-29T13:59:42.179Z</time></trkpt><trkpt lat="40.122564079504016" lon="8.689616931376959"><ele>356.0</ele><time>2026-04-29T13:59:43.179Z</time></trkpt><trkpt lat="40.122467508873385" lon="8.689906469883871"><ele>354.0</ele><time>2026-04-29T13:59:44.179Z</time></trkpt><trkpt lat="40.12236370100773" lon="8.690200140250674"><ele>352.0</ele><time>2026-04-29T13:59:45.179Z</time></trkpt><trkpt lat="40.122258808232814" lon="8.690511032695495"><ele>351.0</ele><time>2026-04-29T13:59:46.179Z</time></trkpt><trkpt lat="40.122164698355945" lon="8.690819676968996"><ele>350.0</ele><time>2026-04-29T13:59:47.179Z</time></trkpt><trkpt lat="40.12206681674466" lon="8.691138139914894"><ele>349.5</ele><time>2026-04-29T13:59:48.179Z</time></trkpt><trkpt lat="40.121969993798345" lon="8.69145829918955"><ele>349.0</ele><time>2026-04-29T13:59:49.179Z</time></trkpt><trkpt lat="40.121866974121424" lon="8.691770709641567"><ele>350.0</ele><time>2026-04-29T13:59:50.179Z</time></trkpt><trkpt lat="40.12176511546394" lon="8.692083415066149"><ele>351.0</ele><time>2026-04-29T13:59:51.179Z</time></trkpt><trkpt lat="40.121657067358576" lon="8.692393200837333"><ele>351.0</ele><time>2026-04-29T13:59:52.179Z</time></trkpt><trkpt lat="40.12154634332818" lon="8.692701767294741"><ele>351.0</ele><time>2026-04-29T13:59:53.179Z</time></trkpt><trkpt lat="40.12143580445721" lon="8.693005860618177"><ele>350.0</ele><time>2026-04-29T13:59:54.179Z</time></trkpt><trkpt lat="40.12132550715123" lon="8.693308552894566"><ele>349.0</ele><time>2026-04-29T13:59:55.179Z</time></trkpt><trkpt lat="40.12120693949421" lon="8.693606961684294"><ele>347.5</ele><time>2026-04-29T13:59:56.179Z</time></trkpt><trkpt lat="40.121089943490865" lon="8.693876603926887"><ele>346.0</ele><time>2026-04-29T13:59:57.179Z</time></trkpt><trkpt lat="40.12093486791443" lon="8.694141277030443"><ele>346.0</ele><time>2026-04-29T13:59:58.179Z</time></trkpt><trkpt lat="40.12077663332219" lon="8.69438501435897"><ele>346.0</ele><time>2026-04-29T13:59:59.179Z</time></trkpt><trkpt lat="40.12061921293304" lon="8.694606690435617"><ele>344.0</ele><time>2026-04-29T14:00:00.179Z</time></trkpt><trkpt lat="40.12045725549391" lon="8.69477320325141"><ele>342.0</ele><time>2026-04-29T14:00:01.179Z</time></trkpt><trkpt lat="40.12027295980328" lon="8.694863983841076"><ele>340.0</ele><time>2026-04-29T14:00:02.179Z</time></trkpt><trkpt lat="40.120060995509455" lon="8.694901861082396"><ele>338.0</ele><time>2026-04-29T14:00:03.179Z</time></trkpt><trkpt lat="40.11983554128078" lon="8.694915298245096"><ele>336.0</ele><time>2026-04-29T14:00:04.179Z</time></trkpt><trkpt lat="40.1196030284295" lon="8.694937914952556"><ele>336.0</ele><time>2026-04-29T14:00:05.179Z</time></trkpt><trkpt lat="40.119387455110605" lon="8.695021228160536"><ele>336.0</ele><time>2026-04-29T14:00:06.179Z</time></trkpt><trkpt lat="40.119200925260415" lon="8.695158082479855"><ele>336.0</ele><time>2026-04-29T14:00:07.179Z</time></trkpt><trkpt lat="40.11903374498025" lon="8.695299158676592"><ele>333.0</ele><time>2026-04-29T14:00:08.179Z</time></trkpt><trkpt lat="40.11889965046165" lon="8.69549199409891"><ele>330.0</ele><time>2026-04-29T14:00:09.179Z</time></trkpt><trkpt lat="40.11879114252597" lon="8.695731262330828"><ele>327.0</ele><time>2026-04-29T14:00:10.179Z</time></trkpt><trkpt lat="40.11868828872678" lon="8.695997814296664"><ele>326.0</ele><time>2026-04-29T14:00:11.179Z</time></trkpt><trkpt lat="40.11859539569701" lon="8.69627041171482"><ele>325.0</ele><time>2026-04-29T14:00:12.179Z</time></trkpt><trkpt lat="40.11850755654784" lon="8.696518500663561"><ele>324.0</ele><time>2026-04-29T14:00:13.179Z</time></trkpt><trkpt lat="40.11839685574741" lon="8.696742583350371"><ele>320.6666666666667</ele><time>2026-04-29T14:00:14.179Z</time></trkpt><trkpt lat="40.118233886844756" lon="8.696925973277986"><ele>317.33333333333337</ele><time>2026-04-29T14:00:15.179Z</time></trkpt><trkpt lat="40.11802726100316" lon="8.697061421793263"><ele>314.0</ele><time>2026-04-29T14:00:16.179Z</time></trkpt><trkpt lat="40.117829471493856" lon="8.6972115391789"><ele>314.0</ele><time>2026-04-29T14:00:17.179Z</time></trkpt><trkpt lat="40.11764359502943" lon="8.697382491158548"><ele>314.0</ele><time>2026-04-29T14:00:18.179Z</time></trkpt><trkpt lat="40.11749582672097" lon="8.697583722340905"><ele>314.0</ele><time>2026-04-29T14:00:19.179Z</time></trkpt><trkpt lat="40.11738749939391" lon="8.697819730508026"><ele>310.5</ele><time>2026-04-29T14:00:20.179Z</time></trkpt><trkpt lat="40.117313946472485" lon="8.698097699022014"><ele>307.0</ele><time>2026-04-29T14:00:21.179Z</time></trkpt><trkpt lat="40.11726187554371" lon="8.698390170883398"><ele>306.0</ele><time>2026-04-29T14:00:22.179Z</time></trkpt><trkpt lat="40.11719213391074" lon="8.6986510147181"><ele>305.0</ele><time>2026-04-29T14:00:23.179Z</time></trkpt><trkpt lat="40.117098764020525" lon="8.698876762618841"><ele>304.0</ele><time>2026-04-29T14:00:24.179Z</time></trkpt><trkpt lat="40.11696065524164" lon="8.699045582518716"><ele>304.0</ele><time>2026-04-29T14:00:25.179Z</time></trkpt><trkpt lat="40.11678262239379" lon="8.69917126588642"><ele>304.0</ele><time>2026-04-29T14:00:26.179Z</time></trkpt><trkpt lat="40.116572044457506" lon="8.699269134502382"><ele>304.0</ele><time>2026-04-29T14:00:27.179Z</time></trkpt><trkpt lat="40.116365822783585" lon="8.699418226623948"><ele>299.0</ele><time>2026-04-29T14:00:28.179Z</time></trkpt><trkpt lat="40.11618885125107" lon="8.6996232432895"><ele>294.0</ele><time>2026-04-29T14:00:29.179Z</time></trkpt><trkpt lat="40.116032572790864" lon="8.699856898985075"><ele>294.0</ele><time>2026-04-29T14:00:30.179Z</time></trkpt><trkpt lat="40.11588630818462" lon="8.700091128050202"><ele>294.0</ele><time>2026-04-29T14:00:31.179Z</time></trkpt><trkpt lat="40.11573785227445" lon="8.70032067534085"><ele>294.5</ele><time>2026-04-29T14:00:32.179Z</time></trkpt><trkpt lat="40.11558983965801" lon="8.700548664970325"><ele>295.0</ele><time>2026-04-29T14:00:33.179Z</time></trkpt><trkpt lat="40.115457549033096" lon="8.700780973074508"><ele>295.0</ele><time>2026-04-29T14:00:34.179Z</time></trkpt><trkpt lat="40.11534562723923" lon="8.70102322724685"><ele>295.0</ele><time>2026-04-29T14:00:35.179Z</time></trkpt><trkpt lat="40.11524833653124" lon="8.701266595054484"><ele>295.0</ele><time>2026-04-29T14:00:36.179Z</time></trkpt><trkpt lat="40.115131709721126" lon="8.701461944634126"><ele>297.3333333333333</ele><time>2026-04-29T14:00:37.179Z</time></trkpt><trkpt lat="40.114975614808806" lon="8.70160474559635"><ele>299.6666666666667</ele><time>2026-04-29T14:00:38.179Z</time></trkpt><trkpt lat="40.114783301578015" lon="8.701688033060844"><ele>302.0</ele><time>2026-04-29T14:00:39.179Z</time></trkpt><trkpt lat="40.114569558518454" lon="8.701689718327978"><ele>302.6666666666667</ele><time>2026-04-29T14:00:40.179Z</time></trkpt><trkpt lat="40.114348753125114" lon="8.701622484334676"><ele>303.3333333333333</ele><time>2026-04-29T14:00:41.179Z</time></trkpt><trkpt lat="40.11413888222645" lon="8.70156679076421"><ele>304.0</ele><time>2026-04-29T14:00:42.179Z</time></trkpt><trkpt lat="40.113925826337635" lon="8.701590607673003"><ele>305.0</ele><time>2026-04-29T14:00:43.179Z</time></trkpt><trkpt lat="40.1137258327929" lon="8.701693312051214"><ele>306.0</ele><time>2026-04-29T14:00:44.179Z</time></trkpt><trkpt lat="40.113542045222964" lon="8.701836090380263"><ele>307.0</ele><time>2026-04-29T14:00:45.179Z</time></trkpt><trkpt lat="40.113387983082305" lon="8.702027377292634"><ele>308.66666666666663</ele><time>2026-04-29T14:00:46.179Z</time></trkpt><trkpt lat="40.11329516495045" lon="8.70230615291685"><ele>310.3333333333333</ele><time>2026-04-29T14:00:47.179Z</time></trkpt><trkpt lat="40.11321520907556" lon="8.70256547114742"><ele>312.0</ele><time>2026-04-29T14:00:48.179Z</time></trkpt><trkpt lat="40.113101912505115" lon="8.702801522467992"><ele>312.6666666666667</ele><time>2026-04-29T14:00:49.179Z</time></trkpt><trkpt lat="40.11295739160404" lon="8.703018916490274"><ele>313.33333333333337</ele><time>2026-04-29T14:00:50.179Z</time></trkpt><trkpt lat="40.112777294539995" lon="8.703201286346172"><ele>314.0</ele><time>2026-04-29T14:00:51.179Z</time></trkpt><trkpt lat="40.11257031190021" lon="8.703339933103337"><ele>314.0</ele><time>2026-04-29T14:00:52.179Z</time></trkpt><trkpt lat="40.112364749829304" lon="8.703485262588384"><ele>314.0</ele><time>2026-04-29T14:00:53.179Z</time></trkpt><trkpt lat="40.112166788856804" lon="8.703636303673711"><ele>315.0</ele><time>2026-04-29T14:00:54.179Z</time></trkpt><trkpt lat="40.11198759274162" lon="8.70378964169719"><ele>316.0</ele><time>2026-04-29T14:00:55.179Z</time></trkpt><trkpt lat="40.111841181093226" lon="8.703973679638276"><ele>317.0</ele><time>2026-04-29T14:00:56.179Z</time></trkpt><trkpt lat="40.11173181500822" lon="8.704227474976538"><ele>316.5</ele><time>2026-04-29T14:00:57.179Z</time></trkpt><trkpt lat="40.11162228844491" lon="8.70449184766813"><ele>316.0</ele><time>2026-04-29T14:00:58.179Z</time></trkpt><trkpt lat="40.11149150941641" lon="8.704741525727302"><ele>315.0</ele><time>2026-04-29T14:00:59.179Z</time></trkpt><trkpt lat="40.111344155452755" lon="8.70497951892809"><ele>314.0</ele><time>2026-04-29T14:01:00.179Z</time></trkpt><trkpt lat="40.11117729235115" lon="8.705198832448584"><ele>314.5</ele><time>2026-04-29T14:01:01.179Z</time></trkpt><trkpt lat="40.1110092688389" lon="8.70540342355956"><ele>315.0</ele><time>2026-04-29T14:01:02.179Z</time></trkpt><trkpt lat="40.11084178578025" lon="8.70560960142081"><ele>314.5</ele><time>2026-04-29T14:01:03.179Z</time></trkpt><trkpt lat="40.11067750150067" lon="8.705820635442825"><ele>314.0</ele><time>2026-04-29T14:01:04.179Z</time></trkpt><trkpt lat="40.110517118598224" lon="8.706025784378864"><ele>313.5</ele><time>2026-04-29T14:01:05.179Z</time></trkpt><trkpt lat="40.11036355750388" lon="8.706244972517327"><ele>313.0</ele><time>2026-04-29T14:01:06.179Z</time></trkpt><trkpt lat="40.11023034847477" lon="8.706479837358868"><ele>313.0</ele><time>2026-04-29T14:01:07.179Z</time></trkpt><trkpt lat="40.110122480774486" lon="8.706750036366598"><ele>313.0</ele><time>2026-04-29T14:01:08.18Z</time></trkpt><trkpt lat="40.11003883073427" lon="8.7070350901795"><ele>313.5</ele><time>2026-04-29T14:01:09.179Z</time></trkpt><trkpt lat="40.109955993800526" lon="8.707321722466451"><ele>314.0</ele><time>2026-04-29T14:01:10.179Z</time></trkpt><trkpt lat="40.10987530470232" lon="8.707610292150676"><ele>313.5</ele><time>2026-04-29T14:01:11.18Z</time></trkpt><trkpt lat="40.1097939351645" lon="8.707901410730686"><ele>313.0</ele><time>2026-04-29T14:01:12.18Z</time></trkpt><trkpt lat="40.10969903841509" lon="8.708184889054417"><ele>313.0</ele><time>2026-04-29T14:01:13.18Z</time></trkpt><trkpt lat="40.10956858143785" lon="8.708446515989372"><ele>313.0</ele><time>2026-04-29T14:01:14.18Z</time></trkpt><trkpt lat="40.109407222169" lon="8.708676489139629"><ele>313.5</ele><time>2026-04-29T14:01:15.18Z</time></trkpt><trkpt lat="40.10923139713608" lon="8.70889219635913"><ele>314.0</ele><time>2026-04-29T14:01:16.18Z</time></trkpt><trkpt lat="40.10905797497553" lon="8.709109661354075"><ele>314.6666666666667</ele><time>2026-04-29T14:01:17.18Z</time></trkpt><trkpt lat="40.10889553125758" lon="8.709318341825632"><ele>315.3333333333333</ele><time>2026-04-29T14:01:18.179Z</time></trkpt><trkpt lat="40.10876194331228" lon="8.70952986021117"><ele>316.0</ele><time>2026-04-29T14:01:19.179Z</time></trkpt><trkpt lat="40.10866953529755" lon="8.709744636320982"><ele>317.0</ele><time>2026-04-29T14:01:20.18Z</time></trkpt><trkpt lat="40.10863222558656" lon="8.710003803488664"><ele>318.0</ele><time>2026-04-29T14:01:21.18Z</time></trkpt><trkpt lat="40.10863606770905" lon="8.710287638961857"><ele>319.0</ele><time>2026-04-29T14:01:22.18Z</time></trkpt><trkpt lat="40.10864221648591" lon="8.710584891955985"><ele>319.5</ele><time>2026-04-29T14:01:23.18Z</time></trkpt><trkpt lat="40.10863634895299" lon="8.710886788273418"><ele>320.0</ele><time>2026-04-29T14:01:24.18Z</time></trkpt><trkpt lat="40.108627077962524" lon="8.711179510871698"><ele>320.33333333333337</ele><time>2026-04-29T14:01:25.18Z</time></trkpt><trkpt lat="40.10862713737049" lon="8.711461318465231"><ele>320.6666666666667</ele><time>2026-04-29T14:01:26.18Z</time></trkpt><trkpt lat="40.1086206236176" lon="8.71175384030437"><ele>321.0</ele><time>2026-04-29T14:01:27.18Z</time></trkpt><trkpt lat="40.10861575442439" lon="8.712052326171804"><ele>322.5</ele><time>2026-04-29T14:01:28.18Z</time></trkpt><trkpt lat="40.10860827557624" lon="8.712351759881457"><ele>324.0</ele><time>2026-04-29T14:01:29.18Z</time></trkpt><trkpt lat="40.10860093818518" lon="8.712649451330384"><ele>323.5</ele><time>2026-04-29T14:01:30.18Z</time></trkpt><trkpt lat="40.10860333876567" lon="8.71295372547081"><ele>323.0</ele><time>2026-04-29T14:01:31.18Z</time></trkpt><trkpt lat="40.108599555578415" lon="8.7132525327774"><ele>323.0</ele><time>2026-04-29T14:01:32.18Z</time></trkpt><trkpt lat="40.108592430486695" lon="8.713555577277306"><ele>323.0</ele><time>2026-04-29T14:01:33.18Z</time></trkpt><trkpt lat="40.10858425937932" lon="8.71383144115339"><ele>323.0</ele><time>2026-04-29T14:01:34.18Z</time></trkpt><trkpt lat="40.10856821392655" lon="8.714095583004406"><ele>323.6666666666667</ele><time>2026-04-29T14:01:35.18Z</time></trkpt><trkpt lat="40.10852415577249" lon="8.714323352105156"><ele>324.3333333333333</ele><time>2026-04-29T14:01:36.18Z</time></trkpt><trkpt lat="40.108426342251114" lon="8.714506524123392"><ele>325.0</ele><time>2026-04-29T14:01:37.18Z</time></trkpt><trkpt lat="40.10828678986789" lon="8.71465159059201"><ele>325.66666666666663</ele><time>2026-04-29T14:01:38.18Z</time></trkpt><trkpt lat="40.10810377502171" lon="8.714757182206405"><ele>326.3333333333333</ele><time>2026-04-29T14:01:39.18Z</time></trkpt><trkpt lat="40.10792150064948" lon="8.714888358934386"><ele>327.0</ele><time>2026-04-29T14:01:40.18Z</time></trkpt><trkpt lat="40.10772949517731" lon="8.7150046546986"><ele>327.0</ele><time>2026-04-29T14:01:41.18Z</time></trkpt><trkpt lat="40.10752519889128" lon="8.715078555328"><ele>327.0</ele><time>2026-04-29T14:01:42.18Z</time></trkpt><trkpt lat="40.10730993399653" lon="8.715118367094187"><ele>327.0</ele><time>2026-04-29T14:01:43.18Z</time></trkpt><trkpt lat="40.10709304900714" lon="8.715182031687366"><ele>328.6666666666667</ele><time>2026-04-29T14:01:44.18Z</time></trkpt><trkpt lat="40.10688745942685" lon="8.715280156977471"><ele>330.33333333333337</ele><time>2026-04-29T14:01:45.18Z</time></trkpt><trkpt lat="40.10670738275545" lon="8.71542971778356"><ele>332.0</ele><time>2026-04-29T14:01:46.18Z</time></trkpt><trkpt lat="40.10654401349376" lon="8.71562849150447"><ele>332.0</ele><time>2026-04-29T14:01:47.18Z</time></trkpt><trkpt lat="40.1063833949582" lon="8.715821854261645"><ele>332.0</ele><time>2026-04-29T14:01:48.18Z</time></trkpt><trkpt lat="40.1062484008709" lon="8.716046772588568"><ele>332.0</ele><time>2026-04-29T14:01:49.18Z</time></trkpt><trkpt lat="40.106156974478665" lon="8.716297714398923"><ele>332.0</ele><time>2026-04-29T14:01:50.18Z</time></trkpt><trkpt lat="40.10608411655703" lon="8.716558564928132"><ele>332.0</ele><time>2026-04-29T14:01:51.18Z</time></trkpt><trkpt lat="40.10599439494375" lon="8.716807420093232"><ele>332.0</ele><time>2026-04-29T14:01:52.18Z</time></trkpt><trkpt lat="40.10590248931943" lon="8.717032168178813"><ele>332.0</ele><time>2026-04-29T14:01:53.18Z</time></trkpt><trkpt lat="40.10578646792079" lon="8.71722432114538"><ele>332.0</ele><time>2026-04-29T14:01:54.18Z</time></trkpt><trkpt lat="40.105637802541814" lon="8.717389891042934"><ele>332.0</ele><time>2026-04-29T14:01:55.18Z</time></trkpt><trkpt lat="40.10546717472995" lon="8.717558801664039"><ele>331.6666666666667</ele><time>2026-04-29T14:01:56.18Z</time></trkpt><trkpt lat="40.10529547469116" lon="8.717739466990151"><ele>331.3333333333333</ele><time>2026-04-29T14:01:57.18Z</time></trkpt><trkpt lat="40.10512504941543" lon="8.71790031773009"><ele>331.0</ele><time>2026-04-29T14:01:58.18Z</time></trkpt><trkpt lat="40.10493962447854" lon="8.717997923218453"><ele>330.66666666666663</ele><time>2026-04-29T14:01:59.18Z</time></trkpt><trkpt lat="40.10475627835672" lon="8.718059102175587"><ele>330.3333333333333</ele><time>2026-04-29T14:02:00.18Z</time></trkpt><trkpt lat="40.10459798782418" lon="8.71814881883825"><ele>330.0</ele><time>2026-04-29T14:02:01.18Z</time></trkpt><trkpt lat="40.10447703626919" lon="8.718292803830671"><ele>330.0</ele><time>2026-04-29T14:02:02.18Z</time></trkpt><trkpt lat="40.104389344903545" lon="8.718488930290464"><ele>330.0</ele><time>2026-04-29T14:02:03.18Z</time></trkpt><trkpt lat="40.104328762271535" lon="8.718719459625019"><ele>330.0</ele><time>2026-04-29T14:02:04.18Z</time></trkpt><trkpt lat="40.104278509869594" lon="8.718967987669927"><ele>328.3333333333333</ele><time>2026-04-29T14:02:05.18Z</time></trkpt><trkpt lat="40.10422842529612" lon="8.719216285453815"><ele>326.66666666666663</ele><time>2026-04-29T14:02:06.18Z</time></trkpt><trkpt lat="40.10420486615252" lon="8.719466983279725"><ele>325.0</ele><time>2026-04-29T14:02:07.18Z</time></trkpt><trkpt lat="40.10423906364552" lon="8.719729334946225"><ele>323.66666666666663</ele><time>2026-04-29T14:02:08.18Z</time></trkpt><trkpt lat="40.104309832834396" lon="8.719993700702169"><ele>322.3333333333333</ele><time>2026-04-29T14:02:09.18Z</time></trkpt><trkpt lat="40.10437151526463" lon="8.720258960807234"><ele>321.0</ele><time>2026-04-29T14:02:10.18Z</time></trkpt><trkpt lat="40.104390640816675" lon="8.720546052327467"><ele>321.0</ele><time>2026-04-29T14:02:11.18Z</time></trkpt><trkpt lat="40.10437626137588" lon="8.720839820260357"><ele>321.0</ele><time>2026-04-29T14:02:12.18Z</time></trkpt><trkpt lat="40.10435223783407" lon="8.721136466003163"><ele>321.0</ele><time>2026-04-29T14:02:13.18Z</time></trkpt><trkpt lat="40.10432833757113" lon="8.721435002402128"><ele>321.0</ele><time>2026-04-29T14:02:14.18Z</time></trkpt><trkpt lat="40.104311806717334" lon="8.721729038098186"><ele>321.3333333333333</ele><time>2026-04-29T14:02:15.18Z</time></trkpt><trkpt lat="40.104287623771" lon="8.722017755265407"><ele>321.66666666666663</ele><time>2026-04-29T14:02:16.18Z</time></trkpt><trkpt lat="40.104258846591144" lon="8.722300454425875"><ele>322.0</ele><time>2026-04-29T14:02:17.18Z</time></trkpt><trkpt lat="40.104225304133976" lon="8.72257333008732"><ele>321.66666666666663</ele><time>2026-04-29T14:02:18.18Z</time></trkpt><trkpt lat="40.10416585445508" lon="8.722838193488567"><ele>321.3333333333333</ele><time>2026-04-29T14:02:19.18Z</time></trkpt><trkpt lat="40.10408030403891" lon="8.723103417885447"><ele>321.0</ele><time>2026-04-29T14:02:20.18Z</time></trkpt><trkpt lat="40.103986350081385" lon="8.723368087414492"><ele>320.3333333333333</ele><time>2026-04-29T14:02:21.18Z</time></trkpt><trkpt lat="40.103890959636324" lon="8.723630451658426"><ele>319.66666666666663</ele><time>2026-04-29T14:02:22.18Z</time></trkpt><trkpt lat="40.10379781947787" lon="8.723898641326121"><ele>319.0</ele><time>2026-04-29T14:02:23.18Z</time></trkpt><trkpt lat="40.10369987907651" lon="8.724163784681672"><ele>318.5</ele><time>2026-04-29T14:02:24.18Z</time></trkpt><trkpt lat="40.103601626328846" lon="8.724436273495984"><ele>318.0</ele><time>2026-04-29T14:02:25.18Z</time></trkpt><trkpt lat="40.103511018739795" lon="8.724717143856058"><ele>318.0</ele><time>2026-04-29T14:02:26.18Z</time></trkpt><trkpt lat="40.103404349120304" lon="8.724979015502992"><ele>318.0</ele><time>2026-04-29T14:02:27.18Z</time></trkpt><trkpt lat="40.10330646805842" lon="8.725239133822678"><ele>318.0</ele><time>2026-04-29T14:02:28.18Z</time></trkpt><trkpt lat="40.10320869323036" lon="8.725492671140278"><ele>318.0</ele><time>2026-04-29T14:02:29.18Z</time></trkpt><trkpt lat="40.10311921278435" lon="8.725731510873901"><ele>318.0</ele><time>2026-04-29T14:02:30.18Z</time></trkpt><trkpt lat="40.103006838857624" lon="8.72595356149784"><ele>318.0</ele><time>2026-04-29T14:02:31.18Z</time></trkpt><trkpt lat="40.10285971919022" lon="8.726166720597586"><ele>318.0</ele><time>2026-04-29T14:02:32.18Z</time></trkpt><trkpt lat="40.10270482368069" lon="8.726389099504265"><ele>318.0</ele><time>2026-04-29T14:02:33.18Z</time></trkpt><trkpt lat="40.102546840319846" lon="8.726607562466723"><ele>317.0</ele><time>2026-04-29T14:02:34.18Z</time></trkpt><trkpt lat="40.10240256941428" lon="8.72683874618555"><ele>316.0</ele><time>2026-04-29T14:02:35.18Z</time></trkpt><trkpt lat="40.102281524836634" lon="8.72708424746515"><ele>315.3333333333333</ele><time>2026-04-29T14:02:36.18Z</time></trkpt><trkpt lat="40.10220037426845" lon="8.727364351696446"><ele>314.6666666666667</ele><time>2026-04-29T14:02:37.18Z</time></trkpt><trkpt lat="40.1021651904711" lon="8.727637358317775"><ele>314.0</ele><time>2026-04-29T14:02:38.18Z</time></trkpt><trkpt lat="40.102142009111766" lon="8.727874886409738"><ele>314.0</ele><time>2026-04-29T14:02:39.18Z</time></trkpt><trkpt lat="40.10211126214488" lon="8.728119683881312"><ele>314.0</ele><time>2026-04-29T14:02:40.18Z</time></trkpt><trkpt lat="40.1020850232033" lon="8.728383786262354"><ele>314.0</ele><time>2026-04-29T14:02:41.18Z</time></trkpt><trkpt lat="40.10207666016806" lon="8.72865982507141"><ele>314.0</ele><time>2026-04-29T14:02:42.18Z</time></trkpt><trkpt lat="40.1020929460638" lon="8.728950323234715"><ele>314.0</ele><time>2026-04-29T14:02:43.18Z</time></trkpt><trkpt lat="40.10210123229018" lon="8.729250225890317"><ele>312.5</ele><time>2026-04-29T14:02:44.18Z</time></trkpt><trkpt lat="40.10207292778752" lon="8.729544704757883"><ele>311.0</ele><time>2026-04-29T14:02:45.18Z</time></trkpt><trkpt lat="40.10204005675446" lon="8.729839816016874"><ele>311.0</ele><time>2026-04-29T14:02:46.18Z</time></trkpt><trkpt lat="40.10198515660083" lon="8.73013304515236"><ele>311.0</ele><time>2026-04-29T14:02:47.18Z</time></trkpt><trkpt lat="40.10193898399722" lon="8.73042170690889"><ele>309.5</ele><time>2026-04-29T14:02:48.18Z</time></trkpt><trkpt lat="40.10189871501871" lon="8.73071669021993"><ele>308.0</ele><time>2026-04-29T14:02:49.18Z</time></trkpt><trkpt lat="40.10185689973228" lon="8.731000284581313"><ele>308.6666666666667</ele><time>2026-04-29T14:02:50.18Z</time></trkpt><trkpt lat="40.1017968733722" lon="8.731270304717782"><ele>309.3333333333333</ele><time>2026-04-29T14:02:51.18Z</time></trkpt><trkpt lat="40.10170590975575" lon="8.731526485940602"><ele>310.0</ele><time>2026-04-29T14:02:52.18Z</time></trkpt><trkpt lat="40.10158467034238" lon="8.731767013708259"><ele>310.3333333333333</ele><time>2026-04-29T14:02:53.18Z</time></trkpt><trkpt lat="40.101459279863" lon="8.731997179011612"><ele>310.6666666666667</ele><time>2026-04-29T14:02:54.18Z</time></trkpt><trkpt lat="40.10133712440916" lon="8.732239118168742"><ele>311.0</ele><time>2026-04-29T14:02:55.18Z</time></trkpt><trkpt lat="40.10121699029395" lon="8.73249332190919"><ele>312.0</ele><time>2026-04-29T14:02:56.18Z</time></trkpt><trkpt lat="40.10109293626825" lon="8.732744898450333"><ele>313.0</ele><time>2026-04-29T14:02:57.18Z</time></trkpt><trkpt lat="40.10097591528279" lon="8.733000124016414"><ele>313.0</ele><time>2026-04-29T14:02:58.18Z</time></trkpt><trkpt lat="40.10084675742223" lon="8.733254875339874"><ele>313.0</ele><time>2026-04-29T14:02:59.18Z</time></trkpt><trkpt lat="40.10072471292713" lon="8.733514138281594"><ele>312.0</ele><time>2026-04-29T14:03:00.18Z</time></trkpt><trkpt lat="40.10059585412605" lon="8.733765485602753"><ele>311.0</ele><time>2026-04-29T14:03:01.18Z</time></trkpt><trkpt lat="40.10047597979927" lon="8.734016220807113"><ele>311.0</ele><time>2026-04-29T14:03:02.18Z</time></trkpt><trkpt lat="40.10036953514366" lon="8.734279041779704"><ele>311.0</ele><time>2026-04-29T14:03:03.18Z</time></trkpt><trkpt lat="40.10029403821553" lon="8.734557670454382"><ele>311.0</ele><time>2026-04-29T14:03:04.18Z</time></trkpt><trkpt lat="40.10021465397983" lon="8.734835420546588"><ele>311.0</ele><time>2026-04-29T14:03:05.18Z</time></trkpt><trkpt lat="40.10012152852077" lon="8.735105980853062"><ele>311.0</ele><time>2026-04-29T14:03:06.18Z</time></trkpt><trkpt lat="40.100030676447105" lon="8.735385302939308"><ele>311.0</ele><time>2026-04-29T14:03:07.18Z</time></trkpt><trkpt lat="40.09995124804804" lon="8.735662599860719"><ele>309.5</ele><time>2026-04-29T14:03:08.18Z</time></trkpt><trkpt lat="40.09986553387773" lon="8.73593610211637"><ele>308.0</ele><time>2026-04-29T14:03:09.18Z</time></trkpt><trkpt lat="40.09977673199432" lon="8.736217135592838"><ele>306.5</ele><time>2026-04-29T14:03:10.18Z</time></trkpt><trkpt lat="40.0997011689378" lon="8.73651098857323"><ele>305.0</ele><time>2026-04-29T14:03:11.18Z</time></trkpt><trkpt lat="40.09964090231506" lon="8.736808121607208"><ele>306.0</ele><time>2026-04-29T14:03:12.18Z</time></trkpt><trkpt lat="40.099579337970745" lon="8.737109785112667"><ele>307.0</ele><time>2026-04-29T14:03:13.18Z</time></trkpt><trkpt lat="40.0995261296585" lon="8.737415367257746"><ele>307.0</ele><time>2026-04-29T14:03:14.181Z</time></trkpt><trkpt lat="40.09946673841021" lon="8.737719521943546"><ele>307.0</ele><time>2026-04-29T14:03:15.18Z</time></trkpt><trkpt lat="40.09940777987554" lon="8.738018501479168"><ele>307.0</ele><time>2026-04-29T14:03:16.18Z</time></trkpt><trkpt lat="40.0993480521161" lon="8.738308215826018"><ele>307.0</ele><time>2026-04-29T14:03:17.181Z</time></trkpt><trkpt lat="40.099286869132" lon="8.738580054446967"><ele>307.0</ele><time>2026-04-29T14:03:18.181Z</time></trkpt><trkpt lat="40.09923536597552" lon="8.738858108197592"><ele>306.0</ele><time>2026-04-29T14:03:19.181Z</time></trkpt><trkpt lat="40.099170958554765" lon="8.739133706166971"><ele>305.0</ele><time>2026-04-29T14:03:20.18Z</time></trkpt><trkpt lat="40.099099999934985" lon="8.739404769299089"><ele>304.0</ele><time>2026-04-29T14:03:21.18Z</time></trkpt><trkpt lat="40.09901362988536" lon="8.739671587669639"><ele>304.0</ele><time>2026-04-29T14:03:22.18Z</time></trkpt><trkpt lat="40.09891326318862" lon="8.739922249734393"><ele>304.0</ele><time>2026-04-29T14:03:23.181Z</time></trkpt><trkpt lat="40.0987974389002" lon="8.740164888483967"><ele>304.0</ele><time>2026-04-29T14:03:24.181Z</time></trkpt><trkpt lat="40.09869045383215" lon="8.740424856813853"><ele>304.0</ele><time>2026-04-29T14:03:25.181Z</time></trkpt><trkpt lat="40.09860203312392" lon="8.740699567973499"><ele>304.0</ele><time>2026-04-29T14:03:26.181Z</time></trkpt><trkpt lat="40.098517528553536" lon="8.740981100357562"><ele>301.5</ele><time>2026-04-29T14:03:27.181Z</time></trkpt><trkpt lat="40.098419796943006" lon="8.74126808930915"><ele>299.0</ele><time>2026-04-29T14:03:28.181Z</time></trkpt><trkpt lat="40.0983198324216" lon="8.741551611649866"><ele>299.0</ele><time>2026-04-29T14:03:29.181Z</time></trkpt><trkpt lat="40.098211494095736" lon="8.741838891854659"><ele>299.0</ele><time>2026-04-29T14:03:30.181Z</time></trkpt><trkpt lat="40.09810518071246" lon="8.742120864893181"><ele>299.0</ele><time>2026-04-29T14:03:31.181Z</time></trkpt><trkpt lat="40.097999637915755" lon="8.742389319765662"><ele>299.0</ele><time>2026-04-29T14:03:32.181Z</time></trkpt><trkpt lat="40.09789624212281" lon="8.742650230236194"><ele>298.0</ele><time>2026-04-29T14:03:33.18Z</time></trkpt><trkpt lat="40.097795394853016" lon="8.7428916669947"><ele>297.0</ele><time>2026-04-29T14:03:34.18Z</time></trkpt><trkpt lat="40.09770433869367" lon="8.743109133591"><ele>296.0</ele><time>2026-04-29T14:03:35.18Z</time></trkpt><trkpt lat="40.0976646911279" lon="8.74331773227191"><ele>296.0</ele><time>2026-04-29T14:03:36.18Z</time></trkpt><trkpt lat="40.097686353156014" lon="8.743515642315895"><ele>296.0</ele><time>2026-04-29T14:03:37.18Z</time></trkpt><trkpt lat="40.097772448761404" lon="8.743695144978586"><ele>296.0</ele><time>2026-04-29T14:03:38.18Z</time></trkpt><trkpt lat="40.09788384391177" lon="8.743864441729784"><ele>294.33333333333337</ele><time>2026-04-29T14:03:39.18Z</time></trkpt><trkpt lat="40.09798604488826" lon="8.74405802861781"><ele>292.6666666666667</ele><time>2026-04-29T14:03:40.18Z</time></trkpt><trkpt lat="40.09802951976606" lon="8.744261147250187"><ele>291.0</ele><time>2026-04-29T14:03:41.18Z</time></trkpt><trkpt lat="40.098037348254024" lon="8.74449892724533"><ele>291.3333333333333</ele><time>2026-04-29T14:03:42.18Z</time></trkpt><trkpt lat="40.09801148632573" lon="8.74474451933609"><ele>291.66666666666663</ele><time>2026-04-29T14:03:43.18Z</time></trkpt><trkpt lat="40.09795503815002" lon="8.745004807500615"><ele>292.0</ele><time>2026-04-29T14:03:44.18Z</time></trkpt><trkpt lat="40.097867341877546" lon="8.745247089442607"><ele>292.0</ele><time>2026-04-29T14:03:45.18Z</time></trkpt><trkpt lat="40.097764465644595" lon="8.745487827056293"><ele>292.0</ele><time>2026-04-29T14:03:46.18Z</time></trkpt><trkpt lat="40.097650064545995" lon="8.74573137111669"><ele>292.0</ele><time>2026-04-29T14:03:47.18Z</time></trkpt><trkpt lat="40.09753701546072" lon="8.745975555967588"><ele>290.66666666666663</ele><time>2026-04-29T14:03:48.18Z</time></trkpt><trkpt lat="40.09742206895604" lon="8.746227878609341"><ele>289.3333333333333</ele><time>2026-04-29T14:03:49.18Z</time></trkpt><trkpt lat="40.09730568974901" lon="8.746475219236292"><ele>288.0</ele><time>2026-04-29T14:03:50.18Z</time></trkpt><trkpt lat="40.09718657251247" lon="8.74672846759802"><ele>288.5</ele><time>2026-04-29T14:03:51.18Z</time></trkpt><trkpt lat="40.09706832002395" lon="8.746973332218369"><ele>289.0</ele><time>2026-04-29T14:03:52.18Z</time></trkpt><trkpt lat="40.096931017000216" lon="8.747212545363896"><ele>289.0</ele><time>2026-04-29T14:03:53.18Z</time></trkpt><trkpt lat="40.09677552353261" lon="8.747451054319374"><ele>289.0</ele><time>2026-04-29T14:03:54.18Z</time></trkpt><trkpt lat="40.0966235955942" lon="8.747681509811535"><ele>291.5</ele><time>2026-04-29T14:03:55.18Z</time></trkpt><trkpt lat="40.09648142806034" lon="8.747912244109473"><ele>294.0</ele><time>2026-04-29T14:03:56.18Z</time></trkpt><trkpt lat="40.09633056112073" lon="8.74813307051374"><ele>294.0</ele><time>2026-04-29T14:03:57.18Z</time></trkpt><trkpt lat="40.09619142281982" lon="8.748353599602744"><ele>294.0</ele><time>2026-04-29T14:03:58.18Z</time></trkpt><trkpt lat="40.09605529514454" lon="8.748568689941832"><ele>294.0</ele><time>2026-04-29T14:03:59.18Z</time></trkpt><trkpt lat="40.095917197913515" lon="8.748796441251997"><ele>294.5</ele><time>2026-04-29T14:04:00.18Z</time></trkpt><trkpt lat="40.095771359527085" lon="8.7490257699681"><ele>295.0</ele><time>2026-04-29T14:04:01.18Z</time></trkpt><trkpt lat="40.09563367850924" lon="8.749255164725035"><ele>294.5</ele><time>2026-04-29T14:04:02.18Z</time></trkpt><trkpt lat="40.09546638241623" lon="8.749455166475471"><ele>294.0</ele><time>2026-04-29T14:04:03.18Z</time></trkpt><trkpt lat="40.095289590429026" lon="8.74964853805036"><ele>294.0</ele><time>2026-04-29T14:04:04.18Z</time></trkpt><trkpt lat="40.09510113637076" lon="8.749818123000988"><ele>294.0</ele><time>2026-04-29T14:04:05.18Z</time></trkpt><trkpt lat="40.0949263076633" lon="8.749994142597487"><ele>294.0</ele><time>2026-04-29T14:04:06.18Z</time></trkpt><trkpt lat="40.09469372456151" lon="8.750141761592673"><ele>293.5</ele><time>2026-04-29T14:04:07.18Z</time></trkpt><trkpt lat="40.09450159071431" lon="8.750327672776562"><ele>293.0</ele><time>2026-04-29T14:04:08.18Z</time></trkpt><trkpt lat="40.09430540381281" lon="8.750510200319171"><ele>293.0</ele><time>2026-04-29T14:04:09.18Z</time></trkpt><trkpt lat="40.09411158840705" lon="8.750698467400367"><ele>293.0</ele><time>2026-04-29T14:04:10.18Z</time></trkpt><trkpt lat="40.09392022123955" lon="8.750891507766594"><ele>292.0</ele><time>2026-04-29T14:04:11.18Z</time></trkpt><trkpt lat="40.09373815352889" lon="8.75109631305131"><ele>291.0</ele><time>2026-04-29T14:04:12.18Z</time></trkpt><trkpt lat="40.09356370954117" lon="8.75130564111038"><ele>291.0</ele><time>2026-04-29T14:04:13.18Z</time></trkpt><trkpt lat="40.09340334736683" lon="8.751529015003387"><ele>291.0</ele><time>2026-04-29T14:04:14.18Z</time></trkpt><trkpt lat="40.093262435060005" lon="8.751772722689061"><ele>291.5</ele><time>2026-04-29T14:04:15.18Z</time></trkpt><trkpt lat="40.0931464815222" lon="8.75203625217019"><ele>292.0</ele><time>2026-04-29T14:04:16.18Z</time></trkpt><trkpt lat="40.0930443349665" lon="8.752307569041832"><ele>292.0</ele><time>2026-04-29T14:04:17.18Z</time></trkpt><trkpt lat="40.09295267073186" lon="8.752582238746117"><ele>292.0</ele><time>2026-04-29T14:04:18.18Z</time></trkpt><trkpt lat="40.09288066201584" lon="8.752864382698652"><ele>292.5</ele><time>2026-04-29T14:04:19.18Z</time></trkpt><trkpt lat="40.092806800914914" lon="8.753148428151183"><ele>293.0</ele><time>2026-04-29T14:04:20.18Z</time></trkpt><trkpt lat="40.09273131026321" lon="8.753424882111434"><ele>293.33333333333337</ele><time>2026-04-29T14:04:21.18Z</time></trkpt><trkpt lat="40.09265845577657" lon="8.75369951674173"><ele>293.6666666666667</ele><time>2026-04-29T14:04:22.18Z</time></trkpt><trkpt lat="40.092588335233664" lon="8.753972010585985"><ele>294.0</ele><time>2026-04-29T14:04:23.18Z</time></trkpt><trkpt lat="40.09251520229595" lon="8.754238115384906"><ele>294.0</ele><time>2026-04-29T14:04:24.18Z</time></trkpt><trkpt lat="40.09245238835295" lon="8.754476606375912"><ele>294.0</ele><time>2026-04-29T14:04:25.18Z</time></trkpt><trkpt lat="40.09239287153719" lon="8.75469986409987"><ele>294.0</ele><time>2026-04-29T14:04:26.18Z</time></trkpt><trkpt lat="40.092314696178" lon="8.754897723590641"><ele>293.6666666666667</ele><time>2026-04-29T14:04:27.18Z</time></trkpt><trkpt lat="40.092195665095566" lon="8.755063765682284"><ele>293.33333333333337</ele><time>2026-04-29T14:04:28.18Z</time></trkpt><trkpt lat="40.092049409304934" lon="8.755203416570318"><ele>293.0</ele><time>2026-04-29T14:04:29.18Z</time></trkpt><trkpt lat="40.09185054253451" lon="8.755262219944612"><ele>292.75</ele><time>2026-04-29T14:04:30.18Z</time></trkpt><trkpt lat="40.091657523265155" lon="8.755336143057558"><ele>292.5</ele><time>2026-04-29T14:04:31.18Z</time></trkpt><trkpt lat="40.091535760623586" lon="8.75541990280025"><ele>292.25</ele><time>2026-04-29T14:04:32.18Z</time></trkpt><trkpt lat="40.091578188793406" lon="8.755530298068596"><ele>292.0</ele><time>2026-04-29T14:04:33.18Z</time></trkpt><trkpt lat="40.09148851129801" lon="8.755544859492158"><ele>292.5</ele><time>2026-04-29T14:04:34.18Z</time></trkpt><trkpt lat="40.09141221521239" lon="8.755509813375715"><ele>293.0</ele><time>2026-04-29T14:04:35.18Z</time></trkpt><trkpt lat="40.09133055119711" lon="8.755504475206038"><ele>293.5</ele><time>2026-04-29T14:04:37.18Z</time></trkpt><trkpt lat="40.091274567721825" lon="8.755683120673663"><ele>294.0</ele><time>2026-04-29T14:04:40.18Z</time></trkpt><trkpt lat="40.091225776224675" lon="8.755878609838469"><ele>293.5</ele><time>2026-04-29T14:04:41.18Z</time></trkpt><trkpt lat="40.09112422603964" lon="8.756041088681261"><ele>293.0</ele><time>2026-04-29T14:04:42.18Z</time></trkpt><trkpt lat="40.09103516543714" lon="8.756176092717606"><ele>292.5</ele><time>2026-04-29T14:04:43.18Z</time></trkpt><trkpt lat="40.090942173662505" lon="8.756310833927635"><ele>292.0</ele><time>2026-04-29T14:04:44.18Z</time></trkpt><trkpt lat="40.090838247021644" lon="8.756441569175177"><ele>292.0</ele><time>2026-04-29T14:04:45.18Z</time></trkpt><trkpt lat="40.090725298202535" lon="8.756575019873537"><ele>292.0</ele><time>2026-04-29T14:04:46.18Z</time></trkpt><trkpt lat="40.09060415768442" lon="8.756712683695557"><ele>292.0</ele><time>2026-04-29T14:04:47.18Z</time></trkpt><trkpt lat="40.0904892522732" lon="8.756843111050625"><ele>292.3333333333333</ele><time>2026-04-29T14:04:48.18Z</time></trkpt><trkpt lat="40.09037496438595" lon="8.756977701559467"><ele>292.6666666666667</ele><time>2026-04-29T14:04:49.18Z</time></trkpt><trkpt lat="40.090253179541044" lon="8.75711660414578"><ele>293.0</ele><time>2026-04-29T14:04:50.18Z</time></trkpt><trkpt lat="40.09013235653669" lon="8.757255237126902"><ele>293.0</ele><time>2026-04-29T14:04:51.18Z</time></trkpt><trkpt lat="40.09001396834438" lon="8.75739351486536"><ele>293.0</ele><time>2026-04-29T14:04:52.18Z</time></trkpt><trkpt lat="40.08989208470036" lon="8.757531367094527"><ele>293.0</ele><time>2026-04-29T14:04:53.18Z</time></trkpt><trkpt lat="40.08976447184627" lon="8.757672039573865"><ele>292.6666666666667</ele><time>2026-04-29T14:04:54.18Z</time></trkpt><trkpt lat="40.08963225311722" lon="8.757811951738296"><ele>292.3333333333333</ele><time>2026-04-29T14:04:55.18Z</time></trkpt><trkpt lat="40.089499033076216" lon="8.757951685915693"><ele>292.0</ele><time>2026-04-29T14:04:56.18Z</time></trkpt><trkpt lat="40.089376422450584" lon="8.7580764170618"><ele>292.0</ele><time>2026-04-29T14:04:57.18Z</time></trkpt><trkpt lat="40.08925807271663" lon="8.758198439433468"><ele>292.0</ele><time>2026-04-29T14:04:58.18Z</time></trkpt><trkpt lat="40.089147207803705" lon="8.758318484124755"><ele>292.0</ele><time>2026-04-29T14:04:59.18Z</time></trkpt><trkpt lat="40.08903461278303" lon="8.75843691143654"><ele>292.0</ele><time>2026-04-29T14:05:00.18Z</time></trkpt><trkpt lat="40.08892172664864" lon="8.75855343147977"><ele>291.75</ele><time>2026-04-29T14:05:01.18Z</time></trkpt><trkpt lat="40.08881426437386" lon="8.75865922264695"><ele>291.5</ele><time>2026-04-29T14:05:02.18Z</time></trkpt><trkpt lat="40.08871738023571" lon="8.758761532540886"><ele>291.25</ele><time>2026-04-29T14:05:03.18Z</time></trkpt><trkpt lat="40.08862498265571" lon="8.758867191672556"><ele>291.0</ele><time>2026-04-29T14:05:04.18Z</time></trkpt><trkpt lat="40.088520277390394" lon="8.758961515681904"><ele>291.0</ele><time>2026-04-29T14:05:05.18Z</time></trkpt><trkpt lat="40.08841521915589" lon="8.759063294807827"><ele>291.0</ele><time>2026-04-29T14:05:06.18Z</time></trkpt><trkpt lat="40.08831119169887" lon="8.759174652140947"><ele>291.0</ele><time>2026-04-29T14:05:07.18Z</time></trkpt><trkpt lat="40.08820922760759" lon="8.759282461678852"><ele>291.0</ele><time>2026-04-29T14:05:08.18Z</time></trkpt><trkpt lat="40.088111928938865" lon="8.759386615311326"><ele>291.25</ele><time>2026-04-29T14:05:09.18Z</time></trkpt><trkpt lat="40.08801326567399" lon="8.759487626652339"><ele>291.5</ele><time>2026-04-29T14:05:10.18Z</time></trkpt><trkpt lat="40.08791329459745" lon="8.759590775576395"><ele>291.75</ele><time>2026-04-29T14:05:11.18Z</time></trkpt><trkpt lat="40.08782038789721" lon="8.759696107343895"><ele>292.0</ele><time>2026-04-29T14:05:12.18Z</time></trkpt><trkpt lat="40.08772516954308" lon="8.759797239134421"><ele>292.0</ele><time>2026-04-29T14:05:13.18Z</time></trkpt><trkpt lat="40.087625340874766" lon="8.759908644902232"><ele>292.0</ele><time>2026-04-29T14:05:14.18Z</time></trkpt><trkpt lat="40.08753558252159" lon="8.760003559426957"><ele>292.0</ele><time>2026-04-29T14:05:15.18Z</time></trkpt><trkpt lat="40.08744234267399" lon="8.760088206721967"><ele>292.0</ele><time>2026-04-29T14:05:16.18Z</time></trkpt><trkpt lat="40.08735563477206" lon="8.760175759001434"><ele>291.2</ele><time>2026-04-29T14:05:17.18Z</time></trkpt><trkpt lat="40.08727167468663" lon="8.76025986434332"><ele>290.4</ele><time>2026-04-29T14:05:18.18Z</time></trkpt><trkpt lat="40.0871952281702" lon="8.760361026762853"><ele>289.6</ele><time>2026-04-29T14:05:19.18Z</time></trkpt><trkpt lat="40.08710940922941" lon="8.76044715768625"><ele>288.8</ele><time>2026-04-29T14:05:20.182Z</time></trkpt><trkpt lat="40.0870129978705" lon="8.760531045659343"><ele>288.0</ele><time>2026-04-29T14:05:21.181Z</time></trkpt><trkpt lat="40.08691607646921" lon="8.760609134648044"><ele>288.0</ele><time>2026-04-29T14:05:22.181Z</time></trkpt><trkpt lat="40.086818975632845" lon="8.760697201131176"><ele>288.0</ele><time>2026-04-29T14:05:23.182Z</time></trkpt><trkpt lat="40.086723078303145" lon="8.760786046490795"><ele>288.0</ele><time>2026-04-29T14:05:24.181Z</time></trkpt><trkpt lat="40.08662627602349" lon="8.76087513376772"><ele>288.0</ele><time>2026-04-29T14:05:25.181Z</time></trkpt><trkpt lat="40.0865276086328" lon="8.760967578192274"><ele>287.25</ele><time>2026-04-29T14:05:26.181Z</time></trkpt><trkpt lat="40.08642447168996" lon="8.76105965769901"><ele>286.5</ele><time>2026-04-29T14:05:27.181Z</time></trkpt><trkpt lat="40.08632648637352" lon="8.761146095829869"><ele>285.75</ele><time>2026-04-29T14:05:28.181Z</time></trkpt><trkpt lat="40.08623799975477" lon="8.76124399756137"><ele>285.0</ele><time>2026-04-29T14:05:29.181Z</time></trkpt><trkpt lat="40.08613800665415" lon="8.761327858471343"><ele>285.0</ele><time>2026-04-29T14:05:30.181Z</time></trkpt><trkpt lat="40.08604142583982" lon="8.761420323680055"><ele>285.0</ele><time>2026-04-29T14:05:31.181Z</time></trkpt><trkpt lat="40.0859447376386" lon="8.761515246785972"><ele>285.0</ele><time>2026-04-29T14:05:32.181Z</time></trkpt><trkpt lat="40.08585535560804" lon="8.761602027137972"><ele>285.0</ele><time>2026-04-29T14:05:33.181Z</time></trkpt><trkpt lat="40.085763562267694" lon="8.761683736098679"><ele>285.25</ele><time>2026-04-29T14:05:34.181Z</time></trkpt><trkpt lat="40.08566543936619" lon="8.761780820318107"><ele>285.5</ele><time>2026-04-29T14:05:35.181Z</time></trkpt><trkpt lat="40.08556480472999" lon="8.761870247253022"><ele>285.75</ele><time>2026-04-29T14:05:36.181Z</time></trkpt><trkpt lat="40.08546929579249" lon="8.761955114213256"><ele>286.0</ele><time>2026-04-29T14:05:37.181Z</time></trkpt><trkpt lat="40.085387980404334" lon="8.762025112609429"><ele>286.16666666666663</ele><time>2026-04-29T14:05:38.181Z</time></trkpt><trkpt lat="40.08531893019698" lon="8.762077540899073"><ele>286.3333333333333</ele><time>2026-04-29T14:05:40.181Z</time></trkpt><trkpt lat="40.08526840514163" lon="8.762148597890711"><ele>286.5</ele><time>2026-04-29T14:06:11.181Z</time></trkpt><trkpt lat="40.08521326041638" lon="8.762197763742682"><ele>286.6666666666667</ele><time>2026-04-29T14:06:12.181Z</time></trkpt><trkpt lat="40.08515038230755" lon="8.762253534579159"><ele>286.83333333333337</ele><time>2026-04-29T14:06:13.181Z</time></trkpt><trkpt lat="40.08506256690534" lon="8.762330667796059"><ele>287.0</ele><time>2026-04-29T14:06:14.181Z</time></trkpt><trkpt lat="40.08496844501843" lon="8.762413192156394"><ele>287.0</ele><time>2026-04-29T14:06:15.181Z</time></trkpt><trkpt lat="40.08487721775309" lon="8.762488515574493"><ele>287.0</ele><time>2026-04-29T14:06:16.181Z</time></trkpt><trkpt lat="40.084770536354924" lon="8.762590049622284"><ele>287.0</ele><time>2026-04-29T14:06:17.181Z</time></trkpt><trkpt lat="40.08466550191916" lon="8.76268105462974"><ele>287.0</ele><time>2026-04-29T14:06:18.181Z</time></trkpt><trkpt lat="40.084568159652925" lon="8.762799817957516"><ele>287.0</ele><time>2026-04-29T14:06:19.181Z</time></trkpt><trkpt lat="40.084474500769446" lon="8.762917585248477"><ele>287.0</ele><time>2026-04-29T14:06:20.181Z</time></trkpt><trkpt lat="40.08439714871432" lon="8.763048414764356"><ele>287.0</ele><time>2026-04-29T14:06:21.181Z</time></trkpt><trkpt lat="40.08433518702272" lon="8.76317519041582"><ele>287.0</ele><time>2026-04-29T14:06:22.181Z</time></trkpt><trkpt lat="40.084266831177736" lon="8.763297791121408"><ele>287.0</ele><time>2026-04-29T14:06:23.181Z</time></trkpt><trkpt lat="40.08421397766252" lon="8.763420850477374"><ele>287.0</ele><time>2026-04-29T14:06:24.181Z</time></trkpt><trkpt lat="40.08418587451159" lon="8.763529932795654"><ele>287.0</ele><time>2026-04-29T14:06:25.181Z</time></trkpt><trkpt lat="40.08415574705118" lon="8.763619013346567"><ele>287.0</ele><time>2026-04-29T14:06:26.181Z</time></trkpt><trkpt lat="40.08413050235573" lon="8.763697052466053"><ele>287.0</ele><time>2026-04-29T14:06:27.181Z</time></trkpt><trkpt lat="40.08409456262069" lon="8.763784790019876"><ele>287.0</ele><time>2026-04-29T14:06:40.181Z</time></trkpt><trkpt lat="40.08405560513772" lon="8.76387108568482"><ele>286.83333333333337</ele><time>2026-04-29T14:06:42.181Z</time></trkpt><trkpt lat="40.08403214582505" lon="8.763950750595818"><ele>286.6666666666667</ele><time>2026-04-29T14:06:43.181Z</time></trkpt><trkpt lat="40.083993551847264" lon="8.764031875914643"><ele>286.5</ele><time>2026-04-29T14:06:44.181Z</time></trkpt><trkpt lat="40.08394738635572" lon="8.764115713739479"><ele>286.3333333333333</ele><time>2026-04-29T14:06:45.181Z</time></trkpt><trkpt lat="40.083902126894166" lon="8.764211999168538"><ele>286.16666666666663</ele><time>2026-04-29T14:06:46.181Z</time></trkpt><trkpt lat="40.08385265041962" lon="8.76429650902967"><ele>286.0</ele><time>2026-04-29T14:06:47.181Z</time></trkpt><trkpt lat="40.08379473606597" lon="8.764379169748754"><ele>286.0</ele><time>2026-04-29T14:06:48.181Z</time></trkpt><trkpt lat="40.08371425310245" lon="8.764456265215038"><ele>286.0</ele><time>2026-04-29T14:06:49.181Z</time></trkpt><trkpt lat="40.08364377195117" lon="8.764548610437638"><ele>286.0</ele><time>2026-04-29T14:06:50.181Z</time></trkpt><trkpt lat="40.083560376794445" lon="8.764641785000695"><ele>286.0</ele><time>2026-04-29T14:06:51.181Z</time></trkpt><trkpt lat="40.08348090062662" lon="8.764725543207403"><ele>286.0</ele><time>2026-04-29T14:06:52.181Z</time></trkpt><trkpt lat="40.08339526624236" lon="8.764801957084533"><ele>286.0</ele><time>2026-04-29T14:06:53.181Z</time></trkpt><trkpt lat="40.08330417598691" lon="8.764872254441213"><ele>286.0</ele><time>2026-04-29T14:06:54.181Z</time></trkpt><trkpt lat="40.08322110415655" lon="8.764954052701507"><ele>286.0</ele><time>2026-04-29T14:06:55.181Z</time></trkpt><trkpt lat="40.083130596976616" lon="8.765022069648904"><ele>286.0</ele><time>2026-04-29T14:06:56.181Z</time></trkpt><trkpt lat="40.08303049549727" lon="8.765066470688147"><ele>286.0</ele><time>2026-04-29T14:06:57.181Z</time></trkpt><trkpt lat="40.082925475184055" lon="8.765091951381379"><ele>285.6</ele><time>2026-04-29T14:06:58.181Z</time></trkpt><trkpt lat="40.082823806242686" lon="8.76512160587444"><ele>285.20000000000005</ele><time>2026-04-29T14:06:59.181Z</time></trkpt><trkpt lat="40.082725219642434" lon="8.765171077116594"><ele>284.79999999999995</ele><time>2026-04-29T14:07:00.181Z</time></trkpt><trkpt lat="40.0826501362548" lon="8.765261729842576"><ele>284.4</ele><time>2026-04-29T14:07:01.181Z</time></trkpt><trkpt lat="40.08260089577866" lon="8.765380925640615"><ele>284.0</ele><time>2026-04-29T14:07:02.181Z</time></trkpt><trkpt lat="40.08258498849111" lon="8.765515880398834"><ele>283.59999999999997</ele><time>2026-04-29T14:07:03.181Z</time></trkpt><trkpt lat="40.08258798848876" lon="8.765649202719631"><ele>283.2</ele><time>2026-04-29T14:07:04.181Z</time></trkpt><trkpt lat="40.08260162317808" lon="8.765793978946672"><ele>282.79999999999995</ele><time>2026-04-29T14:07:05.181Z</time></trkpt><trkpt lat="40.082614013970996" lon="8.76593461627652"><ele>282.4</ele><time>2026-04-29T14:07:06.181Z</time></trkpt><trkpt lat="40.08262624775288" lon="8.766079286971475"><ele>282.0</ele><time>2026-04-29T14:07:07.181Z</time></trkpt><trkpt lat="40.082621710924485" lon="8.766222778500303"><ele>282.0</ele><time>2026-04-29T14:07:08.181Z</time></trkpt><trkpt lat="40.08260940006862" lon="8.766359437338862"><ele>282.0</ele><time>2026-04-29T14:07:09.181Z</time></trkpt><trkpt lat="40.08258591954989" lon="8.766475921184103"><ele>282.0</ele><time>2026-04-29T14:07:10.181Z</time></trkpt><trkpt lat="40.082529709539685" lon="8.76656127355922"><ele>282.0</ele><time>2026-04-29T14:07:11.181Z</time></trkpt><trkpt lat="40.08243819969" lon="8.76663358175772"><ele>282.0</ele><time>2026-04-29T14:07:12.181Z</time></trkpt><trkpt lat="40.082352022357384" lon="8.766716919400551"><ele>281.4</ele><time>2026-04-29T14:07:13.181Z</time></trkpt><trkpt lat="40.082279219674525" lon="8.766798822033609"><ele>280.79999999999995</ele><time>2026-04-29T14:07:14.181Z</time></trkpt><trkpt lat="40.08221290752106" lon="8.76686846963423"><ele>280.2</ele><time>2026-04-29T14:07:15.181Z</time></trkpt><trkpt lat="40.082131578516574" lon="8.766901813364889"><ele>279.59999999999997</ele><time>2026-04-29T14:07:16.181Z</time></trkpt><trkpt lat="40.0820356719369" lon="8.766930380840424"><ele>279.0</ele><time>2026-04-29T14:07:17.181Z</time></trkpt><trkpt lat="40.081949618625394" lon="8.766982078115019"><ele>279.0</ele><time>2026-04-29T14:07:18.181Z</time></trkpt><trkpt lat="40.081884341334295" lon="8.767054222071778"><ele>279.0</ele><time>2026-04-29T14:07:19.181Z</time></trkpt><trkpt lat="40.08185055733616" lon="8.767145157846747"><ele>279.0</ele><time>2026-04-29T14:07:20.181Z</time></trkpt><trkpt lat="40.08184885429753" lon="8.767244512397625"><ele>279.0</ele><time>2026-04-29T14:07:21.181Z</time></trkpt><trkpt lat="40.08184002714372" lon="8.767352020912503"><ele>279.0</ele><time>2026-04-29T14:07:22.181Z</time></trkpt><trkpt lat="40.0818007408601" lon="8.767441452833244"><ele>279.0</ele><time>2026-04-29T14:07:23.181Z</time></trkpt><trkpt lat="40.08172861090878" lon="8.767509743896046"><ele>279.0</ele><time>2026-04-29T14:07:24.181Z</time></trkpt><trkpt lat="40.08163951020876" lon="8.767565193780333"><ele>279.0</ele><time>2026-04-29T14:07:25.181Z</time></trkpt><trkpt lat="40.081545682204556" lon="8.767636279300728"><ele>279.0</ele><time>2026-04-29T14:07:26.182Z</time></trkpt><trkpt lat="40.0814510526237" lon="8.767713327185067"><ele>279.0</ele><time>2026-04-29T14:07:27.183Z</time></trkpt><trkpt lat="40.08136014878732" lon="8.767803640571747"><ele>279.0</ele><time>2026-04-29T14:07:28.183Z</time></trkpt><trkpt lat="40.08126221707997" lon="8.767885837002117"><ele>278.25</ele><time>2026-04-29T14:07:29.182Z</time></trkpt><trkpt lat="40.08114559372517" lon="8.767955033413259"><ele>277.5</ele><time>2026-04-29T14:07:30.182Z</time></trkpt><trkpt lat="40.08103110974645" lon="8.768029473113293"><ele>276.75</ele><time>2026-04-29T14:07:31.182Z</time></trkpt><trkpt lat="40.08091489185038" lon="8.768097994746636"><ele>276.0</ele><time>2026-04-29T14:07:32.182Z</time></trkpt><trkpt lat="40.08080038432129" lon="8.76815741878029"><ele>275.25</ele><time>2026-04-29T14:07:33.182Z</time></trkpt><trkpt lat="40.080686675210075" lon="8.76822720142935"><ele>274.5</ele><time>2026-04-29T14:07:34.182Z</time></trkpt><trkpt lat="40.08057241488954" lon="8.768293637447645"><ele>273.75</ele><time>2026-04-29T14:07:35.182Z</time></trkpt><trkpt lat="40.08045443950972" lon="8.768366364335222"><ele>273.0</ele><time>2026-04-29T14:07:36.182Z</time></trkpt><trkpt lat="40.080342021422325" lon="8.768440913271155"><ele>273.0</ele><time>2026-04-29T14:07:37.182Z</time></trkpt><trkpt lat="40.08025626305587" lon="8.768523060034935"><ele>273.0</ele><time>2026-04-29T14:07:38.182Z</time></trkpt><trkpt lat="40.08020413166674" lon="8.768629514767905"><ele>273.0</ele><time>2026-04-29T14:07:39.182Z</time></trkpt><trkpt lat="40.080203581124934" lon="8.76877561320379"><ele>273.0</ele><time>2026-04-29T14:07:40.182Z</time></trkpt><trkpt lat="40.08022847971474" lon="8.768922664491187"><ele>273.0</ele><time>2026-04-29T14:07:41.182Z</time></trkpt><trkpt lat="40.080264318901655" lon="8.769065859111691"><ele>273.25</ele><time>2026-04-29T14:07:42.182Z</time></trkpt><trkpt lat="40.0803149111936" lon="8.769196627589068"><ele>273.5</ele><time>2026-04-29T14:07:43.182Z</time></trkpt><trkpt lat="40.08035474987046" lon="8.769345977026495"><ele>273.75</ele><time>2026-04-29T14:07:44.182Z</time></trkpt><trkpt lat="40.08038622111862" lon="8.769501496119451"><ele>274.0</ele><time>2026-04-29T14:07:45.182Z</time></trkpt><trkpt lat="40.08041590923351" lon="8.769651666825768"><ele>274.5</ele><time>2026-04-29T14:07:46.182Z</time></trkpt><trkpt lat="40.08042834543086" lon="8.76981228909486"><ele>275.0</ele><time>2026-04-29T14:07:47.182Z</time></trkpt><trkpt lat="40.08039745631955" lon="8.76997028330899"><ele>275.5</ele><time>2026-04-29T14:07:48.182Z</time></trkpt><trkpt lat="40.08034377142941" lon="8.770100097146061"><ele>276.0</ele><time>2026-04-29T14:07:49.182Z</time></trkpt><trkpt lat="40.08027188544606" lon="8.770208322600245"><ele>276.25</ele><time>2026-04-29T14:07:50.182Z</time></trkpt><trkpt lat="40.080193447745074" lon="8.770321231102018"><ele>276.5</ele><time>2026-04-29T14:07:51.182Z</time></trkpt><trkpt lat="40.08011477516791" lon="8.770431733673655"><ele>276.75</ele><time>2026-04-29T14:07:52.182Z</time></trkpt><trkpt lat="40.08002490962192" lon="8.770562796825438"><ele>277.0</ele><time>2026-04-29T14:07:53.182Z</time></trkpt><trkpt lat="40.07993119762344" lon="8.770687656382213"><ele>277.0</ele><time>2026-04-29T14:07:54.182Z</time></trkpt><trkpt lat="40.079839162476006" lon="8.770815822036722"><ele>277.0</ele><time>2026-04-29T14:07:55.182Z</time></trkpt><trkpt lat="40.079744516067386" lon="8.770945283774306"><ele>277.0</ele><time>2026-04-29T14:07:56.182Z</time></trkpt><trkpt lat="40.0796472701589" lon="8.77107325988656"><ele>277.0</ele><time>2026-04-29T14:07:57.182Z</time></trkpt><trkpt lat="40.07955323055407" lon="8.771214517615284"><ele>277.0</ele><time>2026-04-29T14:07:58.182Z</time></trkpt><trkpt lat="40.07944970702141" lon="8.771346520609711"><ele>277.0</ele><time>2026-04-29T14:07:59.182Z</time></trkpt><trkpt lat="40.07935375534381" lon="8.771489017521937"><ele>277.0</ele><time>2026-04-29T14:08:00.182Z</time></trkpt><trkpt lat="40.079254476803904" lon="8.771635007175783"><ele>277.0</ele><time>2026-04-29T14:08:01.182Z</time></trkpt><trkpt lat="40.079151655564615" lon="8.771778220645452"><ele>277.0</ele><time>2026-04-29T14:08:02.182Z</time></trkpt><trkpt lat="40.07904806357154" lon="8.771924620811227"><ele>277.0</ele><time>2026-04-29T14:08:03.182Z</time></trkpt><trkpt lat="40.07894713115419" lon="8.772074165382115"><ele>277.0</ele><time>2026-04-29T14:08:04.182Z</time></trkpt><trkpt lat="40.07884833468422" lon="8.772222173329533"><ele>277.0</ele><time>2026-04-29T14:08:05.182Z</time></trkpt><trkpt lat="40.07874435806991" lon="8.772366910693439"><ele>277.0</ele><time>2026-04-29T14:08:06.182Z</time></trkpt><trkpt lat="40.07864577449854" lon="8.772510059598709"><ele>277.0</ele><time>2026-04-29T14:08:07.182Z</time></trkpt><trkpt lat="40.078546369637" lon="8.772658577858115"><ele>276.0</ele><time>2026-04-29T14:08:08.182Z</time></trkpt><trkpt lat="40.07844623394554" lon="8.772808591106052"><ele>275.0</ele><time>2026-04-29T14:08:09.182Z</time></trkpt><trkpt lat="40.07834647665349" lon="8.77295546294505"><ele>274.0</ele><time>2026-04-29T14:08:10.182Z</time></trkpt><trkpt lat="40.078240010327185" lon="8.773098792298125"><ele>272.75</ele><time>2026-04-29T14:08:11.182Z</time></trkpt><trkpt lat="40.078126596659445" lon="8.773227929419951"><ele>271.5</ele><time>2026-04-29T14:08:12.182Z</time></trkpt><trkpt lat="40.07800096109987" lon="8.77332585162868"><ele>270.25</ele><time>2026-04-29T14:08:13.182Z</time></trkpt><trkpt lat="40.07786093821713" lon="8.773386113709853"><ele>269.0</ele><time>2026-04-29T14:08:14.182Z</time></trkpt><trkpt lat="40.077713225276675" lon="8.773396283149744"><ele>269.0</ele><time>2026-04-29T14:08:15.182Z</time></trkpt><trkpt lat="40.07756287038301" lon="8.773370563524777"><ele>269.0</ele><time>2026-04-29T14:08:16.182Z</time></trkpt><trkpt lat="40.07741659479549" lon="8.773332225931433"><ele>269.0</ele><time>2026-04-29T14:08:17.182Z</time></trkpt><trkpt lat="40.077273597790104" lon="8.773287774001064"><ele>269.0</ele><time>2026-04-29T14:08:18.182Z</time></trkpt><trkpt lat="40.077128160023065" lon="8.773276589757403"><ele>267.6666666666667</ele><time>2026-04-29T14:08:19.182Z</time></trkpt><trkpt lat="40.076975543333155" lon="8.773319773126946"><ele>266.3333333333333</ele><time>2026-04-29T14:08:20.182Z</time></trkpt><trkpt lat="40.076827408470606" lon="8.773386887578827"><ele>265.0</ele><time>2026-04-29T14:08:21.182Z</time></trkpt><trkpt lat="40.076684880559746" lon="8.773468626435573"><ele>263.3333333333333</ele><time>2026-04-29T14:08:22.182Z</time></trkpt><trkpt lat="40.07654031977577" lon="8.773542587273417"><ele>261.6666666666667</ele><time>2026-04-29T14:08:23.182Z</time></trkpt><trkpt lat="40.07639267614473" lon="8.773622879638893"><ele>260.0</ele><time>2026-04-29T14:08:24.182Z</time></trkpt><trkpt lat="40.0762558773358" lon="8.773722942111593"><ele>260.0</ele><time>2026-04-29T14:08:25.182Z</time></trkpt><trkpt lat="40.07613745727302" lon="8.773858286451134"><ele>260.0</ele><time>2026-04-29T14:08:26.182Z</time></trkpt><trkpt lat="40.07603383154931" lon="8.774015101468816"><ele>260.0</ele><time>2026-04-29T14:08:27.182Z</time></trkpt><trkpt lat="40.07593753723686" lon="8.77418801385758"><ele>259.0</ele><time>2026-04-29T14:08:28.182Z</time></trkpt><trkpt lat="40.07582945375213" lon="8.774361857470156"><ele>258.0</ele><time>2026-04-29T14:08:29.182Z</time></trkpt><trkpt lat="40.075721434610195" lon="8.77454598111602"><ele>257.0</ele><time>2026-04-29T14:08:30.182Z</time></trkpt><trkpt lat="40.07561138656965" lon="8.774737835901936"><ele>257.0</ele><time>2026-04-29T14:08:31.182Z</time></trkpt><trkpt lat="40.075494779974214" lon="8.77493538932551"><ele>257.0</ele><time>2026-04-29T14:08:32.182Z</time></trkpt><trkpt lat="40.075377170532676" lon="8.775132142471595"><ele>257.0</ele><time>2026-04-29T14:08:33.182Z</time></trkpt><trkpt lat="40.07525430160997" lon="8.775338989950791"><ele>257.33333333333337</ele><time>2026-04-29T14:08:34.182Z</time></trkpt><trkpt lat="40.075126838588126" lon="8.775553988297244"><ele>257.6666666666667</ele><time>2026-04-29T14:08:35.182Z</time></trkpt><trkpt lat="40.07499006070112" lon="8.775774770199202"><ele>258.0</ele><time>2026-04-29T14:08:36.182Z</time></trkpt><trkpt lat="40.07485152404452" lon="8.776002065009045"><ele>257.0</ele><time>2026-04-29T14:08:37.182Z</time></trkpt><trkpt lat="40.074710849382" lon="8.776238753171848"><ele>256.0</ele><time>2026-04-29T14:08:38.182Z</time></trkpt><trkpt lat="40.07456833842062" lon="8.776489885768477"><ele>256.0</ele><time>2026-04-29T14:08:39.182Z</time></trkpt><trkpt lat="40.074422937394246" lon="8.7767405213093"><ele>256.0</ele><time>2026-04-29T14:08:40.182Z</time></trkpt><trkpt lat="40.07427600851184" lon="8.776995021660019"><ele>254.0</ele><time>2026-04-29T14:08:41.182Z</time></trkpt><trkpt lat="40.07413178915381" lon="8.777249941482891"><ele>252.0</ele><time>2026-04-29T14:08:42.182Z</time></trkpt><trkpt lat="40.073986724357376" lon="8.777506207538321"><ele>249.5</ele><time>2026-04-29T14:08:43.182Z</time></trkpt><trkpt lat="40.07383722608792" lon="8.777764530343722"><ele>247.0</ele><time>2026-04-29T14:08:44.182Z</time></trkpt><trkpt lat="40.07368141041646" lon="8.778026098953486"><ele>247.0</ele><time>2026-04-29T14:08:45.182Z</time></trkpt><trkpt lat="40.07353380483978" lon="8.778289122598588"><ele>247.0</ele><time>2026-04-29T14:08:46.182Z</time></trkpt><trkpt lat="40.073390427562295" lon="8.778537671354412"><ele>244.66666666666666</ele><time>2026-04-29T14:08:47.182Z</time></trkpt><trkpt lat="40.073256014161615" lon="8.77876948392335"><ele>242.33333333333331</ele><time>2026-04-29T14:08:48.182Z</time></trkpt><trkpt lat="40.073127894698985" lon="8.77898479452348"><ele>240.0</ele><time>2026-04-29T14:08:49.182Z</time></trkpt><trkpt lat="40.07300049260656" lon="8.7791842779787"><ele>239.33333333333331</ele><time>2026-04-29T14:08:50.182Z</time></trkpt><trkpt lat="40.072867968153204" lon="8.779392021071892"><ele>238.66666666666666</ele><time>2026-04-29T14:08:51.182Z</time></trkpt><trkpt lat="40.072731420816375" lon="8.779621778155985"><ele>238.0</ele><time>2026-04-29T14:08:52.182Z</time></trkpt><trkpt lat="40.072596749360294" lon="8.779861171396742"><ele>238.0</ele><time>2026-04-29T14:08:53.182Z</time></trkpt><trkpt lat="40.07245604598897" lon="8.780109565853996"><ele>238.0</ele><time>2026-04-29T14:08:54.182Z</time></trkpt><trkpt lat="40.072313769482086" lon="8.78036137111851"><ele>235.5</ele><time>2026-04-29T14:08:55.182Z</time></trkpt><trkpt lat="40.0721673259397" lon="8.78061245077403"><ele>233.0</ele><time>2026-04-29T14:08:56.182Z</time></trkpt><trkpt lat="40.0720290161766" lon="8.780866313621148"><ele>233.5</ele><time>2026-04-29T14:08:57.182Z</time></trkpt><trkpt lat="40.07188775266306" lon="8.781118202842173"><ele>234.0</ele><time>2026-04-29T14:08:58.182Z</time></trkpt><trkpt lat="40.07174763263221" lon="8.78136669413391"><ele>233.0</ele><time>2026-04-29T14:08:59.182Z</time></trkpt><trkpt lat="40.07160067796213" lon="8.781620210321538"><ele>232.0</ele><time>2026-04-29T14:09:00.182Z</time></trkpt><trkpt lat="40.07145079453471" lon="8.781877637977487"><ele>232.0</ele><time>2026-04-29T14:09:01.182Z</time></trkpt><trkpt lat="40.071298792701114" lon="8.782135234057632"><ele>232.0</ele><time>2026-04-29T14:09:02.182Z</time></trkpt><trkpt lat="40.071149625781196" lon="8.78239244017911"><ele>232.0</ele><time>2026-04-29T14:09:03.182Z</time></trkpt><trkpt lat="40.070999675270734" lon="8.782652928781696"><ele>232.0</ele><time>2026-04-29T14:09:04.181Z</time></trkpt><trkpt lat="40.0708509420318" lon="8.782909376676512"><ele>230.0</ele><time>2026-04-29T14:09:05.181Z</time></trkpt><trkpt lat="40.07070245738065" lon="8.783151569793441"><ele>228.0</ele><time>2026-04-29T14:09:06.181Z</time></trkpt><trkpt lat="40.07056149175379" lon="8.7833992655398"><ele>227.0</ele><time>2026-04-29T14:09:07.181Z</time></trkpt><trkpt lat="40.07041929597293" lon="8.783660873593865"><ele>226.0</ele><time>2026-04-29T14:09:08.181Z</time></trkpt><trkpt lat="40.07027112318646" lon="8.783923294152773"><ele>226.0</ele><time>2026-04-29T14:09:09.181Z</time></trkpt><trkpt lat="40.07012610759806" lon="8.784181232266624"><ele>226.0</ele><time>2026-04-29T14:09:10.181Z</time></trkpt><trkpt lat="40.069974346283516" lon="8.784435221737423"><ele>223.5</ele><time>2026-04-29T14:09:11.181Z</time></trkpt><trkpt lat="40.0698210037335" lon="8.784691707134499"><ele>221.0</ele><time>2026-04-29T14:09:12.181Z</time></trkpt><trkpt lat="40.06967544464249" lon="8.784944707495798"><ele>220.0</ele><time>2026-04-29T14:09:13.181Z</time></trkpt><trkpt lat="40.06952492639806" lon="8.785210726909142"><ele>219.0</ele><time>2026-04-29T14:09:14.181Z</time></trkpt><trkpt lat="40.06938055299529" lon="8.785463465080177"><ele>219.0</ele><time>2026-04-29T14:09:15.181Z</time></trkpt><trkpt lat="40.0692336694385" lon="8.78571314752169"><ele>219.0</ele><time>2026-04-29T14:09:16.181Z</time></trkpt><trkpt lat="40.06908944750622" lon="8.785962237475417"><ele>217.0</ele><time>2026-04-29T14:09:17.181Z</time></trkpt><trkpt lat="40.06894954440795" lon="8.786215146000611"><ele>215.0</ele><time>2026-04-29T14:09:18.181Z</time></trkpt><trkpt lat="40.068808280210156" lon="8.786460323665546"><ele>215.0</ele><time>2026-04-29T14:09:19.181Z</time></trkpt><trkpt lat="40.06867005477731" lon="8.786708622678555"><ele>215.0</ele><time>2026-04-29T14:09:20.181Z</time></trkpt><trkpt lat="40.06852878474444" lon="8.786945873228765"><ele>218.5</ele><time>2026-04-29T14:09:21.181Z</time></trkpt><trkpt lat="40.06838535459407" lon="8.78717980561223"><ele>222.0</ele><time>2026-04-29T14:09:22.181Z</time></trkpt><trkpt lat="40.06824181522609" lon="8.787415693047123"><ele>222.5</ele><time>2026-04-29T14:09:23.181Z</time></trkpt><trkpt lat="40.06810194835774" lon="8.787660302183884"><ele>223.0</ele><time>2026-04-29T14:09:24.181Z</time></trkpt><trkpt lat="40.06796129160273" lon="8.78789839132837"><ele>225.5</ele><time>2026-04-29T14:09:25.181Z</time></trkpt><trkpt lat="40.067822401094865" lon="8.788145581282073"><ele>228.0</ele><time>2026-04-29T14:09:26.181Z</time></trkpt><trkpt lat="40.06768292903986" lon="8.788392316654715"><ele>228.0</ele><time>2026-04-29T14:09:27.181Z</time></trkpt><trkpt lat="40.0675385669317" lon="8.788637975102388"><ele>228.0</ele><time>2026-04-29T14:09:28.181Z</time></trkpt><trkpt lat="40.06739033301298" lon="8.788890338277394"><ele>227.0</ele><time>2026-04-29T14:09:29.181Z</time></trkpt><trkpt lat="40.067242415095286" lon="8.789146070956368"><ele>226.0</ele><time>2026-04-29T14:09:30.181Z</time></trkpt><trkpt lat="40.06708789998262" lon="8.789410160885819"><ele>228.0</ele><time>2026-04-29T14:09:31.181Z</time></trkpt><trkpt lat="40.06693820073391" lon="8.789677866181274"><ele>230.0</ele><time>2026-04-29T14:09:32.183Z</time></trkpt><trkpt lat="40.066786570463734" lon="8.789930364699742"><ele>230.5</ele><time>2026-04-29T14:09:33.183Z</time></trkpt><trkpt lat="40.06664086186788" lon="8.79018460035578"><ele>231.0</ele><time>2026-04-29T14:09:34.183Z</time></trkpt><trkpt lat="40.06649190964201" lon="8.790438239347045"><ele>231.0</ele><time>2026-04-29T14:09:35.183Z</time></trkpt><trkpt lat="40.06634760997062" lon="8.790684577371136"><ele>231.0</ele><time>2026-04-29T14:09:36.182Z</time></trkpt><trkpt lat="40.066204451152466" lon="8.790925312849456"><ele>231.66666666666669</ele><time>2026-04-29T14:09:37.182Z</time></trkpt><trkpt lat="40.06606635732353" lon="8.79115966372166"><ele>232.33333333333334</ele><time>2026-04-29T14:09:38.183Z</time></trkpt><trkpt lat="40.065937494903515" lon="8.791373197943765"><ele>233.0</ele><time>2026-04-29T14:09:39.183Z</time></trkpt><trkpt lat="40.065816945404734" lon="8.791578781654296"><ele>231.66666666666669</ele><time>2026-04-29T14:09:40.183Z</time></trkpt><trkpt lat="40.06570933173337" lon="8.79179328235966"><ele>230.33333333333331</ele><time>2026-04-29T14:09:41.183Z</time></trkpt><trkpt lat="40.06564173098894" lon="8.792035405707319"><ele>229.0</ele><time>2026-04-29T14:09:42.183Z</time></trkpt><trkpt lat="40.065603800674594" lon="8.7923037045079"><ele>228.0</ele><time>2026-04-29T14:09:43.183Z</time></trkpt><trkpt lat="40.06559110787899" lon="8.792580602267675"><ele>227.0</ele><time>2026-04-29T14:09:44.183Z</time></trkpt><trkpt lat="40.06558282212856" lon="8.792872361309877"><ele>226.0</ele><time>2026-04-29T14:09:45.183Z</time></trkpt><trkpt lat="40.06557430948051" lon="8.793165450704855"><ele>226.0</ele><time>2026-04-29T14:09:46.183Z</time></trkpt><trkpt lat="40.06555915051887" lon="8.793474833787789"><ele>226.0</ele><time>2026-04-29T14:09:47.183Z</time></trkpt><trkpt lat="40.06553721907171" lon="8.79378110954954"><ele>226.0</ele><time>2026-04-29T14:09:48.183Z</time></trkpt><trkpt lat="40.06552155487528" lon="8.794093412647248"><ele>226.0</ele><time>2026-04-29T14:09:49.183Z</time></trkpt><trkpt lat="40.06551024860582" lon="8.794403938271095"><ele>226.0</ele><time>2026-04-29T14:09:50.183Z</time></trkpt><trkpt lat="40.06549945279698" lon="8.794716389775525"><ele>226.0</ele><time>2026-04-29T14:09:51.183Z</time></trkpt><trkpt lat="40.06549489907961" lon="8.795019117017697"><ele>226.5</ele><time>2026-04-29T14:09:52.183Z</time></trkpt><trkpt lat="40.06548561903068" lon="8.79531871622813"><ele>227.0</ele><time>2026-04-29T14:09:53.183Z</time></trkpt><trkpt lat="40.06547213169512" lon="8.795617465279662"><ele>227.0</ele><time>2026-04-29T14:09:54.183Z</time></trkpt><trkpt lat="40.06545713553962" lon="8.795914724498774"><ele>227.0</ele><time>2026-04-29T14:09:55.183Z</time></trkpt><trkpt lat="40.065441384699625" lon="8.796193851122112"><ele>227.0</ele><time>2026-04-29T14:09:56.183Z</time></trkpt><trkpt lat="40.065443424190306" lon="8.796465026175609"><ele>226.66666666666669</ele><time>2026-04-29T14:09:57.183Z</time></trkpt><trkpt lat="40.06547067909222" lon="8.796730089743406"><ele>226.33333333333331</ele><time>2026-04-29T14:09:58.183Z</time></trkpt><trkpt lat="40.06553512583825" lon="8.796984346602466"><ele>226.0</ele><time>2026-04-29T14:09:59.183Z</time></trkpt><trkpt lat="40.065614119227234" lon="8.797229064380687"><ele>224.0</ele><time>2026-04-29T14:10:00.183Z</time></trkpt><trkpt lat="40.06568954884653" lon="8.797468665981041"><ele>222.0</ele><time>2026-04-29T14:10:01.183Z</time></trkpt><trkpt lat="40.065754935234885" lon="8.797701543503338"><ele>220.0</ele><time>2026-04-29T14:10:02.183Z</time></trkpt><trkpt lat="40.06579141690604" lon="8.797930718914508"><ele>220.0</ele><time>2026-04-29T14:10:03.183Z</time></trkpt><trkpt lat="40.065783053380706" lon="8.79816184266117"><ele>220.0</ele><time>2026-04-29T14:10:04.183Z</time></trkpt><trkpt lat="40.065736224913046" lon="8.798392708313717"><ele>220.0</ele><time>2026-04-29T14:10:05.183Z</time></trkpt><trkpt lat="40.06566272104845" lon="8.79862097924856"><ele>222.66666666666666</ele><time>2026-04-29T14:10:06.183Z</time></trkpt><trkpt lat="40.06558692579444" lon="8.798852894252068"><ele>225.33333333333331</ele><time>2026-04-29T14:10:07.183Z</time></trkpt><trkpt lat="40.06550423372743" lon="8.799074502081746"><ele>228.0</ele><time>2026-04-29T14:10:08.183Z</time></trkpt><trkpt lat="40.065411483129466" lon="8.799251495617822"><ele>230.33333333333331</ele><time>2026-04-29T14:10:09.183Z</time></trkpt><trkpt lat="40.065269466248004" lon="8.7993490875936"><ele>232.66666666666666</ele><time>2026-04-29T14:10:10.183Z</time></trkpt><trkpt lat="40.065106791904704" lon="8.799378205001558"><ele>235.0</ele><time>2026-04-29T14:10:11.183Z</time></trkpt><trkpt lat="40.064943327297996" lon="8.799318829900509"><ele>235.0</ele><time>2026-04-29T14:10:12.183Z</time></trkpt><trkpt lat="40.064761309579715" lon="8.799236468588381"><ele>235.0</ele><time>2026-04-29T14:10:13.183Z</time></trkpt><trkpt lat="40.064556507119306" lon="8.799161802519032"><ele>235.0</ele><time>2026-04-29T14:10:14.183Z</time></trkpt><trkpt lat="40.064347503180834" lon="8.799097592120965"><ele>235.0</ele><time>2026-04-29T14:10:15.183Z</time></trkpt><trkpt lat="40.06415043539867" lon="8.799034694573677"><ele>235.0</ele><time>2026-04-29T14:10:16.183Z</time></trkpt><trkpt lat="40.063950078381744" lon="8.79897401583269"><ele>235.0</ele><time>2026-04-29T14:10:17.183Z</time></trkpt><trkpt lat="40.06374971175578" lon="8.79891187950353"><ele>237.0</ele><time>2026-04-29T14:10:18.183Z</time></trkpt><trkpt lat="40.063551104365146" lon="8.798847897417737"><ele>239.0</ele><time>2026-04-29T14:10:19.183Z</time></trkpt><trkpt lat="40.063366991232634" lon="8.79878595008724"><ele>241.0</ele><time>2026-04-29T14:10:20.183Z</time></trkpt><trkpt lat="40.06319762271541" lon="8.798727411043467"><ele>242.25</ele><time>2026-04-29T14:10:21.183Z</time></trkpt><trkpt lat="40.063044437042365" lon="8.798690483885753"><ele>243.5</ele><time>2026-04-29T14:10:22.183Z</time></trkpt><trkpt lat="40.062907676443906" lon="8.798708148934677"><ele>244.75</ele><time>2026-04-29T14:10:23.183Z</time></trkpt><trkpt lat="40.06280180398389" lon="8.798803602791667"><ele>246.0</ele><time>2026-04-29T14:10:24.183Z</time></trkpt><trkpt lat="40.06275381052128" lon="8.798963398288453"><ele>246.0</ele><time>2026-04-29T14:10:25.183Z</time></trkpt><trkpt lat="40.06276718542672" lon="8.799151369693956"><ele>246.0</ele><time>2026-04-29T14:10:26.183Z</time></trkpt><trkpt lat="40.06282555824914" lon="8.799350685171268"><ele>246.0</ele><time>2026-04-29T14:10:27.183Z</time></trkpt><trkpt lat="40.062922798680056" lon="8.7995556941162"><ele>246.33333333333331</ele><time>2026-04-29T14:10:28.183Z</time></trkpt><trkpt lat="40.06303079864621" lon="8.799755739560707"><ele>246.66666666666666</ele><time>2026-04-29T14:10:29.183Z</time></trkpt><trkpt lat="40.063160475570854" lon="8.799933979409941"><ele>247.0</ele><time>2026-04-29T14:10:30.183Z</time></trkpt><trkpt lat="40.06329584324688" lon="8.800120924838962"><ele>248.66666666666666</ele><time>2026-04-29T14:10:31.183Z</time></trkpt><trkpt lat="40.06341708955263" lon="8.80029782037944"><ele>250.33333333333331</ele><time>2026-04-29T14:10:32.183Z</time></trkpt><trkpt lat="40.063476183144076" lon="8.800491850604992"><ele>252.0</ele><time>2026-04-29T14:10:33.183Z</time></trkpt><trkpt lat="40.0634823845088" lon="8.800713417775414"><ele>252.0</ele><time>2026-04-29T14:10:34.183Z</time></trkpt><trkpt lat="40.06344023726755" lon="8.800939803454408"><ele>252.0</ele><time>2026-04-29T14:10:35.183Z</time></trkpt><trkpt lat="40.06334272760244" lon="8.801157367031722"><ele>252.0</ele><time>2026-04-29T14:10:36.183Z</time></trkpt><trkpt lat="40.06322588928955" lon="8.801368017314104"><ele>252.33333333333331</ele><time>2026-04-29T14:10:37.183Z</time></trkpt><trkpt lat="40.063102168712554" lon="8.801584503802461"><ele>252.66666666666666</ele><time>2026-04-29T14:10:38.183Z</time></trkpt><trkpt lat="40.06298336651257" lon="8.801812177217162"><ele>253.0</ele><time>2026-04-29T14:10:39.183Z</time></trkpt><trkpt lat="40.062870193778885" lon="8.80204884560123"><ele>253.0</ele><time>2026-04-29T14:10:40.183Z</time></trkpt><trkpt lat="40.06274709986571" lon="8.802283024934633"><ele>253.0</ele><time>2026-04-29T14:10:41.183Z</time></trkpt><trkpt lat="40.062617845946434" lon="8.802525233837112"><ele>253.0</ele><time>2026-04-29T14:10:42.183Z</time></trkpt><trkpt lat="40.062494821481785" lon="8.802768886840303"><ele>253.33333333333331</ele><time>2026-04-29T14:10:43.183Z</time></trkpt><trkpt lat="40.06237048185867" lon="8.803009568637258"><ele>253.66666666666669</ele><time>2026-04-29T14:10:44.183Z</time></trkpt><trkpt lat="40.06224433249436" lon="8.803248456197656"><ele>254.0</ele><time>2026-04-29T14:10:45.183Z</time></trkpt><trkpt lat="40.06211720347342" lon="8.803493138184036"><ele>253.5</ele><time>2026-04-29T14:10:46.183Z</time></trkpt><trkpt lat="40.0619936504389" lon="8.803738388268167"><ele>253.0</ele><time>2026-04-29T14:10:47.183Z</time></trkpt><trkpt lat="40.06186395692491" lon="8.80398040459874"><ele>253.0</ele><time>2026-04-29T14:10:48.183Z</time></trkpt><trkpt lat="40.06173553478516" lon="8.80422167841132"><ele>253.0</ele><time>2026-04-29T14:10:49.183Z</time></trkpt><trkpt lat="40.06161190679247" lon="8.804464926629741"><ele>253.0</ele><time>2026-04-29T14:10:50.183Z</time></trkpt><trkpt lat="40.06148952327572" lon="8.804706507200605"><ele>252.0</ele><time>2026-04-29T14:10:51.183Z</time></trkpt><trkpt lat="40.061368781573755" lon="8.804937253326022"><ele>251.0</ele><time>2026-04-29T14:10:52.183Z</time></trkpt><trkpt lat="40.0612532807602" lon="8.805159472056907"><ele>250.0</ele><time>2026-04-29T14:10:53.183Z</time></trkpt><trkpt lat="40.06114540342052" lon="8.805364389420888"><ele>249.66666666666666</ele><time>2026-04-29T14:10:54.183Z</time></trkpt><trkpt lat="40.06104229634417" lon="8.80556212871732"><ele>249.33333333333331</ele><time>2026-04-29T14:10:55.183Z</time></trkpt><trkpt lat="40.060944394598245" lon="8.805752304654419"><ele>249.0</ele><time>2026-04-29T14:10:56.183Z</time></trkpt><trkpt lat="40.06084464726259" lon="8.805942935194347"><ele>249.0</ele><time>2026-04-29T14:10:57.183Z</time></trkpt><trkpt lat="40.060737352125976" lon="8.806147895830513"><ele>249.0</ele><time>2026-04-29T14:10:58.183Z</time></trkpt><trkpt lat="40.06062295423496" lon="8.80635881740192"><ele>249.0</ele><time>2026-04-29T14:10:59.183Z</time></trkpt><trkpt lat="40.06050685395753" lon="8.806572757967901"><ele>249.0</ele><time>2026-04-29T14:11:00.183Z</time></trkpt><trkpt lat="40.06039029125881" lon="8.806790877213919"><ele>249.0</ele><time>2026-04-29T14:11:01.183Z</time></trkpt><trkpt lat="40.060271704105794" lon="8.807018921900882"><ele>249.0</ele><time>2026-04-29T14:11:02.183Z</time></trkpt><trkpt lat="40.06015132416707" lon="8.807246616327078"><ele>248.66666666666669</ele><time>2026-04-29T14:11:03.183Z</time></trkpt><trkpt lat="40.0600284004974" lon="8.807479902212377"><ele>248.33333333333334</ele><time>2026-04-29T14:11:04.183Z</time></trkpt><trkpt lat="40.059902641234075" lon="8.807716632347784"><ele>248.0</ele><time>2026-04-29T14:11:05.183Z</time></trkpt><trkpt lat="40.059779431540875" lon="8.807957850601989"><ele>246.5</ele><time>2026-04-29T14:11:06.183Z</time></trkpt><trkpt lat="40.05965583624646" lon="8.808200402420955"><ele>245.0</ele><time>2026-04-29T14:11:07.183Z</time></trkpt><trkpt lat="40.05951949219707" lon="8.80843915344375"><ele>244.66666666666669</ele><time>2026-04-29T14:11:08.183Z</time></trkpt><trkpt lat="40.05939165333597" lon="8.808678611495685"><ele>244.33333333333331</ele><time>2026-04-29T14:11:09.183Z</time></trkpt><trkpt lat="40.05927555315065" lon="8.80891385667181"><ele>244.0</ele><time>2026-04-29T14:11:10.183Z</time></trkpt><trkpt lat="40.05916038385414" lon="8.809148622175453"><ele>243.66666666666666</ele><time>2026-04-29T14:11:11.183Z</time></trkpt><trkpt lat="40.059036939949216" lon="8.809365696716455"><ele>243.33333333333331</ele><time>2026-04-29T14:11:12.183Z</time></trkpt><trkpt lat="40.058912745725856" lon="8.809585958770137"><ele>243.0</ele><time>2026-04-29T14:11:13.183Z</time></trkpt><trkpt lat="40.05879576932525" lon="8.80981392235563"><ele>243.0</ele><time>2026-04-29T14:11:14.183Z</time></trkpt><trkpt lat="40.05867790227249" lon="8.81004747043191"><ele>243.0</ele><time>2026-04-29T14:11:15.183Z</time></trkpt><trkpt lat="40.05855604666903" lon="8.810281387008517"><ele>243.0</ele><time>2026-04-29T14:11:16.183Z</time></trkpt><trkpt lat="40.05842822939459" lon="8.810516182321312"><ele>242.66666666666669</ele><time>2026-04-29T14:11:17.183Z</time></trkpt><trkpt lat="40.05830195417674" lon="8.81075150814765"><ele>242.33333333333334</ele><time>2026-04-29T14:11:18.183Z</time></trkpt><trkpt lat="40.05818132389731" lon="8.81099048139679"><ele>242.0</ele><time>2026-04-29T14:11:19.183Z</time></trkpt><trkpt lat="40.05806078864707" lon="8.811226896349527"><ele>241.33333333333334</ele><time>2026-04-29T14:11:20.183Z</time></trkpt><trkpt lat="40.05793862292035" lon="8.811464145621825"><ele>240.66666666666669</ele><time>2026-04-29T14:11:21.183Z</time></trkpt><trkpt lat="40.057815069617924" lon="8.81170326135389"><ele>240.0</ele><time>2026-04-29T14:11:22.183Z</time></trkpt><trkpt lat="40.05768841767216" lon="8.811942516444036"><ele>239.66666666666669</ele><time>2026-04-29T14:11:23.183Z</time></trkpt><trkpt lat="40.05756307595528" lon="8.812181762348118"><ele>239.33333333333334</ele><time>2026-04-29T14:11:24.183Z</time></trkpt><trkpt lat="40.05744033498353" lon="8.812424264391618"><ele>239.0</ele><time>2026-04-29T14:11:25.183Z</time></trkpt><trkpt lat="40.05731194264458" lon="8.812670194284385"><ele>239.0</ele><time>2026-04-29T14:11:26.183Z</time></trkpt><trkpt lat="40.05718806500699" lon="8.81292303494754"><ele>239.0</ele><time>2026-04-29T14:11:27.183Z</time></trkpt><trkpt lat="40.057056167583475" lon="8.813172451002627"><ele>239.0</ele><time>2026-04-29T14:11:28.183Z</time></trkpt><trkpt lat="40.056916438436225" lon="8.813417256678026"><ele>239.0</ele><time>2026-04-29T14:11:29.183Z</time></trkpt><trkpt lat="40.05678494399094" lon="8.813660375700833"><ele>238.5</ele><time>2026-04-29T14:11:30.183Z</time></trkpt><trkpt lat="40.0566589908394" lon="8.813910996405076"><ele>238.0</ele><time>2026-04-29T14:11:31.183Z</time></trkpt><trkpt lat="40.056541413854966" lon="8.814165166272186"><ele>237.5</ele><time>2026-04-29T14:11:32.183Z</time></trkpt><trkpt lat="40.05643721540296" lon="8.814435008247505"><ele>237.0</ele><time>2026-04-29T14:11:33.183Z</time></trkpt><trkpt lat="40.05634541505381" lon="8.814730249223741"><ele>237.0</ele><time>2026-04-29T14:11:34.183Z</time></trkpt><trkpt lat="40.0562573927836" lon="8.815030464932384"><ele>237.0</ele><time>2026-04-29T14:11:35.183Z</time></trkpt><trkpt lat="40.05616495268072" lon="8.815340633471129"><ele>237.5</ele><time>2026-04-29T14:11:36.183Z</time></trkpt><trkpt lat="40.056080009584676" lon="8.815662201423805"><ele>238.0</ele><time>2026-04-29T14:11:37.183Z</time></trkpt><trkpt lat="40.055998789354035" lon="8.815969261272691"><ele>238.0</ele><time>2026-04-29T14:11:38.184Z</time></trkpt><trkpt lat="40.05592417346507" lon="8.816264117139445"><ele>238.0</ele><time>2026-04-29T14:11:39.183Z</time></trkpt><trkpt lat="40.0558704572387" lon="8.816560796869116"><ele>237.5</ele><time>2026-04-29T14:11:40.183Z</time></trkpt><trkpt lat="40.055801011788745" lon="8.8168535133249"><ele>237.0</ele><time>2026-04-29T14:11:41.183Z</time></trkpt><trkpt lat="40.05573734370916" lon="8.817158135120563"><ele>237.0</ele><time>2026-04-29T14:11:42.184Z</time></trkpt><trkpt lat="40.05565371153466" lon="8.817445520171871"><ele>237.0</ele><time>2026-04-29T14:11:43.184Z</time></trkpt><trkpt lat="40.055560399610805" lon="8.817719618851594"><ele>236.66666666666669</ele><time>2026-04-29T14:11:44.184Z</time></trkpt><trkpt lat="40.055475585880615" lon="8.81798984787086"><ele>236.33333333333334</ele><time>2026-04-29T14:11:45.183Z</time></trkpt><trkpt lat="40.05537716885903" lon="8.818212229733312"><ele>236.0</ele><time>2026-04-29T14:11:46.183Z</time></trkpt><trkpt lat="40.05526087198167" lon="8.818428401255124"><ele>236.0</ele><time>2026-04-29T14:11:47.184Z</time></trkpt><trkpt lat="40.05511632059427" lon="8.818663242558504"><ele>236.0</ele><time>2026-04-29T14:11:48.184Z</time></trkpt><trkpt lat="40.054911656201924" lon="8.818854050578699"><ele>236.5</ele><time>2026-04-29T14:11:49.184Z</time></trkpt><trkpt lat="40.05459819335864" lon="8.818999212368425"><ele>237.0</ele><time>2026-04-29T14:11:50.184Z</time></trkpt><trkpt lat="40.054318803097196" lon="8.819163025735897"><ele>237.0</ele><time>2026-04-29T14:11:51.183Z</time></trkpt><trkpt lat="40.05412533403545" lon="8.819374991061284"><ele>237.0</ele><time>2026-04-29T14:11:52.183Z</time></trkpt><trkpt lat="40.05395329342033" lon="8.819598910343133"><ele>237.5</ele><time>2026-04-29T14:11:53.183Z</time></trkpt><trkpt lat="40.05377577804207" lon="8.819835158218922"><ele>238.0</ele><time>2026-04-29T14:11:54.183Z</time></trkpt><trkpt lat="40.05360245255653" lon="8.820062202240878"><ele>237.5</ele><time>2026-04-29T14:11:55.183Z</time></trkpt><trkpt lat="40.053436987729455" lon="8.82030199237125"><ele>237.0</ele><time>2026-04-29T14:11:56.183Z</time></trkpt><trkpt lat="40.05327610966433" lon="8.820550494364342"><ele>236.5</ele><time>2026-04-29T14:11:57.183Z</time></trkpt><trkpt lat="40.05311880097948" lon="8.820804085757374"><ele>236.0</ele><time>2026-04-29T14:11:58.183Z</time></trkpt><trkpt lat="40.05296841210887" lon="8.821062702162402"><ele>235.5</ele><time>2026-04-29T14:11:59.183Z</time></trkpt><trkpt lat="40.05281580005996" lon="8.821321984422159"><ele>235.0</ele><time>2026-04-29T14:12:00.183Z</time></trkpt><trkpt lat="40.05267906632158" lon="8.821566786195199"><ele>235.0</ele><time>2026-04-29T14:12:01.183Z</time></trkpt><trkpt lat="40.05255803517852" lon="8.821805231704786"><ele>235.0</ele><time>2026-04-29T14:12:02.183Z</time></trkpt><trkpt lat="40.052438395365805" lon="8.82203787964705"><ele>235.0</ele><time>2026-04-29T14:12:03.183Z</time></trkpt><trkpt lat="40.05230282015482" lon="8.822262794615332"><ele>234.66666666666666</ele><time>2026-04-29T14:12:04.183Z</time></trkpt><trkpt lat="40.052161296855495" lon="8.822489499298502"><ele>234.33333333333331</ele><time>2026-04-29T14:12:05.183Z</time></trkpt><trkpt lat="40.05202840968346" lon="8.822720868796116"><ele>234.0</ele><time>2026-04-29T14:12:06.183Z</time></trkpt><trkpt lat="40.05189682408053" lon="8.822960048774396"><ele>233.0</ele><time>2026-04-29T14:12:07.183Z</time></trkpt><trkpt lat="40.05176340659982" lon="8.823206114254099"><ele>232.0</ele><time>2026-04-29T14:12:08.183Z</time></trkpt><trkpt lat="40.051628021081456" lon="8.823454988926184"><ele>230.0</ele><time>2026-04-29T14:12:09.183Z</time></trkpt><trkpt lat="40.05149009511686" lon="8.823707354203266"><ele>228.0</ele><time>2026-04-29T14:12:10.183Z</time></trkpt><trkpt lat="40.05135618592272" lon="8.823957461173338"><ele>228.0</ele><time>2026-04-29T14:12:11.183Z</time></trkpt><trkpt lat="40.051216988591506" lon="8.824205514495487"><ele>228.0</ele><time>2026-04-29T14:12:12.183Z</time></trkpt><trkpt lat="40.051086118440715" lon="8.824448415168492"><ele>228.0</ele><time>2026-04-29T14:12:13.183Z</time></trkpt><trkpt lat="40.05095946876738" lon="8.824699960801901"><ele>228.0</ele><time>2026-04-29T14:12:14.183Z</time></trkpt><trkpt lat="40.05083583477431" lon="8.824953459704567"><ele>228.5</ele><time>2026-04-29T14:12:15.183Z</time></trkpt><trkpt lat="40.05070736807763" lon="8.825207762004727"><ele>229.0</ele><time>2026-04-29T14:12:16.183Z</time></trkpt><trkpt lat="40.05057199321935" lon="8.82545574654504"><ele>229.0</ele><time>2026-04-29T14:12:17.183Z</time></trkpt><trkpt lat="40.05044026705715" lon="8.825701777387707"><ele>229.0</ele><time>2026-04-29T14:12:18.183Z</time></trkpt><trkpt lat="40.050308148118994" lon="8.825948105901125"><ele>229.66666666666666</ele><time>2026-04-29T14:12:19.183Z</time></trkpt><trkpt lat="40.05017549300355" lon="8.82619025755552"><ele>230.33333333333331</ele><time>2026-04-29T14:12:20.183Z</time></trkpt><trkpt lat="40.050052163238846" lon="8.826412907026944"><ele>231.0</ele><time>2026-04-29T14:12:21.183Z</time></trkpt><trkpt lat="40.04994236422968" lon="8.826623848500313"><ele>230.66666666666669</ele><time>2026-04-29T14:12:22.183Z</time></trkpt><trkpt lat="40.049860866140925" lon="8.826846979665858"><ele>230.33333333333334</ele><time>2026-04-29T14:12:23.183Z</time></trkpt><trkpt lat="40.04980901816983" lon="8.82711226903603"><ele>230.0</ele><time>2026-04-29T14:12:24.183Z</time></trkpt><trkpt lat="40.04977337442441" lon="8.82740072077529"><ele>227.5</ele><time>2026-04-29T14:12:25.183Z</time></trkpt><trkpt lat="40.04972948151501" lon="8.827697345405694"><ele>225.0</ele><time>2026-04-29T14:12:26.183Z</time></trkpt><trkpt lat="40.049674684830606" lon="8.827998130381479"><ele>225.0</ele><time>2026-04-29T14:12:27.183Z</time></trkpt><trkpt lat="40.04961385381819" lon="8.828305756375213"><ele>225.0</ele><time>2026-04-29T14:12:28.183Z</time></trkpt><trkpt lat="40.049548702533905" lon="8.828630438686401"><ele>224.5</ele><time>2026-04-29T14:12:29.183Z</time></trkpt><trkpt lat="40.049489816897754" lon="8.82895078384824"><ele>224.0</ele><time>2026-04-29T14:12:30.183Z</time></trkpt><trkpt lat="40.04943396375115" lon="8.829267722527522"><ele>223.5</ele><time>2026-04-29T14:12:31.183Z</time></trkpt><trkpt lat="40.04937531693461" lon="8.829579716129086"><ele>223.0</ele><time>2026-04-29T14:12:32.183Z</time></trkpt><trkpt lat="40.04931728108353" lon="8.829880552263706"><ele>222.0</ele><time>2026-04-29T14:12:33.183Z</time></trkpt><trkpt lat="40.049262130231185" lon="8.830175865357829"><ele>221.0</ele><time>2026-04-29T14:12:34.183Z</time></trkpt><trkpt lat="40.04920325897078" lon="8.830468259932111"><ele>221.0</ele><time>2026-04-29T14:12:35.183Z</time></trkpt><trkpt lat="40.04914927393885" lon="8.830767008509472"><ele>221.0</ele><time>2026-04-29T14:12:36.183Z</time></trkpt><trkpt lat="40.049094220855544" lon="8.831060262449082"><ele>222.0</ele><time>2026-04-29T14:12:37.183Z</time></trkpt><trkpt lat="40.04903448665225" lon="8.831351877420557"><ele>223.0</ele><time>2026-04-29T14:12:38.183Z</time></trkpt><trkpt lat="40.048968398816754" lon="8.831636216495468"><ele>223.0</ele><time>2026-04-29T14:12:39.183Z</time></trkpt><trkpt lat="40.04890458206229" lon="8.831919930495008"><ele>223.0</ele><time>2026-04-29T14:12:40.183Z</time></trkpt><trkpt lat="40.04881793094068" lon="8.832201350856442"><ele>223.0</ele><time>2026-04-29T14:12:41.183Z</time></trkpt><trkpt lat="40.04875269474912" lon="8.832479798959927"><ele>223.0</ele><time>2026-04-29T14:12:42.183Z</time></trkpt><trkpt lat="40.048718518566794" lon="8.832767537774261"><ele>223.0</ele><time>2026-04-29T14:12:43.183Z</time></trkpt><trkpt lat="40.04868517657284" lon="8.833051945952556"><ele>223.66666666666666</ele><time>2026-04-29T14:12:44.183Z</time></trkpt><trkpt lat="40.0486361883081" lon="8.833328680780705"><ele>224.33333333333331</ele><time>2026-04-29T14:12:45.183Z</time></trkpt><trkpt lat="40.04858902727158" lon="8.833608856060497"><ele>225.0</ele><time>2026-04-29T14:12:46.183Z</time></trkpt><trkpt lat="40.04854215029729" lon="8.833892587755242"><ele>225.0</ele><time>2026-04-29T14:12:47.183Z</time></trkpt><trkpt lat="40.04848858297442" lon="8.834180171693852"><ele>225.0</ele><time>2026-04-29T14:12:48.183Z</time></trkpt><trkpt lat="40.048436849909976" lon="8.834476524811786"><ele>225.0</ele><time>2026-04-29T14:12:49.183Z</time></trkpt><trkpt lat="40.0483812619356" lon="8.83477486384643"><ele>225.0</ele><time>2026-04-29T14:12:50.183Z</time></trkpt><trkpt lat="40.04832434957831" lon="8.83507691293511"><ele>224.5</ele><time>2026-04-29T14:12:51.183Z</time></trkpt><trkpt lat="40.04826711361905" lon="8.835383454260835"><ele>224.0</ele><time>2026-04-29T14:12:52.183Z</time></trkpt><trkpt lat="40.04821490682211" lon="8.835692072101565"><ele>222.5</ele><time>2026-04-29T14:12:53.183Z</time></trkpt><trkpt lat="40.04816213119336" lon="8.83600227421137"><ele>221.0</ele><time>2026-04-29T14:12:54.183Z</time></trkpt><trkpt lat="40.04810626735935" lon="8.836314113898592"><ele>221.0</ele><time>2026-04-29T14:12:55.183Z</time></trkpt><trkpt lat="40.048055125697964" lon="8.83662195819817"><ele>221.0</ele><time>2026-04-29T14:12:56.183Z</time></trkpt><trkpt lat="40.04799674292793" lon="8.83692717984954"><ele>221.5</ele><time>2026-04-29T14:12:57.183Z</time></trkpt><trkpt lat="40.04793545095266" lon="8.837238769881731"><ele>222.0</ele><time>2026-04-29T14:12:58.183Z</time></trkpt><trkpt lat="40.04787269150795" lon="8.837548548323737"><ele>221.0</ele><time>2026-04-29T14:12:59.183Z</time></trkpt><trkpt lat="40.04781436459801" lon="8.837853866588771"><ele>220.0</ele><time>2026-04-29T14:13:00.183Z</time></trkpt><trkpt lat="40.04775866256376" lon="8.83815494698387"><ele>220.0</ele><time>2026-04-29T14:13:01.183Z</time></trkpt><trkpt lat="40.04770110275652" lon="8.838451685953562"><ele>220.0</ele><time>2026-04-29T14:13:02.183Z</time></trkpt><trkpt lat="40.047645529827385" lon="8.838750614835485"><ele>220.0</ele><time>2026-04-29T14:13:03.183Z</time></trkpt><trkpt lat="40.04758530289437" lon="8.83904760077719"><ele>220.0</ele><time>2026-04-29T14:13:04.183Z</time></trkpt><trkpt lat="40.04751901446469" lon="8.839345426829897"><ele>220.5</ele><time>2026-04-29T14:13:05.183Z</time></trkpt><trkpt lat="40.047462963980244" lon="8.839655435810837"><ele>221.0</ele><time>2026-04-29T14:13:06.183Z</time></trkpt><trkpt lat="40.04740399500991" lon="8.839963085973231"><ele>220.0</ele><time>2026-04-29T14:13:07.183Z</time></trkpt><trkpt lat="40.04734453609768" lon="8.840278626838018"><ele>219.0</ele><time>2026-04-29T14:13:08.183Z</time></trkpt><trkpt lat="40.04728286893711" lon="8.840593012341623"><ele>219.0</ele><time>2026-04-29T14:13:09.183Z</time></trkpt><trkpt lat="40.047223031032296" lon="8.840905259399142"><ele>219.0</ele><time>2026-04-29T14:13:10.183Z</time></trkpt><trkpt lat="40.047165126300314" lon="8.84122329394407"><ele>219.0</ele><time>2026-04-29T14:13:11.183Z</time></trkpt><trkpt lat="40.04710703508436" lon="8.841536131052854"><ele>219.0</ele><time>2026-04-29T14:13:12.183Z</time></trkpt><trkpt lat="40.04705171424342" lon="8.841848341382569"><ele>219.0</ele><time>2026-04-29T14:13:13.183Z</time></trkpt><trkpt lat="40.04699205522519" lon="8.84215833390919"><ele>219.0</ele><time>2026-04-29T14:13:14.183Z</time></trkpt><trkpt lat="40.04693218478505" lon="8.84246875313657"><ele>220.0</ele><time>2026-04-29T14:13:15.183Z</time></trkpt><trkpt lat="40.04687159874651" lon="8.842773893993074"><ele>221.0</ele><time>2026-04-29T14:13:16.183Z</time></trkpt><trkpt lat="40.04681359468837" lon="8.843078702418447"><ele>221.0</ele><time>2026-04-29T14:13:17.183Z</time></trkpt><trkpt lat="40.04675785754067" lon="8.84337816984355"><ele>221.0</ele><time>2026-04-29T14:13:18.183Z</time></trkpt><trkpt lat="40.04669731136633" lon="8.843684583411505"><ele>221.5</ele><time>2026-04-29T14:13:19.183Z</time></trkpt><trkpt lat="40.04664028566874" lon="8.843991185368099"><ele>222.0</ele><time>2026-04-29T14:13:20.183Z</time></trkpt><trkpt lat="40.04658428319268" lon="8.844272787448585"><ele>222.66666666666669</ele><time>2026-04-29T14:13:21.183Z</time></trkpt><trkpt lat="40.04653004657308" lon="8.844532714177213"><ele>223.33333333333334</ele><time>2026-04-29T14:13:22.183Z</time></trkpt><trkpt lat="40.046489114049" lon="8.844776095162732"><ele>224.0</ele><time>2026-04-29T14:13:23.183Z</time></trkpt><trkpt lat="40.046457069745074" lon="8.845008623092099"><ele>224.33333333333334</ele><time>2026-04-29T14:13:24.183Z</time></trkpt><trkpt lat="40.04642306578747" lon="8.84521871478843"><ele>224.66666666666669</ele><time>2026-04-29T14:13:25.183Z</time></trkpt><trkpt lat="40.046381589080006" lon="8.845411244305234"><ele>225.0</ele><time>2026-04-29T14:13:26.183Z</time></trkpt><trkpt lat="40.04631580591911" lon="8.845581116038057"><ele>225.0</ele><time>2026-04-29T14:13:27.183Z</time></trkpt><trkpt lat="40.04623667398535" lon="8.845671825593667"><ele>225.0</ele><time>2026-04-29T14:13:28.183Z</time></trkpt><trkpt lat="40.046192297159344" lon="8.845797292354634"><ele>225.0</ele><time>2026-04-29T14:13:29.183Z</time></trkpt><trkpt lat="40.04619091537679" lon="8.845904743407957"><ele>225.0</ele><time>2026-04-29T14:13:30.183Z</time></trkpt><trkpt lat="40.04622249050686" lon="8.846025755936173"><ele>225.0</ele><time>2026-04-29T14:13:32.183Z</time></trkpt><trkpt lat="40.04621986284875" lon="8.846123869770443"><ele>224.6</ele><time>2026-04-29T14:13:41.183Z</time></trkpt><trkpt lat="40.046202843720216" lon="8.846281028050674"><ele>224.2</ele><time>2026-04-29T14:13:43.183Z</time></trkpt><trkpt lat="40.04618420837969" lon="8.846377624481658"><ele>223.8</ele><time>2026-04-29T14:13:44.184Z</time></trkpt><trkpt lat="40.0461684501583" lon="8.846489838412776"><ele>223.4</ele><time>2026-04-29T14:13:45.184Z</time></trkpt><trkpt lat="40.04616417061775" lon="8.846623547022178"><ele>223.0</ele><time>2026-04-29T14:13:46.184Z</time></trkpt><trkpt lat="40.04616856655286" lon="8.846770196356754"><ele>222.75</ele><time>2026-04-29T14:13:47.184Z</time></trkpt><trkpt lat="40.046144376750185" lon="8.846916421506906"><ele>222.5</ele><time>2026-04-29T14:13:48.184Z</time></trkpt><trkpt lat="40.04612649317681" lon="8.847073315811478"><ele>222.25</ele><time>2026-04-29T14:13:49.184Z</time></trkpt><trkpt lat="40.046092122661214" lon="8.847253307850103"><ele>222.0</ele><time>2026-04-29T14:13:50.184Z</time></trkpt><trkpt lat="40.046060769304155" lon="8.847448123943677"><ele>222.0</ele><time>2026-04-29T14:13:51.184Z</time></trkpt><trkpt lat="40.04603485137055" lon="8.847659361040924"><ele>222.0</ele><time>2026-04-29T14:13:52.184Z</time></trkpt><trkpt lat="40.04598962217418" lon="8.847885594927591"><ele>222.0</ele><time>2026-04-29T14:13:53.184Z</time></trkpt><trkpt lat="40.04595127562377" lon="8.8481207565285"><ele>222.0</ele><time>2026-04-29T14:13:54.184Z</time></trkpt><trkpt lat="40.04591055446864" lon="8.84836921362421"><ele>222.0</ele><time>2026-04-29T14:13:55.184Z</time></trkpt><trkpt lat="40.04587314908557" lon="8.848627367588831"><ele>222.0</ele><time>2026-04-29T14:13:56.185Z</time></trkpt><trkpt lat="40.04578203481067" lon="8.849165181744304"><ele>222.0</ele><time>2026-04-29T14:13:58.184Z</time></trkpt><trkpt lat="40.04573847502897" lon="8.849435054516402"><ele>222.0</ele><time>2026-04-29T14:13:59.184Z</time></trkpt><trkpt lat="40.045694981677656" lon="8.84969959791376"><ele>222.0</ele><time>2026-04-29T14:14:00.184Z</time></trkpt><trkpt lat="40.04565469227305" lon="8.84995939769797"><ele>222.33333333333331</ele><time>2026-04-29T14:14:01.184Z</time></trkpt><trkpt lat="40.04561920041571" lon="8.850226809040596"><ele>222.66666666666666</ele><time>2026-04-29T14:14:02.184Z</time></trkpt><trkpt lat="40.04558247279942" lon="8.850488475419379"><ele>223.0</ele><time>2026-04-29T14:14:03.184Z</time></trkpt><trkpt lat="40.045531921899645" lon="8.850766264021079"><ele>223.0</ele><time>2026-04-29T14:14:04.184Z</time></trkpt><trkpt lat="40.04547512115855" lon="8.85104214859303"><ele>223.0</ele><time>2026-04-29T14:14:05.184Z</time></trkpt><trkpt lat="40.045421280065874" lon="8.851325952903231"><ele>223.0</ele><time>2026-04-29T14:14:06.184Z</time></trkpt><trkpt lat="40.045371263546095" lon="8.851613726423446"><ele>222.5</ele><time>2026-04-29T14:14:07.184Z</time></trkpt><trkpt lat="40.04531297945729" lon="8.851910677014471"><ele>222.0</ele><time>2026-04-29T14:14:08.184Z</time></trkpt><trkpt lat="40.04526927092819" lon="8.852211492560361"><ele>222.0</ele><time>2026-04-29T14:14:09.184Z</time></trkpt><trkpt lat="40.04522489370957" lon="8.85252484281903"><ele>222.0</ele><time>2026-04-29T14:14:10.184Z</time></trkpt><trkpt lat="40.04517601887287" lon="8.852837703197704"><ele>222.5</ele><time>2026-04-29T14:14:11.184Z</time></trkpt><trkpt lat="40.04512662150562" lon="8.853151674745943"><ele>223.0</ele><time>2026-04-29T14:14:12.184Z</time></trkpt><trkpt lat="40.04507680215225" lon="8.853466853980105"><ele>223.0</ele><time>2026-04-29T14:14:13.184Z</time></trkpt><trkpt lat="40.04502020492199" lon="8.853781181354174"><ele>223.0</ele><time>2026-04-29T14:14:14.184Z</time></trkpt><trkpt lat="40.04497175810231" lon="8.854090722299794"><ele>222.0</ele><time>2026-04-29T14:14:15.184Z</time></trkpt><trkpt lat="40.04492450040424" lon="8.854400045215133"><ele>221.0</ele><time>2026-04-29T14:14:16.184Z</time></trkpt><trkpt lat="40.04487694998792" lon="8.854702865857"><ele>221.0</ele><time>2026-04-29T14:14:17.184Z</time></trkpt><trkpt lat="40.044824029080765" lon="8.85499854175667"><ele>221.0</ele><time>2026-04-29T14:14:18.184Z</time></trkpt><trkpt lat="40.04477853932359" lon="8.855283667345436"><ele>221.0</ele><time>2026-04-29T14:14:19.184Z</time></trkpt><trkpt lat="40.0447329313072" lon="8.855546243158502"><ele>221.0</ele><time>2026-04-29T14:14:20.184Z</time></trkpt><trkpt lat="40.044675333650964" lon="8.855793864785122"><ele>221.0</ele><time>2026-04-29T14:14:21.184Z</time></trkpt><trkpt lat="40.04458840341147" lon="8.856029899786467"><ele>220.66666666666669</ele><time>2026-04-29T14:14:22.184Z</time></trkpt><trkpt lat="40.04446105130601" lon="8.856235399635963"><ele>220.33333333333331</ele><time>2026-04-29T14:14:23.184Z</time></trkpt><trkpt lat="40.04431396127854" lon="8.85641081147307"><ele>220.0</ele><time>2026-04-29T14:14:24.184Z</time></trkpt><trkpt lat="40.04413628221016" lon="8.856529136995647"><ele>220.0</ele><time>2026-04-29T14:14:25.184Z</time></trkpt><trkpt lat="40.04392767514855" lon="8.856601953298943"><ele>220.0</ele><time>2026-04-29T14:14:26.184Z</time></trkpt><trkpt lat="40.04371321656749" lon="8.856649803945471"><ele>220.0</ele><time>2026-04-29T14:14:27.184Z</time></trkpt><trkpt lat="40.04350758984377" lon="8.85669991570945"><ele>220.0</ele><time>2026-04-29T14:14:28.184Z</time></trkpt><trkpt lat="40.043308377991906" lon="8.856770302678095"><ele>220.0</ele><time>2026-04-29T14:14:29.184Z</time></trkpt><trkpt lat="40.04313232163029" lon="8.856862758122022"><ele>220.0</ele><time>2026-04-29T14:14:30.184Z</time></trkpt><trkpt lat="40.042982667534964" lon="8.856997315542145"><ele>214.33333333333331</ele><time>2026-04-29T14:14:31.184Z</time></trkpt><trkpt lat="40.04284159755872" lon="8.857172037966317"><ele>208.66666666666669</ele><time>2026-04-29T14:14:32.184Z</time></trkpt><trkpt lat="40.04273409500466" lon="8.857389805474707"><ele>203.0</ele><time>2026-04-29T14:14:33.184Z</time></trkpt><trkpt lat="40.04266779344715" lon="8.857626023630152"><ele>201.0</ele><time>2026-04-29T14:14:34.184Z</time></trkpt><trkpt lat="40.042650776698515" lon="8.857889317042366"><ele>199.0</ele><time>2026-04-29T14:14:35.184Z</time></trkpt><trkpt lat="40.04266683419482" lon="8.858150871320507"><ele>197.0</ele><time>2026-04-29T14:14:36.184Z</time></trkpt><trkpt lat="40.04268097662975" lon="8.858410667732871"><ele>195.33333333333334</ele><time>2026-04-29T14:14:37.184Z</time></trkpt><trkpt lat="40.04268124463009" lon="8.858670661584323"><ele>193.66666666666669</ele><time>2026-04-29T14:14:38.184Z</time></trkpt><trkpt lat="40.04267273086476" lon="8.85891960937785"><ele>192.0</ele><time>2026-04-29T14:14:39.184Z</time></trkpt><trkpt lat="40.04267327638218" lon="8.859155347129004"><ele>189.66666666666666</ele><time>2026-04-29T14:14:40.184Z</time></trkpt><trkpt lat="40.04267474436064" lon="8.859383511417969"><ele>187.33333333333331</ele><time>2026-04-29T14:14:41.184Z</time></trkpt><trkpt lat="40.04268158967929" lon="8.859614400084059"><ele>185.0</ele><time>2026-04-29T14:14:42.184Z</time></trkpt><trkpt lat="40.04270143370564" lon="8.859844572972982"><ele>185.0</ele><time>2026-04-29T14:14:43.184Z</time></trkpt><trkpt lat="40.04274689009071" lon="8.860070996593542"><ele>185.0</ele><time>2026-04-29T14:14:44.184Z</time></trkpt><trkpt lat="40.042820938290504" lon="8.860300680221348"><ele>185.0</ele><time>2026-04-29T14:14:45.184Z</time></trkpt><trkpt lat="40.04292494334268" lon="8.86052059740503"><ele>186.33333333333331</ele><time>2026-04-29T14:14:46.184Z</time></trkpt><trkpt lat="40.04305219042158" lon="8.860701131019932"><ele>187.66666666666666</ele><time>2026-04-29T14:14:47.184Z</time></trkpt><trkpt lat="40.043231390242255" lon="8.860848798434445"><ele>189.0</ele><time>2026-04-29T14:14:48.184Z</time></trkpt><trkpt lat="40.04342221145357" lon="8.860948997943527"><ele>177.66666666666666</ele><time>2026-04-29T14:14:49.184Z</time></trkpt><trkpt lat="40.04361837217493" lon="8.861033714092395"><ele>166.33333333333331</ele><time>2026-04-29T14:14:50.184Z</time></trkpt><trkpt lat="40.04382067348891" lon="8.86110403079023"><ele>155.0</ele><time>2026-04-29T14:14:51.184Z</time></trkpt><trkpt lat="40.04402649227926" lon="8.861163209543955"><ele>159.66666666666666</ele><time>2026-04-29T14:14:52.184Z</time></trkpt><trkpt lat="40.04422664527231" lon="8.861224672512746"><ele>164.33333333333334</ele><time>2026-04-29T14:14:53.184Z</time></trkpt><trkpt lat="40.04441879883566" lon="8.861286780352764"><ele>169.0</ele><time>2026-04-29T14:14:54.184Z</time></trkpt><trkpt lat="40.04459299459742" lon="8.86135279248916"><ele>169.0</ele><time>2026-04-29T14:14:55.184Z</time></trkpt><trkpt lat="40.04476977714554" lon="8.86136980799907"><ele>169.0</ele><time>2026-04-29T14:14:56.184Z</time></trkpt><trkpt lat="40.04495502368758" lon="8.861325882344163"><ele>169.0</ele><time>2026-04-29T14:14:57.184Z</time></trkpt><trkpt lat="40.04516306100579" lon="8.86121649226613"><ele>168.0</ele><time>2026-04-29T14:14:58.184Z</time></trkpt><trkpt lat="40.04536408759796" lon="8.861115504739102"><ele>167.0</ele><time>2026-04-29T14:14:59.184Z</time></trkpt><trkpt lat="40.04556823948332" lon="8.861030298602355"><ele>166.0</ele><time>2026-04-29T14:15:00.184Z</time></trkpt><trkpt lat="40.04576473428587" lon="8.860958778957501"><ele>171.33333333333334</ele><time>2026-04-29T14:15:01.184Z</time></trkpt><trkpt lat="40.04594703262258" lon="8.860890371186635"><ele>176.66666666666666</ele><time>2026-04-29T14:15:02.184Z</time></trkpt><trkpt lat="40.046126786949124" lon="8.860876597078777"><ele>182.0</ele><time>2026-04-29T14:15:03.184Z</time></trkpt><trkpt lat="40.046299221222355" lon="8.860920353968835"><ele>175.66666666666666</ele><time>2026-04-29T14:15:04.184Z</time></trkpt><trkpt lat="40.04646692898793" lon="8.861030712749006"><ele>169.33333333333334</ele><time>2026-04-29T14:15:05.184Z</time></trkpt><trkpt lat="40.04661863674953" lon="8.861193572803352"><ele>163.0</ele><time>2026-04-29T14:15:06.184Z</time></trkpt><trkpt lat="40.046739310028734" lon="8.861397891347432"><ele>163.0</ele><time>2026-04-29T14:15:07.184Z</time></trkpt><trkpt lat="40.04685987527067" lon="8.861603891738788"><ele>163.0</ele><time>2026-04-29T14:15:08.184Z</time></trkpt><trkpt lat="40.04699416084404" lon="8.861812573686276"><ele>163.0</ele><time>2026-04-29T14:15:09.184Z</time></trkpt><trkpt lat="40.04712764690177" lon="8.862022800230688"><ele>160.0</ele><time>2026-04-29T14:15:10.184Z</time></trkpt><trkpt lat="40.0472631015392" lon="8.862239557909474"><ele>157.0</ele><time>2026-04-29T14:15:11.184Z</time></trkpt><trkpt lat="40.04740190298949" lon="8.862458041315985"><ele>154.0</ele><time>2026-04-29T14:15:12.184Z</time></trkpt><trkpt lat="40.04754486079782" lon="8.862681597214973"><ele>154.0</ele><time>2026-04-29T14:15:13.184Z</time></trkpt><trkpt lat="40.047680035739205" lon="8.862908542010825"><ele>154.0</ele><time>2026-04-29T14:15:14.184Z</time></trkpt><trkpt lat="40.04782099278958" lon="8.863123312164092"><ele>154.0</ele><time>2026-04-29T14:15:15.184Z</time></trkpt><trkpt lat="40.047945790141746" lon="8.86333490667301"><ele>145.66666666666669</ele><time>2026-04-29T14:15:16.184Z</time></trkpt><trkpt lat="40.048066966348884" lon="8.863543029764674"><ele>137.33333333333334</ele><time>2026-04-29T14:15:17.184Z</time></trkpt><trkpt lat="40.04818229372125" lon="8.86373513802262"><ele>129.0</ele><time>2026-04-29T14:15:18.184Z</time></trkpt><trkpt lat="40.0482821243385" lon="8.863926362396995"><ele>131.66666666666666</ele><time>2026-04-29T14:15:19.184Z</time></trkpt><trkpt lat="40.04836856676543" lon="8.864139485770767"><ele>134.33333333333331</ele><time>2026-04-29T14:15:20.184Z</time></trkpt><trkpt lat="40.04843807822031" lon="8.864374249982564"><ele>137.0</ele><time>2026-04-29T14:15:21.184Z</time></trkpt><trkpt lat="40.0484869829341" lon="8.864630354617923"><ele>137.0</ele><time>2026-04-29T14:15:22.184Z</time></trkpt><trkpt lat="40.04854198086841" lon="8.864885199948155"><ele>137.0</ele><time>2026-04-29T14:15:23.184Z</time></trkpt><trkpt lat="40.04861362519313" lon="8.865125501818316"><ele>137.0</ele><time>2026-04-29T14:15:24.184Z</time></trkpt><trkpt lat="40.048693947898414" lon="8.865347121174953"><ele>132.33333333333331</ele><time>2026-04-29T14:15:25.184Z</time></trkpt><trkpt lat="40.04879072996443" lon="8.865549307705843"><ele>127.66666666666666</ele><time>2026-04-29T14:15:26.184Z</time></trkpt><trkpt lat="40.04888396767689" lon="8.865738683654614"><ele>123.0</ele><time>2026-04-29T14:15:27.184Z</time></trkpt><trkpt lat="40.04898195598089" lon="8.865921788178655"><ele>122.0</ele><time>2026-04-29T14:15:28.184Z</time></trkpt><trkpt lat="40.04908717346641" lon="8.866089080829964"><ele>121.0</ele><time>2026-04-29T14:15:29.184Z</time></trkpt><trkpt lat="40.04922287248596" lon="8.866203457321943"><ele>120.0</ele><time>2026-04-29T14:15:30.184Z</time></trkpt><trkpt lat="40.04937551477091" lon="8.866269889510205"><ele>120.0</ele><time>2026-04-29T14:15:31.184Z</time></trkpt><trkpt lat="40.04954985350657" lon="8.866305090670604"><ele>120.0</ele><time>2026-04-29T14:15:32.184Z</time></trkpt><trkpt lat="40.04972399127331" lon="8.866349016185563"><ele>120.0</ele><time>2026-04-29T14:15:33.184Z</time></trkpt><trkpt lat="40.04989139678973" lon="8.866425364197347"><ele>124.33333333333334</ele><time>2026-04-29T14:15:34.183Z</time></trkpt><trkpt lat="40.05005752136664" lon="8.866500379188654"><ele>128.66666666666669</ele><time>2026-04-29T14:15:35.183Z</time></trkpt><trkpt lat="40.05021712850549" lon="8.86658223032207"><ele>133.0</ele><time>2026-04-29T14:15:36.183Z</time></trkpt><trkpt lat="40.050373062194275" lon="8.866667323605109"><ele>133.0</ele><time>2026-04-29T14:15:37.183Z</time></trkpt><trkpt lat="40.05052048359332" lon="8.86676368685106"><ele>133.0</ele><time>2026-04-29T14:15:38.183Z</time></trkpt><trkpt lat="40.050662401428085" lon="8.86687538209032"><ele>133.0</ele><time>2026-04-29T14:15:39.183Z</time></trkpt><trkpt lat="40.05078110482371" lon="8.867018592324243"><ele>132.33333333333334</ele><time>2026-04-29T14:15:40.183Z</time></trkpt><trkpt lat="40.05088738298368" lon="8.867183162801098"><ele>131.66666666666666</ele><time>2026-04-29T14:15:41.183Z</time></trkpt><trkpt lat="40.05098529790812" lon="8.867364132970616"><ele>131.0</ele><time>2026-04-29T14:15:42.183Z</time></trkpt><trkpt lat="40.05104925215226" lon="8.867549897210282"><ele>127.0</ele><time>2026-04-29T14:15:43.183Z</time></trkpt><trkpt lat="40.05110319908396" lon="8.867753240640937"><ele>123.0</ele><time>2026-04-29T14:15:44.183Z</time></trkpt><trkpt lat="40.05114379774169" lon="8.867965123184044"><ele>119.0</ele><time>2026-04-29T14:15:45.183Z</time></trkpt><trkpt lat="40.05117435144065" lon="8.868187614156783"><ele>119.0</ele><time>2026-04-29T14:15:46.183Z</time></trkpt><trkpt lat="40.0511946384756" lon="8.86841723610826"><ele>119.0</ele><time>2026-04-29T14:15:47.183Z</time></trkpt><trkpt lat="40.05121203735657" lon="8.868655148220538"><ele>119.0</ele><time>2026-04-29T14:15:48.183Z</time></trkpt><trkpt lat="40.051227772715" lon="8.868892768565225"><ele>113.33333333333333</ele><time>2026-04-29T14:15:49.183Z</time></trkpt><trkpt lat="40.051235980746995" lon="8.869135368283345"><ele>107.66666666666666</ele><time>2026-04-29T14:15:50.185Z</time></trkpt><trkpt lat="40.05124747797662" lon="8.869377578348837"><ele>102.0</ele><time>2026-04-29T14:15:51.185Z</time></trkpt><trkpt lat="40.05125921457651" lon="8.869623017725665"><ele>99.33333333333333</ele><time>2026-04-29T14:15:52.185Z</time></trkpt><trkpt lat="40.051274165909746" lon="8.869869474768729"><ele>96.66666666666666</ele><time>2026-04-29T14:15:53.185Z</time></trkpt><trkpt lat="40.05129634086486" lon="8.870116158400657"><ele>94.0</ele><time>2026-04-29T14:15:54.185Z</time></trkpt><trkpt lat="40.05131731100963" lon="8.870370536158722"><ele>94.0</ele><time>2026-04-29T14:15:55.185Z</time></trkpt><trkpt lat="40.05133567403348" lon="8.870622845218698"><ele>94.0</ele><time>2026-04-29T14:15:56.185Z</time></trkpt><trkpt lat="40.051353268913005" lon="8.87088080484329"><ele>94.0</ele><time>2026-04-29T14:15:57.184Z</time></trkpt><trkpt lat="40.051371363042236" lon="8.871139920681056"><ele>97.33333333333333</ele><time>2026-04-29T14:15:58.184Z</time></trkpt><trkpt lat="40.05139114408398" lon="8.871401799251263"><ele>100.66666666666666</ele><time>2026-04-29T14:15:59.184Z</time></trkpt><trkpt lat="40.05140980642125" lon="8.871669191352394"><ele>104.0</ele><time>2026-04-29T14:16:00.185Z</time></trkpt><trkpt lat="40.0514275685778" lon="8.871940667358636"><ele>110.0</ele><time>2026-04-29T14:16:01.185Z</time></trkpt><trkpt lat="40.051444406786466" lon="8.872209802636053"><ele>116.0</ele><time>2026-04-29T14:16:02.185Z</time></trkpt><trkpt lat="40.05146354541475" lon="8.87247913260015"><ele>122.0</ele><time>2026-04-29T14:16:03.185Z</time></trkpt><trkpt lat="40.05148228924405" lon="8.872751549847763"><ele>126.33333333333333</ele><time>2026-04-29T14:16:04.185Z</time></trkpt><trkpt lat="40.05149945964063" lon="8.873027168130532"><ele>130.66666666666666</ele><time>2026-04-29T14:16:05.185Z</time></trkpt><trkpt lat="40.05151777242546" lon="8.873303687256323"><ele>135.0</ele><time>2026-04-29T14:16:06.185Z</time></trkpt><trkpt lat="40.051546100603936" lon="8.873568847811544"><ele>140.0</ele><time>2026-04-29T14:16:07.185Z</time></trkpt><trkpt lat="40.05157660253632" lon="8.873834846693448"><ele>145.0</ele><time>2026-04-29T14:16:08.185Z</time></trkpt><trkpt lat="40.05161611312694" lon="8.87408860466249"><ele>150.0</ele><time>2026-04-29T14:16:09.185Z</time></trkpt><trkpt lat="40.051656688760524" lon="8.874320492126927"><ele>139.33333333333334</ele><time>2026-04-29T14:16:10.185Z</time></trkpt><trkpt lat="40.05171292610852" lon="8.874576414196216"><ele>128.66666666666669</ele><time>2026-04-29T14:16:11.185Z</time></trkpt><trkpt lat="40.05173620777183" lon="8.874851445066211"><ele>118.0</ele><time>2026-04-29T14:16:12.185Z</time></trkpt><trkpt lat="40.05170463504985" lon="8.87516307274838"><ele>126.5</ele><time>2026-04-29T14:16:13.185Z</time></trkpt><trkpt lat="40.05160920343272" lon="8.875455591175657"><ele>135.0</ele><time>2026-04-29T14:16:14.185Z</time></trkpt><trkpt lat="40.05149605440774" lon="8.875696995730314"><ele>135.0</ele><time>2026-04-29T14:16:15.185Z</time></trkpt><trkpt lat="40.05134246138396" lon="8.875890170841192"><ele>135.0</ele><time>2026-04-29T14:16:16.185Z</time></trkpt><trkpt lat="40.05115114276459" lon="8.87602919474258"><ele>135.0</ele><time>2026-04-29T14:16:17.185Z</time></trkpt><trkpt lat="40.05095972054782" lon="8.876136324405378"><ele>135.66666666666666</ele><time>2026-04-29T14:16:18.185Z</time></trkpt><trkpt lat="40.05076784534412" lon="8.876235440795943"><ele>136.33333333333331</ele><time>2026-04-29T14:16:19.185Z</time></trkpt><trkpt lat="40.05058061316108" lon="8.876338270649116"><ele>137.0</ele><time>2026-04-29T14:16:20.185Z</time></trkpt><trkpt lat="40.050397090065296" lon="8.87645425595"><ele>137.0</ele><time>2026-04-29T14:16:21.185Z</time></trkpt><trkpt lat="40.05021441122566" lon="8.876589331987924"><ele>137.0</ele><time>2026-04-29T14:16:22.185Z</time></trkpt><trkpt lat="40.04996979585619" lon="8.876759303323274"><ele>140.0</ele><time>2026-04-29T14:16:23.185Z</time></trkpt><trkpt lat="40.04979415064409" lon="8.876906207307465"><ele>143.0</ele><time>2026-04-29T14:16:24.185Z</time></trkpt><trkpt lat="40.049629980435405" lon="8.877073768357135"><ele>146.0</ele><time>2026-04-29T14:16:25.185Z</time></trkpt><trkpt lat="40.049484637192165" lon="8.877264515097904"><ele>146.0</ele><time>2026-04-29T14:16:26.185Z</time></trkpt><trkpt lat="40.04935263509741" lon="8.87746505053763"><ele>146.0</ele><time>2026-04-29T14:16:27.185Z</time></trkpt><trkpt lat="40.04921759296708" lon="8.877659821680453"><ele>146.0</ele><time>2026-04-29T14:16:28.185Z</time></trkpt><trkpt lat="40.049078873662545" lon="8.877850446073932"><ele>150.33333333333331</ele><time>2026-04-29T14:16:29.185Z</time></trkpt><trkpt lat="40.04894014442598" lon="8.878038431193533"><ele>154.66666666666666</ele><time>2026-04-29T14:16:30.185Z</time></trkpt><trkpt lat="40.04880350223769" lon="8.878228778401386"><ele>159.0</ele><time>2026-04-29T14:16:31.185Z</time></trkpt><trkpt lat="40.048666165170815" lon="8.878423732332328"><ele>155.66666666666666</ele><time>2026-04-29T14:16:32.185Z</time></trkpt><trkpt lat="40.04852819526666" lon="8.878616992552884"><ele>152.33333333333331</ele><time>2026-04-29T14:16:33.185Z</time></trkpt><trkpt lat="40.048397338093785" lon="8.878821196704136"><ele>149.0</ele><time>2026-04-29T14:16:34.185Z</time></trkpt><trkpt lat="40.04826194931388" lon="8.879023983879408"><ele>155.66666666666666</ele><time>2026-04-29T14:16:35.185Z</time></trkpt><trkpt lat="40.0481184212283" lon="8.879219435061586"><ele>162.33333333333334</ele><time>2026-04-29T14:16:36.185Z</time></trkpt><trkpt lat="40.04797317842438" lon="8.879410024871952"><ele>169.0</ele><time>2026-04-29T14:16:37.185Z</time></trkpt><trkpt lat="40.047833084562484" lon="8.87960608753978"><ele>169.0</ele><time>2026-04-29T14:16:38.185Z</time></trkpt><trkpt lat="40.04769785517238" lon="8.879802957197281"><ele>169.0</ele><time>2026-04-29T14:16:39.185Z</time></trkpt><trkpt lat="40.047556077104225" lon="8.87999528765319"><ele>169.0</ele><time>2026-04-29T14:16:40.185Z</time></trkpt><trkpt lat="40.04740593212109" lon="8.880181602965385"><ele>175.33333333333334</ele><time>2026-04-29T14:16:41.185Z</time></trkpt><trkpt lat="40.047268072926364" lon="8.880379979410923"><ele>181.66666666666666</ele><time>2026-04-29T14:16:42.185Z</time></trkpt><trkpt lat="40.047125391292255" lon="8.880583146724279"><ele>188.0</ele><time>2026-04-29T14:16:43.185Z</time></trkpt><trkpt lat="40.04698733973644" lon="8.880785076603386"><ele>193.0</ele><time>2026-04-29T14:16:44.185Z</time></trkpt><trkpt lat="40.04684793263105" lon="8.880990373060119"><ele>198.0</ele><time>2026-04-29T14:16:45.185Z</time></trkpt><trkpt lat="40.04670410868451" lon="8.881193265371328"><ele>203.0</ele><time>2026-04-29T14:16:46.185Z</time></trkpt><trkpt lat="40.04656004264738" lon="8.881398129995567"><ele>203.0</ele><time>2026-04-29T14:16:47.185Z</time></trkpt><trkpt lat="40.04642890187298" lon="8.881601076883362"><ele>203.0</ele><time>2026-04-29T14:16:48.185Z</time></trkpt><trkpt lat="40.04628110602478" lon="8.881802131483624"><ele>203.0</ele><time>2026-04-29T14:16:49.185Z</time></trkpt><trkpt lat="40.04613552676028" lon="8.881998045697454"><ele>206.33333333333334</ele><time>2026-04-29T14:16:50.185Z</time></trkpt><trkpt lat="40.045996381168756" lon="8.88219771727787"><ele>209.66666666666669</ele><time>2026-04-29T14:16:51.185Z</time></trkpt><trkpt lat="40.045868546244165" lon="8.882398286550714"><ele>213.0</ele><time>2026-04-29T14:16:52.185Z</time></trkpt><trkpt lat="40.04573226123018" lon="8.882597016160233"><ele>208.33333333333331</ele><time>2026-04-29T14:16:53.185Z</time></trkpt><trkpt lat="40.045591400161136" lon="8.882793337989252"><ele>203.66666666666666</ele><time>2026-04-29T14:16:54.185Z</time></trkpt><trkpt lat="40.04544127759147" lon="8.88299138488347"><ele>199.0</ele><time>2026-04-29T14:16:55.185Z</time></trkpt><trkpt lat="40.045298135310276" lon="8.883187629052605"><ele>199.0</ele><time>2026-04-29T14:16:56.185Z</time></trkpt><trkpt lat="40.04515808509045" lon="8.883389606130784"><ele>199.0</ele><time>2026-04-29T14:16:57.185Z</time></trkpt><trkpt lat="40.04503641897502" lon="8.883606236591573"><ele>199.0</ele><time>2026-04-29T14:16:58.185Z</time></trkpt><trkpt lat="40.0449325272129" lon="8.883831711767488"><ele>210.33333333333331</ele><time>2026-04-29T14:16:59.185Z</time></trkpt><trkpt lat="40.04486175333708" lon="8.884070354816519"><ele>221.66666666666669</ele><time>2026-04-29T14:17:00.185Z</time></trkpt><trkpt lat="40.04481542540177" lon="8.88432509863806"><ele>233.0</ele><time>2026-04-29T14:17:01.185Z</time></trkpt><trkpt lat="40.04476353586599" lon="8.884576170321267"><ele>234.0</ele><time>2026-04-29T14:17:02.185Z</time></trkpt><trkpt lat="40.04472678671004" lon="8.884833697276635"><ele>235.0</ele><time>2026-04-29T14:17:03.185Z</time></trkpt><trkpt lat="40.04469906512128" lon="8.885098098594094"><ele>236.0</ele><time>2026-04-29T14:17:04.185Z</time></trkpt><trkpt lat="40.04468138877992" lon="8.885362069729458"><ele>235.0</ele><time>2026-04-29T14:17:05.185Z</time></trkpt><trkpt lat="40.04468706373767" lon="8.885623460114997"><ele>234.0</ele><time>2026-04-29T14:17:06.185Z</time></trkpt><trkpt lat="40.04471067580624" lon="8.88589373503029"><ele>233.0</ele><time>2026-04-29T14:17:07.185Z</time></trkpt><trkpt lat="40.04473901140721" lon="8.88615879661471"><ele>233.0</ele><time>2026-04-29T14:17:08.185Z</time></trkpt><trkpt lat="40.044784905397506" lon="8.886411618194781"><ele>233.0</ele><time>2026-04-29T14:17:09.185Z</time></trkpt><trkpt lat="40.04484511251746" lon="8.886647108852415"><ele>233.0</ele><time>2026-04-29T14:17:10.185Z</time></trkpt><trkpt lat="40.044909801403705" lon="8.886873642244218"><ele>231.66666666666669</ele><time>2026-04-29T14:17:11.185Z</time></trkpt><trkpt lat="40.04498997433877" lon="8.88709349969164"><ele>230.33333333333331</ele><time>2026-04-29T14:17:12.185Z</time></trkpt><trkpt lat="40.045083371492396" lon="8.88729995410737"><ele>229.0</ele><time>2026-04-29T14:17:13.185Z</time></trkpt><trkpt lat="40.04517714150777" lon="8.887494906037665"><ele>232.5</ele><time>2026-04-29T14:17:14.185Z</time></trkpt><trkpt lat="40.04526855657958" lon="8.887668486432439"><ele>236.0</ele><time>2026-04-29T14:17:15.185Z</time></trkpt><trkpt lat="40.04534798638008" lon="8.887839219243645"><ele>239.5</ele><time>2026-04-29T14:17:16.185Z</time></trkpt><trkpt lat="40.045421711674635" lon="8.887987219570016"><ele>243.0</ele><time>2026-04-29T14:17:17.185Z</time></trkpt><trkpt lat="40.04547726638195" lon="8.888134731954539"><ele>243.0</ele><time>2026-04-29T14:17:18.185Z</time></trkpt><trkpt lat="40.0455196577474" lon="8.888247271170204"><ele>243.0</ele><time>2026-04-29T14:17:19.185Z</time></trkpt><trkpt lat="40.045523551055005" lon="8.88834621025084"><ele>243.0</ele><time>2026-04-29T14:17:20.185Z</time></trkpt><trkpt lat="40.04549491853446" lon="8.888432281176636"><ele>243.0</ele><time>2026-04-29T14:17:21.185Z</time></trkpt><trkpt lat="40.0454311698685" lon="8.888465216821661"><ele>243.0</ele><time>2026-04-29T14:17:22.185Z</time></trkpt><trkpt lat="40.04534776268449" lon="8.888451835028699"><ele>243.0</ele><time>2026-04-29T14:17:23.185Z</time></trkpt><trkpt lat="40.045269250420176" lon="8.888407465426925"><ele>243.0</ele><time>2026-04-29T14:17:24.185Z</time></trkpt><trkpt lat="40.045182643232906" lon="8.888337067088322"><ele>243.0</ele><time>2026-04-29T14:17:25.185Z</time></trkpt><trkpt lat="40.0451036796862" lon="8.888244008927925"><ele>243.0</ele><time>2026-04-29T14:17:26.185Z</time></trkpt><trkpt lat="40.04503073573936" lon="8.888149415026758"><ele>243.0</ele><time>2026-04-29T14:17:27.185Z</time></trkpt><trkpt lat="40.04495204670472" lon="8.888056887284323"><ele>243.0</ele><time>2026-04-29T14:17:28.185Z</time></trkpt><trkpt lat="40.04486800366653" lon="8.887957112215924"><ele>244.0</ele><time>2026-04-29T14:17:29.185Z</time></trkpt><trkpt lat="40.04478138843897" lon="8.887854933648056"><ele>245.0</ele><time>2026-04-29T14:17:30.185Z</time></trkpt><trkpt lat="40.04468934444839" lon="8.887758181545104"><ele>246.0</ele><time>2026-04-29T14:17:31.185Z</time></trkpt><trkpt lat="40.0445890240645" lon="8.8876598504201"><ele>247.0</ele><time>2026-04-29T14:17:32.185Z</time></trkpt><trkpt lat="40.04448274679091" lon="8.887572691046"><ele>247.0</ele><time>2026-04-29T14:17:33.185Z</time></trkpt><trkpt lat="40.04436704183498" lon="8.887495294707566"><ele>247.0</ele><time>2026-04-29T14:17:34.185Z</time></trkpt><trkpt lat="40.044252015482236" lon="8.887423554540863"><ele>247.0</ele><time>2026-04-29T14:17:35.185Z</time></trkpt><trkpt lat="40.044122202975544" lon="8.887369288638649"><ele>247.0</ele><time>2026-04-29T14:17:36.185Z</time></trkpt><trkpt lat="40.04398980202961" lon="8.887324850541647"><ele>254.0</ele><time>2026-04-29T14:17:37.185Z</time></trkpt><trkpt lat="40.04385155192655" lon="8.887295188511303"><ele>261.0</ele><time>2026-04-29T14:17:38.185Z</time></trkpt><trkpt lat="40.043709228880076" lon="8.88727123960897"><ele>268.0</ele><time>2026-04-29T14:17:39.185Z</time></trkpt><trkpt lat="40.043566329852695" lon="8.88722710277508"><ele>275.0</ele><time>2026-04-29T14:17:40.185Z</time></trkpt><trkpt lat="40.04344335191831" lon="8.887146302500495"><ele>275.0</ele><time>2026-04-29T14:17:41.185Z</time></trkpt><trkpt lat="40.043328758725295" lon="8.887029797764903"><ele>275.0</ele><time>2026-04-29T14:17:42.185Z</time></trkpt><trkpt lat="40.04322407163743" lon="8.886895413787986"><ele>275.0</ele><time>2026-04-29T14:17:43.185Z</time></trkpt><trkpt lat="40.04313227924594" lon="8.886757694283496"><ele>275.0</ele><time>2026-04-29T14:17:44.185Z</time></trkpt><trkpt lat="40.04306525901326" lon="8.886595453658055"><ele>275.25</ele><time>2026-04-29T14:17:45.185Z</time></trkpt><trkpt lat="40.043040028037026" lon="8.886398873449805"><ele>275.5</ele><time>2026-04-29T14:17:46.185Z</time></trkpt><trkpt lat="40.04301903888288" lon="8.886224356014656"><ele>275.75</ele><time>2026-04-29T14:17:47.185Z</time></trkpt><trkpt lat="40.04296458878119" lon="8.886044624294819"><ele>276.0</ele><time>2026-04-29T14:17:48.185Z</time></trkpt><trkpt lat="40.042874174405725" lon="8.885897440595924"><ele>273.3333333333333</ele><time>2026-04-29T14:17:49.185Z</time></trkpt><trkpt lat="40.042752739485586" lon="8.885736470376598"><ele>270.66666666666663</ele><time>2026-04-29T14:17:50.185Z</time></trkpt><trkpt lat="40.042635313904874" lon="8.885572516173747"><ele>268.0</ele><time>2026-04-29T14:17:51.185Z</time></trkpt><trkpt lat="40.042516799688585" lon="8.885397232633517"><ele>275.0</ele><time>2026-04-29T14:17:52.185Z</time></trkpt><trkpt lat="40.04240038893695" lon="8.885220891498292"><ele>282.0</ele><time>2026-04-29T14:17:53.185Z</time></trkpt><trkpt lat="40.04227485479163" lon="8.885031116539533"><ele>289.0</ele><time>2026-04-29T14:17:54.185Z</time></trkpt><trkpt lat="40.042146784874554" lon="8.884846052215249"><ele>289.0</ele><time>2026-04-29T14:17:55.185Z</time></trkpt><trkpt lat="40.0420189824367" lon="8.884669119906668"><ele>289.0</ele><time>2026-04-29T14:17:56.185Z</time></trkpt><trkpt lat="40.04190029153187" lon="8.884490167295308"><ele>289.0</ele><time>2026-04-29T14:17:57.185Z</time></trkpt><trkpt lat="40.04178314773467" lon="8.884320884016457"><ele>288.66666666666663</ele><time>2026-04-29T14:17:58.185Z</time></trkpt><trkpt lat="40.04166261487272" lon="8.884161903486357"><ele>288.3333333333333</ele><time>2026-04-29T14:17:59.185Z</time></trkpt><trkpt lat="40.041536242245634" lon="8.884013775789166"><ele>288.0</ele><time>2026-04-29T14:18:00.185Z</time></trkpt><trkpt lat="40.041404205912464" lon="8.883872420715832"><ele>288.0</ele><time>2026-04-29T14:18:01.185Z</time></trkpt><trkpt lat="40.04124685349431" lon="8.883761840048697"><ele>288.0</ele><time>2026-04-29T14:18:02.186Z</time></trkpt><trkpt lat="40.04108166047417" lon="8.883704757485468"><ele>288.0</ele><time>2026-04-29T14:18:03.185Z</time></trkpt><trkpt lat="40.04090771301187" lon="8.883697243143915"><ele>288.6666666666667</ele><time>2026-04-29T14:18:04.185Z</time></trkpt><trkpt lat="40.04071956052655" lon="8.883727105030253"><ele>289.33333333333337</ele><time>2026-04-29T14:18:05.186Z</time></trkpt><trkpt lat="40.04054071880531" lon="8.883749422839264"><ele>290.0</ele><time>2026-04-29T14:18:06.185Z</time></trkpt><trkpt lat="40.0403646692675" lon="8.883792285676973"><ele>290.0</ele><time>2026-04-29T14:18:07.185Z</time></trkpt><trkpt lat="40.040194576237504" lon="8.883861322373702"><ele>290.0</ele><time>2026-04-29T14:18:08.185Z</time></trkpt><trkpt lat="40.040033584997346" lon="8.883952070023408"><ele>290.0</ele><time>2026-04-29T14:18:09.185Z</time></trkpt><trkpt lat="40.03986464669023" lon="8.884003251628362"><ele>291.0</ele><time>2026-04-29T14:18:10.185Z</time></trkpt><trkpt lat="40.03969770672992" lon="8.88402582761965"><ele>292.0</ele><time>2026-04-29T14:18:11.185Z</time></trkpt><trkpt lat="40.03953751471876" lon="8.884016127179178"><ele>293.0</ele><time>2026-04-29T14:18:12.185Z</time></trkpt><trkpt lat="40.03939419732" lon="8.883980309181124"><ele>293.0</ele><time>2026-04-29T14:18:13.185Z</time></trkpt><trkpt lat="40.03926298837429" lon="8.883939541380022"><ele>293.0</ele><time>2026-04-29T14:18:14.185Z</time></trkpt><trkpt lat="40.03913338850179" lon="8.883926455486188"><ele>293.0</ele><time>2026-04-29T14:18:15.185Z</time></trkpt><trkpt lat="40.03899813127691" lon="8.88396991964744"><ele>293.0</ele><time>2026-04-29T14:18:16.185Z</time></trkpt><trkpt lat="40.03887685227546" lon="8.884052783169121"><ele>293.25</ele><time>2026-04-29T14:18:17.185Z</time></trkpt><trkpt lat="40.03876781019574" lon="8.88415829258376"><ele>293.5</ele><time>2026-04-29T14:18:18.185Z</time></trkpt><trkpt lat="40.03867145417951" lon="8.884292521696278"><ele>293.75</ele><time>2026-04-29T14:18:19.185Z</time></trkpt><trkpt lat="40.038597864269285" lon="8.884446037429756"><ele>294.0</ele><time>2026-04-29T14:18:20.185Z</time></trkpt><trkpt lat="40.03851300956236" lon="8.884580720517203"><ele>295.75</ele><time>2026-04-29T14:18:21.185Z</time></trkpt><trkpt lat="40.0384059493547" lon="8.884690669506654"><ele>297.5</ele><time>2026-04-29T14:18:22.185Z</time></trkpt><trkpt lat="40.03828117825257" lon="8.88478408089777"><ele>299.25</ele><time>2026-04-29T14:18:23.185Z</time></trkpt><trkpt lat="40.03815700166356" lon="8.88486547625812"><ele>301.0</ele><time>2026-04-29T14:18:24.185Z</time></trkpt><trkpt lat="40.038020001029594" lon="8.884927220627043"><ele>301.0</ele><time>2026-04-29T14:18:25.185Z</time></trkpt><trkpt lat="40.03789093157365" lon="8.884994971574919"><ele>301.0</ele><time>2026-04-29T14:18:26.185Z</time></trkpt><trkpt lat="40.03775893503805" lon="8.885077406127953"><ele>301.0</ele><time>2026-04-29T14:18:27.185Z</time></trkpt><trkpt lat="40.037637297732545" lon="8.885171747635153"><ele>301.0</ele><time>2026-04-29T14:18:28.185Z</time></trkpt><trkpt lat="40.037529759092216" lon="8.885298978511104"><ele>303.5</ele><time>2026-04-29T14:18:29.185Z</time></trkpt><trkpt lat="40.037431929333486" lon="8.8854367379518"><ele>306.0</ele><time>2026-04-29T14:18:30.185Z</time></trkpt><trkpt lat="40.03733556713295" lon="8.885565791022193"><ele>308.5</ele><time>2026-04-29T14:18:31.185Z</time></trkpt><trkpt lat="40.037257105566475" lon="8.885699266396209"><ele>311.0</ele><time>2026-04-29T14:18:32.185Z</time></trkpt><trkpt lat="40.03721091532093" lon="8.885857590940493"><ele>312.0</ele><time>2026-04-29T14:18:33.185Z</time></trkpt><trkpt lat="40.03720549508976" lon="8.886035996868177"><ele>313.0</ele><time>2026-04-29T14:18:34.185Z</time></trkpt><trkpt lat="40.037225506193494" lon="8.886222300733388"><ele>314.0</ele><time>2026-04-29T14:18:35.185Z</time></trkpt><trkpt lat="40.03726689292372" lon="8.886402555376215"><ele>315.0</ele><time>2026-04-29T14:18:36.185Z</time></trkpt><trkpt lat="40.03729220555462" lon="8.886595299789082"><ele>315.75</ele><time>2026-04-29T14:18:37.185Z</time></trkpt><trkpt lat="40.03728937263068" lon="8.886794276006208"><ele>316.5</ele><time>2026-04-29T14:18:38.185Z</time></trkpt><trkpt lat="40.03727603727237" lon="8.886989659730482"><ele>317.25</ele><time>2026-04-29T14:18:39.185Z</time></trkpt><trkpt lat="40.03725889877712" lon="8.88717955624417"><ele>318.0</ele><time>2026-04-29T14:18:40.185Z</time></trkpt><trkpt lat="40.037242135903604" lon="8.88736503313727"><ele>318.0</ele><time>2026-04-29T14:18:41.185Z</time></trkpt><trkpt lat="40.03723036596277" lon="8.887544473784036"><ele>318.0</ele><time>2026-04-29T14:18:42.185Z</time></trkpt><trkpt lat="40.03721982665684" lon="8.887706783933695"><ele>318.0</ele><time>2026-04-29T14:18:43.185Z</time></trkpt><trkpt lat="40.0372150012597" lon="8.887859369372164"><ele>318.0</ele><time>2026-04-29T14:18:44.185Z</time></trkpt><trkpt lat="40.03723314362779" lon="8.887994042677912"><ele>318.25</ele><time>2026-04-29T14:18:45.185Z</time></trkpt><trkpt lat="40.03728579725327" lon="8.888119216375058"><ele>318.5</ele><time>2026-04-29T14:18:46.185Z</time></trkpt><trkpt lat="40.03737222043277" lon="8.888223189000835"><ele>318.75</ele><time>2026-04-29T14:18:47.185Z</time></trkpt><trkpt lat="40.03746715528829" lon="8.888311172681101"><ele>319.0</ele><time>2026-04-29T14:18:48.185Z</time></trkpt><trkpt lat="40.03757268207977" lon="8.888396500100232"><ele>318.4</ele><time>2026-04-29T14:18:49.185Z</time></trkpt><trkpt lat="40.037647274396534" lon="8.888509699735067"><ele>317.79999999999995</ele><time>2026-04-29T14:18:50.185Z</time></trkpt><trkpt lat="40.03769041335749" lon="8.888633839080562"><ele>317.20000000000005</ele><time>2026-04-29T14:18:51.185Z</time></trkpt><trkpt lat="40.03769587794" lon="8.888770783654259"><ele>316.6</ele><time>2026-04-29T14:18:52.185Z</time></trkpt><trkpt lat="40.03763577843158" lon="8.888888573592354"><ele>316.0</ele><time>2026-04-29T14:18:53.185Z</time></trkpt><trkpt lat="40.03755629648564" lon="8.888976815476799"><ele>318.25</ele><time>2026-04-29T14:18:54.185Z</time></trkpt><trkpt lat="40.037451053052884" lon="8.889017181235241"><ele>320.5</ele><time>2026-04-29T14:18:55.185Z</time></trkpt><trkpt lat="40.03732903726074" lon="8.888989914234516"><ele>322.75</ele><time>2026-04-29T14:18:56.185Z</time></trkpt><trkpt lat="40.037217916544485" lon="8.888941283137628"><ele>325.0</ele><time>2026-04-29T14:18:57.185Z</time></trkpt><trkpt lat="40.037111645323286" lon="8.888870677733095"><ele>325.0</ele><time>2026-04-29T14:18:58.185Z</time></trkpt><trkpt lat="40.03701057945081" lon="8.888800492630788"><ele>325.0</ele><time>2026-04-29T14:18:59.185Z</time></trkpt><trkpt lat="40.03690743266237" lon="8.888730870786711"><ele>325.0</ele><time>2026-04-29T14:19:00.185Z</time></trkpt><trkpt lat="40.03680033052619" lon="8.888661705631963"><ele>325.0</ele><time>2026-04-29T14:19:01.185Z</time></trkpt><trkpt lat="40.03669435223069" lon="8.888585479619431"><ele>326.0</ele><time>2026-04-29T14:19:02.185Z</time></trkpt><trkpt lat="40.03658762473606" lon="8.88850870199761"><ele>327.0</ele><time>2026-04-29T14:19:03.185Z</time></trkpt><trkpt lat="40.03649704830825" lon="8.888409483612863"><ele>328.0</ele><time>2026-04-29T14:19:04.185Z</time></trkpt><trkpt lat="40.036444959408385" lon="8.888271596442245"><ele>329.0</ele><time>2026-04-29T14:19:05.185Z</time></trkpt><trkpt lat="40.03641849169808" lon="8.888111815909461"><ele>329.0</ele><time>2026-04-29T14:19:06.185Z</time></trkpt><trkpt lat="40.0363953169294" lon="8.887951670916445"><ele>329.0</ele><time>2026-04-29T14:19:07.185Z</time></trkpt><trkpt lat="40.036361455153305" lon="8.88779979787562"><ele>329.0</ele><time>2026-04-29T14:19:08.185Z</time></trkpt><trkpt lat="40.0362922936118" lon="8.887658121019193"><ele>329.0</ele><time>2026-04-29T14:19:09.185Z</time></trkpt><trkpt lat="40.03620891828606" lon="8.887533025506055"><ele>328.5</ele><time>2026-04-29T14:19:10.185Z</time></trkpt><trkpt lat="40.03611294048543" lon="8.88742742908299"><ele>328.0</ele><time>2026-04-29T14:19:11.185Z</time></trkpt><trkpt lat="40.03600404111979" lon="8.887345410282565"><ele>327.5</ele><time>2026-04-29T14:19:12.185Z</time></trkpt><trkpt lat="40.03588479332915" lon="8.887278383650806"><ele>327.0</ele><time>2026-04-29T14:19:13.185Z</time></trkpt><trkpt lat="40.035765275388826" lon="8.887207101339271"><ele>329.75</ele><time>2026-04-29T14:19:14.185Z</time></trkpt><trkpt lat="40.035643257764484" lon="8.887128878892165"><ele>332.5</ele><time>2026-04-29T14:19:15.185Z</time></trkpt><trkpt lat="40.035520961089794" lon="8.88705497255995"><ele>335.25</ele><time>2026-04-29T14:19:16.185Z</time></trkpt><trkpt lat="40.035397745572816" lon="8.886979567215144"><ele>338.0</ele><time>2026-04-29T14:19:17.185Z</time></trkpt><trkpt lat="40.03527608152167" lon="8.886905972452963"><ele>338.0</ele><time>2026-04-29T14:19:18.185Z</time></trkpt><trkpt lat="40.035154281139576" lon="8.886831772544669"><ele>338.0</ele><time>2026-04-29T14:19:19.185Z</time></trkpt><trkpt lat="40.03503274000933" lon="8.886770178306529"><ele>338.0</ele><time>2026-04-29T14:19:20.185Z</time></trkpt><trkpt lat="40.034904545125464" lon="8.88674386406314"><ele>338.0</ele><time>2026-04-29T14:19:21.185Z</time></trkpt><trkpt lat="40.034775615373675" lon="8.886728271986376"><ele>338.79999999999995</ele><time>2026-04-29T14:19:22.185Z</time></trkpt><trkpt lat="40.034652629652726" lon="8.88670974365952"><ele>339.6</ele><time>2026-04-29T14:19:23.185Z</time></trkpt><trkpt lat="40.03454431125306" lon="8.886699386959014"><ele>340.4</ele><time>2026-04-29T14:19:24.185Z</time></trkpt><trkpt lat="40.03444778768428" lon="8.886687402996714"><ele>341.20000000000005</ele><time>2026-04-29T14:19:25.185Z</time></trkpt><trkpt lat="40.03437032781901" lon="8.886674707031816"><ele>342.0</ele><time>2026-04-29T14:19:26.185Z</time></trkpt><trkpt lat="40.03424378260851" lon="8.886700274285813"><ele>343.0</ele><time>2026-04-29T14:19:29.185Z</time></trkpt><trkpt lat="40.03421437580935" lon="8.886789366243729"><ele>344.0</ele><time>2026-04-29T14:19:31.185Z</time></trkpt><trkpt lat="40.034224193269075" lon="8.886888270777408"><ele>345.0</ele><time>2026-04-29T14:19:32.185Z</time></trkpt><trkpt lat="40.03423451447951" lon="8.88699092570795"><ele>346.0</ele><time>2026-04-29T14:19:33.185Z</time></trkpt><trkpt lat="40.03424784472044" lon="8.887099291620437"><ele>347.0</ele><time>2026-04-29T14:19:34.185Z</time></trkpt><trkpt lat="40.03426447063248" lon="8.887205882162188"><ele>348.0</ele><time>2026-04-29T14:19:35.185Z</time></trkpt><trkpt lat="40.034280477449045" lon="8.887308783326802"><ele>348.0</ele><time>2026-04-29T14:19:36.185Z</time></trkpt><trkpt lat="40.03428469913833" lon="8.887414869263543"><ele>348.0</ele><time>2026-04-29T14:19:37.185Z</time></trkpt><trkpt lat="40.03428011475848" lon="8.887526000697921"><ele>348.0</ele><time>2026-04-29T14:19:38.185Z</time></trkpt><trkpt lat="40.03426739351664" lon="8.887638988961294"><ele>348.0</ele><time>2026-04-29T14:19:39.185Z</time></trkpt><trkpt lat="40.034240478005856" lon="8.887757265620003"><ele>348.0</ele><time>2026-04-29T14:19:40.185Z</time></trkpt><trkpt lat="40.034190390617276" lon="8.88786377648058"><ele>348.0</ele><time>2026-04-29T14:19:41.185Z</time></trkpt><trkpt lat="40.034138794476334" lon="8.8879665777705"><ele>350.79999999999995</ele><time>2026-04-29T14:19:42.185Z</time></trkpt><trkpt lat="40.03409389684445" lon="8.888073192693119"><ele>353.6</ele><time>2026-04-29T14:19:43.185Z</time></trkpt><trkpt lat="40.034054577725655" lon="8.888188310166067"><ele>356.4</ele><time>2026-04-29T14:19:44.185Z</time></trkpt><trkpt lat="40.03401104518368" lon="8.888313371563235"><ele>359.20000000000005</ele><time>2026-04-29T14:19:45.185Z</time></trkpt><trkpt lat="40.03395364833653" lon="8.888443270198051"><ele>362.0</ele><time>2026-04-29T14:19:46.185Z</time></trkpt><trkpt lat="40.0338943423578" lon="8.888559597097128"><ele>363.20000000000005</ele><time>2026-04-29T14:19:47.185Z</time></trkpt><trkpt lat="40.033864802490584" lon="8.888776070864907"><ele>364.4</ele><time>2026-04-29T14:19:49.185Z</time></trkpt><trkpt lat="40.03389175524848" lon="8.888879875068989"><ele>365.6</ele><time>2026-04-29T14:19:50.185Z</time></trkpt><trkpt lat="40.03393940980621" lon="8.888962503440162"><ele>366.79999999999995</ele><time>2026-04-29T14:19:51.185Z</time></trkpt><trkpt lat="40.03397646431664" lon="8.889058479365666"><ele>368.0</ele><time>2026-04-29T14:19:52.185Z</time></trkpt><trkpt lat="40.03402213862726" lon="8.889156080020154"><ele>369.4</ele><time>2026-04-29T14:19:53.185Z</time></trkpt><trkpt lat="40.034068211814294" lon="8.889261162624571"><ele>370.79999999999995</ele><time>2026-04-29T14:19:54.185Z</time></trkpt><trkpt lat="40.034116711943746" lon="8.889362830064945"><ele>372.2</ele><time>2026-04-29T14:19:55.185Z</time></trkpt><trkpt lat="40.034173192844506" lon="8.889470443169483"><ele>373.6</ele><time>2026-04-29T14:19:56.185Z</time></trkpt><trkpt lat="40.03423448401317" lon="8.889579779550505"><ele>375.0</ele><time>2026-04-29T14:19:57.185Z</time></trkpt><trkpt lat="40.03429356962015" lon="8.889685721731285"><ele>372.8</ele><time>2026-04-29T14:19:58.185Z</time></trkpt><trkpt lat="40.03434511251156" lon="8.889796506643535"><ele>370.6</ele><time>2026-04-29T14:19:59.185Z</time></trkpt><trkpt lat="40.03437778945532" lon="8.88991302879603"><ele>368.4</ele><time>2026-04-29T14:20:00.185Z</time></trkpt><trkpt lat="40.034393028739395" lon="8.890024451644805"><ele>366.2</ele><time>2026-04-29T14:20:01.185Z</time></trkpt><trkpt lat="40.03437574262209" lon="8.89013377685185"><ele>364.0</ele><time>2026-04-29T14:20:02.186Z</time></trkpt><trkpt lat="40.03435744484978" lon="8.890245344158345"><ele>364.0</ele><time>2026-04-29T14:20:03.186Z</time></trkpt><trkpt lat="40.03433673517083" lon="8.890347748640709"><ele>364.0</ele><time>2026-04-29T14:20:04.186Z</time></trkpt><trkpt lat="40.034311687940544" lon="8.890448202714362"><ele>364.0</ele><time>2026-04-29T14:20:05.186Z</time></trkpt><trkpt lat="40.03425633544564" lon="8.890534369386907"><ele>364.0</ele><time>2026-04-29T14:20:06.186Z</time></trkpt><trkpt lat="40.03419477639342" lon="8.890607016702253"><ele>364.0</ele><time>2026-04-29T14:20:07.186Z</time></trkpt><trkpt lat="40.03414614756749" lon="8.89069607547835"><ele>364.0</ele><time>2026-04-29T14:20:08.186Z</time></trkpt><trkpt lat="40.034134054150606" lon="8.890805562541589"><ele>364.2</ele><time>2026-04-29T14:20:09.186Z</time></trkpt><trkpt lat="40.03415447501083" lon="8.890928935657268"><ele>364.4</ele><time>2026-04-29T14:20:10.186Z</time></trkpt><trkpt lat="40.03417036222008" lon="8.891059982602233"><ele>364.6</ele><time>2026-04-29T14:20:11.186Z</time></trkpt><trkpt lat="40.034173904947174" lon="8.891186013809593"><ele>364.8</ele><time>2026-04-29T14:20:12.186Z</time></trkpt><trkpt lat="40.03417654723437" lon="8.891310095684295"><ele>365.0</ele><time>2026-04-29T14:20:13.186Z</time></trkpt><trkpt lat="40.0341647173884" lon="8.891434809458525"><ele>365.0</ele><time>2026-04-29T14:20:14.186Z</time></trkpt><trkpt lat="40.03415253308242" lon="8.891548109210897"><ele>365.0</ele><time>2026-04-29T14:20:15.186Z</time></trkpt><trkpt lat="40.03414087202212" lon="8.89166301712752"><ele>365.0</ele><time>2026-04-29T14:20:16.186Z</time></trkpt><trkpt lat="40.03413976155556" lon="8.891784607966242"><ele>365.0</ele><time>2026-04-29T14:20:17.186Z</time></trkpt><trkpt lat="40.034150341525255" lon="8.891896052991859"><ele>365.0</ele><time>2026-04-29T14:20:18.186Z</time></trkpt><trkpt lat="40.03417066383663" lon="8.892010172252997"><ele>365.0</ele><time>2026-04-29T14:20:19.186Z</time></trkpt><trkpt lat="40.034190587380614" lon="8.892135028175456"><ele>364.6</ele><time>2026-04-29T14:20:20.186Z</time></trkpt><trkpt lat="40.03419370356985" lon="8.89226270466468"><ele>364.2</ele><time>2026-04-29T14:20:21.186Z</time></trkpt><trkpt lat="40.03417003603492" lon="8.892395698880334"><ele>363.79999999999995</ele><time>2026-04-29T14:20:22.186Z</time></trkpt><trkpt lat="40.03412745844125" lon="8.892513306272585"><ele>363.4</ele><time>2026-04-29T14:20:23.186Z</time></trkpt><trkpt lat="40.03408315124784" lon="8.892649568081957"><ele>363.0</ele><time>2026-04-29T14:20:24.186Z</time></trkpt><trkpt lat="40.034040238505966" lon="8.892785847018336"><ele>368.0</ele><time>2026-04-29T14:20:25.186Z</time></trkpt><trkpt lat="40.033992987016354" lon="8.892920820366248"><ele>373.0</ele><time>2026-04-29T14:20:26.186Z</time></trkpt><trkpt lat="40.03394692513987" lon="8.893056551996173"><ele>378.0</ele><time>2026-04-29T14:20:27.186Z</time></trkpt><trkpt lat="40.03389922166028" lon="8.893189563637497"><ele>383.0</ele><time>2026-04-29T14:20:28.186Z</time></trkpt><trkpt lat="40.03385938804057" lon="8.89333276038938"><ele>382.0</ele><time>2026-04-29T14:20:29.186Z</time></trkpt><trkpt lat="40.03382834052283" lon="8.893474423440896"><ele>381.0</ele><time>2026-04-29T14:20:30.186Z</time></trkpt><trkpt lat="40.03379276296767" lon="8.893615214592554"><ele>380.0</ele><time>2026-04-29T14:20:31.186Z</time></trkpt><trkpt lat="40.03375813868002" lon="8.893756394276558"><ele>379.0</ele><time>2026-04-29T14:20:32.186Z</time></trkpt><trkpt lat="40.03372033202195" lon="8.893896435453282"><ele>379.0</ele><time>2026-04-29T14:20:33.186Z</time></trkpt><trkpt lat="40.03367144290703" lon="8.894033950966072"><ele>379.0</ele><time>2026-04-29T14:20:34.186Z</time></trkpt><trkpt lat="40.03361054284942" lon="8.894157912855977"><ele>379.0</ele><time>2026-04-29T14:20:35.186Z</time></trkpt><trkpt lat="40.033530664721866" lon="8.894262386164609"><ele>379.0</ele><time>2026-04-29T14:20:36.186Z</time></trkpt><trkpt lat="40.03343916179872" lon="8.894354843572385"><ele>379.75</ele><time>2026-04-29T14:20:37.186Z</time></trkpt><trkpt lat="40.033348465165965" lon="8.894449753855403"><ele>380.5</ele><time>2026-04-29T14:20:38.186Z</time></trkpt><trkpt lat="40.03325721273119" lon="8.894544234670603"><ele>381.25</ele><time>2026-04-29T14:20:39.186Z</time></trkpt><trkpt lat="40.03315959706131" lon="8.89462638561838"><ele>382.0</ele><time>2026-04-29T14:20:40.186Z</time></trkpt><trkpt lat="40.033055974115534" lon="8.89469887988956"><ele>382.0</ele><time>2026-04-29T14:20:41.186Z</time></trkpt><trkpt lat="40.03295254214377" lon="8.894765751746158"><ele>382.0</ele><time>2026-04-29T14:20:42.186Z</time></trkpt><trkpt lat="40.03284879884136" lon="8.89483180289169"><ele>382.0</ele><time>2026-04-29T14:20:43.186Z</time></trkpt><trkpt lat="40.032739860643005" lon="8.894902916179408"><ele>382.0</ele><time>2026-04-29T14:20:44.186Z</time></trkpt><trkpt lat="40.03263561880157" lon="8.894972160551768"><ele>382.0</ele><time>2026-04-29T14:20:45.186Z</time></trkpt><trkpt lat="40.032523284530974" lon="8.895042113603932"><ele>382.0</ele><time>2026-04-29T14:20:46.186Z</time></trkpt><trkpt lat="40.03241517504332" lon="8.895119023137678"><ele>382.0</ele><time>2026-04-29T14:20:47.186Z</time></trkpt><trkpt lat="40.03230483067731" lon="8.895191198122527"><ele>382.0</ele><time>2026-04-29T14:20:48.186Z</time></trkpt><trkpt lat="40.032190358444865" lon="8.895259343040687"><ele>384.5</ele><time>2026-04-29T14:20:49.186Z</time></trkpt><trkpt lat="40.03207972769714" lon="8.895330867625491"><ele>387.0</ele><time>2026-04-29T14:20:50.186Z</time></trkpt><trkpt lat="40.03197419289651" lon="8.895410371284829"><ele>389.5</ele><time>2026-04-29T14:20:51.186Z</time></trkpt><trkpt lat="40.03187973173487" lon="8.895491583351378"><ele>392.0</ele><time>2026-04-29T14:20:52.186Z</time></trkpt><trkpt lat="40.03180357809833" lon="8.89558426774416"><ele>392.0</ele><time>2026-04-29T14:20:53.186Z</time></trkpt><trkpt lat="40.031752301225914" lon="8.895702547299361"><ele>392.0</ele><time>2026-04-29T14:20:54.186Z</time></trkpt><trkpt lat="40.03173025291913" lon="8.895843295383093"><ele>392.0</ele><time>2026-04-29T14:20:55.186Z</time></trkpt><trkpt lat="40.03176838235701" lon="8.895984862555945"><ele>392.0</ele><time>2026-04-29T14:20:56.186Z</time></trkpt><trkpt lat="40.03184681548894" lon="8.89608670206502"><ele>392.0</ele><time>2026-04-29T14:20:57.186Z</time></trkpt><trkpt lat="40.031941939139784" lon="8.896163086805114"><ele>393.40000000000003</ele><time>2026-04-29T14:20:58.186Z</time></trkpt><trkpt lat="40.032029563542245" lon="8.89622385939622"><ele>394.8</ele><time>2026-04-29T14:20:59.186Z</time></trkpt><trkpt lat="40.03210956491972" lon="8.896322524907818"><ele>396.2</ele><time>2026-04-29T14:21:00.186Z</time></trkpt><trkpt lat="40.032198045509745" lon="8.896430693191618"><ele>397.6</ele><time>2026-04-29T14:21:01.186Z</time></trkpt><trkpt lat="40.03224479140119" lon="8.896542850529661"><ele>399.0</ele><time>2026-04-29T14:21:02.186Z</time></trkpt><trkpt lat="40.032244149691394" lon="8.896699309456961"><ele>401.0</ele><time>2026-04-29T14:21:03.186Z</time></trkpt><trkpt lat="40.03226234174402" lon="8.896853039969615"><ele>403.0</ele><time>2026-04-29T14:21:04.186Z</time></trkpt><trkpt lat="40.03229130822118" lon="8.897010206378035"><ele>405.0</ele><time>2026-04-29T14:21:05.186Z</time></trkpt><trkpt lat="40.03230873718472" lon="8.897163451476093"><ele>407.0</ele><time>2026-04-29T14:21:06.186Z</time></trkpt><trkpt lat="40.032333723742035" lon="8.897320338581261"><ele>407.0</ele><time>2026-04-29T14:21:07.186Z</time></trkpt><trkpt lat="40.03235829950078" lon="8.897481988593018"><ele>407.0</ele><time>2026-04-29T14:21:08.186Z</time></trkpt><trkpt lat="40.03236349920423" lon="8.89765084312168"><ele>407.0</ele><time>2026-04-29T14:21:09.186Z</time></trkpt><trkpt lat="40.03238901530725" lon="8.897816825292978"><ele>407.0</ele><time>2026-04-29T14:21:10.186Z</time></trkpt><trkpt lat="40.032420505295526" lon="8.897985371116167"><ele>407.75</ele><time>2026-04-29T14:21:11.186Z</time></trkpt><trkpt lat="40.03245973741558" lon="8.898149027291996"><ele>408.5</ele><time>2026-04-29T14:21:12.186Z</time></trkpt><trkpt lat="40.03250785681149" lon="8.898306814803297"><ele>409.25</ele><time>2026-04-29T14:21:13.186Z</time></trkpt><trkpt lat="40.03257207458294" lon="8.89845652855934"><ele>410.0</ele><time>2026-04-29T14:21:14.186Z</time></trkpt><trkpt lat="40.03264080224678" lon="8.89860227023564"><ele>410.0</ele><time>2026-04-29T14:21:15.186Z</time></trkpt><trkpt lat="40.03270523853409" lon="8.898740847246879"><ele>410.0</ele><time>2026-04-29T14:21:16.186Z</time></trkpt><trkpt lat="40.03276700826758" lon="8.898878349910458"><ele>410.0</ele><time>2026-04-29T14:21:17.186Z</time></trkpt><trkpt lat="40.032842446993925" lon="8.899019537710771"><ele>410.0</ele><time>2026-04-29T14:21:18.186Z</time></trkpt><trkpt lat="40.0329280281635" lon="8.899155132188584"><ele>413.25</ele><time>2026-04-29T14:21:19.186Z</time></trkpt><trkpt lat="40.03301717471388" lon="8.89927877334233"><ele>416.5</ele><time>2026-04-29T14:21:20.186Z</time></trkpt><trkpt lat="40.03310414351308" lon="8.89940444691167"><ele>419.75</ele><time>2026-04-29T14:21:21.186Z</time></trkpt><trkpt lat="40.03319842192097" lon="8.899529021416946"><ele>423.0</ele><time>2026-04-29T14:21:22.186Z</time></trkpt><trkpt lat="40.0333000302977" lon="8.899649463403708"><ele>420.0</ele><time>2026-04-29T14:21:23.186Z</time></trkpt><trkpt lat="40.03337747682171" lon="8.89976701907258"><ele>417.0</ele><time>2026-04-29T14:21:24.186Z</time></trkpt><trkpt lat="40.03343590491477" lon="8.899879112672759"><ele>414.0</ele><time>2026-04-29T14:21:25.186Z</time></trkpt><trkpt lat="40.03345236056959" lon="8.899990640251655"><ele>411.0</ele><time>2026-04-29T14:21:26.186Z</time></trkpt><trkpt lat="40.03341999910555" lon="8.900103095053996"><ele>408.0</ele><time>2026-04-29T14:21:27.186Z</time></trkpt><trkpt lat="40.03337705487717" lon="8.90023612776707"><ele>408.0</ele><time>2026-04-29T14:21:28.186Z</time></trkpt><trkpt lat="40.03332728060159" lon="8.900376239560977"><ele>408.0</ele><time>2026-04-29T14:21:29.186Z</time></trkpt><trkpt lat="40.03327894612266" lon="8.90052472139157"><ele>408.0</ele><time>2026-04-29T14:21:30.186Z</time></trkpt><trkpt lat="40.03322870084203" lon="8.900675557736001"><ele>408.0</ele><time>2026-04-29T14:21:31.186Z</time></trkpt><trkpt lat="40.033183161163436" lon="8.900824364370965"><ele>413.75</ele><time>2026-04-29T14:21:32.186Z</time></trkpt><trkpt lat="40.03313570884439" lon="8.900971190260195"><ele>419.5</ele><time>2026-04-29T14:21:33.186Z</time></trkpt><trkpt lat="40.033097699061415" lon="8.90111176422157"><ele>425.25</ele><time>2026-04-29T14:21:34.186Z</time></trkpt><trkpt lat="40.03309457372681" lon="8.901260758413287"><ele>431.0</ele><time>2026-04-29T14:21:35.186Z</time></trkpt><trkpt lat="40.03311609514814" lon="8.901416320283632"><ele>431.0</ele><time>2026-04-29T14:21:36.186Z</time></trkpt><trkpt lat="40.03318029705764" lon="8.901557754705825"><ele>431.0</ele><time>2026-04-29T14:21:37.186Z</time></trkpt><trkpt lat="40.0332760974964" lon="8.90168357427968"><ele>431.0</ele><time>2026-04-29T14:21:38.186Z</time></trkpt><trkpt lat="40.033391626571266" lon="8.901771184122092"><ele>431.0</ele><time>2026-04-29T14:21:39.186Z</time></trkpt><trkpt lat="40.03353785292315" lon="8.901803509657634"><ele>433.3333333333333</ele><time>2026-04-29T14:21:40.186Z</time></trkpt><trkpt lat="40.033687874146906" lon="8.901784633562924"><ele>435.66666666666663</ele><time>2026-04-29T14:21:41.186Z</time></trkpt><trkpt lat="40.03384106281187" lon="8.901744250498183"><ele>438.0</ele><time>2026-04-29T14:21:42.185Z</time></trkpt><trkpt lat="40.033988125449696" lon="8.901705867891286"><ele>436.75</ele><time>2026-04-29T14:21:43.185Z</time></trkpt><trkpt lat="40.034125027269276" lon="8.901686626663583"><ele>435.5</ele><time>2026-04-29T14:21:44.185Z</time></trkpt><trkpt lat="40.034257654208204" lon="8.901694628080934"><ele>434.25</ele><time>2026-04-29T14:21:45.185Z</time></trkpt><trkpt lat="40.03436524927066" lon="8.901768643783525"><ele>433.0</ele><time>2026-04-29T14:21:46.185Z</time></trkpt><trkpt lat="40.03442102759524" lon="8.90188380999117"><ele>433.0</ele><time>2026-04-29T14:21:47.185Z</time></trkpt><trkpt lat="40.034447138067264" lon="8.902046436993828"><ele>433.0</ele><time>2026-04-29T14:21:48.185Z</time></trkpt><trkpt lat="40.03445639668118" lon="8.902211055958398"><ele>433.0</ele><time>2026-04-29T14:21:49.185Z</time></trkpt><trkpt lat="40.03450271600633" lon="8.902341207997155"><ele>433.0</ele><time>2026-04-29T14:21:50.185Z</time></trkpt><trkpt lat="40.034575848645524" lon="8.902407596273708"><ele>433.0</ele><time>2026-04-29T14:21:51.185Z</time></trkpt><trkpt lat="40.0346604770217" lon="8.902403185390234"><ele>432.99999999999994</ele><time>2026-04-29T14:21:52.185Z</time></trkpt><trkpt lat="40.034748607306476" lon="8.902326209092458"><ele>432.99999999999994</ele><time>2026-04-29T14:21:53.185Z</time></trkpt><trkpt lat="40.034837065220735" lon="8.902218466407854"><ele>433.0</ele><time>2026-04-29T14:21:54.185Z</time></trkpt><trkpt lat="40.03494787654911" lon="8.902116230241775"><ele>433.0</ele><time>2026-04-29T14:21:55.185Z</time></trkpt><trkpt lat="40.035060221651975" lon="8.902011549946838"><ele>433.0</ele><time>2026-04-29T14:21:56.185Z</time></trkpt><trkpt lat="40.03516693728394" lon="8.901921882813623"><ele>432.99999999999994</ele><time>2026-04-29T14:21:57.185Z</time></trkpt><trkpt lat="40.03526531375011" lon="8.901907189203678"><ele>432.99999999999994</ele><time>2026-04-29T14:21:58.185Z</time></trkpt><trkpt lat="40.03535070559423" lon="8.90196470869204"><ele>433.0</ele><time>2026-04-29T14:21:59.185Z</time></trkpt><trkpt lat="40.03540141461024" lon="8.902078124511748"><ele>433.0</ele><time>2026-04-29T14:22:00.185Z</time></trkpt><trkpt lat="40.03543035736071" lon="8.90222690212275"><ele>433.0</ele><time>2026-04-29T14:22:01.185Z</time></trkpt><trkpt lat="40.03544980500646" lon="8.902396838290798"><ele>433.0</ele><time>2026-04-29T14:22:02.185Z</time></trkpt><trkpt lat="40.03548603449259" lon="8.902565229396544"><ele>433.0</ele><time>2026-04-29T14:22:03.185Z</time></trkpt><trkpt lat="40.0355296348856" lon="8.902742665157012"><ele>433.0</ele><time>2026-04-29T14:22:04.185Z</time></trkpt><trkpt lat="40.03557419736734" lon="8.902925118311954"><ele>436.33333333333337</ele><time>2026-04-29T14:22:05.185Z</time></trkpt><trkpt lat="40.03561638565723" lon="8.90310828251926"><ele>439.66666666666663</ele><time>2026-04-29T14:22:06.185Z</time></trkpt><trkpt lat="40.035661428848414" lon="8.903295033947325"><ele>443.0</ele><time>2026-04-29T14:22:07.185Z</time></trkpt><trkpt lat="40.03570973936484" lon="8.903491594421117"><ele>446.66666666666663</ele><time>2026-04-29T14:22:08.186Z</time></trkpt><trkpt lat="40.03574878136277" lon="8.903689242095368"><ele>450.33333333333337</ele><time>2026-04-29T14:22:09.186Z</time></trkpt><trkpt lat="40.03577817578514" lon="8.903887737002036"><ele>454.0</ele><time>2026-04-29T14:22:10.186Z</time></trkpt><trkpt lat="40.035798045716305" lon="8.904089264763837"><ele>453.75</ele><time>2026-04-29T14:22:11.186Z</time></trkpt><trkpt lat="40.035811040126525" lon="8.904288033957629"><ele>453.5</ele><time>2026-04-29T14:22:12.186Z</time></trkpt><trkpt lat="40.0358319759478" lon="8.904482162142092"><ele>453.25</ele><time>2026-04-29T14:22:13.186Z</time></trkpt><trkpt lat="40.03585632405908" lon="8.904655410173863"><ele>453.0</ele><time>2026-04-29T14:22:14.186Z</time></trkpt><trkpt lat="40.035899677808565" lon="8.904808049043082"><ele>453.0</ele><time>2026-04-29T14:22:15.186Z</time></trkpt><trkpt lat="40.03596504197387" lon="8.9049467144713"><ele>453.0</ele><time>2026-04-29T14:22:16.186Z</time></trkpt><trkpt lat="40.036060845632115" lon="8.90506195539388"><ele>453.0</ele><time>2026-04-29T14:22:17.187Z</time></trkpt><trkpt lat="40.03617497253401" lon="8.905164780922627"><ele>453.0</ele><time>2026-04-29T14:22:18.186Z</time></trkpt><trkpt lat="40.036302722591756" lon="8.905252103221304"><ele>454.33333333333337</ele><time>2026-04-29T14:22:19.186Z</time></trkpt><trkpt lat="40.036438022045814" lon="8.90534611665752"><ele>455.6666666666667</ele><time>2026-04-29T14:22:20.186Z</time></trkpt><trkpt lat="40.03658161518672" lon="8.905452152833908"><ele>457.0</ele><time>2026-04-29T14:22:21.186Z</time></trkpt><trkpt lat="40.036726105261735" lon="8.90557355435671"><ele>457.0</ele><time>2026-04-29T14:22:22.186Z</time></trkpt><trkpt lat="40.03685248284531" lon="8.905727294536176"><ele>457.0</ele><time>2026-04-29T14:22:23.186Z</time></trkpt><trkpt lat="40.036940882387995" lon="8.905910242094723"><ele>457.0</ele><time>2026-04-29T14:22:24.186Z</time></trkpt><trkpt lat="40.037021764300164" lon="8.906103503806989"><ele>458.0</ele><time>2026-04-29T14:22:25.186Z</time></trkpt><trkpt lat="40.03713779180775" lon="8.906237854429005"><ele>459.0</ele><time>2026-04-29T14:22:26.186Z</time></trkpt><trkpt lat="40.03729797514929" lon="8.906305443966147"><ele>460.0</ele><time>2026-04-29T14:22:27.186Z</time></trkpt><trkpt lat="40.03748256891182" lon="8.906328958568036"><ele>460.0</ele><time>2026-04-29T14:22:28.186Z</time></trkpt><trkpt lat="40.037669138190445" lon="8.906338010388929"><ele>460.0</ele><time>2026-04-29T14:22:29.186Z</time></trkpt><trkpt lat="40.03782789473264" lon="8.906362488527822"><ele>460.0</ele><time>2026-04-29T14:22:30.186Z</time></trkpt><trkpt lat="40.037965919849704" lon="8.90643691105518"><ele>460.0</ele><time>2026-04-29T14:22:31.186Z</time></trkpt><trkpt lat="40.03807394737341" lon="8.906590161798707"><ele>460.0</ele><time>2026-04-29T14:22:32.186Z</time></trkpt><trkpt lat="40.03817500235886" lon="8.906764771248634"><ele>460.0</ele><time>2026-04-29T14:22:33.186Z</time></trkpt><trkpt lat="40.03827584329079" lon="8.906965181109602"><ele>459.5</ele><time>2026-04-29T14:22:34.186Z</time></trkpt><trkpt lat="40.03836205789576" lon="8.907140147855065"><ele>459.0</ele><time>2026-04-29T14:22:35.186Z</time></trkpt><trkpt lat="40.03840488291257" lon="8.907297947909052"><ele>458.5</ele><time>2026-04-29T14:22:36.186Z</time></trkpt><trkpt lat="40.03840035364107" lon="8.907453703229429"><ele>458.0</ele><time>2026-04-29T14:22:37.186Z</time></trkpt><trkpt lat="40.03832009674665" lon="8.90759068575258"><ele>461.3333333333333</ele><time>2026-04-29T14:22:38.186Z</time></trkpt><trkpt lat="40.038190867556324" lon="8.907710724456992"><ele>464.66666666666663</ele><time>2026-04-29T14:22:39.186Z</time></trkpt><trkpt lat="40.038052159248096" lon="8.907847921872907"><ele>468.0</ele><time>2026-04-29T14:22:40.186Z</time></trkpt><trkpt lat="40.03795101334656" lon="8.908009949784482"><ele>468.0</ele><time>2026-04-29T14:22:41.186Z</time></trkpt><trkpt lat="40.03787303306921" lon="8.908210950560184"><ele>468.0</ele><time>2026-04-29T14:22:42.186Z</time></trkpt><trkpt lat="40.037812237302575" lon="8.90844771949399"><ele>468.0</ele><time>2026-04-29T14:22:43.186Z</time></trkpt><trkpt lat="40.037776888381856" lon="8.908711325886822"><ele>468.33333333333337</ele><time>2026-04-29T14:22:44.186Z</time></trkpt><trkpt lat="40.03777432105267" lon="8.908947006116739"><ele>468.6666666666667</ele><time>2026-04-29T14:22:45.186Z</time></trkpt><trkpt lat="40.03781320744361" lon="8.9091572729994"><ele>469.0</ele><time>2026-04-29T14:22:46.186Z</time></trkpt><trkpt lat="40.037905994877484" lon="8.909321717471586"><ele>468.0</ele><time>2026-04-29T14:22:47.186Z</time></trkpt><trkpt lat="40.03805933274169" lon="8.9094473839825"><ele>467.0</ele><time>2026-04-29T14:22:48.186Z</time></trkpt><trkpt lat="40.038223628515745" lon="8.90957865152482"><ele>466.0</ele><time>2026-04-29T14:22:49.186Z</time></trkpt><trkpt lat="40.03838881610829" lon="8.90973253753764"><ele>466.0</ele><time>2026-04-29T14:22:50.186Z</time></trkpt><trkpt lat="40.03854255147358" lon="8.909904316087047"><ele>466.0</ele><time>2026-04-29T14:22:51.186Z</time></trkpt><trkpt lat="40.038673957860894" lon="8.910077195375495"><ele>466.0</ele><time>2026-04-29T14:22:52.186Z</time></trkpt><trkpt lat="40.0387779330715" lon="8.910259479522702"><ele>466.6666666666667</ele><time>2026-04-29T14:22:53.186Z</time></trkpt><trkpt lat="40.03883658775644" lon="8.910483839972448"><ele>467.33333333333337</ele><time>2026-04-29T14:22:54.186Z</time></trkpt><trkpt lat="40.0388281690737" lon="8.910721448898606"><ele>468.0</ele><time>2026-04-29T14:22:55.186Z</time></trkpt><trkpt lat="40.03876529654925" lon="8.910951454601125"><ele>466.66666666666663</ele><time>2026-04-29T14:22:56.186Z</time></trkpt><trkpt lat="40.03864365639312" lon="8.911166557417296"><ele>465.3333333333333</ele><time>2026-04-29T14:22:57.186Z</time></trkpt><trkpt lat="40.03850391497985" lon="8.911378849536195"><ele>464.0</ele><time>2026-04-29T14:22:58.186Z</time></trkpt><trkpt lat="40.03835495216937" lon="8.911591838982842"><ele>472.5</ele><time>2026-04-29T14:22:59.186Z</time></trkpt><trkpt lat="40.03819588850789" lon="8.911800900684444"><ele>481.0</ele><time>2026-04-29T14:23:00.186Z</time></trkpt><trkpt lat="40.03804151113333" lon="8.912013352411496"><ele>481.0</ele><time>2026-04-29T14:23:01.186Z</time></trkpt><trkpt lat="40.03790162684897" lon="8.91222965496643"><ele>481.0</ele><time>2026-04-29T14:23:02.186Z</time></trkpt><trkpt lat="40.03779295853504" lon="8.912470481923572"><ele>481.0</ele><time>2026-04-29T14:23:03.186Z</time></trkpt><trkpt lat="40.037738296301924" lon="8.912736820305506"><ele>478.33333333333337</ele><time>2026-04-29T14:23:04.186Z</time></trkpt><trkpt lat="40.03772331632073" lon="8.91301100555393"><ele>475.66666666666663</ele><time>2026-04-29T14:23:05.186Z</time></trkpt><trkpt lat="40.03766850744932" lon="8.913281779960036"><ele>473.0</ele><time>2026-04-29T14:23:06.186Z</time></trkpt><trkpt lat="40.03758419979274" lon="8.913538071596838"><ele>474.3333333333333</ele><time>2026-04-29T14:23:07.186Z</time></trkpt><trkpt lat="40.03748246194234" lon="8.913789798059556"><ele>475.66666666666663</ele><time>2026-04-29T14:23:08.186Z</time></trkpt><trkpt lat="40.03738279016192" lon="8.91403021593781"><ele>477.0</ele><time>2026-04-29T14:23:09.186Z</time></trkpt><trkpt lat="40.03728956743517" lon="8.914246528667602"><ele>477.0</ele><time>2026-04-29T14:23:10.186Z</time></trkpt><trkpt lat="40.03715670629243" lon="8.91441278154637"><ele>477.0</ele><time>2026-04-29T14:23:11.186Z</time></trkpt><trkpt lat="40.03699143756119" lon="8.914547212756228"><ele>477.0</ele><time>2026-04-29T14:23:12.186Z</time></trkpt><trkpt lat="40.03681697217281" lon="8.914650093989296"><ele>477.0</ele><time>2026-04-29T14:23:13.186Z</time></trkpt><trkpt lat="40.03669150664298" lon="8.914751855788396"><ele>477.0</ele><time>2026-04-29T14:23:14.186Z</time></trkpt><trkpt lat="40.036658847959096" lon="8.914921298541799"><ele>477.0</ele><time>2026-04-29T14:23:15.186Z</time></trkpt><trkpt lat="40.03665381809268" lon="8.915100400686896"><ele>477.0</ele><time>2026-04-29T14:23:16.186Z</time></trkpt><trkpt lat="40.03666142526253" lon="8.915280718303512"><ele>478.25</ele><time>2026-04-29T14:23:17.186Z</time></trkpt><trkpt lat="40.03673810044819" lon="8.915439841131237"><ele>479.5</ele><time>2026-04-29T14:23:18.186Z</time></trkpt><trkpt lat="40.036832850814044" lon="8.915588934701718"><ele>480.75</ele><time>2026-04-29T14:23:19.186Z</time></trkpt><trkpt lat="40.03693841893176" lon="8.915741078644364"><ele>482.0</ele><time>2026-04-29T14:23:20.186Z</time></trkpt><trkpt lat="40.03702851407167" lon="8.915955658157321"><ele>485.3333333333333</ele><time>2026-04-29T14:23:21.186Z</time></trkpt><trkpt lat="40.037083078529335" lon="8.916190668307424"><ele>488.66666666666663</ele><time>2026-04-29T14:23:22.186Z</time></trkpt><trkpt lat="40.03716796088069" lon="8.916448656726182"><ele>492.0</ele><time>2026-04-29T14:23:23.186Z</time></trkpt><trkpt lat="40.03725870057429" lon="8.916717857132864"><ele>490.5</ele><time>2026-04-29T14:23:24.186Z</time></trkpt><trkpt lat="40.03739221397843" lon="8.917031540849107"><ele>489.0</ele><time>2026-04-29T14:23:25.186Z</time></trkpt><trkpt lat="40.037539193772545" lon="8.9173519147207"><ele>493.5</ele><time>2026-04-29T14:23:26.186Z</time></trkpt><trkpt lat="40.037711626835964" lon="8.917714342273873"><ele>498.0</ele><time>2026-04-29T14:23:27.186Z</time></trkpt><trkpt lat="40.03783530158089" lon="8.918004671185383"><ele>498.0</ele><time>2026-04-29T14:23:28.186Z</time></trkpt><trkpt lat="40.03793898049181" lon="8.918269015120748"><ele>498.0</ele><time>2026-04-29T14:23:29.186Z</time></trkpt><trkpt lat="40.0380313601474" lon="8.918525071527943"><ele>498.0</ele><time>2026-04-29T14:23:30.186Z</time></trkpt><trkpt lat="40.03810642861627" lon="8.918791663015986"><ele>500.66666666666663</ele><time>2026-04-29T14:23:31.186Z</time></trkpt><trkpt lat="40.03815341115673" lon="8.919078318563932"><ele>503.3333333333333</ele><time>2026-04-29T14:23:32.186Z</time></trkpt><trkpt lat="40.038179672932955" lon="8.919366025177219"><ele>506.0</ele><time>2026-04-29T14:23:33.186Z</time></trkpt><trkpt lat="40.03818459650871" lon="8.919640491589545"><ele>507.66666666666663</ele><time>2026-04-29T14:23:34.186Z</time></trkpt><trkpt lat="40.038154802423996" lon="8.919885451942578"><ele>509.33333333333337</ele><time>2026-04-29T14:23:35.186Z</time></trkpt><trkpt lat="40.038063283706556" lon="8.920099075955614"><ele>511.0</ele><time>2026-04-29T14:23:36.186Z</time></trkpt><trkpt lat="40.037964924539054" lon="8.920307806607198"><ele>511.33333333333337</ele><time>2026-04-29T14:23:37.186Z</time></trkpt><trkpt lat="40.03791385460475" lon="8.920553189041353"><ele>511.66666666666663</ele><time>2026-04-29T14:23:38.186Z</time></trkpt><trkpt lat="40.03792545571745" lon="8.920815515092514"><ele>512.0</ele><time>2026-04-29T14:23:39.186Z</time></trkpt><trkpt lat="40.037955470359975" lon="8.921082136545886"><ele>515.0</ele><time>2026-04-29T14:23:40.186Z</time></trkpt><trkpt lat="40.03797775636834" lon="8.921349571342825"><ele>518.0</ele><time>2026-04-29T14:23:41.186Z</time></trkpt><trkpt lat="40.0379857890209" lon="8.921621810420142"><ele>521.0</ele><time>2026-04-29T14:23:42.186Z</time></trkpt><trkpt lat="40.03798664784944" lon="8.921896073139278"><ele>522.3333333333333</ele><time>2026-04-29T14:23:43.186Z</time></trkpt><trkpt lat="40.03800566384539" lon="8.92216480966152"><ele>523.6666666666666</ele><time>2026-04-29T14:23:44.186Z</time></trkpt><trkpt lat="40.03805255858039" lon="8.92241595795178"><ele>525.0</ele><time>2026-04-29T14:23:45.186Z</time></trkpt><trkpt lat="40.038136620204895" lon="8.922660015632378"><ele>525.0</ele><time>2026-04-29T14:23:46.186Z</time></trkpt><trkpt lat="40.03824561018611" lon="8.922881512186475"><ele>525.0</ele><time>2026-04-29T14:23:47.186Z</time></trkpt><trkpt lat="40.03839055163981" lon="8.92305858077795"><ele>525.0</ele><time>2026-04-29T14:23:48.186Z</time></trkpt><trkpt lat="40.03855926210539" lon="8.92319582128525"><ele>521.0</ele><time>2026-04-29T14:23:49.186Z</time></trkpt><trkpt lat="40.038716496960234" lon="8.923326459760224"><ele>517.0</ele><time>2026-04-29T14:23:50.186Z</time></trkpt><trkpt lat="40.0388002743312" lon="8.92347856382712"><ele>513.0</ele><time>2026-04-29T14:23:51.186Z</time></trkpt><trkpt lat="40.03882076855968" lon="8.923668027370786"><ele>513.0</ele><time>2026-04-29T14:23:52.186Z</time></trkpt><trkpt lat="40.03878278525429" lon="8.923888960511487"><ele>513.0</ele><time>2026-04-29T14:23:53.186Z</time></trkpt><trkpt lat="40.038680236517614" lon="8.924087479972064"><ele>513.0</ele><time>2026-04-29T14:23:54.186Z</time></trkpt><trkpt lat="40.038518335988734" lon="8.92424039289257"><ele>511.0</ele><time>2026-04-29T14:23:55.186Z</time></trkpt><trkpt lat="40.03834023156745" lon="8.924365206961067"><ele>509.0</ele><time>2026-04-29T14:23:56.186Z</time></trkpt><trkpt lat="40.03818347757359" lon="8.924486383440737"><ele>507.0</ele><time>2026-04-29T14:23:57.186Z</time></trkpt><trkpt lat="40.03807126962044" lon="8.924622038082035"><ele>507.0</ele><time>2026-04-29T14:23:58.186Z</time></trkpt><trkpt lat="40.03802221140022" lon="8.924801227487459"><ele>507.0</ele><time>2026-04-29T14:23:59.186Z</time></trkpt><trkpt lat="40.03803952806114" lon="8.925022993178729"><ele>507.0</ele><time>2026-04-29T14:24:00.186Z</time></trkpt><trkpt lat="40.03811057030265" lon="8.925254409604994"><ele>507.0</ele><time>2026-04-29T14:24:01.186Z</time></trkpt><trkpt lat="40.038239290635964" lon="8.925482878546374"><ele>507.0</ele><time>2026-04-29T14:24:02.186Z</time></trkpt><trkpt lat="40.03841419968099" lon="8.925690918823834"><ele>518.5</ele><time>2026-04-29T14:24:03.186Z</time></trkpt><trkpt lat="40.03860044602495" lon="8.925898090608678"><ele>530.0</ele><time>2026-04-29T14:24:04.186Z</time></trkpt><trkpt lat="40.03878454053881" lon="8.926089674169695"><ele>530.0</ele><time>2026-04-29T14:24:05.186Z</time></trkpt><trkpt lat="40.03897423025734" lon="8.926295784562303"><ele>530.0</ele><time>2026-04-29T14:24:06.186Z</time></trkpt><trkpt lat="40.03915914490445" lon="8.926498669308781"><ele>534.0</ele><time>2026-04-29T14:24:07.186Z</time></trkpt><trkpt lat="40.039338009993" lon="8.926693616605965"><ele>538.0</ele><time>2026-04-29T14:24:08.186Z</time></trkpt><trkpt lat="40.0395135715148" lon="8.9268969908343"><ele>538.0</ele><time>2026-04-29T14:24:09.186Z</time></trkpt><trkpt lat="40.039695227226204" lon="8.92711807164311"><ele>538.0</ele><time>2026-04-29T14:24:10.186Z</time></trkpt><trkpt lat="40.03987355792255" lon="8.927301426100918"><ele>533.6666666666667</ele><time>2026-04-29T14:24:11.186Z</time></trkpt><trkpt lat="40.04007238399666" lon="8.92740684852121"><ele>529.3333333333334</ele><time>2026-04-29T14:24:12.186Z</time></trkpt><trkpt lat="40.04027895385394" lon="8.927474355841646"><ele>525.0</ele><time>2026-04-29T14:24:13.186Z</time></trkpt><trkpt lat="40.04047161838987" lon="8.927521295243848"><ele>525.0</ele><time>2026-04-29T14:24:14.187Z</time></trkpt><trkpt lat="40.04064933700761" lon="8.927660181377115"><ele>525.0</ele><time>2026-04-29T14:24:15.186Z</time></trkpt><trkpt lat="40.04078420873738" lon="8.92785771271999"><ele>525.0</ele><time>2026-04-29T14:24:16.186Z</time></trkpt><trkpt lat="40.04088754888737" lon="8.92809592622783"><ele>525.0</ele><time>2026-04-29T14:24:17.187Z</time></trkpt><trkpt lat="40.04095339864268" lon="8.928360075013059"><ele>525.0</ele><time>2026-04-29T14:24:18.186Z</time></trkpt><trkpt lat="40.041015848851465" lon="8.928624832245967"><ele>525.0</ele><time>2026-04-29T14:24:19.186Z</time></trkpt><trkpt lat="40.04111816458216" lon="8.928883265287684"><ele>528.3333333333334</ele><time>2026-04-29T14:24:20.186Z</time></trkpt><trkpt lat="40.04126572443122" lon="8.929101843454797"><ele>531.6666666666667</ele><time>2026-04-29T14:24:21.186Z</time></trkpt><trkpt lat="40.041428413080205" lon="8.929298884423785"><ele>535.0</ele><time>2026-04-29T14:24:22.186Z</time></trkpt><trkpt lat="40.041588660001906" lon="8.929490041680474"><ele>535.6666666666667</ele><time>2026-04-29T14:24:23.186Z</time></trkpt><trkpt lat="40.04173646887075" lon="8.929699283534735"><ele>536.3333333333334</ele><time>2026-04-29T14:24:24.187Z</time></trkpt><trkpt lat="40.04186561904364" lon="8.929926167466084"><ele>537.0</ele><time>2026-04-29T14:24:25.187Z</time></trkpt><trkpt lat="40.04198312842328" lon="8.930175568278152"><ele>541.3333333333334</ele><time>2026-04-29T14:24:26.186Z</time></trkpt><trkpt lat="40.042093597463946" lon="8.930431782745615"><ele>545.6666666666667</ele><time>2026-04-29T14:24:27.186Z</time></trkpt><trkpt lat="40.042208163111944" lon="8.930677423673023"><ele>550.0</ele><time>2026-04-29T14:24:28.186Z</time></trkpt><trkpt lat="40.042311379988824" lon="8.930922280376079"><ele>553.0</ele><time>2026-04-29T14:24:29.186Z</time></trkpt><trkpt lat="40.042367860180406" lon="8.931173569970145"><ele>556.0</ele><time>2026-04-29T14:24:30.186Z</time></trkpt><trkpt lat="40.04239501888101" lon="8.931424166493429"><ele>559.0</ele><time>2026-04-29T14:24:31.186Z</time></trkpt><trkpt lat="40.04245646917089" lon="8.931648622619878"><ele>554.3333333333334</ele><time>2026-04-29T14:24:32.186Z</time></trkpt><trkpt lat="40.04257776909754" lon="8.931851880967503"><ele>549.6666666666666</ele><time>2026-04-29T14:24:33.186Z</time></trkpt><trkpt lat="40.0427110222542" lon="8.932065856573312"><ele>545.0</ele><time>2026-04-29T14:24:34.186Z</time></trkpt><trkpt lat="40.04284618078667" lon="8.932284427827906"><ele>545.0</ele><time>2026-04-29T14:24:35.186Z</time></trkpt><trkpt lat="40.04298435662425" lon="8.932508710009579"><ele>545.0</ele><time>2026-04-29T14:24:36.186Z</time></trkpt><trkpt lat="40.0431241227614" lon="8.932734609568644"><ele>545.0</ele><time>2026-04-29T14:24:37.186Z</time></trkpt><trkpt lat="40.04326625255144" lon="8.932959464552496"><ele>546.0</ele><time>2026-04-29T14:24:38.186Z</time></trkpt><trkpt lat="40.04340519524212" lon="8.933178784837702"><ele>547.0</ele><time>2026-04-29T14:24:39.186Z</time></trkpt><trkpt lat="40.04353845020471" lon="8.933406227031815"><ele>548.0</ele><time>2026-04-29T14:24:40.186Z</time></trkpt><trkpt lat="40.043654175239254" lon="8.93364126611617"><ele>548.0</ele><time>2026-04-29T14:24:41.186Z</time></trkpt><trkpt lat="40.043751834738664" lon="8.933899218924244"><ele>548.0</ele><time>2026-04-29T14:24:42.186Z</time></trkpt><trkpt lat="40.043834530435674" lon="8.934170187562511"><ele>548.0</ele><time>2026-04-29T14:24:43.186Z</time></trkpt><trkpt lat="40.04390853616444" lon="8.934420246952701"><ele>549.3333333333333</ele><time>2026-04-29T14:24:44.186Z</time></trkpt><trkpt lat="40.043979546658605" lon="8.934656874541567"><ele>550.6666666666666</ele><time>2026-04-29T14:24:45.186Z</time></trkpt><trkpt lat="40.04407529938311" lon="8.934882067442235"><ele>552.0</ele><time>2026-04-29T14:24:46.186Z</time></trkpt><trkpt lat="40.04422581804768" lon="8.93506670790926"><ele>556.0</ele><time>2026-04-29T14:24:47.186Z</time></trkpt><trkpt lat="40.04440683495783" lon="8.935218488514433"><ele>560.0</ele><time>2026-04-29T14:24:48.186Z</time></trkpt><trkpt lat="40.04459836868747" lon="8.935354158590721"><ele>564.0</ele><time>2026-04-29T14:24:49.186Z</time></trkpt><trkpt lat="40.04478689403661" lon="8.935491103850998"><ele>563.0</ele><time>2026-04-29T14:24:50.186Z</time></trkpt><trkpt lat="40.04498043807111" lon="8.935638868429375"><ele>562.0</ele><time>2026-04-29T14:24:51.186Z</time></trkpt><trkpt lat="40.045184962035975" lon="8.935787409997058"><ele>571.0</ele><time>2026-04-29T14:24:52.186Z</time></trkpt><trkpt lat="40.04539254549421" lon="8.93591039629159"><ele>580.0</ele><time>2026-04-29T14:24:53.186Z</time></trkpt><trkpt lat="40.04560897762326" lon="8.93600596979046"><ele>578.0</ele><time>2026-04-29T14:24:54.186Z</time></trkpt><trkpt lat="40.04582925362894" lon="8.936071212194403"><ele>576.0</ele><time>2026-04-29T14:24:55.186Z</time></trkpt><trkpt lat="40.04605446063793" lon="8.93609603530665"><ele>576.0</ele><time>2026-04-29T14:24:56.186Z</time></trkpt><trkpt lat="40.04628745925854" lon="8.936077201781387"><ele>576.0</ele><time>2026-04-29T14:24:57.186Z</time></trkpt><trkpt lat="40.04651763747825" lon="8.936039160875643"><ele>578.5</ele><time>2026-04-29T14:24:58.186Z</time></trkpt><trkpt lat="40.04674988124016" lon="8.936001044510679"><ele>581.0</ele><time>2026-04-29T14:24:59.186Z</time></trkpt><trkpt lat="40.04698099198976" lon="8.935954342764441"><ele>572.5</ele><time>2026-04-29T14:25:00.186Z</time></trkpt><trkpt lat="40.04721083394119" lon="8.935885619945033"><ele>564.0</ele><time>2026-04-29T14:25:01.186Z</time></trkpt><trkpt lat="40.047439238796336" lon="8.935792941281585"><ele>567.0</ele><time>2026-04-29T14:25:02.186Z</time></trkpt><trkpt lat="40.047663100625215" lon="8.935697671507537"><ele>570.0</ele><time>2026-04-29T14:25:03.186Z</time></trkpt><trkpt lat="40.047884758551355" lon="8.935617321350518"><ele>570.0</ele><time>2026-04-29T14:25:04.186Z</time></trkpt><trkpt lat="40.04810538405146" lon="8.935574493654471"><ele>570.0</ele><time>2026-04-29T14:25:05.186Z</time></trkpt><trkpt lat="40.04832532467478" lon="8.935578306208917"><ele>570.0</ele><time>2026-04-29T14:25:06.186Z</time></trkpt><trkpt lat="40.048540035513994" lon="8.935621987892878"><ele>571.0</ele><time>2026-04-29T14:25:07.186Z</time></trkpt><trkpt lat="40.04875916510386" lon="8.935709741344093"><ele>572.0</ele><time>2026-04-29T14:25:08.186Z</time></trkpt><trkpt lat="40.048977751549906" lon="8.935811211638228"><ele>576.5</ele><time>2026-04-29T14:25:09.186Z</time></trkpt><trkpt lat="40.04919759527776" lon="8.935910746222618"><ele>581.0</ele><time>2026-04-29T14:25:10.186Z</time></trkpt><trkpt lat="40.04941626327083" lon="8.936008376000887"><ele>581.0</ele><time>2026-04-29T14:25:11.186Z</time></trkpt><trkpt lat="40.04962462263368" lon="8.936122454836138"><ele>581.0</ele><time>2026-04-29T14:25:12.186Z</time></trkpt><trkpt lat="40.04981394071676" lon="8.936238543397764"><ele>581.0</ele><time>2026-04-29T14:25:13.186Z</time></trkpt><trkpt lat="40.04996210531025" lon="8.936388772157704"><ele>579.6666666666666</ele><time>2026-04-29T14:25:14.186Z</time></trkpt><trkpt lat="40.05006983335212" lon="8.936588589646366"><ele>578.3333333333334</ele><time>2026-04-29T14:25:15.186Z</time></trkpt><trkpt lat="40.05012568895217" lon="8.93685220677644"><ele>577.0</ele><time>2026-04-29T14:25:16.186Z</time></trkpt><trkpt lat="40.0501770029447" lon="8.93713248977536"><ele>577.0</ele><time>2026-04-29T14:25:17.186Z</time></trkpt><trkpt lat="40.0502226123219" lon="8.937422273806812"><ele>577.0</ele><time>2026-04-29T14:25:18.186Z</time></trkpt><trkpt lat="40.05026595463207" lon="8.937724438407066"><ele>576.6666666666667</ele><time>2026-04-29T14:25:19.186Z</time></trkpt><trkpt lat="40.050306536612354" lon="8.938020494925372"><ele>576.3333333333334</ele><time>2026-04-29T14:25:20.186Z</time></trkpt><trkpt lat="40.05034184789898" lon="8.93829499037977"><ele>576.0</ele><time>2026-04-29T14:25:21.186Z</time></trkpt><trkpt lat="40.050365341268105" lon="8.938530787219282"><ele>576.0</ele><time>2026-04-29T14:25:22.186Z</time></trkpt><trkpt lat="40.05035309645495" lon="8.938729982085885"><ele>576.0</ele><time>2026-04-29T14:25:23.186Z</time></trkpt><trkpt lat="40.05026154848461" lon="8.938926617428134"><ele>576.0</ele><time>2026-04-29T14:25:24.186Z</time></trkpt><trkpt lat="40.05012927423497" lon="8.939107299952589"><ele>575.3333333333334</ele><time>2026-04-29T14:25:25.186Z</time></trkpt><trkpt lat="40.04999878475744" lon="8.939307595924905"><ele>574.6666666666667</ele><time>2026-04-29T14:25:26.186Z</time></trkpt><trkpt lat="40.04991335045418" lon="8.939519486154664"><ele>574.0</ele><time>2026-04-29T14:25:27.186Z</time></trkpt><trkpt lat="40.04988740968804" lon="8.939751549582175"><ele>577.6666666666667</ele><time>2026-04-29T14:25:28.186Z</time></trkpt><trkpt lat="40.049918697666214" lon="8.939998649691823"><ele>581.3333333333334</ele><time>2026-04-29T14:25:29.186Z</time></trkpt><trkpt lat="40.050019121853225" lon="8.94021323956768"><ele>585.0</ele><time>2026-04-29T14:25:30.186Z</time></trkpt><trkpt lat="40.05017408052923" lon="8.940353452350411"><ele>585.0</ele><time>2026-04-29T14:25:31.186Z</time></trkpt><trkpt lat="40.050371229529354" lon="8.940429505449371"><ele>585.0</ele><time>2026-04-29T14:25:32.186Z</time></trkpt><trkpt lat="40.0505695600354" lon="8.940514798670963"><ele>585.0</ele><time>2026-04-29T14:25:33.186Z</time></trkpt><trkpt lat="40.050730612528916" lon="8.940688520024821"><ele>585.6666666666666</ele><time>2026-04-29T14:25:34.186Z</time></trkpt><trkpt lat="40.050891143049554" lon="8.940874685323777"><ele>586.3333333333333</ele><time>2026-04-29T14:25:35.186Z</time></trkpt><trkpt lat="40.051072405689084" lon="8.941022383985631"><ele>587.0</ele><time>2026-04-29T14:25:36.186Z</time></trkpt><trkpt lat="40.05127313334501" lon="8.94112761444935"><ele>587.0</ele><time>2026-04-29T14:25:37.186Z</time></trkpt><trkpt lat="40.05148881743594" lon="8.941202681017447"><ele>587.0</ele><time>2026-04-29T14:25:38.186Z</time></trkpt><trkpt lat="40.05171337684309" lon="8.941273647561848"><ele>585.5</ele><time>2026-04-29T14:25:39.186Z</time></trkpt><trkpt lat="40.05193775921055" lon="8.94134995959112"><ele>584.0</ele><time>2026-04-29T14:25:40.186Z</time></trkpt><trkpt lat="40.05216256258657" lon="8.94142497132352"><ele>584.0</ele><time>2026-04-29T14:25:41.186Z</time></trkpt><trkpt lat="40.05238291250849" lon="8.941497414575158"><ele>584.0</ele><time>2026-04-29T14:25:42.186Z</time></trkpt><trkpt lat="40.05258422701283" lon="8.94157173318458"><ele>584.0</ele><time>2026-04-29T14:25:43.186Z</time></trkpt><trkpt lat="40.05274005422581" lon="8.941632639891715"><ele>586.6666666666666</ele><time>2026-04-29T14:25:44.186Z</time></trkpt><trkpt lat="40.0528499848256" lon="8.941759742065067"><ele>589.3333333333334</ele><time>2026-04-29T14:25:45.186Z</time></trkpt><trkpt lat="40.05291180766923" lon="8.941951066954374"><ele>592.0</ele><time>2026-04-29T14:25:46.186Z</time></trkpt><trkpt lat="40.05291311292551" lon="8.942197771089553"><ele>592.0</ele><time>2026-04-29T14:25:47.186Z</time></trkpt><trkpt lat="40.05290469051732" lon="8.942461947030598"><ele>592.0</ele><time>2026-04-29T14:25:48.186Z</time></trkpt><trkpt lat="40.05290526191147" lon="8.94272866990817"><ele>592.0</ele><time>2026-04-29T14:25:49.186Z</time></trkpt><trkpt lat="40.05291141726108" lon="8.94300560482676"><ele>590.6666666666667</ele><time>2026-04-29T14:25:50.186Z</time></trkpt><trkpt lat="40.05291019248218" lon="8.943279355941923"><ele>589.3333333333334</ele><time>2026-04-29T14:25:51.186Z</time></trkpt><trkpt lat="40.05291030797525" lon="8.94354923129337"><ele>588.0</ele><time>2026-04-29T14:25:52.186Z</time></trkpt><trkpt lat="40.05287357364522" lon="8.943809351643944"><ele>587.6666666666666</ele><time>2026-04-29T14:25:53.186Z</time></trkpt><trkpt lat="40.052778440216514" lon="8.944054945481273"><ele>587.3333333333333</ele><time>2026-04-29T14:25:54.186Z</time></trkpt><trkpt lat="40.05265882723612" lon="8.944270471663025"><ele>587.0</ele><time>2026-04-29T14:25:55.186Z</time></trkpt><trkpt lat="40.05252169047017" lon="8.944470897239565"><ele>579.6666666666666</ele><time>2026-04-29T14:25:56.186Z</time></trkpt><trkpt lat="40.05238268438426" lon="8.944646830005706"><ele>572.3333333333334</ele><time>2026-04-29T14:25:57.186Z</time></trkpt><trkpt lat="40.05227368110278" lon="8.944831121923258"><ele>565.0</ele><time>2026-04-29T14:25:58.186Z</time></trkpt><trkpt lat="40.05222300887437" lon="8.945059475114933"><ele>565.0</ele><time>2026-04-29T14:25:59.186Z</time></trkpt><trkpt lat="40.05223203981394" lon="8.94530762155615"><ele>565.0</ele><time>2026-04-29T14:26:00.186Z</time></trkpt><trkpt lat="40.05226445880669" lon="8.945554885674877"><ele>565.0</ele><time>2026-04-29T14:26:01.186Z</time></trkpt><trkpt lat="40.05225976261838" lon="8.945786280815279"><ele>569.3333333333334</ele><time>2026-04-29T14:26:02.186Z</time></trkpt><trkpt lat="40.05216909860145" lon="8.945988488445034"><ele>573.6666666666666</ele><time>2026-04-29T14:26:03.186Z</time></trkpt><trkpt lat="40.05201861461651" lon="8.946153261290956"><ele>578.0</ele><time>2026-04-29T14:26:04.186Z</time></trkpt><trkpt lat="40.05184289803535" lon="8.94631651388173"><ele>578.0</ele><time>2026-04-29T14:26:05.186Z</time></trkpt><trkpt lat="40.051669370748904" lon="8.946495414886513"><ele>578.0</ele><time>2026-04-29T14:26:06.186Z</time></trkpt><trkpt lat="40.051524080484015" lon="8.946701716106793"><ele>578.0</ele><time>2026-04-29T14:26:07.186Z</time></trkpt><trkpt lat="40.0513860598222" lon="8.946941010057058"><ele>571.5</ele><time>2026-04-29T14:26:08.186Z</time></trkpt><trkpt lat="40.05127603132069" lon="8.947196464979505"><ele>565.0</ele><time>2026-04-29T14:26:09.186Z</time></trkpt><trkpt lat="40.05119605573234" lon="8.94747245164162"><ele>566.6666666666667</ele><time>2026-04-29T14:26:10.186Z</time></trkpt><trkpt lat="40.05113287609803" lon="8.947743980801429"><ele>568.3333333333334</ele><time>2026-04-29T14:26:11.186Z</time></trkpt><trkpt lat="40.051081333835256" lon="8.947998383645785"><ele>570.0</ele><time>2026-04-29T14:26:12.186Z</time></trkpt><trkpt lat="40.05099563577871" lon="8.948221680448945"><ele>571.0</ele><time>2026-04-29T14:26:13.186Z</time></trkpt><trkpt lat="40.05086239510151" lon="8.948402067062933"><ele>572.0</ele><time>2026-04-29T14:26:14.186Z</time></trkpt><trkpt lat="40.05068596482418" lon="8.948524969273604"><ele>573.0</ele><time>2026-04-29T14:26:15.186Z</time></trkpt><trkpt lat="40.050493311067534" lon="8.948640162913179"><ele>573.0</ele><time>2026-04-29T14:26:16.186Z</time></trkpt><trkpt lat="40.05029498125714" lon="8.948756314471863"><ele>573.0</ele><time>2026-04-29T14:26:17.186Z</time></trkpt><trkpt lat="40.0501137907045" lon="8.948862482916743"><ele>573.0</ele><time>2026-04-29T14:26:18.186Z</time></trkpt><trkpt lat="40.049931233181724" lon="8.948903719801876"><ele>569.6666666666666</ele><time>2026-04-29T14:26:19.186Z</time></trkpt><trkpt lat="40.04973828001765" lon="8.948863089143122"><ele>566.3333333333333</ele><time>2026-04-29T14:26:20.187Z</time></trkpt><trkpt lat="40.04955261370221" lon="8.948785383184669"><ele>563.0</ele><time>2026-04-29T14:26:21.187Z</time></trkpt><trkpt lat="40.04935725502546" lon="8.94878039614772"><ele>563.0</ele><time>2026-04-29T14:26:22.187Z</time></trkpt><trkpt lat="40.04918284890554" lon="8.948843223449991"><ele>563.0</ele><time>2026-04-29T14:26:23.187Z</time></trkpt><trkpt lat="40.04904888928228" lon="8.948965009219911"><ele>563.0</ele><time>2026-04-29T14:26:24.187Z</time></trkpt><trkpt lat="40.0489899219303" lon="8.949160462039746"><ele>558.0</ele><time>2026-04-29T14:26:25.187Z</time></trkpt><trkpt lat="40.048976345683116" lon="8.949393964298677"><ele>553.0</ele><time>2026-04-29T14:26:26.187Z</time></trkpt><trkpt lat="40.048959931037935" lon="8.94964136029811"><ele>548.0</ele><time>2026-04-29T14:26:27.187Z</time></trkpt><trkpt lat="40.048878773877874" lon="8.949861519674723"><ele>548.0</ele><time>2026-04-29T14:26:28.187Z</time></trkpt><trkpt lat="40.04873317720621" lon="8.95001115318845"><ele>548.0</ele><time>2026-04-29T14:26:29.186Z</time></trkpt><trkpt lat="40.04858965877059" lon="8.950145822203712"><ele>548.0</ele><time>2026-04-29T14:26:30.187Z</time></trkpt><trkpt lat="40.04850600597337" lon="8.950336029761628"><ele>548.6666666666666</ele><time>2026-04-29T14:26:31.187Z</time></trkpt><trkpt lat="40.04848081810472" lon="8.950562781508891"><ele>549.3333333333334</ele><time>2026-04-29T14:26:32.187Z</time></trkpt><trkpt lat="40.04847394083352" lon="8.950777976307755"><ele>550.0</ele><time>2026-04-29T14:26:33.187Z</time></trkpt><trkpt lat="40.0484059715042" lon="8.950961958097682"><ele>549.3333333333334</ele><time>2026-04-29T14:26:34.187Z</time></trkpt><trkpt lat="40.0482469814639" lon="8.951054605398461"><ele>548.6666666666666</ele><time>2026-04-29T14:26:35.187Z</time></trkpt><trkpt lat="40.048064441064696" lon="8.951106518408142"><ele>548.0</ele><time>2026-04-29T14:26:36.187Z</time></trkpt><trkpt lat="40.04788166021416" lon="8.951184222879345"><ele>548.0</ele><time>2026-04-29T14:26:37.187Z</time></trkpt><trkpt lat="40.04767998449343" lon="8.95129545708037"><ele>548.0</ele><time>2026-04-29T14:26:38.187Z</time></trkpt><trkpt lat="40.0474880494803" lon="8.95138638679284"><ele>548.0</ele><time>2026-04-29T14:26:39.187Z</time></trkpt><trkpt lat="40.04730533326074" lon="8.951424541151132"><ele>543.6666666666666</ele><time>2026-04-29T14:26:40.187Z</time></trkpt><trkpt lat="40.0471642479943" lon="8.951522547848548"><ele>539.3333333333334</ele><time>2026-04-29T14:26:41.187Z</time></trkpt><trkpt lat="40.04706206060904" lon="8.951676737256916"><ele>535.0</ele><time>2026-04-29T14:26:42.187Z</time></trkpt><trkpt lat="40.04701743944571" lon="8.951891278498415"><ele>535.0</ele><time>2026-04-29T14:26:43.187Z</time></trkpt><trkpt lat="40.04702888610961" lon="8.952152961079008"><ele>535.0</ele><time>2026-04-29T14:26:44.187Z</time></trkpt><trkpt lat="40.04704557612694" lon="8.952433603795756"><ele>535.0</ele><time>2026-04-29T14:26:45.187Z</time></trkpt><trkpt lat="40.047042808006516" lon="8.95269480799884"><ele>536.3333333333334</ele><time>2026-04-29T14:26:46.187Z</time></trkpt><trkpt lat="40.047016057167355" lon="8.952934229069541"><ele>537.6666666666666</ele><time>2026-04-29T14:26:47.187Z</time></trkpt><trkpt lat="40.04693520844703" lon="8.953136282731586"><ele>539.0</ele><time>2026-04-29T14:26:48.187Z</time></trkpt><trkpt lat="40.04678987631491" lon="8.953294286271893"><ele>536.6666666666666</ele><time>2026-04-29T14:26:49.187Z</time></trkpt><trkpt lat="40.04661691591167" lon="8.953417234874452"><ele>534.3333333333334</ele><time>2026-04-29T14:26:50.187Z</time></trkpt><trkpt lat="40.04643915116371" lon="8.953471245838557"><ele>532.0</ele><time>2026-04-29T14:26:51.187Z</time></trkpt><trkpt lat="40.04628563044279" lon="8.953519032662062"><ele>532.0</ele><time>2026-04-29T14:26:52.187Z</time></trkpt><trkpt lat="40.046187056006936" lon="8.953664165790073"><ele>532.0</ele><time>2026-04-29T14:26:53.187Z</time></trkpt><trkpt lat="40.04614587904495" lon="8.953875512597165"><ele>532.0</ele><time>2026-04-29T14:26:54.187Z</time></trkpt><trkpt lat="40.046185147200354" lon="8.95409053081603"><ele>530.0</ele><time>2026-04-29T14:26:55.187Z</time></trkpt><trkpt lat="40.0462883689766" lon="8.954284337782223"><ele>528.0</ele><time>2026-04-29T14:26:56.187Z</time></trkpt><trkpt lat="40.04643077899001" lon="8.954465245660232"><ele>526.0</ele><time>2026-04-29T14:26:57.187Z</time></trkpt><trkpt lat="40.04655783607496" lon="8.954666236247135"><ele>524.3333333333334</ele><time>2026-04-29T14:26:58.187Z</time></trkpt><trkpt lat="40.04664331017229" lon="8.954910896416228"><ele>522.6666666666666</ele><time>2026-04-29T14:26:59.187Z</time></trkpt><trkpt lat="40.046683283808726" lon="8.955173374638688"><ele>521.0</ele><time>2026-04-29T14:27:00.187Z</time></trkpt><trkpt lat="40.04668893618321" lon="8.955423991428736"><ele>521.0</ele><time>2026-04-29T14:27:01.187Z</time></trkpt><trkpt lat="40.04669143668526" lon="8.95564440624827"><ele>521.0</ele><time>2026-04-29T14:27:02.187Z</time></trkpt><trkpt lat="40.0467643136161" lon="8.955804257345354"><ele>521.0</ele><time>2026-04-29T14:27:03.187Z</time></trkpt><trkpt lat="40.04689938583314" lon="8.955876411553449"><ele>519.0</ele><time>2026-04-29T14:27:04.187Z</time></trkpt><trkpt lat="40.04708039696348" lon="8.955894869036525"><ele>517.0</ele><time>2026-04-29T14:27:05.187Z</time></trkpt><trkpt lat="40.0472449420157" lon="8.955918480803252"><ele>515.0</ele><time>2026-04-29T14:27:06.187Z</time></trkpt><trkpt lat="40.04735344312559" lon="8.956015776395136"><ele>515.0</ele><time>2026-04-29T14:27:07.187Z</time></trkpt><trkpt lat="40.04740601449839" lon="8.956170150780581"><ele>515.0</ele><time>2026-04-29T14:27:08.187Z</time></trkpt><trkpt lat="40.047358431293226" lon="8.956364082311858"><ele>515.0</ele><time>2026-04-29T14:27:09.187Z</time></trkpt><trkpt lat="40.0472584168135" lon="8.956576684459332"><ele>516.0</ele><time>2026-04-29T14:27:10.187Z</time></trkpt><trkpt lat="40.04716031769195" lon="8.956788139100418"><ele>517.0</ele><time>2026-04-29T14:27:11.187Z</time></trkpt><trkpt lat="40.04706379738597" lon="8.956978479250258"><ele>518.0</ele><time>2026-04-29T14:27:12.187Z</time></trkpt><trkpt lat="40.046971358306685" lon="8.957167409732172"><ele>518.0</ele><time>2026-04-29T14:27:13.187Z</time></trkpt><trkpt lat="40.0468897911035" lon="8.957341767527952"><ele>518.0</ele><time>2026-04-29T14:27:14.187Z</time></trkpt><trkpt lat="40.04680701732921" lon="8.957509695226793"><ele>518.0</ele><time>2026-04-29T14:27:15.187Z</time></trkpt><trkpt lat="40.0467212258643" lon="8.957671576652164"><ele>518.6666666666666</ele><time>2026-04-29T14:27:16.187Z</time></trkpt><trkpt lat="40.04663826736683" lon="8.957838017174632"><ele>519.3333333333334</ele><time>2026-04-29T14:27:17.187Z</time></trkpt><trkpt lat="40.04655936584337" lon="8.958027105653338"><ele>520.0</ele><time>2026-04-29T14:27:18.187Z</time></trkpt><trkpt lat="40.0465254243803" lon="8.958246845405364"><ele>515.3333333333334</ele><time>2026-04-29T14:27:19.187Z</time></trkpt><trkpt lat="40.04654300985219" lon="8.958483351891882"><ele>510.66666666666663</ele><time>2026-04-29T14:27:20.187Z</time></trkpt><trkpt lat="40.0465771032908" lon="8.958721746677895"><ele>506.0</ele><time>2026-04-29T14:27:21.187Z</time></trkpt><trkpt lat="40.04661401950956" lon="8.95897187207055"><ele>509.66666666666663</ele><time>2026-04-29T14:27:22.187Z</time></trkpt><trkpt lat="40.04664051035257" lon="8.959235687418262"><ele>513.3333333333334</ele><time>2026-04-29T14:27:23.187Z</time></trkpt><trkpt lat="40.04666334947157" lon="8.959499646408835"><ele>517.0</ele><time>2026-04-29T14:27:24.187Z</time></trkpt><trkpt lat="40.046686921584936" lon="8.9597600630535"><ele>517.0</ele><time>2026-04-29T14:27:25.187Z</time></trkpt><trkpt lat="40.04670728099671" lon="8.96002509438794"><ele>517.0</ele><time>2026-04-29T14:27:26.187Z</time></trkpt><trkpt lat="40.046736414879724" lon="8.96028839353107"><ele>517.0</ele><time>2026-04-29T14:27:27.187Z</time></trkpt><trkpt lat="40.046786777117426" lon="8.960540136209488"><ele>515.3333333333334</ele><time>2026-04-29T14:27:28.187Z</time></trkpt><trkpt lat="40.046858984806896" lon="8.960785633259036"><ele>513.6666666666666</ele><time>2026-04-29T14:27:29.187Z</time></trkpt><trkpt lat="40.0469390195451" lon="8.96102438031884"><ele>512.0</ele><time>2026-04-29T14:27:30.187Z</time></trkpt><trkpt lat="40.04700840033631" lon="8.961257343611916"><ele>511.66666666666663</ele><time>2026-04-29T14:27:31.187Z</time></trkpt><trkpt lat="40.04708015562119" lon="8.961506372727623"><ele>511.33333333333337</ele><time>2026-04-29T14:27:32.187Z</time></trkpt><trkpt lat="40.04712176641792" lon="8.96174814556448"><ele>511.0</ele><time>2026-04-29T14:27:33.187Z</time></trkpt><trkpt lat="40.04710267483377" lon="8.962003623861118"><ele>511.0</ele><time>2026-04-29T14:27:34.187Z</time></trkpt><trkpt lat="40.04704811188659" lon="8.962251541356627"><ele>511.0</ele><time>2026-04-29T14:27:35.187Z</time></trkpt><trkpt lat="40.04693814353191" lon="8.962471096580336"><ele>511.0</ele><time>2026-04-29T14:27:36.187Z</time></trkpt><trkpt lat="40.04679598736931" lon="8.962643892202106"><ele>511.0</ele><time>2026-04-29T14:27:37.187Z</time></trkpt><trkpt lat="40.04662824508482" lon="8.962778135355691"><ele>511.0</ele><time>2026-04-29T14:27:38.187Z</time></trkpt><trkpt lat="40.04645994372826" lon="8.962881173542549"><ele>511.0</ele><time>2026-04-29T14:27:39.187Z</time></trkpt><trkpt lat="40.04632250569001" lon="8.962997020783197"><ele>511.0</ele><time>2026-04-29T14:27:40.187Z</time></trkpt><trkpt lat="40.046238230962615" lon="8.963179071397573"><ele>511.0</ele><time>2026-04-29T14:27:41.187Z</time></trkpt><trkpt lat="40.04617779413797" lon="8.963408390912662"><ele>511.0</ele><time>2026-04-29T14:27:42.187Z</time></trkpt><trkpt lat="40.046119870228445" lon="8.963667949553534"><ele>510.6666666666667</ele><time>2026-04-29T14:27:43.187Z</time></trkpt><trkpt lat="40.04605237707296" lon="8.963916037273716"><ele>510.33333333333337</ele><time>2026-04-29T14:27:44.187Z</time></trkpt><trkpt lat="40.045949538276325" lon="8.96413525104808"><ele>510.0</ele><time>2026-04-29T14:27:45.187Z</time></trkpt><trkpt lat="40.04581250113239" lon="8.964309032918006"><ele>509.33333333333337</ele><time>2026-04-29T14:27:46.187Z</time></trkpt><trkpt lat="40.045646966459486" lon="8.96441725611926"><ele>508.6666666666667</ele><time>2026-04-29T14:27:47.187Z</time></trkpt><trkpt lat="40.04545585984816" lon="8.964450246303977"><ele>508.0</ele><time>2026-04-29T14:27:48.187Z</time></trkpt><trkpt lat="40.04525718166268" lon="8.964507244960123"><ele>508.0</ele><time>2026-04-29T14:27:49.187Z</time></trkpt><trkpt lat="40.04506742787403" lon="8.964615159869048"><ele>508.0</ele><time>2026-04-29T14:27:50.187Z</time></trkpt><trkpt lat="40.04488281821142" lon="8.964728647447675"><ele>508.0</ele><time>2026-04-29T14:27:51.187Z</time></trkpt><trkpt lat="40.044707954874816" lon="8.964836507933276"><ele>502.6666666666667</ele><time>2026-04-29T14:27:52.187Z</time></trkpt><trkpt lat="40.044551624474295" lon="8.964931964867668"><ele>497.33333333333337</ele><time>2026-04-29T14:27:53.187Z</time></trkpt><trkpt lat="40.04445495856095" lon="8.965089659700963"><ele>492.0</ele><time>2026-04-29T14:27:54.187Z</time></trkpt><trkpt lat="40.044413290823364" lon="8.965269460484572"><ele>491.33333333333337</ele><time>2026-04-29T14:27:55.187Z</time></trkpt><trkpt lat="40.04445823632498" lon="8.96543026632204"><ele>490.6666666666667</ele><time>2026-04-29T14:27:56.187Z</time></trkpt><trkpt lat="40.044591720333116" lon="8.965549903368863"><ele>490.0</ele><time>2026-04-29T14:27:57.187Z</time></trkpt><trkpt lat="40.04476161731957" lon="8.965667990171942"><ele>490.0</ele><time>2026-04-29T14:27:58.187Z</time></trkpt><trkpt lat="40.044915417094685" lon="8.965794333480023"><ele>490.0</ele><time>2026-04-29T14:27:59.187Z</time></trkpt><trkpt lat="40.04501242198028" lon="8.96596766551224"><ele>490.0</ele><time>2026-04-29T14:28:00.187Z</time></trkpt><trkpt lat="40.04506888862015" lon="8.966198160917685"><ele>492.0</ele><time>2026-04-29T14:28:01.187Z</time></trkpt><trkpt lat="40.04512538768989" lon="8.966446332683534"><ele>494.0</ele><time>2026-04-29T14:28:02.187Z</time></trkpt><trkpt lat="40.04521078248593" lon="8.966683000381723"><ele>496.0</ele><time>2026-04-29T14:28:03.187Z</time></trkpt><trkpt lat="40.04528267789045" lon="8.966900329615546"><ele>497.0</ele><time>2026-04-29T14:28:04.187Z</time></trkpt><trkpt lat="40.04532763086862" lon="8.967099796805543"><ele>498.0</ele><time>2026-04-29T14:28:05.187Z</time></trkpt><trkpt lat="40.0453112356682" lon="8.967270936195147"><ele>499.0</ele><time>2026-04-29T14:28:06.187Z</time></trkpt><trkpt lat="40.04522350305485" lon="8.967405566441519"><ele>500.0</ele><time>2026-04-29T14:28:07.187Z</time></trkpt><trkpt lat="40.045092933758994" lon="8.96746699315083"><ele>508.0</ele><time>2026-04-29T14:28:08.187Z</time></trkpt><trkpt lat="40.04496210402901" lon="8.967403736833301"><ele>516.0</ele><time>2026-04-29T14:28:09.187Z</time></trkpt><trkpt lat="40.04484922337593" lon="8.967249336209127"><ele>524.0</ele><time>2026-04-29T14:28:10.187Z</time></trkpt><trkpt lat="40.0447469685033" lon="8.967062060761004"><ele>524.0</ele><time>2026-04-29T14:28:11.187Z</time></trkpt><trkpt lat="40.044634137721104" lon="8.966858350731023"><ele>524.0</ele><time>2026-04-29T14:28:12.187Z</time></trkpt><trkpt lat="40.044498202576186" lon="8.966681617395736"><ele>524.0</ele><time>2026-04-29T14:28:13.187Z</time></trkpt><trkpt lat="40.044346811965625" lon="8.966527641583404"><ele>518.3333333333333</ele><time>2026-04-29T14:28:14.187Z</time></trkpt><trkpt lat="40.044166268788246" lon="8.966409200973256"><ele>512.6666666666666</ele><time>2026-04-29T14:28:15.186Z</time></trkpt><trkpt lat="40.04395331896732" lon="8.9663873202729"><ele>507.0</ele><time>2026-04-29T14:28:16.186Z</time></trkpt><trkpt lat="40.04375026267354" lon="8.966405744495617"><ele>507.0</ele><time>2026-04-29T14:28:17.186Z</time></trkpt><trkpt lat="40.043541822791774" lon="8.96646286244667"><ele>507.0</ele><time>2026-04-29T14:28:18.186Z</time></trkpt><trkpt lat="40.043308875234914" lon="8.966520191779043"><ele>509.0</ele><time>2026-04-29T14:28:19.186Z</time></trkpt><trkpt lat="40.043100963406424" lon="8.96658586132452"><ele>511.0</ele><time>2026-04-29T14:28:20.186Z</time></trkpt><trkpt lat="40.042921861384585" lon="8.966684161112305"><ele>513.0</ele><time>2026-04-29T14:28:21.186Z</time></trkpt><trkpt lat="40.04276838568604" lon="8.966820132160795"><ele>513.0</ele><time>2026-04-29T14:28:22.186Z</time></trkpt><trkpt lat="40.042664026899125" lon="8.96699656781036"><ele>513.0</ele><time>2026-04-29T14:28:23.186Z</time></trkpt><trkpt lat="40.04262377403032" lon="8.967195073567062"><ele>513.0</ele><time>2026-04-29T14:28:24.186Z</time></trkpt><trkpt lat="40.042634050589754" lon="8.967411820530494"><ele>516.0</ele><time>2026-04-29T14:28:25.186Z</time></trkpt><trkpt lat="40.04264881821438" lon="8.967598512017979"><ele>519.0</ele><time>2026-04-29T14:28:26.187Z</time></trkpt><trkpt lat="40.04259605532819" lon="8.967740352291083"><ele>522.0</ele><time>2026-04-29T14:28:27.188Z</time></trkpt><trkpt lat="40.042466285183586" lon="8.967801943113722"><ele>525.0</ele><time>2026-04-29T14:28:28.188Z</time></trkpt><trkpt lat="40.042302260200834" lon="8.967777219820782"><ele>525.0</ele><time>2026-04-29T14:28:29.188Z</time></trkpt><trkpt lat="40.04211693200702" lon="8.967752354538174"><ele>525.0</ele><time>2026-04-29T14:28:30.188Z</time></trkpt><trkpt lat="40.041909914728" lon="8.967763836892313"><ele>525.0</ele><time>2026-04-29T14:28:31.188Z</time></trkpt><trkpt lat="40.04171088590796" lon="8.96780684819322"><ele>520.3333333333334</ele><time>2026-04-29T14:28:32.188Z</time></trkpt><trkpt lat="40.041526520460486" lon="8.967839647081957"><ele>515.6666666666667</ele><time>2026-04-29T14:28:33.188Z</time></trkpt><trkpt lat="40.04138889724314" lon="8.967913880092041"><ele>511.0</ele><time>2026-04-29T14:28:34.188Z</time></trkpt><trkpt lat="40.04129937890319" lon="8.968064612977827"><ele>511.0</ele><time>2026-04-29T14:28:35.188Z</time></trkpt><trkpt lat="40.041282513646436" lon="8.968269529393401"><ele>511.0</ele><time>2026-04-29T14:28:36.188Z</time></trkpt><trkpt lat="40.04132226131477" lon="8.96848489329597"><ele>511.0</ele><time>2026-04-29T14:28:37.188Z</time></trkpt><trkpt lat="40.04135455102016" lon="8.968678401255897"><ele>515.25</ele><time>2026-04-29T14:28:38.188Z</time></trkpt><trkpt lat="40.0413114843567" lon="8.968818609285023"><ele>519.5</ele><time>2026-04-29T14:28:39.188Z</time></trkpt><trkpt lat="40.04118743423102" lon="8.96888909117897"><ele>523.75</ele><time>2026-04-29T14:28:40.188Z</time></trkpt><trkpt lat="40.041020173535806" lon="8.968891623482511"><ele>528.0</ele><time>2026-04-29T14:28:41.188Z</time></trkpt><trkpt lat="40.04085255167977" lon="8.968889688600525"><ele>522.3333333333334</ele><time>2026-04-29T14:28:42.188Z</time></trkpt><trkpt lat="40.04066295779607" lon="8.968921982828148"><ele>516.6666666666667</ele><time>2026-04-29T14:28:43.188Z</time></trkpt><trkpt lat="40.0405058006358" lon="8.968998900151908"><ele>511.0</ele><time>2026-04-29T14:28:44.188Z</time></trkpt><trkpt lat="40.04042104448206" lon="8.969153986307624"><ele>513.6666666666667</ele><time>2026-04-29T14:28:45.188Z</time></trkpt><trkpt lat="40.04039890568288" lon="8.969374968784674"><ele>516.3333333333334</ele><time>2026-04-29T14:28:46.188Z</time></trkpt><trkpt lat="40.04042158471874" lon="8.969643484735272"><ele>519.0</ele><time>2026-04-29T14:28:47.188Z</time></trkpt><trkpt lat="40.040424728154505" lon="8.969935401613018"><ele>523.3333333333334</ele><time>2026-04-29T14:28:48.188Z</time></trkpt><trkpt lat="40.04043168818452" lon="8.97019377537877"><ele>527.6666666666667</ele><time>2026-04-29T14:28:49.188Z</time></trkpt><trkpt lat="40.04048656066809" lon="8.970424626960932"><ele>532.0</ele><time>2026-04-29T14:28:50.188Z</time></trkpt><trkpt lat="40.04055311250004" lon="8.970644590482518"><ele>532.0</ele><time>2026-04-29T14:28:51.188Z</time></trkpt><trkpt lat="40.040559954061415" lon="8.970856665785414"><ele>532.0</ele><time>2026-04-29T14:28:52.187Z</time></trkpt><trkpt lat="40.04049624069578" lon="8.971057708089294"><ele>532.0</ele><time>2026-04-29T14:28:53.187Z</time></trkpt><trkpt lat="40.04041476558871" lon="8.971225082414637"><ele>537.25</ele><time>2026-04-29T14:28:54.187Z</time></trkpt><trkpt lat="40.04030709635622" lon="8.971322502335063"><ele>542.5</ele><time>2026-04-29T14:28:55.187Z</time></trkpt><trkpt lat="40.040177207235246" lon="8.971324385444877"><ele>547.75</ele><time>2026-04-29T14:28:56.187Z</time></trkpt><trkpt lat="40.04006036020369" lon="8.971271818986148"><ele>553.0</ele><time>2026-04-29T14:28:57.187Z</time></trkpt><trkpt lat="40.039950036982034" lon="8.971133494773083"><ele>553.0</ele><time>2026-04-29T14:28:58.187Z</time></trkpt><trkpt lat="40.03982493357069" lon="8.971069828139964"><ele>553.0</ele><time>2026-04-29T14:28:59.187Z</time></trkpt><trkpt lat="40.03967375029653" lon="8.971074613593066"><ele>553.0</ele><time>2026-04-29T14:29:00.187Z</time></trkpt><trkpt lat="40.039520169623394" lon="8.97115469920131"><ele>553.0</ele><time>2026-04-29T14:29:01.187Z</time></trkpt><trkpt lat="40.03936895604505" lon="8.971274861697571"><ele>553.0</ele><time>2026-04-29T14:29:02.187Z</time></trkpt><trkpt lat="40.03922986768014" lon="8.971366709670367"><ele>553.0</ele><time>2026-04-29T14:29:03.187Z</time></trkpt><trkpt lat="40.03909757060366" lon="8.971360231669845"><ele>555.3333333333334</ele><time>2026-04-29T14:29:04.187Z</time></trkpt><trkpt lat="40.038979338116675" lon="8.971251482240902"><ele>557.6666666666666</ele><time>2026-04-29T14:29:05.187Z</time></trkpt><trkpt lat="40.038883917265686" lon="8.971065865591823"><ele>560.0</ele><time>2026-04-29T14:29:06.187Z</time></trkpt><trkpt lat="40.038815521587225" lon="8.970828009631616"><ele>560.0</ele><time>2026-04-29T14:29:07.187Z</time></trkpt><trkpt lat="40.03878857149948" lon="8.970574372585112"><ele>560.0</ele><time>2026-04-29T14:29:08.187Z</time></trkpt><trkpt lat="40.038772635585545" lon="8.970377283700207"><ele>560.0</ele><time>2026-04-29T14:29:09.187Z</time></trkpt><trkpt lat="40.03868744243525" lon="8.970245966838581"><ele>560.0</ele><time>2026-04-29T14:29:10.187Z</time></trkpt><trkpt lat="40.03854888259738" lon="8.970198178126655"><ele>560.0</ele><time>2026-04-29T14:29:11.187Z</time></trkpt><trkpt lat="40.038377799849215" lon="8.970192403398922"><ele>560.0</ele><time>2026-04-29T14:29:12.187Z</time></trkpt><trkpt lat="40.03821216057295" lon="8.97014214263838"><ele>559.0</ele><time>2026-04-29T14:29:13.187Z</time></trkpt><trkpt lat="40.03804879183808" lon="8.970024186985993"><ele>558.0</ele><time>2026-04-29T14:29:14.187Z</time></trkpt><trkpt lat="40.037905089981315" lon="8.969876159687582"><ele>557.0</ele><time>2026-04-29T14:29:15.187Z</time></trkpt><trkpt lat="40.03777410587962" lon="8.969733570899578"><ele>557.0</ele><time>2026-04-29T14:29:16.187Z</time></trkpt><trkpt lat="40.037662697290074" lon="8.969639293112943"><ele>557.0</ele><time>2026-04-29T14:29:17.187Z</time></trkpt><trkpt lat="40.03753854789331" lon="8.969625784631129"><ele>557.0</ele><time>2026-04-29T14:29:18.187Z</time></trkpt><trkpt lat="40.03745517906925" lon="8.969712882073539"><ele>557.0</ele><time>2026-04-29T14:29:19.187Z</time></trkpt><trkpt lat="40.03742942916262" lon="8.969866923484075"><ele>561.6666666666666</ele><time>2026-04-29T14:29:20.187Z</time></trkpt><trkpt lat="40.03749075457739" lon="8.970040205215968"><ele>566.3333333333334</ele><time>2026-04-29T14:29:21.187Z</time></trkpt><trkpt lat="40.03762252678254" lon="8.970168737215788"><ele>571.0</ele><time>2026-04-29T14:29:22.187Z</time></trkpt><trkpt lat="40.03778304605846" lon="8.970291384266728"><ele>571.0</ele><time>2026-04-29T14:29:23.187Z</time></trkpt><trkpt lat="40.03792425766366" lon="8.970439918550364"><ele>571.0</ele><time>2026-04-29T14:29:24.187Z</time></trkpt><trkpt lat="40.03801680852093" lon="8.970622931096862"><ele>571.0</ele><time>2026-04-29T14:29:25.187Z</time></trkpt><trkpt lat="40.0380683740681" lon="8.970839839390845"><ele>574.6666666666667</ele><time>2026-04-29T14:29:26.187Z</time></trkpt><trkpt lat="40.03810628352038" lon="8.971075574033858"><ele>578.3333333333334</ele><time>2026-04-29T14:29:27.187Z</time></trkpt><trkpt lat="40.03815551094797" lon="8.971308432185713"><ele>582.0</ele><time>2026-04-29T14:29:28.187Z</time></trkpt><trkpt lat="40.03824094997933" lon="8.971527248736974"><ele>581.3333333333334</ele><time>2026-04-29T14:29:29.187Z</time></trkpt><trkpt lat="40.03833501753689" lon="8.971746311335943"><ele>580.6666666666667</ele><time>2026-04-29T14:29:30.187Z</time></trkpt><trkpt lat="40.03843089654258" lon="8.97195797209316"><ele>580.0</ele><time>2026-04-29T14:29:31.187Z</time></trkpt><trkpt lat="40.03854447538333" lon="8.972156542247129"><ele>580.0</ele><time>2026-04-29T14:29:32.187Z</time></trkpt><trkpt lat="40.038671230904306" lon="8.972338189960654"><ele>580.0</ele><time>2026-04-29T14:29:33.187Z</time></trkpt><trkpt lat="40.03880062936701" lon="8.972469134362619"><ele>580.0</ele><time>2026-04-29T14:29:34.187Z</time></trkpt><trkpt lat="40.038954637637474" lon="8.972540666326816"><ele>580.3333333333334</ele><time>2026-04-29T14:29:35.187Z</time></trkpt><trkpt lat="40.039137396313635" lon="8.972581395197297"><ele>580.6666666666666</ele><time>2026-04-29T14:29:36.187Z</time></trkpt><trkpt lat="40.039333154363554" lon="8.97260481118759"><ele>581.0</ele><time>2026-04-29T14:29:37.187Z</time></trkpt><trkpt lat="40.03953061496264" lon="8.972612473509493"><ele>581.0</ele><time>2026-04-29T14:29:38.187Z</time></trkpt><trkpt lat="40.039720515882905" lon="8.972634400448671"><ele>581.0</ele><time>2026-04-29T14:29:39.187Z</time></trkpt><trkpt lat="40.03988906402227" lon="8.972747173680109"><ele>581.0</ele><time>2026-04-29T14:29:40.187Z</time></trkpt><trkpt lat="40.04003362786052" lon="8.972921325557268"><ele>581.6666666666666</ele><time>2026-04-29T14:29:41.187Z</time></trkpt><trkpt lat="40.040143200230126" lon="8.973098922739716"><ele>582.3333333333334</ele><time>2026-04-29T14:29:42.187Z</time></trkpt><trkpt lat="40.04018926261899" lon="8.97328053208296"><ele>583.0</ele><time>2026-04-29T14:29:43.187Z</time></trkpt><trkpt lat="40.040156299070304" lon="8.973482464297417"><ele>583.3333333333334</ele><time>2026-04-29T14:29:44.187Z</time></trkpt><trkpt lat="40.040087602284096" lon="8.973693207443507"><ele>583.6666666666666</ele><time>2026-04-29T14:29:45.187Z</time></trkpt><trkpt lat="40.04005605183794" lon="8.973922765210766"><ele>584.0</ele><time>2026-04-29T14:29:46.187Z</time></trkpt><trkpt lat="40.04005497048486" lon="8.974159044710051"><ele>585.0</ele><time>2026-04-29T14:29:47.187Z</time></trkpt><trkpt lat="40.04007173791588" lon="8.974392206261948"><ele>586.0</ele><time>2026-04-29T14:29:48.187Z</time></trkpt><trkpt lat="40.04007961241406" lon="8.974638208210141"><ele>587.0</ele><time>2026-04-29T14:29:49.187Z</time></trkpt><trkpt lat="40.04007805568154" lon="8.97489870616369"><ele>589.0</ele><time>2026-04-29T14:29:50.187Z</time></trkpt><trkpt lat="40.040067540133016" lon="8.975163506430514"><ele>591.0</ele><time>2026-04-29T14:29:51.187Z</time></trkpt><trkpt lat="40.040033011404454" lon="8.975431798305097"><ele>593.0</ele><time>2026-04-29T14:29:52.187Z</time></trkpt><trkpt lat="40.039989469828434" lon="8.97568634674351"><ele>587.3333333333333</ele><time>2026-04-29T14:29:53.187Z</time></trkpt><trkpt lat="40.03991170271502" lon="8.975926091125357"><ele>581.6666666666666</ele><time>2026-04-29T14:29:54.187Z</time></trkpt><trkpt lat="40.03980236105446" lon="8.976135491512677"><ele>576.0</ele><time>2026-04-29T14:29:55.187Z</time></trkpt><trkpt lat="40.039697333149846" lon="8.976345026332073"><ele>576.0</ele><time>2026-04-29T14:29:56.187Z</time></trkpt><trkpt lat="40.03962625544802" lon="8.976565964828488"><ele>576.0</ele><time>2026-04-29T14:29:57.187Z</time></trkpt><trkpt lat="40.03958612427456" lon="8.976801503386902"><ele>576.0</ele><time>2026-04-29T14:29:58.187Z</time></trkpt><trkpt lat="40.03954948959445" lon="8.977041843875638"><ele>578.0</ele><time>2026-04-29T14:29:59.187Z</time></trkpt><trkpt lat="40.03952570048337" lon="8.977284305478356"><ele>580.0</ele><time>2026-04-29T14:30:00.187Z</time></trkpt><trkpt lat="40.039513661747364" lon="8.977515224071636"><ele>582.0</ele><time>2026-04-29T14:30:01.187Z</time></trkpt><trkpt lat="40.03950220069043" lon="8.977746652241127"><ele>584.0</ele><time>2026-04-29T14:30:02.187Z</time></trkpt><trkpt lat="40.039483550259675" lon="8.977970995611638"><ele>586.0</ele><time>2026-04-29T14:30:03.187Z</time></trkpt><trkpt lat="40.0394596687186" lon="8.978196669393656"><ele>588.0</ele><time>2026-04-29T14:30:04.187Z</time></trkpt><trkpt lat="40.039431122052804" lon="8.978416798348485"><ele>590.3333333333334</ele><time>2026-04-29T14:30:05.187Z</time></trkpt><trkpt lat="40.0393997426606" lon="8.978636035829268"><ele>592.6666666666667</ele><time>2026-04-29T14:30:06.187Z</time></trkpt><trkpt lat="40.039359515096095" lon="8.978848667765009"><ele>595.0</ele><time>2026-04-29T14:30:07.187Z</time></trkpt><trkpt lat="40.039306117729254" lon="8.979057437207421"><ele>595.3333333333334</ele><time>2026-04-29T14:30:08.187Z</time></trkpt><trkpt lat="40.039234918522936" lon="8.979252931999321"><ele>595.6666666666666</ele><time>2026-04-29T14:30:09.187Z</time></trkpt><trkpt lat="40.039132965779885" lon="8.97942383848351"><ele>596.0</ele><time>2026-04-29T14:30:10.187Z</time></trkpt><trkpt lat="40.039024775207" lon="8.979575099684114"><ele>596.0</ele><time>2026-04-29T14:30:11.187Z</time></trkpt><trkpt lat="40.03891659479977" lon="8.979717857737956"><ele>596.0</ele><time>2026-04-29T14:30:12.187Z</time></trkpt><trkpt lat="40.038802521763486" lon="8.979858399477264"><ele>596.0</ele><time>2026-04-29T14:30:13.187Z</time></trkpt><trkpt lat="40.03869919823007" lon="8.979973897140162"><ele>596.0</ele><time>2026-04-29T14:30:14.187Z</time></trkpt><trkpt lat="40.03859865491489" lon="8.980078724498439"><ele>596.6</ele><time>2026-04-29T14:30:15.187Z</time></trkpt><trkpt lat="40.03850941324348" lon="8.980175481482721"><ele>597.2</ele><time>2026-04-29T14:30:16.187Z</time></trkpt><trkpt lat="40.03842513243324" lon="8.980269395773385"><ele>597.8</ele><time>2026-04-29T14:30:17.187Z</time></trkpt><trkpt lat="40.0383520429683" lon="8.98036409248547"><ele>598.4</ele><time>2026-04-29T14:30:18.187Z</time></trkpt><trkpt lat="40.03831569124712" lon="8.980480779819628"><ele>599.0</ele><time>2026-04-29T14:30:19.187Z</time></trkpt><trkpt lat="40.038314277778554" lon="8.980600553586699"><ele>599.0</ele><time>2026-04-29T14:30:20.187Z</time></trkpt><trkpt lat="40.038335747039646" lon="8.980722423324169"><ele>599.0</ele><time>2026-04-29T14:30:21.187Z</time></trkpt><trkpt lat="40.038371116714885" lon="8.980843801929964"><ele>599.0</ele><time>2026-04-29T14:30:22.187Z</time></trkpt><trkpt lat="40.038413974204545" lon="8.98096649248768"><ele>599.0</ele><time>2026-04-29T14:30:23.187Z</time></trkpt><trkpt lat="40.03845148933241" lon="8.981097061637056"><ele>599.0</ele><time>2026-04-29T14:30:24.187Z</time></trkpt><trkpt lat="40.03848955680313" lon="8.981232273173879"><ele>599.0</ele><time>2026-04-29T14:30:25.187Z</time></trkpt><trkpt lat="40.038529812095106" lon="8.981369213555048"><ele>599.0</ele><time>2026-04-29T14:30:26.187Z</time></trkpt><trkpt lat="40.03856980741545" lon="8.98150552333038"><ele>599.0</ele><time>2026-04-29T14:30:27.187Z</time></trkpt><trkpt lat="40.03861102706658" lon="8.981647635892347"><ele>599.0</ele><time>2026-04-29T14:30:28.187Z</time></trkpt><trkpt lat="40.03864610231786" lon="8.981787656509514"><ele>599.0</ele><time>2026-04-29T14:30:29.187Z</time></trkpt><trkpt lat="40.03866101751795" lon="8.981930797633947"><ele>599.0</ele><time>2026-04-29T14:30:30.187Z</time></trkpt><trkpt lat="40.03864868901795" lon="8.982072800316672"><ele>599.0</ele><time>2026-04-29T14:30:31.187Z</time></trkpt><trkpt lat="40.03860166976223" lon="8.982200139201543"><ele>599.0</ele><time>2026-04-29T14:30:32.188Z</time></trkpt><trkpt lat="40.03852377446866" lon="8.982302364793728"><ele>599.0</ele><time>2026-04-29T14:30:33.188Z</time></trkpt><trkpt lat="40.03843833695148" lon="8.982392695080508"><ele>599.0</ele><time>2026-04-29T14:30:34.188Z</time></trkpt><trkpt lat="40.03834940047123" lon="8.982483514744898"><ele>599.0</ele><time>2026-04-29T14:30:35.188Z</time></trkpt><trkpt lat="40.03827287548908" lon="8.982589003061584"><ele>599.0</ele><time>2026-04-29T14:30:36.188Z</time></trkpt><trkpt lat="40.038194462215024" lon="8.982699082345524"><ele>599.0</ele><time>2026-04-29T14:30:37.188Z</time></trkpt><trkpt lat="40.03811969844989" lon="8.98281113089458"><ele>598.8</ele><time>2026-04-29T14:30:38.188Z</time></trkpt><trkpt lat="40.03804889839405" lon="8.982928001344249"><ele>598.5999999999999</ele><time>2026-04-29T14:30:39.188Z</time></trkpt><trkpt lat="40.03798634606849" lon="8.983048610087327"><ele>598.4</ele><time>2026-04-29T14:30:40.188Z</time></trkpt><trkpt lat="40.037928547338765" lon="8.983160621910075"><ele>598.1999999999999</ele><time>2026-04-29T14:30:41.188Z</time></trkpt><trkpt lat="40.03787292984107" lon="8.983265151199314"><ele>598.0</ele><time>2026-04-29T14:30:42.188Z</time></trkpt><trkpt lat="40.03781739395844" lon="8.98336280155413"><ele>598.0</ele><time>2026-04-29T14:30:43.188Z</time></trkpt><trkpt lat="40.0377688583206" lon="8.983477202382225"><ele>598.0</ele><time>2026-04-29T14:30:44.187Z</time></trkpt><trkpt lat="40.03772290341197" lon="8.983594644190617"><ele>598.0</ele><time>2026-04-29T14:30:45.188Z</time></trkpt><trkpt lat="40.03767951987895" lon="8.98369138875548"><ele>598.0</ele><time>2026-04-29T14:30:46.188Z</time></trkpt><trkpt lat="40.03763699119771" lon="8.983796217609543"><ele>598.0</ele><time>2026-04-29T14:30:47.188Z</time></trkpt><trkpt lat="40.037588487432856" lon="8.983911637382713"><ele>598.0</ele><time>2026-04-29T14:30:48.188Z</time></trkpt><trkpt lat="40.03752585528466" lon="8.984026644011134"><ele>598.0</ele><time>2026-04-29T14:30:49.188Z</time></trkpt><trkpt lat="40.03745122849434" lon="8.98413689154163"><ele>598.0</ele><time>2026-04-29T14:30:50.188Z</time></trkpt><trkpt lat="40.03736606907129" lon="8.984238831678853"><ele>598.0</ele><time>2026-04-29T14:30:51.188Z</time></trkpt><trkpt lat="40.03726900096107" lon="8.984327759985346"><ele>597.25</ele><time>2026-04-29T14:30:52.188Z</time></trkpt><trkpt lat="40.037160667916844" lon="8.984397676584978"><ele>596.5</ele><time>2026-04-29T14:30:53.188Z</time></trkpt><trkpt lat="40.03704363872125" lon="8.984456199638668"><ele>595.75</ele><time>2026-04-29T14:30:54.188Z</time></trkpt><trkpt lat="40.036932384946255" lon="8.984526020803102"><ele>595.0</ele><time>2026-04-29T14:30:55.188Z</time></trkpt><trkpt lat="40.0368150429292" lon="8.984589404643609"><ele>595.0</ele><time>2026-04-29T14:30:56.188Z</time></trkpt><trkpt lat="40.036699869225295" lon="8.984661810261086"><ele>595.0</ele><time>2026-04-29T14:30:57.188Z</time></trkpt><trkpt lat="40.036585453262354" lon="8.984729940406863"><ele>595.0</ele><time>2026-04-29T14:30:58.188Z</time></trkpt><trkpt lat="40.03646887679417" lon="8.9847929456114"><ele>595.0</ele><time>2026-04-29T14:30:59.188Z</time></trkpt><trkpt lat="40.03635243966268" lon="8.984857959049494"><ele>594.75</ele><time>2026-04-29T14:31:00.188Z</time></trkpt><trkpt lat="40.036235627483514" lon="8.98492623361231"><ele>594.5</ele><time>2026-04-29T14:31:01.188Z</time></trkpt><trkpt lat="40.03612227513563" lon="8.984994046165149"><ele>594.25</ele><time>2026-04-29T14:31:02.188Z</time></trkpt><trkpt lat="40.036009022157806" lon="8.985053120567851"><ele>594.0</ele><time>2026-04-29T14:31:03.188Z</time></trkpt><trkpt lat="40.03590050082095" lon="8.98511453191884"><ele>593.4</ele><time>2026-04-29T14:31:04.188Z</time></trkpt><trkpt lat="40.035796245698656" lon="8.985183651306317"><ele>592.8</ele><time>2026-04-29T14:31:05.188Z</time></trkpt><trkpt lat="40.03570548479853" lon="8.985271662029685"><ele>592.2</ele><time>2026-04-29T14:31:06.188Z</time></trkpt><trkpt lat="40.03564457769426" lon="8.985389156203464"><ele>591.6</ele><time>2026-04-29T14:31:07.188Z</time></trkpt><trkpt lat="40.035611114861304" lon="8.985515312251769"><ele>591.0</ele><time>2026-04-29T14:31:08.188Z</time></trkpt><trkpt lat="40.03560166842553" lon="8.985663124885363"><ele>591.0</ele><time>2026-04-29T14:31:09.188Z</time></trkpt><trkpt lat="40.03559293846832" lon="8.985791209302265"><ele>591.0</ele><time>2026-04-29T14:31:10.188Z</time></trkpt><trkpt lat="40.035575446797395" lon="8.98592529895619"><ele>591.0</ele><time>2026-04-29T14:31:11.188Z</time></trkpt><trkpt lat="40.0355491363403" lon="8.98605646183939"><ele>591.0</ele><time>2026-04-29T14:31:12.188Z</time></trkpt><trkpt lat="40.03553518913454" lon="8.98618611713904"><ele>591.0</ele><time>2026-04-29T14:31:13.188Z</time></trkpt><trkpt lat="40.03551715941087" lon="8.986307158216995"><ele>590.1666666666666</ele><time>2026-04-29T14:31:14.188Z</time></trkpt><trkpt lat="40.03549550128208" lon="8.98642309957073"><ele>589.3333333333334</ele><time>2026-04-29T14:31:15.188Z</time></trkpt><trkpt lat="40.0354737279098" lon="8.986535111092088"><ele>588.5</ele><time>2026-04-29T14:31:16.188Z</time></trkpt><trkpt lat="40.03546703582775" lon="8.98664687291829"><ele>587.6666666666667</ele><time>2026-04-29T14:31:17.188Z</time></trkpt><trkpt lat="40.03545244068013" lon="8.986749610356531"><ele>586.8333333333334</ele><time>2026-04-29T14:31:18.188Z</time></trkpt><trkpt lat="40.035428321898905" lon="8.986853533078826"><ele>586.0</ele><time>2026-04-29T14:31:19.188Z</time></trkpt><trkpt lat="40.03538716310503" lon="8.986964824921662"><ele>585.5</ele><time>2026-04-29T14:31:20.188Z</time></trkpt><trkpt lat="40.035315014804944" lon="8.987068873920723"><ele>585.0</ele><time>2026-04-29T14:31:21.188Z</time></trkpt><trkpt lat="40.03521258706429" lon="8.98714504977337"><ele>584.5</ele><time>2026-04-29T14:31:22.188Z</time></trkpt><trkpt lat="40.03509545302467" lon="8.987186553496825"><ele>584.0</ele><time>2026-04-29T14:31:23.188Z</time></trkpt><trkpt lat="40.03498137110272" lon="8.987234138167375"><ele>582.5</ele><time>2026-04-29T14:31:24.188Z</time></trkpt><trkpt lat="40.034868758919515" lon="8.987286815916065"><ele>581.0</ele><time>2026-04-29T14:31:25.188Z</time></trkpt><trkpt lat="40.03475030603398" lon="8.987340817761568"><ele>579.5</ele><time>2026-04-29T14:31:26.188Z</time></trkpt><trkpt lat="40.034630359000566" lon="8.987393263232613"><ele>578.0</ele><time>2026-04-29T14:31:27.188Z</time></trkpt><trkpt lat="40.03451424261045" lon="8.987447918885037"><ele>578.0</ele><time>2026-04-29T14:31:28.188Z</time></trkpt><trkpt lat="40.03439724014151" lon="8.987496313949123"><ele>578.0</ele><time>2026-04-29T14:31:29.188Z</time></trkpt><trkpt lat="40.03427771573989" lon="8.987554810429216"><ele>578.0</ele><time>2026-04-29T14:31:30.188Z</time></trkpt><trkpt lat="40.03416259356805" lon="8.987615294765208"><ele>578.0</ele><time>2026-04-29T14:31:31.188Z</time></trkpt><trkpt lat="40.03405103796601" lon="8.987676476321845"><ele>576.75</ele><time>2026-04-29T14:31:32.188Z</time></trkpt><trkpt lat="40.03393401102789" lon="8.987725876412032"><ele>575.5</ele><time>2026-04-29T14:31:33.188Z</time></trkpt><trkpt lat="40.033820136431395" lon="8.987768068587469"><ele>574.25</ele><time>2026-04-29T14:31:34.188Z</time></trkpt><trkpt lat="40.033701545892114" lon="8.987803468311819"><ele>573.0</ele><time>2026-04-29T14:31:35.188Z</time></trkpt><trkpt lat="40.03357850784926" lon="8.987828706746955"><ele>573.0</ele><time>2026-04-29T14:31:36.188Z</time></trkpt><trkpt lat="40.033454657835726" lon="8.987830210221526"><ele>573.0</ele><time>2026-04-29T14:31:37.188Z</time></trkpt><trkpt lat="40.033329553109155" lon="8.987820927177168"><ele>573.0</ele><time>2026-04-29T14:31:38.188Z</time></trkpt><trkpt lat="40.03320773150004" lon="8.9878144285989"><ele>573.0</ele><time>2026-04-29T14:31:39.188Z</time></trkpt><trkpt lat="40.033084586720214" lon="8.987802604919052"><ele>571.3333333333334</ele><time>2026-04-29T14:31:40.188Z</time></trkpt><trkpt lat="40.032830545280504" lon="8.987820501846382"><ele>569.6666666666667</ele><time>2026-04-29T14:31:42.188Z</time></trkpt><trkpt lat="40.03270332405813" lon="8.987853720548818"><ele>568.0</ele><time>2026-04-29T14:31:43.188Z</time></trkpt><trkpt lat="40.03258225003471" lon="8.987906025684593"><ele>567.0</ele><time>2026-04-29T14:31:44.188Z</time></trkpt><trkpt lat="40.0324574771396" lon="8.987957019196246"><ele>566.0</ele><time>2026-04-29T14:31:45.188Z</time></trkpt><trkpt lat="40.032331505381265" lon="8.987998606592718"><ele>565.0</ele><time>2026-04-29T14:31:46.188Z</time></trkpt><trkpt lat="40.03220339334748" lon="8.988035813049104"><ele>564.0</ele><time>2026-04-29T14:31:47.188Z</time></trkpt><trkpt lat="40.03207704036885" lon="8.98807258883637"><ele>564.0</ele><time>2026-04-29T14:31:48.188Z</time></trkpt><trkpt lat="40.03194836140894" lon="8.988107188993053"><ele>564.0</ele><time>2026-04-29T14:31:49.188Z</time></trkpt><trkpt lat="40.03182384325287" lon="8.988142494894461"><ele>564.0</ele><time>2026-04-29T14:31:50.188Z</time></trkpt><trkpt lat="40.03169464981696" lon="8.988185507611446"><ele>564.0</ele><time>2026-04-29T14:31:51.188Z</time></trkpt><trkpt lat="40.03156322396256" lon="8.988236257827422"><ele>562.75</ele><time>2026-04-29T14:31:52.188Z</time></trkpt><trkpt lat="40.031429408011476" lon="8.988288763861753"><ele>561.5</ele><time>2026-04-29T14:31:53.188Z</time></trkpt><trkpt lat="40.03128509519585" lon="8.988321467274348"><ele>560.25</ele><time>2026-04-29T14:31:54.188Z</time></trkpt><trkpt lat="40.031136147944615" lon="8.98832010500728"><ele>559.0</ele><time>2026-04-29T14:31:55.188Z</time></trkpt><trkpt lat="40.03098803538844" lon="8.988283815311188"><ele>559.0</ele><time>2026-04-29T14:31:56.188Z</time></trkpt><trkpt lat="40.030837810448425" lon="8.988236721152234"><ele>559.0</ele><time>2026-04-29T14:31:57.188Z</time></trkpt><trkpt lat="40.03068793742772" lon="8.988216410882421"><ele>559.0</ele><time>2026-04-29T14:31:58.188Z</time></trkpt><trkpt lat="40.03053661573695" lon="8.988240169328797"><ele>559.6666666666667</ele><time>2026-04-29T14:31:59.188Z</time></trkpt><trkpt lat="40.030389998161304" lon="8.988328948955358"><ele>560.3333333333334</ele><time>2026-04-29T14:32:00.188Z</time></trkpt><trkpt lat="40.030262398553155" lon="8.988455734022322"><ele>561.0</ele><time>2026-04-29T14:32:01.188Z</time></trkpt><trkpt lat="40.03014460400114" lon="8.988599217477205"><ele>559.0</ele><time>2026-04-29T14:32:02.188Z</time></trkpt><trkpt lat="40.03001684033289" lon="8.988740260516877"><ele>557.0</ele><time>2026-04-29T14:32:03.188Z</time></trkpt><trkpt lat="40.02988736371939" lon="8.988870429119652"><ele>555.0</ele><time>2026-04-29T14:32:04.188Z</time></trkpt><trkpt lat="40.02975186501209" lon="8.9890001358995"><ele>555.0</ele><time>2026-04-29T14:32:05.188Z</time></trkpt><trkpt lat="40.029606222463435" lon="8.989113268327756"><ele>555.0</ele><time>2026-04-29T14:32:06.189Z</time></trkpt><trkpt lat="40.02945149761262" lon="8.989214011285458"><ele>555.0</ele><time>2026-04-29T14:32:07.189Z</time></trkpt><trkpt lat="40.02929120451713" lon="8.989308032467125"><ele>554.0</ele><time>2026-04-29T14:32:08.189Z</time></trkpt><trkpt lat="40.02913236368058" lon="8.98941900085976"><ele>553.0</ele><time>2026-04-29T14:32:09.189Z</time></trkpt><trkpt lat="40.02898704679973" lon="8.98953799765798"><ele>552.0</ele><time>2026-04-29T14:32:10.189Z</time></trkpt><trkpt lat="40.028864419862344" lon="8.989676102797025"><ele>552.0</ele><time>2026-04-29T14:32:11.189Z</time></trkpt><trkpt lat="40.028767658960234" lon="8.989864391425009"><ele>552.0</ele><time>2026-04-29T14:32:12.189Z</time></trkpt><trkpt lat="40.02869765917438" lon="8.990081314615635"><ele>552.0</ele><time>2026-04-29T14:32:13.189Z</time></trkpt><trkpt lat="40.02866685397998" lon="8.990312723001427"><ele>551.0</ele><time>2026-04-29T14:32:14.189Z</time></trkpt><trkpt lat="40.02863385362913" lon="8.990535528533057"><ele>550.0</ele><time>2026-04-29T14:32:15.189Z</time></trkpt><trkpt lat="40.028579766680885" lon="8.990753175704647"><ele>549.0</ele><time>2026-04-29T14:32:16.189Z</time></trkpt><trkpt lat="40.02850018570557" lon="8.990956275549024"><ele>548.6666666666666</ele><time>2026-04-29T14:32:17.189Z</time></trkpt><trkpt lat="40.02841014792045" lon="8.99115239188803"><ele>548.3333333333333</ele><time>2026-04-29T14:32:18.189Z</time></trkpt><trkpt lat="40.028317116469324" lon="8.991349569766603"><ele>548.0</ele><time>2026-04-29T14:32:19.189Z</time></trkpt><trkpt lat="40.02821438247402" lon="8.991538061445661"><ele>544.3333333333333</ele><time>2026-04-29T14:32:20.189Z</time></trkpt><trkpt lat="40.028094969113106" lon="8.991703949647086"><ele>540.6666666666666</ele><time>2026-04-29T14:32:21.189Z</time></trkpt><trkpt lat="40.02796881771565" lon="8.991865426942182"><ele>537.0</ele><time>2026-04-29T14:32:22.189Z</time></trkpt><trkpt lat="40.02784979818395" lon="8.992035074184175"><ele>537.0</ele><time>2026-04-29T14:32:23.189Z</time></trkpt><trkpt lat="40.02773740896696" lon="8.992197058246413"><ele>537.0</ele><time>2026-04-29T14:32:24.189Z</time></trkpt><trkpt lat="40.027618797431934" lon="8.99229941450496"><ele>537.0</ele><time>2026-04-29T14:32:25.189Z</time></trkpt><trkpt lat="40.027485769410305" lon="8.992309883724012"><ele>537.0</ele><time>2026-04-29T14:32:26.189Z</time></trkpt><trkpt lat="40.02732508515692" lon="8.992246008141077"><ele>536.3333333333334</ele><time>2026-04-29T14:32:27.189Z</time></trkpt><trkpt lat="40.027142136811165" lon="8.992193058074763"><ele>535.6666666666667</ele><time>2026-04-29T14:32:28.189Z</time></trkpt><trkpt lat="40.02695784077196" lon="8.992193117046751"><ele>535.0</ele><time>2026-04-29T14:32:29.189Z</time></trkpt><trkpt lat="40.026781881726336" lon="8.992253068106411"><ele>534.0</ele><time>2026-04-29T14:32:30.189Z</time></trkpt><trkpt lat="40.02662059837921" lon="8.992366071623128"><ele>533.0</ele><time>2026-04-29T14:32:31.189Z</time></trkpt><trkpt lat="40.02646966940974" lon="8.99249928731189"><ele>532.0</ele><time>2026-04-29T14:32:32.189Z</time></trkpt><trkpt lat="40.02633375901416" lon="8.992676564955005"><ele>532.0</ele><time>2026-04-29T14:32:33.189Z</time></trkpt><trkpt lat="40.026205367595175" lon="8.992874696842186"><ele>532.0</ele><time>2026-04-29T14:32:34.189Z</time></trkpt><trkpt lat="40.026075884580685" lon="8.993071369278564"><ele>532.0</ele><time>2026-04-29T14:32:35.189Z</time></trkpt><trkpt lat="40.02594827598422" lon="8.99327602590372"><ele>528.3333333333334</ele><time>2026-04-29T14:32:36.189Z</time></trkpt><trkpt lat="40.025830836743154" lon="8.993499964896957"><ele>524.6666666666666</ele><time>2026-04-29T14:32:37.189Z</time></trkpt><trkpt lat="40.02571191897334" lon="8.993717950692577"><ele>521.0</ele><time>2026-04-29T14:32:38.189Z</time></trkpt><trkpt lat="40.025594597513354" lon="8.99392621717053"><ele>521.0</ele><time>2026-04-29T14:32:39.189Z</time></trkpt><trkpt lat="40.02549207013587" lon="8.994114482419796"><ele>521.0</ele><time>2026-04-29T14:32:40.189Z</time></trkpt><trkpt lat="40.02536494841036" lon="8.994225803628012"><ele>521.0</ele><time>2026-04-29T14:32:41.189Z</time></trkpt><trkpt lat="40.025170847150676" lon="8.994225282165573"><ele>519.5</ele><time>2026-04-29T14:32:42.19Z</time></trkpt><trkpt lat="40.02494190903558" lon="8.994182385469527"><ele>518.0</ele><time>2026-04-29T14:32:43.19Z</time></trkpt><trkpt lat="40.02470577933737" lon="8.994145076843498"><ele>515.0</ele><time>2026-04-29T14:32:44.19Z</time></trkpt><trkpt lat="40.02468812112282" lon="8.994361062207604"><ele>512.0</ele><time>2026-04-29T14:32:45.189Z</time></trkpt><trkpt lat="40.0244918197055" lon="8.994391650071933"><ele>509.0</ele><time>2026-04-29T14:32:46.189Z</time></trkpt><trkpt lat="40.024302781875406" lon="8.99442978830969"><ele>509.3333333333333</ele><time>2026-04-29T14:32:47.189Z</time></trkpt><trkpt lat="40.02410879732423" lon="8.9944524012091"><ele>509.66666666666663</ele><time>2026-04-29T14:32:48.189Z</time></trkpt><trkpt lat="40.02391463626928" lon="8.994470663446569"><ele>510.0</ele><time>2026-04-29T14:32:49.189Z</time></trkpt><trkpt lat="40.02372470463817" lon="8.994495647477663"><ele>510.0</ele><time>2026-04-29T14:32:50.19Z</time></trkpt><trkpt lat="40.0235536199151" lon="8.994581801003926"><ele>510.0</ele><time>2026-04-29T14:32:51.189Z</time></trkpt><trkpt lat="40.023390686371684" lon="8.99473576177669"><ele>510.0</ele><time>2026-04-29T14:32:52.189Z</time></trkpt><trkpt lat="40.023230181608" lon="8.994911151081707"><ele>507.66666666666663</ele><time>2026-04-29T14:32:53.189Z</time></trkpt><trkpt lat="40.02307591932442" lon="8.995094691293225"><ele>505.3333333333333</ele><time>2026-04-29T14:32:54.189Z</time></trkpt><trkpt lat="40.02291439349216" lon="8.995277369645937"><ele>503.0</ele><time>2026-04-29T14:32:55.189Z</time></trkpt><trkpt lat="40.02274963296068" lon="8.995458355571687"><ele>503.0</ele><time>2026-04-29T14:32:56.189Z</time></trkpt><trkpt lat="40.02258610104099" lon="8.995637186350956"><ele>503.0</ele><time>2026-04-29T14:32:57.189Z</time></trkpt><trkpt lat="40.022435493339515" lon="8.995798508801713"><ele>503.0</ele><time>2026-04-29T14:32:58.189Z</time></trkpt><trkpt lat="40.02229169852774" lon="8.995951982960456"><ele>502.3333333333333</ele><time>2026-04-29T14:32:59.189Z</time></trkpt><trkpt lat="40.022149523215475" lon="8.99611214308759"><ele>501.66666666666663</ele><time>2026-04-29T14:33:00.189Z</time></trkpt><trkpt lat="40.022003648198414" lon="8.996278032699594"><ele>501.0</ele><time>2026-04-29T14:33:01.189Z</time></trkpt><trkpt lat="40.02186638807544" lon="8.996431570307676"><ele>501.0</ele><time>2026-04-29T14:33:02.189Z</time></trkpt><trkpt lat="40.021734838622514" lon="8.996583915090701"><ele>501.0</ele><time>2026-04-29T14:33:03.189Z</time></trkpt><trkpt lat="40.02159225168512" lon="8.99673692809306"><ele>501.0</ele><time>2026-04-29T14:33:04.189Z</time></trkpt><trkpt lat="40.021441470437495" lon="8.996896910085393"><ele>499.0</ele><time>2026-04-29T14:33:05.189Z</time></trkpt><trkpt lat="40.0212931814616" lon="8.997060383788154"><ele>497.0</ele><time>2026-04-29T14:33:06.189Z</time></trkpt><trkpt lat="40.02114090959952" lon="8.997217180140426"><ele>495.0</ele><time>2026-04-29T14:33:07.189Z</time></trkpt><trkpt lat="40.020981669237536" lon="8.997366408666759"><ele>495.0</ele><time>2026-04-29T14:33:08.189Z</time></trkpt><trkpt lat="40.020816260642555" lon="8.997509037433105"><ele>495.0</ele><time>2026-04-29T14:33:09.189Z</time></trkpt><trkpt lat="40.0206448373575" lon="8.997641630063768"><ele>495.0</ele><time>2026-04-29T14:33:10.189Z</time></trkpt><trkpt lat="40.02046809974918" lon="8.997767887731658"><ele>495.33333333333337</ele><time>2026-04-29T14:33:11.189Z</time></trkpt><trkpt lat="40.02029229349491" lon="8.997904407855552"><ele>495.6666666666667</ele><time>2026-04-29T14:33:12.189Z</time></trkpt><trkpt lat="40.02014186505865" lon="8.998074985522837"><ele>496.0</ele><time>2026-04-29T14:33:13.189Z</time></trkpt><trkpt lat="40.02001675388373" lon="8.998276549266695"><ele>497.33333333333337</ele><time>2026-04-29T14:33:14.189Z</time></trkpt><trkpt lat="40.01991475858481" lon="8.998497202115098"><ele>498.66666666666663</ele><time>2026-04-29T14:33:15.189Z</time></trkpt><trkpt lat="40.01982572767117" lon="8.998716299955442"><ele>500.0</ele><time>2026-04-29T14:33:16.189Z</time></trkpt><trkpt lat="40.01975595973315" lon="8.99892430247641"><ele>500.0</ele><time>2026-04-29T14:33:17.189Z</time></trkpt><trkpt lat="40.01976020170512" lon="8.999138958426476"><ele>500.0</ele><time>2026-04-29T14:33:18.189Z</time></trkpt><trkpt lat="40.01982928036875" lon="8.999348953157801"><ele>500.0</ele><time>2026-04-29T14:33:19.189Z</time></trkpt><trkpt lat="40.0199423341649" lon="8.999532501554043"><ele>498.66666666666663</ele><time>2026-04-29T14:33:20.189Z</time></trkpt><trkpt lat="40.020059885142054" lon="8.999701569322763"><ele>497.33333333333337</ele><time>2026-04-29T14:33:21.189Z</time></trkpt><trkpt lat="40.020109145124835" lon="8.999891374333211"><ele>496.0</ele><time>2026-04-29T14:33:22.189Z</time></trkpt><trkpt lat="40.02006362376264" lon="9.000094756337528"><ele>498.0</ele><time>2026-04-29T14:33:23.189Z</time></trkpt><trkpt lat="40.019948333520446" lon="9.000286117824079"><ele>500.0</ele><time>2026-04-29T14:33:24.189Z</time></trkpt><trkpt lat="40.019798963576264" lon="9.000465885255455"><ele>502.0</ele><time>2026-04-29T14:33:25.189Z</time></trkpt><trkpt lat="40.01967539127261" lon="9.000633473200814"><ele>502.0</ele><time>2026-04-29T14:33:26.189Z</time></trkpt><trkpt lat="40.019575361542955" lon="9.000813673161943"><ele>502.0</ele><time>2026-04-29T14:33:27.189Z</time></trkpt><trkpt lat="40.019571158980405" lon="9.00104813384747"><ele>502.0</ele><time>2026-04-29T14:33:28.189Z</time></trkpt><trkpt lat="40.019601059151015" lon="9.001295628575797"><ele>499.6666666666667</ele><time>2026-04-29T14:33:29.189Z</time></trkpt><trkpt lat="40.019644430006565" lon="9.001552502360981"><ele>497.33333333333337</ele><time>2026-04-29T14:33:30.189Z</time></trkpt><trkpt lat="40.01966460592726" lon="9.001806008852228"><ele>495.0</ele><time>2026-04-29T14:33:31.189Z</time></trkpt><trkpt lat="40.01971621184131" lon="9.002042772362659"><ele>495.0</ele><time>2026-04-29T14:33:32.189Z</time></trkpt><trkpt lat="40.01980501537895" lon="9.00226690770782"><ele>495.0</ele><time>2026-04-29T14:33:33.189Z</time></trkpt><trkpt lat="40.019908042444996" lon="9.002468878884578"><ele>495.0</ele><time>2026-04-29T14:33:34.189Z</time></trkpt><trkpt lat="40.01998814830992" lon="9.00267757102302"><ele>494.66666666666663</ele><time>2026-04-29T14:33:35.189Z</time></trkpt><trkpt lat="40.02002291752489" lon="9.002919639405379"><ele>494.3333333333333</ele><time>2026-04-29T14:33:36.189Z</time></trkpt><trkpt lat="40.0200469153855" lon="9.003166606121884"><ele>494.0</ele><time>2026-04-29T14:33:37.189Z</time></trkpt><trkpt lat="40.02006280760351" lon="9.003420394077553"><ele>494.0</ele><time>2026-04-29T14:33:38.189Z</time></trkpt><trkpt lat="40.02006338047475" lon="9.003669612743831"><ele>494.0</ele><time>2026-04-29T14:33:39.189Z</time></trkpt><trkpt lat="40.020041383984655" lon="9.003924225222718"><ele>494.0</ele><time>2026-04-29T14:33:40.189Z</time></trkpt><trkpt lat="40.01999086450688" lon="9.004164504495328"><ele>500.3333333333333</ele><time>2026-04-29T14:33:41.189Z</time></trkpt><trkpt lat="40.019919110873154" lon="9.00439900025124"><ele>506.66666666666663</ele><time>2026-04-29T14:33:42.189Z</time></trkpt><trkpt lat="40.019833358781874" lon="9.004622706897642"><ele>513.0</ele><time>2026-04-29T14:33:43.189Z</time></trkpt><trkpt lat="40.01972515973165" lon="9.004823677956642"><ele>510.0</ele><time>2026-04-29T14:33:44.189Z</time></trkpt><trkpt lat="40.01961968294368" lon="9.005028206529074"><ele>507.0</ele><time>2026-04-29T14:33:45.189Z</time></trkpt><trkpt lat="40.01953805342284" lon="9.00524689958288"><ele>504.0</ele><time>2026-04-29T14:33:46.189Z</time></trkpt><trkpt lat="40.01946834504395" lon="9.005474349899334"><ele>504.0</ele><time>2026-04-29T14:33:47.189Z</time></trkpt><trkpt lat="40.019419364519536" lon="9.005713204003243"><ele>504.0</ele><time>2026-04-29T14:33:48.189Z</time></trkpt><trkpt lat="40.01942043756219" lon="9.005963279675647"><ele>504.0</ele><time>2026-04-29T14:33:49.189Z</time></trkpt><trkpt lat="40.01947323404797" lon="9.006198688380874"><ele>503.0</ele><time>2026-04-29T14:33:50.189Z</time></trkpt><trkpt lat="40.01956105109863" lon="9.006415899496304"><ele>502.0</ele><time>2026-04-29T14:33:51.189Z</time></trkpt><trkpt lat="40.019691329208506" lon="9.006603640088013"><ele>501.0</ele><time>2026-04-29T14:33:52.189Z</time></trkpt><trkpt lat="40.01983657390165" lon="9.006765865185095"><ele>501.0</ele><time>2026-04-29T14:33:53.189Z</time></trkpt><trkpt lat="40.01997439264145" lon="9.006935721084663"><ele>501.0</ele><time>2026-04-29T14:33:54.189Z</time></trkpt><trkpt lat="40.020114967002016" lon="9.00709175726939"><ele>501.0</ele><time>2026-04-29T14:33:55.189Z</time></trkpt><trkpt lat="40.020272692885364" lon="9.007200112906892"><ele>498.0</ele><time>2026-04-29T14:33:56.189Z</time></trkpt><trkpt lat="40.020414312455415" lon="9.007270905498515"><ele>495.0</ele><time>2026-04-29T14:33:57.189Z</time></trkpt><trkpt lat="40.020522094252925" lon="9.00735517147799"><ele>492.0</ele><time>2026-04-29T14:33:58.189Z</time></trkpt><trkpt lat="40.020571143205366" lon="9.007502461756628"><ele>489.0</ele><time>2026-04-29T14:33:59.189Z</time></trkpt><trkpt lat="40.02052131044232" lon="9.007684307946636"><ele>488.0</ele><time>2026-04-29T14:34:00.189Z</time></trkpt><trkpt lat="40.02039745251676" lon="9.007819690625986"><ele>487.0</ele><time>2026-04-29T14:34:01.189Z</time></trkpt><trkpt lat="40.020227456921006" lon="9.007883335381443"><ele>486.0</ele><time>2026-04-29T14:34:02.189Z</time></trkpt><trkpt lat="40.020044402626695" lon="9.007921677641932"><ele>488.0</ele><time>2026-04-29T14:34:03.189Z</time></trkpt><trkpt lat="40.01985738039369" lon="9.007995220971358"><ele>490.0</ele><time>2026-04-29T14:34:04.189Z</time></trkpt><trkpt lat="40.01966787070527" lon="9.00807371964234"><ele>492.0</ele><time>2026-04-29T14:34:05.189Z</time></trkpt><trkpt lat="40.019489548403676" lon="9.00817368931069"><ele>492.0</ele><time>2026-04-29T14:34:06.189Z</time></trkpt><trkpt lat="40.0192959470976" lon="9.00827526122376"><ele>492.0</ele><time>2026-04-29T14:34:07.189Z</time></trkpt><trkpt lat="40.01910112291035" lon="9.008388615130608"><ele>492.0</ele><time>2026-04-29T14:34:08.189Z</time></trkpt><trkpt lat="40.018904514967694" lon="9.008516373182738"><ele>491.66666666666663</ele><time>2026-04-29T14:34:09.189Z</time></trkpt><trkpt lat="40.01870690827076" lon="9.008630810038655"><ele>491.3333333333333</ele><time>2026-04-29T14:34:10.189Z</time></trkpt><trkpt lat="40.018514222752486" lon="9.008752060321303"><ele>491.0</ele><time>2026-04-29T14:34:11.189Z</time></trkpt><trkpt lat="40.018299985122525" lon="9.008837433538455"><ele>491.0</ele><time>2026-04-29T14:34:12.189Z</time></trkpt><trkpt lat="40.01808987195537" lon="9.00890752375769"><ele>491.0</ele><time>2026-04-29T14:34:13.189Z</time></trkpt><trkpt lat="40.0178781256714" lon="9.008962033969112"><ele>491.0</ele><time>2026-04-29T14:34:14.189Z</time></trkpt><trkpt lat="40.01765836611105" lon="9.009021465281203"><ele>491.3333333333333</ele><time>2026-04-29T14:34:15.189Z</time></trkpt><trkpt lat="40.01744668555134" lon="9.00907848292869"><ele>491.66666666666663</ele><time>2026-04-29T14:34:16.189Z</time></trkpt><trkpt lat="40.01723057144429" lon="9.009144388990585"><ele>492.0</ele><time>2026-04-29T14:34:17.189Z</time></trkpt><trkpt lat="40.01701619899498" lon="9.00920468616329"><ele>488.33333333333337</ele><time>2026-04-29T14:34:18.189Z</time></trkpt><trkpt lat="40.01679792062019" lon="9.009277076721247"><ele>484.6666666666667</ele><time>2026-04-29T14:34:19.189Z</time></trkpt><trkpt lat="40.016584000139034" lon="9.009341161812873"><ele>481.0</ele><time>2026-04-29T14:34:20.189Z</time></trkpt><trkpt lat="40.01637653108534" lon="9.009418745674404"><ele>481.0</ele><time>2026-04-29T14:34:21.189Z</time></trkpt><trkpt lat="40.016154636117946" lon="9.009467584512702"><ele>481.0</ele><time>2026-04-29T14:34:22.189Z</time></trkpt><trkpt lat="40.015954656569754" lon="9.0095000941671"><ele>481.0</ele><time>2026-04-29T14:34:23.189Z</time></trkpt><trkpt lat="40.01576799856455" lon="9.00953061295855"><ele>482.33333333333337</ele><time>2026-04-29T14:34:24.189Z</time></trkpt><trkpt lat="40.01560529445685" lon="9.009606284102539"><ele>483.66666666666663</ele><time>2026-04-29T14:34:25.189Z</time></trkpt><trkpt lat="40.01544450719343" lon="9.009743255261276"><ele>485.0</ele><time>2026-04-29T14:34:26.189Z</time></trkpt><trkpt lat="40.0153232003012" lon="9.009953642184062"><ele>481.66666666666663</ele><time>2026-04-29T14:34:27.189Z</time></trkpt><trkpt lat="40.015237680034666" lon="9.010191606451889"><ele>478.33333333333337</ele><time>2026-04-29T14:34:28.189Z</time></trkpt><trkpt lat="40.01515242744881" lon="9.010459518773708"><ele>475.0</ele><time>2026-04-29T14:34:29.189Z</time></trkpt><trkpt lat="40.01504534111064" lon="9.010693752848516"><ele>478.6666666666667</ele><time>2026-04-29T14:34:30.189Z</time></trkpt><trkpt lat="40.014926254704854" lon="9.010932939352031"><ele>482.33333333333337</ele><time>2026-04-29T14:34:31.189Z</time></trkpt><trkpt lat="40.0148407728379" lon="9.011185402697869"><ele>486.0</ele><time>2026-04-29T14:34:32.189Z</time></trkpt><trkpt lat="40.01477749025998" lon="9.011458744099654"><ele>486.0</ele><time>2026-04-29T14:34:33.189Z</time></trkpt><trkpt lat="40.014727174975704" lon="9.011729106101141"><ele>486.0</ele><time>2026-04-29T14:34:34.189Z</time></trkpt><trkpt lat="40.014685365583574" lon="9.011978764175106"><ele>486.0</ele><time>2026-04-29T14:34:35.189Z</time></trkpt><trkpt lat="40.01465541238145" lon="9.012200679761023"><ele>486.0</ele><time>2026-04-29T14:34:36.189Z</time></trkpt><trkpt lat="40.0146808721041" lon="9.012405123663983"><ele>486.0</ele><time>2026-04-29T14:34:37.189Z</time></trkpt><trkpt lat="40.01475979536882" lon="9.012597831774904"><ele>486.0</ele><time>2026-04-29T14:34:38.189Z</time></trkpt><trkpt lat="40.01486101195414" lon="9.012801675774163"><ele>483.0</ele><time>2026-04-29T14:34:39.189Z</time></trkpt><trkpt lat="40.014852601046954" lon="9.013030494502605"><ele>480.0</ele><time>2026-04-29T14:34:40.189Z</time></trkpt><trkpt lat="40.0147495756147" lon="9.013258746276863"><ele>477.0</ele><time>2026-04-29T14:34:41.189Z</time></trkpt><trkpt lat="40.01461074451447" lon="9.013464163231253"><ele>474.66666666666663</ele><time>2026-04-29T14:34:42.189Z</time></trkpt><trkpt lat="40.01446490674542" lon="9.013637253763406"><ele>472.3333333333333</ele><time>2026-04-29T14:34:43.189Z</time></trkpt><trkpt lat="40.014310629562964" lon="9.013789873412408"><ele>470.0</ele><time>2026-04-29T14:34:44.19Z</time></trkpt><trkpt lat="40.01415123668523" lon="9.013879442042922"><ele>470.0</ele><time>2026-04-29T14:34:45.19Z</time></trkpt><trkpt lat="40.014002354749884" lon="9.01391609867764"><ele>470.0</ele><time>2026-04-29T14:34:46.19Z</time></trkpt><trkpt lat="40.013891716647464" lon="9.014028381547405"><ele>470.0</ele><time>2026-04-29T14:34:47.19Z</time></trkpt><trkpt lat="40.01384757371704" lon="9.01423858200595"><ele>468.66666666666663</ele><time>2026-04-29T14:34:48.19Z</time></trkpt><trkpt lat="40.01385882473853" lon="9.014495139637935"><ele>467.33333333333337</ele><time>2026-04-29T14:34:49.19Z</time></trkpt><trkpt lat="40.013820765002876" lon="9.014717434085167"><ele>466.0</ele><time>2026-04-29T14:34:50.19Z</time></trkpt><trkpt lat="40.01370615869559" lon="9.014908860092481"><ele>465.33333333333337</ele><time>2026-04-29T14:34:51.19Z</time></trkpt><trkpt lat="40.01355010739026" lon="9.015066322479898"><ele>464.66666666666663</ele><time>2026-04-29T14:34:52.19Z</time></trkpt><trkpt lat="40.013390222440485" lon="9.015215565721244"><ele>464.0</ele><time>2026-04-29T14:34:53.19Z</time></trkpt><trkpt lat="40.013242904880414" lon="9.015378321852076"><ele>464.0</ele><time>2026-04-29T14:34:54.19Z</time></trkpt><trkpt lat="40.01312180614073" lon="9.015538712516715"><ele>464.0</ele><time>2026-04-29T14:34:55.19Z</time></trkpt><trkpt lat="40.01304661812147" lon="9.015711754560497"><ele>464.0</ele><time>2026-04-29T14:34:56.19Z</time></trkpt><trkpt lat="40.013052276017824" lon="9.015939326737273"><ele>468.66666666666663</ele><time>2026-04-29T14:34:57.191Z</time></trkpt><trkpt lat="40.013102322361306" lon="9.016187902392165"><ele>473.33333333333337</ele><time>2026-04-29T14:34:58.191Z</time></trkpt><trkpt lat="40.01312479911467" lon="9.016414800500508"><ele>478.0</ele><time>2026-04-29T14:34:59.191Z</time></trkpt><trkpt lat="40.013099138267215" lon="9.016601630128969"><ele>477.0</ele><time>2026-04-29T14:35:00.191Z</time></trkpt><trkpt lat="40.012975431072476" lon="9.0167727283642"><ele>476.0</ele><time>2026-04-29T14:35:01.191Z</time></trkpt><trkpt lat="40.01279897183874" lon="9.016916417766096"><ele>475.0</ele><time>2026-04-29T14:35:02.191Z</time></trkpt><trkpt lat="40.0126080850137" lon="9.01698730232708"><ele>475.6666666666667</ele><time>2026-04-29T14:35:03.191Z</time></trkpt><trkpt lat="40.01239364528016" lon="9.016977805902435"><ele>476.33333333333337</ele><time>2026-04-29T14:35:04.191Z</time></trkpt><trkpt lat="40.01219195394862" lon="9.016991827263524"><ele>477.0</ele><time>2026-04-29T14:35:05.191Z</time></trkpt><trkpt lat="40.01197896844345" lon="9.01700254354847"><ele>477.0</ele><time>2026-04-29T14:35:06.191Z</time></trkpt><trkpt lat="40.011786723914256" lon="9.017040273673347"><ele>477.0</ele><time>2026-04-29T14:35:07.191Z</time></trkpt><trkpt lat="40.01160730587158" lon="9.017101899004627"><ele>477.0</ele><time>2026-04-29T14:35:08.191Z</time></trkpt><trkpt lat="40.01144012576207" lon="9.017232393114016"><ele>478.33333333333337</ele><time>2026-04-29T14:35:09.191Z</time></trkpt><trkpt lat="40.011302647345495" lon="9.017431356252283"><ele>479.6666666666667</ele><time>2026-04-29T14:35:10.191Z</time></trkpt><trkpt lat="40.01121862805977" lon="9.017683605528623"><ele>481.0</ele><time>2026-04-29T14:35:11.191Z</time></trkpt><trkpt lat="40.01115304317222" lon="9.017935828211694"><ele>476.6666666666667</ele><time>2026-04-29T14:35:12.191Z</time></trkpt><trkpt lat="40.01107989219538" lon="9.018181695183303"><ele>472.33333333333337</ele><time>2026-04-29T14:35:13.191Z</time></trkpt><trkpt lat="40.010986888158385" lon="9.018427509506223"><ele>468.0</ele><time>2026-04-29T14:35:14.191Z</time></trkpt><trkpt lat="40.01090277566405" lon="9.018669440058009"><ele>463.66666666666663</ele><time>2026-04-29T14:35:15.191Z</time></trkpt><trkpt lat="40.01082635342961" lon="9.018886355173203"><ele>459.3333333333333</ele><time>2026-04-29T14:35:16.191Z</time></trkpt><trkpt lat="40.010704822241" lon="9.019065277340212"><ele>455.0</ele><time>2026-04-29T14:35:17.191Z</time></trkpt><trkpt lat="40.01051112286489" lon="9.019177844948178"><ele>452.66666666666663</ele><time>2026-04-29T14:35:18.191Z</time></trkpt><trkpt lat="40.010321550346724" lon="9.01931932181173"><ele>450.33333333333337</ele><time>2026-04-29T14:35:19.191Z</time></trkpt><trkpt lat="40.01011971892244" lon="9.019434024127928"><ele>448.0</ele><time>2026-04-29T14:35:20.191Z</time></trkpt><trkpt lat="40.00991739403287" lon="9.019560311394935"><ele>443.6666666666667</ele><time>2026-04-29T14:35:21.191Z</time></trkpt><trkpt lat="40.009716371664034" lon="9.019700293586157"><ele>439.33333333333337</ele><time>2026-04-29T14:35:22.191Z</time></trkpt><trkpt lat="40.00952446225844" lon="9.019839295057626"><ele>435.0</ele><time>2026-04-29T14:35:23.191Z</time></trkpt><trkpt lat="40.0093326901784" lon="9.019973309241774"><ele>432.0</ele><time>2026-04-29T14:35:24.191Z</time></trkpt><trkpt lat="40.00914446186028" lon="9.02010498506207"><ele>429.0</ele><time>2026-04-29T14:35:25.191Z</time></trkpt><trkpt lat="40.008946302149525" lon="9.020232016730505"><ele>426.0</ele><time>2026-04-29T14:35:26.191Z</time></trkpt><trkpt lat="40.00876916928137" lon="9.020369935622975"><ele>426.0</ele><time>2026-04-29T14:35:27.191Z</time></trkpt><trkpt lat="40.008605447503044" lon="9.020532453608034"><ele>426.0</ele><time>2026-04-29T14:35:28.191Z</time></trkpt><trkpt lat="40.0084667140935" lon="9.020684214635335"><ele>426.0</ele><time>2026-04-29T14:35:29.191Z</time></trkpt><trkpt lat="40.00836774005309" lon="9.020841041652345"><ele>429.0</ele><time>2026-04-29T14:35:30.191Z</time></trkpt><trkpt lat="40.008329287823265" lon="9.021041017138607"><ele>432.0</ele><time>2026-04-29T14:35:31.191Z</time></trkpt><trkpt lat="40.00836601568066" lon="9.021254841237493"><ele>435.0</ele><time>2026-04-29T14:35:32.191Z</time></trkpt><trkpt lat="40.00845867153389" lon="9.021465894815003"><ele>434.0</ele><time>2026-04-29T14:35:33.191Z</time></trkpt><trkpt lat="40.00856790574505" lon="9.021687639485767"><ele>433.0</ele><time>2026-04-29T14:35:34.191Z</time></trkpt><trkpt lat="40.00867257089655" lon="9.021912219985731"><ele>432.0</ele><time>2026-04-29T14:35:35.191Z</time></trkpt><trkpt lat="40.00872514687605" lon="9.022132227263848"><ele>432.0</ele><time>2026-04-29T14:35:36.191Z</time></trkpt><trkpt lat="40.00871106153188" lon="9.022361180505944"><ele>432.0</ele><time>2026-04-29T14:35:37.191Z</time></trkpt><trkpt lat="40.008693383616354" lon="9.022596697213599"><ele>432.0</ele><time>2026-04-29T14:35:38.191Z</time></trkpt><trkpt lat="40.008722295262814" lon="9.022808869974414"><ele>430.66666666666663</ele><time>2026-04-29T14:35:39.191Z</time></trkpt><trkpt lat="40.00882975548108" lon="9.023004751199913"><ele>429.3333333333333</ele><time>2026-04-29T14:35:40.191Z</time></trkpt><trkpt lat="40.00895373510514" lon="9.023204723449423"><ele>428.0</ele><time>2026-04-29T14:35:41.191Z</time></trkpt><trkpt lat="40.009093343382986" lon="9.023416791707682"><ele>427.66666666666663</ele><time>2026-04-29T14:35:42.191Z</time></trkpt><trkpt lat="40.009233735516695" lon="9.023639005748553"><ele>427.33333333333337</ele><time>2026-04-29T14:35:43.191Z</time></trkpt><trkpt lat="40.0093727911738" lon="9.023857291098926"><ele>427.0</ele><time>2026-04-29T14:35:44.191Z</time></trkpt><trkpt lat="40.00950956189753" lon="9.024066272525687"><ele>425.6666666666667</ele><time>2026-04-29T14:35:45.191Z</time></trkpt><trkpt lat="40.009631119243" lon="9.024259352496353"><ele>424.33333333333337</ele><time>2026-04-29T14:35:46.191Z</time></trkpt><trkpt lat="40.009727982016614" lon="9.024429500036229"><ele>423.0</ele><time>2026-04-29T14:35:47.191Z</time></trkpt><trkpt lat="40.00976545726504" lon="9.024590670196792"><ele>423.0</ele><time>2026-04-29T14:35:48.191Z</time></trkpt><trkpt lat="40.00971247924479" lon="9.02476084913174"><ele>423.0</ele><time>2026-04-29T14:35:49.191Z</time></trkpt><trkpt lat="40.009612835390314" lon="9.024923782922386"><ele>423.0</ele><time>2026-04-29T14:35:50.191Z</time></trkpt><trkpt lat="40.00950522830701" lon="9.02511756948957"><ele>423.33333333333337</ele><time>2026-04-29T14:35:51.191Z</time></trkpt><trkpt lat="40.00941503969478" lon="9.025333550144637"><ele>423.6666666666667</ele><time>2026-04-29T14:35:52.191Z</time></trkpt><trkpt lat="40.00939373575619" lon="9.025568980541484"><ele>424.0</ele><time>2026-04-29T14:35:53.191Z</time></trkpt><trkpt lat="40.00942229223313" lon="9.025822026071245"><ele>424.6666666666667</ele><time>2026-04-29T14:35:54.191Z</time></trkpt><trkpt lat="40.00944664150047" lon="9.026078139774004"><ele>425.33333333333337</ele><time>2026-04-29T14:35:55.191Z</time></trkpt><trkpt lat="40.009458915587004" lon="9.026340243140979"><ele>426.0</ele><time>2026-04-29T14:35:56.191Z</time></trkpt><trkpt lat="40.009473185385815" lon="9.026596765865454"><ele>427.33333333333337</ele><time>2026-04-29T14:35:57.191Z</time></trkpt><trkpt lat="40.00949913675045" lon="9.02685220965628"><ele>428.6666666666667</ele><time>2026-04-29T14:35:58.191Z</time></trkpt><trkpt lat="40.00952966568563" lon="9.027113411839023"><ele>430.0</ele><time>2026-04-29T14:35:59.191Z</time></trkpt><trkpt lat="40.009558464895925" lon="9.027379083403071"><ele>429.6666666666667</ele><time>2026-04-29T14:36:00.191Z</time></trkpt><trkpt lat="40.0095732602158" lon="9.027646883837535"><ele>429.33333333333337</ele><time>2026-04-29T14:36:01.19Z</time></trkpt><trkpt lat="40.00958056751662" lon="9.027919149294467"><ele>429.0</ele><time>2026-04-29T14:36:02.19Z</time></trkpt><trkpt lat="40.00957686735275" lon="9.028185475058134"><ele>429.33333333333337</ele><time>2026-04-29T14:36:03.19Z</time></trkpt><trkpt lat="40.00953091442356" lon="9.02843911963994"><ele>429.6666666666667</ele><time>2026-04-29T14:36:04.19Z</time></trkpt><trkpt lat="40.009449610545744" lon="9.028681277494686"><ele>430.0</ele><time>2026-04-29T14:36:05.19Z</time></trkpt><trkpt lat="40.00935743749138" lon="9.028917665353475"><ele>431.0</ele><time>2026-04-29T14:36:06.19Z</time></trkpt><trkpt lat="40.00926829810454" lon="9.029153819353143"><ele>432.0</ele><time>2026-04-29T14:36:07.19Z</time></trkpt><trkpt lat="40.00918145276337" lon="9.029395455827151"><ele>433.0</ele><time>2026-04-29T14:36:08.19Z</time></trkpt><trkpt lat="40.009107390516114" lon="9.02960766833298"><ele>435.0</ele><time>2026-04-29T14:36:09.19Z</time></trkpt><trkpt lat="40.00907358442669" lon="9.029828793324688"><ele>437.0</ele><time>2026-04-29T14:36:10.19Z</time></trkpt><trkpt lat="40.00910601226727" lon="9.030069602799786"><ele>439.0</ele><time>2026-04-29T14:36:11.19Z</time></trkpt><trkpt lat="40.00916999163892" lon="9.030326514102523"><ele>439.0</ele><time>2026-04-29T14:36:12.19Z</time></trkpt><trkpt lat="40.009244584984245" lon="9.030583324359153"><ele>439.0</ele><time>2026-04-29T14:36:13.19Z</time></trkpt><trkpt lat="40.00932114044157" lon="9.03085290117002"><ele>439.0</ele><time>2026-04-29T14:36:14.19Z</time></trkpt><trkpt lat="40.009391932291145" lon="9.031128304811341"><ele>440.0</ele><time>2026-04-29T14:36:15.19Z</time></trkpt><trkpt lat="40.00946205936006" lon="9.031405453457884"><ele>441.0</ele><time>2026-04-29T14:36:16.19Z</time></trkpt><trkpt lat="40.00953659877277" lon="9.031691671453526"><ele>442.0</ele><time>2026-04-29T14:36:17.19Z</time></trkpt><trkpt lat="40.009602985683756" lon="9.031974277650505"><ele>443.0</ele><time>2026-04-29T14:36:18.19Z</time></trkpt><trkpt lat="40.00967850343807" lon="9.03225446284919"><ele>443.5</ele><time>2026-04-29T14:36:19.19Z</time></trkpt><trkpt lat="40.0097563411098" lon="9.032539500612547"><ele>444.0</ele><time>2026-04-29T14:36:20.19Z</time></trkpt><trkpt lat="40.00982662281898" lon="9.032825536679413"><ele>444.0</ele><time>2026-04-29T14:36:21.19Z</time></trkpt><trkpt lat="40.009901895501386" lon="9.03310417899297"><ele>444.0</ele><time>2026-04-29T14:36:22.19Z</time></trkpt><trkpt lat="40.00997791176829" lon="9.033385540860394"><ele>443.0</ele><time>2026-04-29T14:36:23.19Z</time></trkpt><trkpt lat="40.01004981302201" lon="9.0336603867691"><ele>442.0</ele><time>2026-04-29T14:36:24.19Z</time></trkpt><trkpt lat="40.01012394964402" lon="9.033926545000487"><ele>441.0</ele><time>2026-04-29T14:36:25.19Z</time></trkpt><trkpt lat="40.01017964698377" lon="9.03417756375915"><ele>441.0</ele><time>2026-04-29T14:36:26.19Z</time></trkpt><trkpt lat="40.01018610877643" lon="9.0344167221979"><ele>441.0</ele><time>2026-04-29T14:36:27.19Z</time></trkpt><trkpt lat="40.01014062974959" lon="9.03465412463167"><ele>441.0</ele><time>2026-04-29T14:36:28.19Z</time></trkpt><trkpt lat="40.010022728011435" lon="9.034863317103396"><ele>441.66666666666663</ele><time>2026-04-29T14:36:29.19Z</time></trkpt><trkpt lat="40.009855379894525" lon="9.035041633068017"><ele>442.3333333333333</ele><time>2026-04-29T14:36:30.19Z</time></trkpt><trkpt lat="40.00966968552395" lon="9.035192497279857"><ele>443.0</ele><time>2026-04-29T14:36:31.19Z</time></trkpt><trkpt lat="40.00947622687966" lon="9.035331820186345"><ele>443.0</ele><time>2026-04-29T14:36:32.19Z</time></trkpt><trkpt lat="40.009267800504915" lon="9.035465265798761"><ele>443.0</ele><time>2026-04-29T14:36:33.19Z</time></trkpt><trkpt lat="40.00906163336192" lon="9.03561337995608"><ele>444.3333333333333</ele><time>2026-04-29T14:36:34.19Z</time></trkpt><trkpt lat="40.008892311982315" lon="9.035794888813218"><ele>445.66666666666663</ele><time>2026-04-29T14:36:35.19Z</time></trkpt><trkpt lat="40.008717337003574" lon="9.035969637315537"><ele>447.0</ele><time>2026-04-29T14:36:36.19Z</time></trkpt><trkpt lat="40.00854770652774" lon="9.036139737469403"><ele>447.0</ele><time>2026-04-29T14:36:37.19Z</time></trkpt><trkpt lat="40.00837752679433" lon="9.036321720563759"><ele>447.0</ele><time>2026-04-29T14:36:38.19Z</time></trkpt><trkpt lat="40.00824490191352" lon="9.036532726694363"><ele>447.0</ele><time>2026-04-29T14:36:39.19Z</time></trkpt><trkpt lat="40.008147216472004" lon="9.036782546322932"><ele>446.66666666666663</ele><time>2026-04-29T14:36:40.19Z</time></trkpt><trkpt lat="40.0080472189645" lon="9.037037343221268"><ele>446.3333333333333</ele><time>2026-04-29T14:36:41.19Z</time></trkpt><trkpt lat="40.0079491874111" lon="9.037299836692862"><ele>446.0</ele><time>2026-04-29T14:36:42.19Z</time></trkpt><trkpt lat="40.007856685941874" lon="9.03757079402794"><ele>447.5</ele><time>2026-04-29T14:36:43.19Z</time></trkpt><trkpt lat="40.0077583455864" lon="9.037841300441665"><ele>449.0</ele><time>2026-04-29T14:36:44.19Z</time></trkpt><trkpt lat="40.007655008838675" lon="9.03810269326786"><ele>450.0</ele><time>2026-04-29T14:36:45.19Z</time></trkpt><trkpt lat="40.00756242235069" lon="9.038337043809328"><ele>451.0</ele><time>2026-04-29T14:36:46.19Z</time></trkpt><trkpt lat="40.00749026386495" lon="9.038523478124182"><ele>452.0</ele><time>2026-04-29T14:36:47.19Z</time></trkpt><trkpt lat="40.00742589250156" lon="9.038727834171961"><ele>452.0</ele><time>2026-04-29T14:36:48.19Z</time></trkpt><trkpt lat="40.00739554340778" lon="9.038936988456669"><ele>452.0</ele><time>2026-04-29T14:36:49.19Z</time></trkpt><trkpt lat="40.00740528812964" lon="9.039171939310307"><ele>452.0</ele><time>2026-04-29T14:36:50.191Z</time></trkpt><trkpt lat="40.00743281670611" lon="9.03941043380347"><ele>452.0</ele><time>2026-04-29T14:36:51.191Z</time></trkpt><trkpt lat="40.00747630146403" lon="9.039667048180279"><ele>452.0</ele><time>2026-04-29T14:36:52.191Z</time></trkpt><trkpt lat="40.007510061853736" lon="9.039927345967172"><ele>452.0</ele><time>2026-04-29T14:36:53.191Z</time></trkpt><trkpt lat="40.007543258856984" lon="9.040189743596875"><ele>455.66666666666663</ele><time>2026-04-29T14:36:54.191Z</time></trkpt><trkpt lat="40.007578211086916" lon="9.040459545057606"><ele>459.33333333333337</ele><time>2026-04-29T14:36:55.191Z</time></trkpt><trkpt lat="40.007612562728326" lon="9.04073259590724"><ele>463.0</ele><time>2026-04-29T14:36:56.191Z</time></trkpt><trkpt lat="40.00764317389969" lon="9.04100906300119"><ele>463.33333333333337</ele><time>2026-04-29T14:36:57.191Z</time></trkpt><trkpt lat="40.00768094087591" lon="9.041291686576837"><ele>463.66666666666663</ele><time>2026-04-29T14:36:58.191Z</time></trkpt><trkpt lat="40.007711987644306" lon="9.041573043939456"><ele>464.0</ele><time>2026-04-29T14:36:59.191Z</time></trkpt><trkpt lat="40.007731190315" lon="9.04185671602103"><ele>464.0</ele><time>2026-04-29T14:37:00.191Z</time></trkpt><trkpt lat="40.007728519562754" lon="9.042130700760877"><ele>464.0</ele><time>2026-04-29T14:37:01.191Z</time></trkpt><trkpt lat="40.00770029014975" lon="9.04240767221044"><ele>464.0</ele><time>2026-04-29T14:37:02.191Z</time></trkpt><trkpt lat="40.00765523533932" lon="9.042683795572062"><ele>465.0</ele><time>2026-04-29T14:37:03.191Z</time></trkpt><trkpt lat="40.0076085815216" lon="9.042968707533952"><ele>466.0</ele><time>2026-04-29T14:37:04.191Z</time></trkpt><trkpt lat="40.00756175107371" lon="9.04325404499065"><ele>467.0</ele><time>2026-04-29T14:37:05.191Z</time></trkpt><trkpt lat="40.00751080574179" lon="9.0435310251221"><ele>466.0</ele><time>2026-04-29T14:37:06.191Z</time></trkpt><trkpt lat="40.00742406344034" lon="9.043787994355451"><ele>465.0</ele><time>2026-04-29T14:37:07.191Z</time></trkpt><trkpt lat="40.007293049377175" lon="9.044007075874303"><ele>464.0</ele><time>2026-04-29T14:37:08.191Z</time></trkpt><trkpt lat="40.007117982745385" lon="9.044184593789435"><ele>466.0</ele><time>2026-04-29T14:37:09.191Z</time></trkpt><trkpt lat="40.006913402595174" lon="9.044304447550095"><ele>468.0</ele><time>2026-04-29T14:37:10.191Z</time></trkpt><trkpt lat="40.00670253739384" lon="9.04439617234896"><ele>470.0</ele><time>2026-04-29T14:37:11.191Z</time></trkpt><trkpt lat="40.00648624412216" lon="9.04448417463927"><ele>470.0</ele><time>2026-04-29T14:37:12.191Z</time></trkpt><trkpt lat="40.00626770834311" lon="9.044575578613534"><ele>470.0</ele><time>2026-04-29T14:37:13.191Z</time></trkpt><trkpt lat="40.006049619340104" lon="9.044673325480202"><ele>470.0</ele><time>2026-04-29T14:37:14.191Z</time></trkpt><trkpt lat="40.00583269321544" lon="9.044770994627463"><ele>470.0</ele><time>2026-04-29T14:37:15.191Z</time></trkpt><trkpt lat="40.00561599483378" lon="9.044867311077562"><ele>475.0</ele><time>2026-04-29T14:37:16.191Z</time></trkpt><trkpt lat="40.00539805952193" lon="9.044963413256728"><ele>480.0</ele><time>2026-04-29T14:37:17.191Z</time></trkpt><trkpt lat="40.00518429401994" lon="9.0450521740684"><ele>476.5</ele><time>2026-04-29T14:37:18.191Z</time></trkpt><trkpt lat="40.00496690779846" lon="9.045148266373593"><ele>473.0</ele><time>2026-04-29T14:37:19.191Z</time></trkpt><trkpt lat="40.004754908526934" lon="9.045241480613079"><ele>473.0</ele><time>2026-04-29T14:37:20.191Z</time></trkpt><trkpt lat="40.004538468354376" lon="9.04533874251522"><ele>473.0</ele><time>2026-04-29T14:37:21.191Z</time></trkpt><trkpt lat="40.004321304698465" lon="9.045434399740024"><ele>474.0</ele><time>2026-04-29T14:37:22.191Z</time></trkpt><trkpt lat="40.00410675415078" lon="9.045529907586241"><ele>475.0</ele><time>2026-04-29T14:37:23.191Z</time></trkpt><trkpt lat="40.00389067544751" lon="9.045623510241546"><ele>475.0</ele><time>2026-04-29T14:37:24.191Z</time></trkpt><trkpt lat="40.003695720804586" lon="9.045713051762299"><ele>475.0</ele><time>2026-04-29T14:37:25.191Z</time></trkpt><trkpt lat="40.00352120533332" lon="9.045802985828699"><ele>475.0</ele><time>2026-04-29T14:37:26.191Z</time></trkpt><trkpt lat="40.00336552730729" lon="9.045940277076026"><ele>476.0</ele><time>2026-04-29T14:37:27.191Z</time></trkpt><trkpt lat="40.00323982389335" lon="9.046133765912781"><ele>477.0</ele><time>2026-04-29T14:37:28.191Z</time></trkpt><trkpt lat="40.003149518880335" lon="9.04636405069469"><ele>478.0</ele><time>2026-04-29T14:37:29.191Z</time></trkpt><trkpt lat="40.00310541955355" lon="9.046619273135589"><ele>480.33333333333337</ele><time>2026-04-29T14:37:30.191Z</time></trkpt><trkpt lat="40.00310763068893" lon="9.046872938342737"><ele>482.66666666666663</ele><time>2026-04-29T14:37:31.191Z</time></trkpt><trkpt lat="40.00317314390586" lon="9.047120028545912"><ele>485.0</ele><time>2026-04-29T14:37:32.191Z</time></trkpt><trkpt lat="40.00327840380878" lon="9.047347361853237"><ele>489.3333333333333</ele><time>2026-04-29T14:37:33.191Z</time></trkpt><trkpt lat="40.00340504091625" lon="9.047565160059133"><ele>493.66666666666663</ele><time>2026-04-29T14:37:34.191Z</time></trkpt><trkpt lat="40.003518616856" lon="9.047810812445265"><ele>498.0</ele><time>2026-04-29T14:37:35.191Z</time></trkpt><trkpt lat="40.00361716427208" lon="9.048058086349135"><ele>497.33333333333337</ele><time>2026-04-29T14:37:36.191Z</time></trkpt><trkpt lat="40.00371921254586" lon="9.04830190126864"><ele>496.6666666666667</ele><time>2026-04-29T14:37:37.191Z</time></trkpt><trkpt lat="40.00383096511481" lon="9.048550901074417"><ele>496.0</ele><time>2026-04-29T14:37:38.191Z</time></trkpt><trkpt lat="40.00394419336591" lon="9.04880453503353"><ele>496.0</ele><time>2026-04-29T14:37:39.191Z</time></trkpt><trkpt lat="40.00406585464602" lon="9.04906090109892"><ele>496.0</ele><time>2026-04-29T14:37:40.191Z</time></trkpt><trkpt lat="40.00419299773149" lon="9.049310451987678"><ele>502.0</ele><time>2026-04-29T14:37:41.191Z</time></trkpt><trkpt lat="40.004325522052696" lon="9.049559219885127"><ele>508.0</ele><time>2026-04-29T14:37:42.191Z</time></trkpt><trkpt lat="40.00445782929567" lon="9.049802807127474"><ele>506.0</ele><time>2026-04-29T14:37:43.191Z</time></trkpt><trkpt lat="40.00459147715197" lon="9.05005178496144"><ele>504.0</ele><time>2026-04-29T14:37:44.191Z</time></trkpt><trkpt lat="40.00472618126066" lon="9.050301374058868"><ele>504.0</ele><time>2026-04-29T14:37:45.191Z</time></trkpt><trkpt lat="40.00485649217893" lon="9.050553944579642"><ele>504.0</ele><time>2026-04-29T14:37:46.191Z</time></trkpt><trkpt lat="40.00498999583172" lon="9.050802524131779"><ele>509.0</ele><time>2026-04-29T14:37:47.191Z</time></trkpt><trkpt lat="40.00512734206156" lon="9.051059351197008"><ele>514.0</ele><time>2026-04-29T14:37:48.19Z</time></trkpt><trkpt lat="40.00526150627457" lon="9.051314017940955"><ele>514.0</ele><time>2026-04-29T14:37:49.19Z</time></trkpt><trkpt lat="40.00540182264239" lon="9.051567190250655"><ele>514.0</ele><time>2026-04-29T14:37:50.19Z</time></trkpt><trkpt lat="40.005557729788165" lon="9.051807120145451"><ele>515.0</ele><time>2026-04-29T14:37:51.19Z</time></trkpt><trkpt lat="40.00573179213184" lon="9.052020792285145"><ele>516.0</ele><time>2026-04-29T14:37:52.19Z</time></trkpt><trkpt lat="40.00591909843307" lon="9.052220043099018"><ele>519.0</ele><time>2026-04-29T14:37:53.19Z</time></trkpt><trkpt lat="40.00611560266747" lon="9.052404257924485"><ele>522.0</ele><time>2026-04-29T14:37:54.19Z</time></trkpt><trkpt lat="40.00631154852357" lon="9.05258524669293"><ele>522.0</ele><time>2026-04-29T14:37:55.19Z</time></trkpt><trkpt lat="40.0065061730621" lon="9.052773032720404"><ele>522.0</ele><time>2026-04-29T14:37:56.19Z</time></trkpt><trkpt lat="40.00669863590458" lon="9.052959154411626"><ele>527.5</ele><time>2026-04-29T14:37:57.19Z</time></trkpt><trkpt lat="40.00689239602035" lon="9.053147443413188"><ele>533.0</ele><time>2026-04-29T14:37:58.19Z</time></trkpt><trkpt lat="40.00708627514632" lon="9.053339011539084"><ele>533.5</ele><time>2026-04-29T14:37:59.19Z</time></trkpt><trkpt lat="40.007283868768724" lon="9.053529844006393"><ele>534.0</ele><time>2026-04-29T14:38:00.19Z</time></trkpt><trkpt lat="40.00747072992429" lon="9.053724643563239"><ele>536.0</ele><time>2026-04-29T14:38:01.19Z</time></trkpt><trkpt lat="40.00763320929625" lon="9.053944641997557"><ele>538.0</ele><time>2026-04-29T14:38:02.19Z</time></trkpt><trkpt lat="40.007770872655605" lon="9.054196527257492"><ele>538.0</ele><time>2026-04-29T14:38:03.19Z</time></trkpt><trkpt lat="40.00789826986226" lon="9.054459645052185"><ele>538.0</ele><time>2026-04-29T14:38:04.19Z</time></trkpt><trkpt lat="40.0080265575623" lon="9.054723801125652"><ele>538.0</ele><time>2026-04-29T14:38:05.19Z</time></trkpt><trkpt lat="40.0081553729418" lon="9.054982386725356"><ele>538.0</ele><time>2026-04-29T14:38:06.19Z</time></trkpt><trkpt lat="40.00828344006038" lon="9.055238961039656"><ele>543.5</ele><time>2026-04-29T14:38:07.19Z</time></trkpt><trkpt lat="40.00841120505847" lon="9.055496362806277"><ele>549.0</ele><time>2026-04-29T14:38:08.19Z</time></trkpt><trkpt lat="40.00853788045361" lon="9.055754183171285"><ele>549.5</ele><time>2026-04-29T14:38:09.19Z</time></trkpt><trkpt lat="40.008667975774614" lon="9.056016599356978"><ele>550.0</ele><time>2026-04-29T14:38:10.19Z</time></trkpt><trkpt lat="40.00879681697476" lon="9.056278404864685"><ele>550.0</ele><time>2026-04-29T14:38:11.19Z</time></trkpt><trkpt lat="40.00892331442519" lon="9.056540943262643"><ele>550.0</ele><time>2026-04-29T14:38:12.19Z</time></trkpt><trkpt lat="40.009051011618666" lon="9.056805066791819"><ele>553.5</ele><time>2026-04-29T14:38:13.19Z</time></trkpt><trkpt lat="40.009178870003474" lon="9.057067993505274"><ele>557.0</ele><time>2026-04-29T14:38:14.19Z</time></trkpt><trkpt lat="40.00930687547372" lon="9.05732314887499"><ele>557.0</ele><time>2026-04-29T14:38:15.19Z</time></trkpt><trkpt lat="40.0094332903225" lon="9.057582718211512"><ele>557.0</ele><time>2026-04-29T14:38:16.19Z</time></trkpt><trkpt lat="40.00955368836959" lon="9.057835140259005"><ele>557.0</ele><time>2026-04-29T14:38:17.19Z</time></trkpt><trkpt lat="40.009658657015336" lon="9.058068792857663"><ele>557.0</ele><time>2026-04-29T14:38:18.19Z</time></trkpt><trkpt lat="40.00974424149567" lon="9.058298584039736"><ele>557.0</ele><time>2026-04-29T14:38:19.19Z</time></trkpt><trkpt lat="40.00977826809476" lon="9.058557077783108"><ele>557.0</ele><time>2026-04-29T14:38:20.19Z</time></trkpt><trkpt lat="40.009773377625734" lon="9.058817118802084"><ele>557.0</ele><time>2026-04-29T14:38:21.19Z</time></trkpt><trkpt lat="40.009738114598164" lon="9.059071108436994"><ele>557.0</ele><time>2026-04-29T14:38:22.19Z</time></trkpt><trkpt lat="40.00967272860328" lon="9.059326017476716"><ele>561.0</ele><time>2026-04-29T14:38:23.19Z</time></trkpt><trkpt lat="40.00958069110654" lon="9.059569044678392"><ele>565.0</ele><time>2026-04-29T14:38:24.19Z</time></trkpt><trkpt lat="40.00947895847072" lon="9.05981612156997"><ele>569.0</ele><time>2026-04-29T14:38:25.19Z</time></trkpt><trkpt lat="40.00937340513471" lon="9.060077401557326"><ele>574.0</ele><time>2026-04-29T14:38:26.19Z</time></trkpt><trkpt lat="40.009282468225074" lon="9.060350970142347"><ele>579.0</ele><time>2026-04-29T14:38:27.19Z</time></trkpt><trkpt lat="40.009197734357095" lon="9.06063184759098"><ele>576.0</ele><time>2026-04-29T14:38:28.19Z</time></trkpt><trkpt lat="40.00910770184231" lon="9.06090841070672"><ele>573.0</ele><time>2026-04-29T14:38:29.19Z</time></trkpt><trkpt lat="40.00900927920484" lon="9.061178551068249"><ele>573.0</ele><time>2026-04-29T14:38:30.19Z</time></trkpt><trkpt lat="40.00891565873832" lon="9.061454380967774"><ele>573.0</ele><time>2026-04-29T14:38:31.19Z</time></trkpt><trkpt lat="40.00881184363035" lon="9.061713071736708"><ele>575.6666666666666</ele><time>2026-04-29T14:38:32.19Z</time></trkpt><trkpt lat="40.00867718152291" lon="9.061933910201962"><ele>578.3333333333333</ele><time>2026-04-29T14:38:33.19Z</time></trkpt><trkpt lat="40.00850856997389" lon="9.062117455853238"><ele>581.0</ele><time>2026-04-29T14:38:34.19Z</time></trkpt><trkpt lat="40.00831986111551" lon="9.062259499416092"><ele>581.0</ele><time>2026-04-29T14:38:35.19Z</time></trkpt><trkpt lat="40.00811845901925" lon="9.06239588833821"><ele>581.0</ele><time>2026-04-29T14:38:36.19Z</time></trkpt><trkpt lat="40.00791280145618" lon="9.062533847662435"><ele>585.5</ele><time>2026-04-29T14:38:37.19Z</time></trkpt><trkpt lat="40.007705390792786" lon="9.062672497366595"><ele>590.0</ele><time>2026-04-29T14:38:38.19Z</time></trkpt><trkpt lat="40.0074963168493" lon="9.062809102039722"><ele>591.3333333333333</ele><time>2026-04-29T14:38:39.19Z</time></trkpt><trkpt lat="40.00730250260398" lon="9.062947076221544"><ele>592.6666666666666</ele><time>2026-04-29T14:38:40.19Z</time></trkpt><trkpt lat="40.00712537292588" lon="9.063088186303695"><ele>594.0</ele><time>2026-04-29T14:38:41.19Z</time></trkpt><trkpt lat="40.006979819376696" lon="9.063268763788027"><ele>596.6666666666666</ele><time>2026-04-29T14:38:42.19Z</time></trkpt><trkpt lat="40.00686165527254" lon="9.063490576482177"><ele>599.3333333333333</ele><time>2026-04-29T14:38:43.19Z</time></trkpt><trkpt lat="40.00678085626338" lon="9.063735992346764"><ele>602.0</ele><time>2026-04-29T14:38:44.19Z</time></trkpt><trkpt lat="40.00675519188109" lon="9.064008875427783"><ele>604.0</ele><time>2026-04-29T14:38:45.19Z</time></trkpt><trkpt lat="40.00679668378316" lon="9.064273574196976"><ele>606.0</ele><time>2026-04-29T14:38:46.19Z</time></trkpt><trkpt lat="40.006868336856016" lon="9.06453343795466"><ele>608.0</ele><time>2026-04-29T14:38:47.19Z</time></trkpt><trkpt lat="40.00698084001229" lon="9.064762352179127"><ele>608.0</ele><time>2026-04-29T14:38:48.19Z</time></trkpt><trkpt lat="40.00712909535087" lon="9.064941759293006"><ele>608.0</ele><time>2026-04-29T14:38:49.19Z</time></trkpt><trkpt lat="40.007306135438455" lon="9.06505944605257"><ele>608.0</ele><time>2026-04-29T14:38:50.19Z</time></trkpt><trkpt lat="40.00752696991486" lon="9.06513389657719"><ele>609.5</ele><time>2026-04-29T14:38:51.19Z</time></trkpt><trkpt lat="40.00774250072196" lon="9.065207795541498"><ele>611.0</ele><time>2026-04-29T14:38:52.19Z</time></trkpt><trkpt lat="40.007972738211606" lon="9.065304131255267"><ele>611.0</ele><time>2026-04-29T14:38:53.19Z</time></trkpt><trkpt lat="40.008205952208264" lon="9.06540045704338"><ele>611.0</ele><time>2026-04-29T14:38:54.19Z</time></trkpt><trkpt lat="40.008439541968464" lon="9.06549629500172"><ele>613.0</ele><time>2026-04-29T14:38:55.19Z</time></trkpt><trkpt lat="40.00867787228239" lon="9.065580801368231"><ele>615.0</ele><time>2026-04-29T14:38:56.191Z</time></trkpt><trkpt lat="40.008917517395034" lon="9.065680501501932"><ele>617.0</ele><time>2026-04-29T14:38:57.192Z</time></trkpt><trkpt lat="40.00915968087828" lon="9.065777100732305"><ele>619.0</ele><time>2026-04-29T14:38:58.192Z</time></trkpt><trkpt lat="40.009402701464126" lon="9.065868423720817"><ele>615.0</ele><time>2026-04-29T14:38:59.192Z</time></trkpt><trkpt lat="40.009643377738435" lon="9.065962379811095"><ele>611.0</ele><time>2026-04-29T14:39:00.191Z</time></trkpt><trkpt lat="40.00988209070371" lon="9.06606227391674"><ele>613.5</ele><time>2026-04-29T14:39:01.191Z</time></trkpt><trkpt lat="40.01012065501652" lon="9.066179521600938"><ele>616.0</ele><time>2026-04-29T14:39:02.192Z</time></trkpt><trkpt lat="40.010352998188615" lon="9.06631151537451"><ele>616.0</ele><time>2026-04-29T14:39:03.192Z</time></trkpt><trkpt lat="40.010578400417586" lon="9.066468000237922"><ele>616.0</ele><time>2026-04-29T14:39:04.192Z</time></trkpt><trkpt lat="40.01079259114868" lon="9.066643562875523"><ele>616.5</ele><time>2026-04-29T14:39:05.192Z</time></trkpt><trkpt lat="40.01099516968766" lon="9.06683322544345"><ele>617.0</ele><time>2026-04-29T14:39:06.192Z</time></trkpt><trkpt lat="40.01119141735696" lon="9.067032688078521"><ele>617.0</ele><time>2026-04-29T14:39:07.192Z</time></trkpt><trkpt lat="40.011373647164056" lon="9.067252323704073"><ele>617.0</ele><time>2026-04-29T14:39:08.191Z</time></trkpt><trkpt lat="40.01154301491025" lon="9.067501995068719"><ele>619.5</ele><time>2026-04-29T14:39:09.191Z</time></trkpt><trkpt lat="40.01170720712989" lon="9.06775856503099"><ele>622.0</ele><time>2026-04-29T14:39:10.191Z</time></trkpt><trkpt lat="40.0118730076578" lon="9.06801461941546"><ele>622.0</ele><time>2026-04-29T14:39:11.191Z</time></trkpt><trkpt lat="40.01204022868883" lon="9.068269413923568"><ele>622.0</ele><time>2026-04-29T14:39:12.191Z</time></trkpt><trkpt lat="40.01220514459589" lon="9.068517247982497"><ele>622.5</ele><time>2026-04-29T14:39:13.191Z</time></trkpt><trkpt lat="40.012368835572005" lon="9.068753561651361"><ele>623.0</ele><time>2026-04-29T14:39:14.191Z</time></trkpt><trkpt lat="40.012516159476256" lon="9.068983911943153"><ele>617.5</ele><time>2026-04-29T14:39:15.191Z</time></trkpt><trkpt lat="40.012641609101436" lon="9.069230897066126"><ele>612.0</ele><time>2026-04-29T14:39:16.191Z</time></trkpt><trkpt lat="40.01272961987061" lon="9.069497984694765"><ele>612.0</ele><time>2026-04-29T14:39:17.191Z</time></trkpt><trkpt lat="40.01277795334794" lon="9.069791973228089"><ele>612.0</ele><time>2026-04-29T14:39:18.191Z</time></trkpt><trkpt lat="40.01279519207258" lon="9.070098478255385"><ele>609.5</ele><time>2026-04-29T14:39:19.191Z</time></trkpt><trkpt lat="40.012787325968326" lon="9.070413903254918"><ele>607.0</ele><time>2026-04-29T14:39:20.191Z</time></trkpt><trkpt lat="40.01278766570564" lon="9.070735266627592"><ele>611.0</ele><time>2026-04-29T14:39:21.191Z</time></trkpt><trkpt lat="40.01279252494262" lon="9.07106285076755"><ele>615.0</ele><time>2026-04-29T14:39:22.191Z</time></trkpt><trkpt lat="40.012804216356834" lon="9.071393319886555"><ele>615.5</ele><time>2026-04-29T14:39:23.191Z</time></trkpt><trkpt lat="40.012818297558034" lon="9.07172446159335"><ele>616.0</ele><time>2026-04-29T14:39:24.191Z</time></trkpt><trkpt lat="40.01282932017078" lon="9.072047518106922"><ele>616.0</ele><time>2026-04-29T14:39:25.191Z</time></trkpt><trkpt lat="40.01283620713083" lon="9.072361140513257"><ele>616.0</ele><time>2026-04-29T14:39:26.191Z</time></trkpt><trkpt lat="40.01283916171822" lon="9.07265791152829"><ele>613.0</ele><time>2026-04-29T14:39:27.191Z</time></trkpt><trkpt lat="40.01284449257282" lon="9.07293333086856"><ele>610.0</ele><time>2026-04-29T14:39:28.191Z</time></trkpt><trkpt lat="40.01284873081483" lon="9.07319294606476"><ele>607.0</ele><time>2026-04-29T14:39:29.191Z</time></trkpt><trkpt lat="40.01284810325766" lon="9.073437908159848"><ele>605.0</ele><time>2026-04-29T14:39:30.191Z</time></trkpt><trkpt lat="40.01284653580676" lon="9.073668197267278"><ele>603.0</ele><time>2026-04-29T14:39:31.191Z</time></trkpt><trkpt lat="40.01283366938356" lon="9.073885991777427"><ele>601.0</ele><time>2026-04-29T14:39:32.191Z</time></trkpt><trkpt lat="40.01281797251966" lon="9.074104037233374"><ele>601.3333333333334</ele><time>2026-04-29T14:39:33.191Z</time></trkpt><trkpt lat="40.012775853915336" lon="9.07433000691231"><ele>601.6666666666666</ele><time>2026-04-29T14:39:34.191Z</time></trkpt><trkpt lat="40.01270906386143" lon="9.074562387394366"><ele>602.0</ele><time>2026-04-29T14:39:35.191Z</time></trkpt><trkpt lat="40.01262860493615" lon="9.074800339826055"><ele>600.6666666666666</ele><time>2026-04-29T14:39:36.191Z</time></trkpt><trkpt lat="40.01252997297793" lon="9.075036531372312"><ele>599.3333333333334</ele><time>2026-04-29T14:39:37.191Z</time></trkpt><trkpt lat="40.01242276471105" lon="9.075277866653206"><ele>598.0</ele><time>2026-04-29T14:39:38.191Z</time></trkpt><trkpt lat="40.01231004007514" lon="9.075522307501027"><ele>600.5</ele><time>2026-04-29T14:39:39.191Z</time></trkpt><trkpt lat="40.012197810241865" lon="9.075775183973093"><ele>603.0</ele><time>2026-04-29T14:39:40.191Z</time></trkpt><trkpt lat="40.012083814013174" lon="9.076039328199084"><ele>603.0</ele><time>2026-04-29T14:39:41.191Z</time></trkpt><trkpt lat="40.01196976208123" lon="9.076296611200272"><ele>603.0</ele><time>2026-04-29T14:39:42.191Z</time></trkpt><trkpt lat="40.01185686953877" lon="9.076554046480144"><ele>604.0</ele><time>2026-04-29T14:39:43.191Z</time></trkpt><trkpt lat="40.011745538746105" lon="9.0768095388561"><ele>605.0</ele><time>2026-04-29T14:39:44.191Z</time></trkpt><trkpt lat="40.011639558381226" lon="9.077060541211887"><ele>606.0</ele><time>2026-04-29T14:39:45.191Z</time></trkpt><trkpt lat="40.01155640129171" lon="9.077315526600168"><ele>603.6666666666666</ele><time>2026-04-29T14:39:46.191Z</time></trkpt><trkpt lat="40.01152297041993" lon="9.077588079972024"><ele>601.3333333333333</ele><time>2026-04-29T14:39:47.191Z</time></trkpt><trkpt lat="40.01152287928808" lon="9.077854531518689"><ele>599.0</ele><time>2026-04-29T14:39:48.191Z</time></trkpt><trkpt lat="40.01156040629429" lon="9.078136891264144"><ele>596.5</ele><time>2026-04-29T14:39:49.191Z</time></trkpt><trkpt lat="40.011597367691984" lon="9.07843031421215"><ele>594.0</ele><time>2026-04-29T14:39:50.191Z</time></trkpt><trkpt lat="40.0116262376796" lon="9.078725187705466"><ele>594.0</ele><time>2026-04-29T14:39:51.191Z</time></trkpt><trkpt lat="40.011655167238665" lon="9.0790269773987"><ele>594.0</ele><time>2026-04-29T14:39:52.191Z</time></trkpt><trkpt lat="40.011687000863134" lon="9.079326066089104"><ele>596.0</ele><time>2026-04-29T14:39:53.191Z</time></trkpt><trkpt lat="40.01172250229205" lon="9.079619802039291"><ele>598.0</ele><time>2026-04-29T14:39:54.191Z</time></trkpt><trkpt lat="40.011758640505676" lon="9.079897830732897"><ele>600.0</ele><time>2026-04-29T14:39:55.191Z</time></trkpt><trkpt lat="40.01179529914033" lon="9.08018037696519"><ele>600.0</ele><time>2026-04-29T14:39:56.191Z</time></trkpt><trkpt lat="40.01182373214585" lon="9.080452311255153"><ele>600.0</ele><time>2026-04-29T14:39:57.191Z</time></trkpt><trkpt lat="40.011860637028214" lon="9.080723308287645"><ele>600.0</ele><time>2026-04-29T14:39:58.191Z</time></trkpt><trkpt lat="40.011915693533446" lon="9.080964650456808"><ele>599.6666666666666</ele><time>2026-04-29T14:39:59.191Z</time></trkpt><trkpt lat="40.01200916365995" lon="9.081163895592555"><ele>599.3333333333333</ele><time>2026-04-29T14:40:00.191Z</time></trkpt><trkpt lat="40.01214751072923" lon="9.08132345235465"><ele>599.0</ele><time>2026-04-29T14:40:01.191Z</time></trkpt><trkpt lat="40.01229588141688" lon="9.081462337089578"><ele>599.0</ele><time>2026-04-29T14:40:02.191Z</time></trkpt><trkpt lat="40.01245508816538" lon="9.081592117503533"><ele>599.0</ele><time>2026-04-29T14:40:03.191Z</time></trkpt><trkpt lat="40.012633394378405" lon="9.081670330520392"><ele>599.0</ele><time>2026-04-29T14:40:04.191Z</time></trkpt><trkpt lat="40.012811696852815" lon="9.08168635048756"><ele>599.3333333333333</ele><time>2026-04-29T14:40:05.191Z</time></trkpt><trkpt lat="40.01298734627724" lon="9.081659061386228"><ele>599.6666666666666</ele><time>2026-04-29T14:40:06.191Z</time></trkpt><trkpt lat="40.013153336632975" lon="9.081673437363454"><ele>600.0</ele><time>2026-04-29T14:40:07.191Z</time></trkpt><trkpt lat="40.013290544027335" lon="9.081735486862456"><ele>600.0</ele><time>2026-04-29T14:40:08.191Z</time></trkpt><trkpt lat="40.01338534634019" lon="9.081856575145556"><ele>600.0</ele><time>2026-04-29T14:40:09.191Z</time></trkpt><trkpt lat="40.01344448784904" lon="9.082004002256305"><ele>600.0</ele><time>2026-04-29T14:40:10.191Z</time></trkpt><trkpt lat="40.013469407513796" lon="9.08217190056883"><ele>600.0</ele><time>2026-04-29T14:40:11.191Z</time></trkpt><trkpt lat="40.01347587657181" lon="9.082325116622373"><ele>600.0</ele><time>2026-04-29T14:40:12.191Z</time></trkpt><trkpt lat="40.013482823849216" lon="9.082469567580434"><ele>600.0</ele><time>2026-04-29T14:40:13.191Z</time></trkpt><trkpt lat="40.01348249818393" lon="9.0825902832771"><ele>600.0</ele><time>2026-04-29T14:40:14.191Z</time></trkpt><trkpt lat="40.01347034162082" lon="9.082679964161274"><ele>600.0</ele><time>2026-04-29T14:40:15.191Z</time></trkpt><trkpt lat="40.01341579390639" lon="9.082785705752514"><ele>600.0</ele><time>2026-04-29T14:40:17.191Z</time></trkpt><trkpt lat="40.01336231964629" lon="9.082859511047324"><ele>600.0</ele><time>2026-04-29T14:42:53.192Z</time></trkpt><trkpt lat="40.013383378148426" lon="9.08295437726149"><ele>600.0</ele><time>2026-04-29T14:42:55.192Z</time></trkpt><trkpt lat="40.01344393072986" lon="9.0829834739239"><ele>600.0</ele><time>2026-04-29T14:42:56.192Z</time></trkpt><trkpt lat="40.01353355656005" lon="9.083010234449942"><ele>600.0</ele><time>2026-04-29T14:42:57.192Z</time></trkpt><trkpt lat="40.01363120637988" lon="9.083041228020019"><ele>600.0</ele><time>2026-04-29T14:42:58.192Z</time></trkpt><trkpt lat="40.013745472557844" lon="9.083052321192014"><ele>600.0</ele><time>2026-04-29T14:42:59.192Z</time></trkpt><trkpt lat="40.013875298876386" lon="9.08304508786511"><ele>600.0</ele><time>2026-04-29T14:43:00.191Z</time></trkpt><trkpt lat="40.014013805066384" lon="9.083018320299368"><ele>600.0</ele><time>2026-04-29T14:43:01.191Z</time></trkpt><trkpt lat="40.0141610546829" lon="9.082975372059591"><ele>600.0</ele><time>2026-04-29T14:43:02.191Z</time></trkpt><trkpt lat="40.01430578925021" lon="9.082895562127536"><ele>600.0</ele><time>2026-04-29T14:43:03.191Z</time></trkpt><trkpt lat="40.01444921948301" lon="9.082778388706048"><ele>601.0</ele><time>2026-04-29T14:43:04.191Z</time></trkpt><trkpt lat="40.01458096905832" lon="9.082640172557916"><ele>602.0</ele><time>2026-04-29T14:43:05.191Z</time></trkpt><trkpt lat="40.014865084652634" lon="9.082479516601879"><ele>602.25</ele><time>2026-04-29T14:43:07.191Z</time></trkpt><trkpt lat="40.015013048232454" lon="9.082485435610806"><ele>602.5</ele><time>2026-04-29T14:43:08.193Z</time></trkpt><trkpt lat="40.015132122717475" lon="9.082569053543788"><ele>602.75</ele><time>2026-04-29T14:43:09.192Z</time></trkpt><trkpt lat="40.01523284105649" lon="9.082711390222606"><ele>603.0</ele><time>2026-04-29T14:43:10.192Z</time></trkpt><trkpt lat="40.015333945618046" lon="9.082873700312597"><ele>603.0</ele><time>2026-04-29T14:43:11.193Z</time></trkpt><trkpt lat="40.01542819521823" lon="9.083020165108383"><ele>603.0</ele><time>2026-04-29T14:43:12.193Z</time></trkpt><trkpt lat="40.01551926409153" lon="9.083152869875322"><ele>603.0</ele><time>2026-04-29T14:43:13.193Z</time></trkpt><trkpt lat="40.01560560911174" lon="9.083278036677735"><ele>603.0</ele><time>2026-04-29T14:43:14.193Z</time></trkpt><trkpt lat="40.015687109922524" lon="9.083388791744271"><ele>603.5</ele><time>2026-04-29T14:43:15.193Z</time></trkpt><trkpt lat="40.015757502235665" lon="9.083505782679758"><ele>604.0</ele><time>2026-04-29T14:43:16.193Z</time></trkpt><trkpt lat="40.01580534160464" lon="9.08362834035063"><ele>604.5</ele><time>2026-04-29T14:43:17.192Z</time></trkpt><trkpt lat="40.01583878076837" lon="9.083771025669444"><ele>605.0</ele><time>2026-04-29T14:43:18.193Z</time></trkpt><trkpt lat="40.01587275948946" lon="9.083941008099226"><ele>607.3333333333333</ele><time>2026-04-29T14:43:19.193Z</time></trkpt><trkpt lat="40.01591092569154" lon="9.084133931108965"><ele>609.6666666666666</ele><time>2026-04-29T14:43:20.193Z</time></trkpt><trkpt lat="40.01594984224431" lon="9.084336380288294"><ele>612.0</ele><time>2026-04-29T14:43:21.192Z</time></trkpt><trkpt lat="40.015981626236204" lon="9.084543532315218"><ele>612.0</ele><time>2026-04-29T14:43:22.192Z</time></trkpt><trkpt lat="40.01602016806427" lon="9.08474887856335"><ele>612.0</ele><time>2026-04-29T14:43:23.192Z</time></trkpt><trkpt lat="40.016057094802555" lon="9.084963736677697"><ele>612.0</ele><time>2026-04-29T14:43:24.192Z</time></trkpt><trkpt lat="40.016075146546235" lon="9.085224767436088"><ele>613.0</ele><time>2026-04-29T14:43:25.192Z</time></trkpt><trkpt lat="40.01605894766102" lon="9.085524484595235"><ele>614.0</ele><time>2026-04-29T14:43:26.192Z</time></trkpt><trkpt lat="40.01603677406827" lon="9.085812061262647"><ele>616.3333333333333</ele><time>2026-04-29T14:43:27.192Z</time></trkpt><trkpt lat="40.01605589049109" lon="9.086065169592555"><ele>618.6666666666666</ele><time>2026-04-29T14:43:28.192Z</time></trkpt><trkpt lat="40.01610956736584" lon="9.086310333167607"><ele>621.0</ele><time>2026-04-29T14:43:29.192Z</time></trkpt><trkpt lat="40.01621785999105" lon="9.086547098394936"><ele>623.3333333333334</ele><time>2026-04-29T14:43:30.192Z</time></trkpt><trkpt lat="40.016292936597544" lon="9.086815721176672"><ele>625.6666666666667</ele><time>2026-04-29T14:43:31.192Z</time></trkpt><trkpt lat="40.0163361318966" lon="9.087100059118928"><ele>628.0</ele><time>2026-04-29T14:43:32.192Z</time></trkpt><trkpt lat="40.016375937599335" lon="9.08739881225242"><ele>630.5</ele><time>2026-04-29T14:43:33.192Z</time></trkpt><trkpt lat="40.01644255308806" lon="9.087684889524434"><ele>633.0</ele><time>2026-04-29T14:43:34.192Z</time></trkpt><trkpt lat="40.016528828300565" lon="9.087967524240549"><ele>633.0</ele><time>2026-04-29T14:43:35.192Z</time></trkpt><trkpt lat="40.01664358474616" lon="9.088227684488896"><ele>633.0</ele><time>2026-04-29T14:43:36.192Z</time></trkpt><trkpt lat="40.01673270697252" lon="9.088512816626983"><ele>627.5</ele><time>2026-04-29T14:43:37.192Z</time></trkpt><trkpt lat="40.01678384125329" lon="9.088811028675337"><ele>622.0</ele><time>2026-04-29T14:43:38.192Z</time></trkpt><trkpt lat="40.016829126076125" lon="9.089113373751163"><ele>622.0</ele><time>2026-04-29T14:43:39.192Z</time></trkpt><trkpt lat="40.0168893851437" lon="9.089407707585478"><ele>622.0</ele><time>2026-04-29T14:43:40.192Z</time></trkpt><trkpt lat="40.01695287139416" lon="9.08970845755194"><ele>624.0</ele><time>2026-04-29T14:43:41.192Z</time></trkpt><trkpt lat="40.01701715505284" lon="9.090012878842511"><ele>626.0</ele><time>2026-04-29T14:43:42.192Z</time></trkpt><trkpt lat="40.01707917223512" lon="9.090323404582051"><ele>626.0</ele><time>2026-04-29T14:43:43.192Z</time></trkpt><trkpt lat="40.01714239897921" lon="9.090626142941948"><ele>626.0</ele><time>2026-04-29T14:43:44.192Z</time></trkpt><trkpt lat="40.01719367328548" lon="9.090946970399697"><ele>629.0</ele><time>2026-04-29T14:43:45.192Z</time></trkpt><trkpt lat="40.01725070996853" lon="9.091285149935192"><ele>632.0</ele><time>2026-04-29T14:43:46.192Z</time></trkpt><trkpt lat="40.0173063634141" lon="9.091643913518093"><ele>634.5</ele><time>2026-04-29T14:43:47.192Z</time></trkpt><trkpt lat="40.01736530201931" lon="9.091995725542962"><ele>637.0</ele><time>2026-04-29T14:43:48.192Z</time></trkpt><trkpt lat="40.01742659837161" lon="9.092316523582657"><ele>638.0</ele><time>2026-04-29T14:43:49.192Z</time></trkpt><trkpt lat="40.01747865977255" lon="9.092599840738973"><ele>639.0</ele><time>2026-04-29T14:43:50.192Z</time></trkpt><trkpt lat="40.01751559965132" lon="9.092830179924414"><ele>640.0</ele><time>2026-04-29T14:43:51.192Z</time></trkpt><trkpt lat="40.01755914313954" lon="9.093019789957824"><ele>635.75</ele><time>2026-04-29T14:43:52.192Z</time></trkpt><trkpt lat="40.01764064799745" lon="9.093160714188683"><ele>631.5</ele><time>2026-04-29T14:43:53.192Z</time></trkpt><trkpt lat="40.01777250064979" lon="9.093223094237509"><ele>627.25</ele><time>2026-04-29T14:43:54.192Z</time></trkpt><trkpt lat="40.017945607418525" lon="9.093217453257362"><ele>623.0</ele><time>2026-04-29T14:43:55.192Z</time></trkpt><trkpt lat="40.018120283819215" lon="9.093238892383301"><ele>623.3333333333333</ele><time>2026-04-29T14:43:56.192Z</time></trkpt><trkpt lat="40.01823178678262" lon="9.09338406862772"><ele>623.6666666666666</ele><time>2026-04-29T14:43:57.192Z</time></trkpt><trkpt lat="40.01826855597842" lon="9.093610367581492"><ele>624.0</ele><time>2026-04-29T14:43:58.192Z</time></trkpt><trkpt lat="40.01826707033248" lon="9.093900618967618"><ele>625.5</ele><time>2026-04-29T14:43:59.192Z</time></trkpt><trkpt lat="40.01832113484578" lon="9.094198995887073"><ele>627.0</ele><time>2026-04-29T14:44:00.192Z</time></trkpt><trkpt lat="40.01847682388171" lon="9.09446155884541"><ele>627.0</ele><time>2026-04-29T14:44:01.192Z</time></trkpt><trkpt lat="40.01859753221356" lon="9.094684228797862"><ele>627.0</ele><time>2026-04-29T14:44:02.192Z</time></trkpt><trkpt lat="40.01863175105683" lon="9.094992203691984"><ele>627.0</ele><time>2026-04-29T14:44:03.192Z</time></trkpt><trkpt lat="40.018677064497666" lon="9.0953329837131"><ele>627.0</ele><time>2026-04-29T14:44:04.192Z</time></trkpt><trkpt lat="40.01882412625213" lon="9.095657607125522"><ele>627.0</ele><time>2026-04-29T14:44:05.192Z</time></trkpt><trkpt lat="40.01899793193953" lon="9.0959472975536"><ele>627.0</ele><time>2026-04-29T14:44:06.192Z</time></trkpt><trkpt lat="40.01914847828486" lon="9.096099584701642"><ele>627.0</ele><time>2026-04-29T14:44:07.192Z</time></trkpt><trkpt lat="40.0192276814833" lon="9.096245682630114"><ele>627.0</ele><time>2026-04-29T14:44:08.192Z</time></trkpt><trkpt lat="40.01921944251508" lon="9.096435837092505"><ele>628.3333333333334</ele><time>2026-04-29T14:44:09.192Z</time></trkpt><trkpt lat="40.01914415410445" lon="9.096662846646147"><ele>629.6666666666667</ele><time>2026-04-29T14:44:10.192Z</time></trkpt><trkpt lat="40.01912499080281" lon="9.096871235476192"><ele>631.0</ele><time>2026-04-29T14:44:11.192Z</time></trkpt><trkpt lat="40.01915452495338" lon="9.097039183982101"><ele>633.0</ele><time>2026-04-29T14:44:12.192Z</time></trkpt><trkpt lat="40.01920961871709" lon="9.09719283155373"><ele>635.0</ele><time>2026-04-29T14:44:13.192Z</time></trkpt><trkpt lat="40.019263203771104" lon="9.097341111162843"><ele>637.0</ele><time>2026-04-29T14:44:14.192Z</time></trkpt><trkpt lat="40.019308940138856" lon="9.097491363270906"><ele>639.0</ele><time>2026-04-29T14:44:15.192Z</time></trkpt><trkpt lat="40.01935372243609" lon="9.097636816046192"><ele>639.0</ele><time>2026-04-29T14:44:16.192Z</time></trkpt><trkpt lat="40.019407783944146" lon="9.09777365914305"><ele>639.0</ele><time>2026-04-29T14:44:17.192Z</time></trkpt><trkpt lat="40.01947325021902" lon="9.097903675099108"><ele>639.0</ele><time>2026-04-29T14:44:18.192Z</time></trkpt><trkpt lat="40.01955409815746" lon="9.098014332627043"><ele>639.0</ele><time>2026-04-29T14:44:19.192Z</time></trkpt><trkpt lat="40.01964900016073" lon="9.09810590454148"><ele>639.0</ele><time>2026-04-29T14:44:20.192Z</time></trkpt><trkpt lat="40.01975202216894" lon="9.098193215337304"><ele>639.0</ele><time>2026-04-29T14:44:21.192Z</time></trkpt><trkpt lat="40.01985172721868" lon="9.098265979617187"><ele>639.0</ele><time>2026-04-29T14:44:22.192Z</time></trkpt><trkpt lat="40.01995219307021" lon="9.0983253892093"><ele>639.0</ele><time>2026-04-29T14:44:23.192Z</time></trkpt><trkpt lat="40.02005618036063" lon="9.098388711013678"><ele>641.0</ele><time>2026-04-29T14:44:24.192Z</time></trkpt><trkpt lat="40.02015437078513" lon="9.098455632175025"><ele>643.0</ele><time>2026-04-29T14:44:25.192Z</time></trkpt><trkpt lat="40.020249406251125" lon="9.098524131347608"><ele>645.0</ele><time>2026-04-29T14:44:26.192Z</time></trkpt><trkpt lat="40.02034387233975" lon="9.098590904239014"><ele>647.0</ele><time>2026-04-29T14:44:27.192Z</time></trkpt><trkpt lat="40.020428443311296" lon="9.09865286755543"><ele>649.0</ele><time>2026-04-29T14:44:28.192Z</time></trkpt><trkpt lat="40.02049915910349" lon="9.098704128437214"><ele>649.0</ele><time>2026-04-29T14:44:29.192Z</time></trkpt><trkpt lat="40.02056015017396" lon="9.098743442693934"><ele>649.0</ele><time>2026-04-29T14:44:30.192Z</time></trkpt><trkpt lat="40.02065774456768" lon="9.098809850347102"><ele>649.0</ele><time>2026-04-29T14:44:32.192Z</time></trkpt><trkpt lat="40.020753414873404" lon="9.098872063750404"><ele>649.0</ele><time>2026-04-29T14:44:34.192Z</time></trkpt><trkpt lat="40.02085841157684" lon="9.098934693617826"><ele>649.0</ele><time>2026-04-29T14:44:36.192Z</time></trkpt><trkpt lat="40.02091565849546" lon="9.09898157363766"><ele>650.25</ele><time>2026-04-29T14:44:41.192Z</time></trkpt><trkpt lat="40.021021467628664" lon="9.099068557061104"><ele>651.5</ele><time>2026-04-29T14:44:43.192Z</time></trkpt><trkpt lat="40.0211171750183" lon="9.099130511869896"><ele>652.75</ele><time>2026-04-29T14:44:44.192Z</time></trkpt><trkpt lat="40.02122053866862" lon="9.099190868269881"><ele>654.0</ele><time>2026-04-29T14:44:45.192Z</time></trkpt><trkpt lat="40.02132215105383" lon="9.099258283417957"><ele>654.0</ele><time>2026-04-29T14:44:46.192Z</time></trkpt><trkpt lat="40.02143779138307" lon="9.099332502989"><ele>654.0</ele><time>2026-04-29T14:44:47.192Z</time></trkpt><trkpt lat="40.021553012183226" lon="9.099410233003269"><ele>654.0</ele><time>2026-04-29T14:44:48.192Z</time></trkpt><trkpt lat="40.021662331658455" lon="9.099485012676666"><ele>654.0</ele><time>2026-04-29T14:44:49.192Z</time></trkpt><trkpt lat="40.021762574917496" lon="9.09954752536688"><ele>654.8333333333334</ele><time>2026-04-29T14:44:50.192Z</time></trkpt><trkpt lat="40.02185177965227" lon="9.099606552761314"><ele>655.6666666666666</ele><time>2026-04-29T14:44:51.192Z</time></trkpt><trkpt lat="40.021939256191885" lon="9.099665127588283"><ele>656.5</ele><time>2026-04-29T14:44:52.192Z</time></trkpt><trkpt lat="40.02201585507636" lon="9.099713753461062"><ele>657.3333333333333</ele><time>2026-04-29T14:44:53.192Z</time></trkpt><trkpt lat="40.02208676945027" lon="9.09975605927475"><ele>658.1666666666666</ele><time>2026-04-29T14:44:54.192Z</time></trkpt><trkpt lat="40.022146970369676" lon="9.099796763675679"><ele>659.0</ele><time>2026-04-29T14:44:55.192Z</time></trkpt><trkpt lat="40.02221026207661" lon="9.09974303319214"><ele>659.0</ele><time>2026-04-29T14:44:57.192Z</time></trkpt><trkpt lat="40.02219148327737" lon="9.09965033143642"><ele>659.0</ele><time>2026-04-29T14:44:59.192Z</time></trkpt><trkpt lat="40.02217224910929" lon="9.099545283466854"><ele>659.0</ele><time>2026-04-29T14:45:02.192Z</time></trkpt><trkpt lat="40.02207412028264" lon="9.099551279534795"><ele>659.0</ele><time>2026-04-29T14:46:41.193Z</time></trkpt><trkpt lat="40.0220180491706" lon="9.099510583309666"><ele>659.0</ele><time>2026-04-29T14:47:46.194Z</time></trkpt><trkpt lat="40.021975961762706" lon="9.09943716827566"><ele>659.0</ele><time>2026-04-29T14:59:18.199Z</time></trkpt><trkpt lat="40.02192734928392" lon="9.099511578977582"><ele>659.0</ele><time>2026-04-29T14:59:21.199Z</time></trkpt><trkpt lat="40.02186867322767" lon="9.099542469592624"><ele>659.0</ele><time>2026-04-29T14:59:23.199Z</time></trkpt><trkpt lat="40.021801462369154" lon="9.09953714936551"><ele>659.0</ele><time>2026-04-29T14:59:25.199Z</time></trkpt><trkpt lat="40.02170916886004" lon="9.09949027081848"><ele>659.0</ele><time>2026-04-29T14:59:27.199Z</time></trkpt><trkpt lat="40.02160908149257" lon="9.099415796873625"><ele>659.0</ele><time>2026-04-29T14:59:29.199Z</time></trkpt><trkpt lat="40.02154657527344" lon="9.099381590263688"><ele>659.0</ele><time>2026-04-29T14:59:30.199Z</time></trkpt><trkpt lat="40.02143324012743" lon="9.099321653740224"><ele>658.7142857142858</ele><time>2026-04-29T14:59:32.198Z</time></trkpt><trkpt lat="40.02137312095411" lon="9.09928905490855"><ele>658.4285714285713</ele><time>2026-04-29T14:59:33.198Z</time></trkpt><trkpt lat="40.02131625791553" lon="9.099246665286717"><ele>658.1428571428571</ele><time>2026-04-29T14:59:34.198Z</time></trkpt><trkpt lat="40.021253153295255" lon="9.099210562848132"><ele>657.8571428571429</ele><time>2026-04-29T14:59:35.198Z</time></trkpt><trkpt lat="40.021187715785295" lon="9.099171059418579"><ele>657.5714285714287</ele><time>2026-04-29T14:59:36.198Z</time></trkpt><trkpt lat="40.021118867946306" lon="9.09912001578131"><ele>657.2857142857142</ele><time>2026-04-29T14:59:37.198Z</time></trkpt><trkpt lat="40.02104248304274" lon="9.099069525977573"><ele>657.0</ele><time>2026-04-29T14:59:38.198Z</time></trkpt><trkpt lat="40.0209644651417" lon="9.099016674943021"><ele>657.0</ele><time>2026-04-29T14:59:39.198Z</time></trkpt><trkpt lat="40.02088056253365" lon="9.09896369656424"><ele>657.0</ele><time>2026-04-29T14:59:40.198Z</time></trkpt><trkpt lat="40.0207948390819" lon="9.098909379145928"><ele>657.0</ele><time>2026-04-29T14:59:41.198Z</time></trkpt><trkpt lat="40.020709887613336" lon="9.09885078822256"><ele>657.0</ele><time>2026-04-29T14:59:42.198Z</time></trkpt><trkpt lat="40.020612202765726" lon="9.098787605422197"><ele>657.0</ele><time>2026-04-29T14:59:43.198Z</time></trkpt><trkpt lat="40.020514688965804" lon="9.09871689042109"><ele>655.0</ele><time>2026-04-29T14:59:44.198Z</time></trkpt><trkpt lat="40.020416180036236" lon="9.098643100881239"><ele>653.0</ele><time>2026-04-29T14:59:45.198Z</time></trkpt><trkpt lat="40.020314281058035" lon="9.098571815295314"><ele>651.0</ele><time>2026-04-29T14:59:46.198Z</time></trkpt><trkpt lat="40.02020479115307" lon="9.098500546065504"><ele>649.0</ele><time>2026-04-29T14:59:47.198Z</time></trkpt><trkpt lat="40.020094042109825" lon="9.098422159084834"><ele>647.0</ele><time>2026-04-29T14:59:48.198Z</time></trkpt><trkpt lat="40.01998255166192" lon="9.098340525735116"><ele>645.0</ele><time>2026-04-29T14:59:49.198Z</time></trkpt><trkpt lat="40.01986779989289" lon="9.098263775117674"><ele>643.0</ele><time>2026-04-29T14:59:50.198Z</time></trkpt><trkpt lat="40.0197545021197" lon="9.098179918168018"><ele>641.0</ele><time>2026-04-29T14:59:51.198Z</time></trkpt><trkpt lat="40.01963962264988" lon="9.098083365283589"><ele>640.5</ele><time>2026-04-29T14:59:52.198Z</time></trkpt><trkpt lat="40.019537145159646" lon="9.097970701385929"><ele>640.0</ele><time>2026-04-29T14:59:53.198Z</time></trkpt><trkpt lat="40.01945057408672" lon="9.097837526771126"><ele>639.5</ele><time>2026-04-29T14:59:54.198Z</time></trkpt><trkpt lat="40.019382822318796" lon="9.0976823825484"><ele>639.0</ele><time>2026-04-29T14:59:55.198Z</time></trkpt><trkpt lat="40.01932066041904" lon="9.097519698071762"><ele>639.0</ele><time>2026-04-29T14:59:56.2Z</time></trkpt><trkpt lat="40.019269128801234" lon="9.097340382506"><ele>639.0</ele><time>2026-04-29T14:59:57.2Z</time></trkpt><trkpt lat="40.01922308347423" lon="9.097160196041159"><ele>639.0</ele><time>2026-04-29T14:59:58.2Z</time></trkpt><trkpt lat="40.01917286525548" lon="9.096986816354855"><ele>639.0</ele><time>2026-04-29T14:59:59.2Z</time></trkpt><trkpt lat="40.019145231254285" lon="9.096812226181829"><ele>639.0</ele><time>2026-04-29T15:00:00.2Z</time></trkpt><trkpt lat="40.01915476299552" lon="9.096624859993495"><ele>639.0</ele><time>2026-04-29T15:00:01.2Z</time></trkpt><trkpt lat="40.0191830637163" lon="9.0964361509539"><ele>639.0</ele><time>2026-04-29T15:00:02.2Z</time></trkpt><trkpt lat="40.01920419493906" lon="9.096258047618438"><ele>639.0</ele><time>2026-04-29T15:00:03.2Z</time></trkpt><trkpt lat="40.01917063083902" lon="9.096093428837413"><ele>636.0</ele><time>2026-04-29T15:00:04.2Z</time></trkpt><trkpt lat="40.01908732509367" lon="9.095949014102262"><ele>633.0</ele><time>2026-04-29T15:00:05.2Z</time></trkpt><trkpt lat="40.018975083487724" lon="9.09582191126841"><ele>630.0</ele><time>2026-04-29T15:00:06.2Z</time></trkpt><trkpt lat="40.01887155419179" lon="9.095664474693399"><ele>627.0</ele><time>2026-04-29T15:00:07.2Z</time></trkpt><trkpt lat="40.0187910855888" lon="9.095472015199228"><ele>627.0</ele><time>2026-04-29T15:00:08.2Z</time></trkpt><trkpt lat="40.0187050806135" lon="9.095275718000682"><ele>627.0</ele><time>2026-04-29T15:00:09.2Z</time></trkpt><trkpt lat="40.01862024413334" lon="9.095074847810249"><ele>627.0</ele><time>2026-04-29T15:00:10.2Z</time></trkpt><trkpt lat="40.01857199303779" lon="9.094849827825655"><ele>627.0</ele><time>2026-04-29T15:00:11.2Z</time></trkpt><trkpt lat="40.018528726848416" lon="9.094631500193364"><ele>627.0</ele><time>2026-04-29T15:00:12.2Z</time></trkpt><trkpt lat="40.01845734510821" lon="9.094429130192507"><ele>627.0</ele><time>2026-04-29T15:00:13.2Z</time></trkpt><trkpt lat="40.01835675950027" lon="9.094246278022489"><ele>626.0</ele><time>2026-04-29T15:00:14.2Z</time></trkpt><trkpt lat="40.018273197807424" lon="9.094056713865848"><ele>625.0</ele><time>2026-04-29T15:00:15.2Z</time></trkpt><trkpt lat="40.018224920319376" lon="9.093833895726956"><ele>624.0</ele><time>2026-04-29T15:00:16.2Z</time></trkpt><trkpt lat="40.01822759227167" lon="9.09360446067483"><ele>624.0</ele><time>2026-04-29T15:00:17.2Z</time></trkpt><trkpt lat="40.01824947182798" lon="9.093395550922962"><ele>624.0</ele><time>2026-04-29T15:00:18.2Z</time></trkpt><trkpt lat="40.01826905877154" lon="9.09323452203915"><ele>624.0</ele><time>2026-04-29T15:00:19.2Z</time></trkpt><trkpt lat="40.01825088414855" lon="9.093091341766463"><ele>624.0</ele><time>2026-04-29T15:00:20.2Z</time></trkpt><trkpt lat="40.01822976040052" lon="9.092983669837349"><ele>623.5</ele><time>2026-04-29T15:00:21.2Z</time></trkpt><trkpt lat="40.01815958400063" lon="9.092872868961312"><ele>623.0</ele><time>2026-04-29T15:00:23.2Z</time></trkpt><trkpt lat="40.017742141193395" lon="9.093003072897682"><ele>623.0</ele><time>2026-04-29T15:00:24.2Z</time></trkpt><trkpt lat="40.01764343402394" lon="9.09298329371371"><ele>623.0</ele><time>2026-04-29T15:00:25.2Z</time></trkpt><trkpt lat="40.01756480042218" lon="9.092929789247501"><ele>623.0</ele><time>2026-04-29T15:00:26.2Z</time></trkpt><trkpt lat="40.01751772652086" lon="9.092826459213242"><ele>623.0</ele><time>2026-04-29T15:00:27.2Z</time></trkpt><trkpt lat="40.01747860126876" lon="9.092721414641549"><ele>623.0</ele><time>2026-04-29T15:00:28.2Z</time></trkpt><trkpt lat="40.017458764659274" lon="9.09260663587568"><ele>625.8</ele><time>2026-04-29T15:00:29.2Z</time></trkpt><trkpt lat="40.01743872678925" lon="9.092479007849999"><ele>628.5999999999999</ele><time>2026-04-29T15:00:30.2Z</time></trkpt><trkpt lat="40.01741964783043" lon="9.09235073789536"><ele>631.4000000000001</ele><time>2026-04-29T15:00:31.2Z</time></trkpt><trkpt lat="40.017401066438914" lon="9.092220319137555"><ele>634.2</ele><time>2026-04-29T15:00:32.2Z</time></trkpt><trkpt lat="40.01737836632546" lon="9.09209224976634"><ele>637.0</ele><time>2026-04-29T15:00:33.2Z</time></trkpt><trkpt lat="40.01735070220801" lon="9.09196209584727"><ele>637.0</ele><time>2026-04-29T15:00:34.2Z</time></trkpt><trkpt lat="40.01732383840074" lon="9.091827926326754"><ele>637.0</ele><time>2026-04-29T15:00:35.2Z</time></trkpt><trkpt lat="40.01729987511516" lon="9.091687000863072"><ele>637.0</ele><time>2026-04-29T15:00:36.2Z</time></trkpt><trkpt lat="40.017277607431474" lon="9.091541163391792"><ele>637.0</ele><time>2026-04-29T15:00:37.2Z</time></trkpt><trkpt lat="40.01725250026052" lon="9.091399608359099"><ele>637.0</ele><time>2026-04-29T15:00:38.2Z</time></trkpt><trkpt lat="40.017226736411935" lon="9.091255748369745"><ele>636.0</ele><time>2026-04-29T15:00:39.2Z</time></trkpt><trkpt lat="40.01719840216718" lon="9.091126130747172"><ele>635.0</ele><time>2026-04-29T15:00:40.2Z</time></trkpt><trkpt lat="40.017167771682054" lon="9.090988291602567"><ele>634.0</ele><time>2026-04-29T15:00:41.2Z</time></trkpt><trkpt lat="40.017156953791165" lon="9.09085446486999"><ele>633.0</ele><time>2026-04-29T15:00:42.2Z</time></trkpt><trkpt lat="40.01713148024138" lon="9.090721268301166"><ele>632.0</ele><time>2026-04-29T15:00:43.2Z</time></trkpt><trkpt lat="40.01710630974705" lon="9.09056281389786"><ele>630.0</ele><time>2026-04-29T15:00:44.2Z</time></trkpt><trkpt lat="40.017073776567294" lon="9.090388841359886"><ele>628.0</ele><time>2026-04-29T15:00:45.2Z</time></trkpt><trkpt lat="40.017034236675634" lon="9.090199188915156"><ele>626.0</ele><time>2026-04-29T15:00:46.2Z</time></trkpt><trkpt lat="40.016986049341114" lon="9.08997861833319"><ele>624.6666666666666</ele><time>2026-04-29T15:00:47.2Z</time></trkpt><trkpt lat="40.01695905801076" lon="9.08976230339836"><ele>623.3333333333334</ele><time>2026-04-29T15:00:48.2Z</time></trkpt><trkpt lat="40.016919373851195" lon="9.089536984247736"><ele>622.0</ele><time>2026-04-29T15:00:49.2Z</time></trkpt><trkpt lat="40.0168714274313" lon="9.08931298563758"><ele>622.0</ele><time>2026-04-29T15:00:50.2Z</time></trkpt><trkpt lat="40.01682874578399" lon="9.089102027328186"><ele>622.0</ele><time>2026-04-29T15:00:51.2Z</time></trkpt><trkpt lat="40.016785798175036" lon="9.088889381163048"><ele>622.0</ele><time>2026-04-29T15:00:52.2Z</time></trkpt><trkpt lat="40.01675084441836" lon="9.08869760306634"><ele>621.0</ele><time>2026-04-29T15:00:53.2Z</time></trkpt><trkpt lat="40.01671172861939" lon="9.088495912552448"><ele>620.0</ele><time>2026-04-29T15:00:54.2Z</time></trkpt><trkpt lat="40.016668578843095" lon="9.088297807083382"><ele>619.0</ele><time>2026-04-29T15:00:55.2Z</time></trkpt><trkpt lat="40.01660613565748" lon="9.088109513061141"><ele>623.6666666666667</ele><time>2026-04-29T15:00:56.2Z</time></trkpt><trkpt lat="40.01651595816313" lon="9.087919854473345"><ele>628.3333333333334</ele><time>2026-04-29T15:00:57.2Z</time></trkpt><trkpt lat="40.01643533373631" lon="9.087732816423996"><ele>633.0</ele><time>2026-04-29T15:00:58.2Z</time></trkpt><trkpt lat="40.01638916948197" lon="9.087525141840416"><ele>631.3333333333334</ele><time>2026-04-29T15:00:59.2Z</time></trkpt><trkpt lat="40.016362220287796" lon="9.08730956526368"><ele>629.6666666666667</ele><time>2026-04-29T15:01:00.2Z</time></trkpt><trkpt lat="40.016336625559575" lon="9.087092718725861"><ele>628.0</ele><time>2026-04-29T15:01:01.2Z</time></trkpt><trkpt lat="40.01630428955172" lon="9.086882401405543"><ele>628.0</ele><time>2026-04-29T15:01:02.2Z</time></trkpt><trkpt lat="40.01627443435953" lon="9.086687672200261"><ele>628.0</ele><time>2026-04-29T15:01:03.2Z</time></trkpt><trkpt lat="40.016221365170985" lon="9.08649525665779"><ele>628.0</ele><time>2026-04-29T15:01:04.2Z</time></trkpt><trkpt lat="40.01615023693244" lon="9.086309855111457"><ele>625.6666666666667</ele><time>2026-04-29T15:01:05.2Z</time></trkpt><trkpt lat="40.01606537212827" lon="9.086127090478481"><ele>623.3333333333334</ele><time>2026-04-29T15:01:06.2Z</time></trkpt><trkpt lat="40.016028432710435" lon="9.085923354227178"><ele>621.0</ele><time>2026-04-29T15:01:07.2Z</time></trkpt><trkpt lat="40.016018538254535" lon="9.08569520581355"><ele>618.6666666666666</ele><time>2026-04-29T15:01:08.2Z</time></trkpt><trkpt lat="40.01603978467831" lon="9.08547297232936"><ele>616.3333333333333</ele><time>2026-04-29T15:01:09.2Z</time></trkpt><trkpt lat="40.01605769594932" lon="9.085265373754178"><ele>614.0</ele><time>2026-04-29T15:01:10.2Z</time></trkpt><trkpt lat="40.01605153022151" lon="9.08506258101875"><ele>613.3333333333333</ele><time>2026-04-29T15:01:11.2Z</time></trkpt><trkpt lat="40.01603531312176" lon="9.084835577730926"><ele>612.6666666666666</ele><time>2026-04-29T15:01:12.2Z</time></trkpt><trkpt lat="40.01600761651666" lon="9.084615148215546"><ele>612.0</ele><time>2026-04-29T15:01:13.2Z</time></trkpt><trkpt lat="40.01597090421491" lon="9.084404269952786"><ele>612.0</ele><time>2026-04-29T15:01:14.2Z</time></trkpt><trkpt lat="40.01593158615076" lon="9.084199798661345"><ele>612.0</ele><time>2026-04-29T15:01:15.2Z</time></trkpt><trkpt lat="40.01588844126204" lon="9.083996553113458"><ele>612.0</ele><time>2026-04-29T15:01:16.2Z</time></trkpt><trkpt lat="40.015854006782696" lon="9.083797449436426"><ele>613.75</ele><time>2026-04-29T15:01:17.2Z</time></trkpt><trkpt lat="40.01581291518771" lon="9.083614035085324"><ele>615.5</ele><time>2026-04-29T15:01:18.2Z</time></trkpt><trkpt lat="40.015757140881284" lon="9.083436733347975"><ele>617.25</ele><time>2026-04-29T15:01:19.2Z</time></trkpt><trkpt lat="40.0156607306131" lon="9.08328156781381"><ele>619.0</ele><time>2026-04-29T15:01:20.2Z</time></trkpt><trkpt lat="40.015535098196956" lon="9.083144899623933"><ele>613.6666666666667</ele><time>2026-04-29T15:01:21.2Z</time></trkpt><trkpt lat="40.01540391746098" lon="9.082977555728219"><ele>608.3333333333334</ele><time>2026-04-29T15:01:22.2Z</time></trkpt><trkpt lat="40.01528874843836" lon="9.082805736732972"><ele>603.0</ele><time>2026-04-29T15:01:23.2Z</time></trkpt><trkpt lat="40.015183217372204" lon="9.08262090005353"><ele>603.0</ele><time>2026-04-29T15:01:24.2Z</time></trkpt><trkpt lat="40.01508024491746" lon="9.082477207097375"><ele>603.0</ele><time>2026-04-29T15:01:25.2Z</time></trkpt><trkpt lat="40.014954077493634" lon="9.082393899475635"><ele>603.0</ele><time>2026-04-29T15:01:26.2Z</time></trkpt><trkpt lat="40.014800637371266" lon="9.08240767319218"><ele>603.0</ele><time>2026-04-29T15:01:27.2Z</time></trkpt><trkpt lat="40.01464710776279" lon="9.082511154724502"><ele>602.6666666666666</ele><time>2026-04-29T15:01:28.2Z</time></trkpt><trkpt lat="40.01449771235835" lon="9.082674985204005"><ele>602.3333333333333</ele><time>2026-04-29T15:01:29.2Z</time></trkpt><trkpt lat="40.01435590296341" lon="9.08281889696732"><ele>602.0</ele><time>2026-04-29T15:01:30.2Z</time></trkpt><trkpt lat="40.01420517172009" lon="9.082943119861724"><ele>601.3333333333333</ele><time>2026-04-29T15:01:31.2Z</time></trkpt><trkpt lat="40.014024207029834" lon="9.083017406049796"><ele>600.6666666666666</ele><time>2026-04-29T15:01:32.2Z</time></trkpt><trkpt lat="40.013832912582075" lon="9.083035975882487"><ele>600.0</ele><time>2026-04-29T15:01:33.2Z</time></trkpt><trkpt lat="40.013640444552294" lon="9.083025476396573"><ele>600.0</ele><time>2026-04-29T15:01:34.2Z</time></trkpt><trkpt lat="40.013461457681224" lon="9.082991011964719"><ele>600.0</ele><time>2026-04-29T15:01:35.2Z</time></trkpt><trkpt lat="40.013313530661776" lon="9.082904746583955"><ele>600.0</ele><time>2026-04-29T15:01:36.2Z</time></trkpt><trkpt lat="40.01319717799697" lon="9.08277051209451"><ele>600.0</ele><time>2026-04-29T15:01:37.2Z</time></trkpt><trkpt lat="40.01308648747644" lon="9.082627339976783"><ele>600.0</ele><time>2026-04-29T15:01:38.2Z</time></trkpt><trkpt lat="40.01297841087498" lon="9.082484311561155"><ele>600.0</ele><time>2026-04-29T15:01:39.2Z</time></trkpt><trkpt lat="40.012868283971656" lon="9.082353353899558"><ele>600.0</ele><time>2026-04-29T15:01:40.2Z</time></trkpt><trkpt lat="40.01275125203724" lon="9.082252679069153"><ele>600.0</ele><time>2026-04-29T15:01:41.2Z</time></trkpt><trkpt lat="40.01262086840507" lon="9.082229561817952"><ele>600.0</ele><time>2026-04-29T15:01:42.2Z</time></trkpt><trkpt lat="40.01248153336433" lon="9.082265100965419"><ele>600.0</ele><time>2026-04-29T15:01:43.2Z</time></trkpt><trkpt lat="40.01235254460162" lon="9.082309425450187"><ele>598.25</ele><time>2026-04-29T15:01:44.2Z</time></trkpt><trkpt lat="40.012219717612695" lon="9.08229822255952"><ele>596.5</ele><time>2026-04-29T15:01:45.2Z</time></trkpt><trkpt lat="40.012094861578625" lon="9.082216564002568"><ele>594.75</ele><time>2026-04-29T15:01:46.2Z</time></trkpt><trkpt lat="40.01197006778679" lon="9.0821437836575"><ele>593.0</ele><time>2026-04-29T15:01:47.2Z</time></trkpt><trkpt lat="40.011828314967936" lon="9.082143494275766"><ele>593.0</ele><time>2026-04-29T15:01:48.2Z</time></trkpt><trkpt lat="40.01170108445711" lon="9.08219885054573"><ele>593.0</ele><time>2026-04-29T15:01:49.2Z</time></trkpt><trkpt lat="40.01156723267102" lon="9.082236771133013"><ele>593.0</ele><time>2026-04-29T15:01:50.2Z</time></trkpt><trkpt lat="40.011426133961606" lon="9.082240419267977"><ele>593.0</ele><time>2026-04-29T15:01:51.2Z</time></trkpt><trkpt lat="40.01126539726526" lon="9.08221749289764"><ele>592.3333333333333</ele><time>2026-04-29T15:01:52.2Z</time></trkpt><trkpt lat="40.01110818944482" lon="9.082180829117846"><ele>591.6666666666666</ele><time>2026-04-29T15:01:53.2Z</time></trkpt><trkpt lat="40.01095537378909" lon="9.082132655895082"><ele>591.0</ele><time>2026-04-29T15:01:54.2Z</time></trkpt><trkpt lat="40.01080237656238" lon="9.08208994244309"><ele>592.75</ele><time>2026-04-29T15:01:55.2Z</time></trkpt><trkpt lat="40.01066420352178" lon="9.082040188655705"><ele>594.5</ele><time>2026-04-29T15:01:56.2Z</time></trkpt><trkpt lat="40.0105357361187" lon="9.081960030039326"><ele>596.25</ele><time>2026-04-29T15:01:57.2Z</time></trkpt><trkpt lat="40.01042840598653" lon="9.081808785474225"><ele>598.0</ele><time>2026-04-29T15:01:58.2Z</time></trkpt><trkpt lat="40.0103339396848" lon="9.081627009626807"><ele>594.0</ele><time>2026-04-29T15:01:59.2Z</time></trkpt><trkpt lat="40.010234178672185" lon="9.081436537385352"><ele>590.0</ele><time>2026-04-29T15:02:00.2Z</time></trkpt><trkpt lat="40.01012650820404" lon="9.081248207784881"><ele>586.0</ele><time>2026-04-29T15:02:01.2Z</time></trkpt><trkpt lat="40.010014389228644" lon="9.081057812640282"><ele>586.25</ele><time>2026-04-29T15:02:02.2Z</time></trkpt><trkpt lat="40.00991128538674" lon="9.080896948563792"><ele>586.5</ele><time>2026-04-29T15:02:03.2Z</time></trkpt><trkpt lat="40.00981791101772" lon="9.080761133915075"><ele>586.75</ele><time>2026-04-29T15:02:04.2Z</time></trkpt><trkpt lat="40.009728504375765" lon="9.080666523728333"><ele>587.0</ele><time>2026-04-29T15:02:05.201Z</time></trkpt><trkpt lat="40.00960196003226" lon="9.080620579533438"><ele>584.0</ele><time>2026-04-29T15:02:06.2Z</time></trkpt><trkpt lat="40.009457740900444" lon="9.080665663491521"><ele>581.0</ele><time>2026-04-29T15:02:07.2Z</time></trkpt><trkpt lat="40.00930522015157" lon="9.08072713603678"><ele>578.0</ele><time>2026-04-29T15:02:08.201Z</time></trkpt><trkpt lat="40.009157552712516" lon="9.080772173228393"><ele>578.0</ele><time>2026-04-29T15:02:09.2Z</time></trkpt><trkpt lat="40.009027872104596" lon="9.0808257971982"><ele>578.0</ele><time>2026-04-29T15:02:10.2Z</time></trkpt><trkpt lat="40.00888121217451" lon="9.080923285495947"><ele>578.0</ele><time>2026-04-29T15:02:11.2Z</time></trkpt><trkpt lat="40.00870837207514" lon="9.081091857367996"><ele>578.0</ele><time>2026-04-29T15:02:12.201Z</time></trkpt><trkpt lat="40.00849585454694" lon="9.08129038651293"><ele>578.0</ele><time>2026-04-29T15:02:13.201Z</time></trkpt><trkpt lat="40.00826998235518" lon="9.081492785451202"><ele>573.5</ele><time>2026-04-29T15:02:14.2Z</time></trkpt><trkpt lat="40.00803833518059" lon="9.081662995166496"><ele>569.0</ele><time>2026-04-29T15:02:15.2Z</time></trkpt><trkpt lat="40.007833263567214" lon="9.081825071802061"><ele>569.0</ele><time>2026-04-29T15:02:16.2Z</time></trkpt><trkpt lat="40.00764642916731" lon="9.081971930882439"><ele>569.0</ele><time>2026-04-29T15:02:17.2Z</time></trkpt><trkpt lat="40.00743914626775" lon="9.082048473494984"><ele>569.0</ele><time>2026-04-29T15:02:18.2Z</time></trkpt><trkpt lat="40.00719516157041" lon="9.082080479079078"><ele>566.0</ele><time>2026-04-29T15:02:19.2Z</time></trkpt><trkpt lat="40.006944101617" lon="9.082104571737307"><ele>563.0</ele><time>2026-04-29T15:02:20.2Z</time></trkpt><trkpt lat="40.00669483162693" lon="9.082131037333651"><ele>562.0</ele><time>2026-04-29T15:02:21.2Z</time></trkpt><trkpt lat="40.00645724933527" lon="9.082167763782174"><ele>561.0</ele><time>2026-04-29T15:02:22.2Z</time></trkpt><trkpt lat="40.00621779765783" lon="9.08217769139273"><ele>561.0</ele><time>2026-04-29T15:02:23.2Z</time></trkpt><trkpt lat="40.00597943978671" lon="9.082135619923672"><ele>561.0</ele><time>2026-04-29T15:02:24.2Z</time></trkpt><trkpt lat="40.0057331344498" lon="9.082076743376367"><ele>560.0</ele><time>2026-04-29T15:02:25.2Z</time></trkpt><trkpt lat="40.00547824278105" lon="9.082061304648589"><ele>559.0</ele><time>2026-04-29T15:02:26.2Z</time></trkpt><trkpt lat="40.00522399431282" lon="9.08207724962585"><ele>556.0</ele><time>2026-04-29T15:02:27.2Z</time></trkpt><trkpt lat="40.004965174521814" lon="9.082114787525956"><ele>553.0</ele><time>2026-04-29T15:02:28.2Z</time></trkpt><trkpt lat="40.004710212828776" lon="9.082153542517027"><ele>553.0</ele><time>2026-04-29T15:02:29.2Z</time></trkpt><trkpt lat="40.00446095688849" lon="9.082191584755895"><ele>553.0</ele><time>2026-04-29T15:02:30.2Z</time></trkpt><trkpt lat="40.00422219906283" lon="9.082223900648605"><ele>553.6666666666667</ele><time>2026-04-29T15:02:31.2Z</time></trkpt><trkpt lat="40.004001550815154" lon="9.082246306892607"><ele>554.3333333333334</ele><time>2026-04-29T15:02:32.2Z</time></trkpt><trkpt lat="40.0038036457974" lon="9.082246502376014"><ele>555.0</ele><time>2026-04-29T15:02:33.2Z</time></trkpt><trkpt lat="40.00362275025489" lon="9.082181917822405"><ele>555.0</ele><time>2026-04-29T15:02:34.2Z</time></trkpt><trkpt lat="40.003482367176844" lon="9.082008721331674"><ele>555.0</ele><time>2026-04-29T15:02:35.2Z</time></trkpt><trkpt lat="40.00335763836309" lon="9.081786851406047"><ele>555.0</ele><time>2026-04-29T15:02:36.2Z</time></trkpt><trkpt lat="40.00320093678308" lon="9.081624636411922"><ele>553.0</ele><time>2026-04-29T15:02:37.2Z</time></trkpt><trkpt lat="40.00302177328221" lon="9.081544942779052"><ele>551.0</ele><time>2026-04-29T15:02:38.2Z</time></trkpt><trkpt lat="40.00283398807265" lon="9.081530262145755"><ele>549.0</ele><time>2026-04-29T15:02:39.2Z</time></trkpt><trkpt lat="40.002685202364916" lon="9.081554343243596"><ele>549.0</ele><time>2026-04-29T15:02:40.2Z</time></trkpt><trkpt lat="40.00254190767015" lon="9.081557261738755"><ele>549.0</ele><time>2026-04-29T15:02:41.2Z</time></trkpt><trkpt lat="40.0023524912105" lon="9.08154492057062"><ele>549.0</ele><time>2026-04-29T15:02:42.2Z</time></trkpt><trkpt lat="40.002134731345414" lon="9.081501894605132"><ele>551.0</ele><time>2026-04-29T15:02:43.2Z</time></trkpt><trkpt lat="40.00193324984476" lon="9.081472069559679"><ele>553.0</ele><time>2026-04-29T15:02:44.2Z</time></trkpt><trkpt lat="40.00175742381786" lon="9.081422574907062"><ele>555.0</ele><time>2026-04-29T15:02:45.2Z</time></trkpt><trkpt lat="40.001613757130606" lon="9.081300646975409"><ele>555.6666666666666</ele><time>2026-04-29T15:02:46.2Z</time></trkpt><trkpt lat="40.001521415747895" lon="9.081075125058167"><ele>556.3333333333333</ele><time>2026-04-29T15:02:47.2Z</time></trkpt><trkpt lat="40.00145486425827" lon="9.080810760388943"><ele>557.0</ele><time>2026-04-29T15:02:48.2Z</time></trkpt><trkpt lat="40.001367002463496" lon="9.080551443200587"><ele>557.0</ele><time>2026-04-29T15:02:49.2Z</time></trkpt><trkpt lat="40.00126103860888" lon="9.080311207582065"><ele>557.0</ele><time>2026-04-29T15:02:50.2Z</time></trkpt><trkpt lat="40.00115013570983" lon="9.080075858147177"><ele>557.0</ele><time>2026-04-29T15:02:51.2Z</time></trkpt><trkpt lat="40.001009647176424" lon="9.07988486814952"><ele>557.0</ele><time>2026-04-29T15:02:52.2Z</time></trkpt><trkpt lat="40.00082408893238" lon="9.079772770976305"><ele>557.0</ele><time>2026-04-29T15:02:53.2Z</time></trkpt><trkpt lat="40.00060423935647" lon="9.079695941009616"><ele>557.0</ele><time>2026-04-29T15:02:54.2Z</time></trkpt><trkpt lat="40.00038778175333" lon="9.079608614592614"><ele>557.0</ele><time>2026-04-29T15:02:55.2Z</time></trkpt><trkpt lat="40.000175571687286" lon="9.079506677648489"><ele>557.0</ele><time>2026-04-29T15:02:56.2Z</time></trkpt><trkpt lat="39.99995889428394" lon="9.079395429300984"><ele>557.0</ele><time>2026-04-29T15:02:57.2Z</time></trkpt><trkpt lat="39.999746771309724" lon="9.07928080758044"><ele>557.0</ele><time>2026-04-29T15:02:58.2Z</time></trkpt><trkpt lat="39.99953407411991" lon="9.079173617817899"><ele>556.0</ele><time>2026-04-29T15:02:59.2Z</time></trkpt><trkpt lat="39.99934241958638" lon="9.079069894845269"><ele>555.0</ele><time>2026-04-29T15:03:00.2Z</time></trkpt><trkpt lat="39.9991558700111" lon="9.078976120079599"><ele>554.0</ele><time>2026-04-29T15:03:01.2Z</time></trkpt><trkpt lat="39.99897570958753" lon="9.078880358359557"><ele>553.0</ele><time>2026-04-29T15:03:02.2Z</time></trkpt><trkpt lat="39.9987828802475" lon="9.078784546711791"><ele>552.0</ele><time>2026-04-29T15:03:03.2Z</time></trkpt><trkpt lat="39.99858459712897" lon="9.078685074953656"><ele>551.0</ele><time>2026-04-29T15:03:04.2Z</time></trkpt><trkpt lat="39.99837591484773" lon="9.078575182746725"><ele>551.6666666666666</ele><time>2026-04-29T15:03:05.2Z</time></trkpt><trkpt lat="39.99816510119484" lon="9.078461746554368"><ele>552.3333333333334</ele><time>2026-04-29T15:03:06.2Z</time></trkpt><trkpt lat="39.99797095200197" lon="9.07836133791526"><ele>553.0</ele><time>2026-04-29T15:03:07.2Z</time></trkpt><trkpt lat="39.997790343695236" lon="9.078268466650998"><ele>552.6666666666667</ele><time>2026-04-29T15:03:08.2Z</time></trkpt><trkpt lat="39.997620536979845" lon="9.078181099964963"><ele>552.3333333333334</ele><time>2026-04-29T15:03:09.2Z</time></trkpt><trkpt lat="39.99747045294484" lon="9.078088097437307"><ele>552.0</ele><time>2026-04-29T15:03:10.2Z</time></trkpt><trkpt lat="39.99733220408579" lon="9.077988093793142"><ele>552.0</ele><time>2026-04-29T15:03:11.2Z</time></trkpt><trkpt lat="39.997199506469215" lon="9.077877666179369"><ele>552.0</ele><time>2026-04-29T15:03:12.2Z</time></trkpt><trkpt lat="39.997068768381716" lon="9.077765319215692"><ele>552.0</ele><time>2026-04-29T15:03:13.2Z</time></trkpt><trkpt lat="39.99693133514438" lon="9.077680263543632"><ele>552.0</ele><time>2026-04-29T15:03:14.2Z</time></trkpt><trkpt lat="39.99678857580512" lon="9.077647922122948"><ele>552.0</ele><time>2026-04-29T15:03:15.2Z</time></trkpt><trkpt lat="39.99665949638553" lon="9.077656725189152"><ele>552.0</ele><time>2026-04-29T15:03:16.2Z</time></trkpt><trkpt lat="39.99651760480037" lon="9.077670069100764"><ele>552.0</ele><time>2026-04-29T15:03:17.2Z</time></trkpt><trkpt lat="39.996380171917856" lon="9.077662853836536"><ele>552.5</ele><time>2026-04-29T15:03:18.2Z</time></trkpt><trkpt lat="39.996249966521745" lon="9.077638133882129"><ele>553.0</ele><time>2026-04-29T15:03:19.2Z</time></trkpt><trkpt lat="39.99612972971701" lon="9.077602110015478"><ele>553.5</ele><time>2026-04-29T15:03:20.2Z</time></trkpt><trkpt lat="39.99598969255375" lon="9.07755537136651"><ele>554.0</ele><time>2026-04-29T15:03:21.2Z</time></trkpt><trkpt lat="39.995856979714006" lon="9.077501780964413"><ele>554.25</ele><time>2026-04-29T15:03:22.2Z</time></trkpt><trkpt lat="39.99572410028137" lon="9.077448497056047"><ele>554.5</ele><time>2026-04-29T15:03:23.2Z</time></trkpt><trkpt lat="39.99559934299025" lon="9.077409491605168"><ele>554.75</ele><time>2026-04-29T15:03:24.2Z</time></trkpt><trkpt lat="39.995484394042215" lon="9.077380655833787"><ele>555.0</ele><time>2026-04-29T15:03:25.2Z</time></trkpt><trkpt lat="39.99537320903022" lon="9.077365189606303"><ele>555.0</ele><time>2026-04-29T15:03:26.2Z</time></trkpt><trkpt lat="39.99526861516816" lon="9.077373661803733"><ele>555.0</ele><time>2026-04-29T15:03:27.2Z</time></trkpt><trkpt lat="39.99516310524329" lon="9.077404042818277"><ele>555.0</ele><time>2026-04-29T15:03:28.2Z</time></trkpt><trkpt lat="39.995057272766395" lon="9.077439680625154"><ele>555.0</ele><time>2026-04-29T15:03:29.2Z</time></trkpt><trkpt lat="39.99494684425432" lon="9.077482789691192"><ele>555.0</ele><time>2026-04-29T15:03:30.2Z</time></trkpt><trkpt lat="39.9948343394693" lon="9.077520759287372"><ele>555.5</ele><time>2026-04-29T15:03:31.2Z</time></trkpt><trkpt lat="39.99472074216625" lon="9.077563424292766"><ele>556.0</ele><time>2026-04-29T15:03:32.2Z</time></trkpt><trkpt lat="39.99460499716508" lon="9.07759125084144"><ele>556.5</ele><time>2026-04-29T15:03:33.2Z</time></trkpt><trkpt lat="39.99448905735128" lon="9.077612559761663"><ele>557.0</ele><time>2026-04-29T15:03:34.2Z</time></trkpt><trkpt lat="39.994382756721805" lon="9.07761742109743"><ele>557.0</ele><time>2026-04-29T15:03:35.2Z</time></trkpt><trkpt lat="39.99428406557971" lon="9.077588596888662"><ele>557.0</ele><time>2026-04-29T15:03:36.2Z</time></trkpt><trkpt lat="39.994193303796166" lon="9.07752911666909"><ele>557.0</ele><time>2026-04-29T15:03:37.2Z</time></trkpt><trkpt lat="39.99411400901234" lon="9.077437308735842"><ele>557.0</ele><time>2026-04-29T15:03:38.2Z</time></trkpt><trkpt lat="39.99402695123365" lon="9.077347286585216"><ele>557.0</ele><time>2026-04-29T15:03:39.2Z</time></trkpt><trkpt lat="39.99393727865047" lon="9.077266369071396"><ele>556.2</ele><time>2026-04-29T15:03:40.2Z</time></trkpt><trkpt lat="39.993849510945985" lon="9.077183119416183"><ele>555.4000000000001</ele><time>2026-04-29T15:03:41.2Z</time></trkpt><trkpt lat="39.99376034978322" lon="9.077097684740373"><ele>554.5999999999999</ele><time>2026-04-29T15:03:42.2Z</time></trkpt><trkpt lat="39.99367451536708" lon="9.077014516057783"><ele>553.8</ele><time>2026-04-29T15:03:43.2Z</time></trkpt><trkpt lat="39.99359164428775" lon="9.076938157795713"><ele>553.0</ele><time>2026-04-29T15:03:44.2Z</time></trkpt><trkpt lat="39.99350891558936" lon="9.076874335688366"><ele>553.0</ele><time>2026-04-29T15:03:45.2Z</time></trkpt><trkpt lat="39.9934284554962" lon="9.076815469267464"><ele>553.0</ele><time>2026-04-29T15:03:46.2Z</time></trkpt><trkpt lat="39.99334751269757" lon="9.07676283777086"><ele>553.0</ele><time>2026-04-29T15:03:47.2Z</time></trkpt><trkpt lat="39.99326432450143" lon="9.076717027250488"><ele>553.0</ele><time>2026-04-29T15:03:48.2Z</time></trkpt><trkpt lat="39.99318721548495" lon="9.076680754662519"><ele>553.0</ele><time>2026-04-29T15:03:49.2Z</time></trkpt><trkpt lat="39.99312250968571" lon="9.076631642881644"><ele>553.0</ele><time>2026-04-29T15:03:50.2Z</time></trkpt><trkpt lat="39.99306148610928" lon="9.076593421841498"><ele>553.2857142857143</ele><time>2026-04-29T15:03:51.2Z</time></trkpt><trkpt lat="39.99299829306166" lon="9.07655497573446"><ele>553.5714285714286</ele><time>2026-04-29T15:03:52.2Z</time></trkpt><trkpt lat="39.99293746844827" lon="9.076511410279442"><ele>553.8571428571429</ele><time>2026-04-29T15:03:53.2Z</time></trkpt><trkpt lat="39.992869803653264" lon="9.076463607739148"><ele>554.1428571428571</ele><time>2026-04-29T15:03:54.2Z</time></trkpt><trkpt lat="39.992800689326295" lon="9.076422093068683"><ele>554.4285714285714</ele><time>2026-04-29T15:03:55.2Z</time></trkpt><trkpt lat="39.99272623059427" lon="9.076399075976447"><ele>554.7142857142858</ele><time>2026-04-29T15:03:56.2Z</time></trkpt><trkpt lat="39.99264857004505" lon="9.076385229959456"><ele>555.0</ele><time>2026-04-29T15:03:57.2Z</time></trkpt><trkpt lat="39.99257153691909" lon="9.07638491733307"><ele>555.1666666666666</ele><time>2026-04-29T15:03:58.2Z</time></trkpt><trkpt lat="39.992499821208" lon="9.07639194579079"><ele>555.3333333333334</ele><time>2026-04-29T15:03:59.2Z</time></trkpt><trkpt lat="39.992425068431466" lon="9.076403125343555"><ele>555.5</ele><time>2026-04-29T15:04:00.2Z</time></trkpt><trkpt lat="39.9923529991388" lon="9.076405184591044"><ele>555.6666666666667</ele><time>2026-04-29T15:04:01.2Z</time></trkpt><trkpt lat="39.99227690895894" lon="9.076408130386778"><ele>555.8333333333334</ele><time>2026-04-29T15:04:02.2Z</time></trkpt><trkpt lat="39.99219322766573" lon="9.076412768153402"><ele>556.0</ele><time>2026-04-29T15:04:03.2Z</time></trkpt><trkpt lat="39.9921079126673" lon="9.076412090029564"><ele>556.0</ele><time>2026-04-29T15:04:04.2Z</time></trkpt><trkpt lat="39.99202362396112" lon="9.076412778154678"><ele>556.0</ele><time>2026-04-29T15:04:05.2Z</time></trkpt><trkpt lat="39.99194373605103" lon="9.076417493540486"><ele>556.0</ele><time>2026-04-29T15:04:06.2Z</time></trkpt><trkpt lat="39.99187975077421" lon="9.076426045684347"><ele>556.0</ele><time>2026-04-29T15:04:07.2Z</time></trkpt><trkpt lat="39.99180678815735" lon="9.076442274778431"><ele>556.0</ele><time>2026-04-29T15:04:08.201Z</time></trkpt><trkpt lat="39.99174168377481" lon="9.076452816370617"><ele>556.0</ele><time>2026-04-29T15:04:09.201Z</time></trkpt><trkpt lat="39.99164403542978" lon="9.076478864310651"><ele>554.4</ele><time>2026-04-29T15:04:11.201Z</time></trkpt><trkpt lat="39.99156680658441" lon="9.076500083497232"><ele>552.8</ele><time>2026-04-29T15:04:13.201Z</time></trkpt><trkpt lat="39.991432734841226" lon="9.076495470407423"><ele>551.1999999999999</ele><time>2026-04-29T15:04:15.201Z</time></trkpt><trkpt lat="39.99134668470527" lon="9.076497128047619"><ele>549.6</ele><time>2026-04-29T15:04:16.201Z</time></trkpt><trkpt lat="39.99125969982274" lon="9.07648544115169"><ele>548.0</ele><time>2026-04-29T15:04:17.202Z</time></trkpt><trkpt lat="39.991155713835916" lon="9.076472508404844"><ele>548.0</ele><time>2026-04-29T15:04:18.201Z</time></trkpt><trkpt lat="39.99106943583214" lon="9.076462533118121"><ele>548.0</ele><time>2026-04-29T15:04:19.201Z</time></trkpt><trkpt lat="39.99096652457055" lon="9.076438490111084"><ele>548.0</ele><time>2026-04-29T15:04:20.201Z</time></trkpt><trkpt lat="39.99085682420874" lon="9.076411749369633"><ele>548.0</ele><time>2026-04-29T15:04:21.201Z</time></trkpt><trkpt lat="39.99075054971491" lon="9.076384430119184"><ele>548.0</ele><time>2026-04-29T15:04:22.201Z</time></trkpt><trkpt lat="39.99064344801638" lon="9.076358043231533"><ele>545.75</ele><time>2026-04-29T15:04:23.201Z</time></trkpt><trkpt lat="39.99053527532283" lon="9.076308910268475"><ele>543.5</ele><time>2026-04-29T15:04:24.201Z</time></trkpt><trkpt lat="39.99045467062637" lon="9.076209490946455"><ele>541.25</ele><time>2026-04-29T15:04:25.201Z</time></trkpt><trkpt lat="39.99035813359645" lon="9.076077411865098"><ele>539.0</ele><time>2026-04-29T15:04:26.201Z</time></trkpt><trkpt lat="39.99026925212126" lon="9.075939614049961"><ele>539.0</ele><time>2026-04-29T15:04:27.201Z</time></trkpt><trkpt lat="39.99017536376169" lon="9.075807104350263"><ele>539.0</ele><time>2026-04-29T15:04:28.201Z</time></trkpt><trkpt lat="39.99007926144974" lon="9.075670774039112"><ele>539.0</ele><time>2026-04-29T15:04:29.201Z</time></trkpt><trkpt lat="39.98998341959142" lon="9.07552969888042"><ele>539.0</ele><time>2026-04-29T15:04:30.201Z</time></trkpt><trkpt lat="39.98988710112743" lon="9.075388413804232"><ele>537.75</ele><time>2026-04-29T15:04:31.201Z</time></trkpt><trkpt lat="39.98979081269206" lon="9.075248115379507"><ele>536.5</ele><time>2026-04-29T15:04:32.201Z</time></trkpt><trkpt lat="39.98968247103094" lon="9.075125136853597"><ele>535.25</ele><time>2026-04-29T15:04:33.201Z</time></trkpt><trkpt lat="39.989564583384805" lon="9.075025287311504"><ele>534.0</ele><time>2026-04-29T15:04:34.201Z</time></trkpt><trkpt lat="39.989441373186395" lon="9.074954604755717"><ele>533.25</ele><time>2026-04-29T15:04:35.201Z</time></trkpt><trkpt lat="39.98932624278032" lon="9.0749012861609"><ele>532.5</ele><time>2026-04-29T15:04:36.201Z</time></trkpt><trkpt lat="39.989210487942756" lon="9.074849364378416"><ele>531.75</ele><time>2026-04-29T15:04:37.201Z</time></trkpt><trkpt lat="39.98910082443902" lon="9.07479107920199"><ele>531.0</ele><time>2026-04-29T15:04:38.201Z</time></trkpt><trkpt lat="39.98899490722245" lon="9.074737834688396"><ele>531.0</ele><time>2026-04-29T15:04:39.201Z</time></trkpt><trkpt lat="39.98888822294679" lon="9.074692272365622"><ele>531.0</ele><time>2026-04-29T15:04:40.201Z</time></trkpt><trkpt lat="39.9887845490354" lon="9.074640506027116"><ele>531.0</ele><time>2026-04-29T15:04:41.201Z</time></trkpt><trkpt lat="39.98868418395229" lon="9.074587005186634"><ele>531.0</ele><time>2026-04-29T15:04:42.201Z</time></trkpt><trkpt lat="39.988591254572" lon="9.074519141833399"><ele>531.0</ele><time>2026-04-29T15:04:43.201Z</time></trkpt><trkpt lat="39.98851404246872" lon="9.074421305600621"><ele>531.0</ele><time>2026-04-29T15:04:44.201Z</time></trkpt><trkpt lat="39.98844858612977" lon="9.07429640678367"><ele>531.0</ele><time>2026-04-29T15:04:45.201Z</time></trkpt><trkpt lat="39.98839565259128" lon="9.074152905520666"><ele>531.0</ele><time>2026-04-29T15:04:46.201Z</time></trkpt><trkpt lat="39.988371501974555" lon="9.073987510630028"><ele>531.0</ele><time>2026-04-29T15:04:47.201Z</time></trkpt><trkpt lat="39.98839098635581" lon="9.073802377804641"><ele>531.25</ele><time>2026-04-29T15:04:48.201Z</time></trkpt><trkpt lat="39.98840955653544" lon="9.073619108565943"><ele>531.5</ele><time>2026-04-29T15:04:49.201Z</time></trkpt><trkpt lat="39.988377411848134" lon="9.073447765556647"><ele>531.75</ele><time>2026-04-29T15:04:50.201Z</time></trkpt><trkpt lat="39.98829373925601" lon="9.073297404156602"><ele>532.0</ele><time>2026-04-29T15:04:51.201Z</time></trkpt><trkpt lat="39.98818858455878" lon="9.073169181846621"><ele>530.2</ele><time>2026-04-29T15:04:52.201Z</time></trkpt><trkpt lat="39.98807930371686" lon="9.07306050117348"><ele>528.4000000000001</ele><time>2026-04-29T15:04:53.201Z</time></trkpt><trkpt lat="39.98798587467172" lon="9.072982382115036"><ele>526.5999999999999</ele><time>2026-04-29T15:04:54.201Z</time></trkpt><trkpt lat="39.98790355110393" lon="9.072940397307214"><ele>524.8</ele><time>2026-04-29T15:04:55.201Z</time></trkpt><trkpt lat="39.98783673287137" lon="9.072945713154855"><ele>523.0</ele><time>2026-04-29T15:04:56.201Z</time></trkpt><trkpt lat="39.987740521967694" lon="9.073048075618713"><ele>523.0</ele><time>2026-04-29T15:04:58.201Z</time></trkpt><trkpt lat="39.98771676949171" lon="9.073153997198572"><ele>523.0</ele><time>2026-04-29T15:04:59.201Z</time></trkpt><trkpt lat="39.98768495062767" lon="9.07327081599849"><ele>523.0</ele><time>2026-04-29T15:05:00.201Z</time></trkpt><trkpt lat="39.98764114549523" lon="9.073402215530933"><ele>523.0</ele><time>2026-04-29T15:05:01.201Z</time></trkpt><trkpt lat="39.98759298995939" lon="9.073548465041934"><ele>523.0</ele><time>2026-04-29T15:05:02.201Z</time></trkpt><trkpt lat="39.98753589507534" lon="9.073704510731318"><ele>516.6666666666667</ele><time>2026-04-29T15:05:03.201Z</time></trkpt><trkpt lat="39.987462893207926" lon="9.073867721405664"><ele>510.33333333333337</ele><time>2026-04-29T15:05:04.201Z</time></trkpt><trkpt lat="39.987395895892675" lon="9.074043502003484"><ele>504.0</ele><time>2026-04-29T15:05:05.201Z</time></trkpt><trkpt lat="39.98730971393039" lon="9.074228929592131"><ele>503.33333333333337</ele><time>2026-04-29T15:05:06.201Z</time></trkpt><trkpt lat="39.98722162927212" lon="9.074427126433319"><ele>502.6666666666667</ele><time>2026-04-29T15:05:07.201Z</time></trkpt><trkpt lat="39.98712923869443" lon="9.074642248299499"><ele>502.0</ele><time>2026-04-29T15:05:08.201Z</time></trkpt><trkpt lat="39.98703597241106" lon="9.074854406642512"><ele>502.33333333333337</ele><time>2026-04-29T15:05:09.201Z</time></trkpt><trkpt lat="39.98694328817242" lon="9.075068652997968"><ele>502.66666666666663</ele><time>2026-04-29T15:05:10.201Z</time></trkpt><trkpt lat="39.98685285306806" lon="9.075285667161273"><ele>503.0</ele><time>2026-04-29T15:05:11.201Z</time></trkpt><trkpt lat="39.98676002241024" lon="9.075502198632172"><ele>504.66666666666663</ele><time>2026-04-29T15:05:12.201Z</time></trkpt><trkpt lat="39.98667004102844" lon="9.075717089277076"><ele>506.33333333333337</ele><time>2026-04-29T15:05:13.201Z</time></trkpt><trkpt lat="39.98657877359006" lon="9.075928999918586"><ele>508.0</ele><time>2026-04-29T15:05:14.201Z</time></trkpt><trkpt lat="39.986486941463205" lon="9.076139417392543"><ele>509.0</ele><time>2026-04-29T15:05:15.201Z</time></trkpt><trkpt lat="39.986397055498685" lon="9.076350810115642"><ele>510.0</ele><time>2026-04-29T15:05:16.201Z</time></trkpt><trkpt lat="39.986309299785816" lon="9.07655793389327"><ele>511.0</ele><time>2026-04-29T15:05:17.201Z</time></trkpt><trkpt lat="39.98622235964817" lon="9.076746639900495"><ele>513.3333333333334</ele><time>2026-04-29T15:05:18.201Z</time></trkpt><trkpt lat="39.986117586194226" lon="9.076909273671475"><ele>515.6666666666666</ele><time>2026-04-29T15:05:19.201Z</time></trkpt><trkpt lat="39.98598220830656" lon="9.077047398484616"><ele>518.0</ele><time>2026-04-29T15:05:20.201Z</time></trkpt><trkpt lat="39.9858289831082" lon="9.077151956283389"><ele>519.0</ele><time>2026-04-29T15:05:21.201Z</time></trkpt><trkpt lat="39.98564626544836" lon="9.077207765490785"><ele>520.0</ele><time>2026-04-29T15:05:22.201Z</time></trkpt><trkpt lat="39.98545669634206" lon="9.077203900779779"><ele>521.0</ele><time>2026-04-29T15:05:23.201Z</time></trkpt><trkpt lat="39.98526956522914" lon="9.077169068256083"><ele>521.0</ele><time>2026-04-29T15:05:24.201Z</time></trkpt><trkpt lat="39.985083259460886" lon="9.077120685765633"><ele>521.0</ele><time>2026-04-29T15:05:25.201Z</time></trkpt><trkpt lat="39.98490563408976" lon="9.077064101964519"><ele>521.0</ele><time>2026-04-29T15:05:26.201Z</time></trkpt><trkpt lat="39.98475067684104" lon="9.07699237275495"><ele>524.3333333333333</ele><time>2026-04-29T15:05:27.201Z</time></trkpt><trkpt lat="39.98461033501796" lon="9.076869575128047"><ele>527.6666666666666</ele><time>2026-04-29T15:05:28.201Z</time></trkpt><trkpt lat="39.98449084956608" lon="9.076690069348947"><ele>531.0</ele><time>2026-04-29T15:05:29.201Z</time></trkpt><trkpt lat="39.98438197681192" lon="9.076472462792493"><ele>531.0</ele><time>2026-04-29T15:05:30.201Z</time></trkpt><trkpt lat="39.98426845850288" lon="9.076241120862962"><ele>531.0</ele><time>2026-04-29T15:05:31.201Z</time></trkpt><trkpt lat="39.984147785578855" lon="9.075998787664268"><ele>531.0</ele><time>2026-04-29T15:05:32.201Z</time></trkpt><trkpt lat="39.98402261019023" lon="9.07575999300161"><ele>533.6666666666666</ele><time>2026-04-29T15:05:33.201Z</time></trkpt><trkpt lat="39.983905665633266" lon="9.075521116948657"><ele>536.3333333333333</ele><time>2026-04-29T15:05:34.201Z</time></trkpt><trkpt lat="39.98377987781462" lon="9.075269782126615"><ele>539.0</ele><time>2026-04-29T15:05:35.201Z</time></trkpt><trkpt lat="39.983651634541765" lon="9.075012643143989"><ele>535.5</ele><time>2026-04-29T15:05:36.201Z</time></trkpt><trkpt lat="39.98352296270635" lon="9.074752243587453"><ele>532.0</ele><time>2026-04-29T15:05:37.201Z</time></trkpt><trkpt lat="39.98339621944915" lon="9.07449099213339"><ele>537.0</ele><time>2026-04-29T15:05:38.201Z</time></trkpt><trkpt lat="39.98326171708949" lon="9.074224175473956"><ele>542.0</ele><time>2026-04-29T15:05:39.201Z</time></trkpt><trkpt lat="39.983136461366755" lon="9.073954607697699"><ele>542.0</ele><time>2026-04-29T15:05:40.201Z</time></trkpt><trkpt lat="39.98302323342779" lon="9.073710188745281"><ele>542.0</ele><time>2026-04-29T15:05:41.201Z</time></trkpt><trkpt lat="39.98291597272008" lon="9.073487193336357"><ele>542.0</ele><time>2026-04-29T15:05:42.201Z</time></trkpt><trkpt lat="39.982814940426344" lon="9.073288484075473"><ele>540.6666666666666</ele><time>2026-04-29T15:05:43.201Z</time></trkpt><trkpt lat="39.98268795902749" lon="9.073137766498583"><ele>539.3333333333334</ele><time>2026-04-29T15:05:44.201Z</time></trkpt><trkpt lat="39.982525023371835" lon="9.073034996598203"><ele>538.0</ele><time>2026-04-29T15:05:45.201Z</time></trkpt><trkpt lat="39.982337805013266" lon="9.072969316644658"><ele>543.0</ele><time>2026-04-29T15:05:46.201Z</time></trkpt><trkpt lat="39.98212517801143" lon="9.072938620363761"><ele>548.0</ele><time>2026-04-29T15:05:47.201Z</time></trkpt><trkpt lat="39.981894681907875" lon="9.072905989060772"><ele>553.0</ele><time>2026-04-29T15:05:48.201Z</time></trkpt><trkpt lat="39.98166070536301" lon="9.072859938793925"><ele>556.0</ele><time>2026-04-29T15:05:49.201Z</time></trkpt><trkpt lat="39.98142297402603" lon="9.072818590826484"><ele>559.0</ele><time>2026-04-29T15:05:50.201Z</time></trkpt><trkpt lat="39.981214909045676" lon="9.072763559690182"><ele>559.0</ele><time>2026-04-29T15:05:51.201Z</time></trkpt><trkpt lat="39.98101952912664" lon="9.072641425840699"><ele>559.0</ele><time>2026-04-29T15:05:52.201Z</time></trkpt><trkpt lat="39.98084384687468" lon="9.072474734965429"><ele>559.0</ele><time>2026-04-29T15:05:53.201Z</time></trkpt><trkpt lat="39.98066693662152" lon="9.072284603361036"><ele>560.0</ele><time>2026-04-29T15:05:54.201Z</time></trkpt><trkpt lat="39.98048465116311" lon="9.072089611483966"><ele>561.0</ele><time>2026-04-29T15:05:55.201Z</time></trkpt><trkpt lat="39.98030403573388" lon="9.071891253464075"><ele>561.0</ele><time>2026-04-29T15:05:56.201Z</time></trkpt><trkpt lat="39.98012914142471" lon="9.071727423335306"><ele>561.0</ele><time>2026-04-29T15:05:57.201Z</time></trkpt><trkpt lat="39.9799406040234" lon="9.07161641808258"><ele>561.0</ele><time>2026-04-29T15:05:58.201Z</time></trkpt><trkpt lat="39.979736509672904" lon="9.07154915422794"><ele>562.6666666666666</ele><time>2026-04-29T15:05:59.201Z</time></trkpt><trkpt lat="39.979532550740664" lon="9.071506088537246"><ele>564.3333333333333</ele><time>2026-04-29T15:06:00.201Z</time></trkpt><trkpt lat="39.97937267928457" lon="9.071406606506233"><ele>566.0</ele><time>2026-04-29T15:06:01.201Z</time></trkpt><trkpt lat="39.9792447899881" lon="9.071243607850748"><ele>572.6666666666666</ele><time>2026-04-29T15:06:02.201Z</time></trkpt><trkpt lat="39.97913686426053" lon="9.071037147794913"><ele>579.3333333333334</ele><time>2026-04-29T15:06:03.201Z</time></trkpt><trkpt lat="39.97902999604539" lon="9.070806716918327"><ele>586.0</ele><time>2026-04-29T15:06:04.201Z</time></trkpt><trkpt lat="39.978920982887686" lon="9.070556006689248"><ele>586.0</ele><time>2026-04-29T15:06:05.201Z</time></trkpt><trkpt lat="39.978829458640064" lon="9.070318888100214"><ele>586.0</ele><time>2026-04-29T15:06:06.201Z</time></trkpt><trkpt lat="39.97877482916496" lon="9.070098131400137"><ele>586.0</ele><time>2026-04-29T15:06:07.201Z</time></trkpt><trkpt lat="39.97878692600738" lon="9.069868903784227"><ele>588.0</ele><time>2026-04-29T15:06:08.201Z</time></trkpt><trkpt lat="39.978832903537814" lon="9.069611483555283"><ele>590.0</ele><time>2026-04-29T15:06:09.201Z</time></trkpt><trkpt lat="39.97890547648519" lon="9.069342633819344"><ele>592.0</ele><time>2026-04-29T15:06:10.201Z</time></trkpt><trkpt lat="39.97896361467932" lon="9.069059938507676"><ele>593.0</ele><time>2026-04-29T15:06:11.201Z</time></trkpt><trkpt lat="39.979012974283236" lon="9.068802925238545"><ele>594.0</ele><time>2026-04-29T15:06:12.201Z</time></trkpt><trkpt lat="39.979042810506485" lon="9.068584676092536"><ele>595.0</ele><time>2026-04-29T15:06:13.201Z</time></trkpt><trkpt lat="39.97899127692453" lon="9.068364504743617"><ele>593.0</ele><time>2026-04-29T15:06:14.201Z</time></trkpt><trkpt lat="39.978894018104256" lon="9.068183829679139"><ele>591.0</ele><time>2026-04-29T15:06:15.202Z</time></trkpt><trkpt lat="39.97875452335682" lon="9.06806598621709"><ele>589.0</ele><time>2026-04-29T15:06:16.202Z</time></trkpt><trkpt lat="39.97858012969325" lon="9.06801872067416"><ele>589.0</ele><time>2026-04-29T15:06:17.202Z</time></trkpt><trkpt lat="39.978395958520444" lon="9.068076642152436"><ele>589.0</ele><time>2026-04-29T15:06:18.201Z</time></trkpt><trkpt lat="39.97821991975033" lon="9.06821871448539"><ele>589.0</ele><time>2026-04-29T15:06:19.201Z</time></trkpt><trkpt lat="39.978047437550146" lon="9.068404880339404"><ele>596.0</ele><time>2026-04-29T15:06:20.201Z</time></trkpt><trkpt lat="39.97783888183362" lon="9.06853072771511"><ele>603.0</ele><time>2026-04-29T15:06:21.201Z</time></trkpt><trkpt lat="39.977607189721134" lon="9.06859086765449"><ele>598.3333333333334</ele><time>2026-04-29T15:06:22.201Z</time></trkpt><trkpt lat="39.97740590891989" lon="9.068634830592423"><ele>593.6666666666667</ele><time>2026-04-29T15:06:23.202Z</time></trkpt><trkpt lat="39.977249958251434" lon="9.068751062039464"><ele>589.0</ele><time>2026-04-29T15:06:24.201Z</time></trkpt><trkpt lat="39.9771388405818" lon="9.06895338167517"><ele>598.0</ele><time>2026-04-29T15:06:25.201Z</time></trkpt><trkpt lat="39.977076568662476" lon="9.069198548138557"><ele>607.0</ele><time>2026-04-29T15:06:26.201Z</time></trkpt><trkpt lat="39.97706587664654" lon="9.069476821365003"><ele>616.0</ele><time>2026-04-29T15:06:27.201Z</time></trkpt><trkpt lat="39.97705472411603" lon="9.069750400131884"><ele>613.3333333333334</ele><time>2026-04-29T15:06:28.201Z</time></trkpt><trkpt lat="39.976977343081614" lon="9.069960617728093"><ele>610.6666666666666</ele><time>2026-04-29T15:06:29.201Z</time></trkpt><trkpt lat="39.97684061471622" lon="9.070117943008828"><ele>608.0</ele><time>2026-04-29T15:06:30.201Z</time></trkpt><trkpt lat="39.97666281190505" lon="9.07025994652341"><ele>608.0</ele><time>2026-04-29T15:06:31.201Z</time></trkpt><trkpt lat="39.976443226385385" lon="9.070339625244618"><ele>608.0</ele><time>2026-04-29T15:06:32.201Z</time></trkpt><trkpt lat="39.976202949224415" lon="9.070394604407507"><ele>608.0</ele><time>2026-04-29T15:06:33.201Z</time></trkpt><trkpt lat="39.975969285046" lon="9.07046471111962"><ele>608.0</ele><time>2026-04-29T15:06:34.201Z</time></trkpt><trkpt lat="39.97573608282829" lon="9.070543214726198"><ele>605.0</ele><time>2026-04-29T15:06:35.201Z</time></trkpt><trkpt lat="39.975518887058186" lon="9.070614386648844"><ele>602.0</ele><time>2026-04-29T15:06:36.201Z</time></trkpt><trkpt lat="39.97532563842297" lon="9.070699921134098"><ele>599.0</ele><time>2026-04-29T15:06:37.201Z</time></trkpt><trkpt lat="39.97515461702724" lon="9.07084927098029"><ele>604.0</ele><time>2026-04-29T15:06:38.201Z</time></trkpt><trkpt lat="39.975010027954504" lon="9.071059136397425"><ele>609.0</ele><time>2026-04-29T15:06:39.201Z</time></trkpt><trkpt lat="39.97490451779432" lon="9.071308822934958"><ele>614.0</ele><time>2026-04-29T15:06:40.201Z</time></trkpt><trkpt lat="39.97481825100706" lon="9.071591103814933"><ele>617.0</ele><time>2026-04-29T15:06:41.201Z</time></trkpt><trkpt lat="39.97475671456567" lon="9.071891039710643"><ele>620.0</ele><time>2026-04-29T15:06:42.201Z</time></trkpt><trkpt lat="39.97470206683969" lon="9.072203587090144"><ele>621.5</ele><time>2026-04-29T15:06:43.201Z</time></trkpt><trkpt lat="39.974663136275375" lon="9.072521500231838"><ele>623.0</ele><time>2026-04-29T15:06:44.201Z</time></trkpt><trkpt lat="39.9746322697537" lon="9.072826853082432"><ele>623.0</ele><time>2026-04-29T15:06:45.201Z</time></trkpt><trkpt lat="39.97460126588397" lon="9.073120245021851"><ele>623.0</ele><time>2026-04-29T15:06:46.201Z</time></trkpt><trkpt lat="39.974564158942044" lon="9.073397824416595"><ele>623.0</ele><time>2026-04-29T15:06:47.201Z</time></trkpt><trkpt lat="39.97451669217309" lon="9.073652702929422"><ele>624.3333333333333</ele><time>2026-04-29T15:06:48.201Z</time></trkpt><trkpt lat="39.97443794259379" lon="9.0738911658204"><ele>625.6666666666666</ele><time>2026-04-29T15:06:49.201Z</time></trkpt><trkpt lat="39.97430968650078" lon="9.074121520666365"><ele>627.0</ele><time>2026-04-29T15:06:50.201Z</time></trkpt><trkpt lat="39.97416505641177" lon="9.074359583899113"><ele>610.0</ele><time>2026-04-29T15:06:51.201Z</time></trkpt><trkpt lat="39.97401035726388" lon="9.074604790979933"><ele>593.0</ele><time>2026-04-29T15:06:52.201Z</time></trkpt><trkpt lat="39.97384838025279" lon="9.074841445383033"><ele>597.6666666666666</ele><time>2026-04-29T15:06:53.201Z</time></trkpt><trkpt lat="39.97369021369576" lon="9.075057870610038"><ele>602.3333333333334</ele><time>2026-04-29T15:06:54.201Z</time></trkpt><trkpt lat="39.97355360591886" lon="9.075249989064183"><ele>607.0</ele><time>2026-04-29T15:06:55.201Z</time></trkpt><trkpt lat="39.973431614831654" lon="9.075439990148913"><ele>607.0</ele><time>2026-04-29T15:06:56.201Z</time></trkpt><trkpt lat="39.97337078797147" lon="9.075666907493984"><ele>607.0</ele><time>2026-04-29T15:06:57.201Z</time></trkpt><trkpt lat="39.97337129024509" lon="9.075934526571617"><ele>607.0</ele><time>2026-04-29T15:06:58.201Z</time></trkpt><trkpt lat="39.973406485288436" lon="9.076228551818213"><ele>607.5</ele><time>2026-04-29T15:06:59.201Z</time></trkpt><trkpt lat="39.97344094438853" lon="9.076536065362092"><ele>608.0</ele><time>2026-04-29T15:07:00.201Z</time></trkpt><trkpt lat="39.973463616489596" lon="9.076813806224639"><ele>608.0</ele><time>2026-04-29T15:07:01.201Z</time></trkpt><trkpt lat="39.97351519610413" lon="9.07707017942912"><ele>608.0</ele><time>2026-04-29T15:07:02.201Z</time></trkpt><trkpt lat="39.973622039280684" lon="9.07730934461738"><ele>608.0</ele><time>2026-04-29T15:07:03.201Z</time></trkpt><trkpt lat="39.97377322812931" lon="9.07753294557561"><ele>600.3333333333333</ele><time>2026-04-29T15:07:04.201Z</time></trkpt><trkpt lat="39.973928378791655" lon="9.077758328452454"><ele>592.6666666666666</ele><time>2026-04-29T15:07:05.201Z</time></trkpt><trkpt lat="39.97405874676699" lon="9.077972206607381"><ele>585.0</ele><time>2026-04-29T15:07:06.201Z</time></trkpt><trkpt lat="39.974135278246024" lon="9.078188121402677"><ele>578.6666666666666</ele><time>2026-04-29T15:07:07.201Z</time></trkpt><trkpt lat="39.974143318368405" lon="9.07840655335871"><ele>572.3333333333333</ele><time>2026-04-29T15:07:08.201Z</time></trkpt><trkpt lat="39.97408519904667" lon="9.078627457686945"><ele>566.0</ele><time>2026-04-29T15:07:09.201Z</time></trkpt><trkpt lat="39.97399721962343" lon="9.07886988056643"><ele>565.6666666666666</ele><time>2026-04-29T15:07:10.201Z</time></trkpt><trkpt lat="39.973910697269616" lon="9.079131463447665"><ele>565.3333333333334</ele><time>2026-04-29T15:07:11.201Z</time></trkpt><trkpt lat="39.973818453413614" lon="9.07940463808571"><ele>565.0</ele><time>2026-04-29T15:07:12.201Z</time></trkpt><trkpt lat="39.97373018804548" lon="9.079698074090945"><ele>568.5</ele><time>2026-04-29T15:07:13.201Z</time></trkpt><trkpt lat="39.97364062171645" lon="9.080012187515143"><ele>572.0</ele><time>2026-04-29T15:07:14.201Z</time></trkpt><trkpt lat="39.97354794278881" lon="9.080329547271278"><ele>572.0</ele><time>2026-04-29T15:07:15.201Z</time></trkpt><trkpt lat="39.97345160980041" lon="9.080646559147386"><ele>572.0</ele><time>2026-04-29T15:07:16.201Z</time></trkpt><trkpt lat="39.97335598978728" lon="9.080941784473744"><ele>560.0</ele><time>2026-04-29T15:07:17.201Z</time></trkpt><trkpt lat="39.97327283816776" lon="9.08122660519013"><ele>548.0</ele><time>2026-04-29T15:07:18.201Z</time></trkpt><trkpt lat="39.97319105701163" lon="9.081502825123751"><ele>550.0</ele><time>2026-04-29T15:07:19.201Z</time></trkpt><trkpt lat="39.973112653356914" lon="9.081761110270874"><ele>552.0</ele><time>2026-04-29T15:07:20.201Z</time></trkpt><trkpt lat="39.97302643332887" lon="9.08203199960556"><ele>554.0</ele><time>2026-04-29T15:07:21.201Z</time></trkpt><trkpt lat="39.97295193490624" lon="9.082285811081626"><ele>555.3333333333333</ele><time>2026-04-29T15:07:22.201Z</time></trkpt><trkpt lat="39.97290627704515" lon="9.082519581803567"><ele>556.6666666666666</ele><time>2026-04-29T15:07:23.201Z</time></trkpt><trkpt lat="39.97293262442343" lon="9.082761017902465"><ele>558.0</ele><time>2026-04-29T15:07:24.201Z</time></trkpt><trkpt lat="39.97301086919962" lon="9.083007122792385"><ele>558.0</ele><time>2026-04-29T15:07:25.201Z</time></trkpt><trkpt lat="39.97310178692571" lon="9.083255555581617"><ele>558.0</ele><time>2026-04-29T15:07:26.201Z</time></trkpt><trkpt lat="39.97318199468925" lon="9.083500100720034"><ele>558.0</ele><time>2026-04-29T15:07:27.201Z</time></trkpt><trkpt lat="39.97320572518595" lon="9.083772431383327"><ele>555.3333333333334</ele><time>2026-04-29T15:07:28.201Z</time></trkpt><trkpt lat="39.97319729180045" lon="9.083979759649973"><ele>552.6666666666667</ele><time>2026-04-29T15:07:29.201Z</time></trkpt><trkpt lat="39.973147617771176" lon="9.084175142872498"><ele>550.0</ele><time>2026-04-29T15:07:30.201Z</time></trkpt><trkpt lat="39.97305546672922" lon="9.084393922446123"><ele>549.0</ele><time>2026-04-29T15:07:31.201Z</time></trkpt><trkpt lat="39.97297255824495" lon="9.08462754599568"><ele>548.0</ele><time>2026-04-29T15:07:32.201Z</time></trkpt><trkpt lat="39.97289441448802" lon="9.084861041643629"><ele>547.0</ele><time>2026-04-29T15:07:33.201Z</time></trkpt><trkpt lat="39.97282058991825" lon="9.085067513724885"><ele>549.0</ele><time>2026-04-29T15:07:34.201Z</time></trkpt><trkpt lat="39.97274287274455" lon="9.085207769129076"><ele>551.0</ele><time>2026-04-29T15:07:35.201Z</time></trkpt><trkpt lat="39.972654749190895" lon="9.085325725511893"><ele>553.0</ele><time>2026-04-29T15:07:36.201Z</time></trkpt><trkpt lat="39.972537310592514" lon="9.085394548507988"><ele>555.0</ele><time>2026-04-29T15:07:37.201Z</time></trkpt><trkpt lat="39.97239254605536" lon="9.085406832986688"><ele>550.6</ele><time>2026-04-29T15:07:38.201Z</time></trkpt><trkpt lat="39.972270581322654" lon="9.08540851574114"><ele>546.2</ele><time>2026-04-29T15:07:39.201Z</time></trkpt><trkpt lat="39.97215405095428" lon="9.085405646893733"><ele>541.8</ele><time>2026-04-29T15:07:40.201Z</time></trkpt><trkpt lat="39.972049744727606" lon="9.0854216257564"><ele>537.4</ele><time>2026-04-29T15:07:41.201Z</time></trkpt><trkpt lat="39.9719626121222" lon="9.085433126432635"><ele>533.0</ele><time>2026-04-29T15:07:43.201Z</time></trkpt><trkpt lat="39.97188920776645" lon="9.085423874575888"><ele>533.0</ele><time>2026-04-29T15:07:48.201Z</time></trkpt><trkpt lat="39.97182393727162" lon="9.085418487415165"><ele>533.0</ele><time>2026-04-29T15:07:53.201Z</time></trkpt><trkpt lat="39.97171180272193" lon="9.085436323011074"><ele>533.0</ele><time>2026-04-29T15:07:55.201Z</time></trkpt><trkpt lat="39.9716165295471" lon="9.085451316575513"><ele>533.0</ele><time>2026-04-29T15:07:56.201Z</time></trkpt><trkpt lat="39.97149918663921" lon="9.085473300634437"><ele>533.0</ele><time>2026-04-29T15:07:57.201Z</time></trkpt><trkpt lat="39.97137117389384" lon="9.085508336127523"><ele>530.25</ele><time>2026-04-29T15:07:58.201Z</time></trkpt><trkpt lat="39.97125421167549" lon="9.085568051266854"><ele>527.5</ele><time>2026-04-29T15:07:59.201Z</time></trkpt><trkpt lat="39.971127003748755" lon="9.085662336522658"><ele>524.75</ele><time>2026-04-29T15:08:00.201Z</time></trkpt><trkpt lat="39.971013082877406" lon="9.085818705813878"><ele>522.0</ele><time>2026-04-29T15:08:01.201Z</time></trkpt><trkpt lat="39.970921480574646" lon="9.08599740271461"><ele>531.0</ele><time>2026-04-29T15:08:02.201Z</time></trkpt><trkpt lat="39.97088211336882" lon="9.086201632140721"><ele>540.0</ele><time>2026-04-29T15:08:03.201Z</time></trkpt><trkpt lat="39.97086549175926" lon="9.086432340610134"><ele>549.0</ele><time>2026-04-29T15:08:04.201Z</time></trkpt><trkpt lat="39.97090462119179" lon="9.086680594233377"><ele>551.6666666666666</ele><time>2026-04-29T15:08:05.201Z</time></trkpt><trkpt lat="39.970978135798205" lon="9.086908916167813"><ele>554.3333333333333</ele><time>2026-04-29T15:08:06.201Z</time></trkpt><trkpt lat="39.97108584037507" lon="9.087106295824999"><ele>557.0</ele><time>2026-04-29T15:08:07.201Z</time></trkpt><trkpt lat="39.97122878262952" lon="9.08729339954848"><ele>554.0</ele><time>2026-04-29T15:08:08.201Z</time></trkpt><trkpt lat="39.97135680836549" lon="9.087510183943166"><ele>551.0</ele><time>2026-04-29T15:08:09.201Z</time></trkpt><trkpt lat="39.97144373565196" lon="9.087763542873567"><ele>548.0</ele><time>2026-04-29T15:08:10.201Z</time></trkpt><trkpt lat="39.9715017632637" lon="9.088041767893726"><ele>542.0</ele><time>2026-04-29T15:08:11.201Z</time></trkpt><trkpt lat="39.971547716246896" lon="9.088344978718558"><ele>536.0</ele><time>2026-04-29T15:08:12.201Z</time></trkpt><trkpt lat="39.971617093557555" lon="9.088639300459104"><ele>547.5</ele><time>2026-04-29T15:08:13.201Z</time></trkpt><trkpt lat="39.97171426959774" lon="9.088929630230016"><ele>559.0</ele><time>2026-04-29T15:08:14.201Z</time></trkpt><trkpt lat="39.9718261395034" lon="9.089204413280743"><ele>559.0</ele><time>2026-04-29T15:08:15.201Z</time></trkpt><trkpt lat="39.971929918617015" lon="9.089480909936519"><ele>559.0</ele><time>2026-04-29T15:08:16.201Z</time></trkpt><trkpt lat="39.97200067277595" lon="9.08973771598729"><ele>559.0</ele><time>2026-04-29T15:08:17.201Z</time></trkpt><trkpt lat="39.97201898878689" lon="9.089998824386795"><ele>557.6666666666667</ele><time>2026-04-29T15:08:18.201Z</time></trkpt><trkpt lat="39.97198348055483" lon="9.090262460331292"><ele>556.3333333333334</ele><time>2026-04-29T15:08:19.201Z</time></trkpt><trkpt lat="39.97190132097358" lon="9.09053127688507"><ele>555.0</ele><time>2026-04-29T15:08:20.203Z</time></trkpt><trkpt lat="39.97180014187248" lon="9.090799929528455"><ele>554.3333333333334</ele><time>2026-04-29T15:08:21.202Z</time></trkpt><trkpt lat="39.97171463491051" lon="9.09106812589261"><ele>553.6666666666667</ele><time>2026-04-29T15:08:22.202Z</time></trkpt><trkpt lat="39.97163986413105" lon="9.091301902847068"><ele>553.0</ele><time>2026-04-29T15:08:23.203Z</time></trkpt><trkpt lat="39.971555628377274" lon="9.091486034899624"><ele>542.0</ele><time>2026-04-29T15:08:24.203Z</time></trkpt><trkpt lat="39.97143936711238" lon="9.091628625818105"><ele>531.0</ele><time>2026-04-29T15:08:25.203Z</time></trkpt><trkpt lat="39.97127948945067" lon="9.091693887095165"><ele>520.0</ele><time>2026-04-29T15:08:26.202Z</time></trkpt><trkpt lat="39.97109746366866" lon="9.09169536501372"><ele>520.0</ele><time>2026-04-29T15:08:27.203Z</time></trkpt><trkpt lat="39.9709230240748" lon="9.091640339476498"><ele>520.0</ele><time>2026-04-29T15:08:28.203Z</time></trkpt><trkpt lat="39.97073183036712" lon="9.091535353507682"><ele>520.0</ele><time>2026-04-29T15:08:29.202Z</time></trkpt><trkpt lat="39.970523004864525" lon="9.091430082037116"><ele>514.0</ele><time>2026-04-29T15:08:30.202Z</time></trkpt><trkpt lat="39.970311628124655" lon="9.091318787658796"><ele>508.0</ele><time>2026-04-29T15:08:31.202Z</time></trkpt><trkpt lat="39.97011808983772" lon="9.091222411816794"><ele>502.0</ele><time>2026-04-29T15:08:32.203Z</time></trkpt><trkpt lat="39.96993801215855" lon="9.091156466603737"><ele>502.0</ele><time>2026-04-29T15:08:33.203Z</time></trkpt><trkpt lat="39.96974634070182" lon="9.091141156456814"><ele>502.0</ele><time>2026-04-29T15:08:34.203Z</time></trkpt><trkpt lat="39.96956212344654" lon="9.091219684813957"><ele>502.0</ele><time>2026-04-29T15:08:35.203Z</time></trkpt><trkpt lat="39.96940313278518" lon="9.091383757821932"><ele>502.33333333333337</ele><time>2026-04-29T15:08:36.203Z</time></trkpt><trkpt lat="39.969263000697254" lon="9.09159556691823"><ele>502.66666666666663</ele><time>2026-04-29T15:08:37.203Z</time></trkpt><trkpt lat="39.96911338075828" lon="9.091814211485408"><ele>503.0</ele><time>2026-04-29T15:08:38.203Z</time></trkpt><trkpt lat="39.96897722391053" lon="9.092010100461762"><ele>503.0</ele><time>2026-04-29T15:08:39.203Z</time></trkpt><trkpt lat="39.968860500963" lon="9.092194168262289"><ele>503.0</ele><time>2026-04-29T15:08:40.203Z</time></trkpt><trkpt lat="39.9687838726473" lon="9.092401083690183"><ele>503.0</ele><time>2026-04-29T15:08:41.203Z</time></trkpt><trkpt lat="39.96875681045968" lon="9.09264374836936"><ele>503.3333333333333</ele><time>2026-04-29T15:08:42.203Z</time></trkpt><trkpt lat="39.96879047421236" lon="9.09290130925874"><ele>503.66666666666663</ele><time>2026-04-29T15:08:43.203Z</time></trkpt><trkpt lat="39.9688675551884" lon="9.093152115915581"><ele>504.0</ele><time>2026-04-29T15:08:44.203Z</time></trkpt><trkpt lat="39.96898874530349" lon="9.093421570618329"><ele>501.33333333333337</ele><time>2026-04-29T15:08:45.203Z</time></trkpt><trkpt lat="39.969074569451976" lon="9.093672249168973"><ele>498.6666666666667</ele><time>2026-04-29T15:08:46.203Z</time></trkpt><trkpt lat="39.969138922559566" lon="9.093896547505498"><ele>496.0</ele><time>2026-04-29T15:08:47.203Z</time></trkpt><trkpt lat="39.969174109742646" lon="9.094105429560228"><ele>494.0</ele><time>2026-04-29T15:08:48.203Z</time></trkpt><trkpt lat="39.96919129428086" lon="9.094321452721907"><ele>492.0</ele><time>2026-04-29T15:08:49.203Z</time></trkpt><trkpt lat="39.96915319427538" lon="9.094561076339309"><ele>490.0</ele><time>2026-04-29T15:08:50.203Z</time></trkpt><trkpt lat="39.96907701239801" lon="9.094798902907353"><ele>490.5</ele><time>2026-04-29T15:08:51.203Z</time></trkpt><trkpt lat="39.968991433909046" lon="9.095066927243565"><ele>491.0</ele><time>2026-04-29T15:08:52.203Z</time></trkpt><trkpt lat="39.96890748129109" lon="9.095343279818671"><ele>491.0</ele><time>2026-04-29T15:08:53.203Z</time></trkpt><trkpt lat="39.96882986034419" lon="9.095642568113536"><ele>491.0</ele><time>2026-04-29T15:08:54.203Z</time></trkpt><trkpt lat="39.96874814946025" lon="9.095932993275978"><ele>491.0</ele><time>2026-04-29T15:08:55.203Z</time></trkpt><trkpt lat="39.96867255450835" lon="9.096204693144507"><ele>491.0</ele><time>2026-04-29T15:08:56.203Z</time></trkpt><trkpt lat="39.96860974460549" lon="9.096448098450626"><ele>491.0</ele><time>2026-04-29T15:08:57.203Z</time></trkpt><trkpt lat="39.96856873603479" lon="9.096683694552095"><ele>488.66666666666663</ele><time>2026-04-29T15:08:58.203Z</time></trkpt><trkpt lat="39.968565023556195" lon="9.096923862469344"><ele>486.33333333333337</ele><time>2026-04-29T15:08:59.203Z</time></trkpt><trkpt lat="39.96859447908641" lon="9.09715789631578"><ele>484.0</ele><time>2026-04-29T15:09:00.203Z</time></trkpt><trkpt lat="39.96866177307865" lon="9.097373238837188"><ele>482.0</ele><time>2026-04-29T15:09:01.203Z</time></trkpt><trkpt lat="39.96875431917733" lon="9.097577444375121"><ele>480.0</ele><time>2026-04-29T15:09:02.203Z</time></trkpt><trkpt lat="39.96888179227458" lon="9.097758690813157"><ele>478.0</ele><time>2026-04-29T15:09:03.203Z</time></trkpt><trkpt lat="39.969034947470846" lon="9.097954722306183"><ele>478.0</ele><time>2026-04-29T15:09:04.203Z</time></trkpt><trkpt lat="39.96918588142889" lon="9.09816466870172"><ele>478.0</ele><time>2026-04-29T15:09:05.203Z</time></trkpt><trkpt lat="39.96931979054002" lon="9.098357235254255"><ele>478.0</ele><time>2026-04-29T15:09:06.203Z</time></trkpt><trkpt lat="39.96943502200857" lon="9.098530423854854"><ele>479.33333333333337</ele><time>2026-04-29T15:09:07.203Z</time></trkpt><trkpt lat="39.969529476284386" lon="9.098702694907432"><ele>480.66666666666663</ele><time>2026-04-29T15:09:08.203Z</time></trkpt><trkpt lat="39.969589584212855" lon="9.098896253795703"><ele>482.0</ele><time>2026-04-29T15:09:09.203Z</time></trkpt><trkpt lat="39.9696152472561" lon="9.099109552754333"><ele>482.0</ele><time>2026-04-29T15:09:10.203Z</time></trkpt><trkpt lat="39.96960603928698" lon="9.09933516500796"><ele>482.0</ele><time>2026-04-29T15:09:11.203Z</time></trkpt><trkpt lat="39.96954108729499" lon="9.09956320071868"><ele>482.0</ele><time>2026-04-29T15:09:12.203Z</time></trkpt><trkpt lat="39.96945153375681" lon="9.099769179525993"><ele>483.0</ele><time>2026-04-29T15:09:13.203Z</time></trkpt><trkpt lat="39.96932129811523" lon="9.099937318515595"><ele>484.0</ele><time>2026-04-29T15:09:14.203Z</time></trkpt><trkpt lat="39.96918501838642" lon="9.100084715372764"><ele>485.0</ele><time>2026-04-29T15:09:15.203Z</time></trkpt><trkpt lat="39.969053050919555" lon="9.100194647968125"><ele>478.25</ele><time>2026-04-29T15:09:16.203Z</time></trkpt><trkpt lat="39.96893319452622" lon="9.10029440921767"><ele>471.5</ele><time>2026-04-29T15:09:17.203Z</time></trkpt><trkpt lat="39.968856843298745" lon="9.100453864735965"><ele>464.75</ele><time>2026-04-29T15:09:18.203Z</time></trkpt><trkpt lat="39.96882344351024" lon="9.100658133583378"><ele>458.0</ele><time>2026-04-29T15:09:19.203Z</time></trkpt><trkpt lat="39.96882372921851" lon="9.10090721495982"><ele>458.0</ele><time>2026-04-29T15:09:20.203Z</time></trkpt><trkpt lat="39.96884648637261" lon="9.101163520055364"><ele>458.0</ele><time>2026-04-29T15:09:21.203Z</time></trkpt><trkpt lat="39.96886738460437" lon="9.10141870062701"><ele>458.0</ele><time>2026-04-29T15:09:22.203Z</time></trkpt><trkpt lat="39.96887411172936" lon="9.101680169899934"><ele>457.3333333333333</ele><time>2026-04-29T15:09:23.203Z</time></trkpt><trkpt lat="39.968874335343145" lon="9.10192597687679"><ele>456.66666666666663</ele><time>2026-04-29T15:09:24.203Z</time></trkpt><trkpt lat="39.96885860900704" lon="9.102133122815312"><ele>456.0</ele><time>2026-04-29T15:09:25.203Z</time></trkpt><trkpt lat="39.968812351426884" lon="9.102324501367441"><ele>456.66666666666663</ele><time>2026-04-29T15:09:26.203Z</time></trkpt><trkpt lat="39.96871397133853" lon="9.102491801639422"><ele>457.3333333333333</ele><time>2026-04-29T15:09:27.203Z</time></trkpt><trkpt lat="39.968561983549606" lon="9.102626912798865"><ele>458.0</ele><time>2026-04-29T15:09:28.203Z</time></trkpt><trkpt lat="39.968376222032916" lon="9.102762414786637"><ele>447.3333333333333</ele><time>2026-04-29T15:09:29.203Z</time></trkpt><trkpt lat="39.96819105444472" lon="9.102907780970915"><ele>436.66666666666663</ele><time>2026-04-29T15:09:30.203Z</time></trkpt><trkpt lat="39.968006768006646" lon="9.10307151451302"><ele>426.0</ele><time>2026-04-29T15:09:31.203Z</time></trkpt><trkpt lat="39.9678228283079" lon="9.103232743190631"><ele>424.66666666666663</ele><time>2026-04-29T15:09:32.203Z</time></trkpt><trkpt lat="39.96765813430591" lon="9.10340331981251"><ele>423.3333333333333</ele><time>2026-04-29T15:09:33.203Z</time></trkpt><trkpt lat="39.96750797041019" lon="9.103553194644405"><ele>422.0</ele><time>2026-04-29T15:09:34.203Z</time></trkpt><trkpt lat="39.96738793362446" lon="9.103728922533184"><ele>422.0</ele><time>2026-04-29T15:09:35.203Z</time></trkpt><trkpt lat="39.96729845186593" lon="9.103936886793008"><ele>422.0</ele><time>2026-04-29T15:09:36.203Z</time></trkpt><trkpt lat="39.96725086428828" lon="9.104171393024334"><ele>422.0</ele><time>2026-04-29T15:09:37.203Z</time></trkpt><trkpt lat="39.967240612986835" lon="9.10442570164814"><ele>423.0</ele><time>2026-04-29T15:09:38.203Z</time></trkpt><trkpt lat="39.967268909043874" lon="9.10466994306812"><ele>424.0</ele><time>2026-04-29T15:09:39.203Z</time></trkpt><trkpt lat="39.967324926180986" lon="9.104904419632119"><ele>425.0</ele><time>2026-04-29T15:09:40.203Z</time></trkpt><trkpt lat="39.9674234711259" lon="9.105120118759585"><ele>425.3333333333333</ele><time>2026-04-29T15:09:41.203Z</time></trkpt><trkpt lat="39.96755722186098" lon="9.105320750841994"><ele>425.66666666666663</ele><time>2026-04-29T15:09:42.203Z</time></trkpt><trkpt lat="39.96767926718448" lon="9.105519581943334"><ele>426.0</ele><time>2026-04-29T15:09:43.203Z</time></trkpt><trkpt lat="39.96777220987933" lon="9.10570108398814"><ele>422.0</ele><time>2026-04-29T15:09:44.203Z</time></trkpt><trkpt lat="39.967817734888214" lon="9.105881276702632"><ele>418.0</ele><time>2026-04-29T15:09:45.203Z</time></trkpt><trkpt lat="39.96781369349353" lon="9.106074987183217"><ele>414.0</ele><time>2026-04-29T15:09:46.203Z</time></trkpt><trkpt lat="39.96776668844184" lon="9.106268804273144"><ele>414.0</ele><time>2026-04-29T15:09:47.203Z</time></trkpt><trkpt lat="39.96767580794945" lon="9.106456377115766"><ele>414.0</ele><time>2026-04-29T15:09:48.203Z</time></trkpt><trkpt lat="39.96756510032738" lon="9.106637594704447"><ele>414.0</ele><time>2026-04-29T15:09:49.203Z</time></trkpt><trkpt lat="39.96743612318835" lon="9.106806830565683"><ele>418.66666666666663</ele><time>2026-04-29T15:09:50.203Z</time></trkpt><trkpt lat="39.96730765525233" lon="9.106987325707365"><ele>423.3333333333333</ele><time>2026-04-29T15:09:51.203Z</time></trkpt><trkpt lat="39.96717968481789" lon="9.107122529430836"><ele>428.0</ele><time>2026-04-29T15:09:52.203Z</time></trkpt><trkpt lat="39.967024380124386" lon="9.107200665611327"><ele>428.0</ele><time>2026-04-29T15:09:53.203Z</time></trkpt><trkpt lat="39.96686341157331" lon="9.107211235096853"><ele>428.0</ele><time>2026-04-29T15:09:54.203Z</time></trkpt><trkpt lat="39.96669161212176" lon="9.107171913358748"><ele>428.0</ele><time>2026-04-29T15:09:55.203Z</time></trkpt><trkpt lat="39.966513712594775" lon="9.107074026045677"><ele>426.0</ele><time>2026-04-29T15:09:56.203Z</time></trkpt><trkpt lat="39.966326720083025" lon="9.106981602285714"><ele>424.0</ele><time>2026-04-29T15:09:57.203Z</time></trkpt><trkpt lat="39.966129376172425" lon="9.10687432591945"><ele>422.0</ele><time>2026-04-29T15:09:58.203Z</time></trkpt><trkpt lat="39.965921029931074" lon="9.106783541094376"><ele>429.0</ele><time>2026-04-29T15:09:59.202Z</time></trkpt><trkpt lat="39.96570045526948" lon="9.106685041976249"><ele>436.0</ele><time>2026-04-29T15:10:00.202Z</time></trkpt><trkpt lat="39.96547970492359" lon="9.106583635403227"><ele>432.6666666666667</ele><time>2026-04-29T15:10:01.202Z</time></trkpt><trkpt lat="39.965264038638125" lon="9.106484032106085"><ele>429.33333333333337</ele><time>2026-04-29T15:10:02.202Z</time></trkpt><trkpt lat="39.96507534429252" lon="9.10639196963285"><ele>426.0</ele><time>2026-04-29T15:10:03.202Z</time></trkpt><trkpt lat="39.96489958970521" lon="9.106315455299862"><ele>426.0</ele><time>2026-04-29T15:10:04.202Z</time></trkpt><trkpt lat="39.9647405683319" lon="9.106251587948364"><ele>426.0</ele><time>2026-04-29T15:10:05.202Z</time></trkpt><trkpt lat="39.964575766372135" lon="9.106227074286208"><ele>426.0</ele><time>2026-04-29T15:10:06.202Z</time></trkpt><trkpt lat="39.96440167017874" lon="9.106258586913494"><ele>426.0</ele><time>2026-04-29T15:10:07.202Z</time></trkpt><trkpt lat="39.96423190387034" lon="9.10632711451975"><ele>426.0</ele><time>2026-04-29T15:10:08.202Z</time></trkpt><trkpt lat="39.96407512918311" lon="9.10644646119627"><ele>426.0</ele><time>2026-04-29T15:10:09.202Z</time></trkpt><trkpt lat="39.96393958188176" lon="9.106601211714946"><ele>432.66666666666663</ele><time>2026-04-29T15:10:10.202Z</time></trkpt><trkpt lat="39.96381619061674" lon="9.106769233500914"><ele>439.3333333333333</ele><time>2026-04-29T15:10:11.202Z</time></trkpt><trkpt lat="39.96373223004101" lon="9.106978087216644"><ele>446.0</ele><time>2026-04-29T15:10:12.202Z</time></trkpt><trkpt lat="39.9636717725888" lon="9.1072000081561"><ele>448.66666666666663</ele><time>2026-04-29T15:10:13.202Z</time></trkpt><trkpt lat="39.96365261174483" lon="9.107445761688547"><ele>451.33333333333337</ele><time>2026-04-29T15:10:14.202Z</time></trkpt><trkpt lat="39.96366681452463" lon="9.107692118731903"><ele>454.0</ele><time>2026-04-29T15:10:15.202Z</time></trkpt><trkpt lat="39.963689969474416" lon="9.107921714636163"><ele>454.0</ele><time>2026-04-29T15:10:16.202Z</time></trkpt><trkpt lat="39.96368611654818" lon="9.108108371699698"><ele>454.0</ele><time>2026-04-29T15:10:17.202Z</time></trkpt><trkpt lat="39.96361641580273" lon="9.108286594211426"><ele>454.0</ele><time>2026-04-29T15:10:18.202Z</time></trkpt><trkpt lat="39.96351443530105" lon="9.108448240714736"><ele>453.0</ele><time>2026-04-29T15:10:19.202Z</time></trkpt><trkpt lat="39.963382104931455" lon="9.10857707795744"><ele>452.0</ele><time>2026-04-29T15:10:20.202Z</time></trkpt><trkpt lat="39.963222690689584" lon="9.108664385169142"><ele>451.0</ele><time>2026-04-29T15:10:21.202Z</time></trkpt><trkpt lat="39.963028473138614" lon="9.108710298611497"><ele>446.0</ele><time>2026-04-29T15:10:22.202Z</time></trkpt><trkpt lat="39.96281928812223" lon="9.108748772118469"><ele>441.0</ele><time>2026-04-29T15:10:23.202Z</time></trkpt><trkpt lat="39.96260932668871" lon="9.10879279989685"><ele>436.0</ele><time>2026-04-29T15:10:24.202Z</time></trkpt><trkpt lat="39.962392281414914" lon="9.108816246802855"><ele>432.6666666666667</ele><time>2026-04-29T15:10:25.202Z</time></trkpt><trkpt lat="39.96217442666708" lon="9.108845124913447"><ele>429.33333333333337</ele><time>2026-04-29T15:10:26.204Z</time></trkpt><trkpt lat="39.96195780834468" lon="9.108882911941356"><ele>426.0</ele><time>2026-04-29T15:10:27.203Z</time></trkpt><trkpt lat="39.961758572839315" lon="9.10892493662882"><ele>427.33333333333337</ele><time>2026-04-29T15:10:28.203Z</time></trkpt><trkpt lat="39.96157471971868" lon="9.108962068290566"><ele>428.6666666666667</ele><time>2026-04-29T15:10:29.203Z</time></trkpt><trkpt lat="39.96141223268694" lon="9.109035031761461"><ele>430.0</ele><time>2026-04-29T15:10:30.204Z</time></trkpt><trkpt lat="39.961253044579415" lon="9.109166308559457"><ele>430.0</ele><time>2026-04-29T15:10:31.204Z</time></trkpt><trkpt lat="39.96112486740514" lon="9.109340417206107"><ele>430.0</ele><time>2026-04-29T15:10:32.204Z</time></trkpt><trkpt lat="39.96102231691383" lon="9.109548504871633"><ele>430.0</ele><time>2026-04-29T15:10:33.203Z</time></trkpt><trkpt lat="39.96094892567457" lon="9.109790017112061"><ele>430.33333333333337</ele><time>2026-04-29T15:10:34.203Z</time></trkpt><trkpt lat="39.96089191532998" lon="9.110044441354571"><ele>430.66666666666663</ele><time>2026-04-29T15:10:35.204Z</time></trkpt><trkpt lat="39.96081287018081" lon="9.110296583090792"><ele>431.0</ele><time>2026-04-29T15:10:36.203Z</time></trkpt><trkpt lat="39.960711807233466" lon="9.110542250485295"><ele>432.3333333333333</ele><time>2026-04-29T15:10:37.203Z</time></trkpt><trkpt lat="39.960599049419045" lon="9.110762231159601"><ele>433.66666666666663</ele><time>2026-04-29T15:10:38.203Z</time></trkpt><trkpt lat="39.9604715622438" lon="9.110975099465723"><ele>435.0</ele><time>2026-04-29T15:10:39.203Z</time></trkpt><trkpt lat="39.96032388277575" lon="9.111195810101549"><ele>435.0</ele><time>2026-04-29T15:10:40.203Z</time></trkpt><trkpt lat="39.9601719921678" lon="9.111422672189676"><ele>435.0</ele><time>2026-04-29T15:10:41.203Z</time></trkpt><trkpt lat="39.9600159147447" lon="9.111668632444731"><ele>446.0</ele><time>2026-04-29T15:10:42.203Z</time></trkpt><trkpt lat="39.95985876659588" lon="9.111920917447138"><ele>457.0</ele><time>2026-04-29T15:10:43.203Z</time></trkpt><trkpt lat="39.959693195498964" lon="9.112160887099675"><ele>457.0</ele><time>2026-04-29T15:10:44.203Z</time></trkpt><trkpt lat="39.959528647547096" lon="9.112399142150384"><ele>457.0</ele><time>2026-04-29T15:10:45.203Z</time></trkpt><trkpt lat="39.959372671576766" lon="9.112645578948506"><ele>462.0</ele><time>2026-04-29T15:10:46.203Z</time></trkpt><trkpt lat="39.95921625272344" lon="9.112885606904895"><ele>467.0</ele><time>2026-04-29T15:10:47.203Z</time></trkpt><trkpt lat="39.959059821334186" lon="9.11310773115847"><ele>461.66666666666663</ele><time>2026-04-29T15:10:48.203Z</time></trkpt><trkpt lat="39.95891236728198" lon="9.113316435484633"><ele>456.33333333333337</ele><time>2026-04-29T15:10:49.203Z</time></trkpt><trkpt lat="39.95879733619858" lon="9.113506580080807"><ele>451.0</ele><time>2026-04-29T15:10:50.203Z</time></trkpt><trkpt lat="39.9587079276513" lon="9.113707742668648"><ele>451.0</ele><time>2026-04-29T15:10:51.203Z</time></trkpt><trkpt lat="39.95864922312209" lon="9.113940622411146"><ele>451.0</ele><time>2026-04-29T15:10:52.203Z</time></trkpt><trkpt lat="39.95862914975887" lon="9.114201217305467"><ele>451.0</ele><time>2026-04-29T15:10:53.203Z</time></trkpt><trkpt lat="39.958639285659494" lon="9.11447517636105"><ele>450.6666666666667</ele><time>2026-04-29T15:10:54.203Z</time></trkpt><trkpt lat="39.95864068306443" lon="9.114727546631446"><ele>450.33333333333337</ele><time>2026-04-29T15:10:55.203Z</time></trkpt><trkpt lat="39.958617277194634" lon="9.114953382163216"><ele>450.0</ele><time>2026-04-29T15:10:56.203Z</time></trkpt><trkpt lat="39.95856827918078" lon="9.115164052124026"><ele>450.0</ele><time>2026-04-29T15:10:57.203Z</time></trkpt><trkpt lat="39.95847291907064" lon="9.115342688722391"><ele>450.0</ele><time>2026-04-29T15:10:58.203Z</time></trkpt><trkpt lat="39.95835164566276" lon="9.115480618760808"><ele>450.0</ele><time>2026-04-29T15:10:59.203Z</time></trkpt><trkpt lat="39.95819917842137" lon="9.115544907225678"><ele>459.33333333333337</ele><time>2026-04-29T15:11:00.203Z</time></trkpt><trkpt lat="39.958020002365195" lon="9.115535371151246"><ele>468.6666666666667</ele><time>2026-04-29T15:11:01.203Z</time></trkpt><trkpt lat="39.95783753973451" lon="9.115475988301613"><ele>478.0</ele><time>2026-04-29T15:11:02.203Z</time></trkpt><trkpt lat="39.95767866715912" lon="9.115419534841187"><ele>478.0</ele><time>2026-04-29T15:11:03.203Z</time></trkpt><trkpt lat="39.95754224625604" lon="9.115452821509033"><ele>478.0</ele><time>2026-04-29T15:11:04.203Z</time></trkpt><trkpt lat="39.9574020604582" lon="9.11559911680621"><ele>478.0</ele><time>2026-04-29T15:11:05.203Z</time></trkpt><trkpt lat="39.95729513033658" lon="9.115769545484232"><ele>476.0</ele><time>2026-04-29T15:11:06.203Z</time></trkpt><trkpt lat="39.95724725587363" lon="9.115972364347623"><ele>474.0</ele><time>2026-04-29T15:11:07.203Z</time></trkpt><trkpt lat="39.957260323583306" lon="9.116207966716756"><ele>472.0</ele><time>2026-04-29T15:11:08.203Z</time></trkpt><trkpt lat="39.95730681927745" lon="9.116446727464416"><ele>472.33333333333337</ele><time>2026-04-29T15:11:09.203Z</time></trkpt><trkpt lat="39.95738623990094" lon="9.116685826570242"><ele>472.66666666666663</ele><time>2026-04-29T15:11:10.203Z</time></trkpt><trkpt lat="39.9574630509776" lon="9.116929084467436"><ele>473.0</ele><time>2026-04-29T15:11:11.203Z</time></trkpt><trkpt lat="39.95752960214053" lon="9.117198292423332"><ele>466.3333333333333</ele><time>2026-04-29T15:11:12.203Z</time></trkpt><trkpt lat="39.95759368766363" lon="9.11744660510185"><ele>459.66666666666663</ele><time>2026-04-29T15:11:13.203Z</time></trkpt><trkpt lat="39.95762777424046" lon="9.117693075050397"><ele>453.0</ele><time>2026-04-29T15:11:14.203Z</time></trkpt><trkpt lat="39.957614870118135" lon="9.117952186559831"><ele>453.0</ele><time>2026-04-29T15:11:15.203Z</time></trkpt><trkpt lat="39.95756491795346" lon="9.118211861787302"><ele>453.0</ele><time>2026-04-29T15:11:16.203Z</time></trkpt><trkpt lat="39.95747846664783" lon="9.118467363616837"><ele>453.0</ele><time>2026-04-29T15:11:17.203Z</time></trkpt><trkpt lat="39.957366385533035" lon="9.118723664036041"><ele>458.66666666666663</ele><time>2026-04-29T15:11:18.203Z</time></trkpt><trkpt lat="39.957249742927175" lon="9.118980163740735"><ele>464.3333333333333</ele><time>2026-04-29T15:11:19.203Z</time></trkpt><trkpt lat="39.95713717415294" lon="9.119225882558892"><ele>470.0</ele><time>2026-04-29T15:11:20.203Z</time></trkpt><trkpt lat="39.95703380999732" lon="9.119466688777656"><ele>470.0</ele><time>2026-04-29T15:11:21.203Z</time></trkpt><trkpt lat="39.95693887450477" lon="9.11969181538771"><ele>470.0</ele><time>2026-04-29T15:11:22.203Z</time></trkpt><trkpt lat="39.956874765765846" lon="9.119910641117654"><ele>470.0</ele><time>2026-04-29T15:11:23.203Z</time></trkpt><trkpt lat="39.95685610730332" lon="9.120131710691943"><ele>469.3333333333333</ele><time>2026-04-29T15:11:24.203Z</time></trkpt><trkpt lat="39.95688182821352" lon="9.12037539503544"><ele>468.66666666666663</ele><time>2026-04-29T15:11:25.203Z</time></trkpt><trkpt lat="39.95694056980824" lon="9.120622593093053"><ele>468.0</ele><time>2026-04-29T15:11:26.203Z</time></trkpt><trkpt lat="39.95702329873109" lon="9.120882471505258"><ele>468.0</ele><time>2026-04-29T15:11:27.203Z</time></trkpt><trkpt lat="39.95710136970485" lon="9.121154457627515"><ele>468.0</ele><time>2026-04-29T15:11:28.203Z</time></trkpt><trkpt lat="39.957186330970536" lon="9.121434693943977"><ele>473.5</ele><time>2026-04-29T15:11:29.203Z</time></trkpt><trkpt lat="39.957270699762056" lon="9.12172204182521"><ele>479.0</ele><time>2026-04-29T15:11:30.203Z</time></trkpt><trkpt lat="39.957356640768495" lon="9.122011455976065"><ele>479.0</ele><time>2026-04-29T15:11:31.203Z</time></trkpt><trkpt lat="39.95742559461217" lon="9.122293471014572"><ele>479.0</ele><time>2026-04-29T15:11:32.203Z</time></trkpt><trkpt lat="39.95750282002947" lon="9.122544653090369"><ele>479.0</ele><time>2026-04-29T15:11:33.203Z</time></trkpt><trkpt lat="39.95757763697623" lon="9.122781852017415"><ele>478.3333333333333</ele><time>2026-04-29T15:11:34.203Z</time></trkpt><trkpt lat="39.957641299864996" lon="9.123017490669323"><ele>477.66666666666663</ele><time>2026-04-29T15:11:35.203Z</time></trkpt><trkpt lat="39.95767764510554" lon="9.123244737863118"><ele>477.0</ele><time>2026-04-29T15:11:36.203Z</time></trkpt><trkpt lat="39.95767467012406" lon="9.123462713570792"><ele>477.0</ele><time>2026-04-29T15:11:37.203Z</time></trkpt><trkpt lat="39.957617606834035" lon="9.123658832729724"><ele>477.0</ele><time>2026-04-29T15:11:38.203Z</time></trkpt><trkpt lat="39.95751121775824" lon="9.123821675559235"><ele>477.0</ele><time>2026-04-29T15:11:39.203Z</time></trkpt><trkpt lat="39.95736137321327" lon="9.123929335108159"><ele>484.33333333333337</ele><time>2026-04-29T15:11:40.203Z</time></trkpt><trkpt lat="39.957181242718306" lon="9.123969257175515"><ele>491.6666666666667</ele><time>2026-04-29T15:11:41.203Z</time></trkpt><trkpt lat="39.956975458397885" lon="9.123946015376147"><ele>499.0</ele><time>2026-04-29T15:11:42.203Z</time></trkpt><trkpt lat="39.9567681328223" lon="9.12389950723902"><ele>503.6666666666667</ele><time>2026-04-29T15:11:43.203Z</time></trkpt><trkpt lat="39.95655529915709" lon="9.123856819672623"><ele>508.33333333333337</ele><time>2026-04-29T15:11:44.203Z</time></trkpt><trkpt lat="39.95634475036144" lon="9.123833074093008"><ele>513.0</ele><time>2026-04-29T15:11:45.203Z</time></trkpt><trkpt lat="39.956150271014856" lon="9.123786090245074"><ele>513.0</ele><time>2026-04-29T15:11:46.203Z</time></trkpt><trkpt lat="39.9559780317029" lon="9.123764961078917"><ele>513.0</ele><time>2026-04-29T15:11:47.203Z</time></trkpt><trkpt lat="39.95580854591345" lon="9.123825866114487"><ele>513.0</ele><time>2026-04-29T15:11:48.203Z</time></trkpt><trkpt lat="39.95564466209655" lon="9.123957277783513"><ele>505.66666666666663</ele><time>2026-04-29T15:11:49.203Z</time></trkpt><trkpt lat="39.95548723965606" lon="9.124124205213638"><ele>498.3333333333333</ele><time>2026-04-29T15:11:50.203Z</time></trkpt><trkpt lat="39.955320085636686" lon="9.124306844782348"><ele>491.0</ele><time>2026-04-29T15:11:51.203Z</time></trkpt><trkpt lat="39.95515108809046" lon="9.124499734398198"><ele>493.0</ele><time>2026-04-29T15:11:52.203Z</time></trkpt><trkpt lat="39.95496864640167" lon="9.124702200592997"><ele>495.0</ele><time>2026-04-29T15:11:53.203Z</time></trkpt><trkpt lat="39.95478650563837" lon="9.12491075089998"><ele>495.0</ele><time>2026-04-29T15:11:54.203Z</time></trkpt><trkpt lat="39.95459587415592" lon="9.125120766758162"><ele>495.0</ele><time>2026-04-29T15:11:55.203Z</time></trkpt><trkpt lat="39.95440472233338" lon="9.125328835761755"><ele>495.0</ele><time>2026-04-29T15:11:56.203Z</time></trkpt><trkpt lat="39.95422207617729" lon="9.12552983744244"><ele>495.0</ele><time>2026-04-29T15:11:57.203Z</time></trkpt><trkpt lat="39.95405329734903" lon="9.125715610335138"><ele>496.66666666666663</ele><time>2026-04-29T15:11:58.203Z</time></trkpt><trkpt lat="39.953894666887166" lon="9.125891748563017"><ele>498.3333333333333</ele><time>2026-04-29T15:11:59.203Z</time></trkpt><trkpt lat="39.953754348852385" lon="9.126057313949909"><ele>500.0</ele><time>2026-04-29T15:12:00.203Z</time></trkpt><trkpt lat="39.95363285853551" lon="9.1262054919132"><ele>500.0</ele><time>2026-04-29T15:12:01.203Z</time></trkpt><trkpt lat="39.95353673165826" lon="9.12636932385786"><ele>500.0</ele><time>2026-04-29T15:12:02.203Z</time></trkpt><trkpt lat="39.95346570542878" lon="9.126550680200285"><ele>500.0</ele><time>2026-04-29T15:12:03.203Z</time></trkpt><trkpt lat="39.95341435965359" lon="9.126760481402505"><ele>497.66666666666663</ele><time>2026-04-29T15:12:04.203Z</time></trkpt><trkpt lat="39.95339030918653" lon="9.126986832459396"><ele>495.33333333333337</ele><time>2026-04-29T15:12:05.203Z</time></trkpt><trkpt lat="39.953391918855175" lon="9.127228703370506"><ele>493.0</ele><time>2026-04-29T15:12:06.203Z</time></trkpt><trkpt lat="39.953404642725815" lon="9.12748481001495"><ele>498.6666666666667</ele><time>2026-04-29T15:12:07.203Z</time></trkpt><trkpt lat="39.95341097813336" lon="9.12775293761682"><ele>504.33333333333337</ele><time>2026-04-29T15:12:08.203Z</time></trkpt><trkpt lat="39.95341351304006" lon="9.128007632384882"><ele>510.0</ele><time>2026-04-29T15:12:09.203Z</time></trkpt><trkpt lat="39.953430745058355" lon="9.128224705682086"><ele>516.3333333333334</ele><time>2026-04-29T15:12:10.203Z</time></trkpt><trkpt lat="39.95348464260062" lon="9.12841754090363"><ele>522.6666666666667</ele><time>2026-04-29T15:12:11.203Z</time></trkpt><trkpt lat="39.953593707993676" lon="9.12859845563551"><ele>529.0</ele><time>2026-04-29T15:12:12.203Z</time></trkpt><trkpt lat="39.95372418525841" lon="9.128767142225762"><ele>529.0</ele><time>2026-04-29T15:12:13.203Z</time></trkpt><trkpt lat="39.953868098623786" lon="9.128934429701266"><ele>529.0</ele><time>2026-04-29T15:12:14.203Z</time></trkpt><trkpt lat="39.95400635344037" lon="9.129098806052932"><ele>529.0</ele><time>2026-04-29T15:12:15.203Z</time></trkpt><trkpt lat="39.95411357884657" lon="9.129261471970509"><ele>527.0</ele><time>2026-04-29T15:12:16.203Z</time></trkpt><trkpt lat="39.954171491806704" lon="9.129448707042982"><ele>525.0</ele><time>2026-04-29T15:12:17.203Z</time></trkpt><trkpt lat="39.95414286752079" lon="9.129689545023163"><ele>523.0</ele><time>2026-04-29T15:12:18.203Z</time></trkpt><trkpt lat="39.95408502257779" lon="9.129928915186754"><ele>523.0</ele><time>2026-04-29T15:12:19.203Z</time></trkpt><trkpt lat="39.95402340103115" lon="9.130170797112234"><ele>523.0</ele><time>2026-04-29T15:12:20.203Z</time></trkpt><trkpt lat="39.953953485277836" lon="9.13041221382778"><ele>523.0</ele><time>2026-04-29T15:12:21.203Z</time></trkpt><trkpt lat="39.953863548265254" lon="9.130631221393646"><ele>526.0</ele><time>2026-04-29T15:12:22.203Z</time></trkpt><trkpt lat="39.95377313365965" lon="9.130808598136541"><ele>529.0</ele><time>2026-04-29T15:12:23.203Z</time></trkpt><trkpt lat="39.95368662807304" lon="9.13099378199657"><ele>532.0</ele><time>2026-04-29T15:12:24.203Z</time></trkpt><trkpt lat="39.95363966176139" lon="9.131207910406637"><ele>532.0</ele><time>2026-04-29T15:12:25.203Z</time></trkpt><trkpt lat="39.95361897801243" lon="9.131436451907835"><ele>532.0</ele><time>2026-04-29T15:12:26.203Z</time></trkpt><trkpt lat="39.953640093675574" lon="9.13168445098285"><ele>532.0</ele><time>2026-04-29T15:12:27.203Z</time></trkpt><trkpt lat="39.953677666776215" lon="9.131938524268339"><ele>536.3333333333334</ele><time>2026-04-29T15:12:28.203Z</time></trkpt><trkpt lat="39.953711212957714" lon="9.132193134700104"><ele>540.6666666666666</ele><time>2026-04-29T15:12:29.203Z</time></trkpt><trkpt lat="39.95369040831587" lon="9.13244706171075"><ele>545.0</ele><time>2026-04-29T15:12:30.203Z</time></trkpt><trkpt lat="39.953621139516194" lon="9.132686191404094"><ele>543.3333333333333</ele><time>2026-04-29T15:12:31.204Z</time></trkpt><trkpt lat="39.95351565541396" lon="9.132910618066752"><ele>541.6666666666666</ele><time>2026-04-29T15:12:32.204Z</time></trkpt><trkpt lat="39.95338464712596" lon="9.133127094102043"><ele>540.0</ele><time>2026-04-29T15:12:33.204Z</time></trkpt><trkpt lat="39.95326095249299" lon="9.133343744854649"><ele>540.0</ele><time>2026-04-29T15:12:34.205Z</time></trkpt><trkpt lat="39.95314933672595" lon="9.133546198827073"><ele>540.0</ele><time>2026-04-29T15:12:35.204Z</time></trkpt><trkpt lat="39.953053470666184" lon="9.133724055573765"><ele>540.0</ele><time>2026-04-29T15:12:36.204Z</time></trkpt><trkpt lat="39.95299587274596" lon="9.133915364912369"><ele>543.0</ele><time>2026-04-29T15:12:37.205Z</time></trkpt><trkpt lat="39.953001285620395" lon="9.134108802101359"><ele>546.0</ele><time>2026-04-29T15:12:38.205Z</time></trkpt><trkpt lat="39.95306809863264" lon="9.134303195618818"><ele>549.0</ele><time>2026-04-29T15:12:39.205Z</time></trkpt><trkpt lat="39.953164859445046" lon="9.134483087051727"><ele>549.0</ele><time>2026-04-29T15:12:40.204Z</time></trkpt><trkpt lat="39.953291007322946" lon="9.134616909683102"><ele>549.0</ele><time>2026-04-29T15:12:41.204Z</time></trkpt><trkpt lat="39.95345562553851" lon="9.134710859485248"><ele>549.0</ele><time>2026-04-29T15:12:42.204Z</time></trkpt><trkpt lat="39.95362546355834" lon="9.134796454427114"><ele>551.3333333333334</ele><time>2026-04-29T15:12:43.205Z</time></trkpt><trkpt lat="39.953816975054735" lon="9.134879435749474"><ele>553.6666666666667</ele><time>2026-04-29T15:12:44.205Z</time></trkpt><trkpt lat="39.9540179705856" lon="9.134974355376016"><ele>556.0</ele><time>2026-04-29T15:12:45.205Z</time></trkpt><trkpt lat="39.954210627635646" lon="9.13506782145263"><ele>561.0</ele><time>2026-04-29T15:12:46.205Z</time></trkpt><trkpt lat="39.95436768681528" lon="9.135204254190835"><ele>566.0</ele><time>2026-04-29T15:12:47.205Z</time></trkpt><trkpt lat="39.95449847583331" lon="9.13539211888458"><ele>571.0</ele><time>2026-04-29T15:12:48.205Z</time></trkpt><trkpt lat="39.95460759295527" lon="9.135621178761987"><ele>568.3333333333334</ele><time>2026-04-29T15:12:49.205Z</time></trkpt><trkpt lat="39.95470979551171" lon="9.135845945625407"><ele>565.6666666666666</ele><time>2026-04-29T15:12:50.205Z</time></trkpt><trkpt lat="39.9548357907786" lon="9.136041232682887"><ele>563.0</ele><time>2026-04-29T15:12:51.205Z</time></trkpt><trkpt lat="39.95500267276136" lon="9.136192373548012"><ele>571.3333333333333</ele><time>2026-04-29T15:12:52.205Z</time></trkpt><trkpt lat="39.95518879745184" lon="9.136295301082683"><ele>579.6666666666666</ele><time>2026-04-29T15:12:53.205Z</time></trkpt><trkpt lat="39.955392504064946" lon="9.136383393457772"><ele>588.0</ele><time>2026-04-29T15:12:54.205Z</time></trkpt><trkpt lat="39.95560101969688" lon="9.136480297853574"><ele>589.0</ele><time>2026-04-29T15:12:55.205Z</time></trkpt><trkpt lat="39.95581350034055" lon="9.136582922167603"><ele>590.0</ele><time>2026-04-29T15:12:56.205Z</time></trkpt><trkpt lat="39.95602353412105" lon="9.136698460121963"><ele>590.0</ele><time>2026-04-29T15:12:57.205Z</time></trkpt><trkpt lat="39.95622557299021" lon="9.136849985802874"><ele>590.0</ele><time>2026-04-29T15:12:58.205Z</time></trkpt><trkpt lat="39.95642855477488" lon="9.137026100998328"><ele>590.0</ele><time>2026-04-29T15:12:59.205Z</time></trkpt><trkpt lat="39.956630711752815" lon="9.13721108753839"><ele>590.0</ele><time>2026-04-29T15:13:00.205Z</time></trkpt><trkpt lat="39.95682467566788" lon="9.137393673388218"><ele>587.5</ele><time>2026-04-29T15:13:01.205Z</time></trkpt><trkpt lat="39.95700960101413" lon="9.137562191801509"><ele>585.0</ele><time>2026-04-29T15:13:02.205Z</time></trkpt><trkpt lat="39.95721485051313" lon="9.137689899675989"><ele>585.0</ele><time>2026-04-29T15:13:03.205Z</time></trkpt><trkpt lat="39.95743675154591" lon="9.137789730080447"><ele>585.0</ele><time>2026-04-29T15:13:04.205Z</time></trkpt><trkpt lat="39.957666074854494" lon="9.137886118390497"><ele>594.5</ele><time>2026-04-29T15:13:05.205Z</time></trkpt><trkpt lat="39.957904033246756" lon="9.137982618746042"><ele>604.0</ele><time>2026-04-29T15:13:06.205Z</time></trkpt><trkpt lat="39.95814941519613" lon="9.138087996187624"><ele>604.5</ele><time>2026-04-29T15:13:07.205Z</time></trkpt><trkpt lat="39.95838024467704" lon="9.138184637878997"><ele>605.0</ele><time>2026-04-29T15:13:08.205Z</time></trkpt><trkpt lat="39.95859009701857" lon="9.13828161144605"><ele>605.0</ele><time>2026-04-29T15:13:09.205Z</time></trkpt><trkpt lat="39.958792474388915" lon="9.138400365753196"><ele>605.0</ele><time>2026-04-29T15:13:10.205Z</time></trkpt><trkpt lat="39.95897846469759" lon="9.138555743910798"><ele>605.0</ele><time>2026-04-29T15:13:11.205Z</time></trkpt><trkpt lat="39.95915477745441" lon="9.138745269211586"><ele>610.5</ele><time>2026-04-29T15:13:12.205Z</time></trkpt><trkpt lat="39.95931993976181" lon="9.138953256360844"><ele>616.0</ele><time>2026-04-29T15:13:13.205Z</time></trkpt><trkpt lat="39.959491156234954" lon="9.1391552324908"><ele>616.0</ele><time>2026-04-29T15:13:14.205Z</time></trkpt><trkpt lat="39.95969332516519" lon="9.139331445966631"><ele>616.0</ele><time>2026-04-29T15:13:15.205Z</time></trkpt><trkpt lat="39.95990683699944" lon="9.139488900713275"><ele>630.5</ele><time>2026-04-29T15:13:16.205Z</time></trkpt><trkpt lat="39.96011900773053" lon="9.139650107099433"><ele>645.0</ele><time>2026-04-29T15:13:17.205Z</time></trkpt><trkpt lat="39.96032934412146" lon="9.139808078721915"><ele>634.6666666666666</ele><time>2026-04-29T15:13:18.205Z</time></trkpt><trkpt lat="39.96051673874044" lon="9.13995360438944"><ele>624.3333333333333</ele><time>2026-04-29T15:13:19.205Z</time></trkpt><trkpt lat="39.96070288286923" lon="9.140090814514215"><ele>614.0</ele><time>2026-04-29T15:13:20.205Z</time></trkpt><trkpt lat="39.96088544801721" lon="9.140192011039892"><ele>614.0</ele><time>2026-04-29T15:13:21.205Z</time></trkpt><trkpt lat="39.96107745146444" lon="9.140237443999263"><ele>614.0</ele><time>2026-04-29T15:13:22.205Z</time></trkpt><trkpt lat="39.96127112032849" lon="9.140226063161396"><ele>614.0</ele><time>2026-04-29T15:13:23.205Z</time></trkpt><trkpt lat="39.96146870501488" lon="9.140163454041714"><ele>614.0</ele><time>2026-04-29T15:13:24.205Z</time></trkpt><trkpt lat="39.961661498973065" lon="9.14005803125895"><ele>614.0</ele><time>2026-04-29T15:13:25.205Z</time></trkpt><trkpt lat="39.96184187376217" lon="9.139970575074104"><ele>614.0</ele><time>2026-04-29T15:13:26.205Z</time></trkpt><trkpt lat="39.96201683639953" lon="9.139900952932402"><ele>616.6666666666666</ele><time>2026-04-29T15:13:27.205Z</time></trkpt><trkpt lat="39.962197259916735" lon="9.139889390917462"><ele>619.3333333333334</ele><time>2026-04-29T15:13:28.205Z</time></trkpt><trkpt lat="39.962390324274374" lon="9.139950359987004"><ele>622.0</ele><time>2026-04-29T15:13:29.205Z</time></trkpt><trkpt lat="39.962583219865834" lon="9.140073783724473"><ele>627.3333333333334</ele><time>2026-04-29T15:13:30.205Z</time></trkpt><trkpt lat="39.962767689799136" lon="9.140205044206814"><ele>632.6666666666666</ele><time>2026-04-29T15:13:31.205Z</time></trkpt><trkpt lat="39.962942865415755" lon="9.140276257846272"><ele>638.0</ele><time>2026-04-29T15:13:32.205Z</time></trkpt><trkpt lat="39.96312272019203" lon="9.140263813279027"><ele>638.0</ele><time>2026-04-29T15:13:33.205Z</time></trkpt><trkpt lat="39.96332368064839" lon="9.14017979375501"><ele>638.0</ele><time>2026-04-29T15:13:34.205Z</time></trkpt><trkpt lat="39.96352282055483" lon="9.140035612214932"><ele>638.0</ele><time>2026-04-29T15:13:35.205Z</time></trkpt><trkpt lat="39.96373191766804" lon="9.139889056363419"><ele>647.0</ele><time>2026-04-29T15:13:36.205Z</time></trkpt><trkpt lat="39.96395638239105" lon="9.139772601686703"><ele>656.0</ele><time>2026-04-29T15:13:37.205Z</time></trkpt><trkpt lat="39.96416986982777" lon="9.139686059093172"><ele>657.3333333333333</ele><time>2026-04-29T15:13:38.205Z</time></trkpt><trkpt lat="39.964359623327624" lon="9.139633234946729"><ele>658.6666666666666</ele><time>2026-04-29T15:13:39.205Z</time></trkpt><trkpt lat="39.96451967092174" lon="9.139627251548019"><ele>660.0</ele><time>2026-04-29T15:13:40.205Z</time></trkpt><trkpt lat="39.96469633322497" lon="9.13963215589616"><ele>660.0</ele><time>2026-04-29T15:13:41.205Z</time></trkpt><trkpt lat="39.96487086608907" lon="9.13971921432686"><ele>660.0</ele><time>2026-04-29T15:13:42.205Z</time></trkpt><trkpt lat="39.9650535042861" lon="9.13986057185181"><ele>660.0</ele><time>2026-04-29T15:13:43.205Z</time></trkpt><trkpt lat="39.965246121744585" lon="9.139999304037149"><ele>661.0</ele><time>2026-04-29T15:13:44.205Z</time></trkpt><trkpt lat="39.96543873261746" lon="9.140133922339695"><ele>662.0</ele><time>2026-04-29T15:13:45.205Z</time></trkpt><trkpt lat="39.96561557156621" lon="9.140248890434362"><ele>663.0</ele><time>2026-04-29T15:13:46.205Z</time></trkpt><trkpt lat="39.96575050631517" lon="9.14037599325538"><ele>663.0</ele><time>2026-04-29T15:13:47.205Z</time></trkpt><trkpt lat="39.96582461190813" lon="9.140574928601636"><ele>663.0</ele><time>2026-04-29T15:13:48.205Z</time></trkpt><trkpt lat="39.965878461164976" lon="9.140846801482523"><ele>663.0</ele><time>2026-04-29T15:13:49.205Z</time></trkpt><trkpt lat="39.96597683417958" lon="9.141115523934241"><ele>665.0</ele><time>2026-04-29T15:13:50.205Z</time></trkpt><trkpt lat="39.96611570946646" lon="9.1413719270825"><ele>667.0</ele><time>2026-04-29T15:13:51.205Z</time></trkpt><trkpt lat="39.96626593731998" lon="9.141613227943802"><ele>667.0</ele><time>2026-04-29T15:13:52.205Z</time></trkpt><trkpt lat="39.96642582996402" lon="9.141854291848496"><ele>667.0</ele><time>2026-04-29T15:13:53.205Z</time></trkpt><trkpt lat="39.966582424721565" lon="9.14211760144862"><ele>674.0</ele><time>2026-04-29T15:13:54.205Z</time></trkpt><trkpt lat="39.96673776592005" lon="9.142378231203987"><ele>681.0</ele><time>2026-04-29T15:13:55.205Z</time></trkpt><trkpt lat="39.96689218040956" lon="9.142642786393422"><ele>681.0</ele><time>2026-04-29T15:13:56.205Z</time></trkpt><trkpt lat="39.967049905560145" lon="9.142900066776546"><ele>681.0</ele><time>2026-04-29T15:13:57.205Z</time></trkpt><trkpt lat="39.96719849740735" lon="9.143138991476366"><ele>676.3333333333334</ele><time>2026-04-29T15:13:58.205Z</time></trkpt><trkpt lat="39.967333060722446" lon="9.14336710901055"><ele>671.6666666666667</ele><time>2026-04-29T15:13:59.205Z</time></trkpt><trkpt lat="39.96744671705192" lon="9.143613862304608"><ele>667.0</ele><time>2026-04-29T15:14:00.205Z</time></trkpt><trkpt lat="39.967542464892155" lon="9.1438808608857"><ele>683.0</ele><time>2026-04-29T15:14:01.205Z</time></trkpt><trkpt lat="39.96762295052332" lon="9.14416370137178"><ele>699.0</ele><time>2026-04-29T15:14:02.205Z</time></trkpt><trkpt lat="39.96768827461007" lon="9.14445505999678"><ele>699.0</ele><time>2026-04-29T15:14:03.205Z</time></trkpt><trkpt lat="39.9677546133813" lon="9.144748640114786"><ele>699.0</ele><time>2026-04-29T15:14:04.205Z</time></trkpt><trkpt lat="39.96783831805293" lon="9.145032639954765"><ele>697.5</ele><time>2026-04-29T15:14:05.205Z</time></trkpt><trkpt lat="39.96793487284491" lon="9.145308252793507"><ele>696.0</ele><time>2026-04-29T15:14:06.205Z</time></trkpt><trkpt lat="39.96805511131483" lon="9.145579093148317"><ele>692.3333333333334</ele><time>2026-04-29T15:14:07.205Z</time></trkpt><trkpt lat="39.968177216149755" lon="9.145828197937366"><ele>688.6666666666667</ele><time>2026-04-29T15:14:08.205Z</time></trkpt><trkpt lat="39.96828714355209" lon="9.146051886021864"><ele>685.0</ele><time>2026-04-29T15:14:09.205Z</time></trkpt><trkpt lat="39.96833285635155" lon="9.146291724936486"><ele>684.6666666666667</ele><time>2026-04-29T15:14:10.205Z</time></trkpt><trkpt lat="39.968321683595015" lon="9.146563347139747"><ele>684.3333333333334</ele><time>2026-04-29T15:14:11.205Z</time></trkpt><trkpt lat="39.968318503606" lon="9.146830480804603"><ele>684.0</ele><time>2026-04-29T15:14:12.205Z</time></trkpt><trkpt lat="39.96831487861873" lon="9.147120514964497"><ele>689.0</ele><time>2026-04-29T15:14:13.205Z</time></trkpt><trkpt lat="39.96831751830216" lon="9.147418488576879"><ele>694.0</ele><time>2026-04-29T15:14:14.205Z</time></trkpt><trkpt lat="39.96832511147055" lon="9.147713892519413"><ele>694.0</ele><time>2026-04-29T15:14:15.205Z</time></trkpt><trkpt lat="39.968339404114786" lon="9.148024227920867"><ele>694.0</ele><time>2026-04-29T15:14:16.205Z</time></trkpt><trkpt lat="39.96835073053419" lon="9.148336463496525"><ele>696.0</ele><time>2026-04-29T15:14:17.205Z</time></trkpt><trkpt lat="39.96835727920506" lon="9.148653297389245"><ele>698.0</ele><time>2026-04-29T15:14:18.205Z</time></trkpt><trkpt lat="39.96836901355929" lon="9.148969833836661"><ele>710.3333333333333</ele><time>2026-04-29T15:14:19.205Z</time></trkpt><trkpt lat="39.96837750322455" lon="9.14927006348354"><ele>722.6666666666666</ele><time>2026-04-29T15:14:20.205Z</time></trkpt><trkpt lat="39.96838640211906" lon="9.149542232034582"><ele>735.0</ele><time>2026-04-29T15:14:21.205Z</time></trkpt><trkpt lat="39.968414015015384" lon="9.149780211039563"><ele>731.3333333333334</ele><time>2026-04-29T15:14:22.205Z</time></trkpt><trkpt lat="39.96848158517337" lon="9.14997957930626"><ele>727.6666666666667</ele><time>2026-04-29T15:14:23.205Z</time></trkpt><trkpt lat="39.96858953214171" lon="9.150124188222975"><ele>724.0</ele><time>2026-04-29T15:14:24.205Z</time></trkpt><trkpt lat="39.96874300900982" lon="9.150237731934045"><ele>724.0</ele><time>2026-04-29T15:14:25.205Z</time></trkpt><trkpt lat="39.96892616348012" lon="9.150328949783932"><ele>724.0</ele><time>2026-04-29T15:14:26.205Z</time></trkpt><trkpt lat="39.969117131840676" lon="9.150427525848729"><ele>724.0</ele><time>2026-04-29T15:14:27.205Z</time></trkpt><trkpt lat="39.96930318245177" lon="9.150535125990372"><ele>722.6666666666667</ele><time>2026-04-29T15:14:28.205Z</time></trkpt><trkpt lat="39.96948645633224" lon="9.150621590322151"><ele>721.3333333333334</ele><time>2026-04-29T15:14:29.205Z</time></trkpt><trkpt lat="39.96963943675078" lon="9.150716965447579"><ele>720.0</ele><time>2026-04-29T15:14:30.205Z</time></trkpt><trkpt lat="39.969754639888855" lon="9.150864397260102"><ele>720.0</ele><time>2026-04-29T15:14:31.205Z</time></trkpt><trkpt lat="39.96983815179158" lon="9.151060981503507"><ele>720.0</ele><time>2026-04-29T15:14:32.205Z</time></trkpt><trkpt lat="39.96988136928844" lon="9.151285479462096"><ele>720.0</ele><time>2026-04-29T15:14:33.205Z</time></trkpt><trkpt lat="39.96989823595722" lon="9.151535910326693"><ele>721.0</ele><time>2026-04-29T15:14:34.205Z</time></trkpt><trkpt lat="39.96989478502412" lon="9.151805536197008"><ele>722.0</ele><time>2026-04-29T15:14:35.205Z</time></trkpt><trkpt lat="39.96991145436319" lon="9.152091952533123"><ele>723.0</ele><time>2026-04-29T15:14:36.205Z</time></trkpt><trkpt lat="39.96993845729492" lon="9.152387319899269"><ele>723.6666666666666</ele><time>2026-04-29T15:14:37.205Z</time></trkpt><trkpt lat="39.96996793757814" lon="9.152685410480705"><ele>724.3333333333333</ele><time>2026-04-29T15:14:38.206Z</time></trkpt><trkpt lat="39.969976932592445" lon="9.152930771222787"><ele>725.0</ele><time>2026-04-29T15:14:39.206Z</time></trkpt><trkpt lat="39.969958567536416" lon="9.15315501036597"><ele>726.25</ele><time>2026-04-29T15:14:40.206Z</time></trkpt><trkpt lat="39.96990300599958" lon="9.153343953083121"><ele>727.5</ele><time>2026-04-29T15:14:41.206Z</time></trkpt><trkpt lat="39.96982759842789" lon="9.15350094147653"><ele>728.75</ele><time>2026-04-29T15:14:42.206Z</time></trkpt><trkpt lat="39.9697387571055" lon="9.15362296222403"><ele>730.0</ele><time>2026-04-29T15:14:43.206Z</time></trkpt><trkpt lat="39.969620148533615" lon="9.153738441313301"><ele>730.0</ele><time>2026-04-29T15:14:44.206Z</time></trkpt><trkpt lat="39.969460200297576" lon="9.153827857231237"><ele>730.0</ele><time>2026-04-29T15:14:45.206Z</time></trkpt><trkpt lat="39.96928861697095" lon="9.15394011820149"><ele>730.0</ele><time>2026-04-29T15:14:46.205Z</time></trkpt><trkpt lat="39.96911697665413" lon="9.154076813820154"><ele>732.0</ele><time>2026-04-29T15:14:47.206Z</time></trkpt><trkpt lat="39.968930094983136" lon="9.154214399153997"><ele>734.0</ele><time>2026-04-29T15:14:48.206Z</time></trkpt><trkpt lat="39.968765705666925" lon="9.154340862940844"><ele>736.0</ele><time>2026-04-29T15:14:49.206Z</time></trkpt><trkpt lat="39.96862300297302" lon="9.154491837018739"><ele>736.0</ele><time>2026-04-29T15:14:50.205Z</time></trkpt><trkpt lat="39.96850739286432" lon="9.15469138176876"><ele>736.0</ele><time>2026-04-29T15:14:51.205Z</time></trkpt><trkpt lat="39.968435161631746" lon="9.15492589079077"><ele>736.0</ele><time>2026-04-29T15:14:52.205Z</time></trkpt><trkpt lat="39.968383861080234" lon="9.155193028317246"><ele>736.0</ele><time>2026-04-29T15:14:53.205Z</time></trkpt><trkpt lat="39.96833457227679" lon="9.155477474575493"><ele>736.0</ele><time>2026-04-29T15:14:54.205Z</time></trkpt><trkpt lat="39.96827691093132" lon="9.155762469584245"><ele>736.0</ele><time>2026-04-29T15:14:55.205Z</time></trkpt><trkpt lat="39.968215080143544" lon="9.15605451532497"><ele>743.5</ele><time>2026-04-29T15:14:56.205Z</time></trkpt><trkpt lat="39.96815205069799" lon="9.156348497560455"><ele>751.0</ele><time>2026-04-29T15:14:57.205Z</time></trkpt><trkpt lat="39.96808748685608" lon="9.156643405939029"><ele>756.5</ele><time>2026-04-29T15:14:58.205Z</time></trkpt><trkpt lat="39.96802341297591" lon="9.156938523317281"><ele>762.0</ele><time>2026-04-29T15:14:59.205Z</time></trkpt><trkpt lat="39.96793986546743" lon="9.15722158031748"><ele>769.5</ele><time>2026-04-29T15:15:00.205Z</time></trkpt><trkpt lat="39.96782877468163" lon="9.157491926561171"><ele>777.0</ele><time>2026-04-29T15:15:01.205Z</time></trkpt><trkpt lat="39.96770287886094" lon="9.157754502884071"><ele>777.0</ele><time>2026-04-29T15:15:02.205Z</time></trkpt><trkpt lat="39.9675907403535" lon="9.158032583270282"><ele>777.0</ele><time>2026-04-29T15:15:03.205Z</time></trkpt><trkpt lat="39.967495894004365" lon="9.158319133722763"><ele>770.0</ele><time>2026-04-29T15:15:04.205Z</time></trkpt><trkpt lat="39.967420668698956" lon="9.158612955207145"><ele>763.0</ele><time>2026-04-29T15:15:05.205Z</time></trkpt><trkpt lat="39.96735251913193" lon="9.158907960556537"><ele>770.5</ele><time>2026-04-29T15:15:06.205Z</time></trkpt><trkpt lat="39.96728305167164" lon="9.159203788764996"><ele>778.0</ele><time>2026-04-29T15:15:07.205Z</time></trkpt><trkpt lat="39.96720881980913" lon="9.159497978788096"><ele>778.0</ele><time>2026-04-29T15:15:08.205Z</time></trkpt><trkpt lat="39.96713098782023" lon="9.159790439812845"><ele>778.0</ele><time>2026-04-29T15:15:09.205Z</time></trkpt><trkpt lat="39.967058577308904" lon="9.160086800428433"><ele>787.0</ele><time>2026-04-29T15:15:10.205Z</time></trkpt><trkpt lat="39.966981378015596" lon="9.160378649123153"><ele>796.0</ele><time>2026-04-29T15:15:11.205Z</time></trkpt><trkpt lat="39.966902286557264" lon="9.160665068129012"><ele>801.0</ele><time>2026-04-29T15:15:12.205Z</time></trkpt><trkpt lat="39.9668358821516" lon="9.160963789898341"><ele>806.0</ele><time>2026-04-29T15:15:13.205Z</time></trkpt><trkpt lat="39.966790892892085" lon="9.161265226001953"><ele>802.0</ele><time>2026-04-29T15:15:14.205Z</time></trkpt><trkpt lat="39.96674510516921" lon="9.161569642545734"><ele>798.0</ele><time>2026-04-29T15:15:15.205Z</time></trkpt><trkpt lat="39.9666948191339" lon="9.16185371465905"><ele>796.3333333333333</ele><time>2026-04-29T15:15:16.205Z</time></trkpt><trkpt lat="39.966640770882876" lon="9.16210414006726"><ele>794.6666666666666</ele><time>2026-04-29T15:15:17.205Z</time></trkpt><trkpt lat="39.96654970472101" lon="9.162325151058305"><ele>793.0</ele><time>2026-04-29T15:15:18.205Z</time></trkpt><trkpt lat="39.96643322691152" lon="9.162553607162426"><ele>791.0</ele><time>2026-04-29T15:15:19.205Z</time></trkpt><trkpt lat="39.96630531858182" lon="9.162782584558588"><ele>789.0</ele><time>2026-04-29T15:15:20.205Z</time></trkpt><trkpt lat="39.9661780792693" lon="9.16303296750258"><ele>787.0</ele><time>2026-04-29T15:15:21.205Z</time></trkpt><trkpt lat="39.96605580250086" lon="9.163289689760523"><ele>790.6666666666666</ele><time>2026-04-29T15:15:22.205Z</time></trkpt><trkpt lat="39.965939648473984" lon="9.163528408384408"><ele>794.3333333333333</ele><time>2026-04-29T15:15:23.205Z</time></trkpt><trkpt lat="39.96581767453538" lon="9.163731927290376"><ele>798.0</ele><time>2026-04-29T15:15:24.205Z</time></trkpt><trkpt lat="39.96567251485259" lon="9.163882741849838"><ele>798.0</ele><time>2026-04-29T15:15:25.205Z</time></trkpt><trkpt lat="39.96550928948414" lon="9.163989282635434"><ele>798.0</ele><time>2026-04-29T15:15:26.205Z</time></trkpt><trkpt lat="39.965329793309316" lon="9.164054574656612"><ele>798.0</ele><time>2026-04-29T15:15:27.205Z</time></trkpt><trkpt lat="39.965146034348514" lon="9.164075955310993"><ele>801.6666666666667</ele><time>2026-04-29T15:15:28.205Z</time></trkpt><trkpt lat="39.96495619502424" lon="9.164042360566954"><ele>805.3333333333334</ele><time>2026-04-29T15:15:29.205Z</time></trkpt><trkpt lat="39.96476608014021" lon="9.163979414057149"><ele>809.0</ele><time>2026-04-29T15:15:30.205Z</time></trkpt><trkpt lat="39.96458508691902" lon="9.16391523509749"><ele>809.0</ele><time>2026-04-29T15:15:31.205Z</time></trkpt><trkpt lat="39.964397526532046" lon="9.163909834551164"><ele>809.0</ele><time>2026-04-29T15:15:32.205Z</time></trkpt><trkpt lat="39.96420489404335" lon="9.163948252651917"><ele>809.0</ele><time>2026-04-29T15:15:33.205Z</time></trkpt><trkpt lat="39.9640060880086" lon="9.16402153202811"><ele>797.3333333333334</ele><time>2026-04-29T15:15:34.205Z</time></trkpt><trkpt lat="39.9638029305425" lon="9.164114982935171"><ele>785.6666666666667</ele><time>2026-04-29T15:15:35.205Z</time></trkpt><trkpt lat="39.963605755741256" lon="9.164174986480576"><ele>774.0</ele><time>2026-04-29T15:15:36.205Z</time></trkpt><trkpt lat="39.96341999573374" lon="9.164253051043062"><ele>776.3333333333333</ele><time>2026-04-29T15:15:37.205Z</time></trkpt><trkpt lat="39.96326527049021" lon="9.164329426238252"><ele>778.6666666666666</ele><time>2026-04-29T15:15:38.205Z</time></trkpt><trkpt lat="39.96314778756067" lon="9.164441298527628"><ele>781.0</ele><time>2026-04-29T15:15:39.205Z</time></trkpt><trkpt lat="39.96305174030166" lon="9.164586325507608"><ele>781.0</ele><time>2026-04-29T15:15:40.205Z</time></trkpt><trkpt lat="39.96299478335558" lon="9.16476777402358"><ele>781.0</ele><time>2026-04-29T15:15:41.205Z</time></trkpt><trkpt lat="39.96297810122879" lon="9.164963844972062"><ele>781.0</ele><time>2026-04-29T15:15:42.205Z</time></trkpt><trkpt lat="39.963009270502724" lon="9.165177895606814"><ele>781.3333333333333</ele><time>2026-04-29T15:15:43.205Z</time></trkpt><trkpt lat="39.96309862995405" lon="9.165363939151225"><ele>781.6666666666667</ele><time>2026-04-29T15:15:44.205Z</time></trkpt><trkpt lat="39.96321422414008" lon="9.165540536284656"><ele>782.0</ele><time>2026-04-29T15:15:45.205Z</time></trkpt><trkpt lat="39.96336170731401" lon="9.165700567678643"><ele>773.6666666666667</ele><time>2026-04-29T15:15:46.205Z</time></trkpt><trkpt lat="39.963501896274536" lon="9.165877647473474"><ele>765.3333333333334</ele><time>2026-04-29T15:15:47.205Z</time></trkpt><trkpt lat="39.96364160448996" lon="9.166062329907492"><ele>757.0</ele><time>2026-04-29T15:15:48.205Z</time></trkpt><trkpt lat="39.96373459528929" lon="9.166295406151656"><ele>759.6666666666667</ele><time>2026-04-29T15:15:49.205Z</time></trkpt><trkpt lat="39.96379453685613" lon="9.166549157160956"><ele>762.3333333333334</ele><time>2026-04-29T15:15:50.205Z</time></trkpt><trkpt lat="39.96382176129846" lon="9.166792464186406"><ele>765.0</ele><time>2026-04-29T15:15:51.205Z</time></trkpt><trkpt lat="39.96380407807664" lon="9.167050101575539"><ele>765.0</ele><time>2026-04-29T15:15:52.205Z</time></trkpt><trkpt lat="39.963754543300965" lon="9.167309109000193"><ele>765.0</ele><time>2026-04-29T15:15:53.205Z</time></trkpt><trkpt lat="39.96370364403487" lon="9.16751515734357"><ele>765.0</ele><time>2026-04-29T15:15:54.205Z</time></trkpt><trkpt lat="39.96364538751172" lon="9.167748131483872"><ele>764.6666666666666</ele><time>2026-04-29T15:15:55.205Z</time></trkpt><trkpt lat="39.96355339077743" lon="9.167970661000297"><ele>764.3333333333333</ele><time>2026-04-29T15:15:56.205Z</time></trkpt><trkpt lat="39.96341293535812" lon="9.168186690066438"><ele>764.0</ele><time>2026-04-29T15:15:57.205Z</time></trkpt><trkpt lat="39.96326300016313" lon="9.16838704787616"><ele>765.3333333333333</ele><time>2026-04-29T15:15:58.205Z</time></trkpt><trkpt lat="39.96310060076894" lon="9.1685813434668"><ele>766.6666666666666</ele><time>2026-04-29T15:15:59.205Z</time></trkpt><trkpt lat="39.96293110179516" lon="9.16877251251827"><ele>768.0</ele><time>2026-04-29T15:16:00.205Z</time></trkpt><trkpt lat="39.962762348893996" lon="9.168958430946413"><ele>767.6666666666666</ele><time>2026-04-29T15:16:01.205Z</time></trkpt><trkpt lat="39.96259597396224" lon="9.169143851219804"><ele>767.3333333333333</ele><time>2026-04-29T15:16:02.205Z</time></trkpt><trkpt lat="39.96245298659869" lon="9.169323637715179"><ele>767.0</ele><time>2026-04-29T15:16:03.205Z</time></trkpt><trkpt lat="39.962341350220896" lon="9.1695268119463"><ele>767.0</ele><time>2026-04-29T15:16:04.205Z</time></trkpt><trkpt lat="39.962249991423946" lon="9.169769315027462"><ele>767.0</ele><time>2026-04-29T15:16:05.205Z</time></trkpt><trkpt lat="39.96217609366884" lon="9.170024366850248"><ele>767.0</ele><time>2026-04-29T15:16:06.205Z</time></trkpt><trkpt lat="39.96215263002812" lon="9.170286820978944"><ele>763.3333333333333</ele><time>2026-04-29T15:16:07.205Z</time></trkpt><trkpt lat="39.96216444488003" lon="9.170559899220104"><ele>759.6666666666666</ele><time>2026-04-29T15:16:08.205Z</time></trkpt><trkpt lat="39.96221575252665" lon="9.170815136447809"><ele>756.0</ele><time>2026-04-29T15:16:09.205Z</time></trkpt><trkpt lat="39.96229433336064" lon="9.17103537187968"><ele>754.3333333333334</ele><time>2026-04-29T15:16:10.205Z</time></trkpt><trkpt lat="39.96240990167107" lon="9.171230271940313"><ele>752.6666666666667</ele><time>2026-04-29T15:16:11.205Z</time></trkpt><trkpt lat="39.96255535654659" lon="9.171415228497507"><ele>751.0</ele><time>2026-04-29T15:16:12.205Z</time></trkpt><trkpt lat="39.962710120334705" lon="9.171595496182073"><ele>745.0</ele><time>2026-04-29T15:16:13.205Z</time></trkpt><trkpt lat="39.96285896858495" lon="9.171800663242943"><ele>739.0</ele><time>2026-04-29T15:16:14.205Z</time></trkpt><trkpt lat="39.96300816434869" lon="9.172011047825636"><ele>733.0</ele><time>2026-04-29T15:16:15.205Z</time></trkpt><trkpt lat="39.9631575716569" lon="9.172192242943025"><ele>733.0</ele><time>2026-04-29T15:16:16.205Z</time></trkpt><trkpt lat="39.96334403683831" lon="9.172338524358135"><ele>733.0</ele><time>2026-04-29T15:16:17.205Z</time></trkpt><trkpt lat="39.96355887876717" lon="9.172443893598865"><ele>733.0</ele><time>2026-04-29T15:16:18.205Z</time></trkpt><trkpt lat="39.96378023208829" lon="9.172504497248122"><ele>733.0</ele><time>2026-04-29T15:16:19.205Z</time></trkpt><trkpt lat="39.963991682665025" lon="9.172544753809769"><ele>733.0</ele><time>2026-04-29T15:16:20.205Z</time></trkpt><trkpt lat="39.964180442631225" lon="9.172595727312356"><ele>733.0</ele><time>2026-04-29T15:16:21.205Z</time></trkpt><trkpt lat="39.964333349642885" lon="9.172707435559175"><ele>729.3333333333334</ele><time>2026-04-29T15:16:22.205Z</time></trkpt><trkpt lat="39.96444214206443" lon="9.172901400048747"><ele>725.6666666666666</ele><time>2026-04-29T15:16:23.205Z</time></trkpt><trkpt lat="39.96453361033232" lon="9.17316474181042"><ele>722.0</ele><time>2026-04-29T15:16:24.205Z</time></trkpt><trkpt lat="39.96462960947703" lon="9.173423777277312"><ele>722.0</ele><time>2026-04-29T15:16:25.205Z</time></trkpt><trkpt lat="39.964732809490485" lon="9.173685112943378"><ele>722.0</ele><time>2026-04-29T15:16:26.205Z</time></trkpt><trkpt lat="39.96483097334132" lon="9.1739412977297"><ele>722.0</ele><time>2026-04-29T15:16:27.205Z</time></trkpt><trkpt lat="39.9649018420142" lon="9.174219168767312"><ele>724.0</ele><time>2026-04-29T15:16:28.205Z</time></trkpt><trkpt lat="39.96493995322731" lon="9.174511812363141"><ele>726.0</ele><time>2026-04-29T15:16:29.205Z</time></trkpt><trkpt lat="39.9649625200333" lon="9.174810899955663"><ele>726.3333333333334</ele><time>2026-04-29T15:16:30.205Z</time></trkpt><trkpt lat="39.96497564421435" lon="9.175102399628946"><ele>726.6666666666667</ele><time>2026-04-29T15:16:31.205Z</time></trkpt><trkpt lat="39.965014543604916" lon="9.175347828336944"><ele>727.0</ele><time>2026-04-29T15:16:32.205Z</time></trkpt><trkpt lat="39.9650546823516" lon="9.175599616566297"><ele>726.0</ele><time>2026-04-29T15:16:33.205Z</time></trkpt><trkpt lat="39.965034892549035" lon="9.175874519308065"><ele>725.0</ele><time>2026-04-29T15:16:34.205Z</time></trkpt><trkpt lat="39.96496825419827" lon="9.176125160975543"><ele>724.0</ele><time>2026-04-29T15:16:35.205Z</time></trkpt><trkpt lat="39.96486028969068" lon="9.176350450316798"><ele>722.6666666666667</ele><time>2026-04-29T15:16:36.205Z</time></trkpt><trkpt lat="39.96470644460373" lon="9.176554340788002"><ele>721.3333333333334</ele><time>2026-04-29T15:16:37.205Z</time></trkpt><trkpt lat="39.964536170471874" lon="9.17674527901195"><ele>720.0</ele><time>2026-04-29T15:16:38.205Z</time></trkpt><trkpt lat="39.96435533623689" lon="9.176943202574416"><ele>723.0</ele><time>2026-04-29T15:16:39.205Z</time></trkpt><trkpt lat="39.96416610167462" lon="9.17712942602169"><ele>726.0</ele><time>2026-04-29T15:16:40.205Z</time></trkpt><trkpt lat="39.96398399736804" lon="9.177319713968057"><ele>721.0</ele><time>2026-04-29T15:16:41.205Z</time></trkpt><trkpt lat="39.96381484507229" lon="9.177506875393162"><ele>716.0</ele><time>2026-04-29T15:16:42.205Z</time></trkpt><trkpt lat="39.96365109571104" lon="9.177689221512376"><ele>711.0</ele><time>2026-04-29T15:16:43.207Z</time></trkpt><trkpt lat="39.963488680757436" lon="9.177860427525555"><ele>710.0</ele><time>2026-04-29T15:16:44.206Z</time></trkpt><trkpt lat="39.96330984573351" lon="9.178016233920516"><ele>709.0</ele><time>2026-04-29T15:16:45.206Z</time></trkpt><trkpt lat="39.96312514313931" lon="9.178146535125567"><ele>708.0</ele><time>2026-04-29T15:16:46.207Z</time></trkpt><trkpt lat="39.96292578168749" lon="9.178253645585436"><ele>708.0</ele><time>2026-04-29T15:16:47.207Z</time></trkpt><trkpt lat="39.962713647276814" lon="9.17833229161796"><ele>708.0</ele><time>2026-04-29T15:16:48.207Z</time></trkpt><trkpt lat="39.962497994152834" lon="9.178393363052885"><ele>708.0</ele><time>2026-04-29T15:16:49.207Z</time></trkpt><trkpt lat="39.962279686236485" lon="9.178443289661006"><ele>710.3333333333334</ele><time>2026-04-29T15:16:50.207Z</time></trkpt><trkpt lat="39.962056066641736" lon="9.178484975005956"><ele>712.6666666666667</ele><time>2026-04-29T15:16:51.207Z</time></trkpt><trkpt lat="39.96183599248823" lon="9.17853297111368"><ele>715.0</ele><time>2026-04-29T15:16:52.207Z</time></trkpt><trkpt lat="39.96162545133993" lon="9.178585293458571"><ele>715.0</ele><time>2026-04-29T15:16:53.207Z</time></trkpt><trkpt lat="39.96142200837383" lon="9.178630692314567"><ele>715.0</ele><time>2026-04-29T15:16:54.207Z</time></trkpt><trkpt lat="39.96123054686114" lon="9.178666404425565"><ele>715.0</ele><time>2026-04-29T15:16:55.207Z</time></trkpt><trkpt lat="39.961040753352734" lon="9.178658255004548"><ele>712.0</ele><time>2026-04-29T15:16:56.207Z</time></trkpt><trkpt lat="39.960863817358536" lon="9.178599606611288"><ele>709.0</ele><time>2026-04-29T15:16:57.207Z</time></trkpt><trkpt lat="39.96069279622805" lon="9.178499597272927"><ele>706.0</ele><time>2026-04-29T15:16:58.207Z</time></trkpt><trkpt lat="39.96054103956553" lon="9.178352138617326"><ele>714.6666666666667</ele><time>2026-04-29T15:16:59.207Z</time></trkpt><trkpt lat="39.960411952813324" lon="9.178147827383016"><ele>723.3333333333334</ele><time>2026-04-29T15:17:00.207Z</time></trkpt><trkpt lat="39.96030238467098" lon="9.177936938553437"><ele>732.0</ele><time>2026-04-29T15:17:01.207Z</time></trkpt><trkpt lat="39.96019230003252" lon="9.177750071050966"><ele>732.0</ele><time>2026-04-29T15:17:02.207Z</time></trkpt><trkpt lat="39.960052426895835" lon="9.17761081453555"><ele>732.0</ele><time>2026-04-29T15:17:03.207Z</time></trkpt><trkpt lat="39.95992457865426" lon="9.177444987507062"><ele>732.0</ele><time>2026-04-29T15:17:04.207Z</time></trkpt><trkpt lat="39.95978737455074" lon="9.177288195756825"><ele>730.3333333333334</ele><time>2026-04-29T15:17:05.207Z</time></trkpt><trkpt lat="39.959631978077965" lon="9.177162238196614"><ele>728.6666666666667</ele><time>2026-04-29T15:17:06.207Z</time></trkpt><trkpt lat="39.95949181438305" lon="9.177012950525043"><ele>727.0</ele><time>2026-04-29T15:17:07.207Z</time></trkpt><trkpt lat="39.959355330737075" lon="9.176877660073249"><ele>727.0</ele><time>2026-04-29T15:17:08.207Z</time></trkpt><trkpt lat="39.95922795372536" lon="9.176747292162707"><ele>727.0</ele><time>2026-04-29T15:17:09.207Z</time></trkpt><trkpt lat="39.959096544208236" lon="9.17664036177967"><ele>727.0</ele><time>2026-04-29T15:17:10.207Z</time></trkpt><trkpt lat="39.95895691238601" lon="9.176568128825386"><ele>720.0</ele><time>2026-04-29T15:17:11.207Z</time></trkpt><trkpt lat="39.95881347994384" lon="9.176560615625526"><ele>713.0</ele><time>2026-04-29T15:17:12.207Z</time></trkpt><trkpt lat="39.9586738966757" lon="9.176611686858742"><ele>706.0</ele><time>2026-04-29T15:17:13.207Z</time></trkpt><trkpt lat="39.9585439168832" lon="9.176696346257621"><ele>699.0</ele><time>2026-04-29T15:17:14.207Z</time></trkpt><trkpt lat="39.958410564210595" lon="9.176791746446847"><ele>697.0</ele><time>2026-04-29T15:17:15.207Z</time></trkpt><trkpt lat="39.95826600157756" lon="9.176903796336399"><ele>695.0</ele><time>2026-04-29T15:17:16.207Z</time></trkpt><trkpt lat="39.95811387183058" lon="9.177019692058769"><ele>693.0</ele><time>2026-04-29T15:17:17.207Z</time></trkpt><trkpt lat="39.9579502708304" lon="9.177110362957084"><ele>693.0</ele><time>2026-04-29T15:17:18.207Z</time></trkpt><trkpt lat="39.957774926765424" lon="9.177195565983203"><ele>693.0</ele><time>2026-04-29T15:17:19.207Z</time></trkpt><trkpt lat="39.957608816532904" lon="9.1772816569654"><ele>693.0</ele><time>2026-04-29T15:17:20.207Z</time></trkpt><trkpt lat="39.957464307070325" lon="9.177373111058682"><ele>686.3333333333334</ele><time>2026-04-29T15:17:21.207Z</time></trkpt><trkpt lat="39.95732597336615" lon="9.177465241352026"><ele>679.6666666666667</ele><time>2026-04-29T15:17:22.207Z</time></trkpt><trkpt lat="39.95717739827568" lon="9.177502457772867"><ele>673.0</ele><time>2026-04-29T15:17:23.207Z</time></trkpt><trkpt lat="39.95702991299089" lon="9.177495147173587"><ele>673.0</ele><time>2026-04-29T15:17:24.207Z</time></trkpt><trkpt lat="39.95687930361755" lon="9.17742831242165"><ele>673.0</ele><time>2026-04-29T15:17:25.207Z</time></trkpt><trkpt lat="39.9567422237381" lon="9.17732156102119"><ele>673.0</ele><time>2026-04-29T15:17:26.207Z</time></trkpt><trkpt lat="39.95661436041716" lon="9.177173132628893"><ele>676.3333333333334</ele><time>2026-04-29T15:17:27.207Z</time></trkpt><trkpt lat="39.95649188565148" lon="9.177018165693465"><ele>679.6666666666666</ele><time>2026-04-29T15:17:28.207Z</time></trkpt><trkpt lat="39.956364030131915" lon="9.176888368707694"><ele>683.0</ele><time>2026-04-29T15:17:29.207Z</time></trkpt><trkpt lat="39.95623663005797" lon="9.176815462624438"><ele>683.0</ele><time>2026-04-29T15:17:30.207Z</time></trkpt><trkpt lat="39.95610923951585" lon="9.17682530670573"><ele>683.0</ele><time>2026-04-29T15:17:31.207Z</time></trkpt><trkpt lat="39.95599840503798" lon="9.1768993430812"><ele>683.0</ele><time>2026-04-29T15:17:32.207Z</time></trkpt><trkpt lat="39.955903860639765" lon="9.177036392752552"><ele>683.0</ele><time>2026-04-29T15:17:33.207Z</time></trkpt><trkpt lat="39.95583535263828" lon="9.177219471317066"><ele>677.0</ele><time>2026-04-29T15:17:34.207Z</time></trkpt><trkpt lat="39.95578182026043" lon="9.177416620909892"><ele>671.0</ele><time>2026-04-29T15:17:35.207Z</time></trkpt><trkpt lat="39.955781672811476" lon="9.177614529210139"><ele>665.0</ele><time>2026-04-29T15:17:36.207Z</time></trkpt><trkpt lat="39.955840140255724" lon="9.177806518254073"><ele>664.6666666666666</ele><time>2026-04-29T15:17:37.207Z</time></trkpt><trkpt lat="39.95594342010477" lon="9.17797959505412"><ele>664.3333333333334</ele><time>2026-04-29T15:17:38.207Z</time></trkpt><trkpt lat="39.95606194008933" lon="9.178142265843197"><ele>664.0</ele><time>2026-04-29T15:17:39.207Z</time></trkpt><trkpt lat="39.95616829040312" lon="9.17832094116588"><ele>660.6666666666667</ele><time>2026-04-29T15:17:40.207Z</time></trkpt><trkpt lat="39.956292566250305" lon="9.178486922128842"><ele>657.3333333333334</ele><time>2026-04-29T15:17:41.207Z</time></trkpt><trkpt lat="39.956421297901976" lon="9.178638109556012"><ele>654.0</ele><time>2026-04-29T15:17:42.207Z</time></trkpt><trkpt lat="39.956549304556795" lon="9.178777270044126"><ele>654.0</ele><time>2026-04-29T15:17:43.207Z</time></trkpt><trkpt lat="39.95667765184105" lon="9.178916311399943"><ele>654.0</ele><time>2026-04-29T15:17:44.207Z</time></trkpt><trkpt lat="39.956798240138674" lon="9.179069197359258"><ele>654.0</ele><time>2026-04-29T15:17:45.207Z</time></trkpt><trkpt lat="39.95690642188934" lon="9.17924015108822"><ele>651.0</ele><time>2026-04-29T15:17:46.207Z</time></trkpt><trkpt lat="39.95701063026216" lon="9.179402805254904"><ele>648.0</ele><time>2026-04-29T15:17:47.207Z</time></trkpt><trkpt lat="39.95711914734109" lon="9.179543420783903"><ele>645.0</ele><time>2026-04-29T15:17:48.207Z</time></trkpt><trkpt lat="39.957220387901025" lon="9.179683903944506"><ele>645.0</ele><time>2026-04-29T15:17:49.207Z</time></trkpt><trkpt lat="39.95733390883794" lon="9.179809413592006"><ele>645.0</ele><time>2026-04-29T15:17:50.207Z</time></trkpt><trkpt lat="39.95743873614169" lon="9.179929771692326"><ele>645.0</ele><time>2026-04-29T15:17:51.207Z</time></trkpt><trkpt lat="39.957543083915546" lon="9.1800259829751"><ele>645.0</ele><time>2026-04-29T15:17:52.207Z</time></trkpt><trkpt lat="39.95767159607945" lon="9.18004203264281"><ele>646.2</ele><time>2026-04-29T15:17:53.207Z</time></trkpt><trkpt lat="39.95776471189633" lon="9.180118701995518"><ele>647.4</ele><time>2026-04-29T15:17:54.207Z</time></trkpt><trkpt lat="39.957823732065094" lon="9.180221331205042"><ele>648.5999999999999</ele><time>2026-04-29T15:17:55.207Z</time></trkpt><trkpt lat="39.95784607990622" lon="9.180359931751543"><ele>649.8</ele><time>2026-04-29T15:17:56.207Z</time></trkpt><trkpt lat="39.957851392844056" lon="9.180501998523498"><ele>651.0</ele><time>2026-04-29T15:17:57.207Z</time></trkpt><trkpt lat="39.957859036655165" lon="9.180615909341348"><ele>651.1666666666666</ele><time>2026-04-29T15:17:58.207Z</time></trkpt><trkpt lat="39.95787536223895" lon="9.180729297581536"><ele>651.3333333333334</ele><time>2026-04-29T15:17:59.207Z</time></trkpt><trkpt lat="39.957895413379596" lon="9.18083769802268"><ele>651.5</ele><time>2026-04-29T15:18:00.207Z</time></trkpt><trkpt lat="39.95791871310867" lon="9.180945822015966"><ele>651.6666666666667</ele><time>2026-04-29T15:18:01.207Z</time></trkpt><trkpt lat="39.957950920045526" lon="9.181050206234222"><ele>651.8333333333334</ele><time>2026-04-29T15:18:02.207Z</time></trkpt><trkpt lat="39.95799867047052" lon="9.181162990422711"><ele>652.0</ele><time>2026-04-29T15:18:03.207Z</time></trkpt><trkpt lat="39.958035789694385" lon="9.18127063308703"><ele>652.0</ele><time>2026-04-29T15:18:04.207Z</time></trkpt><trkpt lat="39.95809108361088" lon="9.181386798414405"><ele>652.0</ele><time>2026-04-29T15:18:05.207Z</time></trkpt><trkpt lat="39.95812577576899" lon="9.181512417266015"><ele>652.0</ele><time>2026-04-29T15:18:06.207Z</time></trkpt><trkpt lat="39.958139516616136" lon="9.181637322226466"><ele>652.0</ele><time>2026-04-29T15:18:07.207Z</time></trkpt><trkpt lat="39.95812022310415" lon="9.1817758168727"><ele>652.0</ele><time>2026-04-29T15:18:08.207Z</time></trkpt><trkpt lat="39.95807554210996" lon="9.181898350228312"><ele>654.0</ele><time>2026-04-29T15:18:09.207Z</time></trkpt><trkpt lat="39.95803770453905" lon="9.182013046140975"><ele>656.0</ele><time>2026-04-29T15:18:10.207Z</time></trkpt><trkpt lat="39.958011213516365" lon="9.182140840628618"><ele>658.0</ele><time>2026-04-29T15:18:11.207Z</time></trkpt><trkpt lat="39.95800576666329" lon="9.18225561832897"><ele>660.0</ele><time>2026-04-29T15:18:12.207Z</time></trkpt><trkpt lat="39.95801433836669" lon="9.182381145836402"><ele>662.0</ele><time>2026-04-29T15:18:13.207Z</time></trkpt><trkpt lat="39.958055301673085" lon="9.182496502205618"><ele>660.2</ele><time>2026-04-29T15:18:14.207Z</time></trkpt><trkpt lat="39.95810137708207" lon="9.182605776154995"><ele>658.4000000000001</ele><time>2026-04-29T15:18:15.207Z</time></trkpt><trkpt lat="39.95816585029268" lon="9.182729037727265"><ele>656.5999999999999</ele><time>2026-04-29T15:18:16.207Z</time></trkpt><trkpt lat="39.95823027515691" lon="9.182836255595875"><ele>654.8</ele><time>2026-04-29T15:18:17.207Z</time></trkpt><trkpt lat="39.95828716513781" lon="9.18294678820955"><ele>653.0</ele><time>2026-04-29T15:18:18.207Z</time></trkpt><trkpt lat="39.9583692821602" lon="9.183037297487738"><ele>653.0</ele><time>2026-04-29T15:18:19.207Z</time></trkpt><trkpt lat="39.95844951668492" lon="9.183111009545089"><ele>653.0</ele><time>2026-04-29T15:18:20.207Z</time></trkpt><trkpt lat="39.9585215239738" lon="9.183179159753953"><ele>653.0</ele><time>2026-04-29T15:18:21.207Z</time></trkpt><trkpt lat="39.95857454484813" lon="9.183229935398616"><ele>653.0</ele><time>2026-04-29T15:18:22.207Z</time></trkpt><trkpt lat="39.95862713475669" lon="9.183284081787143"><ele>653.0</ele><time>2026-04-29T15:18:23.207Z</time></trkpt><trkpt lat="39.95869662264319" lon="9.18331685334002"><ele>653.0</ele><time>2026-04-29T15:18:24.207Z</time></trkpt><trkpt lat="39.9587894445041" lon="9.183346386961846"><ele>654.5999999999999</ele><time>2026-04-29T15:18:25.207Z</time></trkpt><trkpt lat="39.95888164430391" lon="9.183373392369388"><ele>656.1999999999999</ele><time>2026-04-29T15:18:26.207Z</time></trkpt><trkpt lat="39.95898754880508" lon="9.183344963157504"><ele>657.8</ele><time>2026-04-29T15:18:27.207Z</time></trkpt><trkpt lat="39.95909622106248" lon="9.183335116782406"><ele>659.4</ele><time>2026-04-29T15:18:28.207Z</time></trkpt><trkpt lat="39.95920582070594" lon="9.183356298905194"><ele>661.0</ele><time>2026-04-29T15:18:29.207Z</time></trkpt><trkpt lat="39.95930768928073" lon="9.183407828546835"><ele>661.0</ele><time>2026-04-29T15:18:30.207Z</time></trkpt><trkpt lat="39.95940096841197" lon="9.183481284040182"><ele>661.0</ele><time>2026-04-29T15:18:31.207Z</time></trkpt><trkpt lat="39.95950091729549" lon="9.183555674181028"><ele>661.0</ele><time>2026-04-29T15:18:32.207Z</time></trkpt><trkpt lat="39.959603769215114" lon="9.18360904514086"><ele>661.0</ele><time>2026-04-29T15:18:33.207Z</time></trkpt><trkpt lat="39.9597000237834" lon="9.183651995740505"><ele>661.0</ele><time>2026-04-29T15:18:34.207Z</time></trkpt><trkpt lat="39.959782179465414" lon="9.183693384693983"><ele>661.0</ele><time>2026-04-29T15:18:35.207Z</time></trkpt><trkpt lat="39.959849499874856" lon="9.183722738657709"><ele>661.0</ele><time>2026-04-29T15:18:36.207Z</time></trkpt><trkpt lat="39.95991740219529" lon="9.183784093159558"><ele>661.0</ele><time>2026-04-29T15:18:37.207Z</time></trkpt><trkpt lat="39.95999298470446" lon="9.183855138426997"><ele>661.0</ele><time>2026-04-29T15:18:38.207Z</time></trkpt><trkpt lat="39.960042339118296" lon="9.183951751650424"><ele>661.0</ele><time>2026-04-29T15:18:39.207Z</time></trkpt><trkpt lat="39.96008952600473" lon="9.184015182479152"><ele>661.0</ele><time>2026-04-29T15:18:40.207Z</time></trkpt><trkpt lat="39.960143982694355" lon="9.184109169983497"><ele>661.1666666666667</ele><time>2026-04-29T15:18:41.207Z</time></trkpt><trkpt lat="39.960190968795416" lon="9.184197116856604"><ele>661.3333333333334</ele><time>2026-04-29T15:18:42.207Z</time></trkpt><trkpt lat="39.96023343601404" lon="9.18425850651518"><ele>661.5</ele><time>2026-04-29T15:18:43.207Z</time></trkpt><trkpt lat="39.9602794791459" lon="9.184324263746626"><ele>661.6666666666666</ele><time>2026-04-29T15:18:44.207Z</time></trkpt><trkpt lat="39.960357597593934" lon="9.184326326507858"><ele>661.8333333333333</ele><time>2026-04-29T15:18:45.207Z</time></trkpt><trkpt lat="39.9604460404182" lon="9.184321074270647"><ele>662.0</ele><time>2026-04-29T15:18:46.207Z</time></trkpt><trkpt lat="39.96053804154114" lon="9.184333515433359"><ele>662.0</ele><time>2026-04-29T15:18:47.207Z</time></trkpt><trkpt lat="39.96060663403032" lon="9.184345909416804"><ele>662.0</ele><time>2026-04-29T15:18:48.207Z</time></trkpt><trkpt lat="39.960681611353344" lon="9.184353067916536"><ele>662.0</ele><time>2026-04-29T15:18:49.208Z</time></trkpt><trkpt lat="39.96075534144516" lon="9.184377423726763"><ele>662.0</ele><time>2026-04-29T15:18:50.208Z</time></trkpt><trkpt lat="39.96083140578184" lon="9.184426223031672"><ele>662.0</ele><time>2026-04-29T15:18:51.208Z</time></trkpt><trkpt lat="39.96091038467657" lon="9.184483111004688"><ele>662.0</ele><time>2026-04-29T15:18:52.208Z</time></trkpt><trkpt lat="39.9609885123572" lon="9.184531167483227"><ele>660.1666666666666</ele><time>2026-04-29T15:18:53.208Z</time></trkpt><trkpt lat="39.96106165360696" lon="9.184569260305523"><ele>658.3333333333333</ele><time>2026-04-29T15:18:54.208Z</time></trkpt><trkpt lat="39.96112854358922" lon="9.184614876997896"><ele>656.5</ele><time>2026-04-29T15:18:55.208Z</time></trkpt><trkpt lat="39.96120343286452" lon="9.184663494678498"><ele>654.6666666666666</ele><time>2026-04-29T15:18:56.208Z</time></trkpt><trkpt lat="39.961285227639934" lon="9.184706713682228"><ele>652.8333333333334</ele><time>2026-04-29T15:18:57.208Z</time></trkpt><trkpt lat="39.961353149554775" lon="9.184751288215214"><ele>651.0</ele><time>2026-04-29T15:18:58.208Z</time></trkpt><trkpt lat="39.9614218756952" lon="9.184803294828939"><ele>654.0</ele><time>2026-04-29T15:18:59.208Z</time></trkpt><trkpt lat="39.96147713794326" lon="9.184863845804932"><ele>657.0</ele><time>2026-04-29T15:19:00.208Z</time></trkpt><trkpt lat="39.96162292420503" lon="9.1849398967183"><ele>660.0</ele><time>2026-04-29T15:19:02.208Z</time></trkpt><trkpt lat="39.961710182878825" lon="9.18498411617339"><ele>663.0</ele><time>2026-04-29T15:19:03.208Z</time></trkpt><trkpt lat="39.96181180504337" lon="9.184987792247385"><ele>666.0</ele><time>2026-04-29T15:19:04.208Z</time></trkpt><trkpt lat="39.961907473043176" lon="9.184980261897396"><ele>666.0</ele><time>2026-04-29T15:19:05.208Z</time></trkpt><trkpt lat="39.962007858933966" lon="9.184973539127604"><ele>666.0</ele><time>2026-04-29T15:19:06.208Z</time></trkpt><trkpt lat="39.962114874950466" lon="9.184975706324694"><ele>666.0</ele><time>2026-04-29T15:19:07.208Z</time></trkpt><trkpt lat="39.962221017624096" lon="9.18496548526387"><ele>666.0</ele><time>2026-04-29T15:19:08.208Z</time></trkpt><trkpt lat="39.96232556112767" lon="9.184963022158911"><ele>666.0</ele><time>2026-04-29T15:19:09.208Z</time></trkpt><trkpt lat="39.96242708981051" lon="9.184967032073045"><ele>666.0</ele><time>2026-04-29T15:19:10.208Z</time></trkpt><trkpt lat="39.96253045568552" lon="9.184944957689014"><ele>666.0</ele><time>2026-04-29T15:19:11.208Z</time></trkpt><trkpt lat="39.96263374067215" lon="9.184908514554628"><ele>666.0</ele><time>2026-04-29T15:19:12.208Z</time></trkpt><trkpt lat="39.962739729626904" lon="9.184864511312057"><ele>666.0</ele><time>2026-04-29T15:19:13.208Z</time></trkpt><trkpt lat="39.96284127223262" lon="9.184809208210043"><ele>666.0</ele><time>2026-04-29T15:19:14.208Z</time></trkpt><trkpt lat="39.96293826939939" lon="9.184704187279378"><ele>663.1999999999999</ele><time>2026-04-29T15:19:15.208Z</time></trkpt><trkpt lat="39.96301962034965" lon="9.184605002698595"><ele>660.4</ele><time>2026-04-29T15:19:16.208Z</time></trkpt><trkpt lat="39.96309192310549" lon="9.18450021856703"><ele>657.6</ele><time>2026-04-29T15:19:17.208Z</time></trkpt><trkpt lat="39.96317614468123" lon="9.18441315376782"><ele>654.8</ele><time>2026-04-29T15:19:18.208Z</time></trkpt><trkpt lat="39.9632833420938" lon="9.184365063251127"><ele>652.0</ele><time>2026-04-29T15:19:19.208Z</time></trkpt><trkpt lat="39.96340242420704" lon="9.184349582330308"><ele>652.0</ele><time>2026-04-29T15:19:20.208Z</time></trkpt><trkpt lat="39.96352553199002" lon="9.184345308240328"><ele>652.0</ele><time>2026-04-29T15:19:21.208Z</time></trkpt><trkpt lat="39.96364586546223" lon="9.184327646512736"><ele>652.0</ele><time>2026-04-29T15:19:22.208Z</time></trkpt><trkpt lat="39.963768027119144" lon="9.184307468511303"><ele>652.0</ele><time>2026-04-29T15:19:23.208Z</time></trkpt><trkpt lat="39.96388872573584" lon="9.184290516038219"><ele>652.0</ele><time>2026-04-29T15:19:24.208Z</time></trkpt><trkpt lat="39.964000434572306" lon="9.184304701741052"><ele>652.0</ele><time>2026-04-29T15:19:25.208Z</time></trkpt><trkpt lat="39.964104763012955" lon="9.184339252325637"><ele>652.0</ele><time>2026-04-29T15:19:26.208Z</time></trkpt><trkpt lat="39.96420332195978" lon="9.184375840622728"><ele>652.0</ele><time>2026-04-29T15:19:27.208Z</time></trkpt><trkpt lat="39.96430274222507" lon="9.184400812188374"><ele>652.0</ele><time>2026-04-29T15:19:28.208Z</time></trkpt><trkpt lat="39.96441813065068" lon="9.184379241087862"><ele>651.75</ele><time>2026-04-29T15:19:29.208Z</time></trkpt><trkpt lat="39.96453298923408" lon="9.18430904536697"><ele>651.5</ele><time>2026-04-29T15:19:30.208Z</time></trkpt><trkpt lat="39.96464081991609" lon="9.184252091679545"><ele>651.25</ele><time>2026-04-29T15:19:31.208Z</time></trkpt><trkpt lat="39.964753298180625" lon="9.18425237474219"><ele>651.0</ele><time>2026-04-29T15:19:32.208Z</time></trkpt><trkpt lat="39.964862409568276" lon="9.1843013431502"><ele>651.0</ele><time>2026-04-29T15:19:33.208Z</time></trkpt><trkpt lat="39.96497195477885" lon="9.184348820726088"><ele>651.0</ele><time>2026-04-29T15:19:34.208Z</time></trkpt><trkpt lat="39.965090861783075" lon="9.184360021796564"><ele>651.0</ele><time>2026-04-29T15:19:35.208Z</time></trkpt><trkpt lat="39.96521833763946" lon="9.184332694430097"><ele>651.0</ele><time>2026-04-29T15:19:36.208Z</time></trkpt><trkpt lat="39.96534077128796" lon="9.184283759195509"><ele>649.5</ele><time>2026-04-29T15:19:37.208Z</time></trkpt><trkpt lat="39.96546281906565" lon="9.184234999061374"><ele>648.0</ele><time>2026-04-29T15:19:38.208Z</time></trkpt><trkpt lat="39.965587645710904" lon="9.184203210580604"><ele>646.5</ele><time>2026-04-29T15:19:39.208Z</time></trkpt><trkpt lat="39.9657134738213" lon="9.184212035317747"><ele>645.0</ele><time>2026-04-29T15:19:40.208Z</time></trkpt><trkpt lat="39.965840438334574" lon="9.184279187225533"><ele>642.25</ele><time>2026-04-29T15:19:41.208Z</time></trkpt><trkpt lat="39.96595912440355" lon="9.184366968132984"><ele>639.5</ele><time>2026-04-29T15:19:42.208Z</time></trkpt><trkpt lat="39.96608164440099" lon="9.184458500762782"><ele>636.75</ele><time>2026-04-29T15:19:43.208Z</time></trkpt><trkpt lat="39.96620350799192" lon="9.184546590168008"><ele>634.0</ele><time>2026-04-29T15:19:44.208Z</time></trkpt><trkpt lat="39.96629306294209" lon="9.184674679968783"><ele>634.0</ele><time>2026-04-29T15:19:45.208Z</time></trkpt><trkpt lat="39.9663699084846" lon="9.184814321290052"><ele>634.0</ele><time>2026-04-29T15:19:46.208Z</time></trkpt><trkpt lat="39.96643587752477" lon="9.184962932017221"><ele>634.0</ele><time>2026-04-29T15:19:47.208Z</time></trkpt><trkpt lat="39.966500317646435" lon="9.185108535557712"><ele>634.0</ele><time>2026-04-29T15:19:48.208Z</time></trkpt><trkpt lat="39.96656816563547" lon="9.185252732594915"><ele>633.25</ele><time>2026-04-29T15:19:49.208Z</time></trkpt><trkpt lat="39.96662622657004" lon="9.185419296474674"><ele>632.5</ele><time>2026-04-29T15:19:50.208Z</time></trkpt><trkpt lat="39.966658073894195" lon="9.185575527255322"><ele>631.75</ele><time>2026-04-29T15:19:51.208Z</time></trkpt><trkpt lat="39.96670911382119" lon="9.18571632572098"><ele>631.0</ele><time>2026-04-29T15:19:52.208Z</time></trkpt><trkpt lat="39.96680551396733" lon="9.185833522276281"><ele>631.0</ele><time>2026-04-29T15:19:53.208Z</time></trkpt><trkpt lat="39.966900119146636" lon="9.185946952458824"><ele>631.0</ele><time>2026-04-29T15:19:54.208Z</time></trkpt><trkpt lat="39.96696461867085" lon="9.186083080229736"><ele>631.0</ele><time>2026-04-29T15:19:55.208Z</time></trkpt><trkpt lat="39.96700894556149" lon="9.186240168307416"><ele>631.0</ele><time>2026-04-29T15:19:56.208Z</time></trkpt><trkpt lat="39.96701393141053" lon="9.186397905168912"><ele>632.0</ele><time>2026-04-29T15:19:57.208Z</time></trkpt><trkpt lat="39.96699419146091" lon="9.186549768344458"><ele>633.0</ele><time>2026-04-29T15:19:58.208Z</time></trkpt><trkpt lat="39.96702483574956" lon="9.186681389115243"><ele>634.0</ele><time>2026-04-29T15:19:59.208Z</time></trkpt><trkpt lat="39.96710980757658" lon="9.186770821997229"><ele>635.0</ele><time>2026-04-29T15:20:00.208Z</time></trkpt><trkpt lat="39.96722380187059" lon="9.186790302272337"><ele>636.0</ele><time>2026-04-29T15:20:01.208Z</time></trkpt><trkpt lat="39.9673388253401" lon="9.18678802942882"><ele>636.0</ele><time>2026-04-29T15:20:02.208Z</time></trkpt><trkpt lat="39.96746236177036" lon="9.186726961254594"><ele>636.0</ele><time>2026-04-29T15:20:03.208Z</time></trkpt><trkpt lat="39.96757959432373" lon="9.186686934881827"><ele>636.0</ele><time>2026-04-29T15:20:04.208Z</time></trkpt><trkpt lat="39.96768441695497" lon="9.186705108210111"><ele>636.0</ele><time>2026-04-29T15:20:05.208Z</time></trkpt><trkpt lat="39.96776657456227" lon="9.18679276068178"><ele>632.6</ele><time>2026-04-29T15:20:06.208Z</time></trkpt><trkpt lat="39.967802196643" lon="9.186921350636853"><ele>629.2</ele><time>2026-04-29T15:20:07.208Z</time></trkpt><trkpt lat="39.9677996442633" lon="9.187055902134578"><ele>625.8</ele><time>2026-04-29T15:20:08.208Z</time></trkpt><trkpt lat="39.96776395017565" lon="9.18718498602768"><ele>622.4</ele><time>2026-04-29T15:20:09.208Z</time></trkpt><trkpt lat="39.967719360084246" lon="9.18731312791939"><ele>619.0</ele><time>2026-04-29T15:20:10.208Z</time></trkpt><trkpt lat="39.967667855647825" lon="9.187445825596823"><ele>618.0</ele><time>2026-04-29T15:20:11.208Z</time></trkpt><trkpt lat="39.96762089224044" lon="9.187576584906934"><ele>617.0</ele><time>2026-04-29T15:20:12.208Z</time></trkpt><trkpt lat="39.96755986329354" lon="9.187709248976244"><ele>616.0</ele><time>2026-04-29T15:20:13.208Z</time></trkpt><trkpt lat="39.967487630835905" lon="9.18783510818327"><ele>615.0</ele><time>2026-04-29T15:20:14.208Z</time></trkpt><trkpt lat="39.96739894182578" lon="9.187941126185537"><ele>617.5</ele><time>2026-04-29T15:20:15.208Z</time></trkpt><trkpt lat="39.96728634430581" lon="9.18801502883594"><ele>620.0</ele><time>2026-04-29T15:20:16.208Z</time></trkpt><trkpt lat="39.96718142797013" lon="9.188081298225857"><ele>622.5</ele><time>2026-04-29T15:20:17.208Z</time></trkpt><trkpt lat="39.96707918514288" lon="9.188155606897624"><ele>625.0</ele><time>2026-04-29T15:20:18.208Z</time></trkpt><trkpt lat="39.966998021486845" lon="9.188256933918515"><ele>625.0</ele><time>2026-04-29T15:20:19.208Z</time></trkpt><trkpt lat="39.96693018998882" lon="9.188368174232739"><ele>625.0</ele><time>2026-04-29T15:20:20.208Z</time></trkpt><trkpt lat="39.96688577404757" lon="9.188486302340412"><ele>625.0</ele><time>2026-04-29T15:20:21.208Z</time></trkpt><trkpt lat="39.96685292917039" lon="9.188607275107321"><ele>625.0</ele><time>2026-04-29T15:20:22.208Z</time></trkpt><trkpt lat="39.96681063643193" lon="9.188726632415747"><ele>625.0</ele><time>2026-04-29T15:20:23.208Z</time></trkpt><trkpt lat="39.96673650701154" lon="9.188830320504678"><ele>629.75</ele><time>2026-04-29T15:20:24.208Z</time></trkpt><trkpt lat="39.966634787857004" lon="9.188898765286991"><ele>634.5</ele><time>2026-04-29T15:20:25.208Z</time></trkpt><trkpt lat="39.96652129342057" lon="9.188936482864287"><ele>639.25</ele><time>2026-04-29T15:20:26.208Z</time></trkpt><trkpt lat="39.966406043695734" lon="9.188959837779928"><ele>644.0</ele><time>2026-04-29T15:20:27.208Z</time></trkpt><trkpt lat="39.96629798736651" lon="9.188992937222988"><ele>640.8000000000001</ele><time>2026-04-29T15:20:28.208Z</time></trkpt><trkpt lat="39.96619418028323" lon="9.189035551358598"><ele>637.6</ele><time>2026-04-29T15:20:29.208Z</time></trkpt><trkpt lat="39.96609722992305" lon="9.18908842138318"><ele>634.4</ele><time>2026-04-29T15:20:30.208Z</time></trkpt><trkpt lat="39.966019055252474" lon="9.18914142165235"><ele>631.2</ele><time>2026-04-29T15:20:31.208Z</time></trkpt><trkpt lat="39.965950735302584" lon="9.189192866601923"><ele>628.0</ele><time>2026-04-29T15:20:32.208Z</time></trkpt><trkpt lat="39.96590485518207" lon="9.189268090533586"><ele>628.0</ele><time>2026-04-29T15:20:33.208Z</time></trkpt><trkpt lat="39.96589601996929" lon="9.189372374283042"><ele>628.0</ele><time>2026-04-29T15:20:34.208Z</time></trkpt><trkpt lat="39.96596835378488" lon="9.189513173336078"><ele>628.0</ele><time>2026-04-29T15:20:36.208Z</time></trkpt><trkpt lat="39.96604161808789" lon="9.18954101299917"><ele>628.0</ele><time>2026-04-29T15:20:37.208Z</time></trkpt><trkpt lat="39.9661076523821" lon="9.189563221471207"><ele>628.0</ele><time>2026-04-29T15:20:38.208Z</time></trkpt><trkpt lat="39.96619081081934" lon="9.189571373649706"><ele>628.0</ele><time>2026-04-29T15:20:39.208Z</time></trkpt><trkpt lat="39.9662794077574" lon="9.18958361033855"><ele>628.0</ele><time>2026-04-29T15:20:40.208Z</time></trkpt><trkpt lat="39.96637958520772" lon="9.189599237626002"><ele>628.0</ele><time>2026-04-29T15:20:41.208Z</time></trkpt><trkpt lat="39.96648777048555" lon="9.18962247297339"><ele>628.0</ele><time>2026-04-29T15:20:42.208Z</time></trkpt><trkpt lat="39.96659925210821" lon="9.189669310245556"><ele>628.0</ele><time>2026-04-29T15:20:43.208Z</time></trkpt><trkpt lat="39.96670721268817" lon="9.189741324400268"><ele>628.0</ele><time>2026-04-29T15:20:44.208Z</time></trkpt><trkpt lat="39.96681400710832" lon="9.189830855246685"><ele>626.0</ele><time>2026-04-29T15:20:45.208Z</time></trkpt><trkpt lat="39.96691893517797" lon="9.18992272442477"><ele>624.0</ele><time>2026-04-29T15:20:46.208Z</time></trkpt><trkpt lat="39.96702459512526" lon="9.189991527699819"><ele>622.0</ele><time>2026-04-29T15:20:47.208Z</time></trkpt><trkpt lat="39.967142062578986" lon="9.19003569498579"><ele>620.0</ele><time>2026-04-29T15:20:48.208Z</time></trkpt><trkpt lat="39.96725900537909" lon="9.190048195487424"><ele>620.0</ele><time>2026-04-29T15:20:49.208Z</time></trkpt><trkpt lat="39.967368832591745" lon="9.190072495034464"><ele>620.0</ele><time>2026-04-29T15:20:50.208Z</time></trkpt><trkpt lat="39.96747310465917" lon="9.19013503922153"><ele>620.0</ele><time>2026-04-29T15:20:51.208Z</time></trkpt><trkpt lat="39.967563287550966" lon="9.190213931583342"><ele>620.0</ele><time>2026-04-29T15:20:52.208Z</time></trkpt><trkpt lat="39.967643312442554" lon="9.190313989041533"><ele>620.0</ele><time>2026-04-29T15:20:53.208Z</time></trkpt><trkpt lat="39.96772215961718" lon="9.190416598867623"><ele>619.0</ele><time>2026-04-29T15:20:54.208Z</time></trkpt><trkpt lat="39.967803733633964" lon="9.190503445302998"><ele>618.0</ele><time>2026-04-29T15:20:55.21Z</time></trkpt><trkpt lat="39.9678881337401" lon="9.190573549283197"><ele>617.0</ele><time>2026-04-29T15:20:56.209Z</time></trkpt><trkpt lat="39.9679765520989" lon="9.190615452719"><ele>616.0</ele><time>2026-04-29T15:20:57.209Z</time></trkpt><trkpt lat="39.96805197771922" lon="9.190609327872766"><ele>615.0</ele><time>2026-04-29T15:20:58.21Z</time></trkpt><trkpt lat="39.968132055381915" lon="9.190531840638807"><ele>615.0</ele><time>2026-04-29T15:20:59.21Z</time></trkpt><trkpt lat="39.96820576252107" lon="9.190392456511383"><ele>615.0</ele><time>2026-04-29T15:21:00.21Z</time></trkpt><trkpt lat="39.96826536234803" lon="9.190233654596467"><ele>615.0</ele><time>2026-04-29T15:21:01.21Z</time></trkpt><trkpt lat="39.968365238890634" lon="9.190065231143569"><ele>615.0</ele><time>2026-04-29T15:21:02.209Z</time></trkpt><trkpt lat="39.96850107930101" lon="9.189902163997953"><ele>614.3333333333334</ele><time>2026-04-29T15:21:03.209Z</time></trkpt><trkpt lat="39.968634061634965" lon="9.189738095323303"><ele>613.6666666666667</ele><time>2026-04-29T15:21:04.209Z</time></trkpt><trkpt lat="39.968745999904804" lon="9.189575977708358"><ele>613.0</ele><time>2026-04-29T15:21:05.21Z</time></trkpt><trkpt lat="39.96888697321388" lon="9.18945355156157"><ele>613.0</ele><time>2026-04-29T15:21:06.21Z</time></trkpt><trkpt lat="39.96903328050174" lon="9.18934807825453"><ele>613.0</ele><time>2026-04-29T15:21:07.21Z</time></trkpt><trkpt lat="39.9691802431003" lon="9.189268266126785"><ele>613.0</ele><time>2026-04-29T15:21:08.209Z</time></trkpt><trkpt lat="39.96933419068362" lon="9.189231265364496"><ele>612.6666666666667</ele><time>2026-04-29T15:21:09.209Z</time></trkpt><trkpt lat="39.96949164117207" lon="9.189237038644688"><ele>612.3333333333334</ele><time>2026-04-29T15:21:10.209Z</time></trkpt><trkpt lat="39.96965850870615" lon="9.189267974121027"><ele>612.0</ele><time>2026-04-29T15:21:11.209Z</time></trkpt><trkpt lat="39.96983664565096" lon="9.189315199519942"><ele>612.0</ele><time>2026-04-29T15:21:12.209Z</time></trkpt><trkpt lat="39.970010025759066" lon="9.189319447447073"><ele>612.0</ele><time>2026-04-29T15:21:13.209Z</time></trkpt><trkpt lat="39.970185742612856" lon="9.189265635933038"><ele>612.0</ele><time>2026-04-29T15:21:14.209Z</time></trkpt><trkpt lat="39.970368014882325" lon="9.189168285025426"><ele>612.3333333333334</ele><time>2026-04-29T15:21:15.209Z</time></trkpt><trkpt lat="39.97053789968222" lon="9.189052206116239"><ele>612.6666666666667</ele><time>2026-04-29T15:21:16.209Z</time></trkpt><trkpt lat="39.970689058413136" lon="9.188959158696642"><ele>613.0</ele><time>2026-04-29T15:21:17.209Z</time></trkpt><trkpt lat="39.970840106931796" lon="9.188944554291568"><ele>614.0</ele><time>2026-04-29T15:21:18.209Z</time></trkpt><trkpt lat="39.97096604067025" lon="9.189027951951473"><ele>615.0</ele><time>2026-04-29T15:21:19.209Z</time></trkpt><trkpt lat="39.97106549302299" lon="9.189168046463418"><ele>616.0</ele><time>2026-04-29T15:21:20.209Z</time></trkpt><trkpt lat="39.97116068251487" lon="9.189326385484279"><ele>617.0</ele><time>2026-04-29T15:21:21.209Z</time></trkpt><trkpt lat="39.97127709025241" lon="9.189430477458814"><ele>617.0</ele><time>2026-04-29T15:21:22.209Z</time></trkpt><trkpt lat="39.971406794471044" lon="9.18944850638393"><ele>617.0</ele><time>2026-04-29T15:21:23.209Z</time></trkpt><trkpt lat="39.97152522885276" lon="9.189357684247312"><ele>617.0</ele><time>2026-04-29T15:21:24.209Z</time></trkpt><trkpt lat="39.97159218242821" lon="9.189187998554225"><ele>617.0</ele><time>2026-04-29T15:21:25.209Z</time></trkpt><trkpt lat="39.97159352026437" lon="9.18898146847048"><ele>613.3333333333333</ele><time>2026-04-29T15:21:26.209Z</time></trkpt><trkpt lat="39.97157419365547" lon="9.18875348120537"><ele>609.6666666666666</ele><time>2026-04-29T15:21:27.209Z</time></trkpt><trkpt lat="39.97158428084595" lon="9.188503630825945"><ele>606.0</ele><time>2026-04-29T15:21:28.209Z</time></trkpt><trkpt lat="39.97158315351298" lon="9.188280128857883"><ele>605.3333333333334</ele><time>2026-04-29T15:21:29.209Z</time></trkpt><trkpt lat="39.97162716924906" lon="9.188073170396864"><ele>604.6666666666667</ele><time>2026-04-29T15:21:30.209Z</time></trkpt><trkpt lat="39.97172504947663" lon="9.187890201753383"><ele>604.0</ele><time>2026-04-29T15:21:31.209Z</time></trkpt><trkpt lat="39.97186393466386" lon="9.187755987326742"><ele>604.0</ele><time>2026-04-29T15:21:32.209Z</time></trkpt><trkpt lat="39.97202342590601" lon="9.187653467608868"><ele>604.0</ele><time>2026-04-29T15:21:33.209Z</time></trkpt><trkpt lat="39.97218661672478" lon="9.187545346833957"><ele>604.0</ele><time>2026-04-29T15:21:34.209Z</time></trkpt><trkpt lat="39.97235683616708" lon="9.187435070814002"><ele>598.0</ele><time>2026-04-29T15:21:35.209Z</time></trkpt><trkpt lat="39.97251137106527" lon="9.187319328277447"><ele>592.0</ele><time>2026-04-29T15:21:36.209Z</time></trkpt><trkpt lat="39.9726629196624" lon="9.187209154630416"><ele>586.0</ele><time>2026-04-29T15:21:37.209Z</time></trkpt><trkpt lat="39.972824381212575" lon="9.187139949973135"><ele>586.0</ele><time>2026-04-29T15:21:38.209Z</time></trkpt><trkpt lat="39.97298877996516" lon="9.187113921923093"><ele>586.0</ele><time>2026-04-29T15:21:39.209Z</time></trkpt><trkpt lat="39.97314823848164" lon="9.187114486031945"><ele>586.0</ele><time>2026-04-29T15:21:40.209Z</time></trkpt><trkpt lat="39.97329009872983" lon="9.187137549677926"><ele>586.8</ele><time>2026-04-29T15:21:41.209Z</time></trkpt><trkpt lat="39.97340172162417" lon="9.187212246178099"><ele>587.6</ele><time>2026-04-29T15:21:42.209Z</time></trkpt><trkpt lat="39.97348935206023" lon="9.187287682773146"><ele>588.4</ele><time>2026-04-29T15:21:43.209Z</time></trkpt><trkpt lat="39.973576014121505" lon="9.187302372208572"><ele>589.2</ele><time>2026-04-29T15:21:44.209Z</time></trkpt><trkpt lat="39.97365167998237" lon="9.187260404591875"><ele>590.0</ele><time>2026-04-29T15:21:45.209Z</time></trkpt><trkpt lat="39.97371512281827" lon="9.187155094637719"><ele>590.0</ele><time>2026-04-29T15:21:46.209Z</time></trkpt><trkpt lat="39.973741753316425" lon="9.187022074097989"><ele>590.0</ele><time>2026-04-29T15:21:47.209Z</time></trkpt><trkpt lat="39.9737687635313" lon="9.18691217010819"><ele>590.0</ele><time>2026-04-29T15:21:48.209Z</time></trkpt><trkpt lat="39.97384453304638" lon="9.186787184409328"><ele>590.0</ele><time>2026-04-29T15:21:50.209Z</time></trkpt><trkpt lat="39.973919695913274" lon="9.186746682033146"><ele>590.0</ele><time>2026-04-29T15:21:51.209Z</time></trkpt><trkpt lat="39.974002612100605" lon="9.186711759051558"><ele>590.0</ele><time>2026-04-29T15:21:52.209Z</time></trkpt><trkpt lat="39.97409373764229" lon="9.186666343364866"><ele>590.0</ele><time>2026-04-29T15:21:53.209Z</time></trkpt><trkpt lat="39.97418878157517" lon="9.186612670735105"><ele>590.0</ele><time>2026-04-29T15:21:54.209Z</time></trkpt><trkpt lat="39.97428853684653" lon="9.186558230373643"><ele>590.0</ele><time>2026-04-29T15:21:55.209Z</time></trkpt><trkpt lat="39.9743932557719" lon="9.186500573653221"><ele>590.0</ele><time>2026-04-29T15:21:56.209Z</time></trkpt><trkpt lat="39.974502631103505" lon="9.186444037859847"><ele>585.5</ele><time>2026-04-29T15:21:57.209Z</time></trkpt><trkpt lat="39.974616156910464" lon="9.18639426499267"><ele>581.0</ele><time>2026-04-29T15:21:58.209Z</time></trkpt><trkpt lat="39.97473023804796" lon="9.18637675342526"><ele>576.5</ele><time>2026-04-29T15:21:59.209Z</time></trkpt><trkpt lat="39.974839244178966" lon="9.1863828372277"><ele>572.0</ele><time>2026-04-29T15:22:00.209Z</time></trkpt><trkpt lat="39.974945582786845" lon="9.186402554101253"><ele>571.6</ele><time>2026-04-29T15:22:01.209Z</time></trkpt><trkpt lat="39.97504481181185" lon="9.18642248602986"><ele>571.2</ele><time>2026-04-29T15:22:02.209Z</time></trkpt><trkpt lat="39.97514087342761" lon="9.186435945166208"><ele>570.8</ele><time>2026-04-29T15:22:03.209Z</time></trkpt><trkpt lat="39.975232603941386" lon="9.186441409740233"><ele>570.4</ele><time>2026-04-29T15:22:04.209Z</time></trkpt><trkpt lat="39.97532099875132" lon="9.186467360408884"><ele>570.0</ele><time>2026-04-29T15:22:05.209Z</time></trkpt><trkpt lat="39.97540451213322" lon="9.186503630925225"><ele>572.0</ele><time>2026-04-29T15:22:06.209Z</time></trkpt><trkpt lat="39.97547618872069" lon="9.186541173480947"><ele>574.0</ele><time>2026-04-29T15:22:07.209Z</time></trkpt><trkpt lat="39.97555215262102" lon="9.186582186724943"><ele>576.0</ele><time>2026-04-29T15:22:08.209Z</time></trkpt><trkpt lat="39.975631649514575" lon="9.186612814937142"><ele>578.0</ele><time>2026-04-29T15:22:09.209Z</time></trkpt><trkpt lat="39.97571505577229" lon="9.186636552687313"><ele>580.0</ele><time>2026-04-29T15:22:10.209Z</time></trkpt><trkpt lat="39.97579661975681" lon="9.186652189965828"><ele>582.0</ele><time>2026-04-29T15:22:11.209Z</time></trkpt><trkpt lat="39.97587208702206" lon="9.186654009612228"><ele>582.0</ele><time>2026-04-29T15:22:12.209Z</time></trkpt><trkpt lat="39.9759455292593" lon="9.18665555703479"><ele>582.0</ele><time>2026-04-29T15:22:13.209Z</time></trkpt><trkpt lat="39.97601416512427" lon="9.186662095679319"><ele>582.0</ele><time>2026-04-29T15:22:14.209Z</time></trkpt><trkpt lat="39.9760871876941" lon="9.186655301316964"><ele>582.0</ele><time>2026-04-29T15:22:15.209Z</time></trkpt><trkpt lat="39.97616489419925" lon="9.186640508253943"><ele>582.0</ele><time>2026-04-29T15:22:16.209Z</time></trkpt><trkpt lat="39.97623845632143" lon="9.186637410153121"><ele>582.0</ele><time>2026-04-29T15:22:17.209Z</time></trkpt><trkpt lat="39.97630913546433" lon="9.186637543167505"><ele>582.0</ele><time>2026-04-29T15:22:18.209Z</time></trkpt><trkpt lat="39.97637736247637" lon="9.186629270171219"><ele>582.0</ele><time>2026-04-29T15:22:19.209Z</time></trkpt><trkpt lat="39.976448006844194" lon="9.186626822435528"><ele>582.0</ele><time>2026-04-29T15:22:20.209Z</time></trkpt><trkpt lat="39.97651258780672" lon="9.186630976826171"><ele>582.0</ele><time>2026-04-29T15:22:21.209Z</time></trkpt><trkpt lat="39.97657633872332" lon="9.186639156581263"><ele>582.0</ele><time>2026-04-29T15:22:22.209Z</time></trkpt><trkpt lat="39.97663909100241" lon="9.186651492193494"><ele>582.0</ele><time>2026-04-29T15:22:23.209Z</time></trkpt><trkpt lat="39.97670106989862" lon="9.186670357036395"><ele>582.0</ele><time>2026-04-29T15:22:24.209Z</time></trkpt><trkpt lat="39.97676508664075" lon="9.186694525882993"><ele>582.0</ele><time>2026-04-29T15:22:25.209Z</time></trkpt><trkpt lat="39.97682850245385" lon="9.186722695511056"><ele>580.8333333333334</ele><time>2026-04-29T15:22:26.209Z</time></trkpt><trkpt lat="39.97689064173731" lon="9.186749092651802"><ele>579.6666666666666</ele><time>2026-04-29T15:22:27.209Z</time></trkpt><trkpt lat="39.97695269231222" lon="9.186772065496463"><ele>578.5</ele><time>2026-04-29T15:22:28.209Z</time></trkpt><trkpt lat="39.977017150766926" lon="9.186786557065128"><ele>577.3333333333333</ele><time>2026-04-29T15:22:29.209Z</time></trkpt><trkpt lat="39.977143149619955" lon="9.186809282118965"><ele>576.1666666666666</ele><time>2026-04-29T15:22:31.209Z</time></trkpt><trkpt lat="39.97721059267693" lon="9.186818974559424"><ele>575.0</ele><time>2026-04-29T15:22:32.209Z</time></trkpt><trkpt lat="39.97727877562647" lon="9.186819881832662"><ele>575.0</ele><time>2026-04-29T15:22:33.209Z</time></trkpt><trkpt lat="39.97734368823785" lon="9.186803819078348"><ele>575.0</ele><time>2026-04-29T15:22:34.209Z</time></trkpt><trkpt lat="39.977405428714356" lon="9.186779605740428"><ele>575.0</ele><time>2026-04-29T15:22:35.209Z</time></trkpt><trkpt lat="39.9775113355658" lon="9.186729474067242"><ele>575.0</ele><time>2026-04-29T15:22:37.209Z</time></trkpt><trkpt lat="39.97760692422634" lon="9.18669494992818"><ele>575.0</ele><time>2026-04-29T15:22:39.209Z</time></trkpt><trkpt lat="39.97770321716182" lon="9.186699958860384"><ele>575.0</ele><time>2026-04-29T15:22:41.209Z</time></trkpt><trkpt lat="39.97778141877533" lon="9.186776381936705"><ele>573.2</ele><time>2026-04-29T15:22:43.209Z</time></trkpt><trkpt lat="39.977814617251994" lon="9.186891386960692"><ele>571.4</ele><time>2026-04-29T15:22:45.209Z</time></trkpt><trkpt lat="39.977805936752624" lon="9.187034266802366"><ele>569.6</ele><time>2026-04-29T15:22:47.209Z</time></trkpt><trkpt lat="39.97777765364446" lon="9.187173780607008"><ele>567.8</ele><time>2026-04-29T15:22:49.209Z</time></trkpt><trkpt lat="39.97774925942158" lon="9.187302487080142"><ele>566.0</ele><time>2026-04-29T15:22:51.209Z</time></trkpt><trkpt lat="39.97773398213535" lon="9.187436425822872"><ele>566.0</ele><time>2026-04-29T15:22:53.209Z</time></trkpt><trkpt lat="39.97772417411247" lon="9.187583377317823"><ele>566.0</ele><time>2026-04-29T15:22:55.209Z</time></trkpt><trkpt lat="39.97771924743596" lon="9.187672021030922"><ele>566.0</ele><time>2026-04-29T15:22:56.209Z</time></trkpt><trkpt lat="39.97771695116616" lon="9.18777361563439"><ele>566.0</ele><time>2026-04-29T15:22:57.209Z</time></trkpt><trkpt lat="39.97772740428448" lon="9.187890468674723"><ele>566.0</ele><time>2026-04-29T15:22:58.209Z</time></trkpt><trkpt lat="39.97775061593197" lon="9.188014321034464"><ele>566.0</ele><time>2026-04-29T15:22:59.209Z</time></trkpt><trkpt lat="39.97778775730708" lon="9.188135413938321"><ele>567.2</ele><time>2026-04-29T15:23:00.211Z</time></trkpt><trkpt lat="39.9778439556103" lon="9.188249862159907"><ele>568.4000000000001</ele><time>2026-04-29T15:23:01.211Z</time></trkpt><trkpt lat="39.97791308174857" lon="9.188357576950969"><ele>569.6</ele><time>2026-04-29T15:23:02.211Z</time></trkpt><trkpt lat="39.9779886415134" lon="9.188458203049361"><ele>570.8000000000001</ele><time>2026-04-29T15:23:03.21Z</time></trkpt><trkpt lat="39.978075033864584" lon="9.188545321062938"><ele>572.0</ele><time>2026-04-29T15:23:04.211Z</time></trkpt><trkpt lat="39.97817111246613" lon="9.18861722062488"><ele>572.0</ele><time>2026-04-29T15:23:05.211Z</time></trkpt><trkpt lat="39.9782772837698" lon="9.188656018362487"><ele>572.0</ele><time>2026-04-29T15:23:06.211Z</time></trkpt><trkpt lat="39.978389074954066" lon="9.188667905402015"><ele>572.0</ele><time>2026-04-29T15:23:07.21Z</time></trkpt><trkpt lat="39.97849797664003" lon="9.188688744217169"><ele>572.0</ele><time>2026-04-29T15:23:08.21Z</time></trkpt><trkpt lat="39.97860598629259" lon="9.18871977126552"><ele>572.0</ele><time>2026-04-29T15:23:09.21Z</time></trkpt><trkpt lat="39.97870731560114" lon="9.188721415166771"><ele>575.8000000000001</ele><time>2026-04-29T15:23:10.21Z</time></trkpt><trkpt lat="39.97879680046188" lon="9.188678121216796"><ele>579.6</ele><time>2026-04-29T15:23:11.21Z</time></trkpt><trkpt lat="39.97886065754551" lon="9.188578273006783"><ele>583.4000000000001</ele><time>2026-04-29T15:23:12.211Z</time></trkpt><trkpt lat="39.97889867947888" lon="9.18846075907445"><ele>587.2</ele><time>2026-04-29T15:23:13.21Z</time></trkpt><trkpt lat="39.9789441262019" lon="9.188339033639071"><ele>591.0</ele><time>2026-04-29T15:23:14.21Z</time></trkpt><trkpt lat="39.978959952874895" lon="9.18821900949683"><ele>588.0</ele><time>2026-04-29T15:23:15.21Z</time></trkpt><trkpt lat="39.978949524446946" lon="9.188083435332617"><ele>585.0</ele><time>2026-04-29T15:23:16.21Z</time></trkpt><trkpt lat="39.97893128706515" lon="9.187932973941932"><ele>582.0</ele><time>2026-04-29T15:23:17.21Z</time></trkpt><trkpt lat="39.97890634601462" lon="9.187771017530935"><ele>579.0</ele><time>2026-04-29T15:23:18.21Z</time></trkpt><trkpt lat="39.978888812818575" lon="9.187622310471921"><ele>579.0</ele><time>2026-04-29T15:23:19.21Z</time></trkpt><trkpt lat="39.978900098595425" lon="9.187460018254509"><ele>579.0</ele><time>2026-04-29T15:23:20.21Z</time></trkpt><trkpt lat="39.97892042876524" lon="9.187309138721961"><ele>579.0</ele><time>2026-04-29T15:23:21.21Z</time></trkpt><trkpt lat="39.97895472526104" lon="9.187160491934932"><ele>579.0</ele><time>2026-04-29T15:23:22.21Z</time></trkpt><trkpt lat="39.97900264316549" lon="9.18701412636097"><ele>579.25</ele><time>2026-04-29T15:23:23.21Z</time></trkpt><trkpt lat="39.97907184578084" lon="9.186876347343222"><ele>579.5</ele><time>2026-04-29T15:23:24.21Z</time></trkpt><trkpt lat="39.979161982376915" lon="9.186762141920447"><ele>579.75</ele><time>2026-04-29T15:23:25.21Z</time></trkpt><trkpt lat="39.9792566205699" lon="9.18665531262251"><ele>580.0</ele><time>2026-04-29T15:23:26.21Z</time></trkpt><trkpt lat="39.979357291375855" lon="9.186555487509612"><ele>576.25</ele><time>2026-04-29T15:23:27.21Z</time></trkpt><trkpt lat="39.97945458056065" lon="9.186449632081299"><ele>572.5</ele><time>2026-04-29T15:23:28.21Z</time></trkpt><trkpt lat="39.97954852736539" lon="9.18633921444321"><ele>568.75</ele><time>2026-04-29T15:23:29.21Z</time></trkpt><trkpt lat="39.97964379759723" lon="9.186234467580643"><ele>565.0</ele><time>2026-04-29T15:23:30.21Z</time></trkpt><trkpt lat="39.97974235782947" lon="9.186128115724538"><ele>565.0</ele><time>2026-04-29T15:23:31.21Z</time></trkpt><trkpt lat="39.97984397069728" lon="9.186020890086732"><ele>565.0</ele><time>2026-04-29T15:23:32.21Z</time></trkpt><trkpt lat="39.9799481479699" lon="9.18591128145859"><ele>565.0</ele><time>2026-04-29T15:23:33.21Z</time></trkpt><trkpt lat="39.98005946798607" lon="9.18581486707472"><ele>565.0</ele><time>2026-04-29T15:23:34.21Z</time></trkpt><trkpt lat="39.98017663996999" lon="9.185711648843059"><ele>562.75</ele><time>2026-04-29T15:23:35.21Z</time></trkpt><trkpt lat="39.98028908397325" lon="9.185593816715302"><ele>560.5</ele><time>2026-04-29T15:23:36.21Z</time></trkpt><trkpt lat="39.9804004325677" lon="9.185471320112839"><ele>558.25</ele><time>2026-04-29T15:23:37.21Z</time></trkpt><trkpt lat="39.980518913143094" lon="9.185364597829494"><ele>556.0</ele><time>2026-04-29T15:23:38.21Z</time></trkpt><trkpt lat="39.98064919574724" lon="9.185313271794827"><ele>556.0</ele><time>2026-04-29T15:23:39.21Z</time></trkpt><trkpt lat="39.9807823177707" lon="9.185335564310032"><ele>556.0</ele><time>2026-04-29T15:23:40.21Z</time></trkpt><trkpt lat="39.98091343035961" lon="9.185419274230052"><ele>556.0</ele><time>2026-04-29T15:23:41.21Z</time></trkpt><trkpt lat="39.981055391521735" lon="9.185512061297834"><ele>556.0</ele><time>2026-04-29T15:23:42.21Z</time></trkpt><trkpt lat="39.981211892756185" lon="9.18557464196138"><ele>555.0</ele><time>2026-04-29T15:23:43.21Z</time></trkpt><trkpt lat="39.98138337623048" lon="9.185607594307315"><ele>554.0</ele><time>2026-04-29T15:23:44.21Z</time></trkpt><trkpt lat="39.98157070459262" lon="9.185614587298213"><ele>553.0</ele><time>2026-04-29T15:23:45.21Z</time></trkpt><trkpt lat="39.98176185847737" lon="9.185593352524156"><ele>552.6666666666667</ele><time>2026-04-29T15:23:46.21Z</time></trkpt><trkpt lat="39.98195346886635" lon="9.185551266489444"><ele>552.3333333333334</ele><time>2026-04-29T15:23:47.21Z</time></trkpt><trkpt lat="39.982134232840586" lon="9.185496228916557"><ele>552.0</ele><time>2026-04-29T15:23:48.21Z</time></trkpt><trkpt lat="39.982300168963114" lon="9.185412820719414"><ele>552.0</ele><time>2026-04-29T15:23:49.21Z</time></trkpt><trkpt lat="39.98246149074457" lon="9.185385750340382"><ele>552.0</ele><time>2026-04-29T15:23:50.21Z</time></trkpt><trkpt lat="39.982620301364335" lon="9.185426563532383"><ele>552.0</ele><time>2026-04-29T15:23:51.21Z</time></trkpt><trkpt lat="39.98276935533848" lon="9.185501361567312"><ele>552.0</ele><time>2026-04-29T15:23:52.21Z</time></trkpt><trkpt lat="39.98290944582161" lon="9.185514109448903"><ele>552.0</ele><time>2026-04-29T15:23:53.21Z</time></trkpt><trkpt lat="39.9830559235903" lon="9.185450400906056"><ele>552.0</ele><time>2026-04-29T15:23:54.21Z</time></trkpt><trkpt lat="39.98319377089496" lon="9.185322442041086"><ele>552.0</ele><time>2026-04-29T15:23:55.21Z</time></trkpt><trkpt lat="39.98332603554302" lon="9.185171624448067"><ele>552.0</ele><time>2026-04-29T15:23:56.21Z</time></trkpt><trkpt lat="39.983455258070386" lon="9.185027159378727"><ele>552.0</ele><time>2026-04-29T15:23:57.21Z</time></trkpt><trkpt lat="39.9836245331335" lon="9.184980173226437"><ele>553.0</ele><time>2026-04-29T15:23:58.21Z</time></trkpt><trkpt lat="39.98381404059463" lon="9.184982221965418"><ele>554.0</ele><time>2026-04-29T15:23:59.21Z</time></trkpt><trkpt lat="39.98400423219374" lon="9.184983241535836"><ele>555.0</ele><time>2026-04-29T15:24:00.21Z</time></trkpt><trkpt lat="39.98420434082342" lon="9.184998526613391"><ele>555.0</ele><time>2026-04-29T15:24:01.21Z</time></trkpt><trkpt lat="39.98437894962541" lon="9.184993285696809"><ele>555.0</ele><time>2026-04-29T15:24:02.21Z</time></trkpt><trkpt lat="39.98457328137539" lon="9.18498175090069"><ele>555.0</ele><time>2026-04-29T15:24:03.21Z</time></trkpt><trkpt lat="39.98478117041503" lon="9.184981487654087"><ele>555.0</ele><time>2026-04-29T15:24:04.21Z</time></trkpt><trkpt lat="39.98497081701213" lon="9.184989380306233"><ele>555.0</ele><time>2026-04-29T15:24:05.21Z</time></trkpt><trkpt lat="39.985147341884584" lon="9.185027648122919"><ele>555.0</ele><time>2026-04-29T15:24:06.21Z</time></trkpt><trkpt lat="39.98532617161398" lon="9.185096454780954"><ele>552.6666666666666</ele><time>2026-04-29T15:24:07.21Z</time></trkpt><trkpt lat="39.98549640594223" lon="9.185187667358194"><ele>550.3333333333333</ele><time>2026-04-29T15:24:08.21Z</time></trkpt><trkpt lat="39.98565324003957" lon="9.18527813023513"><ele>548.0</ele><time>2026-04-29T15:24:09.21Z</time></trkpt><trkpt lat="39.98578570944916" lon="9.185380378773232"><ele>548.6666666666666</ele><time>2026-04-29T15:24:10.21Z</time></trkpt><trkpt lat="39.9858919959899" lon="9.185535867038324"><ele>549.3333333333334</ele><time>2026-04-29T15:24:11.21Z</time></trkpt><trkpt lat="39.98598713976104" lon="9.185727036641623"><ele>550.0</ele><time>2026-04-29T15:24:12.21Z</time></trkpt><trkpt lat="39.98607834331389" lon="9.1859502708878"><ele>550.0</ele><time>2026-04-29T15:24:13.21Z</time></trkpt><trkpt lat="39.98616384535702" lon="9.186177718393514"><ele>550.0</ele><time>2026-04-29T15:24:14.21Z</time></trkpt><trkpt lat="39.98624304274448" lon="9.186381369852398"><ele>550.0</ele><time>2026-04-29T15:24:15.21Z</time></trkpt><trkpt lat="39.986319069058794" lon="9.186565455526727"><ele>551.5</ele><time>2026-04-29T15:24:16.21Z</time></trkpt><trkpt lat="39.986396117983816" lon="9.18670791546299"><ele>553.0</ele><time>2026-04-29T15:24:17.21Z</time></trkpt><trkpt lat="39.98650122261179" lon="9.186785916734742"><ele>554.5</ele><time>2026-04-29T15:24:18.21Z</time></trkpt><trkpt lat="39.98662366808732" lon="9.186790100412042"><ele>556.0</ele><time>2026-04-29T15:24:19.21Z</time></trkpt><trkpt lat="39.9867291900991" lon="9.18672600855353"><ele>558.5</ele><time>2026-04-29T15:24:20.21Z</time></trkpt><trkpt lat="39.98680897952814" lon="9.186604335514843"><ele>561.0</ele><time>2026-04-29T15:24:21.21Z</time></trkpt><trkpt lat="39.98683568811571" lon="9.186428454769285"><ele>563.5</ele><time>2026-04-29T15:24:22.21Z</time></trkpt><trkpt lat="39.98683298881257" lon="9.186231780786624"><ele>566.0</ele><time>2026-04-29T15:24:23.21Z</time></trkpt><trkpt lat="39.986886231021764" lon="9.186026076903287"><ele>566.0</ele><time>2026-04-29T15:24:24.21Z</time></trkpt><trkpt lat="39.98697484515545" lon="9.18583493405338"><ele>566.0</ele><time>2026-04-29T15:24:25.21Z</time></trkpt><trkpt lat="39.98708652649832" lon="9.185640496724462"><ele>566.0</ele><time>2026-04-29T15:24:26.21Z</time></trkpt><trkpt lat="39.9872065393593" lon="9.185454254407414"><ele>568.0</ele><time>2026-04-29T15:24:27.21Z</time></trkpt><trkpt lat="39.987356280345374" lon="9.185311377547984"><ele>570.0</ele><time>2026-04-29T15:24:28.21Z</time></trkpt><trkpt lat="39.98751875245035" lon="9.185180307092347"><ele>572.0</ele><time>2026-04-29T15:24:29.21Z</time></trkpt><trkpt lat="39.987665459864914" lon="9.185016007417216"><ele>572.0</ele><time>2026-04-29T15:24:30.21Z</time></trkpt><trkpt lat="39.987806027454866" lon="9.18484828143964"><ele>572.0</ele><time>2026-04-29T15:24:31.21Z</time></trkpt><trkpt lat="39.98795367845841" lon="9.184684784921323"><ele>572.0</ele><time>2026-04-29T15:24:32.21Z</time></trkpt><trkpt lat="39.98811712598437" lon="9.184536965784146"><ele>570.6666666666666</ele><time>2026-04-29T15:24:33.21Z</time></trkpt><trkpt lat="39.98828602078436" lon="9.18440316614478"><ele>569.3333333333334</ele><time>2026-04-29T15:24:34.21Z</time></trkpt><trkpt lat="39.98845210044789" lon="9.184268305630512"><ele>568.0</ele><time>2026-04-29T15:24:35.21Z</time></trkpt><trkpt lat="39.98861083463844" lon="9.184132162450863"><ele>568.0</ele><time>2026-04-29T15:24:36.21Z</time></trkpt><trkpt lat="39.98875767255963" lon="9.1840242952469"><ele>568.0</ele><time>2026-04-29T15:24:37.21Z</time></trkpt><trkpt lat="39.988898571562885" lon="9.183978853408512"><ele>568.0</ele><time>2026-04-29T15:24:38.21Z</time></trkpt><trkpt lat="39.98904870188935" lon="9.184007812304733"><ele>567.0</ele><time>2026-04-29T15:24:39.21Z</time></trkpt><trkpt lat="39.989193458690345" lon="9.184048325428993"><ele>566.0</ele><time>2026-04-29T15:24:40.21Z</time></trkpt><trkpt lat="39.98934931224464" lon="9.184032954423968"><ele>565.0</ele><time>2026-04-29T15:24:41.21Z</time></trkpt><trkpt lat="39.9895043166446" lon="9.183963829321739"><ele>565.0</ele><time>2026-04-29T15:24:42.21Z</time></trkpt><trkpt lat="39.98966327853157" lon="9.183906734945518"><ele>565.0</ele><time>2026-04-29T15:24:43.21Z</time></trkpt><trkpt lat="39.989834148411234" lon="9.183905772085632"><ele>565.0</ele><time>2026-04-29T15:24:44.21Z</time></trkpt><trkpt lat="39.98998414509319" lon="9.183906212581139"><ele>569.25</ele><time>2026-04-29T15:24:45.21Z</time></trkpt><trkpt lat="39.99010440536738" lon="9.18385675935946"><ele>573.5</ele><time>2026-04-29T15:24:46.21Z</time></trkpt><trkpt lat="39.990188866741676" lon="9.183746132103693"><ele>577.75</ele><time>2026-04-29T15:24:47.21Z</time></trkpt><trkpt lat="39.99025297674925" lon="9.183568796348302"><ele>582.0</ele><time>2026-04-29T15:24:48.21Z</time></trkpt><trkpt lat="39.990331338590465" lon="9.183401671053048"><ele>582.0</ele><time>2026-04-29T15:24:49.21Z</time></trkpt><trkpt lat="39.990424386508764" lon="9.183255358885617"><ele>582.0</ele><time>2026-04-29T15:24:50.21Z</time></trkpt><trkpt lat="39.99054935547278" lon="9.183165165658886"><ele>582.0</ele><time>2026-04-29T15:24:51.21Z</time></trkpt><trkpt lat="39.9907028878743" lon="9.183117293472154"><ele>582.0</ele><time>2026-04-29T15:24:52.21Z</time></trkpt><trkpt lat="39.99085689519608" lon="9.183054408591078"><ele>579.3333333333334</ele><time>2026-04-29T15:24:53.21Z</time></trkpt><trkpt lat="39.990995642833546" lon="9.182949422821887"><ele>576.6666666666667</ele><time>2026-04-29T15:24:54.21Z</time></trkpt><trkpt lat="39.99112589798621" lon="9.182848986950868"><ele>574.0</ele><time>2026-04-29T15:24:55.21Z</time></trkpt><trkpt lat="39.99126417303062" lon="9.182795119771978"><ele>574.0</ele><time>2026-04-29T15:24:56.21Z</time></trkpt><trkpt lat="39.99141192093022" lon="9.1828066703446"><ele>574.0</ele><time>2026-04-29T15:24:57.21Z</time></trkpt><trkpt lat="39.991541013301905" lon="9.182859124322809"><ele>574.0</ele><time>2026-04-29T15:24:58.21Z</time></trkpt><trkpt lat="39.99164311300471" lon="9.182960630115762"><ele>574.0</ele><time>2026-04-29T15:24:59.21Z</time></trkpt><trkpt lat="39.991725186564445" lon="9.183051269750433"><ele>576.8</ele><time>2026-04-29T15:25:00.21Z</time></trkpt><trkpt lat="39.991806920165715" lon="9.183135382720913"><ele>579.5999999999999</ele><time>2026-04-29T15:25:01.21Z</time></trkpt><trkpt lat="39.99189261760067" lon="9.183218357934036"><ele>582.4</ele><time>2026-04-29T15:25:02.21Z</time></trkpt><trkpt lat="39.991981207714105" lon="9.183275754788799"><ele>585.1999999999999</ele><time>2026-04-29T15:25:03.21Z</time></trkpt><trkpt lat="39.99207124623038" lon="9.183279099819423"><ele>588.0</ele><time>2026-04-29T15:25:04.21Z</time></trkpt><trkpt lat="39.992152559943584" lon="9.183208412497557"><ele>588.0</ele><time>2026-04-29T15:25:05.21Z</time></trkpt><trkpt lat="39.9921939270474" lon="9.18309439542805"><ele>588.0</ele><time>2026-04-29T15:25:06.212Z</time></trkpt><trkpt lat="39.992214930265476" lon="9.182939227083358"><ele>588.0</ele><time>2026-04-29T15:25:07.212Z</time></trkpt><trkpt lat="39.9922324113271" lon="9.182780780036602"><ele>588.0</ele><time>2026-04-29T15:25:08.212Z</time></trkpt><trkpt lat="39.99227145793083" lon="9.182614065645803"><ele>588.0</ele><time>2026-04-29T15:25:09.212Z</time></trkpt><trkpt lat="39.992317222381004" lon="9.182450429948032"><ele>588.0</ele><time>2026-04-29T15:25:10.212Z</time></trkpt><trkpt lat="39.99239721658495" lon="9.182307377237246"><ele>588.0</ele><time>2026-04-29T15:25:11.212Z</time></trkpt><trkpt lat="39.99250794514873" lon="9.182202600442636"><ele>588.0</ele><time>2026-04-29T15:25:12.212Z</time></trkpt><trkpt lat="39.99263668037422" lon="9.182116051324721"><ele>587.75</ele><time>2026-04-29T15:25:13.212Z</time></trkpt><trkpt lat="39.992759573902546" lon="9.182038996266431"><ele>587.5</ele><time>2026-04-29T15:25:14.212Z</time></trkpt><trkpt lat="39.99288358275271" lon="9.181975953234716"><ele>587.25</ele><time>2026-04-29T15:25:15.212Z</time></trkpt><trkpt lat="39.993006757397254" lon="9.181909912377357"><ele>587.0</ele><time>2026-04-29T15:25:16.212Z</time></trkpt><trkpt lat="39.99313703854322" lon="9.181849592216361"><ele>587.0</ele><time>2026-04-29T15:25:17.212Z</time></trkpt><trkpt lat="39.993280181120646" lon="9.181823318205204"><ele>587.0</ele><time>2026-04-29T15:25:18.212Z</time></trkpt><trkpt lat="39.993429708284125" lon="9.181796511988818"><ele>587.0</ele><time>2026-04-29T15:25:19.212Z</time></trkpt><trkpt lat="39.993586046327906" lon="9.181786139516847"><ele>588.6666666666666</ele><time>2026-04-29T15:25:20.212Z</time></trkpt><trkpt lat="39.99373639281875" lon="9.181774120265311"><ele>590.3333333333334</ele><time>2026-04-29T15:25:21.212Z</time></trkpt><trkpt lat="39.99388819316699" lon="9.181763817244398"><ele>592.0</ele><time>2026-04-29T15:25:22.212Z</time></trkpt><trkpt lat="39.99403848588461" lon="9.181777095457424"><ele>593.0</ele><time>2026-04-29T15:25:23.212Z</time></trkpt><trkpt lat="39.994183707370695" lon="9.181839489823398"><ele>594.0</ele><time>2026-04-29T15:25:24.212Z</time></trkpt><trkpt lat="39.994322380703224" lon="9.181937538252734"><ele>595.0</ele><time>2026-04-29T15:25:25.212Z</time></trkpt><trkpt lat="39.99446031387295" lon="9.182053598113283"><ele>595.0</ele><time>2026-04-29T15:25:26.212Z</time></trkpt><trkpt lat="39.99459582667811" lon="9.182176606019087"><ele>595.0</ele><time>2026-04-29T15:25:27.212Z</time></trkpt><trkpt lat="39.99470779009525" lon="9.182299819937732"><ele>595.0</ele><time>2026-04-29T15:25:28.212Z</time></trkpt><trkpt lat="39.994773023119336" lon="9.18243893090822"><ele>595.0</ele><time>2026-04-29T15:25:29.212Z</time></trkpt><trkpt lat="39.99481425659495" lon="9.18257896925694"><ele>597.4</ele><time>2026-04-29T15:25:30.212Z</time></trkpt><trkpt lat="39.99485975396081" lon="9.182647190507838"><ele>599.8</ele><time>2026-04-29T15:25:31.212Z</time></trkpt><trkpt lat="39.994939839381146" lon="9.18265810631735"><ele>602.2</ele><time>2026-04-29T15:25:32.212Z</time></trkpt><trkpt lat="39.99503804909333" lon="9.182595468356778"><ele>604.6</ele><time>2026-04-29T15:25:33.212Z</time></trkpt><trkpt lat="39.99510950003161" lon="9.182467628319941"><ele>607.0</ele><time>2026-04-29T15:25:34.212Z</time></trkpt><trkpt lat="39.99519487334127" lon="9.182317129714091"><ele>607.0</ele><time>2026-04-29T15:25:35.212Z</time></trkpt><trkpt lat="39.99528085747978" lon="9.182162277207953"><ele>607.0</ele><time>2026-04-29T15:25:36.212Z</time></trkpt><trkpt lat="39.995352071113324" lon="9.182003595330345"><ele>607.0</ele><time>2026-04-29T15:25:37.212Z</time></trkpt><trkpt lat="39.99539363273373" lon="9.181860494598274"><ele>607.0</ele><time>2026-04-29T15:25:38.212Z</time></trkpt><trkpt lat="39.99546320686903" lon="9.181759916999662"><ele>607.0</ele><time>2026-04-29T15:25:39.212Z</time></trkpt><trkpt lat="39.9955659330942" lon="9.181708667515492"><ele>607.0</ele><time>2026-04-29T15:25:40.212Z</time></trkpt><trkpt lat="39.99568843853087" lon="9.181717199630999"><ele>607.0</ele><time>2026-04-29T15:25:41.212Z</time></trkpt><trkpt lat="39.99580660294538" lon="9.181786732193432"><ele>607.0</ele><time>2026-04-29T15:25:42.212Z</time></trkpt><trkpt lat="39.99590834366801" lon="9.181899954386274"><ele>608.25</ele><time>2026-04-29T15:25:43.212Z</time></trkpt><trkpt lat="39.996019714308986" lon="9.181987129769121"><ele>609.5</ele><time>2026-04-29T15:25:44.212Z</time></trkpt><trkpt lat="39.99616009729271" lon="9.182015688819897"><ele>610.75</ele><time>2026-04-29T15:25:45.212Z</time></trkpt><trkpt lat="39.996311089894306" lon="9.181985574070627"><ele>612.0</ele><time>2026-04-29T15:25:46.212Z</time></trkpt><trkpt lat="39.99646224403808" lon="9.181934987773909"><ele>612.0</ele><time>2026-04-29T15:25:47.212Z</time></trkpt><trkpt lat="39.996612757614386" lon="9.181887966272715"><ele>612.0</ele><time>2026-04-29T15:25:48.212Z</time></trkpt><trkpt lat="39.99676018584151" lon="9.181845777363746"><ele>612.0</ele><time>2026-04-29T15:25:49.212Z</time></trkpt><trkpt lat="39.996892093126554" lon="9.181839829071322"><ele>612.0</ele><time>2026-04-29T15:25:50.212Z</time></trkpt><trkpt lat="39.99701124186452" lon="9.181845405619779"><ele>611.75</ele><time>2026-04-29T15:25:51.212Z</time></trkpt><trkpt lat="39.99713447381013" lon="9.181900058241682"><ele>611.5</ele><time>2026-04-29T15:25:52.212Z</time></trkpt><trkpt lat="39.99725628102381" lon="9.18197684139541"><ele>611.25</ele><time>2026-04-29T15:25:53.212Z</time></trkpt><trkpt lat="39.99737348752941" lon="9.182054863077566"><ele>611.0</ele><time>2026-04-29T15:25:54.212Z</time></trkpt><trkpt lat="39.997513796438625" lon="9.182133445406311"><ele>610.3333333333333</ele><time>2026-04-29T15:25:55.212Z</time></trkpt><trkpt lat="39.99765712253645" lon="9.182202016335447"><ele>609.6666666666666</ele><time>2026-04-29T15:25:56.212Z</time></trkpt><trkpt lat="39.997796632246605" lon="9.182268936065782"><ele>609.0</ele><time>2026-04-29T15:25:57.212Z</time></trkpt><trkpt lat="39.997941278367534" lon="9.18237565117421"><ele>615.3333333333334</ele><time>2026-04-29T15:25:58.212Z</time></trkpt><trkpt lat="39.99807356889736" lon="9.182511599918236"><ele>621.6666666666667</ele><time>2026-04-29T15:25:59.212Z</time></trkpt><trkpt lat="39.99819410338437" lon="9.182664368787336"><ele>628.0</ele><time>2026-04-29T15:26:00.212Z</time></trkpt><trkpt lat="39.99830374263792" lon="9.182799100116148"><ele>632.4</ele><time>2026-04-29T15:26:01.212Z</time></trkpt><trkpt lat="39.998393713703855" lon="9.182888572440218"><ele>636.8</ele><time>2026-04-29T15:26:02.212Z</time></trkpt><trkpt lat="39.99847630107123" lon="9.18294345423666"><ele>641.2</ele><time>2026-04-29T15:26:03.212Z</time></trkpt><trkpt lat="39.99856278244041" lon="9.182942104840407"><ele>645.6</ele><time>2026-04-29T15:26:04.212Z</time></trkpt><trkpt lat="39.99864808858427" lon="9.182874121194667"><ele>650.0</ele><time>2026-04-29T15:26:05.212Z</time></trkpt><trkpt lat="39.998728526123806" lon="9.182763617843944"><ele>650.0</ele><time>2026-04-29T15:26:06.212Z</time></trkpt><trkpt lat="39.998811103244996" lon="9.182625412856085"><ele>650.0</ele><time>2026-04-29T15:26:07.212Z</time></trkpt><trkpt lat="39.99889005560137" lon="9.182472768465784"><ele>650.0</ele><time>2026-04-29T15:26:08.212Z</time></trkpt><trkpt lat="39.99894550531283" lon="9.182295480975041"><ele>650.0</ele><time>2026-04-29T15:26:09.212Z</time></trkpt><trkpt lat="39.998969952969645" lon="9.182094022066078"><ele>649.5</ele><time>2026-04-29T15:26:10.212Z</time></trkpt><trkpt lat="39.99899572695873" lon="9.181906127537504"><ele>649.0</ele><time>2026-04-29T15:26:11.212Z</time></trkpt><trkpt lat="39.9990261279967" lon="9.181758331905534"><ele>648.5</ele><time>2026-04-29T15:26:12.212Z</time></trkpt><trkpt lat="39.99908382345377" lon="9.181635969000313"><ele>648.0</ele><time>2026-04-29T15:26:13.212Z</time></trkpt><trkpt lat="39.99916772738526" lon="9.181574648260467"><ele>648.0</ele><time>2026-04-29T15:26:14.212Z</time></trkpt><trkpt lat="39.9992918707865" lon="9.181558128915107"><ele>648.0</ele><time>2026-04-29T15:26:15.212Z</time></trkpt><trkpt lat="39.99943197648342" lon="9.181560304027922"><ele>648.0</ele><time>2026-04-29T15:26:16.212Z</time></trkpt><trkpt lat="39.99957960375713" lon="9.181545133010667"><ele>648.0</ele><time>2026-04-29T15:26:17.212Z</time></trkpt><trkpt lat="39.99973972362003" lon="9.181516921003725"><ele>640.6666666666666</ele><time>2026-04-29T15:26:18.212Z</time></trkpt><trkpt lat="39.99991143920657" lon="9.181477674241442"><ele>633.3333333333333</ele><time>2026-04-29T15:26:19.212Z</time></trkpt><trkpt lat="40.00009265854624" lon="9.181437593769854"><ele>626.0</ele><time>2026-04-29T15:26:20.212Z</time></trkpt><trkpt lat="40.00028288037429" lon="9.181403306465343"><ele>626.0</ele><time>2026-04-29T15:26:21.212Z</time></trkpt><trkpt lat="40.00047572293439" lon="9.181375577488852"><ele>626.0</ele><time>2026-04-29T15:26:22.212Z</time></trkpt><trkpt lat="40.000667001159556" lon="9.181358123971798"><ele>626.0</ele><time>2026-04-29T15:26:23.212Z</time></trkpt><trkpt lat="40.00085226648156" lon="9.181364392886442"><ele>627.5</ele><time>2026-04-29T15:26:24.212Z</time></trkpt><trkpt lat="40.00100943234089" lon="9.181388604060931"><ele>629.0</ele><time>2026-04-29T15:26:25.212Z</time></trkpt><trkpt lat="40.001144942642384" lon="9.181436059732032"><ele>630.5</ele><time>2026-04-29T15:26:26.212Z</time></trkpt><trkpt lat="40.001250790010396" lon="9.181534619890279"><ele>632.0</ele><time>2026-04-29T15:26:27.212Z</time></trkpt><trkpt lat="40.00132771641181" lon="9.181686739867935"><ele>639.0</ele><time>2026-04-29T15:26:28.212Z</time></trkpt><trkpt lat="40.00139557025591" lon="9.181861587591797"><ele>646.0</ele><time>2026-04-29T15:26:29.212Z</time></trkpt><trkpt lat="40.00147568133064" lon="9.182059663576284"><ele>653.0</ele><time>2026-04-29T15:26:30.212Z</time></trkpt><trkpt lat="40.00155444248353" lon="9.182266328649728"><ele>653.3333333333333</ele><time>2026-04-29T15:26:31.212Z</time></trkpt><trkpt lat="40.00161527342034" lon="9.182478894211958"><ele>653.6666666666666</ele><time>2026-04-29T15:26:32.212Z</time></trkpt><trkpt lat="40.00165659537333" lon="9.182668822841176"><ele>654.0</ele><time>2026-04-29T15:26:33.212Z</time></trkpt><trkpt lat="40.00167642779637" lon="9.182837782328747"><ele>654.0</ele><time>2026-04-29T15:26:34.212Z</time></trkpt><trkpt lat="40.0017275944306" lon="9.18298493452075"><ele>654.0</ele><time>2026-04-29T15:26:35.212Z</time></trkpt><trkpt lat="40.00182161226713" lon="9.18310617314866"><ele>654.0</ele><time>2026-04-29T15:26:36.212Z</time></trkpt><trkpt lat="40.00193530588757" lon="9.183154120061632"><ele>654.0</ele><time>2026-04-29T15:26:37.212Z</time></trkpt><trkpt lat="40.002057206889916" lon="9.18311857907971"><ele>654.0</ele><time>2026-04-29T15:26:38.212Z</time></trkpt><trkpt lat="40.00219668637371" lon="9.183050549872775"><ele>654.0</ele><time>2026-04-29T15:26:39.212Z</time></trkpt><trkpt lat="40.002331523621145" lon="9.18293424510039"><ele>654.0</ele><time>2026-04-29T15:26:40.212Z</time></trkpt><trkpt lat="40.00245063795511" lon="9.1827959311918"><ele>653.8000000000001</ele><time>2026-04-29T15:26:41.212Z</time></trkpt><trkpt lat="40.00253778285099" lon="9.182649675809916"><ele>653.6</ele><time>2026-04-29T15:26:42.212Z</time></trkpt><trkpt lat="40.00262031583611" lon="9.182550214360031"><ele>653.4</ele><time>2026-04-29T15:26:43.212Z</time></trkpt><trkpt lat="40.00271564977227" lon="9.182545208736247"><ele>653.2</ele><time>2026-04-29T15:26:44.212Z</time></trkpt><trkpt lat="40.00279119421966" lon="9.182620188434543"><ele>653.0</ele><time>2026-04-29T15:26:45.212Z</time></trkpt><trkpt lat="40.002831126518984" lon="9.18274446804369"><ele>653.0</ele><time>2026-04-29T15:26:46.212Z</time></trkpt><trkpt lat="40.00285538093861" lon="9.182883801718472"><ele>653.0</ele><time>2026-04-29T15:26:47.212Z</time></trkpt><trkpt lat="40.00287949875991" lon="9.183035056948171"><ele>653.0</ele><time>2026-04-29T15:26:48.212Z</time></trkpt><trkpt lat="40.00291389021485" lon="9.183212847046793"><ele>653.0</ele><time>2026-04-29T15:26:49.212Z</time></trkpt><trkpt lat="40.002961869899735" lon="9.183409826888436"><ele>659.0</ele><time>2026-04-29T15:26:50.212Z</time></trkpt><trkpt lat="40.0030197266098" lon="9.18361085691632"><ele>665.0</ele><time>2026-04-29T15:26:51.212Z</time></trkpt><trkpt lat="40.003100933431185" lon="9.183816504227508"><ele>671.0</ele><time>2026-04-29T15:26:52.212Z</time></trkpt><trkpt lat="40.00318163430311" lon="9.184003996727261"><ele>671.5</ele><time>2026-04-29T15:26:53.212Z</time></trkpt><trkpt lat="40.00325173299439" lon="9.18415864090847"><ele>672.0</ele><time>2026-04-29T15:26:54.212Z</time></trkpt><trkpt lat="40.00334393831543" lon="9.184309929838067"><ele>672.5</ele><time>2026-04-29T15:26:55.212Z</time></trkpt><trkpt lat="40.00345216481221" lon="9.184426461484632"><ele>673.0</ele><time>2026-04-29T15:26:56.212Z</time></trkpt><trkpt lat="40.00356471637902" lon="9.184520380729513"><ele>673.0</ele><time>2026-04-29T15:26:57.212Z</time></trkpt><trkpt lat="40.00366428728111" lon="9.184605183811334"><ele>673.0</ele><time>2026-04-29T15:26:58.212Z</time></trkpt><trkpt lat="40.003758117869985" lon="9.184697657820973"><ele>673.0</ele><time>2026-04-29T15:26:59.212Z</time></trkpt><trkpt lat="40.003843583743254" lon="9.184805420259968"><ele>673.0</ele><time>2026-04-29T15:27:00.212Z</time></trkpt><trkpt lat="40.003905369126564" lon="9.184930770935003"><ele>678.5</ele><time>2026-04-29T15:27:01.212Z</time></trkpt><trkpt lat="40.00395552501607" lon="9.18509821727775"><ele>684.0</ele><time>2026-04-29T15:27:02.212Z</time></trkpt><trkpt lat="40.004004983931466" lon="9.185279553436816"><ele>689.5</ele><time>2026-04-29T15:27:03.212Z</time></trkpt><trkpt lat="40.004037597566885" lon="9.18545366290836"><ele>695.0</ele><time>2026-04-29T15:27:04.212Z</time></trkpt><trkpt lat="40.00406359993188" lon="9.18562587457332"><ele>690.75</ele><time>2026-04-29T15:27:05.212Z</time></trkpt><trkpt lat="40.004092207817415" lon="9.185791962834363"><ele>686.5</ele><time>2026-04-29T15:27:06.212Z</time></trkpt><trkpt lat="40.004116042943586" lon="9.185944576039455"><ele>682.25</ele><time>2026-04-29T15:27:07.212Z</time></trkpt><trkpt lat="40.004159904567224" lon="9.18607315749525"><ele>678.0</ele><time>2026-04-29T15:27:08.212Z</time></trkpt><trkpt lat="40.00424127948073" lon="9.186186525657401"><ele>678.0</ele><time>2026-04-29T15:27:09.212Z</time></trkpt><trkpt lat="40.004348642052705" lon="9.186285009712796"><ele>678.0</ele><time>2026-04-29T15:27:10.212Z</time></trkpt><trkpt lat="40.00445337039982" lon="9.186371194013017"><ele>678.0</ele><time>2026-04-29T15:27:11.212Z</time></trkpt><trkpt lat="40.00455582383044" lon="9.186475934856409"><ele>678.0</ele><time>2026-04-29T15:27:12.213Z</time></trkpt><trkpt lat="40.00464698256447" lon="9.186598762755919"><ele>684.0</ele><time>2026-04-29T15:27:13.213Z</time></trkpt><trkpt lat="40.004727098629495" lon="9.18674561053077"><ele>690.0</ele><time>2026-04-29T15:27:14.213Z</time></trkpt><trkpt lat="40.00479574653787" lon="9.186905398998896"><ele>696.0</ele><time>2026-04-29T15:27:15.213Z</time></trkpt><trkpt lat="40.00487075629299" lon="9.18705360224556"><ele>702.0</ele><time>2026-04-29T15:27:16.213Z</time></trkpt><trkpt lat="40.00494091995553" lon="9.18719833054983"><ele>697.25</ele><time>2026-04-29T15:27:17.213Z</time></trkpt><trkpt lat="40.00500264294407" lon="9.187323832425083"><ele>692.5</ele><time>2026-04-29T15:27:18.213Z</time></trkpt><trkpt lat="40.00506046332039" lon="9.187459038409164"><ele>687.75</ele><time>2026-04-29T15:27:19.214Z</time></trkpt><trkpt lat="40.00510079918897" lon="9.187605356772734"><ele>683.0</ele><time>2026-04-29T15:27:20.214Z</time></trkpt><trkpt lat="40.005122049918505" lon="9.187773061064819"><ele>683.0</ele><time>2026-04-29T15:27:21.214Z</time></trkpt><trkpt lat="40.005119757099614" lon="9.187946710356254"><ele>683.0</ele><time>2026-04-29T15:27:22.213Z</time></trkpt><trkpt lat="40.00511783784851" lon="9.188142849439574"><ele>683.0</ele><time>2026-04-29T15:27:23.213Z</time></trkpt><trkpt lat="40.00513241691066" lon="9.188363895848914"><ele>687.0</ele><time>2026-04-29T15:27:24.213Z</time></trkpt><trkpt lat="40.00515669757664" lon="9.18862997546434"><ele>691.0</ele><time>2026-04-29T15:27:25.213Z</time></trkpt><trkpt lat="40.00517731464384" lon="9.188929785922625"><ele>695.0</ele><time>2026-04-29T15:27:26.213Z</time></trkpt><trkpt lat="40.00519639343082" lon="9.189238317829583"><ele>698.5</ele><time>2026-04-29T15:27:27.213Z</time></trkpt><trkpt lat="40.005224811945" lon="9.189557608013036"><ele>702.0</ele><time>2026-04-29T15:27:28.213Z</time></trkpt><trkpt lat="40.00525602658786" lon="9.189875057991568"><ele>704.5</ele><time>2026-04-29T15:27:29.213Z</time></trkpt><trkpt lat="40.00528644242116" lon="9.190196419268505"><ele>707.0</ele><time>2026-04-29T15:27:30.213Z</time></trkpt><trkpt lat="40.005319731174936" lon="9.190505820016165"><ele>713.5</ele><time>2026-04-29T15:27:31.213Z</time></trkpt><trkpt lat="40.005345207310114" lon="9.190802078710481"><ele>720.0</ele><time>2026-04-29T15:27:32.213Z</time></trkpt><trkpt lat="40.00537826929096" lon="9.19109055202762"><ele>720.0</ele><time>2026-04-29T15:27:33.213Z</time></trkpt><trkpt lat="40.00540110039603" lon="9.191390947262484"><ele>720.0</ele><time>2026-04-29T15:27:34.213Z</time></trkpt><trkpt lat="40.00543364530687" lon="9.19168162737217"><ele>723.6666666666666</ele><time>2026-04-29T15:27:35.213Z</time></trkpt><trkpt lat="40.00545244182002" lon="9.191970759394593"><ele>727.3333333333333</ele><time>2026-04-29T15:27:36.213Z</time></trkpt><trkpt lat="40.005475475588156" lon="9.19222932154189"><ele>731.0</ele><time>2026-04-29T15:27:37.213Z</time></trkpt><trkpt lat="40.005496934671314" lon="9.192461275660191"><ele>736.0</ele><time>2026-04-29T15:27:38.213Z</time></trkpt><trkpt lat="40.005535214423" lon="9.192675011090396"><ele>741.0</ele><time>2026-04-29T15:27:39.213Z</time></trkpt><trkpt lat="40.00558628145223" lon="9.19286173113975"><ele>746.0</ele><time>2026-04-29T15:27:40.213Z</time></trkpt><trkpt lat="40.00563433745268" lon="9.19302450201781"><ele>746.0</ele><time>2026-04-29T15:27:41.213Z</time></trkpt><trkpt lat="40.005673508844886" lon="9.193146863282122"><ele>746.0</ele><time>2026-04-29T15:27:42.213Z</time></trkpt><trkpt lat="40.00572993310689" lon="9.193221443977196"><ele>746.0</ele><time>2026-04-29T15:27:43.213Z</time></trkpt><trkpt lat="40.00579400147589" lon="9.193252242028366"><ele>746.0</ele><time>2026-04-29T15:27:44.213Z</time></trkpt><trkpt lat="40.00586658938778" lon="9.19322487103995"><ele>746.0</ele><time>2026-04-29T15:27:45.213Z</time></trkpt><trkpt lat="40.005911652848184" lon="9.19314176569335"><ele>746.0</ele><time>2026-04-29T15:27:46.213Z</time></trkpt><trkpt lat="40.005933177761406" lon="9.192999646330911"><ele>738.5</ele><time>2026-04-29T15:27:47.213Z</time></trkpt><trkpt lat="40.005939081113375" lon="9.192825844518312"><ele>731.0</ele><time>2026-04-29T15:27:48.213Z</time></trkpt><trkpt lat="40.00596273538219" lon="9.192649771371274"><ele>723.5</ele><time>2026-04-29T15:27:49.213Z</time></trkpt><trkpt lat="40.00600261197743" lon="9.192465794397902"><ele>716.0</ele><time>2026-04-29T15:27:50.213Z</time></trkpt><trkpt lat="40.00605010417313" lon="9.192260988156468"><ele>711.6666666666666</ele><time>2026-04-29T15:27:51.213Z</time></trkpt><trkpt lat="40.00609319466482" lon="9.192027927149446"><ele>707.3333333333334</ele><time>2026-04-29T15:27:52.213Z</time></trkpt><trkpt lat="40.00613677515614" lon="9.191797160817401"><ele>703.0</ele><time>2026-04-29T15:27:53.213Z</time></trkpt><trkpt lat="40.00619490441758" lon="9.19157147934633"><ele>700.3333333333334</ele><time>2026-04-29T15:27:54.213Z</time></trkpt><trkpt lat="40.00626418769726" lon="9.191344094595706"><ele>697.6666666666666</ele><time>2026-04-29T15:27:55.213Z</time></trkpt><trkpt lat="40.00632468729228" lon="9.191107169500922"><ele>695.0</ele><time>2026-04-29T15:27:56.213Z</time></trkpt><trkpt lat="40.00637504791114" lon="9.190905139294792"><ele>695.0</ele><time>2026-04-29T15:27:57.213Z</time></trkpt><trkpt lat="40.00646400730916" lon="9.190700543245784"><ele>695.0</ele><time>2026-04-29T15:27:58.213Z</time></trkpt><trkpt lat="40.00656700111547" lon="9.190506063346328"><ele>695.0</ele><time>2026-04-29T15:27:59.213Z</time></trkpt><trkpt lat="40.00666352759548" lon="9.190290561091421"><ele>696.75</ele><time>2026-04-29T15:28:00.213Z</time></trkpt><trkpt lat="40.00674726486779" lon="9.190101782411638"><ele>698.5</ele><time>2026-04-29T15:28:01.213Z</time></trkpt><trkpt lat="40.00684920630608" lon="9.18997540512529"><ele>700.25</ele><time>2026-04-29T15:28:02.213Z</time></trkpt><trkpt lat="40.00696738101106" lon="9.189902617048062"><ele>702.0</ele><time>2026-04-29T15:28:03.213Z</time></trkpt><trkpt lat="40.007009699659854" lon="9.18976740481134"><ele>702.0</ele><time>2026-04-29T15:28:04.213Z</time></trkpt><trkpt lat="40.00707533557905" lon="9.189631097991464"><ele>702.0</ele><time>2026-04-29T15:28:05.213Z</time></trkpt><trkpt lat="40.00707840582297" lon="9.189425357418665"><ele>702.0</ele><time>2026-04-29T15:28:06.213Z</time></trkpt><trkpt lat="40.00705883654935" lon="9.18923307675906"><ele>702.0</ele><time>2026-04-29T15:28:07.213Z</time></trkpt><trkpt lat="40.00704447390509" lon="9.189036677545996"><ele>698.75</ele><time>2026-04-29T15:28:08.213Z</time></trkpt><trkpt lat="40.007086243153154" lon="9.188857557267642"><ele>695.5</ele><time>2026-04-29T15:28:09.213Z</time></trkpt><trkpt lat="40.00715165213754" lon="9.1886850857651"><ele>692.25</ele><time>2026-04-29T15:28:10.213Z</time></trkpt><trkpt lat="40.007193709493066" lon="9.188491199056397"><ele>689.0</ele><time>2026-04-29T15:28:11.213Z</time></trkpt><trkpt lat="40.00725332269276" lon="9.188320513763012"><ele>689.0</ele><time>2026-04-29T15:28:12.213Z</time></trkpt><trkpt lat="40.00731895037629" lon="9.188181297177541"><ele>689.0</ele><time>2026-04-29T15:28:13.213Z</time></trkpt><trkpt lat="40.00740853780285" lon="9.188087526587628"><ele>689.0</ele><time>2026-04-29T15:28:14.213Z</time></trkpt><trkpt lat="40.0075272302854" lon="9.188022796445914"><ele>689.0</ele><time>2026-04-29T15:28:15.213Z</time></trkpt><trkpt lat="40.007660416421984" lon="9.187975761866532"><ele>694.0</ele><time>2026-04-29T15:28:16.213Z</time></trkpt><trkpt lat="40.00779269631214" lon="9.187969694525094"><ele>699.0</ele><time>2026-04-29T15:28:17.213Z</time></trkpt><trkpt lat="40.007917815689936" lon="9.18801824656799"><ele>704.0</ele><time>2026-04-29T15:28:18.213Z</time></trkpt><trkpt lat="40.00803090341955" lon="9.188078279199544"><ele>709.0</ele><time>2026-04-29T15:28:19.213Z</time></trkpt><trkpt lat="40.00812783419151" lon="9.188068180802782"><ele>709.0</ele><time>2026-04-29T15:28:20.213Z</time></trkpt><trkpt lat="40.00820376058496" lon="9.187993735849306"><ele>709.0</ele><time>2026-04-29T15:28:21.213Z</time></trkpt><trkpt lat="40.00824085127822" lon="9.187872080647029"><ele>709.0</ele><time>2026-04-29T15:28:22.213Z</time></trkpt><trkpt lat="40.00822720210771" lon="9.187729984442154"><ele>709.0</ele><time>2026-04-29T15:28:23.213Z</time></trkpt><trkpt lat="40.00819464736902" lon="9.187563287434235"><ele>709.0</ele><time>2026-04-29T15:28:24.213Z</time></trkpt><trkpt lat="40.00816288193065" lon="9.187381353416963"><ele>710.75</ele><time>2026-04-29T15:28:25.213Z</time></trkpt><trkpt lat="40.0081609889809" lon="9.187182504940935"><ele>712.5</ele><time>2026-04-29T15:28:26.213Z</time></trkpt><trkpt lat="40.008202635356064" lon="9.187016749053917"><ele>714.25</ele><time>2026-04-29T15:28:27.213Z</time></trkpt><trkpt lat="40.00826379067196" lon="9.186862890164859"><ele>716.0</ele><time>2026-04-29T15:28:28.213Z</time></trkpt><trkpt lat="40.008277845375645" lon="9.186717590757357"><ele>716.0</ele><time>2026-04-29T15:28:29.213Z</time></trkpt><trkpt lat="40.00822124064409" lon="9.18658190904795"><ele>716.0</ele><time>2026-04-29T15:28:30.213Z</time></trkpt><trkpt lat="40.008120106677666" lon="9.18647717319232"><ele>716.0</ele><time>2026-04-29T15:28:31.213Z</time></trkpt><trkpt lat="40.007982571914596" lon="9.186398253691495"><ele>716.0</ele><time>2026-04-29T15:28:32.213Z</time></trkpt><trkpt lat="40.00784230220657" lon="9.186341789174293"><ele>720.25</ele><time>2026-04-29T15:28:33.213Z</time></trkpt><trkpt lat="40.00772982961409" lon="9.186256731033838"><ele>724.5</ele><time>2026-04-29T15:28:34.213Z</time></trkpt><trkpt lat="40.007652609938546" lon="9.186139815398334"><ele>728.75</ele><time>2026-04-29T15:28:35.213Z</time></trkpt><trkpt lat="40.00762050003007" lon="9.185984347281952"><ele>733.0</ele><time>2026-04-29T15:28:36.213Z</time></trkpt><trkpt lat="40.00764319387915" lon="9.185804812479875"><ele>735.3333333333334</ele><time>2026-04-29T15:28:37.213Z</time></trkpt><trkpt lat="40.00769908074099" lon="9.185617188489985"><ele>737.6666666666666</ele><time>2026-04-29T15:28:38.213Z</time></trkpt><trkpt lat="40.007755129652274" lon="9.185429323316303"><ele>740.0</ele><time>2026-04-29T15:28:39.213Z</time></trkpt><trkpt lat="40.007752699112196" lon="9.185235572663384"><ele>740.0</ele><time>2026-04-29T15:28:40.213Z</time></trkpt><trkpt lat="40.007703833299516" lon="9.18503087844286"><ele>740.0</ele><time>2026-04-29T15:28:41.213Z</time></trkpt><trkpt lat="40.00762557709029" lon="9.18482226345972"><ele>740.0</ele><time>2026-04-29T15:28:42.213Z</time></trkpt><trkpt lat="40.00755341131396" lon="9.18461289265473"><ele>742.0</ele><time>2026-04-29T15:28:43.213Z</time></trkpt><trkpt lat="40.007482794050354" lon="9.184454284990569"><ele>744.0</ele><time>2026-04-29T15:28:44.213Z</time></trkpt><trkpt lat="40.00743773069359" lon="9.184330536377598"><ele>746.0</ele><time>2026-04-29T15:28:45.213Z</time></trkpt><trkpt lat="40.00746332795941" lon="9.184201430349763"><ele>748.0</ele><time>2026-04-29T15:28:46.213Z</time></trkpt><trkpt lat="40.007546253970716" lon="9.184090292491657"><ele>742.0</ele><time>2026-04-29T15:28:47.213Z</time></trkpt><trkpt lat="40.00766323715923" lon="9.184000460604716"><ele>736.0</ele><time>2026-04-29T15:28:48.213Z</time></trkpt><trkpt lat="40.007803447595485" lon="9.183913196740933"><ele>730.0</ele><time>2026-04-29T15:28:49.213Z</time></trkpt><trkpt lat="40.0079505332896" lon="9.183818857376396"><ele>730.0</ele><time>2026-04-29T15:28:50.213Z</time></trkpt><trkpt lat="40.00809650345542" lon="9.183741496086496"><ele>730.0</ele><time>2026-04-29T15:28:51.213Z</time></trkpt><trkpt lat="40.008271779200214" lon="9.183641037230844"><ele>730.0</ele><time>2026-04-29T15:28:52.213Z</time></trkpt><trkpt lat="40.00843262775043" lon="9.183553153751339"><ele>736.0</ele><time>2026-04-29T15:28:53.213Z</time></trkpt><trkpt lat="40.00859600895158" lon="9.183430486867687"><ele>742.0</ele><time>2026-04-29T15:28:54.213Z</time></trkpt><trkpt lat="40.008730674659894" lon="9.183351541336227"><ele>748.0</ele><time>2026-04-29T15:28:55.213Z</time></trkpt><trkpt lat="40.00887126148601" lon="9.183326570452277"><ele>748.0</ele><time>2026-04-29T15:28:56.213Z</time></trkpt><trkpt lat="40.00902754872298" lon="9.183312664693934"><ele>748.0</ele><time>2026-04-29T15:28:57.213Z</time></trkpt><trkpt lat="40.009194760562664" lon="9.183337774923594"><ele>748.0</ele><time>2026-04-29T15:28:58.213Z</time></trkpt><trkpt lat="40.009366115028946" lon="9.183384544165655"><ele>751.6666666666667</ele><time>2026-04-29T15:28:59.213Z</time></trkpt><trkpt lat="40.00952873440453" lon="9.183435303642884"><ele>755.3333333333334</ele><time>2026-04-29T15:29:00.213Z</time></trkpt><trkpt lat="40.009672236206654" lon="9.183429614597097"><ele>759.0</ele><time>2026-04-29T15:29:01.213Z</time></trkpt><trkpt lat="40.00980756837975" lon="9.183371045719772"><ele>759.0</ele><time>2026-04-29T15:29:02.213Z</time></trkpt><trkpt lat="40.009947273978135" lon="9.183275974572092"><ele>759.0</ele><time>2026-04-29T15:29:03.213Z</time></trkpt><trkpt lat="40.010093545591886" lon="9.183185232933774"><ele>759.0</ele><time>2026-04-29T15:29:04.213Z</time></trkpt><trkpt lat="40.010252730368855" lon="9.18310319339001"><ele>751.6666666666666</ele><time>2026-04-29T15:29:05.213Z</time></trkpt><trkpt lat="40.0104218447407" lon="9.183032414221623"><ele>744.3333333333333</ele><time>2026-04-29T15:29:06.213Z</time></trkpt><trkpt lat="40.01058294256058" lon="9.182966058667658"><ele>737.0</ele><time>2026-04-29T15:29:07.213Z</time></trkpt><trkpt lat="40.010732083960626" lon="9.182918161413463"><ele>741.6666666666666</ele><time>2026-04-29T15:29:08.213Z</time></trkpt><trkpt lat="40.010883511413105" lon="9.18292076873475"><ele>746.3333333333334</ele><time>2026-04-29T15:29:09.213Z</time></trkpt><trkpt lat="40.011046861514636" lon="9.182962823193366"><ele>751.0</ele><time>2026-04-29T15:29:10.213Z</time></trkpt><trkpt lat="40.01121756748962" lon="9.183005373954526"><ele>751.0</ele><time>2026-04-29T15:29:11.213Z</time></trkpt><trkpt lat="40.0113984749798" lon="9.183046303532693"><ele>751.0</ele><time>2026-04-29T15:29:12.213Z</time></trkpt><trkpt lat="40.01157820151589" lon="9.183085886239443"><ele>751.0</ele><time>2026-04-29T15:29:13.213Z</time></trkpt><trkpt lat="40.01176566585034" lon="9.183136144458546"><ele>761.3333333333334</ele><time>2026-04-29T15:29:14.213Z</time></trkpt><trkpt lat="40.01194054711255" lon="9.183191445262903"><ele>771.6666666666667</ele><time>2026-04-29T15:29:15.213Z</time></trkpt><trkpt lat="40.01209526070601" lon="9.183265584593547"><ele>782.0</ele><time>2026-04-29T15:29:16.213Z</time></trkpt><trkpt lat="40.01221433832448" lon="9.183383758626688"><ele>782.0</ele><time>2026-04-29T15:29:17.213Z</time></trkpt><trkpt lat="40.012315960360596" lon="9.183489839603492"><ele>782.0</ele><time>2026-04-29T15:29:18.215Z</time></trkpt><trkpt lat="40.012441097549896" lon="9.183541328209039"><ele>782.0</ele><time>2026-04-29T15:29:19.214Z</time></trkpt><trkpt lat="40.012577133907186" lon="9.18354593336871"><ele>782.0</ele><time>2026-04-29T15:29:20.214Z</time></trkpt><trkpt lat="40.01272533687881" lon="9.18349359373061"><ele>781.0</ele><time>2026-04-29T15:29:21.214Z</time></trkpt><trkpt lat="40.01286174275387" lon="9.18337330848769"><ele>780.0</ele><time>2026-04-29T15:29:22.214Z</time></trkpt><trkpt lat="40.01298880225845" lon="9.18329111705414"><ele>779.0</ele><time>2026-04-29T15:29:23.214Z</time></trkpt><trkpt lat="40.013113113577035" lon="9.183304559262268"><ele>778.0</ele><time>2026-04-29T15:29:24.214Z</time></trkpt><trkpt lat="40.01322108787717" lon="9.183409271470051"><ele>778.0</ele><time>2026-04-29T15:29:25.215Z</time></trkpt><trkpt lat="40.01330906913783" lon="9.183568637032446"><ele>778.0</ele><time>2026-04-29T15:29:26.215Z</time></trkpt><trkpt lat="40.013402024273034" lon="9.183701131123215"><ele>778.0</ele><time>2026-04-29T15:29:27.215Z</time></trkpt><trkpt lat="40.01350219464025" lon="9.183762405528006"><ele>778.0</ele><time>2026-04-29T15:29:28.214Z</time></trkpt><trkpt lat="40.01361032683385" lon="9.183730153844431"><ele>779.25</ele><time>2026-04-29T15:29:29.214Z</time></trkpt><trkpt lat="40.0136901342908" lon="9.183619293032331"><ele>780.5</ele><time>2026-04-29T15:29:30.215Z</time></trkpt><trkpt lat="40.01374843541152" lon="9.183452924912139"><ele>781.75</ele><time>2026-04-29T15:29:31.215Z</time></trkpt><trkpt lat="40.01379865993093" lon="9.183273966781053"><ele>783.0</ele><time>2026-04-29T15:29:32.215Z</time></trkpt><trkpt lat="40.01385661922573" lon="9.183103256050424"><ele>779.75</ele><time>2026-04-29T15:29:33.215Z</time></trkpt><trkpt lat="40.01393585737038" lon="9.182956950616228"><ele>776.5</ele><time>2026-04-29T15:29:34.215Z</time></trkpt><trkpt lat="40.014057720698425" lon="9.182882335223855"><ele>773.25</ele><time>2026-04-29T15:29:35.215Z</time></trkpt><trkpt lat="40.01420354460045" lon="9.182869233978753"><ele>770.0</ele><time>2026-04-29T15:29:36.215Z</time></trkpt><trkpt lat="40.01436254848347" lon="9.182899868728096"><ele>770.0</ele><time>2026-04-29T15:29:37.215Z</time></trkpt><trkpt lat="40.014527199968974" lon="9.182942953975237"><ele>770.0</ele><time>2026-04-29T15:29:38.215Z</time></trkpt><trkpt lat="40.0147052192997" lon="9.182985803602708"><ele>770.0</ele><time>2026-04-29T15:29:39.215Z</time></trkpt><trkpt lat="40.01489071789817" lon="9.183028059063643"><ele>772.6666666666667</ele><time>2026-04-29T15:29:40.215Z</time></trkpt><trkpt lat="40.015082625304856" lon="9.18307087346384"><ele>775.3333333333333</ele><time>2026-04-29T15:29:41.215Z</time></trkpt><trkpt lat="40.01525996984976" lon="9.183126799743427"><ele>778.0</ele><time>2026-04-29T15:29:42.215Z</time></trkpt><trkpt lat="40.01540372994574" lon="9.183191271779162"><ele>778.0</ele><time>2026-04-29T15:29:43.215Z</time></trkpt><trkpt lat="40.015525573407366" lon="9.183242435701112"><ele>778.0</ele><time>2026-04-29T15:29:44.215Z</time></trkpt><trkpt lat="40.01565308150116" lon="9.18320930147298"><ele>778.0</ele><time>2026-04-29T15:29:45.215Z</time></trkpt><trkpt lat="40.01575578024707" lon="9.183107752503725"><ele>778.0</ele><time>2026-04-29T15:29:46.215Z</time></trkpt><trkpt lat="40.015800662538794" lon="9.18295631887858"><ele>778.0</ele><time>2026-04-29T15:29:47.215Z</time></trkpt><trkpt lat="40.01578686030414" lon="9.182801521071658"><ele>778.0</ele><time>2026-04-29T15:29:48.215Z</time></trkpt><trkpt lat="40.015720837502975" lon="9.182657361722475"><ele>778.0</ele><time>2026-04-29T15:29:49.215Z</time></trkpt><trkpt lat="40.01566504509138" lon="9.182480775713731"><ele>778.0</ele><time>2026-04-29T15:29:50.215Z</time></trkpt><trkpt lat="40.01569518708376" lon="9.182346442743887"><ele>780.5</ele><time>2026-04-29T15:29:51.214Z</time></trkpt><trkpt lat="40.015789179573964" lon="9.182236003123208"><ele>783.0</ele><time>2026-04-29T15:29:52.214Z</time></trkpt><trkpt lat="40.015909125437716" lon="9.18212061942017"><ele>785.5</ele><time>2026-04-29T15:29:53.214Z</time></trkpt><trkpt lat="40.01602056550761" lon="9.181983613259746"><ele>788.0</ele><time>2026-04-29T15:29:54.214Z</time></trkpt><trkpt lat="40.01608454758953" lon="9.181810957095315"><ele>788.0</ele><time>2026-04-29T15:29:55.214Z</time></trkpt><trkpt lat="40.01617573128362" lon="9.181696240089309"><ele>788.0</ele><time>2026-04-29T15:29:56.214Z</time></trkpt><trkpt lat="40.016313764293145" lon="9.181677983632948"><ele>788.0</ele><time>2026-04-29T15:29:57.214Z</time></trkpt><trkpt lat="40.016470421302024" lon="9.181685052113394"><ele>788.0</ele><time>2026-04-29T15:29:58.214Z</time></trkpt><trkpt lat="40.01663262813403" lon="9.181692261753543"><ele>793.0</ele><time>2026-04-29T15:29:59.214Z</time></trkpt><trkpt lat="40.01681389833482" lon="9.181680193443535"><ele>798.0</ele><time>2026-04-29T15:30:00.214Z</time></trkpt><trkpt lat="40.01700898112371" lon="9.181679351489805"><ele>803.0</ele><time>2026-04-29T15:30:01.214Z</time></trkpt><trkpt lat="40.01720936645289" lon="9.18167023818213"><ele>803.0</ele><time>2026-04-29T15:30:02.214Z</time></trkpt><trkpt lat="40.01740855646302" lon="9.181673153714886"><ele>803.0</ele><time>2026-04-29T15:30:03.214Z</time></trkpt><trkpt lat="40.01758338439055" lon="9.181684020960107"><ele>803.0</ele><time>2026-04-29T15:30:04.214Z</time></trkpt><trkpt lat="40.01772323466702" lon="9.181745070174369"><ele>803.25</ele><time>2026-04-29T15:30:05.214Z</time></trkpt><trkpt lat="40.01783347666834" lon="9.18186867208157"><ele>803.5</ele><time>2026-04-29T15:30:06.214Z</time></trkpt><trkpt lat="40.01791736868121" lon="9.182038021701745"><ele>803.75</ele><time>2026-04-29T15:30:07.214Z</time></trkpt><trkpt lat="40.018025056267014" lon="9.182162529558369"><ele>804.0</ele><time>2026-04-29T15:30:08.214Z</time></trkpt><trkpt lat="40.018150417463765" lon="9.182198958021775"><ele>804.0</ele><time>2026-04-29T15:30:09.214Z</time></trkpt><trkpt lat="40.01827282313049" lon="9.182166237640367"><ele>804.0</ele><time>2026-04-29T15:30:10.214Z</time></trkpt><trkpt lat="40.018395859882126" lon="9.182112394824816"><ele>804.0</ele><time>2026-04-29T15:30:11.214Z</time></trkpt><trkpt lat="40.018509356039885" lon="9.182130855536164"><ele>804.0</ele><time>2026-04-29T15:30:12.214Z</time></trkpt><trkpt lat="40.018608714859965" lon="9.182201507074355"><ele>802.5</ele><time>2026-04-29T15:30:13.214Z</time></trkpt><trkpt lat="40.01869521898999" lon="9.182294563730553"><ele>801.0</ele><time>2026-04-29T15:30:14.214Z</time></trkpt><trkpt lat="40.018789002955664" lon="9.18237067204272"><ele>799.5</ele><time>2026-04-29T15:30:15.214Z</time></trkpt><trkpt lat="40.018911893211914" lon="9.182403881246517"><ele>798.0</ele><time>2026-04-29T15:30:16.214Z</time></trkpt><trkpt lat="40.0190488504058" lon="9.18242482787743"><ele>806.0</ele><time>2026-04-29T15:30:17.214Z</time></trkpt><trkpt lat="40.0192016423908" lon="9.182470609218358"><ele>814.0</ele><time>2026-04-29T15:30:18.214Z</time></trkpt><trkpt lat="40.019370299372156" lon="9.182516106945364"><ele>822.0</ele><time>2026-04-29T15:30:19.214Z</time></trkpt><trkpt lat="40.01954993181129" lon="9.182550418694746"><ele>822.0</ele><time>2026-04-29T15:30:20.214Z</time></trkpt><trkpt lat="40.019732844509946" lon="9.182564992689194"><ele>822.0</ele><time>2026-04-29T15:30:21.214Z</time></trkpt><trkpt lat="40.019908663498086" lon="9.182574303456018"><ele>822.0</ele><time>2026-04-29T15:30:22.214Z</time></trkpt><trkpt lat="40.020075830141145" lon="9.182608001640892"><ele>820.3333333333333</ele><time>2026-04-29T15:30:23.214Z</time></trkpt><trkpt lat="40.02022778436357" lon="9.182700706472147"><ele>818.6666666666666</ele><time>2026-04-29T15:30:24.214Z</time></trkpt><trkpt lat="40.020349196999454" lon="9.182847679234673"><ele>817.0</ele><time>2026-04-29T15:30:25.214Z</time></trkpt><trkpt lat="40.02046744964645" lon="9.183018657326722"><ele>820.25</ele><time>2026-04-29T15:30:26.214Z</time></trkpt><trkpt lat="40.020556719541325" lon="9.183191706110232"><ele>823.5</ele><time>2026-04-29T15:30:27.214Z</time></trkpt><trkpt lat="40.02062387299842" lon="9.183350810336565"><ele>826.75</ele><time>2026-04-29T15:30:28.214Z</time></trkpt><trkpt lat="40.02073095059271" lon="9.183460315828745"><ele>830.0</ele><time>2026-04-29T15:30:29.214Z</time></trkpt><trkpt lat="40.020861935604486" lon="9.1834822630683"><ele>830.0</ele><time>2026-04-29T15:30:30.214Z</time></trkpt><trkpt lat="40.02099683032262" lon="9.183415007658112"><ele>830.0</ele><time>2026-04-29T15:30:31.214Z</time></trkpt><trkpt lat="40.021134340802696" lon="9.183318416486046"><ele>830.0</ele><time>2026-04-29T15:30:32.214Z</time></trkpt><trkpt lat="40.02128746246383" lon="9.183270788466407"><ele>830.0</ele><time>2026-04-29T15:30:33.214Z</time></trkpt><trkpt lat="40.021453856653466" lon="9.183307841989505"><ele>830.0</ele><time>2026-04-29T15:30:34.214Z</time></trkpt><trkpt lat="40.02161401935624" lon="9.18340472979081"><ele>830.0</ele><time>2026-04-29T15:30:35.214Z</time></trkpt><trkpt lat="40.02173837553211" lon="9.183485960206658"><ele>831.75</ele><time>2026-04-29T15:30:36.214Z</time></trkpt><trkpt lat="40.02186838830659" lon="9.183443236954908"><ele>833.5</ele><time>2026-04-29T15:30:37.214Z</time></trkpt><trkpt lat="40.02197284417449" lon="9.183317405762434"><ele>835.25</ele><time>2026-04-29T15:30:38.214Z</time></trkpt><trkpt lat="40.02202922246929" lon="9.183127825884428"><ele>837.0</ele><time>2026-04-29T15:30:39.214Z</time></trkpt><trkpt lat="40.02203349892833" lon="9.182903000012093"><ele>832.25</ele><time>2026-04-29T15:30:40.214Z</time></trkpt><trkpt lat="40.02203004241667" lon="9.182693226672452"><ele>827.5</ele><time>2026-04-29T15:30:41.214Z</time></trkpt><trkpt lat="40.02202248867646" lon="9.182537487989672"><ele>822.75</ele><time>2026-04-29T15:30:42.214Z</time></trkpt><trkpt lat="40.02208647662989" lon="9.182408231661507"><ele>818.0</ele><time>2026-04-29T15:30:43.214Z</time></trkpt><trkpt lat="40.02218900970635" lon="9.182327430716875"><ele>814.5</ele><time>2026-04-29T15:30:44.214Z</time></trkpt><trkpt lat="40.02231044147839" lon="9.182249352196166"><ele>811.0</ele><time>2026-04-29T15:30:45.214Z</time></trkpt><trkpt lat="40.02240804632982" lon="9.182105680585392"><ele>807.5</ele><time>2026-04-29T15:30:46.214Z</time></trkpt><trkpt lat="40.0224875287099" lon="9.181922865327435"><ele>804.0</ele><time>2026-04-29T15:30:47.214Z</time></trkpt><trkpt lat="40.022533157444094" lon="9.181718121308913"><ele>810.6666666666667</ele><time>2026-04-29T15:30:48.214Z</time></trkpt><trkpt lat="40.02258987191836" lon="9.181517691208178"><ele>817.3333333333334</ele><time>2026-04-29T15:30:49.214Z</time></trkpt><trkpt lat="40.02271327198817" lon="9.181357029095627"><ele>824.0</ele><time>2026-04-29T15:30:50.214Z</time></trkpt><trkpt lat="40.02286857005374" lon="9.181233861060443"><ele>824.0</ele><time>2026-04-29T15:30:51.214Z</time></trkpt><trkpt lat="40.02301711062729" lon="9.181109741829117"><ele>824.0</ele><time>2026-04-29T15:30:52.214Z</time></trkpt><trkpt lat="40.023136793090586" lon="9.180941338665859"><ele>824.0</ele><time>2026-04-29T15:30:53.214Z</time></trkpt><trkpt lat="40.02323955402045" lon="9.180743070913884"><ele>830.3333333333334</ele><time>2026-04-29T15:30:54.214Z</time></trkpt><trkpt lat="40.023327136896164" lon="9.180521108002946"><ele>836.6666666666667</ele><time>2026-04-29T15:30:55.214Z</time></trkpt><trkpt lat="40.023431744396596" lon="9.18031105274673"><ele>843.0</ele><time>2026-04-29T15:30:56.214Z</time></trkpt><trkpt lat="40.02354184313762" lon="9.180128644054761"><ele>843.0</ele><time>2026-04-29T15:30:57.214Z</time></trkpt><trkpt lat="40.023651709571006" lon="9.179974264040093"><ele>843.0</ele><time>2026-04-29T15:30:58.214Z</time></trkpt><trkpt lat="40.023756261013915" lon="9.179824287797587"><ele>843.0</ele><time>2026-04-29T15:30:59.214Z</time></trkpt><trkpt lat="40.02382357266907" lon="9.179652381300734"><ele>840.5</ele><time>2026-04-29T15:31:00.214Z</time></trkpt><trkpt lat="40.02385023838485" lon="9.17946268465422"><ele>838.0</ele><time>2026-04-29T15:31:01.214Z</time></trkpt><trkpt lat="40.02386855726076" lon="9.17927455876709"><ele>835.5</ele><time>2026-04-29T15:31:02.214Z</time></trkpt><trkpt lat="40.02390129100913" lon="9.179090436378493"><ele>833.0</ele><time>2026-04-29T15:31:03.214Z</time></trkpt><trkpt lat="40.023934137131235" lon="9.178898153638684"><ele>830.3333333333334</ele><time>2026-04-29T15:31:04.214Z</time></trkpt><trkpt lat="40.02398495579791" lon="9.17872075554816"><ele>827.6666666666667</ele><time>2026-04-29T15:31:05.214Z</time></trkpt><trkpt lat="40.024041723704414" lon="9.178538608697512"><ele>825.0</ele><time>2026-04-29T15:31:06.214Z</time></trkpt><trkpt lat="40.02410070332103" lon="9.178346804024502"><ele>832.5</ele><time>2026-04-29T15:31:07.214Z</time></trkpt><trkpt lat="40.024165759404596" lon="9.178164602422719"><ele>840.0</ele><time>2026-04-29T15:31:08.214Z</time></trkpt><trkpt lat="40.024223300042124" lon="9.178003075002207"><ele>847.5</ele><time>2026-04-29T15:31:09.214Z</time></trkpt><trkpt lat="40.02427426767476" lon="9.17784875351443"><ele>855.0</ele><time>2026-04-29T15:31:10.214Z</time></trkpt><trkpt lat="40.024326762624995" lon="9.177711940350846"><ele>855.0</ele><time>2026-04-29T15:31:11.214Z</time></trkpt><trkpt lat="40.02437866256814" lon="9.1775889216242"><ele>855.0</ele><time>2026-04-29T15:31:12.214Z</time></trkpt><trkpt lat="40.024420343900566" lon="9.177465705641444"><ele>855.0</ele><time>2026-04-29T15:31:13.214Z</time></trkpt><trkpt lat="40.02445925182159" lon="9.17733119738189"><ele>855.0</ele><time>2026-04-29T15:31:14.214Z</time></trkpt><trkpt lat="40.02450039062048" lon="9.177200719609443"><ele>855.0</ele><time>2026-04-29T15:31:15.214Z</time></trkpt><trkpt lat="40.02456073967368" lon="9.17707995468193"><ele>853.5</ele><time>2026-04-29T15:31:16.214Z</time></trkpt><trkpt lat="40.024633465335526" lon="9.176964414254426"><ele>852.0</ele><time>2026-04-29T15:31:17.214Z</time></trkpt><trkpt lat="40.02472763355013" lon="9.176872985148238"><ele>850.5</ele><time>2026-04-29T15:31:18.214Z</time></trkpt><trkpt lat="40.02482644896029" lon="9.176784258446464"><ele>849.0</ele><time>2026-04-29T15:31:19.214Z</time></trkpt><trkpt lat="40.02490478139724" lon="9.176670992543512"><ele>849.0</ele><time>2026-04-29T15:31:20.214Z</time></trkpt><trkpt lat="40.024960234645086" lon="9.176526074541796"><ele>849.0</ele><time>2026-04-29T15:31:21.214Z</time></trkpt><trkpt lat="40.02499184927428" lon="9.17636340660405"><ele>849.0</ele><time>2026-04-29T15:31:22.214Z</time></trkpt><trkpt lat="40.025008853862396" lon="9.176193423270025"><ele>849.0</ele><time>2026-04-29T15:31:23.214Z</time></trkpt><trkpt lat="40.02502527833779" lon="9.176016735642598"><ele>854.75</ele><time>2026-04-29T15:31:24.216Z</time></trkpt><trkpt lat="40.025045126589305" lon="9.175843711805152"><ele>860.5</ele><time>2026-04-29T15:31:25.215Z</time></trkpt><trkpt lat="40.02507198905591" lon="9.175672731570103"><ele>866.25</ele><time>2026-04-29T15:31:26.215Z</time></trkpt><trkpt lat="40.0250953629131" lon="9.17551833725927"><ele>872.0</ele><time>2026-04-29T15:31:27.216Z</time></trkpt><trkpt lat="40.02511905004479" lon="9.17537425169606"><ele>872.0</ele><time>2026-04-29T15:31:28.216Z</time></trkpt><trkpt lat="40.02514839344429" lon="9.175241569436855"><ele>872.0</ele><time>2026-04-29T15:31:29.216Z</time></trkpt><trkpt lat="40.02519062497266" lon="9.175127778106939"><ele>872.0</ele><time>2026-04-29T15:31:30.216Z</time></trkpt><trkpt lat="40.025221197052375" lon="9.17501938374082"><ele>872.0</ele><time>2026-04-29T15:31:31.216Z</time></trkpt><trkpt lat="40.0252255215562" lon="9.174903701143336"><ele>872.0</ele><time>2026-04-29T15:31:32.216Z</time></trkpt><trkpt lat="40.0251876390927" lon="9.174795585835255"><ele>871.8</ele><time>2026-04-29T15:31:33.215Z</time></trkpt><trkpt lat="40.02512068740081" lon="9.174709340498575"><ele>871.6</ele><time>2026-04-29T15:31:34.216Z</time></trkpt><trkpt lat="40.0250359362249" lon="9.174643567569682"><ele>871.3999999999999</ele><time>2026-04-29T15:31:35.216Z</time></trkpt><trkpt lat="40.0249469962423" lon="9.17458202749483"><ele>871.1999999999999</ele><time>2026-04-29T15:31:36.215Z</time></trkpt><trkpt lat="40.024866006096616" lon="9.174514873819946"><ele>871.0</ele><time>2026-04-29T15:31:37.216Z</time></trkpt><trkpt lat="40.024774993408165" lon="9.174456482196124"><ele>871.0</ele><time>2026-04-29T15:31:38.216Z</time></trkpt><trkpt lat="40.02468828465025" lon="9.174383988760702"><ele>870.9999999999999</ele><time>2026-04-29T15:31:39.216Z</time></trkpt><trkpt lat="40.02460345622508" lon="9.17430320480459"><ele>870.9999999999999</ele><time>2026-04-29T15:31:40.216Z</time></trkpt><trkpt lat="40.024508140583016" lon="9.174237387509494"><ele>871.0</ele><time>2026-04-29T15:31:41.216Z</time></trkpt><trkpt lat="40.024412025086626" lon="9.17418359026908"><ele>871.0</ele><time>2026-04-29T15:31:42.216Z</time></trkpt><trkpt lat="40.024326678448794" lon="9.174110504377472"><ele>874.5999999999999</ele><time>2026-04-29T15:31:43.216Z</time></trkpt><trkpt lat="40.02427434412094" lon="9.174007356543068"><ele>878.1999999999999</ele><time>2026-04-29T15:31:44.216Z</time></trkpt><trkpt lat="40.024255902552376" lon="9.173887686694059"><ele>881.8000000000001</ele><time>2026-04-29T15:31:45.216Z</time></trkpt><trkpt lat="40.0242816660324" lon="9.173767372670548"><ele>885.4000000000001</ele><time>2026-04-29T15:31:46.216Z</time></trkpt><trkpt lat="40.02430375944935" lon="9.173644774809926"><ele>889.0</ele><time>2026-04-29T15:31:47.216Z</time></trkpt><trkpt lat="40.024289458157796" lon="9.173536906941939"><ele>888.9999999999999</ele><time>2026-04-29T15:31:48.216Z</time></trkpt><trkpt lat="40.02425065884466" lon="9.173439250684265"><ele>889.0</ele><time>2026-04-29T15:31:49.216Z</time></trkpt><trkpt lat="40.02419930760523" lon="9.17335669552473"><ele>889.0</ele><time>2026-04-29T15:31:50.216Z</time></trkpt><trkpt lat="40.024124611452436" lon="9.17330786731378"><ele>889.0</ele><time>2026-04-29T15:31:51.216Z</time></trkpt><trkpt lat="40.024043114358385" lon="9.173266421109883"><ele>888.9999999999999</ele><time>2026-04-29T15:31:52.216Z</time></trkpt><trkpt lat="40.02396686904405" lon="9.173204714940155"><ele>889.0</ele><time>2026-04-29T15:31:53.216Z</time></trkpt><trkpt lat="40.02393727947461" lon="9.173130068137311"><ele>888.8000000000001</ele><time>2026-04-29T15:31:54.216Z</time></trkpt><trkpt lat="40.023966721432686" lon="9.172983033822256"><ele>888.6000000000001</ele><time>2026-04-29T15:31:56.216Z</time></trkpt><trkpt lat="40.024018544319595" lon="9.17288712775603"><ele>888.4</ele><time>2026-04-29T15:31:57.215Z</time></trkpt><trkpt lat="40.02407639667973" lon="9.172792653628075"><ele>888.2</ele><time>2026-04-29T15:31:58.215Z</time></trkpt><trkpt lat="40.024129397387995" lon="9.17271578633316"><ele>888.0</ele><time>2026-04-29T15:31:59.215Z</time></trkpt><trkpt lat="40.02419532161483" lon="9.172631096044269"><ele>888.0</ele><time>2026-04-29T15:32:00.215Z</time></trkpt><trkpt lat="40.02425042806007" lon="9.172540663456573"><ele>888.0</ele><time>2026-04-29T15:32:01.215Z</time></trkpt><trkpt lat="40.02431126188419" lon="9.172458338678416"><ele>888.0</ele><time>2026-04-29T15:32:02.215Z</time></trkpt><trkpt lat="40.02436639833489" lon="9.172370422430133"><ele>888.0</ele><time>2026-04-29T15:32:03.215Z</time></trkpt><trkpt lat="40.024415630215934" lon="9.172284831768472"><ele>888.0</ele><time>2026-04-29T15:32:04.215Z</time></trkpt><trkpt lat="40.0244364817547" lon="9.172201065929764"><ele>888.0</ele><time>2026-04-29T15:32:05.215Z</time></trkpt><trkpt lat="40.02442114479192" lon="9.172111289984834"><ele>887.8333333333334</ele><time>2026-04-29T15:32:06.215Z</time></trkpt><trkpt lat="40.02437677039222" lon="9.172016166063747"><ele>887.6666666666667</ele><time>2026-04-29T15:32:07.215Z</time></trkpt><trkpt lat="40.0243212191729" lon="9.17195186763754"><ele>887.5</ele><time>2026-04-29T15:32:08.215Z</time></trkpt><trkpt lat="40.024261981918" lon="9.171911165294462"><ele>887.3333333333334</ele><time>2026-04-29T15:32:09.215Z</time></trkpt><trkpt lat="40.024152198523495" lon="9.17182790071681"><ele>887.1666666666667</ele><time>2026-04-29T15:32:11.215Z</time></trkpt><trkpt lat="40.02409170860085" lon="9.171788401250893"><ele>887.0</ele><time>2026-04-29T15:32:12.215Z</time></trkpt><trkpt lat="40.0240280832155" lon="9.171743089851487"><ele>887.0000000000001</ele><time>2026-04-29T15:32:13.215Z</time></trkpt><trkpt lat="40.02397331795477" lon="9.17168856156257"><ele>887.0</ele><time>2026-04-29T15:32:14.215Z</time></trkpt><trkpt lat="40.02393108417737" lon="9.171615947911622"><ele>887.0</ele><time>2026-04-29T15:32:15.215Z</time></trkpt><trkpt lat="40.02392138940638" lon="9.171466346588128"><ele>887.0</ele><time>2026-04-29T15:32:17.215Z</time></trkpt><trkpt lat="40.02394662516017" lon="9.171328488803681"><ele>887.0000000000001</ele><time>2026-04-29T15:32:19.215Z</time></trkpt><trkpt lat="40.02398204864514" lon="9.171232935582298"><ele>887.0</ele><time>2026-04-29T15:32:21.215Z</time></trkpt><trkpt lat="40.02402648407446" lon="9.171118889575709"><ele>887.6666666666667</ele><time>2026-04-29T15:32:23.215Z</time></trkpt><trkpt lat="40.02407372651953" lon="9.171020837992256"><ele>888.3333333333334</ele><time>2026-04-29T15:32:25.215Z</time></trkpt><trkpt lat="40.024114468183186" lon="9.170947382424487"><ele>889.0</ele><time>2026-04-29T15:32:27.215Z</time></trkpt><trkpt lat="40.02416558659299" lon="9.170872637279269"><ele>889.6666666666667</ele><time>2026-04-29T15:32:29.215Z</time></trkpt><trkpt lat="40.02418953011608" lon="9.170764553162938"><ele>890.3333333333334</ele><time>2026-04-29T15:32:32.215Z</time></trkpt><trkpt lat="40.02417937815283" lon="9.170627686968333"><ele>891.0</ele><time>2026-04-29T15:32:38.215Z</time></trkpt><trkpt lat="40.02413198083604" lon="9.170479235734668"><ele>891.1666666666666</ele><time>2026-04-29T15:32:40.215Z</time></trkpt><trkpt lat="40.02410524390897" lon="9.170392114786125"><ele>891.3333333333333</ele><time>2026-04-29T15:32:41.215Z</time></trkpt><trkpt lat="40.02406820861474" lon="9.170296182016191"><ele>891.5</ele><time>2026-04-29T15:32:42.215Z</time></trkpt><trkpt lat="40.024031200868734" lon="9.170189000222505"><ele>891.6666666666666</ele><time>2026-04-29T15:32:43.215Z</time></trkpt><trkpt lat="40.02399427566311" lon="9.170073531566318"><ele>891.8333333333333</ele><time>2026-04-29T15:32:44.215Z</time></trkpt><trkpt lat="40.02395423770651" lon="9.169947760013175"><ele>892.0</ele><time>2026-04-29T15:32:45.215Z</time></trkpt><trkpt lat="40.02391346758524" lon="9.169815409634834"><ele>891.4000000000001</ele><time>2026-04-29T15:32:46.215Z</time></trkpt><trkpt lat="40.023868286832666" lon="9.169702262164389"><ele>890.8000000000001</ele><time>2026-04-29T15:32:47.215Z</time></trkpt><trkpt lat="40.023836024948615" lon="9.169581206275051"><ele>890.2</ele><time>2026-04-29T15:32:48.215Z</time></trkpt><trkpt lat="40.023804100222414" lon="9.169464146180172"><ele>889.6</ele><time>2026-04-29T15:32:49.215Z</time></trkpt><trkpt lat="40.02377508896792" lon="9.16934986202035"><ele>889.0</ele><time>2026-04-29T15:32:50.215Z</time></trkpt><trkpt lat="40.02376195929531" lon="9.169223738359987"><ele>888.9999999999999</ele><time>2026-04-29T15:32:51.215Z</time></trkpt><trkpt lat="40.023766702639804" lon="9.169109285127853"><ele>889.0</ele><time>2026-04-29T15:32:52.215Z</time></trkpt><trkpt lat="40.023783459600004" lon="9.168997993121016"><ele>889.0</ele><time>2026-04-29T15:32:53.215Z</time></trkpt><trkpt lat="40.02381062334235" lon="9.168899525768706"><ele>889.0</ele><time>2026-04-29T15:32:54.215Z</time></trkpt><trkpt lat="40.023856706280895" lon="9.168769224200657"><ele>888.9999999999999</ele><time>2026-04-29T15:32:56.215Z</time></trkpt><trkpt lat="40.023900690980774" lon="9.168675701767905"><ele>889.0</ele><time>2026-04-29T15:32:58.215Z</time></trkpt><trkpt lat="40.02395304997748" lon="9.168588022798533"><ele>889.3333333333333</ele><time>2026-04-29T15:33:00.215Z</time></trkpt><trkpt lat="40.02398638388814" lon="9.168517411238646"><ele>889.6666666666666</ele><time>2026-04-29T15:33:01.215Z</time></trkpt><trkpt lat="40.02402953359496" lon="9.16843332669414"><ele>890.0</ele><time>2026-04-29T15:33:02.215Z</time></trkpt><trkpt lat="40.02407521704152" lon="9.168335158295397"><ele>890.3333333333333</ele><time>2026-04-29T15:33:03.215Z</time></trkpt><trkpt lat="40.02411693221086" lon="9.168222346535494"><ele>890.6666666666666</ele><time>2026-04-29T15:33:04.215Z</time></trkpt><trkpt lat="40.02413799211316" lon="9.1681005647567"><ele>891.0</ele><time>2026-04-29T15:33:05.215Z</time></trkpt><trkpt lat="40.024139841041325" lon="9.167977733836816"><ele>890.0</ele><time>2026-04-29T15:33:06.215Z</time></trkpt><trkpt lat="40.02411616827767" lon="9.167861545973533"><ele>888.9999999999999</ele><time>2026-04-29T15:33:07.215Z</time></trkpt><trkpt lat="40.02405465800097" lon="9.167762941614107"><ele>887.9999999999999</ele><time>2026-04-29T15:33:08.215Z</time></trkpt><trkpt lat="40.023970114805344" lon="9.167685017370706"><ele>887.0</ele><time>2026-04-29T15:33:09.215Z</time></trkpt><trkpt lat="40.023871909568015" lon="9.167607964357295"><ele>886.0</ele><time>2026-04-29T15:33:10.215Z</time></trkpt><trkpt lat="40.02377263040986" lon="9.167527765222516"><ele>886.0</ele><time>2026-04-29T15:33:11.215Z</time></trkpt><trkpt lat="40.02367214762392" lon="9.167434767448999"><ele>886.0</ele><time>2026-04-29T15:33:12.215Z</time></trkpt><trkpt lat="40.023567924274325" lon="9.167348004122763"><ele>886.0</ele><time>2026-04-29T15:33:13.215Z</time></trkpt><trkpt lat="40.023461619866765" lon="9.167249013782138"><ele>886.0</ele><time>2026-04-29T15:33:14.215Z</time></trkpt><trkpt lat="40.02335320884738" lon="9.16715126154474"><ele>884.75</ele><time>2026-04-29T15:33:15.215Z</time></trkpt><trkpt lat="40.02324107631884" lon="9.167047134171842"><ele>883.5</ele><time>2026-04-29T15:33:16.215Z</time></trkpt><trkpt lat="40.0231252453274" lon="9.166948767976251"><ele>882.25</ele><time>2026-04-29T15:33:17.215Z</time></trkpt><trkpt lat="40.023014801209364" lon="9.166839031293668"><ele>881.0</ele><time>2026-04-29T15:33:18.215Z</time></trkpt><trkpt lat="40.02289997168551" lon="9.166756027055085"><ele>881.0</ele><time>2026-04-29T15:33:19.215Z</time></trkpt><trkpt lat="40.02278617981634" lon="9.166687262331548"><ele>881.0</ele><time>2026-04-29T15:33:20.215Z</time></trkpt><trkpt lat="40.02267057143096" lon="9.166629435321983"><ele>881.0</ele><time>2026-04-29T15:33:21.215Z</time></trkpt><trkpt lat="40.02257005260128" lon="9.166565670052298"><ele>881.0</ele><time>2026-04-29T15:33:22.215Z</time></trkpt><trkpt lat="40.02248499266694" lon="9.16648291869176"><ele>882.4</ele><time>2026-04-29T15:33:23.215Z</time></trkpt><trkpt lat="40.02241731343793" lon="9.166381581391603"><ele>883.8</ele><time>2026-04-29T15:33:24.215Z</time></trkpt><trkpt lat="40.02238446590202" lon="9.166256789803896"><ele>885.1999999999999</ele><time>2026-04-29T15:33:25.215Z</time></trkpt><trkpt lat="40.0223853247574" lon="9.16613247649723"><ele>886.5999999999999</ele><time>2026-04-29T15:33:26.215Z</time></trkpt><trkpt lat="40.022429402490104" lon="9.16601176558421"><ele>888.0</ele><time>2026-04-29T15:33:27.215Z</time></trkpt><trkpt lat="40.02249783975169" lon="9.165904885815713"><ele>887.0</ele><time>2026-04-29T15:33:28.215Z</time></trkpt><trkpt lat="40.02257286316868" lon="9.165798581210264"><ele>886.0</ele><time>2026-04-29T15:33:29.215Z</time></trkpt><trkpt lat="40.02264093226384" lon="9.165683477796838"><ele>885.0</ele><time>2026-04-29T15:33:30.217Z</time></trkpt><trkpt lat="40.02270494861704" lon="9.165579195398209"><ele>884.0</ele><time>2026-04-29T15:33:31.217Z</time></trkpt><trkpt lat="40.02276896564478" lon="9.16548922930707"><ele>883.0</ele><time>2026-04-29T15:33:32.217Z</time></trkpt><trkpt lat="40.02283983472469" lon="9.165414429316938"><ele>882.9999999999999</ele><time>2026-04-29T15:33:33.217Z</time></trkpt><trkpt lat="40.02292454633587" lon="9.165384847469172"><ele>883.0</ele><time>2026-04-29T15:33:34.217Z</time></trkpt><trkpt lat="40.02300210176878" lon="9.165418048910224"><ele>883.0</ele><time>2026-04-29T15:33:35.217Z</time></trkpt><trkpt lat="40.02305764861153" lon="9.165495405532672"><ele>883.0</ele><time>2026-04-29T15:33:36.217Z</time></trkpt><trkpt lat="40.02309533913759" lon="9.165604806101381"><ele>882.9999999999999</ele><time>2026-04-29T15:33:37.217Z</time></trkpt><trkpt lat="40.02314927551103" lon="9.165721035355222"><ele>883.0</ele><time>2026-04-29T15:33:38.217Z</time></trkpt><trkpt lat="40.02322213989885" lon="9.165805187003468"><ele>879.2</ele><time>2026-04-29T15:33:39.217Z</time></trkpt><trkpt lat="40.02331724811441" lon="9.165859582935282"><ele>875.4</ele><time>2026-04-29T15:33:40.217Z</time></trkpt><trkpt lat="40.023424629421015" lon="9.165869862343067"><ele>871.6000000000001</ele><time>2026-04-29T15:33:41.216Z</time></trkpt><trkpt lat="40.02353975141293" lon="9.165844865760738"><ele>867.8000000000001</ele><time>2026-04-29T15:33:42.217Z</time></trkpt><trkpt lat="40.023653253959225" lon="9.16583695797102"><ele>864.0</ele><time>2026-04-29T15:33:43.217Z</time></trkpt><trkpt lat="40.02376609937568" lon="9.165883036667545"><ele>864.0</ele><time>2026-04-29T15:33:44.217Z</time></trkpt><trkpt lat="40.023874962876995" lon="9.16596344230484"><ele>864.0</ele><time>2026-04-29T15:33:45.217Z</time></trkpt><trkpt lat="40.02397355600284" lon="9.166067136467662"><ele>864.0</ele><time>2026-04-29T15:33:46.217Z</time></trkpt><trkpt lat="40.02408984181096" lon="9.166144073310596"><ele>864.0</ele><time>2026-04-29T15:33:47.217Z</time></trkpt><trkpt lat="40.024221452520464" lon="9.16618210951376"><ele>863.6666666666667</ele><time>2026-04-29T15:33:48.217Z</time></trkpt><trkpt lat="40.02436455730763" lon="9.166205165896216"><ele>863.3333333333334</ele><time>2026-04-29T15:33:49.217Z</time></trkpt><trkpt lat="40.02451887915928" lon="9.166222141787003"><ele>863.0</ele><time>2026-04-29T15:33:50.217Z</time></trkpt><trkpt lat="40.02467078477703" lon="9.16622870968915"><ele>863.0</ele><time>2026-04-29T15:33:51.217Z</time></trkpt><trkpt lat="40.02482714880027" lon="9.166210231008407"><ele>863.0</ele><time>2026-04-29T15:33:52.217Z</time></trkpt><trkpt lat="40.02498264477988" lon="9.16618336444565"><ele>863.0</ele><time>2026-04-29T15:33:53.217Z</time></trkpt><trkpt lat="40.02513705501042" lon="9.166169425497213"><ele>862.0</ele><time>2026-04-29T15:33:54.217Z</time></trkpt><trkpt lat="40.02529136126242" lon="9.166157320033482"><ele>861.0</ele><time>2026-04-29T15:33:55.217Z</time></trkpt><trkpt lat="40.0254476417091" lon="9.166137059724738"><ele>860.0</ele><time>2026-04-29T15:33:56.217Z</time></trkpt><trkpt lat="40.02560655996233" lon="9.166089161377752"><ele>860.0</ele><time>2026-04-29T15:33:57.217Z</time></trkpt><trkpt lat="40.02575197267685" lon="9.166013615053888"><ele>860.0</ele><time>2026-04-29T15:33:58.217Z</time></trkpt><trkpt lat="40.02588871209393" lon="9.16591443840443"><ele>860.0</ele><time>2026-04-29T15:33:59.217Z</time></trkpt><trkpt lat="40.026029980028085" lon="9.165832440307929"><ele>858.0</ele><time>2026-04-29T15:34:00.217Z</time></trkpt><trkpt lat="40.026184603777615" lon="9.16579197434044"><ele>856.0</ele><time>2026-04-29T15:34:01.217Z</time></trkpt><trkpt lat="40.02634405412939" lon="9.16577433991515"><ele>854.0</ele><time>2026-04-29T15:34:02.217Z</time></trkpt><trkpt lat="40.02650325005126" lon="9.165767991158617"><ele>854.25</ele><time>2026-04-29T15:34:03.217Z</time></trkpt><trkpt lat="40.02665326351843" lon="9.16574193447077"><ele>854.5</ele><time>2026-04-29T15:34:04.217Z</time></trkpt><trkpt lat="40.02678917135022" lon="9.165659637818841"><ele>854.75</ele><time>2026-04-29T15:34:05.217Z</time></trkpt><trkpt lat="40.02690672100819" lon="9.165545380296399"><ele>855.0</ele><time>2026-04-29T15:34:06.217Z</time></trkpt><trkpt lat="40.0270208621084" lon="9.165436204626427"><ele>855.0</ele><time>2026-04-29T15:34:07.217Z</time></trkpt><trkpt lat="40.02715022563805" lon="9.165372006876167"><ele>855.0</ele><time>2026-04-29T15:34:08.217Z</time></trkpt><trkpt lat="40.027279058579154" lon="9.16536626307487"><ele>855.0</ele><time>2026-04-29T15:34:09.217Z</time></trkpt><trkpt lat="40.0274121051214" lon="9.16540338524246"><ele>855.0</ele><time>2026-04-29T15:34:10.217Z</time></trkpt><trkpt lat="40.027553144220356" lon="9.165456933909207"><ele>854.25</ele><time>2026-04-29T15:34:11.217Z</time></trkpt><trkpt lat="40.02769265182729" lon="9.165510086932597"><ele>853.5</ele><time>2026-04-29T15:34:12.217Z</time></trkpt><trkpt lat="40.0278295661348" lon="9.165557792391066"><ele>852.75</ele><time>2026-04-29T15:34:13.217Z</time></trkpt><trkpt lat="40.02796946274884" lon="9.165581601229238"><ele>852.0</ele><time>2026-04-29T15:34:14.217Z</time></trkpt><trkpt lat="40.02810249465908" lon="9.165553648479008"><ele>852.0</ele><time>2026-04-29T15:34:15.217Z</time></trkpt><trkpt lat="40.028219116272865" lon="9.165469731817355"><ele>852.0</ele><time>2026-04-29T15:34:16.217Z</time></trkpt><trkpt lat="40.02830528811731" lon="9.165341744980935"><ele>852.0</ele><time>2026-04-29T15:34:17.217Z</time></trkpt><trkpt lat="40.02835612978862" lon="9.165163782368618"><ele>852.0</ele><time>2026-04-29T15:34:18.217Z</time></trkpt><trkpt lat="40.02838281704401" lon="9.16495975496282"><ele>844.6666666666667</ele><time>2026-04-29T15:34:19.217Z</time></trkpt><trkpt lat="40.028402726367176" lon="9.164753678784942"><ele>837.3333333333334</ele><time>2026-04-29T15:34:20.217Z</time></trkpt><trkpt lat="40.02839538253442" lon="9.16456210543697"><ele>830.0</ele><time>2026-04-29T15:34:21.217Z</time></trkpt><trkpt lat="40.028343459573826" lon="9.164364576809408"><ele>831.75</ele><time>2026-04-29T15:34:22.217Z</time></trkpt><trkpt lat="40.02827980923984" lon="9.164167062160843"><ele>833.5</ele><time>2026-04-29T15:34:23.217Z</time></trkpt><trkpt lat="40.02823860365856" lon="9.163977750965012"><ele>835.25</ele><time>2026-04-29T15:34:24.217Z</time></trkpt><trkpt lat="40.028197817981194" lon="9.163810363794394"><ele>837.0</ele><time>2026-04-29T15:34:25.217Z</time></trkpt><trkpt lat="40.028128204270345" lon="9.163663548209907"><ele>837.0</ele><time>2026-04-29T15:34:26.217Z</time></trkpt><trkpt lat="40.02801215475949" lon="9.163561114299805"><ele>837.0</ele><time>2026-04-29T15:34:27.217Z</time></trkpt><trkpt lat="40.02786963360918" lon="9.16348867465867"><ele>837.0</ele><time>2026-04-29T15:34:28.217Z</time></trkpt><trkpt lat="40.02774047872168" lon="9.163377576809735"><ele>837.0</ele><time>2026-04-29T15:34:29.217Z</time></trkpt><trkpt lat="40.02764197130743" lon="9.163206163967027"><ele>832.6666666666667</ele><time>2026-04-29T15:34:30.217Z</time></trkpt><trkpt lat="40.027556705691495" lon="9.163004609478133"><ele>828.3333333333334</ele><time>2026-04-29T15:34:31.217Z</time></trkpt><trkpt lat="40.02748387977312" lon="9.162827337487109"><ele>824.0</ele><time>2026-04-29T15:34:32.217Z</time></trkpt><trkpt lat="40.02738530153711" lon="9.162697591218308"><ele>824.0</ele><time>2026-04-29T15:34:33.217Z</time></trkpt><trkpt lat="40.02726243111563" lon="9.162630825245062"><ele>824.0</ele><time>2026-04-29T15:34:34.217Z</time></trkpt><trkpt lat="40.02711981044809" lon="9.162600848613172"><ele>824.0</ele><time>2026-04-29T15:34:35.217Z</time></trkpt><trkpt lat="40.02695903758936" lon="9.162546818205875"><ele>824.0</ele><time>2026-04-29T15:34:36.217Z</time></trkpt><trkpt lat="40.02677457265091" lon="9.16248677375403"><ele>827.6666666666667</ele><time>2026-04-29T15:34:37.217Z</time></trkpt><trkpt lat="40.026588714727374" lon="9.1624420605478"><ele>831.3333333333333</ele><time>2026-04-29T15:34:38.217Z</time></trkpt><trkpt lat="40.02640543320809" lon="9.162411769596513"><ele>835.0</ele><time>2026-04-29T15:34:39.217Z</time></trkpt><trkpt lat="40.026241816404514" lon="9.162397131455005"><ele>835.0</ele><time>2026-04-29T15:34:40.217Z</time></trkpt><trkpt lat="40.0261104298559" lon="9.162376500796702"><ele>835.0</ele><time>2026-04-29T15:34:41.217Z</time></trkpt><trkpt lat="40.02600936794325" lon="9.16232259481278"><ele>835.0</ele><time>2026-04-29T15:34:42.217Z</time></trkpt><trkpt lat="40.025950283257" lon="9.162216839684387"><ele>835.0</ele><time>2026-04-29T15:34:43.217Z</time></trkpt><trkpt lat="40.025956844532466" lon="9.162094512518093"><ele>835.0</ele><time>2026-04-29T15:34:44.217Z</time></trkpt><trkpt lat="40.026021988311996" lon="9.16197253999968"><ele>832.0</ele><time>2026-04-29T15:34:45.217Z</time></trkpt><trkpt lat="40.02611310392346" lon="9.161862058468973"><ele>829.0</ele><time>2026-04-29T15:34:46.217Z</time></trkpt><trkpt lat="40.02622065840996" lon="9.161764844651627"><ele>826.0</ele><time>2026-04-29T15:34:47.217Z</time></trkpt><trkpt lat="40.026364336267875" lon="9.161713347651208"><ele>823.0</ele><time>2026-04-29T15:34:48.217Z</time></trkpt><trkpt lat="40.02651722970788" lon="9.161698629182407"><ele>822.6666666666666</ele><time>2026-04-29T15:34:49.217Z</time></trkpt><trkpt lat="40.02667769717122" lon="9.161716203204842"><ele>822.3333333333333</ele><time>2026-04-29T15:34:50.217Z</time></trkpt><trkpt lat="40.02683341530533" lon="9.16177730967155"><ele>822.0</ele><time>2026-04-29T15:34:51.217Z</time></trkpt><trkpt lat="40.026973267141116" lon="9.161878421577933"><ele>822.0</ele><time>2026-04-29T15:34:52.217Z</time></trkpt><trkpt lat="40.02710201965415" lon="9.16193057556974"><ele>822.0</ele><time>2026-04-29T15:34:53.217Z</time></trkpt><trkpt lat="40.02723304044621" lon="9.161928998351906"><ele>822.0</ele><time>2026-04-29T15:34:54.217Z</time></trkpt><trkpt lat="40.02737687819408" lon="9.161905990291348"><ele>822.0</ele><time>2026-04-29T15:34:55.217Z</time></trkpt><trkpt lat="40.02752678162876" lon="9.161954529749691"><ele>823.3333333333333</ele><time>2026-04-29T15:34:56.217Z</time></trkpt><trkpt lat="40.02765687105663" lon="9.162049365860653"><ele>824.6666666666666</ele><time>2026-04-29T15:34:57.217Z</time></trkpt><trkpt lat="40.02777524722123" lon="9.162191220497393"><ele>826.0</ele><time>2026-04-29T15:34:58.217Z</time></trkpt><trkpt lat="40.02787228921918" lon="9.162341674501352"><ele>824.0</ele><time>2026-04-29T15:34:59.217Z</time></trkpt><trkpt lat="40.02798957792549" lon="9.162471774304265"><ele>822.0</ele><time>2026-04-29T15:35:00.217Z</time></trkpt><trkpt lat="40.0281296373464" lon="9.162548818895273"><ele>820.0</ele><time>2026-04-29T15:35:01.217Z</time></trkpt><trkpt lat="40.02827751331429" lon="9.162593780820842"><ele>818.0</ele><time>2026-04-29T15:35:02.217Z</time></trkpt><trkpt lat="40.02841546608986" lon="9.162574889288752"><ele>816.0</ele><time>2026-04-29T15:35:03.217Z</time></trkpt><trkpt lat="40.028565583847865" lon="9.162508222696703"><ele>814.0</ele><time>2026-04-29T15:35:04.217Z</time></trkpt><trkpt lat="40.02872246740557" lon="9.162408926745321"><ele>822.5</ele><time>2026-04-29T15:35:05.217Z</time></trkpt><trkpt lat="40.02887270400005" lon="9.162322366608104"><ele>831.0</ele><time>2026-04-29T15:35:06.217Z</time></trkpt><trkpt lat="40.02910546325091" lon="9.162083139148296"><ele>828.75</ele><time>2026-04-29T15:35:08.217Z</time></trkpt><trkpt lat="40.02919538642434" lon="9.161896545831887"><ele>826.5</ele><time>2026-04-29T15:35:09.217Z</time></trkpt><trkpt lat="40.02927110894623" lon="9.161734762922526"><ele>824.25</ele><time>2026-04-29T15:35:10.217Z</time></trkpt><trkpt lat="40.02935028295141" lon="9.161595958803112"><ele>822.0</ele><time>2026-04-29T15:35:11.217Z</time></trkpt><trkpt lat="40.02946815912839" lon="9.16152140655621"><ele>822.0</ele><time>2026-04-29T15:35:12.217Z</time></trkpt><trkpt lat="40.02962188086654" lon="9.161508296119997"><ele>822.0</ele><time>2026-04-29T15:35:13.217Z</time></trkpt><trkpt lat="40.029782348093654" lon="9.161545942237616"><ele>822.0</ele><time>2026-04-29T15:35:14.217Z</time></trkpt><trkpt lat="40.02993211926937" lon="9.161648652590713"><ele>818.3333333333333</ele><time>2026-04-29T15:35:15.217Z</time></trkpt><trkpt lat="40.030069548406104" lon="9.161749449895199"><ele>814.6666666666666</ele><time>2026-04-29T15:35:16.217Z</time></trkpt><trkpt lat="40.03021417015325" lon="9.16177246533598"><ele>811.0</ele><time>2026-04-29T15:35:17.217Z</time></trkpt><trkpt lat="40.03036040875844" lon="9.161749684142766"><ele>811.0</ele><time>2026-04-29T15:35:18.217Z</time></trkpt><trkpt lat="40.0305096417684" lon="9.161725713465012"><ele>811.0</ele><time>2026-04-29T15:35:19.217Z</time></trkpt><trkpt lat="40.030656358766535" lon="9.161743501381093"><ele>811.0</ele><time>2026-04-29T15:35:20.217Z</time></trkpt><trkpt lat="40.03079850672309" lon="9.161802760636483"><ele>811.0</ele><time>2026-04-29T15:35:21.217Z</time></trkpt><trkpt lat="40.03093347182375" lon="9.16189221548206"><ele>812.25</ele><time>2026-04-29T15:35:22.217Z</time></trkpt><trkpt lat="40.03105920088151" lon="9.161997083419212"><ele>813.5</ele><time>2026-04-29T15:35:23.217Z</time></trkpt><trkpt lat="40.03115187440593" lon="9.162129243898562"><ele>814.75</ele><time>2026-04-29T15:35:24.217Z</time></trkpt><trkpt lat="40.03124523224654" lon="9.1622478319715"><ele>816.0</ele><time>2026-04-29T15:35:25.217Z</time></trkpt><trkpt lat="40.03135990144452" lon="9.162311493508719"><ele>816.0</ele><time>2026-04-29T15:35:26.217Z</time></trkpt><trkpt lat="40.03148754235291" lon="9.162316504925125"><ele>816.0</ele><time>2026-04-29T15:35:27.217Z</time></trkpt><trkpt lat="40.03162638053093" lon="9.162317152340496"><ele>816.0</ele><time>2026-04-29T15:35:28.217Z</time></trkpt><trkpt lat="40.03176433928973" lon="9.162315303597197"><ele>816.0</ele><time>2026-04-29T15:35:29.217Z</time></trkpt><trkpt lat="40.03190044891469" lon="9.162314370524639"><ele>818.0</ele><time>2026-04-29T15:35:30.217Z</time></trkpt><trkpt lat="40.03202564674425" lon="9.162320520224768"><ele>820.0</ele><time>2026-04-29T15:35:31.217Z</time></trkpt><trkpt lat="40.032134918351815" lon="9.162307994468305"><ele>822.0</ele><time>2026-04-29T15:35:32.217Z</time></trkpt><trkpt lat="40.0322345846719" lon="9.16227194013657"><ele>824.0</ele><time>2026-04-29T15:35:33.217Z</time></trkpt><trkpt lat="40.032317040077054" lon="9.16224524841171"><ele>826.0</ele><time>2026-04-29T15:35:34.217Z</time></trkpt><trkpt lat="40.03239904610218" lon="9.162273458455505"><ele>823.1999999999999</ele><time>2026-04-29T15:35:35.217Z</time></trkpt><trkpt lat="40.03247821103387" lon="9.162324176128537"><ele>820.4</ele><time>2026-04-29T15:35:36.218Z</time></trkpt><trkpt lat="40.03254759130382" lon="9.162433679761747"><ele>817.6</ele><time>2026-04-29T15:35:37.218Z</time></trkpt><trkpt lat="40.03261033884755" lon="9.162539068177056"><ele>814.8</ele><time>2026-04-29T15:35:38.218Z</time></trkpt><trkpt lat="40.03269154372149" lon="9.162643506209516"><ele>812.0</ele><time>2026-04-29T15:35:39.219Z</time></trkpt><trkpt lat="40.03279980644603" lon="9.162695338131243"><ele>812.0</ele><time>2026-04-29T15:35:40.218Z</time></trkpt><trkpt lat="40.03291824789547" lon="9.162685138630723"><ele>812.0</ele><time>2026-04-29T15:35:41.218Z</time></trkpt><trkpt lat="40.03303785583445" lon="9.162606926344646"><ele>812.0</ele><time>2026-04-29T15:35:42.218Z</time></trkpt><trkpt lat="40.03313308711731" lon="9.162472507597615"><ele>812.0</ele><time>2026-04-29T15:35:43.219Z</time></trkpt><trkpt lat="40.03321601233648" lon="9.162302027964895"><ele>812.0</ele><time>2026-04-29T15:35:44.219Z</time></trkpt><trkpt lat="40.03327811293843" lon="9.162101369876073"><ele>812.0</ele><time>2026-04-29T15:35:45.219Z</time></trkpt><trkpt lat="40.03338363079134" lon="9.161926140835751"><ele>812.0</ele><time>2026-04-29T15:35:46.218Z</time></trkpt><trkpt lat="40.03351208936106" lon="9.16176967419137"><ele>808.0</ele><time>2026-04-29T15:35:47.218Z</time></trkpt><trkpt lat="40.033656604531465" lon="9.161649960292877"><ele>804.0</ele><time>2026-04-29T15:35:48.219Z</time></trkpt><trkpt lat="40.03382879755655" lon="9.161580519275267"><ele>800.0</ele><time>2026-04-29T15:35:49.218Z</time></trkpt><trkpt lat="40.03404690936185" lon="9.161535133195226"><ele>802.5</ele><time>2026-04-29T15:35:50.218Z</time></trkpt><trkpt lat="40.03427323033185" lon="9.16142038388214"><ele>805.0</ele><time>2026-04-29T15:35:51.218Z</time></trkpt><trkpt lat="40.034519203420274" lon="9.161284487272212"><ele>805.0</ele><time>2026-04-29T15:35:52.218Z</time></trkpt><trkpt lat="40.03476873319662" lon="9.161119584525991"><ele>805.0</ele><time>2026-04-29T15:35:53.218Z</time></trkpt><trkpt lat="40.035024013333555" lon="9.160951439561762"><ele>804.0</ele><time>2026-04-29T15:35:54.218Z</time></trkpt><trkpt lat="40.035262341734786" lon="9.160801543551417"><ele>803.0</ele><time>2026-04-29T15:35:55.218Z</time></trkpt><trkpt lat="40.03547262651448" lon="9.160637458750038"><ele>801.3333333333334</ele><time>2026-04-29T15:35:56.218Z</time></trkpt><trkpt lat="40.035655607415286" lon="9.160455570882833"><ele>799.6666666666667</ele><time>2026-04-29T15:35:57.218Z</time></trkpt><trkpt lat="40.035818967056656" lon="9.160324766358949"><ele>798.0</ele><time>2026-04-29T15:35:58.218Z</time></trkpt><trkpt lat="40.03598888894986" lon="9.160267898039491"><ele>796.0</ele><time>2026-04-29T15:35:59.218Z</time></trkpt><trkpt lat="40.0361630221307" lon="9.16027038725847"><ele>794.0</ele><time>2026-04-29T15:36:00.218Z</time></trkpt><trkpt lat="40.036326062989" lon="9.160284487359645"><ele>792.0</ele><time>2026-04-29T15:36:01.218Z</time></trkpt><trkpt lat="40.03646093193472" lon="9.160316076539955"><ele>792.0</ele><time>2026-04-29T15:36:02.218Z</time></trkpt><trkpt lat="40.03656492918714" lon="9.160379015004315"><ele>792.0</ele><time>2026-04-29T15:36:03.218Z</time></trkpt><trkpt lat="40.03664623753335" lon="9.160467526616724"><ele>792.0</ele><time>2026-04-29T15:36:04.218Z</time></trkpt><trkpt lat="40.036706751198366" lon="9.16055291216982"><ele>792.0</ele><time>2026-04-29T15:36:05.218Z</time></trkpt><trkpt lat="40.036772753888386" lon="9.160605197106598"><ele>792.0</ele><time>2026-04-29T15:36:06.218Z</time></trkpt><trkpt lat="40.03684495281452" lon="9.160595167879572"><ele>792.2</ele><time>2026-04-29T15:36:07.218Z</time></trkpt><trkpt lat="40.03690768594969" lon="9.160519128703774"><ele>792.4000000000001</ele><time>2026-04-29T15:36:08.218Z</time></trkpt><trkpt lat="40.03696182473055" lon="9.160429434791823"><ele>792.5999999999999</ele><time>2026-04-29T15:36:09.218Z</time></trkpt><trkpt lat="40.03704119782495" lon="9.160334823795967"><ele>792.8</ele><time>2026-04-29T15:36:10.218Z</time></trkpt><trkpt lat="40.03711962230928" lon="9.16023332581994"><ele>793.0</ele><time>2026-04-29T15:36:11.218Z</time></trkpt><trkpt lat="40.03719983457158" lon="9.160110821688322"><ele>793.0</ele><time>2026-04-29T15:36:12.218Z</time></trkpt><trkpt lat="40.037276277756185" lon="9.159993982827771"><ele>793.0</ele><time>2026-04-29T15:36:13.218Z</time></trkpt><trkpt lat="40.03736147796557" lon="9.159878619129653"><ele>793.0</ele><time>2026-04-29T15:36:14.218Z</time></trkpt><trkpt lat="40.03747135903628" lon="9.159797204735863"><ele>793.0</ele><time>2026-04-29T15:36:15.218Z</time></trkpt><trkpt lat="40.037600520271766" lon="9.159759119258732"><ele>789.3333333333333</ele><time>2026-04-29T15:36:16.218Z</time></trkpt><trkpt lat="40.03773150078903" lon="9.159729462573036"><ele>785.6666666666667</ele><time>2026-04-29T15:36:17.218Z</time></trkpt><trkpt lat="40.037852300716324" lon="9.159617312544778"><ele>782.0</ele><time>2026-04-29T15:36:18.218Z</time></trkpt><trkpt lat="40.03799763861245" lon="9.159424018345156"><ele>782.0</ele><time>2026-04-29T15:36:19.218Z</time></trkpt><trkpt lat="40.03820234909396" lon="9.159234469101046"><ele>782.0</ele><time>2026-04-29T15:36:20.218Z</time></trkpt><trkpt lat="40.038428735853984" lon="9.159035222208077"><ele>778.0</ele><time>2026-04-29T15:36:21.218Z</time></trkpt><trkpt lat="40.03863121137294" lon="9.158856153801018"><ele>774.0</ele><time>2026-04-29T15:36:22.218Z</time></trkpt><trkpt lat="40.0388135392462" lon="9.158681810826096"><ele>774.0</ele><time>2026-04-29T15:36:23.218Z</time></trkpt><trkpt lat="40.03897837241895" lon="9.158472087812823"><ele>774.0</ele><time>2026-04-29T15:36:24.218Z</time></trkpt><trkpt lat="40.03911916624365" lon="9.158216175612266"><ele>774.6666666666667</ele><time>2026-04-29T15:36:25.218Z</time></trkpt><trkpt lat="40.03923702999855" lon="9.157963612652186"><ele>775.3333333333334</ele><time>2026-04-29T15:36:26.218Z</time></trkpt><trkpt lat="40.039327685713104" lon="9.157717842936618"><ele>776.0</ele><time>2026-04-29T15:36:27.218Z</time></trkpt><trkpt lat="40.039394735392506" lon="9.15748628012226"><ele>772.6666666666667</ele><time>2026-04-29T15:36:28.218Z</time></trkpt><trkpt lat="40.03948732059128" lon="9.157295247951124"><ele>769.3333333333334</ele><time>2026-04-29T15:36:29.218Z</time></trkpt><trkpt lat="40.0396366392104" lon="9.157125808249852"><ele>766.0</ele><time>2026-04-29T15:36:30.218Z</time></trkpt><trkpt lat="40.03982843602863" lon="9.156980433456756"><ele>768.3333333333334</ele><time>2026-04-29T15:36:31.218Z</time></trkpt><trkpt lat="40.04003135213654" lon="9.1568267052872"><ele>770.6666666666667</ele><time>2026-04-29T15:36:32.218Z</time></trkpt><trkpt lat="40.04019364813714" lon="9.156684522780502"><ele>773.0</ele><time>2026-04-29T15:36:33.218Z</time></trkpt><trkpt lat="40.04032113469994" lon="9.15658012806005"><ele>773.0</ele><time>2026-04-29T15:36:34.218Z</time></trkpt><trkpt lat="40.04043292196865" lon="9.156565369438765"><ele>773.0</ele><time>2026-04-29T15:36:35.218Z</time></trkpt><trkpt lat="40.04057122627582" lon="9.15664869439175"><ele>773.0</ele><time>2026-04-29T15:36:36.218Z</time></trkpt><trkpt lat="40.04074043371091" lon="9.156813444904056"><ele>772.0</ele><time>2026-04-29T15:36:37.218Z</time></trkpt><trkpt lat="40.04093005049698" lon="9.15697034330585"><ele>771.0</ele><time>2026-04-29T15:36:38.218Z</time></trkpt><trkpt lat="40.041153343604556" lon="9.15714794641196"><ele>771.0</ele><time>2026-04-29T15:36:39.218Z</time></trkpt><trkpt lat="40.04135895527559" lon="9.157307901059202"><ele>771.0</ele><time>2026-04-29T15:36:40.218Z</time></trkpt><trkpt lat="40.04150311552739" lon="9.157477626837219"><ele>771.0</ele><time>2026-04-29T15:36:41.218Z</time></trkpt><trkpt lat="40.04159070170564" lon="9.15766153241275"><ele>779.6666666666667</ele><time>2026-04-29T15:36:42.218Z</time></trkpt><trkpt lat="40.041611063790754" lon="9.157896070625384"><ele>788.3333333333334</ele><time>2026-04-29T15:36:43.218Z</time></trkpt><trkpt lat="40.041575801072" lon="9.158152979180583"><ele>797.0</ele><time>2026-04-29T15:36:44.218Z</time></trkpt><trkpt lat="40.04145607542516" lon="9.158398912240571"><ele>801.25</ele><time>2026-04-29T15:36:45.218Z</time></trkpt><trkpt lat="40.04138403069613" lon="9.158620635117318"><ele>805.5</ele><time>2026-04-29T15:36:46.218Z</time></trkpt><trkpt lat="40.04137753653649" lon="9.158793773791272"><ele>809.75</ele><time>2026-04-29T15:36:47.218Z</time></trkpt><trkpt lat="40.041394062174334" lon="9.158940413525174"><ele>814.0</ele><time>2026-04-29T15:36:48.218Z</time></trkpt><trkpt lat="40.0414621450588" lon="9.15902403142616"><ele>814.0</ele><time>2026-04-29T15:36:49.218Z</time></trkpt><trkpt lat="40.04160726122807" lon="9.15903007616616"><ele>814.0</ele><time>2026-04-29T15:36:50.218Z</time></trkpt><trkpt lat="40.041779146565574" lon="9.158934210008388"><ele>814.0</ele><time>2026-04-29T15:36:51.218Z</time></trkpt><trkpt lat="40.04190729883355" lon="9.158747816190528"><ele>801.0</ele><time>2026-04-29T15:36:52.218Z</time></trkpt><trkpt lat="40.042014076209725" lon="9.158513144980102"><ele>788.0</ele><time>2026-04-29T15:36:53.218Z</time></trkpt><trkpt lat="40.04209690948805" lon="9.158336481011313"><ele>775.0</ele><time>2026-04-29T15:36:54.218Z</time></trkpt><trkpt lat="40.04219596577524" lon="9.158220292935473"><ele>775.0</ele><time>2026-04-29T15:36:55.218Z</time></trkpt><trkpt lat="40.04235259311294" lon="9.158210934822169"><ele>775.0</ele><time>2026-04-29T15:36:56.218Z</time></trkpt><trkpt lat="40.042527914422124" lon="9.158270009605532"><ele>775.0</ele><time>2026-04-29T15:36:57.218Z</time></trkpt><trkpt lat="40.04271987215756" lon="9.158375867187086"><ele>771.5</ele><time>2026-04-29T15:36:58.218Z</time></trkpt><trkpt lat="40.04293805956359" lon="9.158489476539113"><ele>768.0</ele><time>2026-04-29T15:36:59.218Z</time></trkpt><trkpt lat="40.04317139714669" lon="9.15856880173741"><ele>766.0</ele><time>2026-04-29T15:37:00.218Z</time></trkpt><trkpt lat="40.0434014921914" lon="9.158624516615191"><ele>764.0</ele><time>2026-04-29T15:37:01.218Z</time></trkpt><trkpt lat="40.04361034017878" lon="9.158685514104091"><ele>762.0</ele><time>2026-04-29T15:37:02.218Z</time></trkpt><trkpt lat="40.04378769190454" lon="9.158798177454733"><ele>762.0</ele><time>2026-04-29T15:37:03.218Z</time></trkpt><trkpt lat="40.043933416430754" lon="9.15894838114666"><ele>762.0</ele><time>2026-04-29T15:37:04.218Z</time></trkpt><trkpt lat="40.044060142799495" lon="9.159142305312567"><ele>762.0</ele><time>2026-04-29T15:37:05.218Z</time></trkpt><trkpt lat="40.04418694792571" lon="9.159333692625246"><ele>761.0</ele><time>2026-04-29T15:37:06.218Z</time></trkpt><trkpt lat="40.04432824284655" lon="9.159509575792274"><ele>760.0</ele><time>2026-04-29T15:37:07.218Z</time></trkpt><trkpt lat="40.044459887096025" lon="9.159651513641785"><ele>759.0</ele><time>2026-04-29T15:37:08.218Z</time></trkpt><trkpt lat="40.044594468815006" lon="9.15976652734133"><ele>765.0</ele><time>2026-04-29T15:37:09.218Z</time></trkpt><trkpt lat="40.04470175306054" lon="9.159916794277091"><ele>771.0</ele><time>2026-04-29T15:37:10.218Z</time></trkpt><trkpt lat="40.04476619377371" lon="9.160099654323863"><ele>777.0</ele><time>2026-04-29T15:37:11.218Z</time></trkpt><trkpt lat="40.044793041918695" lon="9.160304320704423"><ele>777.0</ele><time>2026-04-29T15:37:12.218Z</time></trkpt><trkpt lat="40.04484847998082" lon="9.160442790580683"><ele>777.0</ele><time>2026-04-29T15:37:13.218Z</time></trkpt><trkpt lat="40.04495905710963" lon="9.160534924109562"><ele>777.0</ele><time>2026-04-29T15:37:14.218Z</time></trkpt><trkpt lat="40.045102049081166" lon="9.160555697266057"><ele>777.0</ele><time>2026-04-29T15:37:15.218Z</time></trkpt><trkpt lat="40.04524337816429" lon="9.160482081966054"><ele>771.5</ele><time>2026-04-29T15:37:16.218Z</time></trkpt><trkpt lat="40.04531627529499" lon="9.16032277715774"><ele>766.0</ele><time>2026-04-29T15:37:17.218Z</time></trkpt><trkpt lat="40.04534826459533" lon="9.160171221198615"><ele>760.5</ele><time>2026-04-29T15:37:18.218Z</time></trkpt><trkpt lat="40.04537590456673" lon="9.160065619462912"><ele>755.0</ele><time>2026-04-29T15:37:19.218Z</time></trkpt><trkpt lat="40.04544996182858" lon="9.159948370498833"><ele>755.0</ele><time>2026-04-29T15:37:20.218Z</time></trkpt><trkpt lat="40.04556122147074" lon="9.159916155121666"><ele>755.0</ele><time>2026-04-29T15:37:21.218Z</time></trkpt><trkpt lat="40.04570738728253" lon="9.159882828792135"><ele>755.0</ele><time>2026-04-29T15:37:22.218Z</time></trkpt><trkpt lat="40.045861229053045" lon="9.159794847956315"><ele>755.0</ele><time>2026-04-29T15:37:23.218Z</time></trkpt><trkpt lat="40.04597058344917" lon="9.159683681955263"><ele>753.6666666666666</ele><time>2026-04-29T15:37:24.218Z</time></trkpt><trkpt lat="40.04608776916329" lon="9.159555253386452"><ele>752.3333333333334</ele><time>2026-04-29T15:37:25.218Z</time></trkpt><trkpt lat="40.04624037413525" lon="9.159446966412501"><ele>751.0</ele><time>2026-04-29T15:37:26.218Z</time></trkpt><trkpt lat="40.04641110092531" lon="9.159356702563192"><ele>751.0</ele><time>2026-04-29T15:37:27.218Z</time></trkpt><trkpt lat="40.046609211975955" lon="9.15930580141428"><ele>751.0</ele><time>2026-04-29T15:37:28.218Z</time></trkpt><trkpt lat="40.046797602028576" lon="9.159280609507691"><ele>751.0</ele><time>2026-04-29T15:37:29.218Z</time></trkpt><trkpt lat="40.046964585127846" lon="9.15928407008879"><ele>751.5</ele><time>2026-04-29T15:37:30.218Z</time></trkpt><trkpt lat="40.0470892693837" lon="9.159283824275246"><ele>752.0</ele><time>2026-04-29T15:37:31.218Z</time></trkpt><trkpt lat="40.04714285749253" lon="9.159155820228433"><ele>752.5</ele><time>2026-04-29T15:37:32.218Z</time></trkpt><trkpt lat="40.04716050509534" lon="9.158941760562357"><ele>753.0</ele><time>2026-04-29T15:37:33.218Z</time></trkpt><trkpt lat="40.04715468729353" lon="9.158685160345202"><ele>751.3333333333334</ele><time>2026-04-29T15:37:34.218Z</time></trkpt><trkpt lat="40.04714903020288" lon="9.1584277964271"><ele>749.6666666666667</ele><time>2026-04-29T15:37:35.218Z</time></trkpt><trkpt lat="40.04708858591247" lon="9.158177548412691"><ele>748.0</ele><time>2026-04-29T15:37:36.218Z</time></trkpt><trkpt lat="40.04705214407438" lon="9.157961688137508"><ele>748.0</ele><time>2026-04-29T15:37:37.218Z</time></trkpt><trkpt lat="40.04714465339228" lon="9.157737355348631"><ele>748.0</ele><time>2026-04-29T15:37:38.218Z</time></trkpt><trkpt lat="40.047284872898196" lon="9.157547070353964"><ele>748.0</ele><time>2026-04-29T15:37:39.218Z</time></trkpt><trkpt lat="40.04733994513901" lon="9.157325706908072"><ele>749.3333333333334</ele><time>2026-04-29T15:37:40.218Z</time></trkpt><trkpt lat="40.04737328391946" lon="9.15710734879606"><ele>750.6666666666666</ele><time>2026-04-29T15:37:41.218Z</time></trkpt><trkpt lat="40.04737823942263" lon="9.15689099204718"><ele>752.0</ele><time>2026-04-29T15:37:42.219Z</time></trkpt><trkpt lat="40.04735792668004" lon="9.156680656564207"><ele>752.3333333333333</ele><time>2026-04-29T15:37:43.22Z</time></trkpt><trkpt lat="40.0473244567361" lon="9.156481785754165"><ele>752.6666666666666</ele><time>2026-04-29T15:37:44.22Z</time></trkpt><trkpt lat="40.04731746843547" lon="9.156292856905317"><ele>753.0</ele><time>2026-04-29T15:37:45.219Z</time></trkpt><trkpt lat="40.047315763194405" lon="9.15608035243579"><ele>753.0</ele><time>2026-04-29T15:37:46.219Z</time></trkpt><trkpt lat="40.04734460341074" lon="9.155859672946065"><ele>753.0</ele><time>2026-04-29T15:37:47.219Z</time></trkpt><trkpt lat="40.04742254219143" lon="9.155647311089435"><ele>753.0</ele><time>2026-04-29T15:37:48.219Z</time></trkpt><trkpt lat="40.04750233172541" lon="9.155441770816502"><ele>748.6666666666666</ele><time>2026-04-29T15:37:49.22Z</time></trkpt><trkpt lat="40.04757367828691" lon="9.155253839220933"><ele>744.3333333333333</ele><time>2026-04-29T15:37:50.22Z</time></trkpt><trkpt lat="40.04762051905044" lon="9.155059199208507"><ele>740.0</ele><time>2026-04-29T15:37:51.22Z</time></trkpt><trkpt lat="40.047638073281526" lon="9.154836022627562"><ele>738.0</ele><time>2026-04-29T15:37:52.22Z</time></trkpt><trkpt lat="40.047636835292806" lon="9.154605168489125"><ele>736.0</ele><time>2026-04-29T15:37:53.22Z</time></trkpt><trkpt lat="40.047623493105704" lon="9.154389402246325"><ele>734.0</ele><time>2026-04-29T15:37:54.22Z</time></trkpt><trkpt lat="40.04762593078056" lon="9.154178158222921"><ele>731.3333333333333</ele><time>2026-04-29T15:37:55.219Z</time></trkpt><trkpt lat="40.04767730467978" lon="9.153952886887033"><ele>728.6666666666666</ele><time>2026-04-29T15:37:56.219Z</time></trkpt><trkpt lat="40.047763679256036" lon="9.153668605711522"><ele>726.0</ele><time>2026-04-29T15:37:57.219Z</time></trkpt><trkpt lat="40.04788288457038" lon="9.153326752932225"><ele>726.0</ele><time>2026-04-29T15:37:58.219Z</time></trkpt><trkpt lat="40.04799692696214" lon="9.152994643081994"><ele>726.0</ele><time>2026-04-29T15:37:59.219Z</time></trkpt><trkpt lat="40.048099992155166" lon="9.152674324574352"><ele>726.0</ele><time>2026-04-29T15:38:00.219Z</time></trkpt><trkpt lat="40.04818856242904" lon="9.152388133472192"><ele>726.0</ele><time>2026-04-29T15:38:01.219Z</time></trkpt><trkpt lat="40.048285067463425" lon="9.152190654612918"><ele>726.0</ele><time>2026-04-29T15:38:02.219Z</time></trkpt><trkpt lat="40.04841718693797" lon="9.152045396390292"><ele>723.0</ele><time>2026-04-29T15:38:03.219Z</time></trkpt><trkpt lat="40.04861924973286" lon="9.151911048959144"><ele>720.0</ele><time>2026-04-29T15:38:04.219Z</time></trkpt><trkpt lat="40.04885225510005" lon="9.151785361569294"><ele>720.0</ele><time>2026-04-29T15:38:05.219Z</time></trkpt><trkpt lat="40.04903689767376" lon="9.151611324652512"><ele>720.0</ele><time>2026-04-29T15:38:06.219Z</time></trkpt><trkpt lat="40.04918086537976" lon="9.151373372564725"><ele>715.5</ele><time>2026-04-29T15:38:07.219Z</time></trkpt><trkpt lat="40.049306973459046" lon="9.151109744065142"><ele>711.0</ele><time>2026-04-29T15:38:08.219Z</time></trkpt><trkpt lat="40.04943916301775" lon="9.150882470336445"><ele>711.0</ele><time>2026-04-29T15:38:09.219Z</time></trkpt><trkpt lat="40.04964203448251" lon="9.150768872764917"><ele>711.0</ele><time>2026-04-29T15:38:10.219Z</time></trkpt><trkpt lat="40.049853599346605" lon="9.150685158332644"><ele>711.0</ele><time>2026-04-29T15:38:11.219Z</time></trkpt><trkpt lat="40.05001967029009" lon="9.150548856711916"><ele>712.0</ele><time>2026-04-29T15:38:12.219Z</time></trkpt><trkpt lat="40.05016377397886" lon="9.150292267502813"><ele>713.0</ele><time>2026-04-29T15:38:13.219Z</time></trkpt><trkpt lat="40.05030491448915" lon="9.15000213652009"><ele>704.0</ele><time>2026-04-29T15:38:14.219Z</time></trkpt><trkpt lat="40.050451878514615" lon="9.149722972043701"><ele>695.0</ele><time>2026-04-29T15:38:15.219Z</time></trkpt><trkpt lat="40.05059123992379" lon="9.14945907005791"><ele>695.0</ele><time>2026-04-29T15:38:16.219Z</time></trkpt><trkpt lat="40.050748560627866" lon="9.149274003463326"><ele>695.0</ele><time>2026-04-29T15:38:17.219Z</time></trkpt><trkpt lat="40.05091016921741" lon="9.149140130418967"><ele>695.0</ele><time>2026-04-29T15:38:18.219Z</time></trkpt><trkpt lat="40.051062451975426" lon="9.149030125984327"><ele>690.3333333333333</ele><time>2026-04-29T15:38:19.219Z</time></trkpt><trkpt lat="40.05120317872522" lon="9.148966977111952"><ele>685.6666666666666</ele><time>2026-04-29T15:38:20.219Z</time></trkpt><trkpt lat="40.05138563015481" lon="9.148976778396515"><ele>681.0</ele><time>2026-04-29T15:38:21.219Z</time></trkpt><trkpt lat="40.051598378263876" lon="9.148955767814527"><ele>682.3333333333334</ele><time>2026-04-29T15:38:22.219Z</time></trkpt><trkpt lat="40.05175492646115" lon="9.148909753736413"><ele>683.6666666666667</ele><time>2026-04-29T15:38:23.219Z</time></trkpt><trkpt lat="40.0519228726615" lon="9.148906487628784"><ele>685.0</ele><time>2026-04-29T15:38:24.219Z</time></trkpt><trkpt lat="40.052100085997786" lon="9.148988610882652"><ele>697.6666666666667</ele><time>2026-04-29T15:38:25.219Z</time></trkpt><trkpt lat="40.052266298494224" lon="9.149093383691994"><ele>710.3333333333334</ele><time>2026-04-29T15:38:26.219Z</time></trkpt><trkpt lat="40.052398750793905" lon="9.149179845037521"><ele>723.0</ele><time>2026-04-29T15:38:27.219Z</time></trkpt><trkpt lat="40.05252718623033" lon="9.149180644302822"><ele>723.0</ele><time>2026-04-29T15:38:28.219Z</time></trkpt><trkpt lat="40.05266249668355" lon="9.149076599375784"><ele>723.0</ele><time>2026-04-29T15:38:29.219Z</time></trkpt><trkpt lat="40.0528066793013" lon="9.148886784829806"><ele>723.0</ele><time>2026-04-29T15:38:30.219Z</time></trkpt><trkpt lat="40.05295695175205" lon="9.148679671142727"><ele>713.3333333333334</ele><time>2026-04-29T15:38:31.219Z</time></trkpt><trkpt lat="40.053123947062396" lon="9.148506025406597"><ele>703.6666666666667</ele><time>2026-04-29T15:38:32.219Z</time></trkpt><trkpt lat="40.05326800684706" lon="9.148319317256272"><ele>694.0</ele><time>2026-04-29T15:38:33.219Z</time></trkpt><trkpt lat="40.05338775352918" lon="9.148121700405284"><ele>694.0</ele><time>2026-04-29T15:38:34.219Z</time></trkpt><trkpt lat="40.053480734950746" lon="9.147899110735136"><ele>694.0</ele><time>2026-04-29T15:38:35.219Z</time></trkpt><trkpt lat="40.05355705553359" lon="9.14763665893912"><ele>694.0</ele><time>2026-04-29T15:38:36.219Z</time></trkpt><trkpt lat="40.05364912704095" lon="9.147371213762804"><ele>691.0</ele><time>2026-04-29T15:38:37.219Z</time></trkpt><trkpt lat="40.05373545974974" lon="9.14712649172667"><ele>688.0</ele><time>2026-04-29T15:38:38.219Z</time></trkpt><trkpt lat="40.05380932089067" lon="9.146879863166536"><ele>685.0</ele><time>2026-04-29T15:38:39.219Z</time></trkpt><trkpt lat="40.05382943301446" lon="9.146611087603839"><ele>682.0</ele><time>2026-04-29T15:38:40.219Z</time></trkpt><trkpt lat="40.05382408020728" lon="9.146322954005363"><ele>679.0</ele><time>2026-04-29T15:38:41.219Z</time></trkpt><trkpt lat="40.05381179609024" lon="9.146040544045164"><ele>676.0</ele><time>2026-04-29T15:38:42.219Z</time></trkpt><trkpt lat="40.053809133794424" lon="9.145788229216915"><ele>671.0</ele><time>2026-04-29T15:38:43.219Z</time></trkpt><trkpt lat="40.05384334751037" lon="9.14555466931176"><ele>666.0</ele><time>2026-04-29T15:38:44.219Z</time></trkpt><trkpt lat="40.05392699680667" lon="9.145338171985529"><ele>661.0</ele><time>2026-04-29T15:38:45.219Z</time></trkpt><trkpt lat="40.0540219614829" lon="9.145137783803259"><ele>661.0</ele><time>2026-04-29T15:38:46.219Z</time></trkpt><trkpt lat="40.05410876308774" lon="9.144971034395773"><ele>661.0</ele><time>2026-04-29T15:38:47.219Z</time></trkpt><trkpt lat="40.054227484278805" lon="9.144854801213633"><ele>661.0</ele><time>2026-04-29T15:38:48.219Z</time></trkpt><trkpt lat="40.05438253763153" lon="9.144827979998627"><ele>661.5</ele><time>2026-04-29T15:38:49.219Z</time></trkpt><trkpt lat="40.05451938507747" lon="9.144790038397977"><ele>662.0</ele><time>2026-04-29T15:38:50.219Z</time></trkpt><trkpt lat="40.054648944630706" lon="9.144710764466284"><ele>662.5</ele><time>2026-04-29T15:38:51.219Z</time></trkpt><trkpt lat="40.05477459162767" lon="9.14459886813143"><ele>663.0</ele><time>2026-04-29T15:38:52.219Z</time></trkpt><trkpt lat="40.05489970791334" lon="9.144488886850079"><ele>668.25</ele><time>2026-04-29T15:38:53.219Z</time></trkpt><trkpt lat="40.05502551864669" lon="9.144381929314571"><ele>673.5</ele><time>2026-04-29T15:38:54.219Z</time></trkpt><trkpt lat="40.05513947954246" lon="9.144277147767074"><ele>678.75</ele><time>2026-04-29T15:38:55.219Z</time></trkpt><trkpt lat="40.05523989401572" lon="9.14416858044665"><ele>684.0</ele><time>2026-04-29T15:38:56.219Z</time></trkpt><trkpt lat="40.05532501443951" lon="9.144057421419737"><ele>677.4000000000001</ele><time>2026-04-29T15:38:57.219Z</time></trkpt><trkpt lat="40.05539374975787" lon="9.14394003146054"><ele>670.8</ele><time>2026-04-29T15:38:58.219Z</time></trkpt><trkpt lat="40.05546089244639" lon="9.143823153750265"><ele>664.2</ele><time>2026-04-29T15:38:59.219Z</time></trkpt><trkpt lat="40.05553213679039" lon="9.143714898466932"><ele>657.5999999999999</ele><time>2026-04-29T15:39:00.219Z</time></trkpt><trkpt lat="40.05561833229821" lon="9.14362388604516"><ele>651.0</ele><time>2026-04-29T15:39:01.219Z</time></trkpt><trkpt lat="40.055717329061906" lon="9.14356921775077"><ele>655.8</ele><time>2026-04-29T15:39:02.219Z</time></trkpt><trkpt lat="40.05581901884846" lon="9.143532881808648"><ele>660.5999999999999</ele><time>2026-04-29T15:39:03.219Z</time></trkpt><trkpt lat="40.05592642339877" lon="9.1434885251564"><ele>665.4</ele><time>2026-04-29T15:39:04.219Z</time></trkpt><trkpt lat="40.056028066380776" lon="9.143432881887774"><ele>670.2</ele><time>2026-04-29T15:39:05.219Z</time></trkpt><trkpt lat="40.0561274780409" lon="9.14334618065839"><ele>675.0</ele><time>2026-04-29T15:39:06.219Z</time></trkpt><trkpt lat="40.0562225477282" lon="9.143234520369797"><ele>663.6666666666666</ele><time>2026-04-29T15:39:07.219Z</time></trkpt><trkpt lat="40.056324839741336" lon="9.143111026774728"><ele>652.3333333333333</ele><time>2026-04-29T15:39:08.219Z</time></trkpt><trkpt lat="40.05644403996963" lon="9.142970507574347"><ele>641.0</ele><time>2026-04-29T15:39:09.219Z</time></trkpt><trkpt lat="40.05656249533617" lon="9.142831616736418"><ele>646.25</ele><time>2026-04-29T15:39:10.219Z</time></trkpt><trkpt lat="40.056670849355214" lon="9.142711703139456"><ele>651.5</ele><time>2026-04-29T15:39:11.219Z</time></trkpt><trkpt lat="40.056781719135024" lon="9.142640806564135"><ele>656.75</ele><time>2026-04-29T15:39:12.219Z</time></trkpt><trkpt lat="40.056905534254405" lon="9.142685593259785"><ele>662.0</ele><time>2026-04-29T15:39:13.219Z</time></trkpt><trkpt lat="40.05699377253774" lon="9.142817642231307"><ele>662.0</ele><time>2026-04-29T15:39:14.219Z</time></trkpt><trkpt lat="40.05706806467935" lon="9.143012023485879"><ele>662.0</ele><time>2026-04-29T15:39:15.219Z</time></trkpt><trkpt lat="40.057113012654014" lon="9.143248475371118"><ele>662.0</ele><time>2026-04-29T15:39:16.219Z</time></trkpt><trkpt lat="40.057123212568804" lon="9.143494280632439"><ele>668.0</ele><time>2026-04-29T15:39:17.219Z</time></trkpt><trkpt lat="40.05709386863588" lon="9.143693253061384"><ele>674.0</ele><time>2026-04-29T15:39:18.219Z</time></trkpt><trkpt lat="40.05701221314824" lon="9.14384828386425"><ele>680.0</ele><time>2026-04-29T15:39:19.219Z</time></trkpt><trkpt lat="40.05687637438537" lon="9.14400992430097"><ele>679.0</ele><time>2026-04-29T15:39:20.219Z</time></trkpt><trkpt lat="40.056743553399286" lon="9.144225687673076"><ele>678.0</ele><time>2026-04-29T15:39:21.219Z</time></trkpt><trkpt lat="40.05661646620887" lon="9.144461583103881"><ele>677.0</ele><time>2026-04-29T15:39:22.219Z</time></trkpt><trkpt lat="40.05652331861906" lon="9.144697466486438"><ele>672.0</ele><time>2026-04-29T15:39:23.219Z</time></trkpt><trkpt lat="40.056499826704666" lon="9.144941764027891"><ele>667.0</ele><time>2026-04-29T15:39:24.219Z</time></trkpt><trkpt lat="40.05654413003822" lon="9.145195990298534"><ele>662.0</ele><time>2026-04-29T15:39:25.219Z</time></trkpt><trkpt lat="40.05665815002051" lon="9.145448848062957"><ele>662.0</ele><time>2026-04-29T15:39:26.219Z</time></trkpt><trkpt lat="40.056820275995165" lon="9.145698242221343"><ele>662.0</ele><time>2026-04-29T15:39:27.219Z</time></trkpt><trkpt lat="40.05697808899407" lon="9.145915493395744"><ele>664.6666666666666</ele><time>2026-04-29T15:39:28.219Z</time></trkpt><trkpt lat="40.05713006939786" lon="9.146127361312562"><ele>667.3333333333334</ele><time>2026-04-29T15:39:29.219Z</time></trkpt><trkpt lat="40.057291204835046" lon="9.14631227614911"><ele>670.0</ele><time>2026-04-29T15:39:30.219Z</time></trkpt><trkpt lat="40.057435074425285" lon="9.146477989479955"><ele>664.3333333333334</ele><time>2026-04-29T15:39:31.219Z</time></trkpt><trkpt lat="40.057598149172165" lon="9.146591876681184"><ele>658.6666666666666</ele><time>2026-04-29T15:39:32.219Z</time></trkpt><trkpt lat="40.05771985101451" lon="9.146682207402215"><ele>653.0</ele><time>2026-04-29T15:39:33.219Z</time></trkpt><trkpt lat="40.05781124077875" lon="9.146813359357308"><ele>653.0</ele><time>2026-04-29T15:39:34.219Z</time></trkpt><trkpt lat="40.05783032861187" lon="9.146974666841901"><ele>653.0</ele><time>2026-04-29T15:39:35.219Z</time></trkpt><trkpt lat="40.05777152598254" lon="9.147175524367716"><ele>653.0</ele><time>2026-04-29T15:39:36.219Z</time></trkpt><trkpt lat="40.05767985880241" lon="9.147416115161818"><ele>653.3333333333333</ele><time>2026-04-29T15:39:37.219Z</time></trkpt><trkpt lat="40.057570108625065" lon="9.147627859895428"><ele>653.6666666666666</ele><time>2026-04-29T15:39:38.219Z</time></trkpt><trkpt lat="40.05745667430073" lon="9.147811041139981"><ele>654.0</ele><time>2026-04-29T15:39:39.219Z</time></trkpt><trkpt lat="40.05735504236551" lon="9.147990611520111"><ele>659.0</ele><time>2026-04-29T15:39:40.219Z</time></trkpt><trkpt lat="40.05728604945103" lon="9.148187073730469"><ele>664.0</ele><time>2026-04-29T15:39:41.219Z</time></trkpt><trkpt lat="40.05724301754975" lon="9.148395189853057"><ele>669.0</ele><time>2026-04-29T15:39:42.219Z</time></trkpt><trkpt lat="40.05719151400696" lon="9.148601816946753"><ele>669.0</ele><time>2026-04-29T15:39:43.219Z</time></trkpt><trkpt lat="40.05714181855955" lon="9.148816231390027"><ele>669.0</ele><time>2026-04-29T15:39:44.219Z</time></trkpt><trkpt lat="40.05707264570187" lon="9.149028495847038"><ele>669.0</ele><time>2026-04-29T15:39:45.219Z</time></trkpt><trkpt lat="40.05697165777834" lon="9.149244290461313"><ele>664.0</ele><time>2026-04-29T15:39:46.219Z</time></trkpt><trkpt lat="40.056864351195756" lon="9.149476146840223"><ele>659.0</ele><time>2026-04-29T15:39:47.221Z</time></trkpt><trkpt lat="40.056761865094785" lon="9.149726499475435"><ele>654.0</ele><time>2026-04-29T15:39:48.221Z</time></trkpt><trkpt lat="40.05666973325785" lon="9.149987535625012"><ele>668.0</ele><time>2026-04-29T15:39:49.221Z</time></trkpt><trkpt lat="40.05659511835913" lon="9.150261755453553"><ele>682.0</ele><time>2026-04-29T15:39:50.221Z</time></trkpt><trkpt lat="40.0565180581166" lon="9.150543632467457"><ele>677.0</ele><time>2026-04-29T15:39:51.22Z</time></trkpt><trkpt lat="40.05645027359046" lon="9.150816526574582"><ele>672.0</ele><time>2026-04-29T15:39:52.22Z</time></trkpt><trkpt lat="40.056400558096385" lon="9.151073509710685"><ele>667.0</ele><time>2026-04-29T15:39:53.221Z</time></trkpt><trkpt lat="40.05631889643693" lon="9.151323735841489"><ele>667.0</ele><time>2026-04-29T15:39:54.221Z</time></trkpt><trkpt lat="40.056208470450855" lon="9.151536096390606"><ele>667.0</ele><time>2026-04-29T15:39:55.221Z</time></trkpt><trkpt lat="40.05616051096123" lon="9.151765409462481"><ele>667.0</ele><time>2026-04-29T15:39:56.221Z</time></trkpt><trkpt lat="40.056154335257574" lon="9.152018341501421"><ele>662.0</ele><time>2026-04-29T15:39:57.221Z</time></trkpt><trkpt lat="40.05613288806523" lon="9.152275217519128"><ele>657.0</ele><time>2026-04-29T15:39:58.221Z</time></trkpt><trkpt lat="40.056076357471056" lon="9.152549895395728"><ele>652.0</ele><time>2026-04-29T15:39:59.221Z</time></trkpt><trkpt lat="40.055974823309434" lon="9.152795450514246"><ele>654.0</ele><time>2026-04-29T15:40:00.221Z</time></trkpt><trkpt lat="40.055888528418045" lon="9.15304316175798"><ele>656.0</ele><time>2026-04-29T15:40:01.221Z</time></trkpt><trkpt lat="40.055808521111274" lon="9.153294595436785"><ele>658.0</ele><time>2026-04-29T15:40:02.221Z</time></trkpt><trkpt lat="40.05568984049575" lon="9.153527065896496"><ele>658.0</ele><time>2026-04-29T15:40:03.221Z</time></trkpt><trkpt lat="40.05554492778415" lon="9.153732088386816"><ele>658.0</ele><time>2026-04-29T15:40:04.221Z</time></trkpt><trkpt lat="40.05537310192882" lon="9.153900208681792"><ele>658.0</ele><time>2026-04-29T15:40:05.221Z</time></trkpt><trkpt lat="40.055174706858296" lon="9.154030727581253"><ele>655.3333333333334</ele><time>2026-04-29T15:40:06.221Z</time></trkpt><trkpt lat="40.05500413707021" lon="9.154176918164294"><ele>652.6666666666666</ele><time>2026-04-29T15:40:07.221Z</time></trkpt><trkpt lat="40.054858412237905" lon="9.154372157210533"><ele>650.0</ele><time>2026-04-29T15:40:08.221Z</time></trkpt><trkpt lat="40.0547378426611" lon="9.154595634835003"><ele>650.0</ele><time>2026-04-29T15:40:09.221Z</time></trkpt><trkpt lat="40.05461952247182" lon="9.154798507413505"><ele>650.0</ele><time>2026-04-29T15:40:10.221Z</time></trkpt><trkpt lat="40.054458016154896" lon="9.154966243834975"><ele>650.0</ele><time>2026-04-29T15:40:11.221Z</time></trkpt><trkpt lat="40.05428971887466" lon="9.155073449272763"><ele>648.75</ele><time>2026-04-29T15:40:12.221Z</time></trkpt><trkpt lat="40.05414612155708" lon="9.155169755591507"><ele>647.5</ele><time>2026-04-29T15:40:13.221Z</time></trkpt><trkpt lat="40.05404034951234" lon="9.155257944010582"><ele>646.25</ele><time>2026-04-29T15:40:14.221Z</time></trkpt><trkpt lat="40.05398613695593" lon="9.155372226182694"><ele>645.0</ele><time>2026-04-29T15:40:15.221Z</time></trkpt><trkpt lat="40.05399721618579" lon="9.155481688534023"><ele>645.0</ele><time>2026-04-29T15:40:16.221Z</time></trkpt><trkpt lat="40.054087291164485" lon="9.155554657364371"><ele>645.0</ele><time>2026-04-29T15:40:17.221Z</time></trkpt><trkpt lat="40.05423455258649" lon="9.15561482775624"><ele>645.0</ele><time>2026-04-29T15:40:18.221Z</time></trkpt><trkpt lat="40.05441519337341" lon="9.1556940760863"><ele>637.6666666666666</ele><time>2026-04-29T15:40:19.221Z</time></trkpt><trkpt lat="40.05459823191072" lon="9.155774591504864"><ele>630.3333333333333</ele><time>2026-04-29T15:40:20.221Z</time></trkpt><trkpt lat="40.05476982921404" lon="9.155873679021191"><ele>623.0</ele><time>2026-04-29T15:40:21.221Z</time></trkpt><trkpt lat="40.054928893390205" lon="9.156003099407009"><ele>615.3333333333333</ele><time>2026-04-29T15:40:22.221Z</time></trkpt><trkpt lat="40.055057378679145" lon="9.156154829231589"><ele>607.6666666666666</ele><time>2026-04-29T15:40:23.221Z</time></trkpt><trkpt lat="40.05520432325017" lon="9.156226564572977"><ele>600.0</ele><time>2026-04-29T15:40:24.221Z</time></trkpt><trkpt lat="40.055346579839544" lon="9.156206607808105"><ele>600.0</ele><time>2026-04-29T15:40:25.221Z</time></trkpt><trkpt lat="40.05548023420107" lon="9.156223261973606"><ele>600.0</ele><time>2026-04-29T15:40:26.221Z</time></trkpt><trkpt lat="40.05558395699656" lon="9.156348684072379"><ele>600.0</ele><time>2026-04-29T15:40:27.221Z</time></trkpt><trkpt lat="40.05565947050606" lon="9.156548476378338"><ele>600.0</ele><time>2026-04-29T15:40:28.221Z</time></trkpt><trkpt lat="40.05572060690522" lon="9.156782776542684"><ele>598.0</ele><time>2026-04-29T15:40:29.221Z</time></trkpt><trkpt lat="40.05574719623654" lon="9.1570037101325"><ele>596.0</ele><time>2026-04-29T15:40:30.221Z</time></trkpt><trkpt lat="40.05577909854531" lon="9.15723418217899"><ele>594.0</ele><time>2026-04-29T15:40:31.221Z</time></trkpt><trkpt lat="40.05581151399776" lon="9.157508505000946"><ele>594.0</ele><time>2026-04-29T15:40:32.221Z</time></trkpt><trkpt lat="40.05581406578264" lon="9.15778392722644"><ele>594.0</ele><time>2026-04-29T15:40:33.221Z</time></trkpt><trkpt lat="40.05580437329897" lon="9.158031506721702"><ele>594.0</ele><time>2026-04-29T15:40:34.221Z</time></trkpt><trkpt lat="40.05583427772608" lon="9.158255690936175"><ele>596.5</ele><time>2026-04-29T15:40:35.221Z</time></trkpt><trkpt lat="40.05587803683047" lon="9.15845855986202"><ele>599.0</ele><time>2026-04-29T15:40:36.221Z</time></trkpt><trkpt lat="40.05592098412216" lon="9.158594592275321"><ele>601.5</ele><time>2026-04-29T15:40:37.221Z</time></trkpt><trkpt lat="40.05599223365492" lon="9.158669870524891"><ele>604.0</ele><time>2026-04-29T15:40:38.221Z</time></trkpt><trkpt lat="40.056084269308684" lon="9.158673046694268"><ele>604.0</ele><time>2026-04-29T15:40:39.221Z</time></trkpt><trkpt lat="40.0561998081157" lon="9.15861062302552"><ele>604.0</ele><time>2026-04-29T15:40:40.221Z</time></trkpt><trkpt lat="40.05631935240744" lon="9.158516083809513"><ele>604.0</ele><time>2026-04-29T15:40:41.221Z</time></trkpt><trkpt lat="40.05643846057554" lon="9.158415048576543"><ele>604.0</ele><time>2026-04-29T15:40:42.221Z</time></trkpt><trkpt lat="40.05652713023921" lon="9.158267566598116"><ele>600.6666666666667</ele><time>2026-04-29T15:40:43.221Z</time></trkpt><trkpt lat="40.05660931239279" lon="9.158091161849443"><ele>597.3333333333334</ele><time>2026-04-29T15:40:44.221Z</time></trkpt><trkpt lat="40.05668747910461" lon="9.157890097925025"><ele>594.0</ele><time>2026-04-29T15:40:45.221Z</time></trkpt><trkpt lat="40.056765022889515" lon="9.157685426226784"><ele>590.0</ele><time>2026-04-29T15:40:46.221Z</time></trkpt><trkpt lat="40.05682886552808" lon="9.157460812340751"><ele>586.0</ele><time>2026-04-29T15:40:47.221Z</time></trkpt><trkpt lat="40.05687945150579" lon="9.157191718278012"><ele>582.0</ele><time>2026-04-29T15:40:48.221Z</time></trkpt><trkpt lat="40.056915981633686" lon="9.156891676468328"><ele>579.6666666666666</ele><time>2026-04-29T15:40:49.221Z</time></trkpt><trkpt lat="40.05694307896364" lon="9.156603618941572"><ele>577.3333333333333</ele><time>2026-04-29T15:40:50.221Z</time></trkpt><trkpt lat="40.05690452869962" lon="9.156316341292525"><ele>575.0</ele><time>2026-04-29T15:40:51.22Z</time></trkpt><trkpt lat="40.057275170105" lon="9.156540619976857"><ele>573.25</ele><time>2026-04-29T15:40:52.22Z</time></trkpt><trkpt lat="40.057268814222134" lon="9.156326882529902"><ele>571.5</ele><time>2026-04-29T15:40:53.22Z</time></trkpt><trkpt lat="40.05727752950522" lon="9.156145154675988"><ele>569.75</ele><time>2026-04-29T15:40:54.22Z</time></trkpt><trkpt lat="40.057328246627705" lon="9.155980590632852"><ele>568.0</ele><time>2026-04-29T15:40:55.22Z</time></trkpt><trkpt lat="40.057440445405916" lon="9.155849086668548"><ele>572.25</ele><time>2026-04-29T15:40:56.22Z</time></trkpt><trkpt lat="40.05753353658573" lon="9.155742125456717"><ele>576.5</ele><time>2026-04-29T15:40:57.22Z</time></trkpt><trkpt lat="40.05757160383214" lon="9.155596852765951"><ele>580.75</ele><time>2026-04-29T15:40:58.22Z</time></trkpt><trkpt lat="40.05752861423899" lon="9.155381412858178"><ele>585.0</ele><time>2026-04-29T15:40:59.22Z</time></trkpt><trkpt lat="40.05747322791491" lon="9.155161418461706"><ele>581.25</ele><time>2026-04-29T15:41:00.22Z</time></trkpt><trkpt lat="40.057452118496364" lon="9.154973925942151"><ele>577.5</ele><time>2026-04-29T15:41:01.22Z</time></trkpt><trkpt lat="40.057476496082764" lon="9.154817253418484"><ele>573.75</ele><time>2026-04-29T15:41:02.22Z</time></trkpt><trkpt lat="40.05756176848217" lon="9.15467918369828"><ele>570.0</ele><time>2026-04-29T15:41:03.22Z</time></trkpt><trkpt lat="40.05765436624218" lon="9.154522162264513"><ele>570.0</ele><time>2026-04-29T15:41:04.22Z</time></trkpt><trkpt lat="40.0577560889781" lon="9.154332562979437"><ele>570.0</ele><time>2026-04-29T15:41:05.22Z</time></trkpt><trkpt lat="40.05785871600619" lon="9.154119529492288"><ele>570.0</ele><time>2026-04-29T15:41:06.22Z</time></trkpt><trkpt lat="40.05795779414531" lon="9.153884522058602"><ele>566.3333333333334</ele><time>2026-04-29T15:41:07.22Z</time></trkpt><trkpt lat="40.05805575851655" lon="9.15364795798934"><ele>562.6666666666667</ele><time>2026-04-29T15:41:08.22Z</time></trkpt><trkpt lat="40.05817803497381" lon="9.153422705514192"><ele>559.0</ele><time>2026-04-29T15:41:09.22Z</time></trkpt><trkpt lat="40.058325727218346" lon="9.153199417836667"><ele>557.0</ele><time>2026-04-29T15:41:10.22Z</time></trkpt><trkpt lat="40.05847930261708" lon="9.152999619171219"><ele>555.0</ele><time>2026-04-29T15:41:11.22Z</time></trkpt><trkpt lat="40.058630377578346" lon="9.152812391701527"><ele>553.0</ele><time>2026-04-29T15:41:12.22Z</time></trkpt><trkpt lat="40.05875992015234" lon="9.152642411431154"><ele>553.0</ele><time>2026-04-29T15:41:13.22Z</time></trkpt><trkpt lat="40.05886558843559" lon="9.152480488734227"><ele>553.0</ele><time>2026-04-29T15:41:14.22Z</time></trkpt><trkpt lat="40.05896221925907" lon="9.15231834387149"><ele>553.0</ele><time>2026-04-29T15:41:15.22Z</time></trkpt><trkpt lat="40.05905173337812" lon="9.152166525630834"><ele>554.0</ele><time>2026-04-29T15:41:16.22Z</time></trkpt><trkpt lat="40.05913616646588" lon="9.152029732253974"><ele>555.0</ele><time>2026-04-29T15:41:17.22Z</time></trkpt><trkpt lat="40.05923407883008" lon="9.151907146718928"><ele>556.0</ele><time>2026-04-29T15:41:18.22Z</time></trkpt><trkpt lat="40.05936501940377" lon="9.151831052038204"><ele>557.0</ele><time>2026-04-29T15:41:19.22Z</time></trkpt><trkpt lat="40.0595149464708" lon="9.1517875876884"><ele>557.0</ele><time>2026-04-29T15:41:20.22Z</time></trkpt><trkpt lat="40.05964712812534" lon="9.151707841796558"><ele>557.0</ele><time>2026-04-29T15:41:21.22Z</time></trkpt><trkpt lat="40.059791112512656" lon="9.151541975061832"><ele>557.0</ele><time>2026-04-29T15:41:22.22Z</time></trkpt><trkpt lat="40.05997582962129" lon="9.15133461687775"><ele>552.5</ele><time>2026-04-29T15:41:23.22Z</time></trkpt><trkpt lat="40.06018027725665" lon="9.151167270938355"><ele>548.0</ele><time>2026-04-29T15:41:24.22Z</time></trkpt><trkpt lat="40.06042878790315" lon="9.151074435772593"><ele>548.0</ele><time>2026-04-29T15:41:25.22Z</time></trkpt><trkpt lat="40.06064143544509" lon="9.150993748470206"><ele>548.0</ele><time>2026-04-29T15:41:26.22Z</time></trkpt><trkpt lat="40.06084172017256" lon="9.150920058757679"><ele>548.0</ele><time>2026-04-29T15:41:27.22Z</time></trkpt><trkpt lat="40.06102418517648" lon="9.150862168258351"><ele>546.0</ele><time>2026-04-29T15:41:28.22Z</time></trkpt><trkpt lat="40.06117416744608" lon="9.150778071849173"><ele>544.0</ele><time>2026-04-29T15:41:29.22Z</time></trkpt><trkpt lat="40.061316744275246" lon="9.150612307140578"><ele>542.0</ele><time>2026-04-29T15:41:30.22Z</time></trkpt><trkpt lat="40.06147932912249" lon="9.150444933712507"><ele>548.3333333333333</ele><time>2026-04-29T15:41:31.22Z</time></trkpt><trkpt lat="40.06166662818911" lon="9.150326605099085"><ele>554.6666666666666</ele><time>2026-04-29T15:41:32.22Z</time></trkpt><trkpt lat="40.06184208058457" lon="9.15021821090512"><ele>561.0</ele><time>2026-04-29T15:41:33.22Z</time></trkpt><trkpt lat="40.06199695659177" lon="9.150071637951084"><ele>561.0</ele><time>2026-04-29T15:41:34.22Z</time></trkpt><trkpt lat="40.062126833029325" lon="9.149919954622042"><ele>561.0</ele><time>2026-04-29T15:41:35.22Z</time></trkpt><trkpt lat="40.06225455670985" lon="9.149795409887387"><ele>561.0</ele><time>2026-04-29T15:41:36.22Z</time></trkpt><trkpt lat="40.06240078398748" lon="9.14972477818398"><ele>557.0</ele><time>2026-04-29T15:41:37.22Z</time></trkpt><trkpt lat="40.062582971496276" lon="9.149727724791957"><ele>553.0</ele><time>2026-04-29T15:41:38.22Z</time></trkpt><trkpt lat="40.06277412892991" lon="9.149760184585052"><ele>549.0</ele><time>2026-04-29T15:41:39.22Z</time></trkpt><trkpt lat="40.062959078226235" lon="9.149791329653386"><ele>549.0</ele><time>2026-04-29T15:41:40.22Z</time></trkpt><trkpt lat="40.06313267708555" lon="9.149811383765364"><ele>549.0</ele><time>2026-04-29T15:41:41.22Z</time></trkpt><trkpt lat="40.06329607619047" lon="9.149823096237123"><ele>549.0</ele><time>2026-04-29T15:41:42.22Z</time></trkpt><trkpt lat="40.063443247671344" lon="9.149831864309526"><ele>550.3333333333334</ele><time>2026-04-29T15:41:43.22Z</time></trkpt><trkpt lat="40.06357859878206" lon="9.14987499288737"><ele>551.6666666666667</ele><time>2026-04-29T15:41:44.22Z</time></trkpt><trkpt lat="40.063723019033546" lon="9.149941235322562"><ele>553.0</ele><time>2026-04-29T15:41:45.22Z</time></trkpt><trkpt lat="40.063871017288434" lon="9.150018922486781"><ele>557.0</ele><time>2026-04-29T15:41:46.22Z</time></trkpt><trkpt lat="40.06401830707613" lon="9.150057317306805"><ele>561.0</ele><time>2026-04-29T15:41:47.22Z</time></trkpt><trkpt lat="40.06416379307967" lon="9.150086989786457"><ele>565.0</ele><time>2026-04-29T15:41:48.22Z</time></trkpt><trkpt lat="40.06429044375529" lon="9.150117271341163"><ele>569.0</ele><time>2026-04-29T15:41:49.22Z</time></trkpt><trkpt lat="40.064371913758286" lon="9.150171920765532"><ele>569.0</ele><time>2026-04-29T15:41:50.22Z</time></trkpt><trkpt lat="40.064421994374" lon="9.150287850512"><ele>569.0</ele><time>2026-04-29T15:41:51.22Z</time></trkpt><trkpt lat="40.06445483310907" lon="9.15044515313147"><ele>569.0</ele><time>2026-04-29T15:41:52.22Z</time></trkpt><trkpt lat="40.064486284149105" lon="9.150629384369008"><ele>569.0</ele><time>2026-04-29T15:41:53.223Z</time></trkpt><trkpt lat="40.06454048333797" lon="9.150824290322115"><ele>571.5</ele><time>2026-04-29T15:41:54.222Z</time></trkpt><trkpt lat="40.06458316654811" lon="9.151019169482122"><ele>574.0</ele><time>2026-04-29T15:41:55.222Z</time></trkpt><trkpt lat="40.06464065367075" lon="9.151188400025575"><ele>576.5</ele><time>2026-04-29T15:41:56.222Z</time></trkpt><trkpt lat="40.064736381565574" lon="9.151335400099606"><ele>579.0</ele><time>2026-04-29T15:41:57.222Z</time></trkpt><trkpt lat="40.06483553195207" lon="9.151446640167128"><ele>579.0</ele><time>2026-04-29T15:41:58.222Z</time></trkpt><trkpt lat="40.064939487102436" lon="9.151499217223899"><ele>579.0</ele><time>2026-04-29T15:41:59.222Z</time></trkpt><trkpt lat="40.06504453766071" lon="9.151457936654108"><ele>579.0</ele><time>2026-04-29T15:42:00.222Z</time></trkpt><trkpt lat="40.06513738473125" lon="9.151328488749632"><ele>579.0</ele><time>2026-04-29T15:42:01.222Z</time></trkpt><trkpt lat="40.06520614181253" lon="9.15114433297107"><ele>576.6</ele><time>2026-04-29T15:42:02.222Z</time></trkpt><trkpt lat="40.065269569272914" lon="9.15098150094314"><ele>574.2</ele><time>2026-04-29T15:42:03.222Z</time></trkpt><trkpt lat="40.065339497789864" lon="9.15085894060334"><ele>571.8000000000001</ele><time>2026-04-29T15:42:04.222Z</time></trkpt><trkpt lat="40.06538337867591" lon="9.150778660311438"><ele>569.4</ele><time>2026-04-29T15:42:05.222Z</time></trkpt><trkpt lat="40.0654140739582" lon="9.150674199144564"><ele>567.0</ele><time>2026-04-29T15:45:15.223Z</time></trkpt><trkpt lat="40.065473742795554" lon="9.15054647432185"><ele>567.2</ele><time>2026-04-29T15:45:17.223Z</time></trkpt><trkpt lat="40.0655672259512" lon="9.150449123674273"><ele>567.4000000000001</ele><time>2026-04-29T15:45:19.223Z</time></trkpt><trkpt lat="40.065680674715125" lon="9.150369490970931"><ele>567.5999999999999</ele><time>2026-04-29T15:45:21.223Z</time></trkpt><trkpt lat="40.065743571649726" lon="9.15033827521024"><ele>567.8</ele><time>2026-04-29T15:45:22.223Z</time></trkpt><trkpt lat="40.06580294032925" lon="9.150296461061009"><ele>568.0</ele><time>2026-04-29T15:45:23.223Z</time></trkpt><trkpt lat="40.06586653005382" lon="9.1502420859279"><ele>568.0</ele><time>2026-04-29T15:45:24.223Z</time></trkpt><trkpt lat="40.06591781102982" lon="9.1501636204493"><ele>568.0</ele><time>2026-04-29T15:45:25.223Z</time></trkpt><trkpt lat="40.065958999957836" lon="9.150074038341234"><ele>568.0</ele><time>2026-04-29T15:45:26.223Z</time></trkpt><trkpt lat="40.06600168830258" lon="9.149983908014613"><ele>568.0</ele><time>2026-04-29T15:45:27.223Z</time></trkpt><trkpt lat="40.066056575661804" lon="9.14989956772237"><ele>568.0</ele><time>2026-04-29T15:45:28.223Z</time></trkpt><trkpt lat="40.066128049015056" lon="9.149832045270717"><ele>568.0</ele><time>2026-04-29T15:45:29.223Z</time></trkpt><trkpt lat="40.066209593995865" lon="9.149765677378348"><ele>567.0</ele><time>2026-04-29T15:45:30.223Z</time></trkpt><trkpt lat="40.06629930294038" lon="9.149691235051755"><ele>566.0</ele><time>2026-04-29T15:45:31.223Z</time></trkpt><trkpt lat="40.066386403345625" lon="9.14960772966275"><ele>565.0</ele><time>2026-04-29T15:45:32.223Z</time></trkpt><trkpt lat="40.066474036272936" lon="9.149531962104053"><ele>564.0</ele><time>2026-04-29T15:45:33.223Z</time></trkpt><trkpt lat="40.066570031877816" lon="9.149485335066451"><ele>563.0</ele><time>2026-04-29T15:45:34.223Z</time></trkpt><trkpt lat="40.066677743030084" lon="9.149482490152323"><ele>563.0</ele><time>2026-04-29T15:45:35.223Z</time></trkpt><trkpt lat="40.066797156156454" lon="9.14950549026645"><ele>563.0</ele><time>2026-04-29T15:45:36.223Z</time></trkpt><trkpt lat="40.06691232681184" lon="9.149558954259518"><ele>563.0</ele><time>2026-04-29T15:45:37.223Z</time></trkpt><trkpt lat="40.06701755207803" lon="9.149603812888946"><ele>563.0</ele><time>2026-04-29T15:45:38.223Z</time></trkpt><trkpt lat="40.06711275837441" lon="9.149628963361948"><ele>563.0</ele><time>2026-04-29T15:45:39.223Z</time></trkpt><trkpt lat="40.06719921945938" lon="9.149593167617688"><ele>563.0</ele><time>2026-04-29T15:45:40.223Z</time></trkpt><trkpt lat="40.067258211856505" lon="9.149493613084191"><ele>563.0</ele><time>2026-04-29T15:45:41.223Z</time></trkpt><trkpt lat="40.067271878721925" lon="9.149366263982682"><ele>563.0</ele><time>2026-04-29T15:45:42.223Z</time></trkpt><trkpt lat="40.06725455407498" lon="9.149235182405034"><ele>563.0</ele><time>2026-04-29T15:45:43.223Z</time></trkpt><trkpt lat="40.067248403066486" lon="9.149098250649079"><ele>562.5</ele><time>2026-04-29T15:45:44.223Z</time></trkpt><trkpt lat="40.067303830832195" lon="9.148978745741548"><ele>562.0</ele><time>2026-04-29T15:45:45.223Z</time></trkpt><trkpt lat="40.067387786841046" lon="9.14888399008831"><ele>561.5</ele><time>2026-04-29T15:45:46.223Z</time></trkpt><trkpt lat="40.06748382289914" lon="9.148791441911298"><ele>561.0</ele><time>2026-04-29T15:45:47.223Z</time></trkpt><trkpt lat="40.067578378658546" lon="9.148691425791736"><ele>561.0</ele><time>2026-04-29T15:45:48.223Z</time></trkpt><trkpt lat="40.067669757667765" lon="9.14857386416111"><ele>561.0</ele><time>2026-04-29T15:45:49.223Z</time></trkpt><trkpt lat="40.067755109005425" lon="9.148456576485382"><ele>561.0</ele><time>2026-04-29T15:45:50.223Z</time></trkpt><trkpt lat="40.06783838948284" lon="9.14835200849492"><ele>561.0</ele><time>2026-04-29T15:45:51.223Z</time></trkpt><trkpt lat="40.0679144941414" lon="9.148263611577319"><ele>559.1666666666666</ele><time>2026-04-29T15:45:52.223Z</time></trkpt><trkpt lat="40.067971398773665" lon="9.148180675533196"><ele>557.3333333333334</ele><time>2026-04-29T15:45:53.223Z</time></trkpt><trkpt lat="40.06801966836592" lon="9.148093659030682"><ele>555.5</ele><time>2026-04-29T15:45:54.223Z</time></trkpt><trkpt lat="40.068066922273985" lon="9.14802107040999"><ele>553.6666666666667</ele><time>2026-04-29T15:45:55.223Z</time></trkpt><trkpt lat="40.06811045786474" lon="9.147939071106494"><ele>551.8333333333334</ele><time>2026-04-29T15:45:56.223Z</time></trkpt><trkpt lat="40.06814864946174" lon="9.147850194164404"><ele>550.0</ele><time>2026-04-29T15:45:57.223Z</time></trkpt><trkpt lat="40.06819653359965" lon="9.147769643988394"><ele>550.0</ele><time>2026-04-29T15:45:58.223Z</time></trkpt><trkpt lat="40.06825458391353" lon="9.147703206253805"><ele>550.0</ele><time>2026-04-29T15:45:59.223Z</time></trkpt><trkpt lat="40.06832694574408" lon="9.147668586093603"><ele>550.0</ele><time>2026-04-29T15:46:00.223Z</time></trkpt><trkpt lat="40.06840633801237" lon="9.147667985593742"><ele>550.0</ele><time>2026-04-29T15:46:01.223Z</time></trkpt><trkpt lat="40.068479007197176" lon="9.147693021781691"><ele>550.0</ele><time>2026-04-29T15:46:02.223Z</time></trkpt><trkpt lat="40.06854407794901" lon="9.147724710946612"><ele>550.0</ele><time>2026-04-29T15:46:03.223Z</time></trkpt><trkpt lat="40.06863967039414" lon="9.147757633651475"><ele>551.6666666666667</ele><time>2026-04-29T15:46:05.225Z</time></trkpt><trkpt lat="40.06871649515253" lon="9.147789000760236"><ele>553.3333333333334</ele><time>2026-04-29T15:46:07.225Z</time></trkpt><trkpt lat="40.068780890148" lon="9.147787915264022"><ele>555.0</ele><time>2026-04-29T15:46:09.224Z</time></trkpt><trkpt lat="40.06885144720744" lon="9.147764452476409"><ele>556.6666666666666</ele><time>2026-04-29T15:46:11.225Z</time></trkpt><trkpt lat="40.068929958725434" lon="9.14772227173437"><ele>558.3333333333333</ele><time>2026-04-29T15:46:13.225Z</time></trkpt><trkpt lat="40.06900805695899" lon="9.147664085766383"><ele>560.0</ele><time>2026-04-29T15:46:15.225Z</time></trkpt><trkpt lat="40.06910638950798" lon="9.14759309953096"><ele>561.0</ele><time>2026-04-29T15:46:17.225Z</time></trkpt><trkpt lat="40.06921379877554" lon="9.147530746295036"><ele>562.0</ele><time>2026-04-29T15:46:19.225Z</time></trkpt><trkpt lat="40.069324160828955" lon="9.147511140799212"><ele>563.0</ele><time>2026-04-29T15:46:21.225Z</time></trkpt><trkpt lat="40.069397901082354" lon="9.147527405849567"><ele>564.0</ele><time>2026-04-29T15:46:22.225Z</time></trkpt><trkpt lat="40.069494204957124" lon="9.147533433307558"><ele>565.0</ele><time>2026-04-29T15:46:23.225Z</time></trkpt><trkpt lat="40.069605563461494" lon="9.147586005527693"><ele>565.0</ele><time>2026-04-29T15:46:24.225Z</time></trkpt><trkpt lat="40.06971930273254" lon="9.147640358371493"><ele>565.0</ele><time>2026-04-29T15:46:25.225Z</time></trkpt><trkpt lat="40.069839376683284" lon="9.147689400184772"><ele>565.0</ele><time>2026-04-29T15:46:26.225Z</time></trkpt><trkpt lat="40.06996709547402" lon="9.147735362335812"><ele>565.0</ele><time>2026-04-29T15:46:27.225Z</time></trkpt><trkpt lat="40.070094901799585" lon="9.147806974113609"><ele>565.5</ele><time>2026-04-29T15:46:28.225Z</time></trkpt><trkpt lat="40.070219945312104" lon="9.147866888225398"><ele>566.0</ele><time>2026-04-29T15:46:29.225Z</time></trkpt><trkpt lat="40.070340271046575" lon="9.147909144181625"><ele>566.5</ele><time>2026-04-29T15:46:30.225Z</time></trkpt><trkpt lat="40.07046725239577" lon="9.147885502213743"><ele>567.0</ele><time>2026-04-29T15:46:31.225Z</time></trkpt><trkpt lat="40.07060134006821" lon="9.147813487465342"><ele>567.0</ele><time>2026-04-29T15:46:32.225Z</time></trkpt><trkpt lat="40.07074879530596" lon="9.147722112155307"><ele>567.0</ele><time>2026-04-29T15:46:33.225Z</time></trkpt><trkpt lat="40.07090709548606" lon="9.147646582312516"><ele>567.0</ele><time>2026-04-29T15:46:34.225Z</time></trkpt><trkpt lat="40.071077361025104" lon="9.147581574458902"><ele>568.6666666666666</ele><time>2026-04-29T15:46:35.225Z</time></trkpt><trkpt lat="40.07125474066046" lon="9.147521898105097"><ele>570.3333333333333</ele><time>2026-04-29T15:46:36.225Z</time></trkpt><trkpt lat="40.07144677308196" lon="9.14747382135681"><ele>572.0</ele><time>2026-04-29T15:46:37.225Z</time></trkpt><trkpt lat="40.07164568884155" lon="9.14744597021198"><ele>568.0</ele><time>2026-04-29T15:46:38.225Z</time></trkpt><trkpt lat="40.07185092031683" lon="9.14741423425664"><ele>564.0</ele><time>2026-04-29T15:46:39.225Z</time></trkpt><trkpt lat="40.07205576996958" lon="9.147357486089463"><ele>560.0</ele><time>2026-04-29T15:46:40.225Z</time></trkpt><trkpt lat="40.072265202834785" lon="9.147282704272964"><ele>563.6666666666666</ele><time>2026-04-29T15:46:41.225Z</time></trkpt><trkpt lat="40.072472558472754" lon="9.147214235042744"><ele>567.3333333333334</ele><time>2026-04-29T15:46:42.225Z</time></trkpt><trkpt lat="40.07269346214234" lon="9.147166600484036"><ele>571.0</ele><time>2026-04-29T15:46:43.225Z</time></trkpt><trkpt lat="40.07293367211257" lon="9.147160668466746"><ele>571.0</ele><time>2026-04-29T15:46:44.225Z</time></trkpt><trkpt lat="40.07317596972681" lon="9.147192267821696"><ele>571.0</ele><time>2026-04-29T15:46:45.225Z</time></trkpt><trkpt lat="40.07340735307344" lon="9.147188457933849"><ele>574.3333333333334</ele><time>2026-04-29T15:46:46.225Z</time></trkpt><trkpt lat="40.0736092403499" lon="9.147102127279249"><ele>577.6666666666666</ele><time>2026-04-29T15:46:47.225Z</time></trkpt><trkpt lat="40.07381356750973" lon="9.146984086879662"><ele>581.0</ele><time>2026-04-29T15:46:48.225Z</time></trkpt><trkpt lat="40.07400428781097" lon="9.146857020009511"><ele>586.6666666666666</ele><time>2026-04-29T15:46:49.225Z</time></trkpt><trkpt lat="40.074167383975926" lon="9.146721933658045"><ele>592.3333333333334</ele><time>2026-04-29T15:46:50.225Z</time></trkpt><trkpt lat="40.07434375478712" lon="9.146645283690665"><ele>598.0</ele><time>2026-04-29T15:46:51.225Z</time></trkpt><trkpt lat="40.07455159761981" lon="9.146653192578048"><ele>598.0</ele><time>2026-04-29T15:46:52.225Z</time></trkpt><trkpt lat="40.07471233779845" lon="9.146607862487503"><ele>598.0</ele><time>2026-04-29T15:46:53.225Z</time></trkpt><trkpt lat="40.07487764960088" lon="9.146646818814265"><ele>598.0</ele><time>2026-04-29T15:46:54.225Z</time></trkpt><trkpt lat="40.07500996042658" lon="9.146757286716383"><ele>599.5</ele><time>2026-04-29T15:46:55.225Z</time></trkpt><trkpt lat="40.07511445287132" lon="9.146910255418806"><ele>601.0</ele><time>2026-04-29T15:46:56.225Z</time></trkpt><trkpt lat="40.075219003005195" lon="9.146988914887316"><ele>602.5</ele><time>2026-04-29T15:46:57.225Z</time></trkpt><trkpt lat="40.07533819258248" lon="9.146957238246891"><ele>604.0</ele><time>2026-04-29T15:46:58.225Z</time></trkpt><trkpt lat="40.0754475334666" lon="9.146846179949755"><ele>604.0</ele><time>2026-04-29T15:46:59.225Z</time></trkpt><trkpt lat="40.07549968518915" lon="9.146660324887895"><ele>604.0</ele><time>2026-04-29T15:47:00.225Z</time></trkpt><trkpt lat="40.07553470674346" lon="9.146446998435266"><ele>604.0</ele><time>2026-04-29T15:47:01.225Z</time></trkpt><trkpt lat="40.07565125880615" lon="9.146350054224598"><ele>600.3333333333334</ele><time>2026-04-29T15:47:02.225Z</time></trkpt><trkpt lat="40.07583377045822" lon="9.146316888626854"><ele>596.6666666666666</ele><time>2026-04-29T15:47:03.225Z</time></trkpt><trkpt lat="40.076034555933276" lon="9.146321092419697"><ele>593.0</ele><time>2026-04-29T15:47:04.225Z</time></trkpt><trkpt lat="40.076241909580894" lon="9.146331309695077"><ele>593.0</ele><time>2026-04-29T15:47:05.225Z</time></trkpt><trkpt lat="40.07645050327398" lon="9.146335292380838"><ele>593.0</ele><time>2026-04-29T15:47:06.225Z</time></trkpt><trkpt lat="40.07666389547596" lon="9.146329615051195"><ele>593.0</ele><time>2026-04-29T15:47:07.225Z</time></trkpt><trkpt lat="40.076883969052574" lon="9.146323497391194"><ele>595.0</ele><time>2026-04-29T15:47:08.225Z</time></trkpt><trkpt lat="40.07710570891843" lon="9.146318989160482"><ele>597.0</ele><time>2026-04-29T15:47:09.225Z</time></trkpt><trkpt lat="40.07731854458851" lon="9.146319328384488"><ele>599.0</ele><time>2026-04-29T15:47:10.225Z</time></trkpt><trkpt lat="40.07751351786604" lon="9.146358054737883"><ele>599.0</ele><time>2026-04-29T15:47:11.225Z</time></trkpt><trkpt lat="40.07769929821699" lon="9.146471986028322"><ele>599.0</ele><time>2026-04-29T15:47:12.225Z</time></trkpt><trkpt lat="40.077862029889744" lon="9.146647263198236"><ele>599.0</ele><time>2026-04-29T15:47:13.225Z</time></trkpt><trkpt lat="40.07799059216786" lon="9.146834675645866"><ele>604.3333333333333</ele><time>2026-04-29T15:47:14.225Z</time></trkpt><trkpt lat="40.07810304806217" lon="9.146980529754233"><ele>609.6666666666666</ele><time>2026-04-29T15:47:15.225Z</time></trkpt><trkpt lat="40.07822969879432" lon="9.147057078132445"><ele>615.0</ele><time>2026-04-29T15:47:16.225Z</time></trkpt><trkpt lat="40.07838358577713" lon="9.147032164462356"><ele>615.0</ele><time>2026-04-29T15:47:17.225Z</time></trkpt><trkpt lat="40.0785557875392" lon="9.146926181940119"><ele>615.0</ele><time>2026-04-29T15:47:18.225Z</time></trkpt><trkpt lat="40.07873268175462" lon="9.146825030963859"><ele>615.0</ele><time>2026-04-29T15:47:19.225Z</time></trkpt><trkpt lat="40.07893305847871" lon="9.146820708321908"><ele>616.0</ele><time>2026-04-29T15:47:20.225Z</time></trkpt><trkpt lat="40.07912858077038" lon="9.146884782257077"><ele>617.0</ele><time>2026-04-29T15:47:21.225Z</time></trkpt><trkpt lat="40.07931664794587" lon="9.146919134741742"><ele>618.0</ele><time>2026-04-29T15:47:22.225Z</time></trkpt><trkpt lat="40.07950280022017" lon="9.146856692203004"><ele>618.0</ele><time>2026-04-29T15:47:23.225Z</time></trkpt><trkpt lat="40.07968506173357" lon="9.146733197460097"><ele>618.0</ele><time>2026-04-29T15:47:24.225Z</time></trkpt><trkpt lat="40.07986965451578" lon="9.14659720219435"><ele>618.0</ele><time>2026-04-29T15:47:25.225Z</time></trkpt><trkpt lat="40.08005002111128" lon="9.146544185579224"><ele>622.0</ele><time>2026-04-29T15:47:26.225Z</time></trkpt><trkpt lat="40.08022298816553" lon="9.146562017272577"><ele>626.0</ele><time>2026-04-29T15:47:27.225Z</time></trkpt><trkpt lat="40.08037102862417" lon="9.146644068917112"><ele>630.0</ele><time>2026-04-29T15:47:28.225Z</time></trkpt><trkpt lat="40.080490278102445" lon="9.14676551480438"><ele>630.0</ele><time>2026-04-29T15:47:29.225Z</time></trkpt><trkpt lat="40.08059772105655" lon="9.146866580914578"><ele>630.0</ele><time>2026-04-29T15:47:30.225Z</time></trkpt><trkpt lat="40.08070994679922" lon="9.146952842690732"><ele>630.0</ele><time>2026-04-29T15:47:31.225Z</time></trkpt><trkpt lat="40.08083097946698" lon="9.147021697224302"><ele>630.0</ele><time>2026-04-29T15:47:32.225Z</time></trkpt><trkpt lat="40.080957098758944" lon="9.147074497741302"><ele>629.0</ele><time>2026-04-29T15:47:33.225Z</time></trkpt><trkpt lat="40.0810805325249" lon="9.147125634126166"><ele>628.0</ele><time>2026-04-29T15:47:34.225Z</time></trkpt><trkpt lat="40.08119916076946" lon="9.14714397202047"><ele>627.0</ele><time>2026-04-29T15:47:35.225Z</time></trkpt><trkpt lat="40.08131125033843" lon="9.147126587674581"><ele>626.0</ele><time>2026-04-29T15:47:36.225Z</time></trkpt><trkpt lat="40.08141863951901" lon="9.147075527742361"><ele>626.0</ele><time>2026-04-29T15:47:37.225Z</time></trkpt><trkpt lat="40.08153148246653" lon="9.147031612516791"><ele>626.0</ele><time>2026-04-29T15:47:38.225Z</time></trkpt><trkpt lat="40.08165284988941" lon="9.147008141966179"><ele>626.0</ele><time>2026-04-29T15:47:39.225Z</time></trkpt><trkpt lat="40.08177848945981" lon="9.147013686098436"><ele>626.0</ele><time>2026-04-29T15:47:40.225Z</time></trkpt><trkpt lat="40.08189235565273" lon="9.14705382024947"><ele>626.0</ele><time>2026-04-29T15:47:41.225Z</time></trkpt><trkpt lat="40.08200330994205" lon="9.14712176279397"><ele>626.0</ele><time>2026-04-29T15:47:42.225Z</time></trkpt><trkpt lat="40.08210335951919" lon="9.14719082783191"><ele>626.0</ele><time>2026-04-29T15:47:43.225Z</time></trkpt><trkpt lat="40.08221378798049" lon="9.147226400832542"><ele>626.0</ele><time>2026-04-29T15:47:44.225Z</time></trkpt><trkpt lat="40.082323301760326" lon="9.14722730171058"><ele>628.5</ele><time>2026-04-29T15:47:45.225Z</time></trkpt><trkpt lat="40.0824415969361" lon="9.147202777964543"><ele>631.0</ele><time>2026-04-29T15:47:46.225Z</time></trkpt><trkpt lat="40.08256061594307" lon="9.147165540499431"><ele>633.5</ele><time>2026-04-29T15:47:47.225Z</time></trkpt><trkpt lat="40.082661715397556" lon="9.147112227137848"><ele>636.0</ele><time>2026-04-29T15:47:48.225Z</time></trkpt><trkpt lat="40.08275051482622" lon="9.14701881099785"><ele>636.0</ele><time>2026-04-29T15:47:49.225Z</time></trkpt><trkpt lat="40.08282642780452" lon="9.146902023225374"><ele>636.0</ele><time>2026-04-29T15:47:50.225Z</time></trkpt><trkpt lat="40.08287858251851" lon="9.146772897217335"><ele>636.0</ele><time>2026-04-29T15:47:51.225Z</time></trkpt><trkpt lat="40.082923976537096" lon="9.14663680320036"><ele>636.0</ele><time>2026-04-29T15:47:52.225Z</time></trkpt><trkpt lat="40.082984742571725" lon="9.14650184910628"><ele>637.6666666666666</ele><time>2026-04-29T15:47:53.225Z</time></trkpt><trkpt lat="40.0830760408782" lon="9.146384149868702"><ele>639.3333333333333</ele><time>2026-04-29T15:47:54.225Z</time></trkpt><trkpt lat="40.08319520753558" lon="9.146268644063284"><ele>641.0</ele><time>2026-04-29T15:47:55.225Z</time></trkpt><trkpt lat="40.08336859022116" lon="9.14612629403034"><ele>641.0</ele><time>2026-04-29T15:47:56.225Z</time></trkpt><trkpt lat="40.083575709993866" lon="9.145964221565185"><ele>641.0</ele><time>2026-04-29T15:47:57.225Z</time></trkpt><trkpt lat="40.083765017173185" lon="9.145761521398914"><ele>639.3333333333333</ele><time>2026-04-29T15:47:58.225Z</time></trkpt><trkpt lat="40.0839417539534" lon="9.145575406433265"><ele>637.6666666666666</ele><time>2026-04-29T15:47:59.225Z</time></trkpt><trkpt lat="40.084106321381846" lon="9.145415569745214"><ele>636.0</ele><time>2026-04-29T15:48:00.225Z</time></trkpt><trkpt lat="40.084284323906026" lon="9.145315815662205"><ele>636.0</ele><time>2026-04-29T15:48:01.225Z</time></trkpt><trkpt lat="40.084487945243566" lon="9.145280739347331"><ele>636.0</ele><time>2026-04-29T15:48:02.225Z</time></trkpt><trkpt lat="40.08470563274868" lon="9.145336790385251"><ele>636.0</ele><time>2026-04-29T15:48:03.225Z</time></trkpt><trkpt lat="40.084927573179755" lon="9.145402852611662"><ele>636.6666666666666</ele><time>2026-04-29T15:48:04.225Z</time></trkpt><trkpt lat="40.085130791931384" lon="9.145383492832885"><ele>637.3333333333333</ele><time>2026-04-29T15:48:05.225Z</time></trkpt><trkpt lat="40.08531063645558" lon="9.145344654260509"><ele>638.0</ele><time>2026-04-29T15:48:06.225Z</time></trkpt><trkpt lat="40.08547665061874" lon="9.145455522205113"><ele>638.0</ele><time>2026-04-29T15:48:07.225Z</time></trkpt><trkpt lat="40.085657943991016" lon="9.14557666054604"><ele>638.0</ele><time>2026-04-29T15:48:08.224Z</time></trkpt><trkpt lat="40.085847080281724" lon="9.14567264414298"><ele>638.0</ele><time>2026-04-29T15:48:09.224Z</time></trkpt><trkpt lat="40.08604261001844" lon="9.145778103373356"><ele>648.3333333333333</ele><time>2026-04-29T15:48:10.224Z</time></trkpt><trkpt lat="40.08622204987876" lon="9.145909137062525"><ele>658.6666666666666</ele><time>2026-04-29T15:48:11.226Z</time></trkpt><trkpt lat="40.086382171226106" lon="9.146095146699633"><ele>669.0</ele><time>2026-04-29T15:48:12.226Z</time></trkpt><trkpt lat="40.08653667422089" lon="9.146252007690768"><ele>661.6666666666666</ele><time>2026-04-29T15:48:13.226Z</time></trkpt><trkpt lat="40.08671737420557" lon="9.146346824686566"><ele>654.3333333333333</ele><time>2026-04-29T15:48:14.226Z</time></trkpt><trkpt lat="40.08692525931834" lon="9.146393898110128"><ele>647.0</ele><time>2026-04-29T15:48:15.226Z</time></trkpt><trkpt lat="40.08711172512136" lon="9.14647424854752"><ele>647.0</ele><time>2026-04-29T15:48:16.226Z</time></trkpt><trkpt lat="40.08727482018192" lon="9.146517148484518"><ele>647.0</ele><time>2026-04-29T15:48:17.226Z</time></trkpt><trkpt lat="40.08743255332624" lon="9.146439633414397"><ele>647.0</ele><time>2026-04-29T15:48:18.226Z</time></trkpt><trkpt lat="40.08758536223568" lon="9.146279368766248"><ele>648.6666666666666</ele><time>2026-04-29T15:48:19.226Z</time></trkpt><trkpt lat="40.08776427102181" lon="9.14611734301564"><ele>650.3333333333334</ele><time>2026-04-29T15:48:20.226Z</time></trkpt><trkpt lat="40.087968289482085" lon="9.146025295137607"><ele>652.0</ele><time>2026-04-29T15:48:21.225Z</time></trkpt><trkpt lat="40.088165364852465" lon="9.14601735188172"><ele>655.6666666666667</ele><time>2026-04-29T15:48:22.225Z</time></trkpt><trkpt lat="40.08834881497926" lon="9.14607455433661"><ele>659.3333333333334</ele><time>2026-04-29T15:48:23.226Z</time></trkpt><trkpt lat="40.08854605736786" lon="9.146210639094743"><ele>663.0</ele><time>2026-04-29T15:48:24.226Z</time></trkpt><trkpt lat="40.088731313830856" lon="9.146377211518944"><ele>668.6666666666666</ele><time>2026-04-29T15:48:25.226Z</time></trkpt><trkpt lat="40.088887881666174" lon="9.14658157642767"><ele>674.3333333333333</ele><time>2026-04-29T15:48:26.226Z</time></trkpt><trkpt lat="40.08901184334435" lon="9.146821720310944"><ele>680.0</ele><time>2026-04-29T15:48:27.226Z</time></trkpt><trkpt lat="40.08914847836921" lon="9.147027370554774"><ele>680.0</ele><time>2026-04-29T15:48:28.226Z</time></trkpt><trkpt lat="40.08932625145481" lon="9.147193589495302"><ele>680.0</ele><time>2026-04-29T15:48:29.226Z</time></trkpt><trkpt lat="40.08952662257526" lon="9.14728438094101"><ele>680.0</ele><time>2026-04-29T15:48:30.226Z</time></trkpt><trkpt lat="40.089737483907776" lon="9.147362087844078"><ele>684.0</ele><time>2026-04-29T15:48:31.226Z</time></trkpt><trkpt lat="40.08994361705299" lon="9.147439047665191"><ele>688.0</ele><time>2026-04-29T15:48:32.226Z</time></trkpt><trkpt lat="40.09013099225135" lon="9.147577944339483"><ele>692.0</ele><time>2026-04-29T15:48:33.226Z</time></trkpt><trkpt lat="40.09027679960145" lon="9.147713074969163"><ele>692.0</ele><time>2026-04-29T15:48:34.226Z</time></trkpt><trkpt lat="40.09039723938119" lon="9.14785533600949"><ele>692.0</ele><time>2026-04-29T15:48:35.226Z</time></trkpt><trkpt lat="40.090464159123265" lon="9.148027720742046"><ele>692.0</ele><time>2026-04-29T15:48:36.226Z</time></trkpt><trkpt lat="40.090482797058876" lon="9.148251140416676"><ele>696.6666666666666</ele><time>2026-04-29T15:48:37.226Z</time></trkpt><trkpt lat="40.09047012541189" lon="9.14848166519052"><ele>701.3333333333334</ele><time>2026-04-29T15:48:38.226Z</time></trkpt><trkpt lat="40.090427412832824" lon="9.14872707573219"><ele>706.0</ele><time>2026-04-29T15:48:39.226Z</time></trkpt><trkpt lat="40.090387445928556" lon="9.148963629944824"><ele>707.3333333333334</ele><time>2026-04-29T15:48:40.226Z</time></trkpt><trkpt lat="40.09041227960427" lon="9.1491867430425"><ele>708.6666666666666</ele><time>2026-04-29T15:48:41.226Z</time></trkpt><trkpt lat="40.090482487670535" lon="9.149420383537194"><ele>710.0</ele><time>2026-04-29T15:48:42.226Z</time></trkpt><trkpt lat="40.0905693853603" lon="9.149663373512293"><ele>712.6666666666666</ele><time>2026-04-29T15:48:43.226Z</time></trkpt><trkpt lat="40.090665202130424" lon="9.149908535805698"><ele>715.3333333333334</ele><time>2026-04-29T15:48:44.226Z</time></trkpt><trkpt lat="40.09077294674969" lon="9.15012980567324"><ele>718.0</ele><time>2026-04-29T15:48:45.226Z</time></trkpt><trkpt lat="40.09087850602157" lon="9.150336343577916"><ele>712.6666666666667</ele><time>2026-04-29T15:48:46.226Z</time></trkpt><trkpt lat="40.090937874449615" lon="9.150559129748917"><ele>707.3333333333334</ele><time>2026-04-29T15:48:47.226Z</time></trkpt><trkpt lat="40.090944177568595" lon="9.150797740980972"><ele>702.0</ele><time>2026-04-29T15:48:48.226Z</time></trkpt><trkpt lat="40.09089530113242" lon="9.151005283218797"><ele>702.0</ele><time>2026-04-29T15:48:49.226Z</time></trkpt><trkpt lat="40.090778965581016" lon="9.1511705268508"><ele>702.0</ele><time>2026-04-29T15:48:50.226Z</time></trkpt><trkpt lat="40.090623088864035" lon="9.151310633595292"><ele>702.0</ele><time>2026-04-29T15:48:51.226Z</time></trkpt><trkpt lat="40.090453743004986" lon="9.151448651873162"><ele>702.0</ele><time>2026-04-29T15:48:52.226Z</time></trkpt><trkpt lat="40.09027420670235" lon="9.151582643072924"><ele>702.0</ele><time>2026-04-29T15:48:53.226Z</time></trkpt><trkpt lat="40.090187830747695" lon="9.151739364356297"><ele>702.0</ele><time>2026-04-29T15:48:54.226Z</time></trkpt><trkpt lat="40.0899916121966" lon="9.15186759510839"><ele>710.0</ele><time>2026-04-29T15:48:55.226Z</time></trkpt><trkpt lat="40.08979349927239" lon="9.1520003329775"><ele>718.0</ele><time>2026-04-29T15:48:56.226Z</time></trkpt><trkpt lat="40.08959380261334" lon="9.152142266638684"><ele>718.0</ele><time>2026-04-29T15:48:57.226Z</time></trkpt><trkpt lat="40.08938762341653" lon="9.152275056567335"><ele>718.0</ele><time>2026-04-29T15:48:58.226Z</time></trkpt><trkpt lat="40.08918214272868" lon="9.152408297473539"><ele>717.5</ele><time>2026-04-29T15:48:59.226Z</time></trkpt><trkpt lat="40.08898795144471" lon="9.152559549435713"><ele>717.0</ele><time>2026-04-29T15:49:00.226Z</time></trkpt><trkpt lat="40.0888191207426" lon="9.152763246717495"><ele>717.0</ele><time>2026-04-29T15:49:01.226Z</time></trkpt><trkpt lat="40.08866793837793" lon="9.152982448257402"><ele>717.0</ele><time>2026-04-29T15:49:02.226Z</time></trkpt><trkpt lat="40.08852768629786" lon="9.153179523566179"><ele>717.0</ele><time>2026-04-29T15:49:03.226Z</time></trkpt><trkpt lat="40.08840428299125" lon="9.153348560594939"><ele>713.3333333333334</ele><time>2026-04-29T15:49:04.226Z</time></trkpt><trkpt lat="40.08832305561711" lon="9.153544832316076"><ele>709.6666666666667</ele><time>2026-04-29T15:49:05.226Z</time></trkpt><trkpt lat="40.08831714891691" lon="9.153788193785054"><ele>706.0</ele><time>2026-04-29T15:49:06.226Z</time></trkpt><trkpt lat="40.08833621895098" lon="9.154047394240829"><ele>704.6666666666667</ele><time>2026-04-29T15:49:07.226Z</time></trkpt><trkpt lat="40.08834424542066" lon="9.154320280170554"><ele>703.3333333333334</ele><time>2026-04-29T15:49:08.226Z</time></trkpt><trkpt lat="40.08834471583135" lon="9.15459700283599"><ele>702.0</ele><time>2026-04-29T15:49:09.226Z</time></trkpt><trkpt lat="40.0883426778304" lon="9.154820871797305"><ele>700.3333333333334</ele><time>2026-04-29T15:49:10.226Z</time></trkpt><trkpt lat="40.0883105920254" lon="9.155007032470305"><ele>698.6666666666667</ele><time>2026-04-29T15:49:11.226Z</time></trkpt><trkpt lat="40.08820942700806" lon="9.155157216167192"><ele>697.0</ele><time>2026-04-29T15:49:12.226Z</time></trkpt><trkpt lat="40.08803769059506" lon="9.155225175602359"><ele>700.0</ele><time>2026-04-29T15:49:13.226Z</time></trkpt><trkpt lat="40.087875998414965" lon="9.155242191235743"><ele>703.0</ele><time>2026-04-29T15:49:14.226Z</time></trkpt><trkpt lat="40.087764753434065" lon="9.155338846830123"><ele>706.0</ele><time>2026-04-29T15:49:15.226Z</time></trkpt><trkpt lat="40.08770727673098" lon="9.155514090627348"><ele>709.0</ele><time>2026-04-29T15:49:16.226Z</time></trkpt><trkpt lat="40.0877321630295" lon="9.155725476076146"><ele>709.0</ele><time>2026-04-29T15:49:17.226Z</time></trkpt><trkpt lat="40.087835178291506" lon="9.155950232639126"><ele>709.0</ele><time>2026-04-29T15:49:18.226Z</time></trkpt><trkpt lat="40.08795020838738" lon="9.156180940316835"><ele>709.0</ele><time>2026-04-29T15:49:19.226Z</time></trkpt><trkpt lat="40.08805334131692" lon="9.156387914317738"><ele>706.6666666666667</ele><time>2026-04-29T15:49:20.226Z</time></trkpt><trkpt lat="40.088181422849594" lon="9.156563602815432"><ele>704.3333333333334</ele><time>2026-04-29T15:49:21.226Z</time></trkpt><trkpt lat="40.088305588071286" lon="9.15675036354804"><ele>702.0</ele><time>2026-04-29T15:49:22.226Z</time></trkpt><trkpt lat="40.08837271502245" lon="9.156933751142233"><ele>702.0</ele><time>2026-04-29T15:49:23.226Z</time></trkpt><trkpt lat="40.08843484984233" lon="9.157070828259425"><ele>702.0</ele><time>2026-04-29T15:49:24.226Z</time></trkpt><trkpt lat="40.088538349336474" lon="9.157121469422307"><ele>702.0</ele><time>2026-04-29T15:49:25.226Z</time></trkpt><trkpt lat="40.088682750554" lon="9.157078363717014"><ele>702.0</ele><time>2026-04-29T15:49:26.226Z</time></trkpt><trkpt lat="40.08885778620039" lon="9.156893608371405"><ele>702.0</ele><time>2026-04-29T15:49:27.226Z</time></trkpt><trkpt lat="40.08903894837418" lon="9.156753507002351"><ele>702.0</ele><time>2026-04-29T15:49:28.226Z</time></trkpt><trkpt lat="40.08921638692645" lon="9.156660063600862"><ele>702.0</ele><time>2026-04-29T15:49:29.226Z</time></trkpt><trkpt lat="40.08939602639282" lon="9.156626714224277"><ele>701.3333333333334</ele><time>2026-04-29T15:49:30.226Z</time></trkpt><trkpt lat="40.08958441266705" lon="9.156660947869648"><ele>700.6666666666667</ele><time>2026-04-29T15:49:31.226Z</time></trkpt><trkpt lat="40.08977232678448" lon="9.15673823357487"><ele>700.0</ele><time>2026-04-29T15:49:32.226Z</time></trkpt><trkpt lat="40.08994812876091" lon="9.156797578018985"><ele>699.0</ele><time>2026-04-29T15:49:33.226Z</time></trkpt><trkpt lat="40.090137566066055" lon="9.156844314703422"><ele>698.0</ele><time>2026-04-29T15:49:34.226Z</time></trkpt><trkpt lat="40.090346583053424" lon="9.156861922040912"><ele>697.0</ele><time>2026-04-29T15:49:35.226Z</time></trkpt><trkpt lat="40.09053988992607" lon="9.156880048018463"><ele>697.0</ele><time>2026-04-29T15:49:36.226Z</time></trkpt><trkpt lat="40.09073003135666" lon="9.156878969299088"><ele>697.0</ele><time>2026-04-29T15:49:37.226Z</time></trkpt><trkpt lat="40.090919386793104" lon="9.156845446723551"><ele>697.0</ele><time>2026-04-29T15:49:38.226Z</time></trkpt><trkpt lat="40.09110051514012" lon="9.156786850519099"><ele>697.3333333333334</ele><time>2026-04-29T15:49:39.226Z</time></trkpt><trkpt lat="40.09125901888223" lon="9.156740419987498"><ele>697.6666666666666</ele><time>2026-04-29T15:49:40.226Z</time></trkpt><trkpt lat="40.09143095995611" lon="9.156756154001654"><ele>698.0</ele><time>2026-04-29T15:49:41.226Z</time></trkpt><trkpt lat="40.091604072328884" lon="9.156840700694392"><ele>698.0</ele><time>2026-04-29T15:49:42.225Z</time></trkpt><trkpt lat="40.091771269194446" lon="9.15691496159909"><ele>698.0</ele><time>2026-04-29T15:49:43.225Z</time></trkpt><trkpt lat="40.09192675899038" lon="9.15696060254727"><ele>698.0</ele><time>2026-04-29T15:49:44.225Z</time></trkpt><trkpt lat="40.09207912872993" lon="9.157013629408539"><ele>698.0</ele><time>2026-04-29T15:49:45.225Z</time></trkpt><trkpt lat="40.09223401261783" lon="9.157016179576015"><ele>698.0</ele><time>2026-04-29T15:49:46.225Z</time></trkpt><trkpt lat="40.092388951135426" lon="9.157023308719602"><ele>698.0</ele><time>2026-04-29T15:49:47.225Z</time></trkpt><trkpt lat="40.09254593881874" lon="9.157046811793526"><ele>698.0</ele><time>2026-04-29T15:49:48.225Z</time></trkpt><trkpt lat="40.09270477339059" lon="9.157069559415351"><ele>698.0</ele><time>2026-04-29T15:49:49.225Z</time></trkpt><trkpt lat="40.09284242585153" lon="9.157056769612298"><ele>698.0</ele><time>2026-04-29T15:49:50.225Z</time></trkpt><trkpt lat="40.092988624669026" lon="9.156975937116622"><ele>698.0</ele><time>2026-04-29T15:49:51.225Z</time></trkpt><trkpt lat="40.09311830228103" lon="9.156853846972735"><ele>698.0</ele><time>2026-04-29T15:49:52.225Z</time></trkpt><trkpt lat="40.09325865176427" lon="9.156744215358273"><ele>698.0</ele><time>2026-04-29T15:49:53.225Z</time></trkpt><trkpt lat="40.09342122007627" lon="9.156692043887897"><ele>699.3333333333333</ele><time>2026-04-29T15:49:54.225Z</time></trkpt><trkpt lat="40.09359435309714" lon="9.156703987063253"><ele>700.6666666666666</ele><time>2026-04-29T15:49:55.225Z</time></trkpt><trkpt lat="40.093757609514824" lon="9.156759083538303"><ele>702.0</ele><time>2026-04-29T15:49:56.225Z</time></trkpt><trkpt lat="40.09391076537379" lon="9.15684414987305"><ele>702.0</ele><time>2026-04-29T15:49:57.225Z</time></trkpt><trkpt lat="40.09404328107285" lon="9.156965839357651"><ele>702.0</ele><time>2026-04-29T15:49:58.225Z</time></trkpt><trkpt lat="40.09416326667421" lon="9.157101252145345"><ele>702.0</ele><time>2026-04-29T15:49:59.225Z</time></trkpt><trkpt lat="40.094300864350714" lon="9.157189939622134"><ele>700.25</ele><time>2026-04-29T15:50:00.225Z</time></trkpt><trkpt lat="40.09444133236057" lon="9.15723846224194"><ele>698.5</ele><time>2026-04-29T15:50:01.225Z</time></trkpt><trkpt lat="40.09454961666589" lon="9.157312518134376"><ele>696.75</ele><time>2026-04-29T15:50:02.225Z</time></trkpt><trkpt lat="40.09460128486036" lon="9.157462597195167"><ele>695.0</ele><time>2026-04-29T15:50:03.225Z</time></trkpt><trkpt lat="40.094617782046946" lon="9.157630645684227"><ele>697.4</ele><time>2026-04-29T15:50:04.225Z</time></trkpt><trkpt lat="40.094634493093984" lon="9.15777762625796"><ele>699.8</ele><time>2026-04-29T15:50:05.225Z</time></trkpt><trkpt lat="40.09463864079839" lon="9.157905868975144"><ele>702.2</ele><time>2026-04-29T15:50:06.225Z</time></trkpt><trkpt lat="40.09465018398752" lon="9.158020410002257"><ele>704.6</ele><time>2026-04-29T15:50:07.225Z</time></trkpt><trkpt lat="40.0946430124175" lon="9.158148647839422"><ele>707.0</ele><time>2026-04-29T15:50:08.225Z</time></trkpt><trkpt lat="40.09461915641628" lon="9.15828168123348"><ele>707.0</ele><time>2026-04-29T15:50:09.225Z</time></trkpt><trkpt lat="40.09459768206441" lon="9.158408663805183"><ele>707.0</ele><time>2026-04-29T15:50:10.225Z</time></trkpt><trkpt lat="40.09457670478422" lon="9.158544773332292"><ele>707.0</ele><time>2026-04-29T15:50:11.225Z</time></trkpt><trkpt lat="40.094563659700945" lon="9.158676902456326"><ele>707.0</ele><time>2026-04-29T15:50:12.225Z</time></trkpt><trkpt lat="40.09454858026474" lon="9.158810657276861"><ele>707.0</ele><time>2026-04-29T15:50:13.225Z</time></trkpt><trkpt lat="40.09452466652551" lon="9.158933530270122"><ele>707.4000000000001</ele><time>2026-04-29T15:50:14.225Z</time></trkpt><trkpt lat="40.094499658321084" lon="9.15916266463823"><ele>707.8000000000001</ele><time>2026-04-29T15:50:16.225Z</time></trkpt><trkpt lat="40.094518407272" lon="9.159275834899917"><ele>708.2</ele><time>2026-04-29T15:50:17.227Z</time></trkpt><trkpt lat="40.094538855998316" lon="9.159377869820247"><ele>708.6</ele><time>2026-04-29T15:50:18.226Z</time></trkpt><trkpt lat="40.094600250648156" lon="9.15948428684659"><ele>709.0</ele><time>2026-04-29T15:50:19.226Z</time></trkpt><trkpt lat="40.09465770800227" lon="9.159605328131242"><ele>709.0</ele><time>2026-04-29T15:50:20.227Z</time></trkpt><trkpt lat="40.094706898627464" lon="9.15971776288543"><ele>709.0</ele><time>2026-04-29T15:50:21.227Z</time></trkpt><trkpt lat="40.09475782386725" lon="9.159847587693324"><ele>709.0</ele><time>2026-04-29T15:50:22.227Z</time></trkpt><trkpt lat="40.09481091267136" lon="9.159963616675894"><ele>709.0</ele><time>2026-04-29T15:50:23.227Z</time></trkpt><trkpt lat="40.09485969415978" lon="9.160085375920145"><ele>709.0</ele><time>2026-04-29T15:50:24.227Z</time></trkpt><trkpt lat="40.094909064073164" lon="9.160212702891263"><ele>710.6</ele><time>2026-04-29T15:50:25.227Z</time></trkpt><trkpt lat="40.0949522394104" lon="9.160332403016637"><ele>712.2</ele><time>2026-04-29T15:50:26.227Z</time></trkpt><trkpt lat="40.094998147717654" lon="9.160452395233763"><ele>713.8000000000001</ele><time>2026-04-29T15:50:27.227Z</time></trkpt><trkpt lat="40.0950224838532" lon="9.16058191780403"><ele>715.4000000000001</ele><time>2026-04-29T15:50:28.227Z</time></trkpt><trkpt lat="40.09502983426196" lon="9.16071609958067"><ele>717.0</ele><time>2026-04-29T15:50:29.227Z</time></trkpt><trkpt lat="40.095029838675316" lon="9.160837616432682"><ele>717.6</ele><time>2026-04-29T15:50:30.226Z</time></trkpt><trkpt lat="40.09501683278671" lon="9.160941351739437"><ele>718.2</ele><time>2026-04-29T15:50:31.226Z</time></trkpt><trkpt lat="40.09499466213119" lon="9.161052726079781"><ele>718.8</ele><time>2026-04-29T15:50:32.226Z</time></trkpt><trkpt lat="40.094972894362634" lon="9.161177699879756"><ele>719.4</ele><time>2026-04-29T15:50:33.226Z</time></trkpt><trkpt lat="40.09495499280446" lon="9.161300916996279"><ele>720.0</ele><time>2026-04-29T15:50:34.226Z</time></trkpt><trkpt lat="40.09492276364469" lon="9.161424502953313"><ele>719.4</ele><time>2026-04-29T15:50:35.226Z</time></trkpt><trkpt lat="40.09488599343697" lon="9.161551698288074"><ele>718.8</ele><time>2026-04-29T15:50:36.226Z</time></trkpt><trkpt lat="40.09484977518424" lon="9.1616771706914"><ele>718.2</ele><time>2026-04-29T15:50:37.226Z</time></trkpt><trkpt lat="40.09481445638007" lon="9.161796777708961"><ele>717.6</ele><time>2026-04-29T15:50:38.226Z</time></trkpt><trkpt lat="40.0947944404903" lon="9.161936162491996"><ele>717.0</ele><time>2026-04-29T15:50:39.226Z</time></trkpt><trkpt lat="40.09480419062081" lon="9.162071624709762"><ele>717.0</ele><time>2026-04-29T15:50:40.226Z</time></trkpt><trkpt lat="40.094815382163695" lon="9.162217367771278"><ele>717.0</ele><time>2026-04-29T15:50:41.226Z</time></trkpt><trkpt lat="40.09485225388651" lon="9.162347575052042"><ele>717.0</ele><time>2026-04-29T15:50:42.226Z</time></trkpt><trkpt lat="40.0948885113662" lon="9.162483213543323"><ele>717.0</ele><time>2026-04-29T15:50:43.226Z</time></trkpt><trkpt lat="40.09491775410741" lon="9.162622131250778"><ele>717.0</ele><time>2026-04-29T15:50:44.226Z</time></trkpt><trkpt lat="40.09494784579311" lon="9.162754010019674"><ele>719.0</ele><time>2026-04-29T15:50:45.226Z</time></trkpt><trkpt lat="40.09498279028717" lon="9.162888624878294"><ele>721.0</ele><time>2026-04-29T15:50:46.226Z</time></trkpt><trkpt lat="40.095016626726675" lon="9.163025182351314"><ele>723.0</ele><time>2026-04-29T15:50:47.226Z</time></trkpt><trkpt lat="40.095044218874726" lon="9.163160755987649"><ele>725.0</ele><time>2026-04-29T15:50:48.226Z</time></trkpt><trkpt lat="40.0950894616735" lon="9.163305453281204"><ele>727.0</ele><time>2026-04-29T15:50:49.226Z</time></trkpt><trkpt lat="40.09512357220224" lon="9.163447666658982"><ele>728.0</ele><time>2026-04-29T15:50:50.226Z</time></trkpt><trkpt lat="40.09515694248869" lon="9.163582125398042"><ele>729.0</ele><time>2026-04-29T15:50:51.226Z</time></trkpt><trkpt lat="40.09519591878592" lon="9.16372190661594"><ele>730.0</ele><time>2026-04-29T15:50:52.226Z</time></trkpt><trkpt lat="40.09522312683741" lon="9.16386752499188"><ele>731.0</ele><time>2026-04-29T15:50:53.226Z</time></trkpt><trkpt lat="40.09523608138973" lon="9.164020327679026"><ele>731.8</ele><time>2026-04-29T15:50:54.226Z</time></trkpt><trkpt lat="40.095245125124336" lon="9.164131438308193"><ele>732.5999999999999</ele><time>2026-04-29T15:50:55.226Z</time></trkpt><trkpt lat="40.09522598186911" lon="9.164255543193628"><ele>733.4</ele><time>2026-04-29T15:50:56.226Z</time></trkpt><trkpt lat="40.095168088024515" lon="9.164373936491018"><ele>734.2</ele><time>2026-04-29T15:50:57.226Z</time></trkpt><trkpt lat="40.09509453083003" lon="9.164489643385176"><ele>735.0</ele><time>2026-04-29T15:50:58.226Z</time></trkpt><trkpt lat="40.09501355352287" lon="9.164601649273356"><ele>735.0</ele><time>2026-04-29T15:50:59.226Z</time></trkpt><trkpt lat="40.094941133907646" lon="9.164733950491808"><ele>735.0</ele><time>2026-04-29T15:51:00.226Z</time></trkpt><trkpt lat="40.09488630816658" lon="9.164876394865214"><ele>735.0</ele><time>2026-04-29T15:51:01.226Z</time></trkpt><trkpt lat="40.094844085486045" lon="9.165030333585827"><ele>735.0</ele><time>2026-04-29T15:51:02.226Z</time></trkpt><trkpt lat="40.09481846815599" lon="9.165190055051712"><ele>736.25</ele><time>2026-04-29T15:51:03.226Z</time></trkpt><trkpt lat="40.094788461204445" lon="9.165335495260113"><ele>737.5</ele><time>2026-04-29T15:51:04.226Z</time></trkpt><trkpt lat="40.094752289730465" lon="9.165473829626423"><ele>738.75</ele><time>2026-04-29T15:51:05.226Z</time></trkpt><trkpt lat="40.09469597339119" lon="9.165595280018835"><ele>740.0</ele><time>2026-04-29T15:51:06.226Z</time></trkpt><trkpt lat="40.09461826864035" lon="9.165704209049558"><ele>740.8</ele><time>2026-04-29T15:51:07.226Z</time></trkpt><trkpt lat="40.09452009007059" lon="9.165779761918978"><ele>741.6</ele><time>2026-04-29T15:51:08.226Z</time></trkpt><trkpt lat="40.09441498956989" lon="9.165836351054837"><ele>742.4000000000001</ele><time>2026-04-29T15:51:09.226Z</time></trkpt><trkpt lat="40.09431457424539" lon="9.165901995459539"><ele>743.2</ele><time>2026-04-29T15:51:10.226Z</time></trkpt><trkpt lat="40.09423308690637" lon="9.165983914307697"><ele>744.0</ele><time>2026-04-29T15:51:11.226Z</time></trkpt><trkpt lat="40.09418460262918" lon="9.16609998693653"><ele>744.0</ele><time>2026-04-29T15:51:12.226Z</time></trkpt><trkpt lat="40.09417628718311" lon="9.166243847654933"><ele>744.0</ele><time>2026-04-29T15:51:13.226Z</time></trkpt><trkpt lat="40.09420290723642" lon="9.166401987872096"><ele>744.0</ele><time>2026-04-29T15:51:14.226Z</time></trkpt><trkpt lat="40.094219705429" lon="9.166547821529704"><ele>744.0</ele><time>2026-04-29T15:51:15.226Z</time></trkpt><trkpt lat="40.0942055699637" lon="9.166696384802137"><ele>744.5</ele><time>2026-04-29T15:51:16.226Z</time></trkpt><trkpt lat="40.09417926645164" lon="9.166844449266737"><ele>745.0</ele><time>2026-04-29T15:51:17.226Z</time></trkpt><trkpt lat="40.09413300454983" lon="9.166991360225007"><ele>745.5</ele><time>2026-04-29T15:51:18.226Z</time></trkpt><trkpt lat="40.09409218289071" lon="9.16714982118898"><ele>746.0</ele><time>2026-04-29T15:51:19.226Z</time></trkpt><trkpt lat="40.09407500688082" lon="9.16731813346477"><ele>748.25</ele><time>2026-04-29T15:51:20.226Z</time></trkpt><trkpt lat="40.094091764779584" lon="9.167487235952803"><ele>750.5</ele><time>2026-04-29T15:51:21.226Z</time></trkpt><trkpt lat="40.094126795654326" lon="9.16764699292846"><ele>752.75</ele><time>2026-04-29T15:51:22.226Z</time></trkpt><trkpt lat="40.094151580892145" lon="9.167796033158256"><ele>755.0</ele><time>2026-04-29T15:51:23.226Z</time></trkpt><trkpt lat="40.09413073754705" lon="9.167930580609431"><ele>754.6</ele><time>2026-04-29T15:51:24.226Z</time></trkpt><trkpt lat="40.094080418346515" lon="9.168051324798867"><ele>754.2</ele><time>2026-04-29T15:51:25.226Z</time></trkpt><trkpt lat="40.09399394368366" lon="9.16815252274943"><ele>753.8</ele><time>2026-04-29T15:51:26.226Z</time></trkpt><trkpt lat="40.09389678512598" lon="9.168230386753873"><ele>753.4</ele><time>2026-04-29T15:51:27.226Z</time></trkpt><trkpt lat="40.093809546740076" lon="9.168321230309182"><ele>753.0</ele><time>2026-04-29T15:51:28.226Z</time></trkpt><trkpt lat="40.09372954677434" lon="9.168442188646198"><ele>753.25</ele><time>2026-04-29T15:51:29.226Z</time></trkpt><trkpt lat="40.09367378137123" lon="9.168591339712947"><ele>753.5</ele><time>2026-04-29T15:51:30.226Z</time></trkpt><trkpt lat="40.093662495166726" lon="9.168775568151895"><ele>753.75</ele><time>2026-04-29T15:51:31.226Z</time></trkpt><trkpt lat="40.09368839341213" lon="9.168957524209498"><ele>754.0</ele><time>2026-04-29T15:51:32.226Z</time></trkpt><trkpt lat="40.093739827064915" lon="9.16912607317893"><ele>754.0</ele><time>2026-04-29T15:51:33.226Z</time></trkpt><trkpt lat="40.093774590557885" lon="9.169282538743824"><ele>754.0</ele><time>2026-04-29T15:51:34.226Z</time></trkpt><trkpt lat="40.09380159036545" lon="9.169443447008838"><ele>754.0</ele><time>2026-04-29T15:51:35.226Z</time></trkpt><trkpt lat="40.093844436432136" lon="9.16960824085145"><ele>754.0</ele><time>2026-04-29T15:51:36.226Z</time></trkpt><trkpt lat="40.09389927708994" lon="9.169771598920226"><ele>753.25</ele><time>2026-04-29T15:51:37.226Z</time></trkpt><trkpt lat="40.093963238008705" lon="9.16993430409446"><ele>752.5</ele><time>2026-04-29T15:51:38.226Z</time></trkpt><trkpt lat="40.094033851743106" lon="9.17009119876362"><ele>751.75</ele><time>2026-04-29T15:51:39.226Z</time></trkpt><trkpt lat="40.094103651921706" lon="9.170248849137607"><ele>751.0</ele><time>2026-04-29T15:51:40.226Z</time></trkpt><trkpt lat="40.094175202162" lon="9.170410965931968"><ele>755.3333333333334</ele><time>2026-04-29T15:51:41.226Z</time></trkpt><trkpt lat="40.094252471034196" lon="9.170563304799927"><ele>759.6666666666666</ele><time>2026-04-29T15:51:42.226Z</time></trkpt><trkpt lat="40.094350790311985" lon="9.170718317291646"><ele>764.0</ele><time>2026-04-29T15:51:43.226Z</time></trkpt><trkpt lat="40.09448030508875" lon="9.170846240661252"><ele>764.0</ele><time>2026-04-29T15:51:44.226Z</time></trkpt><trkpt lat="40.09462210038261" lon="9.170951233296469"><ele>764.0</ele><time>2026-04-29T15:51:45.226Z</time></trkpt><trkpt lat="40.094761967734705" lon="9.171040474116756"><ele>764.0</ele><time>2026-04-29T15:51:46.226Z</time></trkpt><trkpt lat="40.094912667249346" lon="9.171115182499632"><ele>769.3333333333333</ele><time>2026-04-29T15:51:47.226Z</time></trkpt><trkpt lat="40.09505601798075" lon="9.17118754687888"><ele>774.6666666666666</ele><time>2026-04-29T15:51:48.226Z</time></trkpt><trkpt lat="40.095211022378656" lon="9.171224939117764"><ele>780.0</ele><time>2026-04-29T15:51:49.226Z</time></trkpt><trkpt lat="40.09536229960461" lon="9.171247355864306"><ele>780.0</ele><time>2026-04-29T15:51:50.226Z</time></trkpt><trkpt lat="40.0955255220081" lon="9.171272076873528"><ele>780.0</ele><time>2026-04-29T15:51:51.226Z</time></trkpt><trkpt lat="40.09568093718522" lon="9.171334170462146"><ele>780.0</ele><time>2026-04-29T15:51:52.226Z</time></trkpt><trkpt lat="40.09581621795006" lon="9.171431687742068"><ele>780.6666666666667</ele><time>2026-04-29T15:51:53.226Z</time></trkpt><trkpt lat="40.095953626700464" lon="9.171549939884265"><ele>781.3333333333334</ele><time>2026-04-29T15:51:54.226Z</time></trkpt><trkpt lat="40.09607960732797" lon="9.171666736441681"><ele>782.0</ele><time>2026-04-29T15:51:55.226Z</time></trkpt><trkpt lat="40.096200953834106" lon="9.171768700644531"><ele>782.0</ele><time>2026-04-29T15:51:56.226Z</time></trkpt><trkpt lat="40.09631148057209" lon="9.17187603378255"><ele>782.0</ele><time>2026-04-29T15:51:57.226Z</time></trkpt><trkpt lat="40.09639062111841" lon="9.172009130006588"><ele>782.0</ele><time>2026-04-29T15:51:58.226Z</time></trkpt><trkpt lat="40.096436758745824" lon="9.172148176036597"><ele>782.0</ele><time>2026-04-29T15:51:59.226Z</time></trkpt><trkpt lat="40.09646418928323" lon="9.172296107051537"><ele>781.0</ele><time>2026-04-29T15:52:00.226Z</time></trkpt><trkpt lat="40.096515407645846" lon="9.17243832387758"><ele>780.0</ele><time>2026-04-29T15:52:01.226Z</time></trkpt><trkpt lat="40.09659606764121" lon="9.172542476665035"><ele>779.0</ele><time>2026-04-29T15:52:02.226Z</time></trkpt><trkpt lat="40.09668468166165" lon="9.172645392890649"><ele>778.0</ele><time>2026-04-29T15:52:03.226Z</time></trkpt><trkpt lat="40.096759914983046" lon="9.172753304376371"><ele>780.2</ele><time>2026-04-29T15:52:04.226Z</time></trkpt><trkpt lat="40.09680443372722" lon="9.172888839086259"><ele>782.4</ele><time>2026-04-29T15:52:05.226Z</time></trkpt><trkpt lat="40.09681055939912" lon="9.173032150005355"><ele>784.6</ele><time>2026-04-29T15:52:06.226Z</time></trkpt><trkpt lat="40.096788606986685" lon="9.173152518779531"><ele>786.8000000000001</ele><time>2026-04-29T15:52:07.226Z</time></trkpt><trkpt lat="40.09676921769678" lon="9.173242995765332"><ele>789.0</ele><time>2026-04-29T15:52:08.226Z</time></trkpt><trkpt lat="40.09674539065925" lon="9.173356471848788"><ele>789.4000000000001</ele><time>2026-04-29T15:52:10.226Z</time></trkpt><trkpt lat="40.09673628206166" lon="9.173453805747814"><ele>789.8</ele><time>2026-04-29T15:52:12.226Z</time></trkpt><trkpt lat="40.09671480165571" lon="9.173560259490845"><ele>790.2</ele><time>2026-04-29T15:52:13.226Z</time></trkpt><trkpt lat="40.09669229266042" lon="9.173687291212497"><ele>790.5999999999999</ele><time>2026-04-29T15:52:14.226Z</time></trkpt><trkpt lat="40.09664553427107" lon="9.17384069959146"><ele>791.0</ele><time>2026-04-29T15:52:15.226Z</time></trkpt><trkpt lat="40.09657397597789" lon="9.173980764945405"><ele>790.25</ele><time>2026-04-29T15:52:16.226Z</time></trkpt><trkpt lat="40.09646435389683" lon="9.174135847683688"><ele>789.5</ele><time>2026-04-29T15:52:17.226Z</time></trkpt><trkpt lat="40.096363645028006" lon="9.174269779536571"><ele>788.75</ele><time>2026-04-29T15:52:18.226Z</time></trkpt><trkpt lat="40.09632448293572" lon="9.174423877513817"><ele>788.0</ele><time>2026-04-29T15:52:19.226Z</time></trkpt><trkpt lat="40.09636007399317" lon="9.174612331221159"><ele>788.0</ele><time>2026-04-29T15:52:20.226Z</time></trkpt><trkpt lat="40.09646727218228" lon="9.174794385469811"><ele>788.0</ele><time>2026-04-29T15:52:21.226Z</time></trkpt><trkpt lat="40.096619729114984" lon="9.174930810359205"><ele>788.0</ele><time>2026-04-29T15:52:22.226Z</time></trkpt><trkpt lat="40.09679355267601" lon="9.175029293475875"><ele>791.6666666666667</ele><time>2026-04-29T15:52:23.228Z</time></trkpt><trkpt lat="40.09692410554311" lon="9.175125529776356"><ele>795.3333333333333</ele><time>2026-04-29T15:52:24.228Z</time></trkpt><trkpt lat="40.096991342122706" lon="9.17530428078988"><ele>799.0</ele><time>2026-04-29T15:52:25.228Z</time></trkpt><trkpt lat="40.097003599629936" lon="9.175522257934755"><ele>799.6666666666666</ele><time>2026-04-29T15:52:26.228Z</time></trkpt><trkpt lat="40.096996851512756" lon="9.175763753459833"><ele>800.3333333333333</ele><time>2026-04-29T15:52:27.228Z</time></trkpt><trkpt lat="40.09705647245646" lon="9.175939742084468"><ele>801.0</ele><time>2026-04-29T15:52:28.228Z</time></trkpt><trkpt lat="40.09719063229321" lon="9.176066978009745"><ele>801.0</ele><time>2026-04-29T15:52:29.228Z</time></trkpt><trkpt lat="40.09736816676012" lon="9.176126046632811"><ele>801.0</ele><time>2026-04-29T15:52:30.227Z</time></trkpt><trkpt lat="40.09758570133967" lon="9.176185867252219"><ele>801.0</ele><time>2026-04-29T15:52:31.227Z</time></trkpt><trkpt lat="40.097782777175354" lon="9.176231577953978"><ele>804.0</ele><time>2026-04-29T15:52:32.228Z</time></trkpt><trkpt lat="40.09797762470057" lon="9.176291184342276"><ele>807.0</ele><time>2026-04-29T15:52:33.227Z</time></trkpt><trkpt lat="40.098167008057345" lon="9.176353832079108"><ele>810.0</ele><time>2026-04-29T15:52:34.227Z</time></trkpt><trkpt lat="40.09833760726389" lon="9.176449649146889"><ele>811.0</ele><time>2026-04-29T15:52:35.228Z</time></trkpt><trkpt lat="40.098505164223276" lon="9.176609716274106"><ele>812.0</ele><time>2026-04-29T15:52:36.227Z</time></trkpt><trkpt lat="40.09867817212339" lon="9.176765249527557"><ele>813.0</ele><time>2026-04-29T15:52:37.227Z</time></trkpt><trkpt lat="40.09889148434315" lon="9.176844717974449"><ele>814.6666666666667</ele><time>2026-04-29T15:52:38.227Z</time></trkpt><trkpt lat="40.09912176431708" lon="9.17685892206937"><ele>816.3333333333334</ele><time>2026-04-29T15:52:39.227Z</time></trkpt><trkpt lat="40.0993323361758" lon="9.176905969595767"><ele>818.0</ele><time>2026-04-29T15:52:40.227Z</time></trkpt><trkpt lat="40.09950382903765" lon="9.177017548323946"><ele>818.0</ele><time>2026-04-29T15:52:41.227Z</time></trkpt><trkpt lat="40.099654288660574" lon="9.17708824463561"><ele>818.0</ele><time>2026-04-29T15:52:42.227Z</time></trkpt><trkpt lat="40.09982926979958" lon="9.177031327978586"><ele>818.0</ele><time>2026-04-29T15:52:43.227Z</time></trkpt><trkpt lat="40.099989118562995" lon="9.176923382203691"><ele>816.0</ele><time>2026-04-29T15:52:44.227Z</time></trkpt><trkpt lat="40.100140034466115" lon="9.176880807806146"><ele>814.0</ele><time>2026-04-29T15:52:45.227Z</time></trkpt><trkpt lat="40.10029755701405" lon="9.17696132737487"><ele>812.0</ele><time>2026-04-29T15:52:46.227Z</time></trkpt><trkpt lat="40.10045333357248" lon="9.177094312859811"><ele>812.0</ele><time>2026-04-29T15:52:47.227Z</time></trkpt><trkpt lat="40.10063826077649" lon="9.17715122977886"><ele>812.0</ele><time>2026-04-29T15:52:48.227Z</time></trkpt><trkpt lat="40.10084547882894" lon="9.177141813871465"><ele>812.0</ele><time>2026-04-29T15:52:49.227Z</time></trkpt><trkpt lat="40.10104165362355" lon="9.177136638098007"><ele>812.0</ele><time>2026-04-29T15:52:50.227Z</time></trkpt><trkpt lat="40.101225837512835" lon="9.177144455397555"><ele>812.0</ele><time>2026-04-29T15:52:51.227Z</time></trkpt><trkpt lat="40.10138565634871" lon="9.177244926904589"><ele>812.0</ele><time>2026-04-29T15:52:52.227Z</time></trkpt><trkpt lat="40.10152727248404" lon="9.177419476561221"><ele>813.6666666666667</ele><time>2026-04-29T15:52:53.227Z</time></trkpt><trkpt lat="40.101666779331104" lon="9.177612179301706"><ele>815.3333333333333</ele><time>2026-04-29T15:52:54.227Z</time></trkpt><trkpt lat="40.101795748738596" lon="9.17778570170545"><ele>817.0</ele><time>2026-04-29T15:52:55.227Z</time></trkpt><trkpt lat="40.10191226071266" lon="9.17793211823662"><ele>817.0</ele><time>2026-04-29T15:52:56.227Z</time></trkpt><trkpt lat="40.102045453240166" lon="9.177996167068489"><ele>817.0</ele><time>2026-04-29T15:52:57.227Z</time></trkpt><trkpt lat="40.102198062467274" lon="9.177944545877612"><ele>817.0</ele><time>2026-04-29T15:52:58.227Z</time></trkpt><trkpt lat="40.10234824417134" lon="9.177803892121512"><ele>816.6666666666666</ele><time>2026-04-29T15:52:59.227Z</time></trkpt><trkpt lat="40.10250331941856" lon="9.177622787136492"><ele>816.3333333333333</ele><time>2026-04-29T15:53:00.227Z</time></trkpt><trkpt lat="40.10264531172908" lon="9.177463875375844"><ele>816.0</ele><time>2026-04-29T15:53:01.227Z</time></trkpt><trkpt lat="40.10278796372791" lon="9.177356382410892"><ele>816.0</ele><time>2026-04-29T15:53:02.227Z</time></trkpt><trkpt lat="40.10295072292889" lon="9.177366446024106"><ele>816.0</ele><time>2026-04-29T15:53:03.227Z</time></trkpt><trkpt lat="40.10312158405745" lon="9.177469952330537"><ele>816.0</ele><time>2026-04-29T15:53:04.227Z</time></trkpt><trkpt lat="40.1033045862344" lon="9.177592047582761"><ele>816.6666666666667</ele><time>2026-04-29T15:53:05.227Z</time></trkpt><trkpt lat="40.10350327605171" lon="9.177698454692734"><ele>817.3333333333334</ele><time>2026-04-29T15:53:06.227Z</time></trkpt><trkpt lat="40.10369454131949" lon="9.177772123237917"><ele>818.0</ele><time>2026-04-29T15:53:07.227Z</time></trkpt><trkpt lat="40.10386569658" lon="9.177813597956813"><ele>818.0</ele><time>2026-04-29T15:53:08.227Z</time></trkpt><trkpt lat="40.104001164427444" lon="9.17779879410746"><ele>818.0</ele><time>2026-04-29T15:53:09.227Z</time></trkpt><trkpt lat="40.10411205149149" lon="9.17766606271032"><ele>818.0</ele><time>2026-04-29T15:53:10.227Z</time></trkpt><trkpt lat="40.10417019440235" lon="9.177460618051855"><ele>815.3333333333334</ele><time>2026-04-29T15:53:11.227Z</time></trkpt><trkpt lat="40.104226595665146" lon="9.1772718249909"><ele>812.6666666666667</ele><time>2026-04-29T15:53:12.227Z</time></trkpt><trkpt lat="40.10434938703503" lon="9.177193798741563"><ele>810.0</ele><time>2026-04-29T15:53:13.227Z</time></trkpt><trkpt lat="40.10450826547444" lon="9.177222345466967"><ele>810.0</ele><time>2026-04-29T15:53:14.227Z</time></trkpt><trkpt lat="40.10467872717471" lon="9.177326408794052"><ele>810.0</ele><time>2026-04-29T15:53:15.227Z</time></trkpt><trkpt lat="40.10486203130731" lon="9.177451903911265"><ele>810.0</ele><time>2026-04-29T15:53:16.227Z</time></trkpt><trkpt lat="40.10502152067327" lon="9.177618662861327"><ele>812.3333333333333</ele><time>2026-04-29T15:53:17.227Z</time></trkpt><trkpt lat="40.105146827322116" lon="9.17779528600372"><ele>814.6666666666666</ele><time>2026-04-29T15:53:18.227Z</time></trkpt><trkpt lat="40.105247192544546" lon="9.177985964107554"><ele>817.0</ele><time>2026-04-29T15:53:19.227Z</time></trkpt><trkpt lat="40.10533708162844" lon="9.178185044593224"><ele>820.3333333333333</ele><time>2026-04-29T15:53:20.227Z</time></trkpt><trkpt lat="40.10541746463946" lon="9.178414729477241"><ele>823.6666666666667</ele><time>2026-04-29T15:53:21.227Z</time></trkpt><trkpt lat="40.10549327639449" lon="9.178660645810965"><ele>827.0</ele><time>2026-04-29T15:53:22.227Z</time></trkpt><trkpt lat="40.1055896224793" lon="9.178891771455591"><ele>829.3333333333334</ele><time>2026-04-29T15:53:23.227Z</time></trkpt><trkpt lat="40.10567839700098" lon="9.179128134683038"><ele>831.6666666666667</ele><time>2026-04-29T15:53:24.227Z</time></trkpt><trkpt lat="40.105735945536395" lon="9.179373282961222"><ele>834.0</ele><time>2026-04-29T15:53:25.227Z</time></trkpt><trkpt lat="40.10579682945828" lon="9.179613799524272"><ele>831.6666666666667</ele><time>2026-04-29T15:53:26.227Z</time></trkpt><trkpt lat="40.105910339215164" lon="9.179827922359957"><ele>829.3333333333334</ele><time>2026-04-29T15:53:27.227Z</time></trkpt><trkpt lat="40.1060582879948" lon="9.180030432297631"><ele>827.0</ele><time>2026-04-29T15:53:28.227Z</time></trkpt><trkpt lat="40.10621671831954" lon="9.180231648768945"><ele>827.0</ele><time>2026-04-29T15:53:29.227Z</time></trkpt><trkpt lat="40.106365261887056" lon="9.180432336768076"><ele>827.0</ele><time>2026-04-29T15:53:30.227Z</time></trkpt><trkpt lat="40.10649520639124" lon="9.180618575498473"><ele>827.0</ele><time>2026-04-29T15:53:31.227Z</time></trkpt><trkpt lat="40.10661385097659" lon="9.180776824335117"><ele>826.0</ele><time>2026-04-29T15:53:32.227Z</time></trkpt><trkpt lat="40.10674600339411" lon="9.180878945056016"><ele>825.0</ele><time>2026-04-29T15:53:33.227Z</time></trkpt><trkpt lat="40.10689015186582" lon="9.180918150419952"><ele>824.0</ele><time>2026-04-29T15:53:34.227Z</time></trkpt><trkpt lat="40.10705318091389" lon="9.180883036322031"><ele>824.0</ele><time>2026-04-29T15:53:35.227Z</time></trkpt><trkpt lat="40.10719010929887" lon="9.18075454888294"><ele>824.0</ele><time>2026-04-29T15:53:36.227Z</time></trkpt><trkpt lat="40.107288942631584" lon="9.180550556440723"><ele>824.0</ele><time>2026-04-29T15:53:37.227Z</time></trkpt><trkpt lat="40.10739471940144" lon="9.180337737608511"><ele>821.0</ele><time>2026-04-29T15:53:38.227Z</time></trkpt><trkpt lat="40.10755113542531" lon="9.180161419367527"><ele>818.0</ele><time>2026-04-29T15:53:39.227Z</time></trkpt><trkpt lat="40.107722110706355" lon="9.180060821225045"><ele>815.0</ele><time>2026-04-29T15:53:40.227Z</time></trkpt><trkpt lat="40.10789145614128" lon="9.180045874547435"><ele>815.0</ele><time>2026-04-29T15:53:41.227Z</time></trkpt><trkpt lat="40.108038486463684" lon="9.180111829430121"><ele>815.0</ele><time>2026-04-29T15:53:42.227Z</time></trkpt><trkpt lat="40.10812401567431" lon="9.180250853510792"><ele>815.0</ele><time>2026-04-29T15:53:43.227Z</time></trkpt><trkpt lat="40.108181958973645" lon="9.180434078633706"><ele>815.0</ele><time>2026-04-29T15:53:44.227Z</time></trkpt><trkpt lat="40.10827177058086" lon="9.180551005536481"><ele>815.6666666666667</ele><time>2026-04-29T15:53:45.227Z</time></trkpt><trkpt lat="40.10840779697592" lon="9.180583007177205"><ele>816.3333333333333</ele><time>2026-04-29T15:53:46.227Z</time></trkpt><trkpt lat="40.108556291036145" lon="9.18051898125651"><ele>817.0</ele><time>2026-04-29T15:53:47.227Z</time></trkpt><trkpt lat="40.10867170169407" lon="9.18034535545763"><ele>817.0</ele><time>2026-04-29T15:53:48.227Z</time></trkpt><trkpt lat="40.108778404559196" lon="9.180127753131035"><ele>817.0</ele><time>2026-04-29T15:53:49.227Z</time></trkpt><trkpt lat="40.108909644592444" lon="9.180012457182086"><ele>817.0</ele><time>2026-04-29T15:53:50.227Z</time></trkpt><trkpt lat="40.109076901596104" lon="9.179808323120314"><ele>813.5</ele><time>2026-04-29T15:53:51.227Z</time></trkpt><trkpt lat="40.109269077515854" lon="9.179622550041627"><ele>810.0</ele><time>2026-04-29T15:53:52.227Z</time></trkpt><trkpt lat="40.109472032268364" lon="9.179443351990688"><ele>810.0</ele><time>2026-04-29T15:53:53.227Z</time></trkpt><trkpt lat="40.10968371686774" lon="9.179274759449191"><ele>810.0</ele><time>2026-04-29T15:53:54.227Z</time></trkpt><trkpt lat="40.109882265500694" lon="9.179118314430228"><ele>808.3333333333333</ele><time>2026-04-29T15:53:55.227Z</time></trkpt><trkpt lat="40.110057987679035" lon="9.178967281962738"><ele>806.6666666666666</ele><time>2026-04-29T15:53:56.227Z</time></trkpt><trkpt lat="40.11021862657779" lon="9.178829137607263"><ele>805.0</ele><time>2026-04-29T15:53:57.227Z</time></trkpt><trkpt lat="40.11037016657411" lon="9.178709189748488"><ele>805.0</ele><time>2026-04-29T15:53:58.227Z</time></trkpt><trkpt lat="40.110532164336185" lon="9.178605759292635"><ele>805.0</ele><time>2026-04-29T15:53:59.227Z</time></trkpt><trkpt lat="40.11071162977176" lon="9.178529412202735"><ele>805.0</ele><time>2026-04-29T15:54:00.227Z</time></trkpt><trkpt lat="40.11089709678082" lon="9.178465332126429"><ele>810.3333333333333</ele><time>2026-04-29T15:54:01.227Z</time></trkpt><trkpt lat="40.11108348537787" lon="9.178405374624937"><ele>815.6666666666667</ele><time>2026-04-29T15:54:02.227Z</time></trkpt><trkpt lat="40.111262148293186" lon="9.178351461706592"><ele>821.0</ele><time>2026-04-29T15:54:03.227Z</time></trkpt><trkpt lat="40.111427753195855" lon="9.178309881239425"><ele>821.5</ele><time>2026-04-29T15:54:04.227Z</time></trkpt><trkpt lat="40.11158276779531" lon="9.178306878302132"><ele>822.0</ele><time>2026-04-29T15:54:05.227Z</time></trkpt><trkpt lat="40.11171732531363" lon="9.178359740976557"><ele>822.5</ele><time>2026-04-29T15:54:06.227Z</time></trkpt><trkpt lat="40.111814323217004" lon="9.178512568396524"><ele>823.0</ele><time>2026-04-29T15:54:07.227Z</time></trkpt><trkpt lat="40.111852578539974" lon="9.178749482664708"><ele>823.0</ele><time>2026-04-29T15:54:08.227Z</time></trkpt><trkpt lat="40.111865765456514" lon="9.178998454782963"><ele>823.0</ele><time>2026-04-29T15:54:09.227Z</time></trkpt><trkpt lat="40.111903563484084" lon="9.179240592542925"><ele>823.0</ele><time>2026-04-29T15:54:10.227Z</time></trkpt><trkpt lat="40.11198049775942" lon="9.179464491840939"><ele>824.3333333333333</ele><time>2026-04-29T15:54:11.227Z</time></trkpt><trkpt lat="40.11207907647837" lon="9.179674293251034"><ele>825.6666666666667</ele><time>2026-04-29T15:54:12.227Z</time></trkpt><trkpt lat="40.112172490122255" lon="9.179945393817647"><ele>827.0</ele><time>2026-04-29T15:54:13.227Z</time></trkpt><trkpt lat="40.112271115499695" lon="9.180101494335377"><ele>827.3333333333334</ele><time>2026-04-29T15:54:14.227Z</time></trkpt><trkpt lat="40.112402208619976" lon="9.18020248230756"><ele>827.6666666666667</ele><time>2026-04-29T15:54:15.227Z</time></trkpt><trkpt lat="40.112569114394354" lon="9.180242963525478"><ele>828.0</ele><time>2026-04-29T15:54:16.227Z</time></trkpt><trkpt lat="40.112741680997416" lon="9.180229020273782"><ele>828.0</ele><time>2026-04-29T15:54:17.227Z</time></trkpt><trkpt lat="40.11290221899711" lon="9.18024744927892"><ele>828.0</ele><time>2026-04-29T15:54:18.227Z</time></trkpt><trkpt lat="40.113022080668166" lon="9.180324072387732"><ele>828.0</ele><time>2026-04-29T15:54:19.227Z</time></trkpt><trkpt lat="40.11312075095241" lon="9.180479091397856"><ele>828.0</ele><time>2026-04-29T15:54:20.227Z</time></trkpt><trkpt lat="40.11320997194628" lon="9.18066812958195"><ele>827.5</ele><time>2026-04-29T15:54:21.227Z</time></trkpt><trkpt lat="40.11330761507911" lon="9.180838447202019"><ele>827.0</ele><time>2026-04-29T15:54:22.227Z</time></trkpt><trkpt lat="40.113361306524425" lon="9.181000153187755"><ele>826.5</ele><time>2026-04-29T15:54:23.227Z</time></trkpt><trkpt lat="40.11335198482937" lon="9.181181612950253"><ele>826.0</ele><time>2026-04-29T15:54:24.227Z</time></trkpt><trkpt lat="40.11330378389221" lon="9.181371073930238"><ele>826.75</ele><time>2026-04-29T15:54:25.227Z</time></trkpt><trkpt lat="40.11323334039306" lon="9.181539685448849"><ele>827.5</ele><time>2026-04-29T15:54:26.227Z</time></trkpt><trkpt lat="40.11320671693298" lon="9.181707429596667"><ele>828.25</ele><time>2026-04-29T15:54:27.227Z</time></trkpt><trkpt lat="40.113225497626225" lon="9.181892125016107"><ele>829.0</ele><time>2026-04-29T15:54:28.229Z</time></trkpt><trkpt lat="40.11326953143817" lon="9.182098951128285"><ele>829.0</ele><time>2026-04-29T15:54:29.229Z</time></trkpt><trkpt lat="40.11332763797342" lon="9.182290077249247"><ele>829.0</ele><time>2026-04-29T15:54:30.229Z</time></trkpt><trkpt lat="40.11341189209362" lon="9.182467866993408"><ele>829.0</ele><time>2026-04-29T15:54:31.229Z</time></trkpt><trkpt lat="40.11352852168102" lon="9.182617397053239"><ele>832.3333333333333</ele><time>2026-04-29T15:54:32.229Z</time></trkpt><trkpt lat="40.113668522674736" lon="9.182759574891097"><ele>835.6666666666667</ele><time>2026-04-29T15:54:33.229Z</time></trkpt><trkpt lat="40.11381931086133" lon="9.18288702014318"><ele>839.0</ele><time>2026-04-29T15:54:34.229Z</time></trkpt><trkpt lat="40.113953829337106" lon="9.183054588238493"><ele>835.0</ele><time>2026-04-29T15:54:35.229Z</time></trkpt><trkpt lat="40.11407815045488" lon="9.18323725829944"><ele>831.0</ele><time>2026-04-29T15:54:36.229Z</time></trkpt><trkpt lat="40.114183124181956" lon="9.183436726300357"><ele>827.0</ele><time>2026-04-29T15:54:37.229Z</time></trkpt><trkpt lat="40.11429822306001" lon="9.183625481011413"><ele>827.0</ele><time>2026-04-29T15:54:38.229Z</time></trkpt><trkpt lat="40.1143825863278" lon="9.183833178372314"><ele>827.0</ele><time>2026-04-29T15:54:39.229Z</time></trkpt><trkpt lat="40.114427276453114" lon="9.18406434817913"><ele>827.0</ele><time>2026-04-29T15:54:40.229Z</time></trkpt><trkpt lat="40.114443142611584" lon="9.184295192927864"><ele>829.25</ele><time>2026-04-29T15:54:41.229Z</time></trkpt><trkpt lat="40.114462578017836" lon="9.184505883041272"><ele>831.5</ele><time>2026-04-29T15:54:42.229Z</time></trkpt><trkpt lat="40.11449528585235" lon="9.18468705175182"><ele>833.75</ele><time>2026-04-29T15:54:43.229Z</time></trkpt><trkpt lat="40.114568279055675" lon="9.184837323272246"><ele>836.0</ele><time>2026-04-29T15:54:44.229Z</time></trkpt><trkpt lat="40.11468864426047" lon="9.184935081926024"><ele>838.6666666666667</ele><time>2026-04-29T15:54:45.229Z</time></trkpt><trkpt lat="40.114840958059574" lon="9.18496807010836"><ele>841.3333333333333</ele><time>2026-04-29T15:54:46.229Z</time></trkpt><trkpt lat="40.11500933265398" lon="9.184956997576537"><ele>844.0</ele><time>2026-04-29T15:54:47.229Z</time></trkpt><trkpt lat="40.11518451016784" lon="9.18493858987503"><ele>838.3333333333333</ele><time>2026-04-29T15:54:48.229Z</time></trkpt><trkpt lat="40.11538110977944" lon="9.184922722636783"><ele>832.6666666666667</ele><time>2026-04-29T15:54:49.229Z</time></trkpt><trkpt lat="40.11557804653742" lon="9.18491150513201"><ele>827.0</ele><time>2026-04-29T15:54:50.229Z</time></trkpt><trkpt lat="40.11575212236656" lon="9.184897524351939"><ele>827.0</ele><time>2026-04-29T15:54:51.229Z</time></trkpt><trkpt lat="40.11590202042252" lon="9.184874359137302"><ele>827.0</ele><time>2026-04-29T15:54:52.229Z</time></trkpt><trkpt lat="40.11603165250266" lon="9.184779723993246"><ele>827.0</ele><time>2026-04-29T15:54:53.229Z</time></trkpt><trkpt lat="40.11614596579263" lon="9.184606157866547"><ele>822.6666666666667</ele><time>2026-04-29T15:54:54.229Z</time></trkpt><trkpt lat="40.116233657986356" lon="9.184401634509374"><ele>818.3333333333333</ele><time>2026-04-29T15:54:55.229Z</time></trkpt><trkpt lat="40.11634619102569" lon="9.184207699317199"><ele>814.0</ele><time>2026-04-29T15:54:56.229Z</time></trkpt><trkpt lat="40.11650773860458" lon="9.18407686103367"><ele>815.3333333333333</ele><time>2026-04-29T15:54:57.229Z</time></trkpt><trkpt lat="40.11666337909054" lon="9.183954265854013"><ele>816.6666666666667</ele><time>2026-04-29T15:54:58.229Z</time></trkpt><trkpt lat="40.11679430119586" lon="9.183826236558406"><ele>818.0</ele><time>2026-04-29T15:54:59.229Z</time></trkpt><trkpt lat="40.11688347180818" lon="9.183660163837299"><ele>818.0</ele><time>2026-04-29T15:55:00.229Z</time></trkpt><trkpt lat="40.11694839740317" lon="9.183454007918156"><ele>818.0</ele><time>2026-04-29T15:55:01.229Z</time></trkpt><trkpt lat="40.11700213631415" lon="9.183228837684945"><ele>818.0</ele><time>2026-04-29T15:55:02.229Z</time></trkpt><trkpt lat="40.11704543968326" lon="9.183001842192965"><ele>816.3333333333334</ele><time>2026-04-29T15:55:03.229Z</time></trkpt><trkpt lat="40.11709552205877" lon="9.182765055656354"><ele>814.6666666666667</ele><time>2026-04-29T15:55:04.229Z</time></trkpt><trkpt lat="40.117148602156114" lon="9.182529632986636"><ele>813.0</ele><time>2026-04-29T15:55:05.229Z</time></trkpt><trkpt lat="40.11721399130906" lon="9.182313742955301"><ele>813.0</ele><time>2026-04-29T15:55:06.229Z</time></trkpt><trkpt lat="40.117287285729574" lon="9.182096287404216"><ele>813.0</ele><time>2026-04-29T15:55:07.229Z</time></trkpt><trkpt lat="40.11738084629017" lon="9.181906240330303"><ele>813.0</ele><time>2026-04-29T15:55:08.229Z</time></trkpt><trkpt lat="40.11749188306648" lon="9.18172359400546"><ele>814.6666666666667</ele><time>2026-04-29T15:55:09.229Z</time></trkpt><trkpt lat="40.11763841458226" lon="9.181566417916736"><ele>816.3333333333334</ele><time>2026-04-29T15:55:10.229Z</time></trkpt><trkpt lat="40.11778444352909" lon="9.181457121363584"><ele>818.0</ele><time>2026-04-29T15:55:11.229Z</time></trkpt><trkpt lat="40.117910235911175" lon="9.18136594124367"><ele>815.5</ele><time>2026-04-29T15:55:12.229Z</time></trkpt><trkpt lat="40.118019395647124" lon="9.181309146633595"><ele>813.0</ele><time>2026-04-29T15:55:13.229Z</time></trkpt><trkpt lat="40.11814519167525" lon="9.18132960222676"><ele>810.5</ele><time>2026-04-29T15:55:14.229Z</time></trkpt><trkpt lat="40.11827964318558" lon="9.181399375612617"><ele>808.0</ele><time>2026-04-29T15:55:15.229Z</time></trkpt><trkpt lat="40.11841828520381" lon="9.181455763124378"><ele>808.0</ele><time>2026-04-29T15:55:16.229Z</time></trkpt><trkpt lat="40.11856405834819" lon="9.181476920290617"><ele>808.0</ele><time>2026-04-29T15:55:17.229Z</time></trkpt><trkpt lat="40.11869850892354" lon="9.181436406350755"><ele>808.0</ele><time>2026-04-29T15:55:18.229Z</time></trkpt><trkpt lat="40.11882086621568" lon="9.181316166266198"><ele>808.0</ele><time>2026-04-29T15:55:19.229Z</time></trkpt><trkpt lat="40.11892946394453" lon="9.181140436269322"><ele>808.0</ele><time>2026-04-29T15:55:20.229Z</time></trkpt><trkpt lat="40.119034814095116" lon="9.180935183969387"><ele>808.0</ele><time>2026-04-29T15:55:21.229Z</time></trkpt><trkpt lat="40.11914903846152" lon="9.180748324672717"><ele>808.0</ele><time>2026-04-29T15:55:22.229Z</time></trkpt><trkpt lat="40.11924726294143" lon="9.180562075925385"><ele>806.0</ele><time>2026-04-29T15:55:23.229Z</time></trkpt><trkpt lat="40.11935781099852" lon="9.180383859507131"><ele>804.0</ele><time>2026-04-29T15:55:24.229Z</time></trkpt><trkpt lat="40.119495876689676" lon="9.18024894355"><ele>802.0</ele><time>2026-04-29T15:55:25.229Z</time></trkpt><trkpt lat="40.11966290411245" lon="9.180158787906304"><ele>802.0</ele><time>2026-04-29T15:55:26.229Z</time></trkpt><trkpt lat="40.11983181015782" lon="9.180080138821962"><ele>802.0</ele><time>2026-04-29T15:55:27.229Z</time></trkpt><trkpt lat="40.11998307321957" lon="9.179993959363154"><ele>802.0</ele><time>2026-04-29T15:55:28.229Z</time></trkpt><trkpt lat="40.120111537748144" lon="9.17990940879034"><ele>803.5</ele><time>2026-04-29T15:55:29.229Z</time></trkpt><trkpt lat="40.12020573652201" lon="9.1797963651437"><ele>805.0</ele><time>2026-04-29T15:55:30.229Z</time></trkpt><trkpt lat="40.12025154607062" lon="9.179633211739075"><ele>806.5</ele><time>2026-04-29T15:55:31.229Z</time></trkpt><trkpt lat="40.12025933229807" lon="9.179414271543372"><ele>808.0</ele><time>2026-04-29T15:55:32.229Z</time></trkpt><trkpt lat="40.120217425722444" lon="9.179185985988598"><ele>806.3333333333333</ele><time>2026-04-29T15:55:33.229Z</time></trkpt><trkpt lat="40.12017787068008" lon="9.178975172529718"><ele>804.6666666666667</ele><time>2026-04-29T15:55:34.229Z</time></trkpt><trkpt lat="40.12017278175332" lon="9.178757984659743"><ele>803.0</ele><time>2026-04-29T15:55:35.229Z</time></trkpt><trkpt lat="40.12023264940197" lon="9.17853238907257"><ele>803.0</ele><time>2026-04-29T15:55:36.229Z</time></trkpt><trkpt lat="40.12031538503414" lon="9.178306436730093"><ele>803.0</ele><time>2026-04-29T15:55:37.229Z</time></trkpt><trkpt lat="40.12040487043416" lon="9.178067798802727"><ele>803.0</ele><time>2026-04-29T15:55:38.229Z</time></trkpt><trkpt lat="40.120474127500046" lon="9.177839816462402"><ele>803.0</ele><time>2026-04-29T15:55:39.229Z</time></trkpt><trkpt lat="40.12052792352879" lon="9.177618793195009"><ele>803.0</ele><time>2026-04-29T15:55:40.229Z</time></trkpt><trkpt lat="40.12053024800172" lon="9.177394463425301"><ele>803.0</ele><time>2026-04-29T15:55:41.229Z</time></trkpt><trkpt lat="40.120494386258166" lon="9.177151636256793"><ele>803.0</ele><time>2026-04-29T15:55:42.229Z</time></trkpt><trkpt lat="40.12045632586377" lon="9.176890528129315"><ele>803.0</ele><time>2026-04-29T15:55:43.229Z</time></trkpt><trkpt lat="40.12044492462925" lon="9.176663983282022"><ele>803.0</ele><time>2026-04-29T15:55:44.229Z</time></trkpt><trkpt lat="40.120428943678384" lon="9.17647567971181"><ele>803.25</ele><time>2026-04-29T15:55:45.229Z</time></trkpt><trkpt lat="40.120440348145294" lon="9.176320046222632"><ele>803.5</ele><time>2026-04-29T15:55:46.229Z</time></trkpt><trkpt lat="40.12051565840824" lon="9.176196586113917"><ele>803.75</ele><time>2026-04-29T15:55:47.229Z</time></trkpt><trkpt lat="40.120661399302584" lon="9.176115172440422"><ele>804.0</ele><time>2026-04-29T15:55:48.229Z</time></trkpt><trkpt lat="40.1208385827281" lon="9.176069150825382"><ele>804.0</ele><time>2026-04-29T15:55:49.229Z</time></trkpt><trkpt lat="40.12102073910168" lon="9.17599668113098"><ele>804.0</ele><time>2026-04-29T15:55:50.229Z</time></trkpt><trkpt lat="40.12120884338581" lon="9.175895842609583"><ele>804.0</ele><time>2026-04-29T15:55:51.229Z</time></trkpt><trkpt lat="40.12139103592159" lon="9.175755313085487"><ele>802.0</ele><time>2026-04-29T15:55:52.229Z</time></trkpt><trkpt lat="40.12156106978723" lon="9.175621251898006"><ele>800.0</ele><time>2026-04-29T15:55:53.229Z</time></trkpt><trkpt lat="40.12171023311743" lon="9.175509981965302"><ele>798.0</ele><time>2026-04-29T15:55:54.229Z</time></trkpt><trkpt lat="40.12184913565877" lon="9.175451976289109"><ele>798.0</ele><time>2026-04-29T15:55:55.229Z</time></trkpt><trkpt lat="40.12197970695743" lon="9.175486762964105"><ele>798.0</ele><time>2026-04-29T15:55:56.229Z</time></trkpt><trkpt lat="40.12207173672605" lon="9.175617948739617"><ele>798.0</ele><time>2026-04-29T15:55:57.229Z</time></trkpt><trkpt lat="40.12208663305908" lon="9.175800198052404"><ele>798.0</ele><time>2026-04-29T15:55:58.229Z</time></trkpt><trkpt lat="40.12204037878268" lon="9.176007269608395"><ele>802.0</ele><time>2026-04-29T15:55:59.229Z</time></trkpt><trkpt lat="40.12200956658916" lon="9.176224975935364"><ele>806.0</ele><time>2026-04-29T15:56:00.229Z</time></trkpt><trkpt lat="40.12202795154757" lon="9.176434057016245"><ele>810.0</ele><time>2026-04-29T15:56:01.229Z</time></trkpt><trkpt lat="40.12213644404386" lon="9.176647284259829"><ele>812.3333333333333</ele><time>2026-04-29T15:56:02.229Z</time></trkpt><trkpt lat="40.122284364225834" lon="9.17681269898703"><ele>814.6666666666666</ele><time>2026-04-29T15:56:03.229Z</time></trkpt><trkpt lat="40.122471192731076" lon="9.176943170125245"><ele>817.0</ele><time>2026-04-29T15:56:04.229Z</time></trkpt><trkpt lat="40.12264738834561" lon="9.17708063932749"><ele>814.6666666666666</ele><time>2026-04-29T15:56:05.229Z</time></trkpt><trkpt lat="40.12278530838032" lon="9.177300560224413"><ele>812.3333333333333</ele><time>2026-04-29T15:56:06.229Z</time></trkpt><trkpt lat="40.12288414496694" lon="9.177562330217341"><ele>810.0</ele><time>2026-04-29T15:56:07.229Z</time></trkpt><trkpt lat="40.12296226983044" lon="9.177845823354183"><ele>810.0</ele><time>2026-04-29T15:56:08.229Z</time></trkpt><trkpt lat="40.123050783671644" lon="9.178112844408234"><ele>810.0</ele><time>2026-04-29T15:56:09.229Z</time></trkpt><trkpt lat="40.123155801418804" lon="9.178364951138095"><ele>810.0</ele><time>2026-04-29T15:56:10.229Z</time></trkpt><trkpt lat="40.1232734287385" lon="9.178589003417583"><ele>801.0</ele><time>2026-04-29T15:56:11.229Z</time></trkpt><trkpt lat="40.123335932544094" lon="9.178797941887185"><ele>792.0</ele><time>2026-04-29T15:56:12.229Z</time></trkpt><trkpt lat="40.12332595929001" lon="9.179011117628301"><ele>783.0</ele><time>2026-04-29T15:56:13.229Z</time></trkpt><trkpt lat="40.123251011711794" lon="9.179242927640905"><ele>793.6666666666667</ele><time>2026-04-29T15:56:14.229Z</time></trkpt><trkpt lat="40.12318418010321" lon="9.179463259923468"><ele>804.3333333333334</ele><time>2026-04-29T15:56:15.229Z</time></trkpt><trkpt lat="40.12316206391665" lon="9.179693624242875"><ele>815.0</ele><time>2026-04-29T15:56:16.229Z</time></trkpt><trkpt lat="40.123219530837076" lon="9.179939022834995"><ele>805.3333333333334</ele><time>2026-04-29T15:56:17.229Z</time></trkpt><trkpt lat="40.12333197230439" lon="9.180149500615375"><ele>795.6666666666667</ele><time>2026-04-29T15:56:18.229Z</time></trkpt><trkpt lat="40.12351470902632" lon="9.180279847765707"><ele>786.0</ele><time>2026-04-29T15:56:19.229Z</time></trkpt><trkpt lat="40.12373371433488" lon="9.180329511361915"><ele>786.0</ele><time>2026-04-29T15:56:20.229Z</time></trkpt><trkpt lat="40.123958537201254" lon="9.180341038941743"><ele>786.0</ele><time>2026-04-29T15:56:21.229Z</time></trkpt><trkpt lat="40.12415308313237" lon="9.180365163492196"><ele>786.0</ele><time>2026-04-29T15:56:22.229Z</time></trkpt><trkpt lat="40.124317117612655" lon="9.180487954477213"><ele>787.5</ele><time>2026-04-29T15:56:23.229Z</time></trkpt><trkpt lat="40.124484798218525" lon="9.180692507235861"><ele>789.0</ele><time>2026-04-29T15:56:24.229Z</time></trkpt><trkpt lat="40.12467196694328" lon="9.18085308307069"><ele>789.0</ele><time>2026-04-29T15:56:25.229Z</time></trkpt><trkpt lat="40.12484158176169" lon="9.18098069877161"><ele>789.0</ele><time>2026-04-29T15:56:26.229Z</time></trkpt><trkpt lat="40.12499606691231" lon="9.181143836328879"><ele>789.0</ele><time>2026-04-29T15:56:27.229Z</time></trkpt><trkpt lat="40.12514300537339" lon="9.181367865842882"><ele>787.0</ele><time>2026-04-29T15:56:28.229Z</time></trkpt><trkpt lat="40.12530326527971" lon="9.181582883723156"><ele>785.0</ele><time>2026-04-29T15:56:29.229Z</time></trkpt><trkpt lat="40.12548481914896" lon="9.181771160315542"><ele>785.0</ele><time>2026-04-29T15:56:30.229Z</time></trkpt><trkpt lat="40.12570719614202" lon="9.181920711589804"><ele>785.0</ele><time>2026-04-29T15:56:31.229Z</time></trkpt><trkpt lat="40.12593959683828" lon="9.182031478068724"><ele>770.0</ele><time>2026-04-29T15:56:32.229Z</time></trkpt><trkpt lat="40.126163265280624" lon="9.182156430250114"><ele>755.0</ele><time>2026-04-29T15:56:33.229Z</time></trkpt><trkpt lat="40.126360295829755" lon="9.182337584420393"><ele>754.5</ele><time>2026-04-29T15:56:34.23Z</time></trkpt><trkpt lat="40.1265446069953" lon="9.182515756386339"><ele>754.0</ele><time>2026-04-29T15:56:35.23Z</time></trkpt><trkpt lat="40.126753491945514" lon="9.18264875554543"><ele>754.0</ele><time>2026-04-29T15:56:36.23Z</time></trkpt><trkpt lat="40.126961423139015" lon="9.182757362381386"><ele>754.0</ele><time>2026-04-29T15:56:37.23Z</time></trkpt><trkpt lat="40.12715673325821" lon="9.182884422273704"><ele>754.0</ele><time>2026-04-29T15:56:38.23Z</time></trkpt><trkpt lat="40.12732486797853" lon="9.183062385413201"><ele>753.0</ele><time>2026-04-29T15:56:39.23Z</time></trkpt><trkpt lat="40.12747009187651" lon="9.183288507227209"><ele>752.0</ele><time>2026-04-29T15:56:40.23Z</time></trkpt><trkpt lat="40.127595456653246" lon="9.183512452564525"><ele>751.0</ele><time>2026-04-29T15:56:41.23Z</time></trkpt><trkpt lat="40.12770697535993" lon="9.183718253121768"><ele>751.0</ele><time>2026-04-29T15:56:42.23Z</time></trkpt><trkpt lat="40.1277816055981" lon="9.183929659423972"><ele>751.0</ele><time>2026-04-29T15:56:43.23Z</time></trkpt><trkpt lat="40.12779306135893" lon="9.184176679727882"><ele>751.0</ele><time>2026-04-29T15:56:44.23Z</time></trkpt><trkpt lat="40.12776422914356" lon="9.184437051596946"><ele>752.0</ele><time>2026-04-29T15:56:45.23Z</time></trkpt><trkpt lat="40.12774409115394" lon="9.184682983525935"><ele>753.0</ele><time>2026-04-29T15:56:46.231Z</time></trkpt><trkpt lat="40.12773725707776" lon="9.184891901667186"><ele>754.0</ele><time>2026-04-29T15:56:47.231Z</time></trkpt><trkpt lat="40.127766114290026" lon="9.185074433639818"><ele>754.0</ele><time>2026-04-29T15:56:48.231Z</time></trkpt><trkpt lat="40.12783791850346" lon="9.185244272566992"><ele>754.0</ele><time>2026-04-29T15:56:49.231Z</time></trkpt><trkpt lat="40.12791746217703" lon="9.185390948909633"><ele>754.0</ele><time>2026-04-29T15:56:50.231Z</time></trkpt><trkpt lat="40.12797173133008" lon="9.18553644890244"><ele>754.0</ele><time>2026-04-29T15:56:51.231Z</time></trkpt><trkpt lat="40.127985978418415" lon="9.185685904029958"><ele>753.0</ele><time>2026-04-29T15:56:52.231Z</time></trkpt><trkpt lat="40.12795198793749" lon="9.185838464439865"><ele>752.0</ele><time>2026-04-29T15:56:53.231Z</time></trkpt><trkpt lat="40.127882626568244" lon="9.185970177562783"><ele>751.0</ele><time>2026-04-29T15:56:54.231Z</time></trkpt><trkpt lat="40.12778466062972" lon="9.186076352868216"><ele>750.0</ele><time>2026-04-29T15:56:55.231Z</time></trkpt><trkpt lat="40.127694643655765" lon="9.186179097214904"><ele>750.0</ele><time>2026-04-29T15:56:56.231Z</time></trkpt><trkpt lat="40.1276434889813" lon="9.186313558131776"><ele>750.0</ele><time>2026-04-29T15:56:57.231Z</time></trkpt><trkpt lat="40.127624497569414" lon="9.186455883844667"><ele>750.0</ele><time>2026-04-29T15:56:58.231Z</time></trkpt><trkpt lat="40.12760058734767" lon="9.186607093826783"><ele>750.0</ele><time>2026-04-29T15:56:59.231Z</time></trkpt><trkpt lat="40.12752399525234" lon="9.186733314367324"><ele>748.75</ele><time>2026-04-29T15:57:00.231Z</time></trkpt><trkpt lat="40.127432578329376" lon="9.186842681134246"><ele>747.5</ele><time>2026-04-29T15:57:01.231Z</time></trkpt><trkpt lat="40.12737782994087" lon="9.18696217213751"><ele>746.25</ele><time>2026-04-29T15:57:02.231Z</time></trkpt><trkpt lat="40.1273597555012" lon="9.187111403621426"><ele>745.0</ele><time>2026-04-29T15:57:03.231Z</time></trkpt><trkpt lat="40.12741453649669" lon="9.18730771713981"><ele>743.0</ele><time>2026-04-29T15:57:04.231Z</time></trkpt><trkpt lat="40.12749353820172" lon="9.187584602708444"><ele>741.0</ele><time>2026-04-29T15:57:05.231Z</time></trkpt><trkpt lat="40.12753972943825" lon="9.187908286259658"><ele>740.5</ele><time>2026-04-29T15:57:06.231Z</time></trkpt><trkpt lat="40.127560505783926" lon="9.188222172529102"><ele>740.0</ele><time>2026-04-29T15:57:07.231Z</time></trkpt><trkpt lat="40.127588426001346" lon="9.18851777880489"><ele>740.0</ele><time>2026-04-29T15:57:08.231Z</time></trkpt><trkpt lat="40.12756086862202" lon="9.188812682236758"><ele>740.0</ele><time>2026-04-29T15:57:09.231Z</time></trkpt><trkpt lat="40.127545701815045" lon="9.189113166185704"><ele>739.5</ele><time>2026-04-29T15:57:10.231Z</time></trkpt><trkpt lat="40.127551175495604" lon="9.189423478713302"><ele>739.0</ele><time>2026-04-29T15:57:11.231Z</time></trkpt><trkpt lat="40.127570403417884" lon="9.189729883706283"><ele>737.0</ele><time>2026-04-29T15:57:12.231Z</time></trkpt><trkpt lat="40.12757764900827" lon="9.190012700783601"><ele>735.0</ele><time>2026-04-29T15:57:13.231Z</time></trkpt><trkpt lat="40.12755083108774" lon="9.190272808002744"><ele>733.0</ele><time>2026-04-29T15:57:14.231Z</time></trkpt><trkpt lat="40.12754332151296" lon="9.190498581609274"><ele>733.3333333333334</ele><time>2026-04-29T15:57:15.231Z</time></trkpt><trkpt lat="40.127601020361396" lon="9.190694517816368"><ele>733.6666666666666</ele><time>2026-04-29T15:57:16.231Z</time></trkpt><trkpt lat="40.127750630523" lon="9.190882148501979"><ele>734.0</ele><time>2026-04-29T15:57:17.231Z</time></trkpt><trkpt lat="40.12790994981157" lon="9.19109341401494"><ele>734.0</ele><time>2026-04-29T15:57:18.231Z</time></trkpt><trkpt lat="40.12805759525069" lon="9.191333023419336"><ele>734.0</ele><time>2026-04-29T15:57:19.231Z</time></trkpt><trkpt lat="40.12821493750315" lon="9.191551660887848"><ele>729.3333333333333</ele><time>2026-04-29T15:57:20.231Z</time></trkpt><trkpt lat="40.128395049794925" lon="9.191713090950708"><ele>724.6666666666666</ele><time>2026-04-29T15:57:21.231Z</time></trkpt><trkpt lat="40.12856658464026" lon="9.191870484842994"><ele>720.0</ele><time>2026-04-29T15:57:22.231Z</time></trkpt><trkpt lat="40.12870081591178" lon="9.19211144118853"><ele>729.0</ele><time>2026-04-29T15:57:23.231Z</time></trkpt><trkpt lat="40.12883905365821" lon="9.192375838146841"><ele>738.0</ele><time>2026-04-29T15:57:24.231Z</time></trkpt><trkpt lat="40.1289945722795" lon="9.192627335941493"><ele>722.0</ele><time>2026-04-29T15:57:25.231Z</time></trkpt><trkpt lat="40.12915355831284" lon="9.19286321163247"><ele>706.0</ele><time>2026-04-29T15:57:26.231Z</time></trkpt><trkpt lat="40.12930207495688" lon="9.193077629539841"><ele>709.6666666666667</ele><time>2026-04-29T15:57:27.231Z</time></trkpt><trkpt lat="40.129417185602506" lon="9.193284610927789"><ele>713.3333333333334</ele><time>2026-04-29T15:57:28.231Z</time></trkpt><trkpt lat="40.129470333611295" lon="9.193506481350466"><ele>717.0</ele><time>2026-04-29T15:57:29.231Z</time></trkpt><trkpt lat="40.12944648306273" lon="9.193758315994815"><ele>717.0</ele><time>2026-04-29T15:57:30.231Z</time></trkpt><trkpt lat="40.129460633503285" lon="9.19398859573608"><ele>717.0</ele><time>2026-04-29T15:57:31.231Z</time></trkpt><trkpt lat="40.12954514718682" lon="9.194164538260646"><ele>717.0</ele><time>2026-04-29T15:57:32.231Z</time></trkpt><trkpt lat="40.129703650027864" lon="9.19428828891982"><ele>710.0</ele><time>2026-04-29T15:57:33.231Z</time></trkpt><trkpt lat="40.12991664493102" lon="9.194362601574472"><ele>703.0</ele><time>2026-04-29T15:57:34.231Z</time></trkpt><trkpt lat="40.13012555754706" lon="9.19441640896185"><ele>696.0</ele><time>2026-04-29T15:57:35.231Z</time></trkpt><trkpt lat="40.13029418211748" lon="9.194550047175396"><ele>696.0</ele><time>2026-04-29T15:57:36.231Z</time></trkpt><trkpt lat="40.130430738709464" lon="9.194753781287497"><ele>696.0</ele><time>2026-04-29T15:57:37.231Z</time></trkpt><trkpt lat="40.130541085374276" lon="9.19499849740211"><ele>696.0</ele><time>2026-04-29T15:57:38.231Z</time></trkpt><trkpt lat="40.130612071434705" lon="9.19525616502996"><ele>700.6666666666666</ele><time>2026-04-29T15:57:39.231Z</time></trkpt><trkpt lat="40.13064239337686" lon="9.19549409617993"><ele>705.3333333333333</ele><time>2026-04-29T15:57:40.231Z</time></trkpt><trkpt lat="40.13062608843311" lon="9.195728508563988"><ele>710.0</ele><time>2026-04-29T15:57:41.231Z</time></trkpt><trkpt lat="40.13054370855936" lon="9.195991714303318"><ele>709.0</ele><time>2026-04-29T15:57:42.231Z</time></trkpt><trkpt lat="40.13048761812538" lon="9.196273673658892"><ele>708.0</ele><time>2026-04-29T15:57:43.231Z</time></trkpt><trkpt lat="40.13046903855107" lon="9.196577309123718"><ele>708.0</ele><time>2026-04-29T15:57:44.231Z</time></trkpt><trkpt lat="40.130448874432695" lon="9.19688631911919"><ele>708.0</ele><time>2026-04-29T15:57:45.231Z</time></trkpt><trkpt lat="40.130385430716935" lon="9.197206626985569"><ele>703.0</ele><time>2026-04-29T15:57:46.231Z</time></trkpt><trkpt lat="40.130312620390775" lon="9.19752793235674"><ele>698.0</ele><time>2026-04-29T15:57:47.231Z</time></trkpt><trkpt lat="40.130227867036645" lon="9.197824038163896"><ele>698.0</ele><time>2026-04-29T15:57:48.231Z</time></trkpt><trkpt lat="40.130144434287736" lon="9.198101981772817"><ele>698.0</ele><time>2026-04-29T15:57:49.231Z</time></trkpt><trkpt lat="40.1300771750753" lon="9.198367007289352"><ele>698.0</ele><time>2026-04-29T15:57:50.231Z</time></trkpt><trkpt lat="40.13001655506038" lon="9.198608115735661"><ele>694.3333333333333</ele><time>2026-04-29T15:57:51.231Z</time></trkpt><trkpt lat="40.12996795130171" lon="9.198831599996295"><ele>690.6666666666666</ele><time>2026-04-29T15:57:52.231Z</time></trkpt><trkpt lat="40.12995134104383" lon="9.19904443412178"><ele>687.0</ele><time>2026-04-29T15:57:53.231Z</time></trkpt><trkpt lat="40.129981396911504" lon="9.199277895481282"><ele>686.3333333333334</ele><time>2026-04-29T15:57:54.231Z</time></trkpt><trkpt lat="40.130040647334816" lon="9.199514638092168"><ele>685.6666666666667</ele><time>2026-04-29T15:57:55.231Z</time></trkpt><trkpt lat="40.13011389508474" lon="9.199761683519396"><ele>685.0</ele><time>2026-04-29T15:57:56.231Z</time></trkpt><trkpt lat="40.13018350910373" lon="9.200002884708605"><ele>685.0</ele><time>2026-04-29T15:57:57.231Z</time></trkpt><trkpt lat="40.13023952747025" lon="9.200222177015203"><ele>685.0</ele><time>2026-04-29T15:57:58.231Z</time></trkpt><trkpt lat="40.13029814030182" lon="9.200428597633465"><ele>685.0</ele><time>2026-04-29T15:57:59.231Z</time></trkpt><trkpt lat="40.13034636444334" lon="9.200633000224935"><ele>684.3333333333334</ele><time>2026-04-29T15:58:00.231Z</time></trkpt><trkpt lat="40.13035313550439" lon="9.200837225133382"><ele>683.6666666666666</ele><time>2026-04-29T15:58:01.231Z</time></trkpt><trkpt lat="40.13033462386198" lon="9.201047060062635"><ele>683.0</ele><time>2026-04-29T15:58:02.231Z</time></trkpt><trkpt lat="40.13027985314725" lon="9.2012443821223"><ele>683.0</ele><time>2026-04-29T15:58:03.231Z</time></trkpt><trkpt lat="40.13018906698337" lon="9.201418925024798"><ele>683.0</ele><time>2026-04-29T15:58:04.231Z</time></trkpt><trkpt lat="40.13006652885319" lon="9.20155959341513"><ele>683.0</ele><time>2026-04-29T15:58:05.231Z</time></trkpt><trkpt lat="40.129916896635905" lon="9.201660148571714"><ele>682.0</ele><time>2026-04-29T15:58:06.231Z</time></trkpt><trkpt lat="40.12974654391726" lon="9.201738377020247"><ele>681.0</ele><time>2026-04-29T15:58:07.231Z</time></trkpt><trkpt lat="40.129558909867235" lon="9.201783007763968"><ele>680.0</ele><time>2026-04-29T15:58:08.231Z</time></trkpt><trkpt lat="40.12936947383595" lon="9.20185764226497"><ele>680.0</ele><time>2026-04-29T15:58:09.231Z</time></trkpt><trkpt lat="40.12917848802981" lon="9.201932887358119"><ele>680.0</ele><time>2026-04-29T15:58:10.231Z</time></trkpt><trkpt lat="40.12897907703519" lon="9.20201145182376"><ele>680.0</ele><time>2026-04-29T15:58:11.231Z</time></trkpt><trkpt lat="40.128780117962044" lon="9.202089329388603"><ele>684.0</ele><time>2026-04-29T15:58:12.231Z</time></trkpt><trkpt lat="40.12857985705822" lon="9.20216572620715"><ele>688.0</ele><time>2026-04-29T15:58:13.231Z</time></trkpt><trkpt lat="40.12837678940954" lon="9.202242680792974"><ele>692.0</ele><time>2026-04-29T15:58:14.231Z</time></trkpt><trkpt lat="40.12817351467764" lon="9.202312958639693"><ele>685.0</ele><time>2026-04-29T15:58:15.231Z</time></trkpt><trkpt lat="40.12796725955253" lon="9.20236596732591"><ele>678.0</ele><time>2026-04-29T15:58:16.231Z</time></trkpt><trkpt lat="40.12775847843147" lon="9.202418471240858"><ele>671.0</ele><time>2026-04-29T15:58:17.231Z</time></trkpt><trkpt lat="40.127554662559255" lon="9.20249117820571"><ele>672.3333333333333</ele><time>2026-04-29T15:58:18.231Z</time></trkpt><trkpt lat="40.12734366512069" lon="9.202522787791144"><ele>673.6666666666666</ele><time>2026-04-29T15:58:19.231Z</time></trkpt><trkpt lat="40.12713658529025" lon="9.202573807965823"><ele>675.0</ele><time>2026-04-29T15:58:20.231Z</time></trkpt><trkpt lat="40.12693977549223" lon="9.202622819246573"><ele>675.0</ele><time>2026-04-29T15:58:21.231Z</time></trkpt><trkpt lat="40.12675690561159" lon="9.202669100866313"><ele>675.0</ele><time>2026-04-29T15:58:22.231Z</time></trkpt><trkpt lat="40.12658671001596" lon="9.20271150171499"><ele>675.0</ele><time>2026-04-29T15:58:23.231Z</time></trkpt><trkpt lat="40.12641914072307" lon="9.202739780501522"><ele>674.6666666666666</ele><time>2026-04-29T15:58:24.231Z</time></trkpt><trkpt lat="40.12624088501175" lon="9.20273883938607"><ele>674.3333333333333</ele><time>2026-04-29T15:58:25.231Z</time></trkpt><trkpt lat="40.12605764677177" lon="9.20269638397946"><ele>674.0</ele><time>2026-04-29T15:58:26.231Z</time></trkpt><trkpt lat="40.125873195718164" lon="9.202621641153694"><ele>671.6666666666666</ele><time>2026-04-29T15:58:27.231Z</time></trkpt><trkpt lat="40.125686066748514" lon="9.202545003261385"><ele>669.3333333333334</ele><time>2026-04-29T15:58:28.231Z</time></trkpt><trkpt lat="40.12549391992548" lon="9.202466103127682"><ele>667.0</ele><time>2026-04-29T15:58:29.231Z</time></trkpt><trkpt lat="40.125302251011476" lon="9.20238659537476"><ele>670.3333333333334</ele><time>2026-04-29T15:58:30.231Z</time></trkpt><trkpt lat="40.12512275746652" lon="9.20231213996695"><ele>673.6666666666666</ele><time>2026-04-29T15:58:31.231Z</time></trkpt><trkpt lat="40.12495923822245" lon="9.20224436086357"><ele>677.0</ele><time>2026-04-29T15:58:32.231Z</time></trkpt><trkpt lat="40.12477348483003" lon="9.202186251281098"><ele>677.0</ele><time>2026-04-29T15:58:33.231Z</time></trkpt><trkpt lat="40.12456748899796" lon="9.202181267434398"><ele>677.0</ele><time>2026-04-29T15:58:34.231Z</time></trkpt><trkpt lat="40.12437709732744" lon="9.202212898733062"><ele>677.0</ele><time>2026-04-29T15:58:35.231Z</time></trkpt><trkpt lat="40.12418783654553" lon="9.20225419829094"><ele>680.0</ele><time>2026-04-29T15:58:36.231Z</time></trkpt><trkpt lat="40.123994968469205" lon="9.202298977534404"><ele>683.0</ele><time>2026-04-29T15:58:37.231Z</time></trkpt><trkpt lat="40.123800172717644" lon="9.202344204335887"><ele>686.0</ele><time>2026-04-29T15:58:38.231Z</time></trkpt><trkpt lat="40.123607928752996" lon="9.202388838682381"><ele>680.0</ele><time>2026-04-29T15:58:39.231Z</time></trkpt><trkpt lat="40.12341797010021" lon="9.202432510924295"><ele>674.0</ele><time>2026-04-29T15:58:40.232Z</time></trkpt><trkpt lat="40.12323217360755" lon="9.202462978357136"><ele>668.0</ele><time>2026-04-29T15:58:41.232Z</time></trkpt><trkpt lat="40.12303797058604" lon="9.202457739335221"><ele>668.0</ele><time>2026-04-29T15:58:42.232Z</time></trkpt><trkpt lat="40.122849664552795" lon="9.20243064199036"><ele>668.0</ele><time>2026-04-29T15:58:43.231Z</time></trkpt><trkpt lat="40.12265917685636" lon="9.202404722668218"><ele>668.0</ele><time>2026-04-29T15:58:44.231Z</time></trkpt><trkpt lat="40.12246572548151" lon="9.202379885422705"><ele>668.6666666666666</ele><time>2026-04-29T15:58:45.231Z</time></trkpt><trkpt lat="40.12224944813174" lon="9.202408477498201"><ele>669.3333333333334</ele><time>2026-04-29T15:58:46.231Z</time></trkpt><trkpt lat="40.12204804239859" lon="9.202477275895793"><ele>670.0</ele><time>2026-04-29T15:58:47.232Z</time></trkpt><trkpt lat="40.12184597409255" lon="9.202553468771653"><ele>670.0</ele><time>2026-04-29T15:58:48.232Z</time></trkpt><trkpt lat="40.12166919954158" lon="9.202609530642993"><ele>670.0</ele><time>2026-04-29T15:58:49.232Z</time></trkpt><trkpt lat="40.12152973938993" lon="9.202607398298234"><ele>670.0</ele><time>2026-04-29T15:58:50.231Z</time></trkpt><trkpt lat="40.12138186601171" lon="9.202583302965442"><ele>669.3333333333334</ele><time>2026-04-29T15:58:51.231Z</time></trkpt><trkpt lat="40.12119217268542" lon="9.202521871339485"><ele>668.6666666666666</ele><time>2026-04-29T15:58:52.232Z</time></trkpt><trkpt lat="40.12100392005336" lon="9.202458658386487"><ele>668.0</ele><time>2026-04-29T15:58:53.231Z</time></trkpt><trkpt lat="40.12080926982366" lon="9.202402163796286"><ele>670.0</ele><time>2026-04-29T15:58:54.231Z</time></trkpt><trkpt lat="40.12060968184833" lon="9.202392508047941"><ele>672.0</ele><time>2026-04-29T15:58:55.231Z</time></trkpt><trkpt lat="40.120415040271745" lon="9.202443189146384"><ele>674.0</ele><time>2026-04-29T15:58:56.231Z</time></trkpt><trkpt lat="40.1202270890969" lon="9.202511653409976"><ele>674.0</ele><time>2026-04-29T15:58:57.231Z</time></trkpt><trkpt lat="40.12003804529254" lon="9.202583464504864"><ele>674.0</ele><time>2026-04-29T15:58:58.231Z</time></trkpt><trkpt lat="40.119850310360796" lon="9.202659351413956"><ele>674.0</ele><time>2026-04-29T15:58:59.231Z</time></trkpt><trkpt lat="40.11966640128834" lon="9.20277134786848"><ele>678.3333333333333</ele><time>2026-04-29T15:59:00.231Z</time></trkpt><trkpt lat="40.11948667946445" lon="9.202899699333543"><ele>682.6666666666666</ele><time>2026-04-29T15:59:01.231Z</time></trkpt><trkpt lat="40.11931494088644" lon="9.203030152336394"><ele>687.0</ele><time>2026-04-29T15:59:02.231Z</time></trkpt><trkpt lat="40.11914803534395" lon="9.203140256277822"><ele>679.0</ele><time>2026-04-29T15:59:03.231Z</time></trkpt><trkpt lat="40.1189766674416" lon="9.20322614045699"><ele>671.0</ele><time>2026-04-29T15:59:04.231Z</time></trkpt><trkpt lat="40.118792378019684" lon="9.203249759398041"><ele>663.0</ele><time>2026-04-29T15:59:05.231Z</time></trkpt><trkpt lat="40.11860060825965" lon="9.20324509323944"><ele>663.0</ele><time>2026-04-29T15:59:06.231Z</time></trkpt><trkpt lat="40.11840263061201" lon="9.203241450620013"><ele>663.0</ele><time>2026-04-29T15:59:07.231Z</time></trkpt><trkpt lat="40.11821214614911" lon="9.203247658157636"><ele>663.0</ele><time>2026-04-29T15:59:08.231Z</time></trkpt><trkpt lat="40.118035960451934" lon="9.203253399739618"><ele>664.0</ele><time>2026-04-29T15:59:09.231Z</time></trkpt><trkpt lat="40.11788540096596" lon="9.203273080395658"><ele>665.0</ele><time>2026-04-29T15:59:10.231Z</time></trkpt><trkpt lat="40.11773498056569" lon="9.203321388035096"><ele>666.0</ele><time>2026-04-29T15:59:11.231Z</time></trkpt><trkpt lat="40.117609087395586" lon="9.203434488538766"><ele>666.0</ele><time>2026-04-29T15:59:12.231Z</time></trkpt><trkpt lat="40.11752310757635" lon="9.20355253706004"><ele>666.0</ele><time>2026-04-29T15:59:13.231Z</time></trkpt><trkpt lat="40.11739613723083" lon="9.203757831025362"><ele>666.0</ele><time>2026-04-29T15:59:14.231Z</time></trkpt><trkpt lat="40.117298522672016" lon="9.204059413602934"><ele>667.3333333333334</ele><time>2026-04-29T15:59:15.231Z</time></trkpt><trkpt lat="40.117230792795446" lon="9.20429971796068"><ele>668.6666666666667</ele><time>2026-04-29T15:59:16.231Z</time></trkpt><trkpt lat="40.11718871801178" lon="9.204493530899688"><ele>670.0</ele><time>2026-04-29T15:59:17.231Z</time></trkpt><trkpt lat="40.1172050179211" lon="9.204702770226795"><ele>668.6666666666667</ele><time>2026-04-29T15:59:18.231Z</time></trkpt><trkpt lat="40.11726004896609" lon="9.204916383072723"><ele>667.3333333333334</ele><time>2026-04-29T15:59:19.231Z</time></trkpt><trkpt lat="40.117338003098155" lon="9.205141351663963"><ele>666.0</ele><time>2026-04-29T15:59:20.231Z</time></trkpt><trkpt lat="40.117442378832294" lon="9.205342241186045"><ele>660.3333333333334</ele><time>2026-04-29T15:59:21.231Z</time></trkpt><trkpt lat="40.11755276104092" lon="9.205554691228324"><ele>654.6666666666667</ele><time>2026-04-29T15:59:22.231Z</time></trkpt><trkpt lat="40.117656490370905" lon="9.205754336617652"><ele>649.0</ele><time>2026-04-29T15:59:23.231Z</time></trkpt><trkpt lat="40.117788034987846" lon="9.205972577442372"><ele>645.3333333333334</ele><time>2026-04-29T15:59:24.231Z</time></trkpt><trkpt lat="40.11791065885501" lon="9.206210496728003"><ele>641.6666666666666</ele><time>2026-04-29T15:59:25.231Z</time></trkpt><trkpt lat="40.11803857659745" lon="9.206451304058513"><ele>638.0</ele><time>2026-04-29T15:59:26.231Z</time></trkpt><trkpt lat="40.11814795201143" lon="9.206700645602401"><ele>640.6666666666666</ele><time>2026-04-29T15:59:27.231Z</time></trkpt><trkpt lat="40.11827031085051" lon="9.20693627002882"><ele>643.3333333333334</ele><time>2026-04-29T15:59:28.231Z</time></trkpt><trkpt lat="40.11840577021141" lon="9.20716038911517"><ele>646.0</ele><time>2026-04-29T15:59:29.231Z</time></trkpt><trkpt lat="40.11851788646526" lon="9.207394395164352"><ele>648.3333333333334</ele><time>2026-04-29T15:59:30.231Z</time></trkpt><trkpt lat="40.118652304855196" lon="9.207604468549091"><ele>650.6666666666666</ele><time>2026-04-29T15:59:31.231Z</time></trkpt><trkpt lat="40.11879790297047" lon="9.207790245812884"><ele>653.0</ele><time>2026-04-29T15:59:32.231Z</time></trkpt><trkpt lat="40.11894115014598" lon="9.20795955154602"><ele>653.0</ele><time>2026-04-29T15:59:33.231Z</time></trkpt><trkpt lat="40.119061942079156" lon="9.208119823124662"><ele>653.0</ele><time>2026-04-29T15:59:34.231Z</time></trkpt><trkpt lat="40.119188730866775" lon="9.208238063470178"><ele>653.0</ele><time>2026-04-29T15:59:35.231Z</time></trkpt><trkpt lat="40.119333022041" lon="9.20830710941928"><ele>655.3333333333333</ele><time>2026-04-29T15:59:36.231Z</time></trkpt><trkpt lat="40.11950118592317" lon="9.208344005999399"><ele>657.6666666666666</ele><time>2026-04-29T15:59:37.231Z</time></trkpt><trkpt lat="40.11967877697512" lon="9.208363165062288"><ele>660.0</ele><time>2026-04-29T15:59:38.231Z</time></trkpt><trkpt lat="40.11986649516414" lon="9.208390365453132"><ele>660.3333333333334</ele><time>2026-04-29T15:59:39.231Z</time></trkpt><trkpt lat="40.12005431415001" lon="9.20845657302968"><ele>660.6666666666667</ele><time>2026-04-29T15:59:40.231Z</time></trkpt><trkpt lat="40.12024245183417" lon="9.20854716486931"><ele>661.0</ele><time>2026-04-29T15:59:41.231Z</time></trkpt><trkpt lat="40.12043157467866" lon="9.208645419852639"><ele>661.0</ele><time>2026-04-29T15:59:42.231Z</time></trkpt><trkpt lat="40.12062330575307" lon="9.20874327618989"><ele>661.0</ele><time>2026-04-29T15:59:43.231Z</time></trkpt><trkpt lat="40.120812580536196" lon="9.208845992124255"><ele>661.0</ele><time>2026-04-29T15:59:44.231Z</time></trkpt><trkpt lat="40.12100103771536" lon="9.208937120428901"><ele>663.6666666666667</ele><time>2026-04-29T15:59:45.231Z</time></trkpt><trkpt lat="40.12118777889872" lon="9.209028093494192"><ele>666.3333333333334</ele><time>2026-04-29T15:59:46.231Z</time></trkpt><trkpt lat="40.121376365999915" lon="9.209123115842097"><ele>669.0</ele><time>2026-04-29T15:59:47.231Z</time></trkpt><trkpt lat="40.12154997147874" lon="9.209210692700394"><ele>666.0</ele><time>2026-04-29T15:59:48.231Z</time></trkpt><trkpt lat="40.121709778175244" lon="9.209311064035733"><ele>663.0</ele><time>2026-04-29T15:59:49.231Z</time></trkpt><trkpt lat="40.12185744573191" lon="9.209388307859157"><ele>660.0</ele><time>2026-04-29T15:59:50.231Z</time></trkpt><trkpt lat="40.121983697602026" lon="9.209454349287952"><ele>660.0</ele><time>2026-04-29T15:59:51.231Z</time></trkpt><trkpt lat="40.12210363180927" lon="9.209527184314457"><ele>660.0</ele><time>2026-04-29T15:59:52.231Z</time></trkpt><trkpt lat="40.12219391951337" lon="9.209655640576115"><ele>660.0</ele><time>2026-04-29T15:59:53.231Z</time></trkpt><trkpt lat="40.122267574507845" lon="9.209810233543942"><ele>660.0</ele><time>2026-04-29T15:59:54.231Z</time></trkpt><trkpt lat="40.122310286077116" lon="9.20999246406674"><ele>665.0</ele><time>2026-04-29T15:59:55.231Z</time></trkpt><trkpt lat="40.12231831714767" lon="9.210190096323494"><ele>670.0</ele><time>2026-04-29T15:59:56.231Z</time></trkpt><trkpt lat="40.12230604374526" lon="9.210383743664488"><ele>675.0</ele><time>2026-04-29T15:59:57.231Z</time></trkpt><trkpt lat="40.122298003236125" lon="9.210564226171476"><ele>680.0</ele><time>2026-04-29T15:59:58.231Z</time></trkpt><trkpt lat="40.122318467165975" lon="9.210732973988723"><ele>677.8</ele><time>2026-04-29T15:59:59.231Z</time></trkpt><trkpt lat="40.12235148974303" lon="9.210877790116903"><ele>675.6</ele><time>2026-04-29T16:00:00.231Z</time></trkpt><trkpt lat="40.12241707464455" lon="9.21098249590952"><ele>673.4000000000001</ele><time>2026-04-29T16:00:01.231Z</time></trkpt><trkpt lat="40.12248541413149" lon="9.211044319580495"><ele>671.2</ele><time>2026-04-29T16:00:02.231Z</time></trkpt><trkpt lat="40.12257133518538" lon="9.211097713596397"><ele>669.0</ele><time>2026-04-29T16:00:03.231Z</time></trkpt><trkpt lat="40.12271524940656" lon="9.211172330303485"><ele>669.0</ele><time>2026-04-29T16:00:04.231Z</time></trkpt><trkpt lat="40.12296190544441" lon="9.211170018503893"><ele>669.0</ele><time>2026-04-29T16:00:05.231Z</time></trkpt><trkpt lat="40.12320248178355" lon="9.21100336343838"><ele>667.3333333333334</ele><time>2026-04-29T16:00:06.231Z</time></trkpt><trkpt lat="40.123347692430244" lon="9.210853183458648"><ele>665.6666666666667</ele><time>2026-04-29T16:00:07.231Z</time></trkpt><trkpt lat="40.12350688944498" lon="9.210690875991496"><ele>664.0</ele><time>2026-04-29T16:00:08.231Z</time></trkpt><trkpt lat="40.123668368095565" lon="9.210524573280033"><ele>661.3333333333334</ele><time>2026-04-29T16:00:09.231Z</time></trkpt><trkpt lat="40.12381442455073" lon="9.210374153510768"><ele>658.6666666666666</ele><time>2026-04-29T16:00:10.231Z</time></trkpt><trkpt lat="40.12395627796232" lon="9.21023347509192"><ele>656.0</ele><time>2026-04-29T16:00:11.231Z</time></trkpt><trkpt lat="40.12409790575286" lon="9.210129961067615"><ele>656.0</ele><time>2026-04-29T16:00:12.231Z</time></trkpt><trkpt lat="40.12426506281865" lon="9.210060823656839"><ele>656.0</ele><time>2026-04-29T16:00:13.231Z</time></trkpt><trkpt lat="40.124456266751736" lon="9.210017030913937"><ele>656.0</ele><time>2026-04-29T16:00:14.231Z</time></trkpt><trkpt lat="40.124664611119705" lon="9.209971928475465"><ele>656.0</ele><time>2026-04-29T16:00:15.231Z</time></trkpt><trkpt lat="40.124879371323686" lon="9.20992372722463"><ele>656.0</ele><time>2026-04-29T16:00:16.231Z</time></trkpt><trkpt lat="40.125100523320214" lon="9.209843059911506"><ele>656.0</ele><time>2026-04-29T16:00:17.231Z</time></trkpt><trkpt lat="40.12531391992555" lon="9.209719240272637"><ele>655.0</ele><time>2026-04-29T16:00:18.231Z</time></trkpt><trkpt lat="40.12552393543558" lon="9.20957617125976"><ele>654.0</ele><time>2026-04-29T16:00:19.231Z</time></trkpt><trkpt lat="40.12573678811779" lon="9.20943283113845"><ele>654.0</ele><time>2026-04-29T16:00:20.231Z</time></trkpt><trkpt lat="40.125951228441984" lon="9.209289712154341"><ele>654.0</ele><time>2026-04-29T16:00:21.231Z</time></trkpt><trkpt lat="40.12618790596399" lon="9.209226529677103"><ele>654.0</ele><time>2026-04-29T16:00:22.231Z</time></trkpt><trkpt lat="40.12642464244332" lon="9.209156255150184"><ele>654.0</ele><time>2026-04-29T16:00:23.231Z</time></trkpt><trkpt lat="40.126662251842546" lon="9.209085864988399"><ele>658.0</ele><time>2026-04-29T16:00:24.231Z</time></trkpt><trkpt lat="40.126895431066565" lon="9.2090167872294"><ele>662.0</ele><time>2026-04-29T16:00:25.231Z</time></trkpt><trkpt lat="40.12710873656504" lon="9.208956025525607"><ele>657.3333333333333</ele><time>2026-04-29T16:00:26.231Z</time></trkpt><trkpt lat="40.12730443511852" lon="9.208906709413025"><ele>652.6666666666666</ele><time>2026-04-29T16:00:27.231Z</time></trkpt><trkpt lat="40.12749139575968" lon="9.208872402194602"><ele>648.0</ele><time>2026-04-29T16:00:28.231Z</time></trkpt><trkpt lat="40.12767863197105" lon="9.208924721539338"><ele>651.6666666666666</ele><time>2026-04-29T16:00:29.231Z</time></trkpt><trkpt lat="40.12787205554146" lon="9.209008010289793"><ele>655.3333333333333</ele><time>2026-04-29T16:00:30.231Z</time></trkpt><trkpt lat="40.12807246311857" lon="9.209113529220295"><ele>659.0</ele><time>2026-04-29T16:00:31.231Z</time></trkpt><trkpt lat="40.12828461531477" lon="9.209229013009681"><ele>659.0</ele><time>2026-04-29T16:00:32.231Z</time></trkpt><trkpt lat="40.12849018643101" lon="9.209341851312615"><ele>659.0</ele><time>2026-04-29T16:00:33.231Z</time></trkpt><trkpt lat="40.12868663829003" lon="9.209452103986342"><ele>659.0</ele><time>2026-04-29T16:00:34.231Z</time></trkpt><trkpt lat="40.12885690116915" lon="9.20954669768058"><ele>659.0</ele><time>2026-04-29T16:00:35.231Z</time></trkpt><trkpt lat="40.12899589975853" lon="9.20965061210337"><ele>659.0</ele><time>2026-04-29T16:00:36.231Z</time></trkpt><trkpt lat="40.12910362160572" lon="9.209795219567898"><ele>659.0</ele><time>2026-04-29T16:00:37.231Z</time></trkpt><trkpt lat="40.129184176817255" lon="9.209969746894311"><ele>659.0</ele><time>2026-04-29T16:00:38.231Z</time></trkpt><trkpt lat="40.129212671835006" lon="9.21019685466607"><ele>659.0</ele><time>2026-04-29T16:00:39.231Z</time></trkpt><trkpt lat="40.12918763260931" lon="9.210445230034813"><ele>659.0</ele><time>2026-04-29T16:00:40.231Z</time></trkpt><trkpt lat="40.12912893341633" lon="9.210709283569887"><ele>661.3333333333333</ele><time>2026-04-29T16:00:41.231Z</time></trkpt><trkpt lat="40.12912571166627" lon="9.210977091471426"><ele>663.6666666666666</ele><time>2026-04-29T16:00:42.231Z</time></trkpt><trkpt lat="40.1291448490632" lon="9.211203513964215"><ele>666.0</ele><time>2026-04-29T16:00:43.231Z</time></trkpt><trkpt lat="40.12919660857616" lon="9.21136042638349"><ele>668.3333333333334</ele><time>2026-04-29T16:00:44.231Z</time></trkpt><trkpt lat="40.129282853537504" lon="9.211514197550322"><ele>670.6666666666667</ele><time>2026-04-29T16:00:45.231Z</time></trkpt><trkpt lat="40.129392870662116" lon="9.211670130890404"><ele>673.0</ele><time>2026-04-29T16:00:46.233Z</time></trkpt><trkpt lat="40.12949946878327" lon="9.211833250822114"><ele>673.0</ele><time>2026-04-29T16:00:47.233Z</time></trkpt><trkpt lat="40.12959862974258" lon="9.211966399730164"><ele>673.0</ele><time>2026-04-29T16:00:48.233Z</time></trkpt><trkpt lat="40.12970524389871" lon="9.212074940334778"><ele>673.0</ele><time>2026-04-29T16:00:49.233Z</time></trkpt><trkpt lat="40.12979298298339" lon="9.21213090453531"><ele>673.0</ele><time>2026-04-29T16:00:50.233Z</time></trkpt><trkpt lat="40.13004882089998" lon="9.212132240505404"><ele>666.6666666666667</ele><time>2026-04-29T16:00:51.233Z</time></trkpt><trkpt lat="40.1301849356343" lon="9.212139687856185"><ele>660.3333333333334</ele><time>2026-04-29T16:00:52.233Z</time></trkpt><trkpt lat="40.13047313085921" lon="9.212080015395541"><ele>654.0</ele><time>2026-04-29T16:00:53.232Z</time></trkpt><trkpt lat="40.13070264297761" lon="9.212066114800837"><ele>653.6666666666666</ele><time>2026-04-29T16:00:54.232Z</time></trkpt><trkpt lat="40.13091902358957" lon="9.21212312446008"><ele>653.3333333333333</ele><time>2026-04-29T16:00:55.233Z</time></trkpt><trkpt lat="40.131083721541444" lon="9.212238319106158"><ele>653.0</ele><time>2026-04-29T16:00:56.233Z</time></trkpt><trkpt lat="40.13124577413091" lon="9.21233227151984"><ele>653.6666666666666</ele><time>2026-04-29T16:00:57.233Z</time></trkpt><trkpt lat="40.13139267260845" lon="9.212476976504005"><ele>654.3333333333334</ele><time>2026-04-29T16:00:58.233Z</time></trkpt><trkpt lat="40.131530065851265" lon="9.212664104442531"><ele>655.0</ele><time>2026-04-29T16:00:59.233Z</time></trkpt><trkpt lat="40.13164960522881" lon="9.21284026787707"><ele>655.0</ele><time>2026-04-29T16:01:00.233Z</time></trkpt><trkpt lat="40.131751862619616" lon="9.212989803869492"><ele>655.0</ele><time>2026-04-29T16:01:01.233Z</time></trkpt><trkpt lat="40.13186111469584" lon="9.213102527911722"><ele>655.0</ele><time>2026-04-29T16:01:02.233Z</time></trkpt><trkpt lat="40.13197272710703" lon="9.213200390054146"><ele>655.0</ele><time>2026-04-29T16:01:03.233Z</time></trkpt><trkpt lat="40.13214021220415" lon="9.213222424852056"><ele>657.6666666666667</ele><time>2026-04-29T16:01:04.233Z</time></trkpt><trkpt lat="40.13230655256256" lon="9.213246237848288"><ele>660.3333333333334</ele><time>2026-04-29T16:01:05.233Z</time></trkpt><trkpt lat="40.13248924293313" lon="9.21325457077551"><ele>663.0</ele><time>2026-04-29T16:01:06.233Z</time></trkpt><trkpt lat="40.13267543872599" lon="9.213276389310106"><ele>655.3333333333334</ele><time>2026-04-29T16:01:07.233Z</time></trkpt><trkpt lat="40.13286792828779" lon="9.213299474305332"><ele>647.6666666666667</ele><time>2026-04-29T16:01:08.233Z</time></trkpt><trkpt lat="40.133063528585595" lon="9.21332609796006"><ele>640.0</ele><time>2026-04-29T16:01:09.233Z</time></trkpt><trkpt lat="40.133250378405535" lon="9.213353429729663"><ele>639.75</ele><time>2026-04-29T16:01:10.233Z</time></trkpt><trkpt lat="40.133415021129956" lon="9.213384963404366"><ele>639.5</ele><time>2026-04-29T16:01:11.233Z</time></trkpt><trkpt lat="40.13355743014066" lon="9.213406396179417"><ele>639.25</ele><time>2026-04-29T16:01:12.233Z</time></trkpt><trkpt lat="40.133690440096174" lon="9.213408088416006"><ele>639.0</ele><time>2026-04-29T16:01:13.233Z</time></trkpt><trkpt lat="40.13381410212165" lon="9.21337809826364"><ele>639.0</ele><time>2026-04-29T16:01:14.233Z</time></trkpt><trkpt lat="40.133924226820696" lon="9.213283812031538"><ele>639.0</ele><time>2026-04-29T16:01:15.233Z</time></trkpt><trkpt lat="40.13401961647836" lon="9.213141794899592"><ele>639.0</ele><time>2026-04-29T16:01:16.233Z</time></trkpt><trkpt lat="40.13409658280423" lon="9.212959439212206"><ele>639.0</ele><time>2026-04-29T16:01:17.233Z</time></trkpt><trkpt lat="40.13416032262393" lon="9.212741388155608"><ele>642.0</ele><time>2026-04-29T16:01:18.233Z</time></trkpt><trkpt lat="40.134230414711034" lon="9.212508289719379"><ele>645.0</ele><time>2026-04-29T16:01:19.233Z</time></trkpt><trkpt lat="40.134319727430444" lon="9.212285722285158"><ele>648.0</ele><time>2026-04-29T16:01:20.233Z</time></trkpt><trkpt lat="40.13443421212447" lon="9.212074274884403"><ele>648.0</ele><time>2026-04-29T16:01:21.233Z</time></trkpt><trkpt lat="40.13455886381112" lon="9.211879785401493"><ele>648.0</ele><time>2026-04-29T16:01:22.233Z</time></trkpt><trkpt lat="40.13468748975727" lon="9.211686847276885"><ele>648.0</ele><time>2026-04-29T16:01:23.233Z</time></trkpt><trkpt lat="40.134807573336026" lon="9.211510578560551"><ele>654.3333333333334</ele><time>2026-04-29T16:01:24.233Z</time></trkpt><trkpt lat="40.13490392844653" lon="9.21132363739769"><ele>660.6666666666667</ele><time>2026-04-29T16:01:25.233Z</time></trkpt><trkpt lat="40.13496505938076" lon="9.21110594679024"><ele>667.0</ele><time>2026-04-29T16:01:26.233Z</time></trkpt><trkpt lat="40.13498708070228" lon="9.210901481945223"><ele>667.0</ele><time>2026-04-29T16:01:27.233Z</time></trkpt><trkpt lat="40.134952815324205" lon="9.210686006345986"><ele>667.0</ele><time>2026-04-29T16:01:28.233Z</time></trkpt><trkpt lat="40.13487047007619" lon="9.210469576391995"><ele>667.0</ele><time>2026-04-29T16:01:29.233Z</time></trkpt><trkpt lat="40.13475255756113" lon="9.210259680005876"><ele>663.0</ele><time>2026-04-29T16:01:30.233Z</time></trkpt><trkpt lat="40.13463389157837" lon="9.21004317745664"><ele>659.0</ele><time>2026-04-29T16:01:31.233Z</time></trkpt><trkpt lat="40.13453677690138" lon="9.209807187800612"><ele>655.0</ele><time>2026-04-29T16:01:32.233Z</time></trkpt><trkpt lat="40.13446485037062" lon="9.209553655087735"><ele>655.0</ele><time>2026-04-29T16:01:33.233Z</time></trkpt><trkpt lat="40.13439833671352" lon="9.20929665904213"><ele>655.0</ele><time>2026-04-29T16:01:34.233Z</time></trkpt><trkpt lat="40.1343362361184" lon="9.209062960259413"><ele>655.0</ele><time>2026-04-29T16:01:35.233Z</time></trkpt><trkpt lat="40.13427930855047" lon="9.208851604029416"><ele>654.3333333333334</ele><time>2026-04-29T16:01:36.233Z</time></trkpt><trkpt lat="40.13424995238077" lon="9.208638842098573"><ele>653.6666666666666</ele><time>2026-04-29T16:01:37.233Z</time></trkpt><trkpt lat="40.13427700895003" lon="9.208433276530394"><ele>653.0</ele><time>2026-04-29T16:01:38.233Z</time></trkpt><trkpt lat="40.13435671953167" lon="9.208260721363393"><ele>648.6666666666666</ele><time>2026-04-29T16:01:39.233Z</time></trkpt><trkpt lat="40.13447935042721" lon="9.20810749334608"><ele>644.3333333333334</ele><time>2026-04-29T16:01:40.233Z</time></trkpt><trkpt lat="40.13463742251757" lon="9.207985618081203"><ele>640.0</ele><time>2026-04-29T16:01:41.233Z</time></trkpt><trkpt lat="40.13479579143339" lon="9.207882868755604"><ele>644.0</ele><time>2026-04-29T16:01:42.233Z</time></trkpt><trkpt lat="40.13494110686248" lon="9.20777610292699"><ele>648.0</ele><time>2026-04-29T16:01:43.233Z</time></trkpt><trkpt lat="40.1351203770347" lon="9.207660594509264"><ele>652.0</ele><time>2026-04-29T16:01:44.233Z</time></trkpt><trkpt lat="40.135307817855036" lon="9.207553128697885"><ele>652.0</ele><time>2026-04-29T16:01:45.233Z</time></trkpt><trkpt lat="40.13548814924453" lon="9.20744414646341"><ele>652.0</ele><time>2026-04-29T16:01:46.233Z</time></trkpt><trkpt lat="40.13565532684631" lon="9.207312405735308"><ele>652.0</ele><time>2026-04-29T16:01:47.233Z</time></trkpt><trkpt lat="40.1358125660418" lon="9.207142015891094"><ele>652.0</ele><time>2026-04-29T16:01:48.233Z</time></trkpt><trkpt lat="40.13595692026088" lon="9.20694987092275"><ele>652.0</ele><time>2026-04-29T16:01:49.233Z</time></trkpt><trkpt lat="40.13609736731489" lon="9.206739090458804"><ele>652.0</ele><time>2026-04-29T16:01:50.233Z</time></trkpt><trkpt lat="40.13622722098605" lon="9.206540184492127"><ele>649.0</ele><time>2026-04-29T16:01:51.233Z</time></trkpt><trkpt lat="40.1363258464173" lon="9.206357736308034"><ele>646.0</ele><time>2026-04-29T16:01:52.233Z</time></trkpt><trkpt lat="40.136385387030515" lon="9.20614996045055"><ele>643.0</ele><time>2026-04-29T16:01:53.233Z</time></trkpt><trkpt lat="40.13640768037171" lon="9.205907316808961"><ele>642.0</ele><time>2026-04-29T16:01:54.233Z</time></trkpt><trkpt lat="40.13640289107824" lon="9.205648169535158"><ele>641.0</ele><time>2026-04-29T16:01:55.233Z</time></trkpt><trkpt lat="40.13641009789286" lon="9.205406451669274"><ele>640.0</ele><time>2026-04-29T16:01:56.233Z</time></trkpt><trkpt lat="40.13645557256045" lon="9.205197128300329"><ele>641.0</ele><time>2026-04-29T16:01:57.233Z</time></trkpt><trkpt lat="40.13655383616583" lon="9.205020334652524"><ele>642.0</ele><time>2026-04-29T16:01:58.233Z</time></trkpt><trkpt lat="40.136703446838474" lon="9.204862296271873"><ele>643.0</ele><time>2026-04-29T16:01:59.233Z</time></trkpt><trkpt lat="40.13687170811649" lon="9.204719526502279"><ele>643.0</ele><time>2026-04-29T16:02:00.233Z</time></trkpt><trkpt lat="40.13705424610528" lon="9.204590728274008"><ele>643.0</ele><time>2026-04-29T16:02:01.233Z</time></trkpt><trkpt lat="40.13725096638715" lon="9.204464361242588"><ele>643.0</ele><time>2026-04-29T16:02:02.233Z</time></trkpt><trkpt lat="40.137451453812574" lon="9.204345904268143"><ele>647.5</ele><time>2026-04-29T16:02:03.233Z</time></trkpt><trkpt lat="40.1376604574978" lon="9.204230644932784"><ele>652.0</ele><time>2026-04-29T16:02:04.233Z</time></trkpt><trkpt lat="40.13787988071474" lon="9.204113760181988"><ele>650.0</ele><time>2026-04-29T16:02:05.233Z</time></trkpt><trkpt lat="40.13810094691523" lon="9.203992407956234"><ele>648.0</ele><time>2026-04-29T16:02:06.233Z</time></trkpt><trkpt lat="40.138323810532036" lon="9.203867736094061"><ele>648.0</ele><time>2026-04-29T16:02:07.233Z</time></trkpt><trkpt lat="40.13854776540635" lon="9.2037345395824"><ele>648.0</ele><time>2026-04-29T16:02:08.233Z</time></trkpt><trkpt lat="40.138770346481444" lon="9.20358749656417"><ele>648.0</ele><time>2026-04-29T16:02:09.233Z</time></trkpt><trkpt lat="40.13898502940885" lon="9.203432281764263"><ele>648.0</ele><time>2026-04-29T16:02:10.233Z</time></trkpt><trkpt lat="40.13916604504316" lon="9.203263175395064"><ele>649.0</ele><time>2026-04-29T16:02:11.233Z</time></trkpt><trkpt lat="40.139370295056224" lon="9.203116851180607"><ele>650.0</ele><time>2026-04-29T16:02:12.233Z</time></trkpt><trkpt lat="40.139561603179935" lon="9.202990581794445"><ele>651.0</ele><time>2026-04-29T16:02:13.233Z</time></trkpt><trkpt lat="40.13976087533951" lon="9.202938646142448"><ele>651.0</ele><time>2026-04-29T16:02:14.233Z</time></trkpt><trkpt lat="40.139964111443994" lon="9.202919690938652"><ele>651.0</ele><time>2026-04-29T16:02:15.233Z</time></trkpt><trkpt lat="40.14019347663774" lon="9.202915024103978"><ele>651.0</ele><time>2026-04-29T16:02:16.233Z</time></trkpt><trkpt lat="40.140429921809215" lon="9.20291065257334"><ele>651.0</ele><time>2026-04-29T16:02:17.233Z</time></trkpt><trkpt lat="40.140676971133736" lon="9.202907195943284"><ele>651.0</ele><time>2026-04-29T16:02:18.233Z</time></trkpt><trkpt lat="40.140930476443586" lon="9.202904753237641"><ele>648.0</ele><time>2026-04-29T16:02:19.233Z</time></trkpt><trkpt lat="40.14119287280838" lon="9.202900751265071"><ele>645.0</ele><time>2026-04-29T16:02:20.233Z</time></trkpt><trkpt lat="40.141459033410605" lon="9.2028995019007"><ele>646.0</ele><time>2026-04-29T16:02:21.233Z</time></trkpt><trkpt lat="40.14172920226311" lon="9.202898114442567"><ele>647.0</ele><time>2026-04-29T16:02:22.233Z</time></trkpt><trkpt lat="40.14197801282926" lon="9.202896673028174"><ele>647.0</ele><time>2026-04-29T16:02:23.233Z</time></trkpt><trkpt lat="40.142195764245166" lon="9.202915387175826"><ele>647.0</ele><time>2026-04-29T16:02:24.233Z</time></trkpt><trkpt lat="40.14238446946" lon="9.202956441254171"><ele>647.0</ele><time>2026-04-29T16:02:25.233Z</time></trkpt><trkpt lat="40.14254670413833" lon="9.202944320760661"><ele>647.75</ele><time>2026-04-29T16:02:26.233Z</time></trkpt><trkpt lat="40.142684837408474" lon="9.202945285718993"><ele>648.5</ele><time>2026-04-29T16:02:27.233Z</time></trkpt><trkpt lat="40.14278711221774" lon="9.202828544080216"><ele>649.25</ele><time>2026-04-29T16:02:28.233Z</time></trkpt><trkpt lat="40.14291775646086" lon="9.202692769647305"><ele>650.0</ele><time>2026-04-29T16:02:29.233Z</time></trkpt><trkpt lat="40.143058571831126" lon="9.20251552613958"><ele>650.0</ele><time>2026-04-29T16:02:30.233Z</time></trkpt><trkpt lat="40.14321364336647" lon="9.202346929261466"><ele>650.0</ele><time>2026-04-29T16:02:31.233Z</time></trkpt><trkpt lat="40.14335494980865" lon="9.20218218480186"><ele>650.0</ele><time>2026-04-29T16:02:32.233Z</time></trkpt><trkpt lat="40.14342177804137" lon="9.201991586091967"><ele>650.0</ele><time>2026-04-29T16:02:33.233Z</time></trkpt><trkpt lat="40.14346192597192" lon="9.201714620371868"><ele>650.0</ele><time>2026-04-29T16:02:34.233Z</time></trkpt><trkpt lat="40.143482287441905" lon="9.201440157515227"><ele>650.0</ele><time>2026-04-29T16:02:35.233Z</time></trkpt><trkpt lat="40.143529295639084" lon="9.20124421057381"><ele>650.0</ele><time>2026-04-29T16:02:36.233Z</time></trkpt><trkpt lat="40.143635939885115" lon="9.201142659950307"><ele>650.0</ele><time>2026-04-29T16:02:37.232Z</time></trkpt><trkpt lat="40.14378104432404" lon="9.20107038212973"><ele>650.0</ele><time>2026-04-29T16:02:38.232Z</time></trkpt><trkpt lat="40.14395903474985" lon="9.201021071411768"><ele>650.6666666666666</ele><time>2026-04-29T16:02:39.232Z</time></trkpt><trkpt lat="40.14413667748652" lon="9.201046410874422"><ele>651.3333333333334</ele><time>2026-04-29T16:02:40.232Z</time></trkpt><trkpt lat="40.14433701310314" lon="9.201117493475378"><ele>652.0</ele><time>2026-04-29T16:02:41.232Z</time></trkpt><trkpt lat="40.14455052245317" lon="9.201193042548171"><ele>652.0</ele><time>2026-04-29T16:02:42.232Z</time></trkpt><trkpt lat="40.14474906459682" lon="9.20127933642892"><ele>652.0</ele><time>2026-04-29T16:02:43.232Z</time></trkpt><trkpt lat="40.144897977535074" lon="9.201326606239107"><ele>652.0</ele><time>2026-04-29T16:02:44.232Z</time></trkpt><trkpt lat="40.14501264560632" lon="9.201346639976228"><ele>650.6666666666667</ele><time>2026-04-29T16:02:45.232Z</time></trkpt><trkpt lat="40.145113413097924" lon="9.201426306988603"><ele>649.3333333333334</ele><time>2026-04-29T16:02:46.232Z</time></trkpt><trkpt lat="40.14518809039844" lon="9.201178466417314"><ele>648.0</ele><time>2026-04-29T16:02:47.232Z</time></trkpt><trkpt lat="40.145228580434186" lon="9.200971020956192"><ele>648.0</ele><time>2026-04-29T16:02:48.232Z</time></trkpt><trkpt lat="40.14525599296596" lon="9.200728241505892"><ele>648.0</ele><time>2026-04-29T16:02:49.232Z</time></trkpt><trkpt lat="40.14530411202588" lon="9.200468465437003"><ele>648.0</ele><time>2026-04-29T16:02:50.232Z</time></trkpt><trkpt lat="40.14537792951715" lon="9.200209731107075"><ele>647.6666666666666</ele><time>2026-04-29T16:02:51.232Z</time></trkpt><trkpt lat="40.14543976940169" lon="9.199965583735102"><ele>647.3333333333333</ele><time>2026-04-29T16:02:52.234Z</time></trkpt><trkpt lat="40.14551362245465" lon="9.199775236507541"><ele>647.0</ele><time>2026-04-29T16:02:53.234Z</time></trkpt><trkpt lat="40.1456661299616" lon="9.199684224271925"><ele>651.6666666666666</ele><time>2026-04-29T16:02:54.234Z</time></trkpt><trkpt lat="40.14586485698089" lon="9.199601645052221"><ele>656.3333333333334</ele><time>2026-04-29T16:02:55.234Z</time></trkpt><trkpt lat="40.14606688481747" lon="9.199507109015471"><ele>661.0</ele><time>2026-04-29T16:02:56.234Z</time></trkpt><trkpt lat="40.14625876814083" lon="9.199452326349606"><ele>661.0</ele><time>2026-04-29T16:02:57.234Z</time></trkpt><trkpt lat="40.14643819711497" lon="9.199465225261923"><ele>661.0</ele><time>2026-04-29T16:02:58.235Z</time></trkpt><trkpt lat="40.14662496766022" lon="9.199508283799469"><ele>661.0</ele><time>2026-04-29T16:02:59.234Z</time></trkpt><trkpt lat="40.1468133267355" lon="9.199533801025959"><ele>662.0</ele><time>2026-04-29T16:03:00.234Z</time></trkpt><trkpt lat="40.14699792710497" lon="9.199522179020676"><ele>663.0</ele><time>2026-04-29T16:03:01.234Z</time></trkpt><trkpt lat="40.14718476977634" lon="9.199451294948872"><ele>664.0</ele><time>2026-04-29T16:03:02.234Z</time></trkpt><trkpt lat="40.147340291657464" lon="9.199362576386607"><ele>663.5</ele><time>2026-04-29T16:03:03.234Z</time></trkpt><trkpt lat="40.1474471078594" lon="9.199266671552685"><ele>663.0</ele><time>2026-04-29T16:03:04.234Z</time></trkpt><trkpt lat="40.147467496257924" lon="9.199115024012096"><ele>662.5</ele><time>2026-04-29T16:03:05.234Z</time></trkpt><trkpt lat="40.14739624575304" lon="9.19888754138659"><ele>662.0</ele><time>2026-04-29T16:03:06.234Z</time></trkpt><trkpt lat="40.14728262485887" lon="9.198637819265384"><ele>668.0</ele><time>2026-04-29T16:03:07.234Z</time></trkpt><trkpt lat="40.147237805338605" lon="9.19843259012482"><ele>674.0</ele><time>2026-04-29T16:03:08.234Z</time></trkpt><trkpt lat="40.14734847727618" lon="9.198295838234571"><ele>680.0</ele><time>2026-04-29T16:03:09.234Z</time></trkpt><trkpt lat="40.14745756218893" lon="9.198121584810815"><ele>682.0</ele><time>2026-04-29T16:03:10.234Z</time></trkpt><trkpt lat="40.14750095258421" lon="9.197983162969521"><ele>684.0</ele><time>2026-04-29T16:03:11.234Z</time></trkpt><trkpt lat="40.147480724317965" lon="9.197817771911737"><ele>686.0</ele><time>2026-04-29T16:03:12.234Z</time></trkpt><trkpt lat="40.14745216954121" lon="9.197649700077717"><ele>688.0</ele><time>2026-04-29T16:03:13.234Z</time></trkpt><trkpt lat="40.147517633864574" lon="9.197570809984446"><ele>688.0</ele><time>2026-04-29T16:03:14.234Z</time></trkpt><trkpt lat="40.147664866663696" lon="9.19761299404078"><ele>688.0</ele><time>2026-04-29T16:03:15.234Z</time></trkpt><trkpt lat="40.14783581421512" lon="9.197602955327167"><ele>688.0</ele><time>2026-04-29T16:03:16.234Z</time></trkpt><trkpt lat="40.14800946403753" lon="9.197543616461175"><ele>688.0</ele><time>2026-04-29T16:03:17.234Z</time></trkpt><trkpt lat="40.14816598405144" lon="9.197427197907896"><ele>688.0</ele><time>2026-04-29T16:03:18.234Z</time></trkpt><trkpt lat="40.14831683421406" lon="9.197486991952358"><ele>688.0</ele><time>2026-04-29T16:03:19.234Z</time></trkpt><trkpt lat="40.14853956866242" lon="9.197522195942797"><ele>686.0</ele><time>2026-04-29T16:03:20.234Z</time></trkpt><trkpt lat="40.148780771587525" lon="9.197501356071449"><ele>684.0</ele><time>2026-04-29T16:03:21.234Z</time></trkpt><trkpt lat="40.149035097345106" lon="9.197437144337384"><ele>688.6666666666666</ele><time>2026-04-29T16:03:22.234Z</time></trkpt><trkpt lat="40.14924830013031" lon="9.197313862884013"><ele>693.3333333333333</ele><time>2026-04-29T16:03:23.234Z</time></trkpt><trkpt lat="40.14940355555436" lon="9.197218921312558"><ele>698.0</ele><time>2026-04-29T16:03:24.234Z</time></trkpt><trkpt lat="40.149499553475714" lon="9.19710772019642"><ele>698.0</ele><time>2026-04-29T16:03:25.234Z</time></trkpt><trkpt lat="40.149514282628466" lon="9.196932695392945"><ele>698.0</ele><time>2026-04-29T16:03:26.234Z</time></trkpt><trkpt lat="40.14946675547378" lon="9.196685320451115"><ele>698.0</ele><time>2026-04-29T16:03:27.234Z</time></trkpt><trkpt lat="40.14940675922659" lon="9.196392167308792"><ele>700.6666666666666</ele><time>2026-04-29T16:03:28.234Z</time></trkpt><trkpt lat="40.149442234299485" lon="9.196159807397658"><ele>703.3333333333334</ele><time>2026-04-29T16:03:29.234Z</time></trkpt><trkpt lat="40.14954825992661" lon="9.195986042112263"><ele>706.0</ele><time>2026-04-29T16:03:30.234Z</time></trkpt><trkpt lat="40.14971052504175" lon="9.195856375172314"><ele>703.0</ele><time>2026-04-29T16:03:31.234Z</time></trkpt><trkpt lat="40.14991012115409" lon="9.195795570627805"><ele>700.0</ele><time>2026-04-29T16:03:32.234Z</time></trkpt><trkpt lat="40.15009427203705" lon="9.195818069535276"><ele>697.0</ele><time>2026-04-29T16:03:33.234Z</time></trkpt><trkpt lat="40.15024790374401" lon="9.195959835029411"><ele>697.0</ele><time>2026-04-29T16:03:34.234Z</time></trkpt><trkpt lat="40.15043148829597" lon="9.19604012338877"><ele>697.0</ele><time>2026-04-29T16:03:35.234Z</time></trkpt><trkpt lat="40.150606190596086" lon="9.19605041602482"><ele>697.0</ele><time>2026-04-29T16:03:36.234Z</time></trkpt><trkpt lat="40.15076169512319" lon="9.195902842904971"><ele>698.0</ele><time>2026-04-29T16:03:37.234Z</time></trkpt><trkpt lat="40.15094685949465" lon="9.195750955669645"><ele>699.0</ele><time>2026-04-29T16:03:38.234Z</time></trkpt><trkpt lat="40.151129641082086" lon="9.195700267588172"><ele>700.0</ele><time>2026-04-29T16:03:39.234Z</time></trkpt><trkpt lat="40.15127848199656" lon="9.195619926322083"><ele>704.25</ele><time>2026-04-29T16:03:40.234Z</time></trkpt><trkpt lat="40.151412179036356" lon="9.195469681604928"><ele>708.5</ele><time>2026-04-29T16:03:41.234Z</time></trkpt><trkpt lat="40.15152071160873" lon="9.195384784077387"><ele>712.75</ele><time>2026-04-29T16:03:42.234Z</time></trkpt><trkpt lat="40.15163460928655" lon="9.195467046344339"><ele>717.0</ele><time>2026-04-29T16:03:43.234Z</time></trkpt><trkpt lat="40.15169585345616" lon="9.195633936143249"><ele>714.0</ele><time>2026-04-29T16:03:44.234Z</time></trkpt><trkpt lat="40.1517217384233" lon="9.195851630720217"><ele>711.0</ele><time>2026-04-29T16:03:45.234Z</time></trkpt><trkpt lat="40.15175646109398" lon="9.196116384011658"><ele>708.0</ele><time>2026-04-29T16:03:46.234Z</time></trkpt><trkpt lat="40.1517931630336" lon="9.196394205664955"><ele>706.3333333333334</ele><time>2026-04-29T16:03:47.234Z</time></trkpt><trkpt lat="40.15185893119871" lon="9.196615671400549"><ele>704.6666666666667</ele><time>2026-04-29T16:03:48.234Z</time></trkpt><trkpt lat="40.15193521620707" lon="9.196778223885117"><ele>703.0</ele><time>2026-04-29T16:03:49.234Z</time></trkpt><trkpt lat="40.15206424576719" lon="9.196902763053313"><ele>703.0</ele><time>2026-04-29T16:03:50.234Z</time></trkpt><trkpt lat="40.15225382644994" lon="9.196991185559849"><ele>703.0</ele><time>2026-04-29T16:03:51.234Z</time></trkpt><trkpt lat="40.15246076069704" lon="9.196991657381941"><ele>703.0</ele><time>2026-04-29T16:03:52.234Z</time></trkpt><trkpt lat="40.152660052516474" lon="9.196907201841146"><ele>708.3333333333334</ele><time>2026-04-29T16:03:53.234Z</time></trkpt><trkpt lat="40.15282998704244" lon="9.196794196399747"><ele>713.6666666666666</ele><time>2026-04-29T16:03:54.234Z</time></trkpt><trkpt lat="40.15296117707094" lon="9.196651960599343"><ele>719.0</ele><time>2026-04-29T16:03:55.234Z</time></trkpt><trkpt lat="40.15306956995682" lon="9.196500147288656"><ele>723.0</ele><time>2026-04-29T16:03:56.234Z</time></trkpt><trkpt lat="40.15315746949438" lon="9.196353955353125"><ele>727.0</ele><time>2026-04-29T16:03:57.234Z</time></trkpt><trkpt lat="40.15325365968193" lon="9.19623125624349"><ele>731.0</ele><time>2026-04-29T16:03:58.234Z</time></trkpt><trkpt lat="40.153378956574" lon="9.196180064626295"><ele>735.0</ele><time>2026-04-29T16:03:59.234Z</time></trkpt><trkpt lat="40.15348891472766" lon="9.196095747754889"><ele>735.5</ele><time>2026-04-29T16:04:00.234Z</time></trkpt><trkpt lat="40.15359083084842" lon="9.196025862764534"><ele>736.0</ele><time>2026-04-29T16:04:01.234Z</time></trkpt><trkpt lat="40.15367970917291" lon="9.195922997548454"><ele>736.5</ele><time>2026-04-29T16:04:02.234Z</time></trkpt><trkpt lat="40.15377782821421" lon="9.195828539197816"><ele>737.0</ele><time>2026-04-29T16:04:03.234Z</time></trkpt><trkpt lat="40.153873084842964" lon="9.195757476291014"><ele>737.0</ele><time>2026-04-29T16:04:04.234Z</time></trkpt><trkpt lat="40.15398034126644" lon="9.195720281249418"><ele>737.0</ele><time>2026-04-29T16:04:05.234Z</time></trkpt><trkpt lat="40.15407139737202" lon="9.19565764607197"><ele>737.0</ele><time>2026-04-29T16:04:06.234Z</time></trkpt><trkpt lat="40.15416363777039" lon="9.195610371434908"><ele>737.0</ele><time>2026-04-29T16:04:07.234Z</time></trkpt><trkpt lat="40.1542431113383" lon="9.195568922205654"><ele>737.0</ele><time>2026-04-29T16:04:08.234Z</time></trkpt><trkpt lat="40.15430986221653" lon="9.19552939874084"><ele>737.8</ele><time>2026-04-29T16:04:09.234Z</time></trkpt><trkpt lat="40.15438626170053" lon="9.195427471133383"><ele>738.6</ele><time>2026-04-29T16:04:11.234Z</time></trkpt><trkpt lat="40.15442817388789" lon="9.195336012278359"><ele>739.4</ele><time>2026-04-29T16:04:13.234Z</time></trkpt><trkpt lat="40.15444665563571" lon="9.195243202529898"><ele>740.1999999999999</ele><time>2026-04-29T16:04:15.234Z</time></trkpt><trkpt lat="40.15446812688576" lon="9.195147588819921"><ele>741.0</ele><time>2026-04-29T16:05:06.236Z</time></trkpt><trkpt lat="40.154510930327184" lon="9.194970451686865"><ele>741.0</ele><time>2026-04-29T16:05:08.235Z</time></trkpt><trkpt lat="40.15456365816879" lon="9.19485796412932"><ele>741.0</ele><time>2026-04-29T16:05:09.235Z</time></trkpt><trkpt lat="40.15462987886205" lon="9.194740186932721"><ele>741.0</ele><time>2026-04-29T16:05:10.235Z</time></trkpt><trkpt lat="40.154716084144226" lon="9.194638123302596"><ele>741.0</ele><time>2026-04-29T16:05:11.235Z</time></trkpt><trkpt lat="40.1548217256471" lon="9.194561994487369"><ele>741.0</ele><time>2026-04-29T16:05:12.235Z</time></trkpt><trkpt lat="40.15494295992386" lon="9.194527042671096"><ele>742.8</ele><time>2026-04-29T16:05:13.235Z</time></trkpt><trkpt lat="40.15505339065917" lon="9.194503719917941"><ele>744.5999999999999</ele><time>2026-04-29T16:05:14.235Z</time></trkpt><trkpt lat="40.155161933968785" lon="9.194475269370148"><ele>746.4</ele><time>2026-04-29T16:05:15.235Z</time></trkpt><trkpt lat="40.15527016698461" lon="9.194442802010585"><ele>748.2</ele><time>2026-04-29T16:05:16.235Z</time></trkpt><trkpt lat="40.15537837893896" lon="9.194433545650613"><ele>750.0</ele><time>2026-04-29T16:05:17.235Z</time></trkpt><trkpt lat="40.15548717086456" lon="9.194426444082902"><ele>750.0</ele><time>2026-04-29T16:05:18.235Z</time></trkpt><trkpt lat="40.155593674717565" lon="9.194399231563846"><ele>750.0</ele><time>2026-04-29T16:05:19.235Z</time></trkpt><trkpt lat="40.155702206071666" lon="9.194377145734645"><ele>750.0</ele><time>2026-04-29T16:05:20.235Z</time></trkpt><trkpt lat="40.15581430787174" lon="9.194372684421415"><ele>750.0</ele><time>2026-04-29T16:05:21.235Z</time></trkpt><trkpt lat="40.15592159511218" lon="9.194362255052498"><ele>750.0</ele><time>2026-04-29T16:05:22.235Z</time></trkpt><trkpt lat="40.15603573548631" lon="9.194350056427194"><ele>749.5</ele><time>2026-04-29T16:05:23.235Z</time></trkpt><trkpt lat="40.1561510137449" lon="9.194367585409298"><ele>749.0</ele><time>2026-04-29T16:05:24.235Z</time></trkpt><trkpt lat="40.156264788483035" lon="9.19433071582859"><ele>748.5</ele><time>2026-04-29T16:05:25.235Z</time></trkpt><trkpt lat="40.1563584664448" lon="9.194253145402893"><ele>748.0</ele><time>2026-04-29T16:05:26.235Z</time></trkpt><trkpt lat="40.156443738225164" lon="9.1941579504058"><ele>747.5999999999999</ele><time>2026-04-29T16:05:27.235Z</time></trkpt><trkpt lat="40.156546046032666" lon="9.194082194218023"><ele>747.1999999999999</ele><time>2026-04-29T16:05:28.235Z</time></trkpt><trkpt lat="40.15664469090236" lon="9.194010142189775"><ele>746.8</ele><time>2026-04-29T16:05:29.235Z</time></trkpt><trkpt lat="40.15673300940996" lon="9.193935042365354"><ele>746.4</ele><time>2026-04-29T16:05:30.235Z</time></trkpt><trkpt lat="40.15681538234678" lon="9.19385791927867"><ele>746.0</ele><time>2026-04-29T16:05:31.235Z</time></trkpt><trkpt lat="40.156893399668185" lon="9.193798553490693"><ele>751.1999999999999</ele><time>2026-04-29T16:05:32.235Z</time></trkpt><trkpt lat="40.156972605698854" lon="9.193760782797444"><ele>756.4</ele><time>2026-04-29T16:05:33.235Z</time></trkpt><trkpt lat="40.157055567059" lon="9.193730129937803"><ele>761.6</ele><time>2026-04-29T16:05:34.235Z</time></trkpt><trkpt lat="40.15714476215192" lon="9.193703541279952"><ele>766.8</ele><time>2026-04-29T16:05:35.235Z</time></trkpt><trkpt lat="40.15724572007743" lon="9.193683876602133"><ele>772.0</ele><time>2026-04-29T16:05:36.235Z</time></trkpt><trkpt lat="40.15734705641001" lon="9.193674733694234"><ele>770.4000000000001</ele><time>2026-04-29T16:05:37.235Z</time></trkpt><trkpt lat="40.157446659652784" lon="9.193658813915592"><ele>768.8000000000001</ele><time>2026-04-29T16:05:38.235Z</time></trkpt><trkpt lat="40.1575447090915" lon="9.19364430390461"><ele>767.2</ele><time>2026-04-29T16:05:39.235Z</time></trkpt><trkpt lat="40.15764495168801" lon="9.193630381880151"><ele>765.6</ele><time>2026-04-29T16:05:40.235Z</time></trkpt><trkpt lat="40.15774957527398" lon="9.19363517616591"><ele>764.0</ele><time>2026-04-29T16:05:41.235Z</time></trkpt><trkpt lat="40.157836413143585" lon="9.193582949542002"><ele>764.0</ele><time>2026-04-29T16:05:42.235Z</time></trkpt><trkpt lat="40.15791904128918" lon="9.193524179484386"><ele>764.0</ele><time>2026-04-29T16:05:43.235Z</time></trkpt><trkpt lat="40.15799644313828" lon="9.19346917426421"><ele>764.0</ele><time>2026-04-29T16:05:44.235Z</time></trkpt><trkpt lat="40.15806360573569" lon="9.193425808935698"><ele>764.0</ele><time>2026-04-29T16:05:45.235Z</time></trkpt><trkpt lat="40.158176380078785" lon="9.193376903957061"><ele>764.0</ele><time>2026-04-29T16:05:47.235Z</time></trkpt><trkpt lat="40.15828573501873" lon="9.193390394887917"><ele>764.6</ele><time>2026-04-29T16:05:49.235Z</time></trkpt><trkpt lat="40.15837539516558" lon="9.193466324157413"><ele>765.2</ele><time>2026-04-29T16:05:51.235Z</time></trkpt><trkpt lat="40.15842336246984" lon="9.193532479158373"><ele>765.8000000000001</ele><time>2026-04-29T16:05:52.235Z</time></trkpt><trkpt lat="40.15849404923045" lon="9.193672321196924"><ele>766.4000000000001</ele><time>2026-04-29T16:05:54.235Z</time></trkpt><trkpt lat="40.158533258218476" lon="9.193763524888162"><ele>767.0</ele><time>2026-04-29T16:05:55.235Z</time></trkpt><trkpt lat="40.15858103230209" lon="9.19385670114942"><ele>767.0</ele><time>2026-04-29T16:05:56.235Z</time></trkpt><trkpt lat="40.15862257199207" lon="9.193948667306929"><ele>767.0</ele><time>2026-04-29T16:05:57.235Z</time></trkpt><trkpt lat="40.1586600127507" lon="9.194042520911445"><ele>767.0</ele><time>2026-04-29T16:05:58.235Z</time></trkpt><trkpt lat="40.15865608673337" lon="9.194139560988214"><ele>767.0</ele><time>2026-04-29T16:05:59.235Z</time></trkpt><trkpt lat="40.158663083454925" lon="9.194233516927858"><ele>767.0</ele><time>2026-04-29T16:06:00.235Z</time></trkpt><trkpt lat="40.158667762419505" lon="9.194330979532092"><ele>767.0</ele><time>2026-04-29T16:06:01.235Z</time></trkpt><trkpt lat="40.15866934680884" lon="9.194436228105271"><ele>765.6666666666666</ele><time>2026-04-29T16:06:02.235Z</time></trkpt><trkpt lat="40.15866939207184" lon="9.194539892982066"><ele>764.3333333333333</ele><time>2026-04-29T16:06:03.235Z</time></trkpt><trkpt lat="40.15866816808754" lon="9.194648472508813"><ele>763.0</ele><time>2026-04-29T16:06:04.235Z</time></trkpt><trkpt lat="40.158666884308246" lon="9.194762356138172"><ele>761.6666666666666</ele><time>2026-04-29T16:06:05.235Z</time></trkpt><trkpt lat="40.15866570144996" lon="9.194867286595791"><ele>760.3333333333334</ele><time>2026-04-29T16:06:06.235Z</time></trkpt><trkpt lat="40.1586666409959" lon="9.194957707043077"><ele>759.0</ele><time>2026-04-29T16:06:07.235Z</time></trkpt><trkpt lat="40.15866660281664" lon="9.19504039469894"><ele>759.0</ele><time>2026-04-29T16:06:08.235Z</time></trkpt><trkpt lat="40.158669129438884" lon="9.19514317112845"><ele>759.0</ele><time>2026-04-29T16:06:10.235Z</time></trkpt><trkpt lat="40.15876691898199" lon="9.195185159413445"><ele>759.0</ele><time>2026-04-29T16:06:14.235Z</time></trkpt><trkpt lat="40.15885185725618" lon="9.195178571208952"><ele>759.0</ele><time>2026-04-29T16:06:16.235Z</time></trkpt><trkpt lat="40.15892625348446" lon="9.195166370889845"><ele>759.0</ele><time>2026-04-29T16:06:18.235Z</time></trkpt><trkpt lat="40.158989596733015" lon="9.195122749488135"><ele>759.0</ele><time>2026-04-29T16:06:21.235Z</time></trkpt><trkpt lat="40.15906458832964" lon="9.195091743442442"><ele>761.5</ele><time>2026-04-29T16:06:23.235Z</time></trkpt><trkpt lat="40.15915359900002" lon="9.195056458658232"><ele>764.0</ele><time>2026-04-29T16:06:26.235Z</time></trkpt><trkpt lat="40.15923027679064" lon="9.194995419519023"><ele>766.5</ele><time>2026-04-29T16:06:30.235Z</time></trkpt><trkpt lat="40.15929964205042" lon="9.194938333708576"><ele>769.0</ele><time>2026-04-29T16:06:33.235Z</time></trkpt><trkpt lat="40.15929348435422" lon="9.194848571729061"><ele>771.5</ele><time>2026-04-29T16:06:34.235Z</time></trkpt><trkpt lat="40.15934282354125" lon="9.194779773326687"><ele>774.0</ele><time>2026-04-29T16:06:36.235Z</time></trkpt><trkpt lat="40.159347376489535" lon="9.1946208577902"><ele>780.0</ele><time>2026-04-29T16:06:39.235Z</time></trkpt><trkpt lat="40.159328633090226" lon="9.194538678410304"><ele>780.0</ele><time>2026-04-29T16:06:45.235Z</time></trkpt><trkpt lat="40.15931223609123" lon="9.194453438045594"><ele>780.0</ele><time>2026-04-29T16:06:51.235Z</time></trkpt></trkseg></trk></gpx>